<?xml version="1.0" encoding="UTF-8"?>
<gpx version="1.1" creator="https://www.youtrack.es" xsi:schemaLocation="http://www.topografix.com/GPX/1/1 http://www.topografix.com/GPX/1/1/gpx.xsd http://www.garmin.com/xmlschemas/GpxExtensions/v3 http://www.garmin.com/xmlschemas/GpxExtensionsv3.xsd http://www.garmin.com/xmlschemas/TrackPointExtension/v1 http://www.garmin.com/xmlschemas/TrackPointExtensionv1.xsd" xmlns:gpxtpx="http://www.garmin.com/xmlschemas/TrackPointExtension/v1" xmlns:gpxx="http://www.garmin.com/xmlschemas/GpxExtensions/v3" xmlns:xsi="http://www.w3.org/2001/XMLSchema-instance">
  <metadata>
    <author>
      <name>Neus Dutrén</name>
      <email id="neusdunu" domain="gmail.com"/>
    </author>
    <link href="https://www.youtrack.es">
      <text>YouTrack.es</text>
    </link>
    <time>2026-05-09T06:14:51Z</time>
  </metadata>
  <trk>
    <src>https://www.youtrack.es</src>
    <link href="https://www.youtrack.es/ruta/24921-activity-7284923901">
      <text>YouTrack.es</text>
    </link>
    <trkseg>
      <trkpt lat="42.87343" lon="-0.44658">
        <ele>1219.8</ele>
        <time>2021-08-09 11:33:08</time>
      </trkpt>
      <trkpt lat="42.87342" lon="-0.44659">
        <ele>1219.8</ele>
      </trkpt>
      <trkpt lat="42.87341" lon="-0.4466">
        <ele>1220</ele>
        <time>2021-08-09 11:33:09</time>
      </trkpt>
      <trkpt lat="42.8734" lon="-0.44661">
        <ele>1219.8</ele>
        <time>2021-08-09 11:33:10</time>
      </trkpt>
      <trkpt lat="42.8734" lon="-0.44662">
        <ele>1219.6</ele>
        <time>2021-08-09 11:33:11</time>
      </trkpt>
      <trkpt lat="42.87339" lon="-0.44663">
        <ele>1219.8</ele>
        <time>2021-08-09 11:33:12</time>
      </trkpt>
      <trkpt lat="42.87338" lon="-0.44664">
        <ele>1219.8</ele>
        <time>2021-08-09 11:33:13</time>
      </trkpt>
      <trkpt lat="42.87338" lon="-0.44665">
        <ele>1219.8</ele>
        <time>2021-08-09 11:33:14</time>
      </trkpt>
      <trkpt lat="42.87337" lon="-0.44666">
        <ele>1219.8</ele>
        <time>2021-08-09 11:33:15</time>
      </trkpt>
      <trkpt lat="42.87337" lon="-0.44668">
        <ele>1219.6</ele>
        <time>2021-08-09 11:33:16</time>
      </trkpt>
      <trkpt lat="42.87338" lon="-0.44669">
        <ele>1219.6</ele>
        <time>2021-08-09 11:33:17</time>
      </trkpt>
      <trkpt lat="42.87338" lon="-0.4467">
        <ele>1219.4</ele>
        <time>2021-08-09 11:33:18</time>
      </trkpt>
      <trkpt lat="42.87338" lon="-0.44672">
        <ele>1219.6</ele>
        <time>2021-08-09 11:33:19</time>
      </trkpt>
      <trkpt lat="42.87338" lon="-0.44674">
        <ele>1219.6</ele>
        <time>2021-08-09 11:33:20</time>
      </trkpt>
      <trkpt lat="42.87338" lon="-0.44675">
        <ele>1219.4</ele>
        <time>2021-08-09 11:33:21</time>
      </trkpt>
      <trkpt lat="42.87339" lon="-0.44676">
        <ele>1219</ele>
        <time>2021-08-09 11:33:22</time>
      </trkpt>
      <trkpt lat="42.87339" lon="-0.44677">
        <ele>1219.4</ele>
        <time>2021-08-09 11:33:23</time>
      </trkpt>
      <trkpt lat="42.87339" lon="-0.44679">
        <ele>1219.8</ele>
        <time>2021-08-09 11:33:24</time>
      </trkpt>
      <trkpt lat="42.87339" lon="-0.4468">
        <ele>1220</ele>
        <time>2021-08-09 11:33:25</time>
      </trkpt>
      <trkpt lat="42.87339" lon="-0.44681">
        <ele>1219.6</ele>
        <time>2021-08-09 11:33:26</time>
      </trkpt>
      <trkpt lat="42.87339" lon="-0.44682">
        <ele>1219.6</ele>
        <time>2021-08-09 11:33:27</time>
      </trkpt>
      <trkpt lat="42.87339" lon="-0.44684">
        <ele>1219.2</ele>
        <time>2021-08-09 11:33:28</time>
      </trkpt>
      <trkpt lat="42.87339" lon="-0.44685">
        <ele>1219.2</ele>
        <time>2021-08-09 11:33:29</time>
      </trkpt>
      <trkpt lat="42.87339" lon="-0.44686">
        <ele>1219</ele>
        <time>2021-08-09 11:33:30</time>
      </trkpt>
      <trkpt lat="42.87338" lon="-0.44687">
        <ele>1218.4</ele>
        <time>2021-08-09 11:33:31</time>
      </trkpt>
      <trkpt lat="42.87338" lon="-0.44688">
        <ele>1218.6</ele>
        <time>2021-08-09 11:33:32</time>
      </trkpt>
      <trkpt lat="42.87336" lon="-0.44688">
        <ele>1218.8</ele>
        <time>2021-08-09 11:33:33</time>
      </trkpt>
      <trkpt lat="42.87336" lon="-0.44689">
        <ele>1218.8</ele>
        <time>2021-08-09 11:33:34</time>
      </trkpt>
      <trkpt lat="42.87337" lon="-0.4469">
        <ele>1218.6</ele>
        <time>2021-08-09 11:33:35</time>
      </trkpt>
      <trkpt lat="42.87337" lon="-0.44692">
        <ele>1218.4</ele>
        <time>2021-08-09 11:33:36</time>
      </trkpt>
      <trkpt lat="42.87337" lon="-0.44693">
        <ele>1218.2</ele>
        <time>2021-08-09 11:33:37</time>
      </trkpt>
      <trkpt lat="42.87337" lon="-0.44694">
        <ele>1218</ele>
        <time>2021-08-09 11:33:38</time>
      </trkpt>
      <trkpt lat="42.87337" lon="-0.44696">
        <ele>1218</ele>
        <time>2021-08-09 11:33:39</time>
      </trkpt>
      <trkpt lat="42.87337" lon="-0.44697">
        <ele>1218</ele>
        <time>2021-08-09 11:33:40</time>
      </trkpt>
      <trkpt lat="42.87338" lon="-0.44699">
        <ele>1217.8</ele>
        <time>2021-08-09 11:33:41</time>
      </trkpt>
      <trkpt lat="42.87337" lon="-0.44701">
        <ele>1217.4</ele>
        <time>2021-08-09 11:33:42</time>
      </trkpt>
      <trkpt lat="42.87337" lon="-0.44703">
        <ele>1216.8</ele>
        <time>2021-08-09 11:33:43</time>
      </trkpt>
      <trkpt lat="42.87337" lon="-0.44704">
        <ele>1216.2</ele>
        <time>2021-08-09 11:33:44</time>
      </trkpt>
      <trkpt lat="42.87337" lon="-0.44706">
        <ele>1216</ele>
        <time>2021-08-09 11:33:45</time>
      </trkpt>
      <trkpt lat="42.87337" lon="-0.44708">
        <ele>1216.4</ele>
        <time>2021-08-09 11:33:46</time>
      </trkpt>
      <trkpt lat="42.87337" lon="-0.44709">
        <ele>1216.4</ele>
        <time>2021-08-09 11:33:47</time>
      </trkpt>
      <trkpt lat="42.87337" lon="-0.4471">
        <ele>1216.6</ele>
        <time>2021-08-09 11:33:48</time>
      </trkpt>
      <trkpt lat="42.87338" lon="-0.44712">
        <ele>1216.8</ele>
        <time>2021-08-09 11:33:49</time>
      </trkpt>
      <trkpt lat="42.87337" lon="-0.44713">
        <ele>1216.8</ele>
        <time>2021-08-09 11:33:50</time>
      </trkpt>
      <trkpt lat="42.87337" lon="-0.44714">
        <ele>1217.2</ele>
        <time>2021-08-09 11:33:51</time>
      </trkpt>
      <trkpt lat="42.87337" lon="-0.44715">
        <ele>1217</ele>
        <time>2021-08-09 11:33:52</time>
      </trkpt>
      <trkpt lat="42.87337" lon="-0.44716">
        <ele>1217</ele>
        <time>2021-08-09 11:33:53</time>
      </trkpt>
      <trkpt lat="42.87336" lon="-0.44717">
        <ele>1216.8</ele>
        <time>2021-08-09 11:33:54</time>
      </trkpt>
      <trkpt lat="42.87337" lon="-0.44719">
        <ele>1216.6</ele>
        <time>2021-08-09 11:33:55</time>
      </trkpt>
      <trkpt lat="42.87336" lon="-0.44721">
        <ele>1216.4</ele>
        <time>2021-08-09 11:33:56</time>
      </trkpt>
      <trkpt lat="42.87336" lon="-0.44722">
        <ele>1216.2</ele>
        <time>2021-08-09 11:33:57</time>
      </trkpt>
      <trkpt lat="42.87336" lon="-0.44723">
        <ele>1216.2</ele>
        <time>2021-08-09 11:33:58</time>
      </trkpt>
      <trkpt lat="42.87337" lon="-0.44725">
        <ele>1216.2</ele>
        <time>2021-08-09 11:33:59</time>
      </trkpt>
      <trkpt lat="42.87336" lon="-0.44727">
        <ele>1216</ele>
        <time>2021-08-09 11:34:00</time>
      </trkpt>
      <trkpt lat="42.87335" lon="-0.44728">
        <ele>1216</ele>
        <time>2021-08-09 11:34:01</time>
      </trkpt>
      <trkpt lat="42.87335" lon="-0.4473">
        <ele>1216</ele>
        <time>2021-08-09 11:34:02</time>
      </trkpt>
      <trkpt lat="42.87335" lon="-0.44731">
        <ele>1216</ele>
        <time>2021-08-09 11:34:03</time>
      </trkpt>
      <trkpt lat="42.87335" lon="-0.44732">
        <ele>1215.8</ele>
        <time>2021-08-09 11:34:04</time>
      </trkpt>
      <trkpt lat="42.87335" lon="-0.44734">
        <ele>1215.8</ele>
        <time>2021-08-09 11:34:05</time>
      </trkpt>
      <trkpt lat="42.87335" lon="-0.44735">
        <ele>1215.8</ele>
        <time>2021-08-09 11:34:06</time>
      </trkpt>
      <trkpt lat="42.87335" lon="-0.44736">
        <ele>1215.8</ele>
        <time>2021-08-09 11:34:07</time>
      </trkpt>
      <trkpt lat="42.87334" lon="-0.44737">
        <ele>1215.6</ele>
        <time>2021-08-09 11:34:08</time>
      </trkpt>
      <trkpt lat="42.87334" lon="-0.44738">
        <ele>1216</ele>
        <time>2021-08-09 11:34:09</time>
      </trkpt>
      <trkpt lat="42.87334" lon="-0.44738">
        <ele>1216</ele>
        <time>2021-08-09 11:34:10</time>
      </trkpt>
      <trkpt lat="42.87333" lon="-0.44739">
        <ele>1215.8</ele>
        <time>2021-08-09 11:34:11</time>
      </trkpt>
      <trkpt lat="42.87333" lon="-0.44739">
        <ele>1216</ele>
        <time>2021-08-09 11:34:12</time>
      </trkpt>
      <trkpt lat="42.87333" lon="-0.44739">
        <ele>1216</ele>
        <time>2021-08-09 11:34:13</time>
      </trkpt>
      <trkpt lat="42.87334" lon="-0.4474">
        <ele>1216</ele>
        <time>2021-08-09 11:34:14</time>
      </trkpt>
      <trkpt lat="42.87334" lon="-0.4474">
        <ele>1215.8</ele>
        <time>2021-08-09 11:34:15</time>
      </trkpt>
      <trkpt lat="42.87334" lon="-0.4474">
        <ele>1215.8</ele>
        <time>2021-08-09 11:34:26</time>
      </trkpt>
      <trkpt lat="42.87334" lon="-0.44742">
        <ele>1215.6</ele>
        <time>2021-08-09 11:34:27</time>
      </trkpt>
      <trkpt lat="42.87334" lon="-0.44743">
        <ele>1215.4</ele>
        <time>2021-08-09 11:34:28</time>
      </trkpt>
      <trkpt lat="42.87333" lon="-0.44744">
        <ele>1215.4</ele>
        <time>2021-08-09 11:34:29</time>
      </trkpt>
      <trkpt lat="42.87332" lon="-0.44745">
        <ele>1215.2</ele>
        <time>2021-08-09 11:34:30</time>
      </trkpt>
      <trkpt lat="42.87332" lon="-0.44746">
        <ele>1215</ele>
        <time>2021-08-09 11:34:31</time>
      </trkpt>
      <trkpt lat="42.87331" lon="-0.44747">
        <ele>1215</ele>
        <time>2021-08-09 11:34:32</time>
      </trkpt>
      <trkpt lat="42.87331" lon="-0.44748">
        <ele>1214.8</ele>
        <time>2021-08-09 11:34:33</time>
      </trkpt>
      <trkpt lat="42.8733" lon="-0.44749">
        <ele>1214.6</ele>
        <time>2021-08-09 11:34:34</time>
      </trkpt>
      <trkpt lat="42.8733" lon="-0.44749">
        <ele>1214.6</ele>
        <time>2021-08-09 11:34:35</time>
      </trkpt>
      <trkpt lat="42.87329" lon="-0.4475">
        <ele>1214.6</ele>
        <time>2021-08-09 11:34:36</time>
      </trkpt>
      <trkpt lat="42.87329" lon="-0.44751">
        <ele>1214.6</ele>
        <time>2021-08-09 11:34:37</time>
      </trkpt>
      <trkpt lat="42.87328" lon="-0.44753">
        <ele>1214.4</ele>
        <time>2021-08-09 11:34:38</time>
      </trkpt>
      <trkpt lat="42.87328" lon="-0.44755">
        <ele>1214.2</ele>
        <time>2021-08-09 11:34:39</time>
      </trkpt>
      <trkpt lat="42.87327" lon="-0.44757">
        <ele>1214.2</ele>
        <time>2021-08-09 11:34:40</time>
      </trkpt>
      <trkpt lat="42.87326" lon="-0.44757">
        <ele>1214.4</ele>
        <time>2021-08-09 11:34:41</time>
      </trkpt>
      <trkpt lat="42.87325" lon="-0.44757">
        <ele>1214.4</ele>
        <time>2021-08-09 11:34:42</time>
      </trkpt>
      <trkpt lat="42.87325" lon="-0.44757">
        <ele>1214.4</ele>
        <time>2021-08-09 11:34:43</time>
      </trkpt>
      <trkpt lat="42.87324" lon="-0.44757">
        <ele>1214.4</ele>
        <time>2021-08-09 11:34:44</time>
      </trkpt>
      <trkpt lat="42.87325" lon="-0.44758">
        <ele>1214</ele>
        <time>2021-08-09 11:34:45</time>
      </trkpt>
      <trkpt lat="42.87325" lon="-0.44759">
        <ele>1213.8</ele>
        <time>2021-08-09 11:34:49</time>
      </trkpt>
      <trkpt lat="42.87324" lon="-0.44759">
        <ele>1214.2</ele>
        <time>2021-08-09 11:34:50</time>
      </trkpt>
      <trkpt lat="42.87324" lon="-0.44759">
        <ele>1214.4</ele>
        <time>2021-08-09 11:34:51</time>
      </trkpt>
      <trkpt lat="42.87324" lon="-0.4476">
        <ele>1214.2</ele>
        <time>2021-08-09 11:34:52</time>
      </trkpt>
      <trkpt lat="42.87323" lon="-0.4476">
        <ele>1213.6</ele>
        <time>2021-08-09 11:34:53</time>
      </trkpt>
      <trkpt lat="42.87323" lon="-0.44761">
        <ele>1213.4</ele>
        <time>2021-08-09 11:34:54</time>
      </trkpt>
      <trkpt lat="42.87323" lon="-0.44762">
        <ele>1213.4</ele>
        <time>2021-08-09 11:34:55</time>
      </trkpt>
      <trkpt lat="42.87322" lon="-0.44763">
        <ele>1213.2</ele>
        <time>2021-08-09 11:34:56</time>
      </trkpt>
      <trkpt lat="42.8732" lon="-0.44764">
        <ele>1213.6</ele>
        <time>2021-08-09 11:34:57</time>
      </trkpt>
      <trkpt lat="42.87318" lon="-0.44766">
        <ele>1214.2</ele>
        <time>2021-08-09 11:34:58</time>
      </trkpt>
      <trkpt lat="42.87316" lon="-0.44767">
        <ele>1214.2</ele>
        <time>2021-08-09 11:34:59</time>
      </trkpt>
      <trkpt lat="42.87315" lon="-0.44767">
        <ele>1213.6</ele>
      </trkpt>
      <trkpt lat="42.87314" lon="-0.44769">
        <ele>1213.2</ele>
        <time>2021-08-09 11:35:01</time>
      </trkpt>
      <trkpt lat="42.87313" lon="-0.4477">
        <ele>1213</ele>
        <time>2021-08-09 11:35:02</time>
      </trkpt>
      <trkpt lat="42.87312" lon="-0.44771">
        <ele>1213.4</ele>
        <time>2021-08-09 11:35:03</time>
      </trkpt>
      <trkpt lat="42.87311" lon="-0.44772">
        <ele>1213.4</ele>
        <time>2021-08-09 11:35:04</time>
      </trkpt>
      <trkpt lat="42.8731" lon="-0.44772">
        <ele>1213.6</ele>
        <time>2021-08-09 11:35:05</time>
      </trkpt>
      <trkpt lat="42.87309" lon="-0.44773">
        <ele>1213.6</ele>
        <time>2021-08-09 11:35:06</time>
      </trkpt>
      <trkpt lat="42.87307" lon="-0.44774">
        <ele>1213.6</ele>
        <time>2021-08-09 11:35:07</time>
      </trkpt>
      <trkpt lat="42.87306" lon="-0.44775">
        <ele>1213.8</ele>
        <time>2021-08-09 11:35:08</time>
      </trkpt>
      <trkpt lat="42.87305" lon="-0.44776">
        <ele>1214</ele>
        <time>2021-08-09 11:35:09</time>
      </trkpt>
      <trkpt lat="42.87304" lon="-0.44776">
        <ele>1214</ele>
        <time>2021-08-09 11:35:10</time>
      </trkpt>
      <trkpt lat="42.87303" lon="-0.44777">
        <ele>1213.8</ele>
        <time>2021-08-09 11:35:11</time>
      </trkpt>
      <trkpt lat="42.87302" lon="-0.44778">
        <ele>1214</ele>
        <time>2021-08-09 11:35:12</time>
      </trkpt>
      <trkpt lat="42.87301" lon="-0.4478">
        <ele>1213.8</ele>
        <time>2021-08-09 11:35:13</time>
      </trkpt>
      <trkpt lat="42.873" lon="-0.44781">
        <ele>1214.2</ele>
        <time>2021-08-09 11:35:14</time>
      </trkpt>
      <trkpt lat="42.87299" lon="-0.44782">
        <ele>1214</ele>
        <time>2021-08-09 11:35:15</time>
      </trkpt>
      <trkpt lat="42.87298" lon="-0.44783">
        <ele>1213.8</ele>
        <time>2021-08-09 11:35:16</time>
      </trkpt>
      <trkpt lat="42.87297" lon="-0.44784">
        <ele>1213.4</ele>
        <time>2021-08-09 11:35:17</time>
      </trkpt>
      <trkpt lat="42.87296" lon="-0.44785">
        <ele>1213.2</ele>
        <time>2021-08-09 11:35:18</time>
      </trkpt>
      <trkpt lat="42.87295" lon="-0.44785">
        <ele>1213.2</ele>
        <time>2021-08-09 11:35:19</time>
      </trkpt>
      <trkpt lat="42.87295" lon="-0.44786">
        <ele>1212.4</ele>
        <time>2021-08-09 11:35:20</time>
      </trkpt>
      <trkpt lat="42.87294" lon="-0.44787">
        <ele>1212.6</ele>
        <time>2021-08-09 11:35:21</time>
      </trkpt>
      <trkpt lat="42.87293" lon="-0.44789">
        <ele>1213.4</ele>
        <time>2021-08-09 11:35:22</time>
      </trkpt>
      <trkpt lat="42.87292" lon="-0.4479">
        <ele>1213.4</ele>
        <time>2021-08-09 11:35:23</time>
      </trkpt>
      <trkpt lat="42.87292" lon="-0.44792">
        <ele>1213.6</ele>
        <time>2021-08-09 11:35:24</time>
      </trkpt>
      <trkpt lat="42.87291" lon="-0.44793">
        <ele>1213.6</ele>
        <time>2021-08-09 11:35:25</time>
      </trkpt>
      <trkpt lat="42.87291" lon="-0.44795">
        <ele>1213.8</ele>
        <time>2021-08-09 11:35:26</time>
      </trkpt>
      <trkpt lat="42.87291" lon="-0.44798">
        <ele>1213.6</ele>
        <time>2021-08-09 11:35:27</time>
      </trkpt>
      <trkpt lat="42.87292" lon="-0.448">
        <ele>1213.6</ele>
        <time>2021-08-09 11:35:28</time>
      </trkpt>
      <trkpt lat="42.87291" lon="-0.44801">
        <ele>1213.4</ele>
        <time>2021-08-09 11:35:29</time>
      </trkpt>
      <trkpt lat="42.87291" lon="-0.44803">
        <ele>1213.4</ele>
        <time>2021-08-09 11:35:30</time>
      </trkpt>
      <trkpt lat="42.87291" lon="-0.44804">
        <ele>1213.4</ele>
        <time>2021-08-09 11:35:31</time>
      </trkpt>
      <trkpt lat="42.87291" lon="-0.44806">
        <ele>1213.4</ele>
        <time>2021-08-09 11:35:32</time>
      </trkpt>
      <trkpt lat="42.8729" lon="-0.44807">
        <ele>1213.4</ele>
        <time>2021-08-09 11:35:33</time>
      </trkpt>
      <trkpt lat="42.8729" lon="-0.44808">
        <ele>1213.4</ele>
        <time>2021-08-09 11:35:34</time>
      </trkpt>
      <trkpt lat="42.87289" lon="-0.44808">
        <ele>1213.2</ele>
        <time>2021-08-09 11:35:35</time>
      </trkpt>
      <trkpt lat="42.87289" lon="-0.4481">
        <ele>1213.4</ele>
        <time>2021-08-09 11:35:36</time>
      </trkpt>
      <trkpt lat="42.87287" lon="-0.44812">
        <ele>1213.6</ele>
        <time>2021-08-09 11:35:37</time>
      </trkpt>
      <trkpt lat="42.87286" lon="-0.44812">
        <ele>1213.6</ele>
        <time>2021-08-09 11:35:38</time>
      </trkpt>
      <trkpt lat="42.87286" lon="-0.44812">
        <ele>1213.4</ele>
        <time>2021-08-09 11:35:39</time>
      </trkpt>
      <trkpt lat="42.87285" lon="-0.44813">
        <ele>1213.4</ele>
      </trkpt>
      <trkpt lat="42.87284" lon="-0.44815">
        <ele>1213.6</ele>
        <time>2021-08-09 11:35:40</time>
      </trkpt>
      <trkpt lat="42.87284" lon="-0.44817">
        <ele>1213.6</ele>
        <time>2021-08-09 11:35:41</time>
      </trkpt>
      <trkpt lat="42.87282" lon="-0.4482">
        <ele>1213.2</ele>
        <time>2021-08-09 11:35:42</time>
      </trkpt>
      <trkpt lat="42.87282" lon="-0.44822">
        <ele>1213.2</ele>
        <time>2021-08-09 11:35:43</time>
      </trkpt>
      <trkpt lat="42.87281" lon="-0.44823">
        <ele>1213</ele>
        <time>2021-08-09 11:35:44</time>
      </trkpt>
      <trkpt lat="42.87281" lon="-0.44826">
        <ele>1213</ele>
        <time>2021-08-09 11:35:46</time>
      </trkpt>
      <trkpt lat="42.8728" lon="-0.44827">
        <ele>1213.4</ele>
      </trkpt>
      <trkpt lat="42.8728" lon="-0.44829">
        <ele>1213.6</ele>
        <time>2021-08-09 11:35:47</time>
      </trkpt>
      <trkpt lat="42.8728" lon="-0.4483">
        <ele>1213.8</ele>
        <time>2021-08-09 11:35:48</time>
      </trkpt>
      <trkpt lat="42.87279" lon="-0.44832">
        <ele>1213.8</ele>
        <time>2021-08-09 11:35:49</time>
      </trkpt>
      <trkpt lat="42.87279" lon="-0.44833">
        <ele>1213.8</ele>
        <time>2021-08-09 11:35:50</time>
      </trkpt>
      <trkpt lat="42.87279" lon="-0.44835">
        <ele>1213.8</ele>
        <time>2021-08-09 11:35:51</time>
      </trkpt>
      <trkpt lat="42.87278" lon="-0.44837">
        <ele>1214</ele>
        <time>2021-08-09 11:35:52</time>
      </trkpt>
      <trkpt lat="42.87277" lon="-0.44838">
        <ele>1214</ele>
        <time>2021-08-09 11:35:53</time>
      </trkpt>
      <trkpt lat="42.87276" lon="-0.44839">
        <ele>1214.2</ele>
        <time>2021-08-09 11:35:54</time>
      </trkpt>
      <trkpt lat="42.87276" lon="-0.4484">
        <ele>1214.4</ele>
        <time>2021-08-09 11:35:55</time>
      </trkpt>
      <trkpt lat="42.87275" lon="-0.44841">
        <ele>1214.6</ele>
        <time>2021-08-09 11:35:56</time>
      </trkpt>
      <trkpt lat="42.87275" lon="-0.44842">
        <ele>1215</ele>
        <time>2021-08-09 11:35:57</time>
      </trkpt>
      <trkpt lat="42.87274" lon="-0.44843">
        <ele>1215.2</ele>
        <time>2021-08-09 11:35:58</time>
      </trkpt>
      <trkpt lat="42.87274" lon="-0.44844">
        <ele>1215.2</ele>
        <time>2021-08-09 11:35:59</time>
      </trkpt>
      <trkpt lat="42.87273" lon="-0.44844">
        <ele>1215.2</ele>
        <time>2021-08-09 11:36:00</time>
      </trkpt>
      <trkpt lat="42.87271" lon="-0.44845">
        <ele>1215.2</ele>
        <time>2021-08-09 11:36:01</time>
      </trkpt>
      <trkpt lat="42.8727" lon="-0.44846">
        <ele>1214.4</ele>
        <time>2021-08-09 11:36:02</time>
      </trkpt>
      <trkpt lat="42.87269" lon="-0.44847">
        <ele>1215.4</ele>
        <time>2021-08-09 11:36:03</time>
      </trkpt>
      <trkpt lat="42.87267" lon="-0.44848">
        <ele>1215.6</ele>
        <time>2021-08-09 11:36:04</time>
      </trkpt>
      <trkpt lat="42.87266" lon="-0.44849">
        <ele>1215.8</ele>
        <time>2021-08-09 11:36:06</time>
      </trkpt>
      <trkpt lat="42.87265" lon="-0.4485">
        <ele>1215.8</ele>
      </trkpt>
      <trkpt lat="42.87264" lon="-0.44851">
        <ele>1216</ele>
        <time>2021-08-09 11:36:07</time>
      </trkpt>
      <trkpt lat="42.87263" lon="-0.44852">
        <ele>1216</ele>
        <time>2021-08-09 11:36:08</time>
      </trkpt>
      <trkpt lat="42.87262" lon="-0.44852">
        <ele>1216</ele>
        <time>2021-08-09 11:36:09</time>
      </trkpt>
      <trkpt lat="42.8726" lon="-0.44853">
        <ele>1216.2</ele>
        <time>2021-08-09 11:36:10</time>
      </trkpt>
      <trkpt lat="42.8726" lon="-0.44854">
        <ele>1216.2</ele>
        <time>2021-08-09 11:36:11</time>
      </trkpt>
      <trkpt lat="42.87258" lon="-0.44855">
        <ele>1216.6</ele>
        <time>2021-08-09 11:36:12</time>
      </trkpt>
      <trkpt lat="42.87256" lon="-0.44855">
        <ele>1216.6</ele>
        <time>2021-08-09 11:36:13</time>
      </trkpt>
      <trkpt lat="42.87255" lon="-0.44856">
        <ele>1216.6</ele>
        <time>2021-08-09 11:36:14</time>
      </trkpt>
      <trkpt lat="42.87253" lon="-0.44856">
        <ele>1216.6</ele>
        <time>2021-08-09 11:36:15</time>
      </trkpt>
      <trkpt lat="42.87252" lon="-0.44856">
        <ele>1216.8</ele>
        <time>2021-08-09 11:36:16</time>
      </trkpt>
      <trkpt lat="42.8725" lon="-0.44858">
        <ele>1216.8</ele>
        <time>2021-08-09 11:36:17</time>
      </trkpt>
      <trkpt lat="42.87249" lon="-0.44858">
        <ele>1217</ele>
        <time>2021-08-09 11:36:18</time>
      </trkpt>
      <trkpt lat="42.87248" lon="-0.44859">
        <ele>1217.2</ele>
        <time>2021-08-09 11:36:19</time>
      </trkpt>
      <trkpt lat="42.87247" lon="-0.44859">
        <ele>1217.6</ele>
        <time>2021-08-09 11:36:20</time>
      </trkpt>
      <trkpt lat="42.87247" lon="-0.4486">
        <ele>1217.6</ele>
        <time>2021-08-09 11:36:21</time>
      </trkpt>
      <trkpt lat="42.87246" lon="-0.4486">
        <ele>1217.8</ele>
        <time>2021-08-09 11:36:22</time>
      </trkpt>
      <trkpt lat="42.87245" lon="-0.4486">
        <ele>1218.2</ele>
        <time>2021-08-09 11:36:23</time>
      </trkpt>
      <trkpt lat="42.87245" lon="-0.44862">
        <ele>1218.4</ele>
        <time>2021-08-09 11:36:24</time>
      </trkpt>
      <trkpt lat="42.87244" lon="-0.44862">
        <ele>1218.4</ele>
        <time>2021-08-09 11:36:25</time>
      </trkpt>
      <trkpt lat="42.87243" lon="-0.44862">
        <ele>1218.4</ele>
        <time>2021-08-09 11:36:26</time>
      </trkpt>
      <trkpt lat="42.87242" lon="-0.44862">
        <ele>1218.4</ele>
        <time>2021-08-09 11:36:27</time>
      </trkpt>
      <trkpt lat="42.87241" lon="-0.44862">
        <ele>1218.4</ele>
        <time>2021-08-09 11:36:28</time>
      </trkpt>
      <trkpt lat="42.8724" lon="-0.44862">
        <ele>1218.2</ele>
        <time>2021-08-09 11:36:29</time>
      </trkpt>
      <trkpt lat="42.8724" lon="-0.44862">
        <ele>1218.4</ele>
        <time>2021-08-09 11:36:30</time>
      </trkpt>
      <trkpt lat="42.87239" lon="-0.44863">
        <ele>1218.6</ele>
        <time>2021-08-09 11:36:31</time>
      </trkpt>
      <trkpt lat="42.87239" lon="-0.44864">
        <ele>1218.6</ele>
        <time>2021-08-09 11:36:32</time>
      </trkpt>
      <trkpt lat="42.87238" lon="-0.44864">
        <ele>1218.2</ele>
        <time>2021-08-09 11:36:33</time>
      </trkpt>
      <trkpt lat="42.87237" lon="-0.44864">
        <ele>1218.4</ele>
        <time>2021-08-09 11:36:34</time>
      </trkpt>
      <trkpt lat="42.87236" lon="-0.44865">
        <ele>1218.4</ele>
        <time>2021-08-09 11:36:35</time>
      </trkpt>
      <trkpt lat="42.87235" lon="-0.44865">
        <ele>1218.8</ele>
        <time>2021-08-09 11:36:36</time>
      </trkpt>
      <trkpt lat="42.87234" lon="-0.44866">
        <ele>1219</ele>
        <time>2021-08-09 11:36:37</time>
      </trkpt>
      <trkpt lat="42.87233" lon="-0.44865">
        <ele>1219.4</ele>
        <time>2021-08-09 11:36:38</time>
      </trkpt>
      <trkpt lat="42.87233" lon="-0.44865">
        <ele>1219.6</ele>
        <time>2021-08-09 11:36:39</time>
      </trkpt>
      <trkpt lat="42.87231" lon="-0.44865">
        <ele>1219.8</ele>
        <time>2021-08-09 11:36:40</time>
      </trkpt>
      <trkpt lat="42.8723" lon="-0.44865">
        <ele>1220</ele>
        <time>2021-08-09 11:36:41</time>
      </trkpt>
      <trkpt lat="42.87229" lon="-0.44865">
        <ele>1220.2</ele>
        <time>2021-08-09 11:36:42</time>
      </trkpt>
      <trkpt lat="42.87228" lon="-0.44865">
        <ele>1220.2</ele>
        <time>2021-08-09 11:36:43</time>
      </trkpt>
      <trkpt lat="42.87227" lon="-0.44866">
        <ele>1220.2</ele>
        <time>2021-08-09 11:36:44</time>
      </trkpt>
      <trkpt lat="42.87226" lon="-0.44866">
        <ele>1220.4</ele>
        <time>2021-08-09 11:36:45</time>
      </trkpt>
      <trkpt lat="42.87224" lon="-0.44866">
        <ele>1220.6</ele>
        <time>2021-08-09 11:36:46</time>
      </trkpt>
      <trkpt lat="42.87223" lon="-0.44865">
        <ele>1220.4</ele>
        <time>2021-08-09 11:36:47</time>
      </trkpt>
      <trkpt lat="42.87223" lon="-0.44865">
        <ele>1220.4</ele>
        <time>2021-08-09 11:36:48</time>
      </trkpt>
      <trkpt lat="42.87221" lon="-0.44866">
        <ele>1220.4</ele>
        <time>2021-08-09 11:36:49</time>
      </trkpt>
      <trkpt lat="42.8722" lon="-0.44866">
        <ele>1220.6</ele>
        <time>2021-08-09 11:36:50</time>
      </trkpt>
      <trkpt lat="42.87219" lon="-0.44866">
        <ele>1220.6</ele>
        <time>2021-08-09 11:36:51</time>
      </trkpt>
      <trkpt lat="42.87219" lon="-0.44866">
        <ele>1220.6</ele>
        <time>2021-08-09 11:36:52</time>
      </trkpt>
      <trkpt lat="42.87218" lon="-0.44866">
        <ele>1220.8</ele>
        <time>2021-08-09 11:36:53</time>
      </trkpt>
      <trkpt lat="42.87217" lon="-0.44866">
        <ele>1220.8</ele>
        <time>2021-08-09 11:36:54</time>
      </trkpt>
      <trkpt lat="42.87216" lon="-0.44866">
        <ele>1220.2</ele>
        <time>2021-08-09 11:36:55</time>
      </trkpt>
      <trkpt lat="42.87215" lon="-0.44866">
        <ele>1219.8</ele>
        <time>2021-08-09 11:36:56</time>
      </trkpt>
      <trkpt lat="42.87213" lon="-0.44866">
        <ele>1219.6</ele>
        <time>2021-08-09 11:36:57</time>
      </trkpt>
      <trkpt lat="42.87212" lon="-0.44866">
        <ele>1219.8</ele>
        <time>2021-08-09 11:36:58</time>
      </trkpt>
      <trkpt lat="42.87211" lon="-0.44866">
        <ele>1219.8</ele>
        <time>2021-08-09 11:36:59</time>
      </trkpt>
      <trkpt lat="42.8721" lon="-0.44866">
        <ele>1220</ele>
        <time>2021-08-09 11:37:00</time>
      </trkpt>
      <trkpt lat="42.87209" lon="-0.44867">
        <ele>1220.2</ele>
        <time>2021-08-09 11:37:01</time>
      </trkpt>
      <trkpt lat="42.87208" lon="-0.44867">
        <ele>1220.2</ele>
        <time>2021-08-09 11:37:02</time>
      </trkpt>
      <trkpt lat="42.87207" lon="-0.44867">
        <ele>1220</ele>
        <time>2021-08-09 11:37:03</time>
      </trkpt>
      <trkpt lat="42.87206" lon="-0.44867">
        <ele>1220.4</ele>
        <time>2021-08-09 11:37:04</time>
      </trkpt>
      <trkpt lat="42.87205" lon="-0.44866">
        <ele>1220.6</ele>
        <time>2021-08-09 11:37:05</time>
      </trkpt>
      <trkpt lat="42.87204" lon="-0.44865">
        <ele>1220.8</ele>
        <time>2021-08-09 11:37:06</time>
      </trkpt>
      <trkpt lat="42.87203" lon="-0.44865">
        <ele>1221</ele>
        <time>2021-08-09 11:37:07</time>
      </trkpt>
      <trkpt lat="42.87202" lon="-0.44864">
        <ele>1221</ele>
        <time>2021-08-09 11:37:08</time>
      </trkpt>
      <trkpt lat="42.87201" lon="-0.44863">
        <ele>1221</ele>
        <time>2021-08-09 11:37:09</time>
      </trkpt>
      <trkpt lat="42.872" lon="-0.44863">
        <ele>1220.6</ele>
        <time>2021-08-09 11:37:10</time>
      </trkpt>
      <trkpt lat="42.872" lon="-0.44863">
        <ele>1220.4</ele>
        <time>2021-08-09 11:37:11</time>
      </trkpt>
      <trkpt lat="42.872" lon="-0.44863">
        <ele>1220.6</ele>
        <time>2021-08-09 11:37:12</time>
      </trkpt>
      <trkpt lat="42.87199" lon="-0.44864">
        <ele>1220.6</ele>
        <time>2021-08-09 11:37:13</time>
      </trkpt>
      <trkpt lat="42.87198" lon="-0.44865">
        <ele>1220.4</ele>
        <time>2021-08-09 11:37:14</time>
      </trkpt>
      <trkpt lat="42.87198" lon="-0.44866">
        <ele>1220.4</ele>
        <time>2021-08-09 11:37:15</time>
      </trkpt>
      <trkpt lat="42.87196" lon="-0.44866">
        <ele>1220.6</ele>
        <time>2021-08-09 11:37:16</time>
      </trkpt>
      <trkpt lat="42.87196" lon="-0.44867">
        <ele>1221</ele>
        <time>2021-08-09 11:37:17</time>
      </trkpt>
      <trkpt lat="42.87195" lon="-0.44868">
        <ele>1220.8</ele>
        <time>2021-08-09 11:37:18</time>
      </trkpt>
      <trkpt lat="42.87194" lon="-0.44868">
        <ele>1220.8</ele>
        <time>2021-08-09 11:37:19</time>
      </trkpt>
      <trkpt lat="42.87193" lon="-0.44869">
        <ele>1220.8</ele>
        <time>2021-08-09 11:37:20</time>
      </trkpt>
      <trkpt lat="42.87191" lon="-0.44869">
        <ele>1221</ele>
        <time>2021-08-09 11:37:21</time>
      </trkpt>
      <trkpt lat="42.8719" lon="-0.4487">
        <ele>1221.4</ele>
        <time>2021-08-09 11:37:22</time>
      </trkpt>
      <trkpt lat="42.87188" lon="-0.44871">
        <ele>1221.6</ele>
        <time>2021-08-09 11:37:23</time>
      </trkpt>
      <trkpt lat="42.87188" lon="-0.44872">
        <ele>1221.6</ele>
        <time>2021-08-09 11:37:24</time>
      </trkpt>
      <trkpt lat="42.87187" lon="-0.44872">
        <ele>1221.4</ele>
        <time>2021-08-09 11:37:25</time>
      </trkpt>
      <trkpt lat="42.87186" lon="-0.44873">
        <ele>1221.4</ele>
        <time>2021-08-09 11:37:26</time>
      </trkpt>
      <trkpt lat="42.87185" lon="-0.44873">
        <ele>1221.4</ele>
        <time>2021-08-09 11:37:27</time>
      </trkpt>
      <trkpt lat="42.87184" lon="-0.44874">
        <ele>1221.4</ele>
        <time>2021-08-09 11:37:28</time>
      </trkpt>
      <trkpt lat="42.87184" lon="-0.44876">
        <ele>1221.4</ele>
        <time>2021-08-09 11:37:29</time>
      </trkpt>
      <trkpt lat="42.87183" lon="-0.44877">
        <ele>1221.6</ele>
        <time>2021-08-09 11:37:30</time>
      </trkpt>
      <trkpt lat="42.87182" lon="-0.44878">
        <ele>1221.6</ele>
        <time>2021-08-09 11:37:31</time>
      </trkpt>
      <trkpt lat="42.87182" lon="-0.4488">
        <ele>1221.6</ele>
        <time>2021-08-09 11:37:32</time>
      </trkpt>
      <trkpt lat="42.87182" lon="-0.44881">
        <ele>1221.6</ele>
        <time>2021-08-09 11:37:33</time>
      </trkpt>
      <trkpt lat="42.87181" lon="-0.44883">
        <ele>1221.8</ele>
        <time>2021-08-09 11:37:34</time>
      </trkpt>
      <trkpt lat="42.8718" lon="-0.44884">
        <ele>1221.8</ele>
        <time>2021-08-09 11:37:35</time>
      </trkpt>
      <trkpt lat="42.8718" lon="-0.44884">
        <ele>1221.8</ele>
        <time>2021-08-09 11:37:36</time>
      </trkpt>
      <trkpt lat="42.87179" lon="-0.44885">
        <ele>1221.8</ele>
        <time>2021-08-09 11:37:37</time>
      </trkpt>
      <trkpt lat="42.87178" lon="-0.44886">
        <ele>1222</ele>
        <time>2021-08-09 11:37:38</time>
      </trkpt>
      <trkpt lat="42.87179" lon="-0.44887">
        <ele>1222</ele>
        <time>2021-08-09 11:37:39</time>
      </trkpt>
      <trkpt lat="42.87178" lon="-0.44888">
        <ele>1222.2</ele>
        <time>2021-08-09 11:37:40</time>
      </trkpt>
      <trkpt lat="42.87177" lon="-0.44889">
        <ele>1222.2</ele>
        <time>2021-08-09 11:37:41</time>
      </trkpt>
      <trkpt lat="42.87176" lon="-0.4489">
        <ele>1222.2</ele>
        <time>2021-08-09 11:37:42</time>
      </trkpt>
      <trkpt lat="42.87175" lon="-0.44891">
        <ele>1220.8</ele>
        <time>2021-08-09 11:37:43</time>
      </trkpt>
      <trkpt lat="42.87175" lon="-0.44892">
        <ele>1222</ele>
        <time>2021-08-09 11:37:44</time>
      </trkpt>
      <trkpt lat="42.87174" lon="-0.44892">
        <ele>1222.6</ele>
        <time>2021-08-09 11:37:45</time>
      </trkpt>
      <trkpt lat="42.87174" lon="-0.44893">
        <ele>1223.6</ele>
        <time>2021-08-09 11:37:46</time>
      </trkpt>
      <trkpt lat="42.87173" lon="-0.44893">
        <ele>1223.4</ele>
        <time>2021-08-09 11:37:47</time>
      </trkpt>
      <trkpt lat="42.87172" lon="-0.44893">
        <ele>1223</ele>
        <time>2021-08-09 11:37:48</time>
      </trkpt>
      <trkpt lat="42.87171" lon="-0.44894">
        <ele>1222.8</ele>
        <time>2021-08-09 11:37:49</time>
      </trkpt>
      <trkpt lat="42.87171" lon="-0.44894">
        <ele>1222.8</ele>
        <time>2021-08-09 11:37:50</time>
      </trkpt>
      <trkpt lat="42.8717" lon="-0.44895">
        <ele>1223</ele>
        <time>2021-08-09 11:37:51</time>
      </trkpt>
      <trkpt lat="42.87169" lon="-0.44896">
        <ele>1223.2</ele>
        <time>2021-08-09 11:37:52</time>
      </trkpt>
      <trkpt lat="42.87168" lon="-0.44896">
        <ele>1223.4</ele>
        <time>2021-08-09 11:37:53</time>
      </trkpt>
      <trkpt lat="42.87167" lon="-0.44897">
        <ele>1223.4</ele>
        <time>2021-08-09 11:37:54</time>
      </trkpt>
      <trkpt lat="42.87167" lon="-0.44897">
        <ele>1223.6</ele>
        <time>2021-08-09 11:37:55</time>
      </trkpt>
      <trkpt lat="42.87166" lon="-0.44898">
        <ele>1223.6</ele>
        <time>2021-08-09 11:37:56</time>
      </trkpt>
      <trkpt lat="42.87165" lon="-0.44899">
        <ele>1223.8</ele>
        <time>2021-08-09 11:37:57</time>
      </trkpt>
      <trkpt lat="42.87165" lon="-0.449">
        <ele>1223.8</ele>
        <time>2021-08-09 11:37:58</time>
      </trkpt>
      <trkpt lat="42.87165" lon="-0.44901">
        <ele>1224</ele>
        <time>2021-08-09 11:37:59</time>
      </trkpt>
      <trkpt lat="42.87165" lon="-0.44902">
        <ele>1223.4</ele>
        <time>2021-08-09 11:38:00</time>
      </trkpt>
      <trkpt lat="42.87165" lon="-0.44903">
        <ele>1223.6</ele>
        <time>2021-08-09 11:38:01</time>
      </trkpt>
      <trkpt lat="42.87165" lon="-0.44904">
        <ele>1224.4</ele>
        <time>2021-08-09 11:38:02</time>
      </trkpt>
      <trkpt lat="42.87165" lon="-0.44904">
        <ele>1223.8</ele>
        <time>2021-08-09 11:38:03</time>
      </trkpt>
      <trkpt lat="42.87164" lon="-0.44905">
        <ele>1222.8</ele>
        <time>2021-08-09 11:38:04</time>
      </trkpt>
      <trkpt lat="42.87163" lon="-0.44906">
        <ele>1223.2</ele>
        <time>2021-08-09 11:38:05</time>
      </trkpt>
      <trkpt lat="42.87162" lon="-0.44906">
        <ele>1224</ele>
        <time>2021-08-09 11:38:06</time>
      </trkpt>
      <trkpt lat="42.87161" lon="-0.44907">
        <ele>1224.4</ele>
        <time>2021-08-09 11:38:07</time>
      </trkpt>
      <trkpt lat="42.8716" lon="-0.44907">
        <ele>1224.6</ele>
        <time>2021-08-09 11:38:08</time>
      </trkpt>
      <trkpt lat="42.87159" lon="-0.44907">
        <ele>1224.4</ele>
        <time>2021-08-09 11:38:09</time>
      </trkpt>
      <trkpt lat="42.87158" lon="-0.44907">
        <ele>1224.6</ele>
        <time>2021-08-09 11:38:10</time>
      </trkpt>
      <trkpt lat="42.87157" lon="-0.44907">
        <ele>1224.6</ele>
        <time>2021-08-09 11:38:11</time>
      </trkpt>
      <trkpt lat="42.87156" lon="-0.44908">
        <ele>1224.4</ele>
        <time>2021-08-09 11:38:12</time>
      </trkpt>
      <trkpt lat="42.87156" lon="-0.44909">
        <ele>1224.4</ele>
        <time>2021-08-09 11:38:13</time>
      </trkpt>
      <trkpt lat="42.87155" lon="-0.44909">
        <ele>1224.4</ele>
        <time>2021-08-09 11:38:14</time>
      </trkpt>
      <trkpt lat="42.87154" lon="-0.4491">
        <ele>1225.6</ele>
        <time>2021-08-09 11:38:15</time>
      </trkpt>
      <trkpt lat="42.87154" lon="-0.44911">
        <ele>1225</ele>
        <time>2021-08-09 11:38:16</time>
      </trkpt>
      <trkpt lat="42.87153" lon="-0.44912">
        <ele>1224.4</ele>
        <time>2021-08-09 11:38:17</time>
      </trkpt>
      <trkpt lat="42.87152" lon="-0.44913">
        <ele>1224.2</ele>
        <time>2021-08-09 11:38:18</time>
      </trkpt>
      <trkpt lat="42.87151" lon="-0.44912">
        <ele>1224.6</ele>
        <time>2021-08-09 11:38:19</time>
      </trkpt>
      <trkpt lat="42.8715" lon="-0.44913">
        <ele>1223.8</ele>
        <time>2021-08-09 11:38:20</time>
      </trkpt>
      <trkpt lat="42.87149" lon="-0.44914">
        <ele>1224.6</ele>
        <time>2021-08-09 11:38:21</time>
      </trkpt>
      <trkpt lat="42.87149" lon="-0.44915">
        <ele>1224.8</ele>
        <time>2021-08-09 11:38:22</time>
      </trkpt>
      <trkpt lat="42.87148" lon="-0.44916">
        <ele>1225.4</ele>
        <time>2021-08-09 11:38:23</time>
      </trkpt>
      <trkpt lat="42.87148" lon="-0.44918">
        <ele>1225.6</ele>
        <time>2021-08-09 11:38:24</time>
      </trkpt>
      <trkpt lat="42.87148" lon="-0.44918">
        <ele>1225.8</ele>
        <time>2021-08-09 11:38:25</time>
      </trkpt>
      <trkpt lat="42.87148" lon="-0.44919">
        <ele>1226</ele>
        <time>2021-08-09 11:38:26</time>
      </trkpt>
      <trkpt lat="42.87147" lon="-0.4492">
        <ele>1226.2</ele>
        <time>2021-08-09 11:38:27</time>
      </trkpt>
      <trkpt lat="42.87146" lon="-0.44921">
        <ele>1226.4</ele>
        <time>2021-08-09 11:38:28</time>
      </trkpt>
      <trkpt lat="42.87145" lon="-0.44921">
        <ele>1226.8</ele>
        <time>2021-08-09 11:38:29</time>
      </trkpt>
      <trkpt lat="42.87145" lon="-0.44923">
        <ele>1226.8</ele>
        <time>2021-08-09 11:38:30</time>
      </trkpt>
      <trkpt lat="42.87144" lon="-0.44924">
        <ele>1227</ele>
        <time>2021-08-09 11:38:31</time>
      </trkpt>
      <trkpt lat="42.87144" lon="-0.44924">
        <ele>1227.2</ele>
        <time>2021-08-09 11:38:32</time>
      </trkpt>
      <trkpt lat="42.87143" lon="-0.44925">
        <ele>1227.4</ele>
        <time>2021-08-09 11:38:33</time>
      </trkpt>
      <trkpt lat="42.87143" lon="-0.44925">
        <ele>1227.4</ele>
        <time>2021-08-09 11:38:34</time>
      </trkpt>
      <trkpt lat="42.87142" lon="-0.44926">
        <ele>1227.4</ele>
        <time>2021-08-09 11:38:35</time>
      </trkpt>
      <trkpt lat="42.87142" lon="-0.44926">
        <ele>1227</ele>
        <time>2021-08-09 11:38:36</time>
      </trkpt>
      <trkpt lat="42.87141" lon="-0.44927">
        <ele>1227.2</ele>
        <time>2021-08-09 11:38:37</time>
      </trkpt>
      <trkpt lat="42.8714" lon="-0.44927">
        <ele>1226.4</ele>
        <time>2021-08-09 11:38:38</time>
      </trkpt>
      <trkpt lat="42.8714" lon="-0.44927">
        <ele>1226.4</ele>
        <time>2021-08-09 11:38:39</time>
      </trkpt>
      <trkpt lat="42.87139" lon="-0.44928">
        <ele>1226.2</ele>
        <time>2021-08-09 11:38:40</time>
      </trkpt>
      <trkpt lat="42.87138" lon="-0.44929">
        <ele>1226.6</ele>
        <time>2021-08-09 11:38:41</time>
      </trkpt>
      <trkpt lat="42.87139" lon="-0.4493">
        <ele>1226.8</ele>
        <time>2021-08-09 11:38:42</time>
      </trkpt>
      <trkpt lat="42.87138" lon="-0.44931">
        <ele>1227.2</ele>
        <time>2021-08-09 11:38:43</time>
      </trkpt>
      <trkpt lat="42.87138" lon="-0.44933">
        <ele>1226.8</ele>
        <time>2021-08-09 11:38:44</time>
      </trkpt>
      <trkpt lat="42.87137" lon="-0.44934">
        <ele>1227</ele>
        <time>2021-08-09 11:38:45</time>
      </trkpt>
      <trkpt lat="42.87137" lon="-0.44935">
        <ele>1227.2</ele>
        <time>2021-08-09 11:38:46</time>
      </trkpt>
      <trkpt lat="42.87136" lon="-0.44935">
        <ele>1227.4</ele>
        <time>2021-08-09 11:38:47</time>
      </trkpt>
      <trkpt lat="42.87136" lon="-0.44936">
        <ele>1227.6</ele>
        <time>2021-08-09 11:38:48</time>
      </trkpt>
      <trkpt lat="42.87135" lon="-0.44936">
        <ele>1228</ele>
        <time>2021-08-09 11:38:49</time>
      </trkpt>
      <trkpt lat="42.87135" lon="-0.44937">
        <ele>1228</ele>
        <time>2021-08-09 11:38:50</time>
      </trkpt>
      <trkpt lat="42.87134" lon="-0.44938">
        <ele>1228</ele>
        <time>2021-08-09 11:38:51</time>
      </trkpt>
      <trkpt lat="42.87133" lon="-0.44938">
        <ele>1228.2</ele>
        <time>2021-08-09 11:38:52</time>
      </trkpt>
      <trkpt lat="42.87133" lon="-0.44939">
        <ele>1228.2</ele>
        <time>2021-08-09 11:38:53</time>
      </trkpt>
      <trkpt lat="42.87132" lon="-0.4494">
        <ele>1228.4</ele>
        <time>2021-08-09 11:38:54</time>
      </trkpt>
      <trkpt lat="42.8713" lon="-0.4494">
        <ele>1228</ele>
        <time>2021-08-09 11:38:55</time>
      </trkpt>
      <trkpt lat="42.87129" lon="-0.4494">
        <ele>1228.4</ele>
        <time>2021-08-09 11:38:56</time>
      </trkpt>
      <trkpt lat="42.87128" lon="-0.44941">
        <ele>1228.2</ele>
        <time>2021-08-09 11:38:57</time>
      </trkpt>
      <trkpt lat="42.87127" lon="-0.4494">
        <ele>1228.4</ele>
        <time>2021-08-09 11:38:58</time>
      </trkpt>
      <trkpt lat="42.87125" lon="-0.4494">
        <ele>1228.4</ele>
        <time>2021-08-09 11:38:59</time>
      </trkpt>
      <trkpt lat="42.87124" lon="-0.44939">
        <ele>1228.4</ele>
        <time>2021-08-09 11:39:00</time>
      </trkpt>
      <trkpt lat="42.87123" lon="-0.44939">
        <ele>1228.2</ele>
        <time>2021-08-09 11:39:01</time>
      </trkpt>
      <trkpt lat="42.87122" lon="-0.44938">
        <ele>1228.4</ele>
        <time>2021-08-09 11:39:02</time>
      </trkpt>
      <trkpt lat="42.87121" lon="-0.44938">
        <ele>1229</ele>
        <time>2021-08-09 11:39:03</time>
      </trkpt>
      <trkpt lat="42.8712" lon="-0.44939">
        <ele>1228.4</ele>
        <time>2021-08-09 11:39:04</time>
      </trkpt>
      <trkpt lat="42.87119" lon="-0.44939">
        <ele>1228.4</ele>
        <time>2021-08-09 11:39:05</time>
      </trkpt>
      <trkpt lat="42.87118" lon="-0.4494">
        <ele>1228.8</ele>
        <time>2021-08-09 11:39:06</time>
      </trkpt>
      <trkpt lat="42.87118" lon="-0.44941">
        <ele>1228.8</ele>
        <time>2021-08-09 11:39:07</time>
      </trkpt>
      <trkpt lat="42.87117" lon="-0.44942">
        <ele>1229</ele>
        <time>2021-08-09 11:39:08</time>
      </trkpt>
      <trkpt lat="42.87116" lon="-0.44942">
        <ele>1229.2</ele>
        <time>2021-08-09 11:39:09</time>
      </trkpt>
      <trkpt lat="42.87115" lon="-0.44942">
        <ele>1229</ele>
        <time>2021-08-09 11:39:10</time>
      </trkpt>
      <trkpt lat="42.87114" lon="-0.44942">
        <ele>1228.8</ele>
        <time>2021-08-09 11:39:11</time>
      </trkpt>
      <trkpt lat="42.87113" lon="-0.44942">
        <ele>1228.6</ele>
        <time>2021-08-09 11:39:12</time>
      </trkpt>
      <trkpt lat="42.87112" lon="-0.44942">
        <ele>1228.4</ele>
        <time>2021-08-09 11:39:13</time>
      </trkpt>
      <trkpt lat="42.87111" lon="-0.44942">
        <ele>1228.8</ele>
        <time>2021-08-09 11:39:14</time>
      </trkpt>
      <trkpt lat="42.8711" lon="-0.44942">
        <ele>1228</ele>
        <time>2021-08-09 11:39:15</time>
      </trkpt>
      <trkpt lat="42.87109" lon="-0.44942">
        <ele>1228.6</ele>
        <time>2021-08-09 11:39:16</time>
      </trkpt>
      <trkpt lat="42.87108" lon="-0.44942">
        <ele>1228.6</ele>
        <time>2021-08-09 11:39:17</time>
      </trkpt>
      <trkpt lat="42.87108" lon="-0.44942">
        <ele>1228.6</ele>
        <time>2021-08-09 11:39:18</time>
      </trkpt>
      <trkpt lat="42.87107" lon="-0.44943">
        <ele>1228.6</ele>
        <time>2021-08-09 11:39:19</time>
      </trkpt>
      <trkpt lat="42.87106" lon="-0.44944">
        <ele>1228.6</ele>
        <time>2021-08-09 11:39:20</time>
      </trkpt>
      <trkpt lat="42.87105" lon="-0.44944">
        <ele>1228.6</ele>
        <time>2021-08-09 11:39:21</time>
      </trkpt>
      <trkpt lat="42.87103" lon="-0.44945">
        <ele>1228.8</ele>
        <time>2021-08-09 11:39:22</time>
      </trkpt>
      <trkpt lat="42.87102" lon="-0.44945">
        <ele>1228.8</ele>
        <time>2021-08-09 11:39:23</time>
      </trkpt>
      <trkpt lat="42.87101" lon="-0.44945">
        <ele>1228.8</ele>
        <time>2021-08-09 11:39:24</time>
      </trkpt>
      <trkpt lat="42.871" lon="-0.44945">
        <ele>1228.8</ele>
        <time>2021-08-09 11:39:25</time>
      </trkpt>
      <trkpt lat="42.87099" lon="-0.44945">
        <ele>1228.8</ele>
        <time>2021-08-09 11:39:26</time>
      </trkpt>
      <trkpt lat="42.87098" lon="-0.44946">
        <ele>1228.8</ele>
        <time>2021-08-09 11:39:27</time>
      </trkpt>
      <trkpt lat="42.87097" lon="-0.44946">
        <ele>1228.8</ele>
        <time>2021-08-09 11:39:28</time>
      </trkpt>
      <trkpt lat="42.87096" lon="-0.44948">
        <ele>1228.8</ele>
        <time>2021-08-09 11:39:29</time>
      </trkpt>
      <trkpt lat="42.87095" lon="-0.44949">
        <ele>1229</ele>
        <time>2021-08-09 11:39:30</time>
      </trkpt>
      <trkpt lat="42.87094" lon="-0.44949">
        <ele>1229.2</ele>
        <time>2021-08-09 11:39:31</time>
      </trkpt>
      <trkpt lat="42.87092" lon="-0.4495">
        <ele>1229.2</ele>
        <time>2021-08-09 11:39:32</time>
      </trkpt>
      <trkpt lat="42.87091" lon="-0.4495">
        <ele>1229.4</ele>
        <time>2021-08-09 11:39:33</time>
      </trkpt>
      <trkpt lat="42.8709" lon="-0.4495">
        <ele>1229.6</ele>
        <time>2021-08-09 11:39:34</time>
      </trkpt>
      <trkpt lat="42.87089" lon="-0.44951">
        <ele>1230</ele>
        <time>2021-08-09 11:39:35</time>
      </trkpt>
      <trkpt lat="42.87088" lon="-0.44952">
        <ele>1230</ele>
        <time>2021-08-09 11:39:36</time>
      </trkpt>
      <trkpt lat="42.87088" lon="-0.44954">
        <ele>1230</ele>
        <time>2021-08-09 11:39:37</time>
      </trkpt>
      <trkpt lat="42.87087" lon="-0.44954">
        <ele>1230</ele>
        <time>2021-08-09 11:39:38</time>
      </trkpt>
      <trkpt lat="42.87085" lon="-0.44954">
        <ele>1230.2</ele>
        <time>2021-08-09 11:39:39</time>
      </trkpt>
      <trkpt lat="42.87085" lon="-0.44954">
        <ele>1230.4</ele>
        <time>2021-08-09 11:39:40</time>
      </trkpt>
      <trkpt lat="42.87084" lon="-0.44954">
        <ele>1230.6</ele>
        <time>2021-08-09 11:39:41</time>
      </trkpt>
      <trkpt lat="42.87083" lon="-0.44954">
        <ele>1230.8</ele>
        <time>2021-08-09 11:39:42</time>
      </trkpt>
      <trkpt lat="42.87082" lon="-0.44955">
        <ele>1230.8</ele>
        <time>2021-08-09 11:39:43</time>
      </trkpt>
      <trkpt lat="42.87081" lon="-0.44954">
        <ele>1231</ele>
        <time>2021-08-09 11:39:44</time>
      </trkpt>
      <trkpt lat="42.8708" lon="-0.44955">
        <ele>1230.8</ele>
        <time>2021-08-09 11:39:45</time>
      </trkpt>
      <trkpt lat="42.87079" lon="-0.44955">
        <ele>1230.8</ele>
        <time>2021-08-09 11:39:46</time>
      </trkpt>
      <trkpt lat="42.87078" lon="-0.44955">
        <ele>1230.8</ele>
        <time>2021-08-09 11:39:47</time>
      </trkpt>
      <trkpt lat="42.87077" lon="-0.44956">
        <ele>1230.8</ele>
        <time>2021-08-09 11:39:48</time>
      </trkpt>
      <trkpt lat="42.87076" lon="-0.44956">
        <ele>1230.8</ele>
        <time>2021-08-09 11:39:49</time>
      </trkpt>
      <trkpt lat="42.87075" lon="-0.44957">
        <ele>1231</ele>
        <time>2021-08-09 11:39:50</time>
      </trkpt>
      <trkpt lat="42.87074" lon="-0.44957">
        <ele>1231</ele>
        <time>2021-08-09 11:39:51</time>
      </trkpt>
      <trkpt lat="42.87073" lon="-0.44958">
        <ele>1231</ele>
        <time>2021-08-09 11:39:52</time>
      </trkpt>
      <trkpt lat="42.87071" lon="-0.4496">
        <ele>1231</ele>
        <time>2021-08-09 11:39:53</time>
      </trkpt>
      <trkpt lat="42.8707" lon="-0.44961">
        <ele>1231.2</ele>
        <time>2021-08-09 11:39:54</time>
      </trkpt>
      <trkpt lat="42.8707" lon="-0.44963">
        <ele>1231.2</ele>
        <time>2021-08-09 11:39:55</time>
      </trkpt>
      <trkpt lat="42.8707" lon="-0.44964">
        <ele>1231.4</ele>
        <time>2021-08-09 11:39:56</time>
      </trkpt>
      <trkpt lat="42.8707" lon="-0.44966">
        <ele>1231.6</ele>
        <time>2021-08-09 11:39:57</time>
      </trkpt>
      <trkpt lat="42.87069" lon="-0.44967">
        <ele>1231.6</ele>
        <time>2021-08-09 11:39:58</time>
      </trkpt>
      <trkpt lat="42.87069" lon="-0.44968">
        <ele>1231.8</ele>
        <time>2021-08-09 11:39:59</time>
      </trkpt>
      <trkpt lat="42.87068" lon="-0.44969">
        <ele>1232</ele>
        <time>2021-08-09 11:40:00</time>
      </trkpt>
      <trkpt lat="42.87068" lon="-0.4497">
        <ele>1232</ele>
        <time>2021-08-09 11:40:01</time>
      </trkpt>
      <trkpt lat="42.87067" lon="-0.44971">
        <ele>1232.2</ele>
        <time>2021-08-09 11:40:02</time>
      </trkpt>
      <trkpt lat="42.87067" lon="-0.44973">
        <ele>1232.2</ele>
        <time>2021-08-09 11:40:03</time>
      </trkpt>
      <trkpt lat="42.87067" lon="-0.44974">
        <ele>1232.4</ele>
        <time>2021-08-09 11:40:04</time>
      </trkpt>
      <trkpt lat="42.87067" lon="-0.44975">
        <ele>1232.4</ele>
        <time>2021-08-09 11:40:05</time>
      </trkpt>
      <trkpt lat="42.87066" lon="-0.44977">
        <ele>1232.6</ele>
        <time>2021-08-09 11:40:06</time>
      </trkpt>
      <trkpt lat="42.87066" lon="-0.44978">
        <ele>1232.6</ele>
        <time>2021-08-09 11:40:07</time>
      </trkpt>
      <trkpt lat="42.87065" lon="-0.44979">
        <ele>1232.8</ele>
        <time>2021-08-09 11:40:08</time>
      </trkpt>
      <trkpt lat="42.87065" lon="-0.44981">
        <ele>1233</ele>
        <time>2021-08-09 11:40:09</time>
      </trkpt>
      <trkpt lat="42.87065" lon="-0.44982">
        <ele>1233.4</ele>
        <time>2021-08-09 11:40:10</time>
      </trkpt>
      <trkpt lat="42.87064" lon="-0.44983">
        <ele>1233.6</ele>
        <time>2021-08-09 11:40:11</time>
      </trkpt>
      <trkpt lat="42.87064" lon="-0.44985">
        <ele>1233.8</ele>
        <time>2021-08-09 11:40:12</time>
      </trkpt>
      <trkpt lat="42.87064" lon="-0.44987">
        <ele>1234</ele>
        <time>2021-08-09 11:40:13</time>
      </trkpt>
      <trkpt lat="42.87064" lon="-0.44988">
        <ele>1234.2</ele>
        <time>2021-08-09 11:40:14</time>
      </trkpt>
      <trkpt lat="42.87063" lon="-0.44989">
        <ele>1234.4</ele>
        <time>2021-08-09 11:40:15</time>
      </trkpt>
      <trkpt lat="42.87062" lon="-0.4499">
        <ele>1234.6</ele>
        <time>2021-08-09 11:40:16</time>
      </trkpt>
      <trkpt lat="42.87062" lon="-0.44991">
        <ele>1234.8</ele>
        <time>2021-08-09 11:40:17</time>
      </trkpt>
      <trkpt lat="42.87063" lon="-0.44993">
        <ele>1234.6</ele>
        <time>2021-08-09 11:40:18</time>
      </trkpt>
      <trkpt lat="42.87063" lon="-0.44994">
        <ele>1234.6</ele>
        <time>2021-08-09 11:40:19</time>
      </trkpt>
      <trkpt lat="42.87063" lon="-0.44995">
        <ele>1234.8</ele>
        <time>2021-08-09 11:40:20</time>
      </trkpt>
      <trkpt lat="42.87064" lon="-0.44997">
        <ele>1235</ele>
        <time>2021-08-09 11:40:21</time>
      </trkpt>
      <trkpt lat="42.87064" lon="-0.44998">
        <ele>1234.8</ele>
        <time>2021-08-09 11:40:22</time>
      </trkpt>
      <trkpt lat="42.87064" lon="-0.45">
        <ele>1235.4</ele>
        <time>2021-08-09 11:40:23</time>
      </trkpt>
      <trkpt lat="42.87064" lon="-0.45">
        <ele>1235.6</ele>
        <time>2021-08-09 11:40:24</time>
      </trkpt>
      <trkpt lat="42.87064" lon="-0.45001">
        <ele>1236.2</ele>
        <time>2021-08-09 11:40:25</time>
      </trkpt>
      <trkpt lat="42.87063" lon="-0.45002">
        <ele>1236.4</ele>
        <time>2021-08-09 11:40:26</time>
      </trkpt>
      <trkpt lat="42.87063" lon="-0.45003">
        <ele>1236.4</ele>
        <time>2021-08-09 11:40:27</time>
      </trkpt>
      <trkpt lat="42.87062" lon="-0.45003">
        <ele>1236.6</ele>
        <time>2021-08-09 11:40:28</time>
      </trkpt>
      <trkpt lat="42.87061" lon="-0.45004">
        <ele>1236.8</ele>
        <time>2021-08-09 11:40:29</time>
      </trkpt>
      <trkpt lat="42.87058" lon="-0.45005">
        <ele>1236.8</ele>
        <time>2021-08-09 11:40:30</time>
      </trkpt>
      <trkpt lat="42.87057" lon="-0.45005">
        <ele>1237</ele>
        <time>2021-08-09 11:40:31</time>
      </trkpt>
      <trkpt lat="42.87057" lon="-0.45006">
        <ele>1237.2</ele>
        <time>2021-08-09 11:40:32</time>
      </trkpt>
      <trkpt lat="42.87056" lon="-0.45006">
        <ele>1237.4</ele>
        <time>2021-08-09 11:40:33</time>
      </trkpt>
      <trkpt lat="42.87056" lon="-0.45007">
        <ele>1237.4</ele>
        <time>2021-08-09 11:40:34</time>
      </trkpt>
      <trkpt lat="42.87055" lon="-0.45008">
        <ele>1237.4</ele>
        <time>2021-08-09 11:40:35</time>
      </trkpt>
      <trkpt lat="42.87056" lon="-0.45009">
        <ele>1237.4</ele>
        <time>2021-08-09 11:40:36</time>
      </trkpt>
      <trkpt lat="42.87055" lon="-0.4501">
        <ele>1237.2</ele>
        <time>2021-08-09 11:40:37</time>
      </trkpt>
      <trkpt lat="42.87055" lon="-0.45011">
        <ele>1237.6</ele>
        <time>2021-08-09 11:40:38</time>
      </trkpt>
      <trkpt lat="42.87055" lon="-0.45011">
        <ele>1238</ele>
        <time>2021-08-09 11:40:39</time>
      </trkpt>
      <trkpt lat="42.87055" lon="-0.45012">
        <ele>1238.2</ele>
        <time>2021-08-09 11:40:40</time>
      </trkpt>
      <trkpt lat="42.87055" lon="-0.45013">
        <ele>1238.4</ele>
        <time>2021-08-09 11:40:41</time>
      </trkpt>
      <trkpt lat="42.87055" lon="-0.45014">
        <ele>1238.6</ele>
        <time>2021-08-09 11:40:42</time>
      </trkpt>
      <trkpt lat="42.87055" lon="-0.45014">
        <ele>1238.8</ele>
        <time>2021-08-09 11:40:43</time>
      </trkpt>
      <trkpt lat="42.87054" lon="-0.45015">
        <ele>1239.2</ele>
        <time>2021-08-09 11:40:44</time>
      </trkpt>
      <trkpt lat="42.87054" lon="-0.45016">
        <ele>1239.4</ele>
        <time>2021-08-09 11:40:45</time>
      </trkpt>
      <trkpt lat="42.87054" lon="-0.45017">
        <ele>1239.2</ele>
        <time>2021-08-09 11:40:46</time>
      </trkpt>
      <trkpt lat="42.87054" lon="-0.45017">
        <ele>1239</ele>
        <time>2021-08-09 11:40:47</time>
      </trkpt>
      <trkpt lat="42.87053" lon="-0.45018">
        <ele>1239.2</ele>
        <time>2021-08-09 11:40:48</time>
      </trkpt>
      <trkpt lat="42.87053" lon="-0.45019">
        <ele>1239</ele>
        <time>2021-08-09 11:40:49</time>
      </trkpt>
      <trkpt lat="42.87053" lon="-0.45019">
        <ele>1239.2</ele>
        <time>2021-08-09 11:40:50</time>
      </trkpt>
      <trkpt lat="42.87053" lon="-0.4502">
        <ele>1239.4</ele>
        <time>2021-08-09 11:40:51</time>
      </trkpt>
      <trkpt lat="42.87052" lon="-0.4502">
        <ele>1239.4</ele>
        <time>2021-08-09 11:40:52</time>
      </trkpt>
      <trkpt lat="42.87052" lon="-0.45021">
        <ele>1239.4</ele>
        <time>2021-08-09 11:40:53</time>
      </trkpt>
      <trkpt lat="42.87051" lon="-0.45022">
        <ele>1239.6</ele>
        <time>2021-08-09 11:40:54</time>
      </trkpt>
      <trkpt lat="42.87051" lon="-0.45024">
        <ele>1239.6</ele>
        <time>2021-08-09 11:40:55</time>
      </trkpt>
      <trkpt lat="42.8705" lon="-0.45025">
        <ele>1239.2</ele>
        <time>2021-08-09 11:40:56</time>
      </trkpt>
      <trkpt lat="42.8705" lon="-0.45026">
        <ele>1239.6</ele>
        <time>2021-08-09 11:40:57</time>
      </trkpt>
      <trkpt lat="42.87049" lon="-0.45028">
        <ele>1239.6</ele>
        <time>2021-08-09 11:40:58</time>
      </trkpt>
      <trkpt lat="42.87049" lon="-0.45029">
        <ele>1240</ele>
        <time>2021-08-09 11:40:59</time>
      </trkpt>
      <trkpt lat="42.87049" lon="-0.4503">
        <ele>1240</ele>
        <time>2021-08-09 11:41:00</time>
      </trkpt>
      <trkpt lat="42.87049" lon="-0.45031">
        <ele>1240.2</ele>
        <time>2021-08-09 11:41:01</time>
      </trkpt>
      <trkpt lat="42.87049" lon="-0.45032">
        <ele>1240.2</ele>
        <time>2021-08-09 11:41:02</time>
      </trkpt>
      <trkpt lat="42.87049" lon="-0.45033">
        <ele>1240.4</ele>
        <time>2021-08-09 11:41:03</time>
      </trkpt>
      <trkpt lat="42.87049" lon="-0.45035">
        <ele>1240.4</ele>
        <time>2021-08-09 11:41:04</time>
      </trkpt>
      <trkpt lat="42.87049" lon="-0.45036">
        <ele>1240.4</ele>
        <time>2021-08-09 11:41:05</time>
      </trkpt>
      <trkpt lat="42.87049" lon="-0.45037">
        <ele>1240.2</ele>
        <time>2021-08-09 11:41:06</time>
      </trkpt>
      <trkpt lat="42.87049" lon="-0.45038">
        <ele>1240</ele>
        <time>2021-08-09 11:41:07</time>
      </trkpt>
      <trkpt lat="42.87048" lon="-0.45039">
        <ele>1240</ele>
        <time>2021-08-09 11:41:08</time>
      </trkpt>
      <trkpt lat="42.87048" lon="-0.45039">
        <ele>1240.2</ele>
        <time>2021-08-09 11:41:09</time>
      </trkpt>
      <trkpt lat="42.87047" lon="-0.4504">
        <ele>1240.2</ele>
        <time>2021-08-09 11:41:10</time>
      </trkpt>
      <trkpt lat="42.87047" lon="-0.45041">
        <ele>1240.4</ele>
        <time>2021-08-09 11:41:11</time>
      </trkpt>
      <trkpt lat="42.87046" lon="-0.45042">
        <ele>1240.4</ele>
        <time>2021-08-09 11:41:12</time>
      </trkpt>
      <trkpt lat="42.87046" lon="-0.45043">
        <ele>1240.2</ele>
        <time>2021-08-09 11:41:13</time>
      </trkpt>
      <trkpt lat="42.87046" lon="-0.45044">
        <ele>1240.6</ele>
        <time>2021-08-09 11:41:14</time>
      </trkpt>
      <trkpt lat="42.87046" lon="-0.45044">
        <ele>1240.6</ele>
        <time>2021-08-09 11:41:15</time>
      </trkpt>
      <trkpt lat="42.87045" lon="-0.45044">
        <ele>1240.8</ele>
        <time>2021-08-09 11:41:16</time>
      </trkpt>
      <trkpt lat="42.87045" lon="-0.45045">
        <ele>1240.8</ele>
        <time>2021-08-09 11:41:17</time>
      </trkpt>
      <trkpt lat="42.87045" lon="-0.45045">
        <ele>1241</ele>
        <time>2021-08-09 11:41:18</time>
      </trkpt>
      <trkpt lat="42.87044" lon="-0.45046">
        <ele>1241</ele>
        <time>2021-08-09 11:41:19</time>
      </trkpt>
      <trkpt lat="42.87044" lon="-0.45047">
        <ele>1241.4</ele>
        <time>2021-08-09 11:41:20</time>
      </trkpt>
      <trkpt lat="42.87044" lon="-0.45047">
        <ele>1241.4</ele>
        <time>2021-08-09 11:41:21</time>
      </trkpt>
      <trkpt lat="42.87042" lon="-0.45047">
        <ele>1241.4</ele>
        <time>2021-08-09 11:41:22</time>
      </trkpt>
      <trkpt lat="42.87042" lon="-0.45048">
        <ele>1241.4</ele>
        <time>2021-08-09 11:41:23</time>
      </trkpt>
      <trkpt lat="42.87042" lon="-0.45048">
        <ele>1241.4</ele>
        <time>2021-08-09 11:41:24</time>
      </trkpt>
      <trkpt lat="42.87042" lon="-0.45048">
        <ele>1241.4</ele>
        <time>2021-08-09 11:41:25</time>
      </trkpt>
      <trkpt lat="42.87042" lon="-0.45049">
        <ele>1241.6</ele>
        <time>2021-08-09 11:41:26</time>
      </trkpt>
      <trkpt lat="42.87042" lon="-0.4505">
        <ele>1241.6</ele>
        <time>2021-08-09 11:41:27</time>
      </trkpt>
      <trkpt lat="42.87042" lon="-0.45051">
        <ele>1241.8</ele>
        <time>2021-08-09 11:41:28</time>
      </trkpt>
      <trkpt lat="42.87041" lon="-0.45052">
        <ele>1242</ele>
        <time>2021-08-09 11:41:29</time>
      </trkpt>
      <trkpt lat="42.87041" lon="-0.45053">
        <ele>1242.2</ele>
        <time>2021-08-09 11:41:30</time>
      </trkpt>
      <trkpt lat="42.87042" lon="-0.45053">
        <ele>1242.6</ele>
        <time>2021-08-09 11:41:31</time>
      </trkpt>
      <trkpt lat="42.87042" lon="-0.45054">
        <ele>1242.8</ele>
        <time>2021-08-09 11:41:32</time>
      </trkpt>
      <trkpt lat="42.87042" lon="-0.45054">
        <ele>1243</ele>
        <time>2021-08-09 11:41:33</time>
      </trkpt>
      <trkpt lat="42.87042" lon="-0.45054">
        <ele>1243</ele>
        <time>2021-08-09 11:41:34</time>
      </trkpt>
      <trkpt lat="42.87041" lon="-0.45054">
        <ele>1243.4</ele>
        <time>2021-08-09 11:41:35</time>
      </trkpt>
      <trkpt lat="42.8704" lon="-0.45055">
        <ele>1243.8</ele>
        <time>2021-08-09 11:41:36</time>
      </trkpt>
      <trkpt lat="42.8704" lon="-0.45055">
        <ele>1244</ele>
        <time>2021-08-09 11:41:37</time>
      </trkpt>
      <trkpt lat="42.87039" lon="-0.45056">
        <ele>1244.2</ele>
        <time>2021-08-09 11:41:38</time>
      </trkpt>
      <trkpt lat="42.87039" lon="-0.45056">
        <ele>1244.4</ele>
        <time>2021-08-09 11:41:39</time>
      </trkpt>
      <trkpt lat="42.87038" lon="-0.45057">
        <ele>1244.6</ele>
        <time>2021-08-09 11:41:40</time>
      </trkpt>
      <trkpt lat="42.87038" lon="-0.45058">
        <ele>1244.8</ele>
        <time>2021-08-09 11:41:41</time>
      </trkpt>
      <trkpt lat="42.87038" lon="-0.45058">
        <ele>1245</ele>
        <time>2021-08-09 11:41:42</time>
      </trkpt>
      <trkpt lat="42.87037" lon="-0.45059">
        <ele>1245.2</ele>
        <time>2021-08-09 11:41:43</time>
      </trkpt>
      <trkpt lat="42.87037" lon="-0.4506">
        <ele>1245.4</ele>
        <time>2021-08-09 11:41:44</time>
      </trkpt>
      <trkpt lat="42.87036" lon="-0.45061">
        <ele>1245.6</ele>
        <time>2021-08-09 11:41:45</time>
      </trkpt>
      <trkpt lat="42.87036" lon="-0.45062">
        <ele>1246</ele>
        <time>2021-08-09 11:41:46</time>
      </trkpt>
      <trkpt lat="42.87036" lon="-0.45063">
        <ele>1246</ele>
        <time>2021-08-09 11:41:47</time>
      </trkpt>
      <trkpt lat="42.87035" lon="-0.45064">
        <ele>1246.4</ele>
        <time>2021-08-09 11:41:48</time>
      </trkpt>
      <trkpt lat="42.87035" lon="-0.45065">
        <ele>1246.4</ele>
        <time>2021-08-09 11:41:49</time>
      </trkpt>
      <trkpt lat="42.87035" lon="-0.45066">
        <ele>1246.6</ele>
        <time>2021-08-09 11:41:50</time>
      </trkpt>
      <trkpt lat="42.87035" lon="-0.45068">
        <ele>1246.8</ele>
        <time>2021-08-09 11:41:51</time>
      </trkpt>
      <trkpt lat="42.87034" lon="-0.45069">
        <ele>1246.8</ele>
        <time>2021-08-09 11:41:52</time>
      </trkpt>
      <trkpt lat="42.87034" lon="-0.45069">
        <ele>1247</ele>
        <time>2021-08-09 11:41:53</time>
      </trkpt>
      <trkpt lat="42.87033" lon="-0.45071">
        <ele>1247.6</ele>
        <time>2021-08-09 11:41:54</time>
      </trkpt>
      <trkpt lat="42.87033" lon="-0.45072">
        <ele>1247.6</ele>
        <time>2021-08-09 11:41:55</time>
      </trkpt>
      <trkpt lat="42.87032" lon="-0.45073">
        <ele>1247.6</ele>
        <time>2021-08-09 11:41:56</time>
      </trkpt>
      <trkpt lat="42.87031" lon="-0.45073">
        <ele>1247.8</ele>
        <time>2021-08-09 11:41:57</time>
      </trkpt>
      <trkpt lat="42.87031" lon="-0.45074">
        <ele>1248</ele>
        <time>2021-08-09 11:41:58</time>
      </trkpt>
      <trkpt lat="42.87031" lon="-0.45074">
        <ele>1248.6</ele>
        <time>2021-08-09 11:41:59</time>
      </trkpt>
      <trkpt lat="42.87032" lon="-0.45075">
        <ele>1248.6</ele>
      </trkpt>
      <trkpt lat="42.87032" lon="-0.45076">
        <ele>1248.4</ele>
        <time>2021-08-09 11:42:01</time>
      </trkpt>
      <trkpt lat="42.87032" lon="-0.45076">
        <ele>1248.4</ele>
        <time>2021-08-09 11:42:02</time>
      </trkpt>
      <trkpt lat="42.87032" lon="-0.45077">
        <ele>1248.6</ele>
        <time>2021-08-09 11:42:03</time>
      </trkpt>
      <trkpt lat="42.87032" lon="-0.45077">
        <ele>1248.8</ele>
        <time>2021-08-09 11:42:04</time>
      </trkpt>
      <trkpt lat="42.87031" lon="-0.45078">
        <ele>1248.8</ele>
        <time>2021-08-09 11:42:05</time>
      </trkpt>
      <trkpt lat="42.87032" lon="-0.45079">
        <ele>1248.8</ele>
        <time>2021-08-09 11:42:06</time>
      </trkpt>
      <trkpt lat="42.87032" lon="-0.4508">
        <ele>1248.8</ele>
        <time>2021-08-09 11:42:07</time>
      </trkpt>
      <trkpt lat="42.87032" lon="-0.4508">
        <ele>1249.2</ele>
        <time>2021-08-09 11:42:08</time>
      </trkpt>
      <trkpt lat="42.87032" lon="-0.45081">
        <ele>1249.4</ele>
        <time>2021-08-09 11:42:09</time>
      </trkpt>
      <trkpt lat="42.87032" lon="-0.45081">
        <ele>1249.2</ele>
        <time>2021-08-09 11:42:10</time>
      </trkpt>
      <trkpt lat="42.87032" lon="-0.45081">
        <ele>1249.2</ele>
        <time>2021-08-09 11:42:11</time>
      </trkpt>
      <trkpt lat="42.87032" lon="-0.45081">
        <ele>1249.4</ele>
        <time>2021-08-09 11:42:12</time>
      </trkpt>
      <trkpt lat="42.87032" lon="-0.45082">
        <ele>1249.4</ele>
        <time>2021-08-09 11:42:13</time>
      </trkpt>
      <trkpt lat="42.87032" lon="-0.45083">
        <ele>1249.4</ele>
        <time>2021-08-09 11:42:14</time>
      </trkpt>
      <trkpt lat="42.87032" lon="-0.45084">
        <ele>1249.6</ele>
        <time>2021-08-09 11:42:15</time>
      </trkpt>
      <trkpt lat="42.87031" lon="-0.45084">
        <ele>1250</ele>
        <time>2021-08-09 11:42:16</time>
      </trkpt>
      <trkpt lat="42.87031" lon="-0.45085">
        <ele>1250.2</ele>
        <time>2021-08-09 11:42:17</time>
      </trkpt>
      <trkpt lat="42.87031" lon="-0.45086">
        <ele>1250.2</ele>
        <time>2021-08-09 11:42:18</time>
      </trkpt>
      <trkpt lat="42.87032" lon="-0.45087">
        <ele>1250.4</ele>
        <time>2021-08-09 11:42:19</time>
      </trkpt>
      <trkpt lat="42.87032" lon="-0.45089">
        <ele>1251.2</ele>
        <time>2021-08-09 11:42:20</time>
      </trkpt>
      <trkpt lat="42.87032" lon="-0.45089">
        <ele>1251.2</ele>
        <time>2021-08-09 11:42:21</time>
      </trkpt>
      <trkpt lat="42.87032" lon="-0.4509">
        <ele>1251.2</ele>
        <time>2021-08-09 11:42:22</time>
      </trkpt>
      <trkpt lat="42.87031" lon="-0.45091">
        <ele>1251.4</ele>
        <time>2021-08-09 11:42:23</time>
      </trkpt>
      <trkpt lat="42.87031" lon="-0.45093">
        <ele>1251.6</ele>
        <time>2021-08-09 11:42:24</time>
      </trkpt>
      <trkpt lat="42.87031" lon="-0.45094">
        <ele>1251.6</ele>
        <time>2021-08-09 11:42:25</time>
      </trkpt>
      <trkpt lat="42.87031" lon="-0.45094">
        <ele>1252</ele>
        <time>2021-08-09 11:42:26</time>
      </trkpt>
      <trkpt lat="42.8703" lon="-0.45095">
        <ele>1252</ele>
      </trkpt>
      <trkpt lat="42.8703" lon="-0.45096">
        <ele>1252.4</ele>
        <time>2021-08-09 11:42:27</time>
      </trkpt>
      <trkpt lat="42.8703" lon="-0.45097">
        <ele>1252.4</ele>
        <time>2021-08-09 11:42:28</time>
      </trkpt>
      <trkpt lat="42.8703" lon="-0.45098">
        <ele>1252.6</ele>
        <time>2021-08-09 11:42:29</time>
      </trkpt>
      <trkpt lat="42.87029" lon="-0.451">
        <ele>1253</ele>
        <time>2021-08-09 11:42:30</time>
      </trkpt>
      <trkpt lat="42.87028" lon="-0.45102">
        <ele>1253.4</ele>
        <time>2021-08-09 11:42:31</time>
      </trkpt>
      <trkpt lat="42.87028" lon="-0.45103">
        <ele>1253.6</ele>
        <time>2021-08-09 11:42:32</time>
      </trkpt>
      <trkpt lat="42.87028" lon="-0.45105">
        <ele>1254</ele>
        <time>2021-08-09 11:42:33</time>
      </trkpt>
      <trkpt lat="42.87027" lon="-0.45106">
        <ele>1254.2</ele>
        <time>2021-08-09 11:42:34</time>
      </trkpt>
      <trkpt lat="42.87027" lon="-0.45107">
        <ele>1254.6</ele>
        <time>2021-08-09 11:42:35</time>
      </trkpt>
      <trkpt lat="42.87027" lon="-0.45108">
        <ele>1255</ele>
        <time>2021-08-09 11:42:36</time>
      </trkpt>
      <trkpt lat="42.87026" lon="-0.45109">
        <ele>1255.2</ele>
        <time>2021-08-09 11:42:37</time>
      </trkpt>
      <trkpt lat="42.87026" lon="-0.4511">
        <ele>1255.6</ele>
        <time>2021-08-09 11:42:39</time>
      </trkpt>
      <trkpt lat="42.87026" lon="-0.45112">
        <ele>1255</ele>
      </trkpt>
      <trkpt lat="42.87026" lon="-0.45113">
        <ele>1255.4</ele>
        <time>2021-08-09 11:42:40</time>
      </trkpt>
      <trkpt lat="42.87026" lon="-0.45113">
        <ele>1255</ele>
        <time>2021-08-09 11:42:41</time>
      </trkpt>
      <trkpt lat="42.87025" lon="-0.45114">
        <ele>1256.2</ele>
        <time>2021-08-09 11:42:42</time>
      </trkpt>
      <trkpt lat="42.87025" lon="-0.45115">
        <ele>1256.6</ele>
        <time>2021-08-09 11:42:43</time>
      </trkpt>
      <trkpt lat="42.87025" lon="-0.45115">
        <ele>1256.4</ele>
        <time>2021-08-09 11:42:44</time>
      </trkpt>
      <trkpt lat="42.87024" lon="-0.45117">
        <ele>1256.8</ele>
        <time>2021-08-09 11:42:45</time>
      </trkpt>
      <trkpt lat="42.87024" lon="-0.45118">
        <ele>1256.8</ele>
        <time>2021-08-09 11:42:46</time>
      </trkpt>
      <trkpt lat="42.87024" lon="-0.45118">
        <ele>1257</ele>
        <time>2021-08-09 11:42:47</time>
      </trkpt>
      <trkpt lat="42.87023" lon="-0.45119">
        <ele>1257.2</ele>
        <time>2021-08-09 11:42:48</time>
      </trkpt>
      <trkpt lat="42.87023" lon="-0.4512">
        <ele>1257.2</ele>
        <time>2021-08-09 11:42:49</time>
      </trkpt>
      <trkpt lat="42.87022" lon="-0.45122">
        <ele>1257.6</ele>
        <time>2021-08-09 11:42:50</time>
      </trkpt>
      <trkpt lat="42.87022" lon="-0.45122">
        <ele>1257.6</ele>
        <time>2021-08-09 11:42:51</time>
      </trkpt>
      <trkpt lat="42.87021" lon="-0.45124">
        <ele>1258</ele>
        <time>2021-08-09 11:42:52</time>
      </trkpt>
      <trkpt lat="42.87021" lon="-0.45125">
        <ele>1258</ele>
        <time>2021-08-09 11:42:53</time>
      </trkpt>
      <trkpt lat="42.87021" lon="-0.45126">
        <ele>1257.8</ele>
        <time>2021-08-09 11:42:54</time>
      </trkpt>
      <trkpt lat="42.87021" lon="-0.45127">
        <ele>1258.6</ele>
        <time>2021-08-09 11:42:55</time>
      </trkpt>
      <trkpt lat="42.87021" lon="-0.45128">
        <ele>1259</ele>
        <time>2021-08-09 11:42:56</time>
      </trkpt>
      <trkpt lat="42.8702" lon="-0.45129">
        <ele>1259.6</ele>
        <time>2021-08-09 11:42:57</time>
      </trkpt>
      <trkpt lat="42.8702" lon="-0.45129">
        <ele>1259.4</ele>
        <time>2021-08-09 11:42:59</time>
      </trkpt>
      <trkpt lat="42.87019" lon="-0.4513">
        <ele>1259.2</ele>
      </trkpt>
      <trkpt lat="42.87019" lon="-0.4513">
        <ele>1259.6</ele>
        <time>2021-08-09 11:43:00</time>
      </trkpt>
      <trkpt lat="42.87018" lon="-0.45131">
        <ele>1260</ele>
        <time>2021-08-09 11:43:01</time>
      </trkpt>
      <trkpt lat="42.87017" lon="-0.45132">
        <ele>1260</ele>
        <time>2021-08-09 11:43:02</time>
      </trkpt>
      <trkpt lat="42.87016" lon="-0.45133">
        <ele>1260.2</ele>
        <time>2021-08-09 11:43:03</time>
      </trkpt>
      <trkpt lat="42.87016" lon="-0.45134">
        <ele>1260.6</ele>
        <time>2021-08-09 11:43:04</time>
      </trkpt>
      <trkpt lat="42.87016" lon="-0.45134">
        <ele>1260.6</ele>
        <time>2021-08-09 11:43:05</time>
      </trkpt>
      <trkpt lat="42.87016" lon="-0.45135">
        <ele>1261</ele>
        <time>2021-08-09 11:43:06</time>
      </trkpt>
      <trkpt lat="42.87017" lon="-0.45136">
        <ele>1261</ele>
        <time>2021-08-09 11:43:07</time>
      </trkpt>
      <trkpt lat="42.87017" lon="-0.45137">
        <ele>1261.2</ele>
        <time>2021-08-09 11:43:08</time>
      </trkpt>
      <trkpt lat="42.87017" lon="-0.45138">
        <ele>1261.4</ele>
        <time>2021-08-09 11:43:09</time>
      </trkpt>
      <trkpt lat="42.87016" lon="-0.45139">
        <ele>1261.8</ele>
        <time>2021-08-09 11:43:10</time>
      </trkpt>
      <trkpt lat="42.87016" lon="-0.4514">
        <ele>1262</ele>
        <time>2021-08-09 11:43:11</time>
      </trkpt>
      <trkpt lat="42.87015" lon="-0.4514">
        <ele>1262</ele>
        <time>2021-08-09 11:43:12</time>
      </trkpt>
      <trkpt lat="42.87015" lon="-0.45141">
        <ele>1262.2</ele>
        <time>2021-08-09 11:43:13</time>
      </trkpt>
      <trkpt lat="42.87014" lon="-0.45141">
        <ele>1262.4</ele>
        <time>2021-08-09 11:43:14</time>
      </trkpt>
      <trkpt lat="42.87013" lon="-0.45141">
        <ele>1262.6</ele>
        <time>2021-08-09 11:43:15</time>
      </trkpt>
      <trkpt lat="42.87012" lon="-0.45142">
        <ele>1263</ele>
        <time>2021-08-09 11:43:16</time>
      </trkpt>
      <trkpt lat="42.87012" lon="-0.45142">
        <ele>1263.2</ele>
        <time>2021-08-09 11:43:17</time>
      </trkpt>
      <trkpt lat="42.87012" lon="-0.45143">
        <ele>1263.6</ele>
        <time>2021-08-09 11:43:18</time>
      </trkpt>
      <trkpt lat="42.87012" lon="-0.45144">
        <ele>1264</ele>
        <time>2021-08-09 11:43:19</time>
      </trkpt>
      <trkpt lat="42.87012" lon="-0.45145">
        <ele>1264.2</ele>
        <time>2021-08-09 11:43:20</time>
      </trkpt>
      <trkpt lat="42.87012" lon="-0.45145">
        <ele>1264.4</ele>
        <time>2021-08-09 11:43:21</time>
      </trkpt>
      <trkpt lat="42.87012" lon="-0.45146">
        <ele>1264.8</ele>
        <time>2021-08-09 11:43:22</time>
      </trkpt>
      <trkpt lat="42.87011" lon="-0.45147">
        <ele>1264.8</ele>
        <time>2021-08-09 11:43:23</time>
      </trkpt>
      <trkpt lat="42.87011" lon="-0.45148">
        <ele>1265</ele>
        <time>2021-08-09 11:43:24</time>
      </trkpt>
      <trkpt lat="42.87011" lon="-0.45149">
        <ele>1265</ele>
        <time>2021-08-09 11:43:25</time>
      </trkpt>
      <trkpt lat="42.87011" lon="-0.4515">
        <ele>1265</ele>
        <time>2021-08-09 11:43:26</time>
      </trkpt>
      <trkpt lat="42.8701" lon="-0.45151">
        <ele>1265.4</ele>
        <time>2021-08-09 11:43:27</time>
      </trkpt>
      <trkpt lat="42.8701" lon="-0.45153">
        <ele>1265.6</ele>
        <time>2021-08-09 11:43:28</time>
      </trkpt>
      <trkpt lat="42.87011" lon="-0.45154">
        <ele>1265.6</ele>
        <time>2021-08-09 11:43:29</time>
      </trkpt>
      <trkpt lat="42.87011" lon="-0.45156">
        <ele>1266</ele>
        <time>2021-08-09 11:43:30</time>
      </trkpt>
      <trkpt lat="42.87011" lon="-0.45157">
        <ele>1266</ele>
        <time>2021-08-09 11:43:31</time>
      </trkpt>
      <trkpt lat="42.87011" lon="-0.45158">
        <ele>1266.2</ele>
        <time>2021-08-09 11:43:32</time>
      </trkpt>
      <trkpt lat="42.87011" lon="-0.45159">
        <ele>1266.4</ele>
        <time>2021-08-09 11:43:33</time>
      </trkpt>
      <trkpt lat="42.8701" lon="-0.4516">
        <ele>1266.8</ele>
        <time>2021-08-09 11:43:34</time>
      </trkpt>
      <trkpt lat="42.8701" lon="-0.45161">
        <ele>1267</ele>
        <time>2021-08-09 11:43:35</time>
      </trkpt>
      <trkpt lat="42.87009" lon="-0.45162">
        <ele>1267.4</ele>
        <time>2021-08-09 11:43:36</time>
      </trkpt>
      <trkpt lat="42.87009" lon="-0.45162">
        <ele>1267.4</ele>
        <time>2021-08-09 11:43:38</time>
      </trkpt>
      <trkpt lat="42.87009" lon="-0.45163">
        <ele>1267.6</ele>
      </trkpt>
      <trkpt lat="42.87008" lon="-0.45164">
        <ele>1267.4</ele>
        <time>2021-08-09 11:43:39</time>
      </trkpt>
      <trkpt lat="42.87009" lon="-0.45165">
        <ele>1268</ele>
        <time>2021-08-09 11:43:40</time>
      </trkpt>
      <trkpt lat="42.87009" lon="-0.45166">
        <ele>1268</ele>
        <time>2021-08-09 11:43:41</time>
      </trkpt>
      <trkpt lat="42.87009" lon="-0.45167">
        <ele>1268.2</ele>
        <time>2021-08-09 11:43:42</time>
      </trkpt>
      <trkpt lat="42.87009" lon="-0.45167">
        <ele>1268.2</ele>
        <time>2021-08-09 11:43:43</time>
      </trkpt>
      <trkpt lat="42.87009" lon="-0.45169">
        <ele>1268.6</ele>
        <time>2021-08-09 11:43:44</time>
      </trkpt>
      <trkpt lat="42.87009" lon="-0.4517">
        <ele>1268.8</ele>
        <time>2021-08-09 11:43:45</time>
      </trkpt>
      <trkpt lat="42.87009" lon="-0.45171">
        <ele>1268.8</ele>
        <time>2021-08-09 11:43:46</time>
      </trkpt>
      <trkpt lat="42.87009" lon="-0.45172">
        <ele>1269</ele>
        <time>2021-08-09 11:43:47</time>
      </trkpt>
      <trkpt lat="42.87009" lon="-0.45173">
        <ele>1269</ele>
        <time>2021-08-09 11:43:48</time>
      </trkpt>
      <trkpt lat="42.8701" lon="-0.45174">
        <ele>1269.4</ele>
        <time>2021-08-09 11:43:49</time>
      </trkpt>
      <trkpt lat="42.87009" lon="-0.45175">
        <ele>1267.8</ele>
        <time>2021-08-09 11:43:50</time>
      </trkpt>
      <trkpt lat="42.8701" lon="-0.45176">
        <ele>1269</ele>
        <time>2021-08-09 11:43:51</time>
      </trkpt>
      <trkpt lat="42.87011" lon="-0.45177">
        <ele>1269.2</ele>
        <time>2021-08-09 11:43:52</time>
      </trkpt>
      <trkpt lat="42.87011" lon="-0.45178">
        <ele>1270.2</ele>
        <time>2021-08-09 11:43:53</time>
      </trkpt>
      <trkpt lat="42.8701" lon="-0.45179">
        <ele>1270.2</ele>
        <time>2021-08-09 11:43:54</time>
      </trkpt>
      <trkpt lat="42.87009" lon="-0.4518">
        <ele>1270.4</ele>
        <time>2021-08-09 11:43:55</time>
      </trkpt>
      <trkpt lat="42.87009" lon="-0.45181">
        <ele>1270.6</ele>
        <time>2021-08-09 11:43:56</time>
      </trkpt>
      <trkpt lat="42.87008" lon="-0.45181">
        <ele>1271.4</ele>
        <time>2021-08-09 11:43:57</time>
      </trkpt>
      <trkpt lat="42.87008" lon="-0.45182">
        <ele>1271.4</ele>
        <time>2021-08-09 11:43:58</time>
      </trkpt>
      <trkpt lat="42.87007" lon="-0.45182">
        <ele>1271.6</ele>
        <time>2021-08-09 11:43:59</time>
      </trkpt>
      <trkpt lat="42.87007" lon="-0.45183">
        <ele>1271.6</ele>
        <time>2021-08-09 11:44:00</time>
      </trkpt>
      <trkpt lat="42.87006" lon="-0.45183">
        <ele>1272</ele>
        <time>2021-08-09 11:44:01</time>
      </trkpt>
      <trkpt lat="42.87006" lon="-0.45184">
        <ele>1272</ele>
        <time>2021-08-09 11:44:02</time>
      </trkpt>
      <trkpt lat="42.87005" lon="-0.45184">
        <ele>1271.8</ele>
        <time>2021-08-09 11:44:03</time>
      </trkpt>
      <trkpt lat="42.87005" lon="-0.45185">
        <ele>1272</ele>
        <time>2021-08-09 11:44:04</time>
      </trkpt>
      <trkpt lat="42.87004" lon="-0.45186">
        <ele>1272</ele>
        <time>2021-08-09 11:44:05</time>
      </trkpt>
      <trkpt lat="42.87003" lon="-0.45186">
        <ele>1272</ele>
        <time>2021-08-09 11:44:06</time>
      </trkpt>
      <trkpt lat="42.87003" lon="-0.45185">
        <ele>1272</ele>
        <time>2021-08-09 11:44:07</time>
      </trkpt>
      <trkpt lat="42.87002" lon="-0.45185">
        <ele>1272.2</ele>
        <time>2021-08-09 11:44:08</time>
      </trkpt>
      <trkpt lat="42.87002" lon="-0.45185">
        <ele>1272.2</ele>
        <time>2021-08-09 11:44:09</time>
      </trkpt>
      <trkpt lat="42.87001" lon="-0.45185">
        <ele>1272.4</ele>
        <time>2021-08-09 11:44:10</time>
      </trkpt>
      <trkpt lat="42.87001" lon="-0.45185">
        <ele>1272.2</ele>
        <time>2021-08-09 11:44:11</time>
      </trkpt>
      <trkpt lat="42.87" lon="-0.45185">
        <ele>1272.4</ele>
        <time>2021-08-09 11:44:12</time>
      </trkpt>
      <trkpt lat="42.87" lon="-0.45185">
        <ele>1272.6</ele>
        <time>2021-08-09 11:44:13</time>
      </trkpt>
      <trkpt lat="42.86999" lon="-0.45186">
        <ele>1272.6</ele>
        <time>2021-08-09 11:44:14</time>
      </trkpt>
      <trkpt lat="42.87" lon="-0.45187">
        <ele>1272.8</ele>
        <time>2021-08-09 11:44:15</time>
      </trkpt>
      <trkpt lat="42.87" lon="-0.45187">
        <ele>1273</ele>
        <time>2021-08-09 11:44:16</time>
      </trkpt>
      <trkpt lat="42.87" lon="-0.45188">
        <ele>1272.6</ele>
        <time>2021-08-09 11:44:17</time>
      </trkpt>
      <trkpt lat="42.87" lon="-0.4519">
        <ele>1273.2</ele>
        <time>2021-08-09 11:44:18</time>
      </trkpt>
      <trkpt lat="42.87001" lon="-0.4519">
        <ele>1273.2</ele>
        <time>2021-08-09 11:44:19</time>
      </trkpt>
      <trkpt lat="42.87001" lon="-0.45191">
        <ele>1273.6</ele>
        <time>2021-08-09 11:44:20</time>
      </trkpt>
      <trkpt lat="42.87001" lon="-0.45192">
        <ele>1274</ele>
        <time>2021-08-09 11:44:21</time>
      </trkpt>
      <trkpt lat="42.87001" lon="-0.45193">
        <ele>1274.2</ele>
        <time>2021-08-09 11:44:22</time>
      </trkpt>
      <trkpt lat="42.87" lon="-0.45193">
        <ele>1273.8</ele>
        <time>2021-08-09 11:44:23</time>
      </trkpt>
      <trkpt lat="42.87" lon="-0.45193">
        <ele>1274.4</ele>
        <time>2021-08-09 11:44:24</time>
      </trkpt>
      <trkpt lat="42.86999" lon="-0.45193">
        <ele>1274.6</ele>
        <time>2021-08-09 11:44:25</time>
      </trkpt>
      <trkpt lat="42.87" lon="-0.45193">
        <ele>1274.8</ele>
        <time>2021-08-09 11:44:26</time>
      </trkpt>
      <trkpt lat="42.87" lon="-0.45194">
        <ele>1275</ele>
        <time>2021-08-09 11:44:27</time>
      </trkpt>
      <trkpt lat="42.86999" lon="-0.45195">
        <ele>1275.2</ele>
        <time>2021-08-09 11:44:28</time>
      </trkpt>
      <trkpt lat="42.86999" lon="-0.45196">
        <ele>1275.4</ele>
        <time>2021-08-09 11:44:29</time>
      </trkpt>
      <trkpt lat="42.87" lon="-0.45197">
        <ele>1275.8</ele>
        <time>2021-08-09 11:44:30</time>
      </trkpt>
      <trkpt lat="42.87" lon="-0.45198">
        <ele>1276</ele>
        <time>2021-08-09 11:44:31</time>
      </trkpt>
      <trkpt lat="42.87" lon="-0.45199">
        <ele>1276.2</ele>
        <time>2021-08-09 11:44:32</time>
      </trkpt>
      <trkpt lat="42.87" lon="-0.452">
        <ele>1276.2</ele>
        <time>2021-08-09 11:44:33</time>
      </trkpt>
      <trkpt lat="42.86999" lon="-0.45202">
        <ele>1276.6</ele>
        <time>2021-08-09 11:44:34</time>
      </trkpt>
      <trkpt lat="42.86999" lon="-0.45202">
        <ele>1276.8</ele>
        <time>2021-08-09 11:44:35</time>
      </trkpt>
      <trkpt lat="42.86999" lon="-0.45203">
        <ele>1277.4</ele>
        <time>2021-08-09 11:44:36</time>
      </trkpt>
      <trkpt lat="42.86999" lon="-0.45204">
        <ele>1276.6</ele>
        <time>2021-08-09 11:44:37</time>
      </trkpt>
      <trkpt lat="42.86999" lon="-0.45205">
        <ele>1277</ele>
        <time>2021-08-09 11:44:38</time>
      </trkpt>
      <trkpt lat="42.86999" lon="-0.45205">
        <ele>1277</ele>
        <time>2021-08-09 11:44:39</time>
      </trkpt>
      <trkpt lat="42.86999" lon="-0.45206">
        <ele>1277.4</ele>
        <time>2021-08-09 11:44:40</time>
      </trkpt>
      <trkpt lat="42.87" lon="-0.45208">
        <ele>1277.8</ele>
        <time>2021-08-09 11:44:41</time>
      </trkpt>
      <trkpt lat="42.87" lon="-0.45209">
        <ele>1278</ele>
        <time>2021-08-09 11:44:42</time>
      </trkpt>
      <trkpt lat="42.86999" lon="-0.45209">
        <ele>1278.2</ele>
        <time>2021-08-09 11:44:43</time>
      </trkpt>
      <trkpt lat="42.87" lon="-0.45209">
        <ele>1278.2</ele>
        <time>2021-08-09 11:44:44</time>
      </trkpt>
      <trkpt lat="42.87" lon="-0.45209">
        <ele>1278.4</ele>
        <time>2021-08-09 11:44:45</time>
      </trkpt>
      <trkpt lat="42.87" lon="-0.45209">
        <ele>1278.2</ele>
        <time>2021-08-09 11:44:46</time>
      </trkpt>
      <trkpt lat="42.87" lon="-0.4521">
        <ele>1278.6</ele>
        <time>2021-08-09 11:44:47</time>
      </trkpt>
      <trkpt lat="42.87" lon="-0.45211">
        <ele>1279.2</ele>
        <time>2021-08-09 11:44:48</time>
      </trkpt>
      <trkpt lat="42.86999" lon="-0.45212">
        <ele>1279</ele>
        <time>2021-08-09 11:44:49</time>
      </trkpt>
      <trkpt lat="42.86999" lon="-0.45213">
        <ele>1279.4</ele>
        <time>2021-08-09 11:44:50</time>
      </trkpt>
      <trkpt lat="42.86999" lon="-0.45214">
        <ele>1279.4</ele>
        <time>2021-08-09 11:44:51</time>
      </trkpt>
      <trkpt lat="42.86999" lon="-0.45216">
        <ele>1279.8</ele>
        <time>2021-08-09 11:44:52</time>
      </trkpt>
      <trkpt lat="42.86999" lon="-0.45216">
        <ele>1279.8</ele>
        <time>2021-08-09 11:44:53</time>
      </trkpt>
      <trkpt lat="42.86999" lon="-0.45217">
        <ele>1280</ele>
        <time>2021-08-09 11:44:54</time>
      </trkpt>
      <trkpt lat="42.86998" lon="-0.45218">
        <ele>1280.2</ele>
        <time>2021-08-09 11:44:55</time>
      </trkpt>
      <trkpt lat="42.86999" lon="-0.45219">
        <ele>1280.4</ele>
        <time>2021-08-09 11:44:56</time>
      </trkpt>
      <trkpt lat="42.86999" lon="-0.4522">
        <ele>1280.6</ele>
        <time>2021-08-09 11:44:57</time>
      </trkpt>
      <trkpt lat="42.86998" lon="-0.45222">
        <ele>1280.6</ele>
        <time>2021-08-09 11:44:58</time>
      </trkpt>
      <trkpt lat="42.86998" lon="-0.45223">
        <ele>1280.6</ele>
        <time>2021-08-09 11:44:59</time>
      </trkpt>
      <trkpt lat="42.86998" lon="-0.45224">
        <ele>1281</ele>
        <time>2021-08-09 11:45:00</time>
      </trkpt>
      <trkpt lat="42.86998" lon="-0.45225">
        <ele>1281.2</ele>
        <time>2021-08-09 11:45:01</time>
      </trkpt>
      <trkpt lat="42.86997" lon="-0.45226">
        <ele>1281.2</ele>
        <time>2021-08-09 11:45:02</time>
      </trkpt>
      <trkpt lat="42.86997" lon="-0.45227">
        <ele>1281.2</ele>
        <time>2021-08-09 11:45:03</time>
      </trkpt>
      <trkpt lat="42.86997" lon="-0.45228">
        <ele>1281.4</ele>
        <time>2021-08-09 11:45:04</time>
      </trkpt>
      <trkpt lat="42.86997" lon="-0.45229">
        <ele>1281.4</ele>
        <time>2021-08-09 11:45:05</time>
      </trkpt>
      <trkpt lat="42.86997" lon="-0.4523">
        <ele>1281.6</ele>
        <time>2021-08-09 11:45:06</time>
      </trkpt>
      <trkpt lat="42.86997" lon="-0.4523">
        <ele>1281.8</ele>
        <time>2021-08-09 11:45:07</time>
      </trkpt>
      <trkpt lat="42.86997" lon="-0.45231">
        <ele>1282</ele>
        <time>2021-08-09 11:45:08</time>
      </trkpt>
      <trkpt lat="42.86996" lon="-0.45232">
        <ele>1282</ele>
        <time>2021-08-09 11:45:09</time>
      </trkpt>
      <trkpt lat="42.86995" lon="-0.45233">
        <ele>1282.4</ele>
        <time>2021-08-09 11:45:10</time>
      </trkpt>
      <trkpt lat="42.86995" lon="-0.45234">
        <ele>1282.8</ele>
        <time>2021-08-09 11:45:11</time>
      </trkpt>
      <trkpt lat="42.86995" lon="-0.45235">
        <ele>1282.8</ele>
        <time>2021-08-09 11:45:12</time>
      </trkpt>
      <trkpt lat="42.86995" lon="-0.45236">
        <ele>1283</ele>
        <time>2021-08-09 11:45:13</time>
      </trkpt>
      <trkpt lat="42.86995" lon="-0.45237">
        <ele>1283.2</ele>
        <time>2021-08-09 11:45:14</time>
      </trkpt>
      <trkpt lat="42.86994" lon="-0.45238">
        <ele>1283.4</ele>
        <time>2021-08-09 11:45:15</time>
      </trkpt>
      <trkpt lat="42.86994" lon="-0.45238">
        <ele>1283.6</ele>
        <time>2021-08-09 11:45:16</time>
      </trkpt>
      <trkpt lat="42.86994" lon="-0.45239">
        <ele>1283.8</ele>
        <time>2021-08-09 11:45:17</time>
      </trkpt>
      <trkpt lat="42.86994" lon="-0.4524">
        <ele>1284</ele>
        <time>2021-08-09 11:45:18</time>
      </trkpt>
      <trkpt lat="42.86993" lon="-0.4524">
        <ele>1284.2</ele>
        <time>2021-08-09 11:45:19</time>
      </trkpt>
      <trkpt lat="42.86993" lon="-0.45241">
        <ele>1284.6</ele>
        <time>2021-08-09 11:45:20</time>
      </trkpt>
      <trkpt lat="42.86994" lon="-0.45242">
        <ele>1285</ele>
        <time>2021-08-09 11:45:21</time>
      </trkpt>
      <trkpt lat="42.86993" lon="-0.45243">
        <ele>1285.2</ele>
        <time>2021-08-09 11:45:22</time>
      </trkpt>
      <trkpt lat="42.86993" lon="-0.45243">
        <ele>1285.4</ele>
        <time>2021-08-09 11:45:23</time>
      </trkpt>
      <trkpt lat="42.86992" lon="-0.45245">
        <ele>1285.4</ele>
        <time>2021-08-09 11:45:24</time>
      </trkpt>
      <trkpt lat="42.86992" lon="-0.45246">
        <ele>1285.6</ele>
        <time>2021-08-09 11:45:25</time>
      </trkpt>
      <trkpt lat="42.86992" lon="-0.45246">
        <ele>1285.8</ele>
        <time>2021-08-09 11:45:26</time>
      </trkpt>
      <trkpt lat="42.86992" lon="-0.45247">
        <ele>1286</ele>
        <time>2021-08-09 11:45:27</time>
      </trkpt>
      <trkpt lat="42.86991" lon="-0.45247">
        <ele>1286.2</ele>
        <time>2021-08-09 11:45:28</time>
      </trkpt>
      <trkpt lat="42.86991" lon="-0.45248">
        <ele>1286.6</ele>
        <time>2021-08-09 11:45:29</time>
      </trkpt>
      <trkpt lat="42.86991" lon="-0.45249">
        <ele>1286.6</ele>
        <time>2021-08-09 11:45:30</time>
      </trkpt>
      <trkpt lat="42.86991" lon="-0.4525">
        <ele>1286.8</ele>
        <time>2021-08-09 11:45:31</time>
      </trkpt>
      <trkpt lat="42.86991" lon="-0.45251">
        <ele>1286.8</ele>
        <time>2021-08-09 11:45:32</time>
      </trkpt>
      <trkpt lat="42.86991" lon="-0.45252">
        <ele>1287.4</ele>
        <time>2021-08-09 11:45:33</time>
      </trkpt>
      <trkpt lat="42.86991" lon="-0.45253">
        <ele>1287.2</ele>
        <time>2021-08-09 11:45:34</time>
      </trkpt>
      <trkpt lat="42.8699" lon="-0.45252">
        <ele>1287.6</ele>
        <time>2021-08-09 11:45:35</time>
      </trkpt>
      <trkpt lat="42.8699" lon="-0.45253">
        <ele>1287.8</ele>
        <time>2021-08-09 11:45:36</time>
      </trkpt>
      <trkpt lat="42.8699" lon="-0.45253">
        <ele>1287.8</ele>
        <time>2021-08-09 11:45:37</time>
      </trkpt>
      <trkpt lat="42.8699" lon="-0.45253">
        <ele>1287.8</ele>
        <time>2021-08-09 11:45:38</time>
      </trkpt>
      <trkpt lat="42.8699" lon="-0.45253">
        <ele>1287.8</ele>
        <time>2021-08-09 11:45:39</time>
      </trkpt>
      <trkpt lat="42.86991" lon="-0.45253">
        <ele>1287.8</ele>
        <time>2021-08-09 11:45:40</time>
      </trkpt>
      <trkpt lat="42.8699" lon="-0.45253">
        <ele>1287.8</ele>
        <time>2021-08-09 11:45:41</time>
      </trkpt>
      <trkpt lat="42.8699" lon="-0.45252">
        <ele>1288.2</ele>
        <time>2021-08-09 11:45:42</time>
      </trkpt>
      <trkpt lat="42.8699" lon="-0.45253">
        <ele>1287</ele>
        <time>2021-08-09 11:45:43</time>
      </trkpt>
      <trkpt lat="42.8699" lon="-0.45253">
        <ele>1287</ele>
        <time>2021-08-09 11:45:44</time>
      </trkpt>
      <trkpt lat="42.8699" lon="-0.45253">
        <ele>1286.8</ele>
        <time>2021-08-09 11:45:45</time>
      </trkpt>
      <trkpt lat="42.8699" lon="-0.45253">
        <ele>1287.6</ele>
        <time>2021-08-09 11:45:46</time>
      </trkpt>
      <trkpt lat="42.86991" lon="-0.45254">
        <ele>1287.4</ele>
        <time>2021-08-09 11:45:47</time>
      </trkpt>
      <trkpt lat="42.86991" lon="-0.45255">
        <ele>1287.4</ele>
        <time>2021-08-09 11:45:48</time>
      </trkpt>
      <trkpt lat="42.86991" lon="-0.45255">
        <ele>1287.6</ele>
        <time>2021-08-09 11:45:49</time>
      </trkpt>
      <trkpt lat="42.86991" lon="-0.45256">
        <ele>1287.6</ele>
        <time>2021-08-09 11:45:50</time>
      </trkpt>
      <trkpt lat="42.86991" lon="-0.45256">
        <ele>1287.8</ele>
        <time>2021-08-09 11:45:51</time>
      </trkpt>
      <trkpt lat="42.86991" lon="-0.45257">
        <ele>1287.8</ele>
        <time>2021-08-09 11:45:52</time>
      </trkpt>
      <trkpt lat="42.86991" lon="-0.45258">
        <ele>1287.8</ele>
        <time>2021-08-09 11:45:53</time>
      </trkpt>
      <trkpt lat="42.86991" lon="-0.45259">
        <ele>1288.4</ele>
        <time>2021-08-09 11:45:54</time>
      </trkpt>
      <trkpt lat="42.86991" lon="-0.4526">
        <ele>1288.6</ele>
        <time>2021-08-09 11:45:55</time>
      </trkpt>
      <trkpt lat="42.86991" lon="-0.45261">
        <ele>1288.8</ele>
        <time>2021-08-09 11:45:56</time>
      </trkpt>
      <trkpt lat="42.86991" lon="-0.45262">
        <ele>1289.2</ele>
        <time>2021-08-09 11:45:58</time>
      </trkpt>
      <trkpt lat="42.86991" lon="-0.45263">
        <ele>1289.2</ele>
        <time>2021-08-09 11:45:59</time>
      </trkpt>
      <trkpt lat="42.8699" lon="-0.45263">
        <ele>1289.4</ele>
        <time>2021-08-09 11:46:00</time>
      </trkpt>
      <trkpt lat="42.86989" lon="-0.45264">
        <ele>1290</ele>
        <time>2021-08-09 11:46:01</time>
      </trkpt>
      <trkpt lat="42.86989" lon="-0.45264">
        <ele>1290</ele>
        <time>2021-08-09 11:46:02</time>
      </trkpt>
      <trkpt lat="42.86989" lon="-0.45265">
        <ele>1290.4</ele>
        <time>2021-08-09 11:46:03</time>
      </trkpt>
      <trkpt lat="42.86989" lon="-0.45266">
        <ele>1290.6</ele>
        <time>2021-08-09 11:46:04</time>
      </trkpt>
      <trkpt lat="42.86989" lon="-0.45267">
        <ele>1290.6</ele>
        <time>2021-08-09 11:46:05</time>
      </trkpt>
      <trkpt lat="42.86988" lon="-0.45268">
        <ele>1290.6</ele>
        <time>2021-08-09 11:46:06</time>
      </trkpt>
      <trkpt lat="42.86988" lon="-0.45269">
        <ele>1291</ele>
        <time>2021-08-09 11:46:07</time>
      </trkpt>
      <trkpt lat="42.86988" lon="-0.4527">
        <ele>1291.2</ele>
        <time>2021-08-09 11:46:08</time>
      </trkpt>
      <trkpt lat="42.86988" lon="-0.4527">
        <ele>1291.4</ele>
        <time>2021-08-09 11:46:09</time>
      </trkpt>
      <trkpt lat="42.86988" lon="-0.45271">
        <ele>1291.6</ele>
        <time>2021-08-09 11:46:10</time>
      </trkpt>
      <trkpt lat="42.86988" lon="-0.45272">
        <ele>1291.8</ele>
        <time>2021-08-09 11:46:11</time>
      </trkpt>
      <trkpt lat="42.86988" lon="-0.45272">
        <ele>1292</ele>
        <time>2021-08-09 11:46:12</time>
      </trkpt>
      <trkpt lat="42.86987" lon="-0.45273">
        <ele>1292</ele>
        <time>2021-08-09 11:46:13</time>
      </trkpt>
      <trkpt lat="42.86988" lon="-0.45274">
        <ele>1292.4</ele>
        <time>2021-08-09 11:46:14</time>
      </trkpt>
      <trkpt lat="42.86988" lon="-0.45274">
        <ele>1292.8</ele>
        <time>2021-08-09 11:46:15</time>
      </trkpt>
      <trkpt lat="42.86989" lon="-0.45275">
        <ele>1293.2</ele>
        <time>2021-08-09 11:46:16</time>
      </trkpt>
      <trkpt lat="42.86989" lon="-0.45276">
        <ele>1293.4</ele>
        <time>2021-08-09 11:46:17</time>
      </trkpt>
      <trkpt lat="42.86989" lon="-0.45277">
        <ele>1293.6</ele>
        <time>2021-08-09 11:46:18</time>
      </trkpt>
      <trkpt lat="42.86989" lon="-0.45277">
        <ele>1293.8</ele>
        <time>2021-08-09 11:46:19</time>
      </trkpt>
      <trkpt lat="42.86989" lon="-0.45277">
        <ele>1294</ele>
        <time>2021-08-09 11:46:20</time>
      </trkpt>
      <trkpt lat="42.86989" lon="-0.45278">
        <ele>1294.2</ele>
        <time>2021-08-09 11:46:21</time>
      </trkpt>
      <trkpt lat="42.86988" lon="-0.45279">
        <ele>1294.4</ele>
        <time>2021-08-09 11:46:22</time>
      </trkpt>
      <trkpt lat="42.86987" lon="-0.4528">
        <ele>1294.6</ele>
        <time>2021-08-09 11:46:23</time>
      </trkpt>
      <trkpt lat="42.86986" lon="-0.45281">
        <ele>1294.8</ele>
        <time>2021-08-09 11:46:24</time>
      </trkpt>
      <trkpt lat="42.86985" lon="-0.45281">
        <ele>1295</ele>
        <time>2021-08-09 11:46:25</time>
      </trkpt>
      <trkpt lat="42.86984" lon="-0.45281">
        <ele>1295.2</ele>
        <time>2021-08-09 11:46:26</time>
      </trkpt>
      <trkpt lat="42.86983" lon="-0.45282">
        <ele>1295.6</ele>
        <time>2021-08-09 11:46:27</time>
      </trkpt>
      <trkpt lat="42.86982" lon="-0.45282">
        <ele>1295.8</ele>
        <time>2021-08-09 11:46:28</time>
      </trkpt>
      <trkpt lat="42.86982" lon="-0.45281">
        <ele>1296</ele>
        <time>2021-08-09 11:46:29</time>
      </trkpt>
      <trkpt lat="42.86981" lon="-0.45281">
        <ele>1296.4</ele>
        <time>2021-08-09 11:46:30</time>
      </trkpt>
      <trkpt lat="42.86981" lon="-0.45282">
        <ele>1296.6</ele>
        <time>2021-08-09 11:46:31</time>
      </trkpt>
      <trkpt lat="42.86979" lon="-0.4528">
        <ele>1296.4</ele>
        <time>2021-08-09 11:46:32</time>
      </trkpt>
      <trkpt lat="42.86979" lon="-0.45278">
        <ele>1296.6</ele>
        <time>2021-08-09 11:46:33</time>
      </trkpt>
      <trkpt lat="42.86979" lon="-0.45277">
        <ele>1296.8</ele>
        <time>2021-08-09 11:46:34</time>
      </trkpt>
      <trkpt lat="42.86979" lon="-0.45277">
        <ele>1297</ele>
        <time>2021-08-09 11:46:35</time>
      </trkpt>
      <trkpt lat="42.86979" lon="-0.45276">
        <ele>1297.2</ele>
        <time>2021-08-09 11:46:36</time>
      </trkpt>
      <trkpt lat="42.86978" lon="-0.45275">
        <ele>1297</ele>
        <time>2021-08-09 11:46:37</time>
      </trkpt>
      <trkpt lat="42.86977" lon="-0.45275">
        <ele>1297.2</ele>
        <time>2021-08-09 11:46:38</time>
      </trkpt>
      <trkpt lat="42.86977" lon="-0.45274">
        <ele>1297.2</ele>
        <time>2021-08-09 11:46:39</time>
      </trkpt>
      <trkpt lat="42.86977" lon="-0.45273">
        <ele>1297.4</ele>
        <time>2021-08-09 11:46:40</time>
      </trkpt>
      <trkpt lat="42.86977" lon="-0.45274">
        <ele>1297.4</ele>
        <time>2021-08-09 11:46:41</time>
      </trkpt>
      <trkpt lat="42.86977" lon="-0.45273">
        <ele>1297.8</ele>
        <time>2021-08-09 11:46:42</time>
      </trkpt>
      <trkpt lat="42.86976" lon="-0.45274">
        <ele>1297.8</ele>
        <time>2021-08-09 11:46:43</time>
      </trkpt>
      <trkpt lat="42.86976" lon="-0.45273">
        <ele>1297.8</ele>
        <time>2021-08-09 11:46:44</time>
      </trkpt>
      <trkpt lat="42.86975" lon="-0.45273">
        <ele>1298</ele>
        <time>2021-08-09 11:46:45</time>
      </trkpt>
      <trkpt lat="42.86974" lon="-0.45272">
        <ele>1298.4</ele>
        <time>2021-08-09 11:46:46</time>
      </trkpt>
      <trkpt lat="42.86974" lon="-0.45272">
        <ele>1298.6</ele>
        <time>2021-08-09 11:46:47</time>
      </trkpt>
      <trkpt lat="42.86973" lon="-0.45271">
        <ele>1298.6</ele>
        <time>2021-08-09 11:46:48</time>
      </trkpt>
      <trkpt lat="42.86972" lon="-0.45271">
        <ele>1298.8</ele>
        <time>2021-08-09 11:46:49</time>
      </trkpt>
      <trkpt lat="42.86972" lon="-0.4527">
        <ele>1299.4</ele>
        <time>2021-08-09 11:46:50</time>
      </trkpt>
      <trkpt lat="42.86971" lon="-0.4527">
        <ele>1299.6</ele>
        <time>2021-08-09 11:46:51</time>
      </trkpt>
      <trkpt lat="42.86971" lon="-0.45271">
        <ele>1300</ele>
        <time>2021-08-09 11:46:52</time>
      </trkpt>
      <trkpt lat="42.8697" lon="-0.4527">
        <ele>1299.2</ele>
        <time>2021-08-09 11:46:53</time>
      </trkpt>
      <trkpt lat="42.8697" lon="-0.4527">
        <ele>1299.4</ele>
        <time>2021-08-09 11:46:54</time>
      </trkpt>
      <trkpt lat="42.8697" lon="-0.4527">
        <ele>1299.2</ele>
        <time>2021-08-09 11:46:55</time>
      </trkpt>
      <trkpt lat="42.86969" lon="-0.4527">
        <ele>1299.6</ele>
        <time>2021-08-09 11:46:56</time>
      </trkpt>
      <trkpt lat="42.86969" lon="-0.4527">
        <ele>1299.8</ele>
        <time>2021-08-09 11:46:57</time>
      </trkpt>
      <trkpt lat="42.86968" lon="-0.4527">
        <ele>1299.8</ele>
        <time>2021-08-09 11:46:58</time>
      </trkpt>
      <trkpt lat="42.86968" lon="-0.4527">
        <ele>1300.2</ele>
        <time>2021-08-09 11:46:59</time>
      </trkpt>
      <trkpt lat="42.86968" lon="-0.4527">
        <ele>1300.2</ele>
        <time>2021-08-09 11:47:00</time>
      </trkpt>
      <trkpt lat="42.86968" lon="-0.4527">
        <ele>1300.4</ele>
        <time>2021-08-09 11:47:01</time>
      </trkpt>
      <trkpt lat="42.86968" lon="-0.4527">
        <ele>1300.6</ele>
        <time>2021-08-09 11:47:02</time>
      </trkpt>
      <trkpt lat="42.86968" lon="-0.45271">
        <ele>1300.6</ele>
        <time>2021-08-09 11:47:03</time>
      </trkpt>
      <trkpt lat="42.86968" lon="-0.45272">
        <ele>1300.8</ele>
        <time>2021-08-09 11:47:04</time>
      </trkpt>
      <trkpt lat="42.86968" lon="-0.45273">
        <ele>1300.6</ele>
        <time>2021-08-09 11:47:05</time>
      </trkpt>
      <trkpt lat="42.86967" lon="-0.45273">
        <ele>1301.2</ele>
        <time>2021-08-09 11:47:06</time>
      </trkpt>
      <trkpt lat="42.86967" lon="-0.45273">
        <ele>1301.2</ele>
        <time>2021-08-09 11:47:07</time>
      </trkpt>
      <trkpt lat="42.86967" lon="-0.45274">
        <ele>1301.2</ele>
        <time>2021-08-09 11:47:08</time>
      </trkpt>
      <trkpt lat="42.86968" lon="-0.45274">
        <ele>1301.4</ele>
        <time>2021-08-09 11:47:09</time>
      </trkpt>
      <trkpt lat="42.86967" lon="-0.45274">
        <ele>1301.4</ele>
        <time>2021-08-09 11:47:10</time>
      </trkpt>
      <trkpt lat="42.86967" lon="-0.45274">
        <ele>1301.4</ele>
        <time>2021-08-09 11:47:11</time>
      </trkpt>
      <trkpt lat="42.86966" lon="-0.45274">
        <ele>1301.8</ele>
        <time>2021-08-09 11:47:12</time>
      </trkpt>
      <trkpt lat="42.86966" lon="-0.45274">
        <ele>1302</ele>
        <time>2021-08-09 11:47:13</time>
      </trkpt>
      <trkpt lat="42.86965" lon="-0.45275">
        <ele>1302.4</ele>
        <time>2021-08-09 11:47:14</time>
      </trkpt>
      <trkpt lat="42.86966" lon="-0.45276">
        <ele>1302.4</ele>
        <time>2021-08-09 11:47:15</time>
      </trkpt>
      <trkpt lat="42.86966" lon="-0.45277">
        <ele>1302.2</ele>
        <time>2021-08-09 11:47:16</time>
      </trkpt>
      <trkpt lat="42.86967" lon="-0.45277">
        <ele>1302.6</ele>
        <time>2021-08-09 11:47:17</time>
      </trkpt>
      <trkpt lat="42.86967" lon="-0.45278">
        <ele>1302.6</ele>
        <time>2021-08-09 11:47:18</time>
      </trkpt>
      <trkpt lat="42.86967" lon="-0.45278">
        <ele>1302.8</ele>
        <time>2021-08-09 11:47:19</time>
      </trkpt>
      <trkpt lat="42.86967" lon="-0.45277">
        <ele>1303</ele>
        <time>2021-08-09 11:47:20</time>
      </trkpt>
      <trkpt lat="42.86966" lon="-0.45278">
        <ele>1302.8</ele>
        <time>2021-08-09 11:47:21</time>
      </trkpt>
      <trkpt lat="42.86967" lon="-0.45278">
        <ele>1303.2</ele>
        <time>2021-08-09 11:47:22</time>
      </trkpt>
      <trkpt lat="42.86967" lon="-0.45279">
        <ele>1303.4</ele>
        <time>2021-08-09 11:47:23</time>
      </trkpt>
      <trkpt lat="42.86966" lon="-0.45279">
        <ele>1303.8</ele>
        <time>2021-08-09 11:47:24</time>
      </trkpt>
      <trkpt lat="42.86966" lon="-0.45279">
        <ele>1303.8</ele>
        <time>2021-08-09 11:47:25</time>
      </trkpt>
      <trkpt lat="42.86965" lon="-0.4528">
        <ele>1304</ele>
        <time>2021-08-09 11:47:26</time>
      </trkpt>
      <trkpt lat="42.86965" lon="-0.4528">
        <ele>1304</ele>
        <time>2021-08-09 11:47:27</time>
      </trkpt>
      <trkpt lat="42.86965" lon="-0.4528">
        <ele>1304</ele>
        <time>2021-08-09 11:47:28</time>
      </trkpt>
      <trkpt lat="42.86964" lon="-0.45279">
        <ele>1304</ele>
        <time>2021-08-09 11:47:29</time>
      </trkpt>
      <trkpt lat="42.86964" lon="-0.4528">
        <ele>1304.2</ele>
        <time>2021-08-09 11:47:30</time>
      </trkpt>
      <trkpt lat="42.86964" lon="-0.4528">
        <ele>1304.4</ele>
        <time>2021-08-09 11:47:31</time>
      </trkpt>
      <trkpt lat="42.86965" lon="-0.45278">
        <ele>1304.6</ele>
        <time>2021-08-09 11:47:32</time>
      </trkpt>
      <trkpt lat="42.86964" lon="-0.45277">
        <ele>1304.8</ele>
        <time>2021-08-09 11:47:33</time>
      </trkpt>
      <trkpt lat="42.86964" lon="-0.45277">
        <ele>1304.8</ele>
        <time>2021-08-09 11:47:34</time>
      </trkpt>
      <trkpt lat="42.86965" lon="-0.45276">
        <ele>1305</ele>
        <time>2021-08-09 11:47:35</time>
      </trkpt>
      <trkpt lat="42.86963" lon="-0.45275">
        <ele>1305</ele>
        <time>2021-08-09 11:47:36</time>
      </trkpt>
      <trkpt lat="42.86962" lon="-0.45275">
        <ele>1304.8</ele>
        <time>2021-08-09 11:47:37</time>
      </trkpt>
      <trkpt lat="42.86961" lon="-0.45274">
        <ele>1305.2</ele>
        <time>2021-08-09 11:47:38</time>
      </trkpt>
      <trkpt lat="42.86961" lon="-0.45274">
        <ele>1305.2</ele>
        <time>2021-08-09 11:47:39</time>
      </trkpt>
      <trkpt lat="42.8696" lon="-0.45273">
        <ele>1305.4</ele>
        <time>2021-08-09 11:47:40</time>
      </trkpt>
      <trkpt lat="42.8696" lon="-0.45274">
        <ele>1305.4</ele>
        <time>2021-08-09 11:47:41</time>
      </trkpt>
      <trkpt lat="42.86959" lon="-0.45274">
        <ele>1306</ele>
        <time>2021-08-09 11:47:42</time>
      </trkpt>
      <trkpt lat="42.86959" lon="-0.45274">
        <ele>1306.2</ele>
        <time>2021-08-09 11:47:43</time>
      </trkpt>
      <trkpt lat="42.86958" lon="-0.45274">
        <ele>1306.4</ele>
        <time>2021-08-09 11:47:44</time>
      </trkpt>
      <trkpt lat="42.86958" lon="-0.45274">
        <ele>1306.6</ele>
        <time>2021-08-09 11:47:45</time>
      </trkpt>
      <trkpt lat="42.86957" lon="-0.45274">
        <ele>1307</ele>
        <time>2021-08-09 11:47:46</time>
      </trkpt>
      <trkpt lat="42.86956" lon="-0.45274">
        <ele>1307</ele>
        <time>2021-08-09 11:47:47</time>
      </trkpt>
      <trkpt lat="42.86956" lon="-0.45274">
        <ele>1307.2</ele>
        <time>2021-08-09 11:47:48</time>
      </trkpt>
      <trkpt lat="42.86955" lon="-0.45273">
        <ele>1307.6</ele>
        <time>2021-08-09 11:47:49</time>
      </trkpt>
      <trkpt lat="42.86955" lon="-0.45273">
        <ele>1307.4</ele>
        <time>2021-08-09 11:47:50</time>
      </trkpt>
      <trkpt lat="42.86955" lon="-0.45273">
        <ele>1307.6</ele>
        <time>2021-08-09 11:47:51</time>
      </trkpt>
      <trkpt lat="42.86954" lon="-0.45272">
        <ele>1308.2</ele>
        <time>2021-08-09 11:47:52</time>
      </trkpt>
      <trkpt lat="42.86953" lon="-0.45271">
        <ele>1308.2</ele>
        <time>2021-08-09 11:47:53</time>
      </trkpt>
      <trkpt lat="42.86952" lon="-0.4527">
        <ele>1308.6</ele>
        <time>2021-08-09 11:47:54</time>
      </trkpt>
      <trkpt lat="42.86952" lon="-0.45271">
        <ele>1308.6</ele>
        <time>2021-08-09 11:47:55</time>
      </trkpt>
      <trkpt lat="42.86952" lon="-0.4527">
        <ele>1308.8</ele>
        <time>2021-08-09 11:47:56</time>
      </trkpt>
      <trkpt lat="42.86951" lon="-0.45269">
        <ele>1308.8</ele>
        <time>2021-08-09 11:47:57</time>
      </trkpt>
      <trkpt lat="42.8695" lon="-0.45268">
        <ele>1309</ele>
        <time>2021-08-09 11:47:58</time>
      </trkpt>
      <trkpt lat="42.8695" lon="-0.45267">
        <ele>1309</ele>
        <time>2021-08-09 11:47:59</time>
      </trkpt>
      <trkpt lat="42.8695" lon="-0.45267">
        <ele>1309.2</ele>
        <time>2021-08-09 11:48:00</time>
      </trkpt>
      <trkpt lat="42.86949" lon="-0.45266">
        <ele>1309.2</ele>
        <time>2021-08-09 11:48:01</time>
      </trkpt>
      <trkpt lat="42.86949" lon="-0.45266">
        <ele>1309.8</ele>
        <time>2021-08-09 11:48:02</time>
      </trkpt>
      <trkpt lat="42.86948" lon="-0.45265">
        <ele>1310</ele>
        <time>2021-08-09 11:48:03</time>
      </trkpt>
      <trkpt lat="42.86947" lon="-0.45263">
        <ele>1310.4</ele>
        <time>2021-08-09 11:48:04</time>
      </trkpt>
      <trkpt lat="42.86947" lon="-0.45262">
        <ele>1310.8</ele>
        <time>2021-08-09 11:48:05</time>
      </trkpt>
      <trkpt lat="42.86947" lon="-0.45261">
        <ele>1310.8</ele>
        <time>2021-08-09 11:48:06</time>
      </trkpt>
      <trkpt lat="42.86947" lon="-0.45262">
        <ele>1310.8</ele>
        <time>2021-08-09 11:48:07</time>
      </trkpt>
      <trkpt lat="42.86946" lon="-0.45261">
        <ele>1310.8</ele>
        <time>2021-08-09 11:48:08</time>
      </trkpt>
      <trkpt lat="42.86946" lon="-0.45259">
        <ele>1310.8</ele>
        <time>2021-08-09 11:48:09</time>
      </trkpt>
      <trkpt lat="42.86945" lon="-0.45259">
        <ele>1310.8</ele>
        <time>2021-08-09 11:48:10</time>
      </trkpt>
      <trkpt lat="42.86945" lon="-0.45257">
        <ele>1310.8</ele>
        <time>2021-08-09 11:48:11</time>
      </trkpt>
      <trkpt lat="42.86944" lon="-0.45256">
        <ele>1311</ele>
        <time>2021-08-09 11:48:12</time>
      </trkpt>
      <trkpt lat="42.86943" lon="-0.45255">
        <ele>1311</ele>
        <time>2021-08-09 11:48:13</time>
      </trkpt>
      <trkpt lat="42.86943" lon="-0.45255">
        <ele>1311.2</ele>
        <time>2021-08-09 11:48:14</time>
      </trkpt>
      <trkpt lat="42.86942" lon="-0.45254">
        <ele>1311.6</ele>
        <time>2021-08-09 11:48:15</time>
      </trkpt>
      <trkpt lat="42.86942" lon="-0.45254">
        <ele>1311.6</ele>
        <time>2021-08-09 11:48:16</time>
      </trkpt>
      <trkpt lat="42.86941" lon="-0.45255">
        <ele>1311.8</ele>
        <time>2021-08-09 11:48:17</time>
      </trkpt>
      <trkpt lat="42.86941" lon="-0.45255">
        <ele>1311.8</ele>
        <time>2021-08-09 11:48:18</time>
      </trkpt>
      <trkpt lat="42.8694" lon="-0.45255">
        <ele>1312.2</ele>
        <time>2021-08-09 11:48:19</time>
      </trkpt>
      <trkpt lat="42.8694" lon="-0.45255">
        <ele>1312</ele>
        <time>2021-08-09 11:48:20</time>
      </trkpt>
      <trkpt lat="42.8694" lon="-0.45255">
        <ele>1312</ele>
        <time>2021-08-09 11:48:21</time>
      </trkpt>
      <trkpt lat="42.86939" lon="-0.45255">
        <ele>1311.8</ele>
        <time>2021-08-09 11:48:22</time>
      </trkpt>
      <trkpt lat="42.86939" lon="-0.45255">
        <ele>1312</ele>
        <time>2021-08-09 11:48:23</time>
      </trkpt>
      <trkpt lat="42.86938" lon="-0.45255">
        <ele>1312.2</ele>
        <time>2021-08-09 11:48:24</time>
      </trkpt>
      <trkpt lat="42.86938" lon="-0.45255">
        <ele>1312.6</ele>
        <time>2021-08-09 11:48:25</time>
      </trkpt>
      <trkpt lat="42.86938" lon="-0.45255">
        <ele>1312.8</ele>
        <time>2021-08-09 11:48:26</time>
      </trkpt>
      <trkpt lat="42.86937" lon="-0.45255">
        <ele>1312.6</ele>
        <time>2021-08-09 11:48:27</time>
      </trkpt>
      <trkpt lat="42.86937" lon="-0.45254">
        <ele>1312.6</ele>
        <time>2021-08-09 11:48:28</time>
      </trkpt>
      <trkpt lat="42.86936" lon="-0.45254">
        <ele>1312.6</ele>
        <time>2021-08-09 11:48:29</time>
      </trkpt>
      <trkpt lat="42.86935" lon="-0.45254">
        <ele>1312.8</ele>
        <time>2021-08-09 11:48:30</time>
      </trkpt>
      <trkpt lat="42.86935" lon="-0.45254">
        <ele>1313</ele>
        <time>2021-08-09 11:48:31</time>
      </trkpt>
      <trkpt lat="42.86934" lon="-0.45253">
        <ele>1313</ele>
        <time>2021-08-09 11:48:32</time>
      </trkpt>
      <trkpt lat="42.86933" lon="-0.45252">
        <ele>1313.4</ele>
        <time>2021-08-09 11:48:33</time>
      </trkpt>
      <trkpt lat="42.86932" lon="-0.45252">
        <ele>1313.6</ele>
        <time>2021-08-09 11:48:34</time>
      </trkpt>
      <trkpt lat="42.86932" lon="-0.45251">
        <ele>1313.6</ele>
        <time>2021-08-09 11:48:35</time>
      </trkpt>
      <trkpt lat="42.86931" lon="-0.45251">
        <ele>1313.2</ele>
        <time>2021-08-09 11:48:36</time>
      </trkpt>
      <trkpt lat="42.86931" lon="-0.4525">
        <ele>1313.4</ele>
        <time>2021-08-09 11:48:37</time>
      </trkpt>
      <trkpt lat="42.8693" lon="-0.45249">
        <ele>1313.4</ele>
        <time>2021-08-09 11:48:38</time>
      </trkpt>
      <trkpt lat="42.86929" lon="-0.45249">
        <ele>1313.4</ele>
        <time>2021-08-09 11:48:39</time>
      </trkpt>
      <trkpt lat="42.86929" lon="-0.45248">
        <ele>1313.6</ele>
        <time>2021-08-09 11:48:40</time>
      </trkpt>
      <trkpt lat="42.86928" lon="-0.45248">
        <ele>1313.8</ele>
        <time>2021-08-09 11:48:41</time>
      </trkpt>
      <trkpt lat="42.86928" lon="-0.45248">
        <ele>1314</ele>
        <time>2021-08-09 11:48:42</time>
      </trkpt>
      <trkpt lat="42.86927" lon="-0.45247">
        <ele>1314.2</ele>
        <time>2021-08-09 11:48:43</time>
      </trkpt>
      <trkpt lat="42.86926" lon="-0.45246">
        <ele>1314.6</ele>
        <time>2021-08-09 11:48:44</time>
      </trkpt>
      <trkpt lat="42.86926" lon="-0.45245">
        <ele>1314.8</ele>
        <time>2021-08-09 11:48:45</time>
      </trkpt>
      <trkpt lat="42.86925" lon="-0.45245">
        <ele>1315.2</ele>
        <time>2021-08-09 11:48:46</time>
      </trkpt>
      <trkpt lat="42.86924" lon="-0.45245">
        <ele>1315.6</ele>
        <time>2021-08-09 11:48:47</time>
      </trkpt>
      <trkpt lat="42.86924" lon="-0.45244">
        <ele>1315.8</ele>
        <time>2021-08-09 11:48:48</time>
      </trkpt>
      <trkpt lat="42.86923" lon="-0.45244">
        <ele>1316.4</ele>
        <time>2021-08-09 11:48:49</time>
      </trkpt>
      <trkpt lat="42.86922" lon="-0.45244">
        <ele>1316.6</ele>
        <time>2021-08-09 11:48:50</time>
      </trkpt>
      <trkpt lat="42.86921" lon="-0.45244">
        <ele>1317</ele>
        <time>2021-08-09 11:48:51</time>
      </trkpt>
      <trkpt lat="42.8692" lon="-0.45247">
        <ele>1317.2</ele>
        <time>2021-08-09 11:48:52</time>
      </trkpt>
      <trkpt lat="42.8692" lon="-0.45248">
        <ele>1317.2</ele>
        <time>2021-08-09 11:48:53</time>
      </trkpt>
      <trkpt lat="42.86919" lon="-0.45249">
        <ele>1317.2</ele>
        <time>2021-08-09 11:48:54</time>
      </trkpt>
      <trkpt lat="42.86919" lon="-0.45249">
        <ele>1317.2</ele>
        <time>2021-08-09 11:48:55</time>
      </trkpt>
      <trkpt lat="42.86919" lon="-0.4525">
        <ele>1317.2</ele>
        <time>2021-08-09 11:48:56</time>
      </trkpt>
      <trkpt lat="42.8692" lon="-0.45252">
        <ele>1317.4</ele>
        <time>2021-08-09 11:48:57</time>
      </trkpt>
      <trkpt lat="42.8692" lon="-0.45252">
        <ele>1317.4</ele>
        <time>2021-08-09 11:48:58</time>
      </trkpt>
      <trkpt lat="42.86921" lon="-0.45253">
        <ele>1317.4</ele>
        <time>2021-08-09 11:48:59</time>
      </trkpt>
      <trkpt lat="42.8692" lon="-0.45253">
        <ele>1317.6</ele>
      </trkpt>
      <trkpt lat="42.8692" lon="-0.45256">
        <ele>1317.8</ele>
        <time>2021-08-09 11:49:01</time>
      </trkpt>
      <trkpt lat="42.8692" lon="-0.45257">
        <ele>1317.8</ele>
        <time>2021-08-09 11:49:02</time>
      </trkpt>
      <trkpt lat="42.8692" lon="-0.45258">
        <ele>1317.6</ele>
      </trkpt>
      <trkpt lat="42.8692" lon="-0.45258">
        <ele>1317.8</ele>
        <time>2021-08-09 11:49:03</time>
      </trkpt>
      <trkpt lat="42.8692" lon="-0.45259">
        <ele>1317.6</ele>
        <time>2021-08-09 11:49:04</time>
      </trkpt>
      <trkpt lat="42.8692" lon="-0.45259">
        <ele>1317.8</ele>
        <time>2021-08-09 11:49:05</time>
      </trkpt>
      <trkpt lat="42.8692" lon="-0.45258">
        <ele>1317.6</ele>
        <time>2021-08-09 11:49:06</time>
      </trkpt>
      <trkpt lat="42.8692" lon="-0.45257">
        <ele>1317.8</ele>
        <time>2021-08-09 11:49:07</time>
      </trkpt>
      <trkpt lat="42.8692" lon="-0.45258">
        <ele>1317.6</ele>
        <time>2021-08-09 11:49:08</time>
      </trkpt>
      <trkpt lat="42.86919" lon="-0.45258">
        <ele>1317.4</ele>
        <time>2021-08-09 11:49:09</time>
      </trkpt>
      <trkpt lat="42.86919" lon="-0.45258">
        <ele>1317.4</ele>
        <time>2021-08-09 11:49:10</time>
      </trkpt>
      <trkpt lat="42.86919" lon="-0.45258">
        <ele>1317.4</ele>
        <time>2021-08-09 11:49:11</time>
      </trkpt>
      <trkpt lat="42.8692" lon="-0.45257">
        <ele>1317.4</ele>
        <time>2021-08-09 11:49:13</time>
      </trkpt>
      <trkpt lat="42.8692" lon="-0.45257">
        <ele>1317.4</ele>
      </trkpt>
      <trkpt lat="42.8692" lon="-0.45256">
        <ele>1317.4</ele>
        <time>2021-08-09 11:49:14</time>
      </trkpt>
      <trkpt lat="42.8692" lon="-0.45255">
        <ele>1317.4</ele>
        <time>2021-08-09 11:49:15</time>
      </trkpt>
      <trkpt lat="42.8692" lon="-0.45254">
        <ele>1317.2</ele>
        <time>2021-08-09 11:49:16</time>
      </trkpt>
      <trkpt lat="42.8692" lon="-0.45253">
        <ele>1317.2</ele>
        <time>2021-08-09 11:49:17</time>
      </trkpt>
      <trkpt lat="42.8692" lon="-0.4525">
        <ele>1317</ele>
        <time>2021-08-09 11:49:20</time>
      </trkpt>
      <trkpt lat="42.86921" lon="-0.45249">
        <ele>1316.8</ele>
        <time>2021-08-09 11:49:21</time>
      </trkpt>
      <trkpt lat="42.86921" lon="-0.45248">
        <ele>1316.8</ele>
        <time>2021-08-09 11:49:22</time>
      </trkpt>
      <trkpt lat="42.86921" lon="-0.45246">
        <ele>1316.8</ele>
        <time>2021-08-09 11:49:23</time>
      </trkpt>
      <trkpt lat="42.86921" lon="-0.45245">
        <ele>1316.8</ele>
        <time>2021-08-09 11:49:24</time>
      </trkpt>
      <trkpt lat="42.86921" lon="-0.45243">
        <ele>1316.8</ele>
        <time>2021-08-09 11:49:25</time>
      </trkpt>
      <trkpt lat="42.86921" lon="-0.45242">
        <ele>1316.6</ele>
        <time>2021-08-09 11:49:26</time>
      </trkpt>
      <trkpt lat="42.86921" lon="-0.4524">
        <ele>1316.6</ele>
        <time>2021-08-09 11:49:27</time>
      </trkpt>
      <trkpt lat="42.86921" lon="-0.45239">
        <ele>1316.8</ele>
        <time>2021-08-09 11:49:28</time>
      </trkpt>
      <trkpt lat="42.86921" lon="-0.45237">
        <ele>1316.6</ele>
        <time>2021-08-09 11:49:29</time>
      </trkpt>
      <trkpt lat="42.86921" lon="-0.45236">
        <ele>1316.6</ele>
        <time>2021-08-09 11:49:30</time>
      </trkpt>
      <trkpt lat="42.86921" lon="-0.45235">
        <ele>1316.6</ele>
        <time>2021-08-09 11:49:31</time>
      </trkpt>
      <trkpt lat="42.86921" lon="-0.45233">
        <ele>1316.4</ele>
        <time>2021-08-09 11:49:32</time>
      </trkpt>
      <trkpt lat="42.86921" lon="-0.45232">
        <ele>1316.6</ele>
        <time>2021-08-09 11:49:34</time>
      </trkpt>
      <trkpt lat="42.86921" lon="-0.45231">
        <ele>1316.6</ele>
      </trkpt>
      <trkpt lat="42.86921" lon="-0.45229">
        <ele>1316.4</ele>
        <time>2021-08-09 11:49:35</time>
      </trkpt>
      <trkpt lat="42.86921" lon="-0.45228">
        <ele>1316.4</ele>
        <time>2021-08-09 11:49:36</time>
      </trkpt>
      <trkpt lat="42.86921" lon="-0.45226">
        <ele>1316.2</ele>
        <time>2021-08-09 11:49:37</time>
      </trkpt>
      <trkpt lat="42.86921" lon="-0.45225">
        <ele>1316.2</ele>
        <time>2021-08-09 11:49:38</time>
      </trkpt>
      <trkpt lat="42.86921" lon="-0.45223">
        <ele>1316.2</ele>
        <time>2021-08-09 11:49:39</time>
      </trkpt>
      <trkpt lat="42.86921" lon="-0.45222">
        <ele>1316</ele>
        <time>2021-08-09 11:49:40</time>
      </trkpt>
      <trkpt lat="42.8692" lon="-0.45221">
        <ele>1316.2</ele>
        <time>2021-08-09 11:49:41</time>
      </trkpt>
      <trkpt lat="42.8692" lon="-0.45219">
        <ele>1316.2</ele>
        <time>2021-08-09 11:49:42</time>
      </trkpt>
      <trkpt lat="42.86921" lon="-0.45218">
        <ele>1316</ele>
        <time>2021-08-09 11:49:43</time>
      </trkpt>
      <trkpt lat="42.8692" lon="-0.45217">
        <ele>1315.8</ele>
        <time>2021-08-09 11:49:44</time>
      </trkpt>
      <trkpt lat="42.86921" lon="-0.45216">
        <ele>1315.8</ele>
        <time>2021-08-09 11:49:45</time>
      </trkpt>
      <trkpt lat="42.86921" lon="-0.45215">
        <ele>1315.8</ele>
        <time>2021-08-09 11:49:46</time>
      </trkpt>
      <trkpt lat="42.86921" lon="-0.45213">
        <ele>1316</ele>
        <time>2021-08-09 11:49:47</time>
      </trkpt>
      <trkpt lat="42.86921" lon="-0.45212">
        <ele>1316.2</ele>
        <time>2021-08-09 11:49:48</time>
      </trkpt>
      <trkpt lat="42.86921" lon="-0.45212">
        <ele>1316.2</ele>
        <time>2021-08-09 11:49:49</time>
      </trkpt>
      <trkpt lat="42.86921" lon="-0.45212">
        <ele>1316</ele>
        <time>2021-08-09 11:49:50</time>
      </trkpt>
      <trkpt lat="42.86921" lon="-0.45211">
        <ele>1315.8</ele>
        <time>2021-08-09 11:49:51</time>
      </trkpt>
      <trkpt lat="42.86921" lon="-0.45209">
        <ele>1315.8</ele>
        <time>2021-08-09 11:49:52</time>
      </trkpt>
      <trkpt lat="42.86921" lon="-0.45208">
        <ele>1315.8</ele>
        <time>2021-08-09 11:49:53</time>
      </trkpt>
      <trkpt lat="42.86921" lon="-0.45206">
        <ele>1315.6</ele>
        <time>2021-08-09 11:49:54</time>
      </trkpt>
      <trkpt lat="42.86921" lon="-0.45205">
        <ele>1315.6</ele>
        <time>2021-08-09 11:49:55</time>
      </trkpt>
      <trkpt lat="42.86921" lon="-0.45203">
        <ele>1315.4</ele>
        <time>2021-08-09 11:49:56</time>
      </trkpt>
      <trkpt lat="42.86921" lon="-0.45201">
        <ele>1315.4</ele>
        <time>2021-08-09 11:49:57</time>
      </trkpt>
      <trkpt lat="42.86921" lon="-0.45199">
        <ele>1315.2</ele>
        <time>2021-08-09 11:49:58</time>
      </trkpt>
      <trkpt lat="42.86921" lon="-0.45197">
        <ele>1315.2</ele>
        <time>2021-08-09 11:49:59</time>
      </trkpt>
      <trkpt lat="42.86921" lon="-0.45196">
        <ele>1315.2</ele>
        <time>2021-08-09 11:50:00</time>
      </trkpt>
      <trkpt lat="42.86921" lon="-0.45194">
        <ele>1315.2</ele>
        <time>2021-08-09 11:50:01</time>
      </trkpt>
      <trkpt lat="42.86921" lon="-0.45193">
        <ele>1315.2</ele>
        <time>2021-08-09 11:50:02</time>
      </trkpt>
      <trkpt lat="42.86921" lon="-0.45191">
        <ele>1315.2</ele>
        <time>2021-08-09 11:50:03</time>
      </trkpt>
      <trkpt lat="42.86921" lon="-0.4519">
        <ele>1315.2</ele>
        <time>2021-08-09 11:50:04</time>
      </trkpt>
      <trkpt lat="42.86921" lon="-0.45188">
        <ele>1315.2</ele>
        <time>2021-08-09 11:50:05</time>
      </trkpt>
      <trkpt lat="42.8692" lon="-0.45187">
        <ele>1315.2</ele>
        <time>2021-08-09 11:50:06</time>
      </trkpt>
      <trkpt lat="42.8692" lon="-0.45185">
        <ele>1315.4</ele>
        <time>2021-08-09 11:50:07</time>
      </trkpt>
      <trkpt lat="42.8692" lon="-0.45184">
        <ele>1315.6</ele>
        <time>2021-08-09 11:50:08</time>
      </trkpt>
      <trkpt lat="42.8692" lon="-0.45183">
        <ele>1315.8</ele>
        <time>2021-08-09 11:50:09</time>
      </trkpt>
      <trkpt lat="42.8692" lon="-0.45181">
        <ele>1315.8</ele>
        <time>2021-08-09 11:50:10</time>
      </trkpt>
      <trkpt lat="42.8692" lon="-0.4518">
        <ele>1315.8</ele>
        <time>2021-08-09 11:50:11</time>
      </trkpt>
      <trkpt lat="42.8692" lon="-0.45179">
        <ele>1315.8</ele>
        <time>2021-08-09 11:50:12</time>
      </trkpt>
      <trkpt lat="42.8692" lon="-0.45177">
        <ele>1315.8</ele>
        <time>2021-08-09 11:50:13</time>
      </trkpt>
      <trkpt lat="42.8692" lon="-0.45176">
        <ele>1316</ele>
        <time>2021-08-09 11:50:14</time>
      </trkpt>
      <trkpt lat="42.8692" lon="-0.45175">
        <ele>1315.8</ele>
        <time>2021-08-09 11:50:15</time>
      </trkpt>
      <trkpt lat="42.8692" lon="-0.45174">
        <ele>1315.8</ele>
        <time>2021-08-09 11:50:16</time>
      </trkpt>
      <trkpt lat="42.8692" lon="-0.45172">
        <ele>1315.8</ele>
        <time>2021-08-09 11:50:17</time>
      </trkpt>
      <trkpt lat="42.8692" lon="-0.45171">
        <ele>1315.6</ele>
        <time>2021-08-09 11:50:18</time>
      </trkpt>
      <trkpt lat="42.8692" lon="-0.4517">
        <ele>1315.8</ele>
        <time>2021-08-09 11:50:19</time>
      </trkpt>
      <trkpt lat="42.8692" lon="-0.45168">
        <ele>1315.8</ele>
        <time>2021-08-09 11:50:20</time>
      </trkpt>
      <trkpt lat="42.8692" lon="-0.45167">
        <ele>1315.6</ele>
        <time>2021-08-09 11:50:21</time>
      </trkpt>
      <trkpt lat="42.8692" lon="-0.45165">
        <ele>1315.4</ele>
        <time>2021-08-09 11:50:22</time>
      </trkpt>
      <trkpt lat="42.8692" lon="-0.45164">
        <ele>1315.6</ele>
        <time>2021-08-09 11:50:23</time>
      </trkpt>
      <trkpt lat="42.86919" lon="-0.45163">
        <ele>1315.8</ele>
        <time>2021-08-09 11:50:24</time>
      </trkpt>
      <trkpt lat="42.86919" lon="-0.45161">
        <ele>1315.6</ele>
        <time>2021-08-09 11:50:25</time>
      </trkpt>
      <trkpt lat="42.86919" lon="-0.4516">
        <ele>1315.6</ele>
        <time>2021-08-09 11:50:26</time>
      </trkpt>
      <trkpt lat="42.86919" lon="-0.45158">
        <ele>1315.6</ele>
        <time>2021-08-09 11:50:27</time>
      </trkpt>
      <trkpt lat="42.86919" lon="-0.45157">
        <ele>1315.6</ele>
        <time>2021-08-09 11:50:28</time>
      </trkpt>
      <trkpt lat="42.86919" lon="-0.45156">
        <ele>1315.6</ele>
        <time>2021-08-09 11:50:29</time>
      </trkpt>
      <trkpt lat="42.86919" lon="-0.45155">
        <ele>1315.6</ele>
        <time>2021-08-09 11:50:30</time>
      </trkpt>
      <trkpt lat="42.86918" lon="-0.45154">
        <ele>1315.4</ele>
        <time>2021-08-09 11:50:31</time>
      </trkpt>
      <trkpt lat="42.86919" lon="-0.45153">
        <ele>1315.2</ele>
        <time>2021-08-09 11:50:32</time>
      </trkpt>
      <trkpt lat="42.86918" lon="-0.45152">
        <ele>1315.2</ele>
        <time>2021-08-09 11:50:33</time>
      </trkpt>
      <trkpt lat="42.86918" lon="-0.4515">
        <ele>1315</ele>
        <time>2021-08-09 11:50:34</time>
      </trkpt>
      <trkpt lat="42.86918" lon="-0.45148">
        <ele>1314.8</ele>
        <time>2021-08-09 11:50:35</time>
      </trkpt>
      <trkpt lat="42.86919" lon="-0.45146">
        <ele>1314.6</ele>
        <time>2021-08-09 11:50:36</time>
      </trkpt>
      <trkpt lat="42.86919" lon="-0.45144">
        <ele>1314.4</ele>
        <time>2021-08-09 11:50:37</time>
      </trkpt>
      <trkpt lat="42.86919" lon="-0.45142">
        <ele>1314.4</ele>
        <time>2021-08-09 11:50:38</time>
      </trkpt>
      <trkpt lat="42.86919" lon="-0.4514">
        <ele>1314.2</ele>
        <time>2021-08-09 11:50:39</time>
      </trkpt>
      <trkpt lat="42.86918" lon="-0.45138">
        <ele>1314.2</ele>
        <time>2021-08-09 11:50:40</time>
      </trkpt>
      <trkpt lat="42.86918" lon="-0.45137">
        <ele>1314</ele>
        <time>2021-08-09 11:50:41</time>
      </trkpt>
      <trkpt lat="42.86919" lon="-0.45136">
        <ele>1313.8</ele>
        <time>2021-08-09 11:50:42</time>
      </trkpt>
      <trkpt lat="42.86918" lon="-0.45134">
        <ele>1313.8</ele>
        <time>2021-08-09 11:50:43</time>
      </trkpt>
      <trkpt lat="42.86918" lon="-0.45132">
        <ele>1313.4</ele>
        <time>2021-08-09 11:50:44</time>
      </trkpt>
      <trkpt lat="42.86918" lon="-0.4513">
        <ele>1313.4</ele>
        <time>2021-08-09 11:50:45</time>
      </trkpt>
      <trkpt lat="42.86917" lon="-0.45128">
        <ele>1313.2</ele>
        <time>2021-08-09 11:50:46</time>
      </trkpt>
      <trkpt lat="42.86917" lon="-0.45127">
        <ele>1313.2</ele>
        <time>2021-08-09 11:50:47</time>
      </trkpt>
      <trkpt lat="42.86918" lon="-0.45126">
        <ele>1313.2</ele>
        <time>2021-08-09 11:50:48</time>
      </trkpt>
      <trkpt lat="42.86918" lon="-0.45124">
        <ele>1313</ele>
        <time>2021-08-09 11:50:49</time>
      </trkpt>
      <trkpt lat="42.86917" lon="-0.45122">
        <ele>1313</ele>
        <time>2021-08-09 11:50:50</time>
      </trkpt>
      <trkpt lat="42.86917" lon="-0.4512">
        <ele>1312.8</ele>
        <time>2021-08-09 11:50:51</time>
      </trkpt>
      <trkpt lat="42.86917" lon="-0.45118">
        <ele>1312.8</ele>
        <time>2021-08-09 11:50:52</time>
      </trkpt>
      <trkpt lat="42.86917" lon="-0.45117">
        <ele>1312.4</ele>
        <time>2021-08-09 11:50:53</time>
      </trkpt>
      <trkpt lat="42.86917" lon="-0.45115">
        <ele>1312.6</ele>
        <time>2021-08-09 11:50:54</time>
      </trkpt>
      <trkpt lat="42.86917" lon="-0.45113">
        <ele>1312.4</ele>
        <time>2021-08-09 11:50:55</time>
      </trkpt>
      <trkpt lat="42.86916" lon="-0.45111">
        <ele>1312.4</ele>
        <time>2021-08-09 11:50:56</time>
      </trkpt>
      <trkpt lat="42.86916" lon="-0.4511">
        <ele>1312.4</ele>
        <time>2021-08-09 11:50:57</time>
      </trkpt>
      <trkpt lat="42.86916" lon="-0.45108">
        <ele>1312.2</ele>
        <time>2021-08-09 11:50:58</time>
      </trkpt>
      <trkpt lat="42.86916" lon="-0.45106">
        <ele>1312.2</ele>
        <time>2021-08-09 11:50:59</time>
      </trkpt>
      <trkpt lat="42.86916" lon="-0.45105">
        <ele>1312.4</ele>
        <time>2021-08-09 11:51:00</time>
      </trkpt>
      <trkpt lat="42.86916" lon="-0.45103">
        <ele>1312.2</ele>
        <time>2021-08-09 11:51:01</time>
      </trkpt>
      <trkpt lat="42.86916" lon="-0.45102">
        <ele>1312.4</ele>
        <time>2021-08-09 11:51:02</time>
      </trkpt>
      <trkpt lat="42.86916" lon="-0.451">
        <ele>1312.2</ele>
        <time>2021-08-09 11:51:03</time>
      </trkpt>
      <trkpt lat="42.86916" lon="-0.45099">
        <ele>1312.2</ele>
        <time>2021-08-09 11:51:04</time>
      </trkpt>
      <trkpt lat="42.86916" lon="-0.45097">
        <ele>1312.2</ele>
        <time>2021-08-09 11:51:05</time>
      </trkpt>
      <trkpt lat="42.86915" lon="-0.45096">
        <ele>1312.4</ele>
        <time>2021-08-09 11:51:06</time>
      </trkpt>
      <trkpt lat="42.86913" lon="-0.45094">
        <ele>1312.4</ele>
        <time>2021-08-09 11:51:07</time>
      </trkpt>
      <trkpt lat="42.86913" lon="-0.45094">
        <ele>1312.4</ele>
        <time>2021-08-09 11:51:08</time>
      </trkpt>
      <trkpt lat="42.86912" lon="-0.45094">
        <ele>1312.2</ele>
        <time>2021-08-09 11:51:09</time>
      </trkpt>
      <trkpt lat="42.86913" lon="-0.45094">
        <ele>1312.2</ele>
        <time>2021-08-09 11:51:10</time>
      </trkpt>
      <trkpt lat="42.86913" lon="-0.45094">
        <ele>1312.2</ele>
        <time>2021-08-09 11:51:11</time>
      </trkpt>
      <trkpt lat="42.86913" lon="-0.45094">
        <ele>1312.4</ele>
        <time>2021-08-09 11:51:12</time>
      </trkpt>
      <trkpt lat="42.86912" lon="-0.45093">
        <ele>1312.4</ele>
        <time>2021-08-09 11:51:13</time>
      </trkpt>
      <trkpt lat="42.86912" lon="-0.45092">
        <ele>1312.4</ele>
        <time>2021-08-09 11:51:14</time>
      </trkpt>
      <trkpt lat="42.86911" lon="-0.45091">
        <ele>1312.2</ele>
        <time>2021-08-09 11:51:15</time>
      </trkpt>
      <trkpt lat="42.86912" lon="-0.45089">
        <ele>1312.4</ele>
        <time>2021-08-09 11:51:16</time>
      </trkpt>
      <trkpt lat="42.86912" lon="-0.45088">
        <ele>1312.2</ele>
        <time>2021-08-09 11:51:17</time>
      </trkpt>
      <trkpt lat="42.86911" lon="-0.45086">
        <ele>1312.2</ele>
        <time>2021-08-09 11:51:18</time>
      </trkpt>
      <trkpt lat="42.86912" lon="-0.45084">
        <ele>1312.2</ele>
        <time>2021-08-09 11:51:19</time>
      </trkpt>
      <trkpt lat="42.86911" lon="-0.45083">
        <ele>1312</ele>
        <time>2021-08-09 11:51:20</time>
      </trkpt>
      <trkpt lat="42.86911" lon="-0.45081">
        <ele>1312.2</ele>
        <time>2021-08-09 11:51:21</time>
      </trkpt>
      <trkpt lat="42.8691" lon="-0.4508">
        <ele>1312</ele>
        <time>2021-08-09 11:51:22</time>
      </trkpt>
      <trkpt lat="42.8691" lon="-0.45078">
        <ele>1312.2</ele>
        <time>2021-08-09 11:51:24</time>
      </trkpt>
      <trkpt lat="42.86909" lon="-0.45077">
        <ele>1312</ele>
        <time>2021-08-09 11:51:25</time>
      </trkpt>
      <trkpt lat="42.86909" lon="-0.45076">
        <ele>1312.2</ele>
        <time>2021-08-09 11:51:26</time>
      </trkpt>
      <trkpt lat="42.8691" lon="-0.45074">
        <ele>1312.2</ele>
        <time>2021-08-09 11:51:28</time>
      </trkpt>
      <trkpt lat="42.86909" lon="-0.45072">
        <ele>1312.2</ele>
        <time>2021-08-09 11:51:29</time>
      </trkpt>
      <trkpt lat="42.8691" lon="-0.4507">
        <ele>1312.2</ele>
        <time>2021-08-09 11:51:30</time>
      </trkpt>
      <trkpt lat="42.8691" lon="-0.45068">
        <ele>1312.4</ele>
        <time>2021-08-09 11:51:31</time>
      </trkpt>
      <trkpt lat="42.8691" lon="-0.45067">
        <ele>1312.2</ele>
        <time>2021-08-09 11:51:32</time>
      </trkpt>
      <trkpt lat="42.86909" lon="-0.45065">
        <ele>1312</ele>
        <time>2021-08-09 11:51:33</time>
      </trkpt>
      <trkpt lat="42.86909" lon="-0.45064">
        <ele>1312</ele>
        <time>2021-08-09 11:51:34</time>
      </trkpt>
      <trkpt lat="42.86909" lon="-0.45063">
        <ele>1312.2</ele>
        <time>2021-08-09 11:51:35</time>
      </trkpt>
      <trkpt lat="42.86908" lon="-0.45061">
        <ele>1312</ele>
        <time>2021-08-09 11:51:36</time>
      </trkpt>
      <trkpt lat="42.86908" lon="-0.45059">
        <ele>1312</ele>
        <time>2021-08-09 11:51:37</time>
      </trkpt>
      <trkpt lat="42.86908" lon="-0.45057">
        <ele>1311.4</ele>
        <time>2021-08-09 11:51:38</time>
      </trkpt>
      <trkpt lat="42.86907" lon="-0.45054">
        <ele>1311.6</ele>
        <time>2021-08-09 11:51:39</time>
      </trkpt>
      <trkpt lat="42.86908" lon="-0.45052">
        <ele>1311.4</ele>
        <time>2021-08-09 11:51:40</time>
      </trkpt>
      <trkpt lat="42.86908" lon="-0.45051">
        <ele>1311.6</ele>
        <time>2021-08-09 11:51:41</time>
      </trkpt>
      <trkpt lat="42.86908" lon="-0.45049">
        <ele>1311.6</ele>
        <time>2021-08-09 11:51:42</time>
      </trkpt>
      <trkpt lat="42.86908" lon="-0.45048">
        <ele>1311.4</ele>
        <time>2021-08-09 11:51:43</time>
      </trkpt>
      <trkpt lat="42.86909" lon="-0.45046">
        <ele>1311.4</ele>
        <time>2021-08-09 11:51:44</time>
      </trkpt>
      <trkpt lat="42.8691" lon="-0.45044">
        <ele>1311.2</ele>
        <time>2021-08-09 11:51:45</time>
      </trkpt>
      <trkpt lat="42.8691" lon="-0.45043">
        <ele>1311.4</ele>
        <time>2021-08-09 11:51:46</time>
      </trkpt>
      <trkpt lat="42.86909" lon="-0.45041">
        <ele>1311.4</ele>
        <time>2021-08-09 11:51:47</time>
      </trkpt>
      <trkpt lat="42.86909" lon="-0.45039">
        <ele>1311.2</ele>
        <time>2021-08-09 11:51:48</time>
      </trkpt>
      <trkpt lat="42.86909" lon="-0.45037">
        <ele>1311.2</ele>
        <time>2021-08-09 11:51:49</time>
      </trkpt>
      <trkpt lat="42.86909" lon="-0.45036">
        <ele>1311.2</ele>
        <time>2021-08-09 11:51:50</time>
      </trkpt>
      <trkpt lat="42.8691" lon="-0.45033">
        <ele>1311.2</ele>
        <time>2021-08-09 11:51:51</time>
      </trkpt>
      <trkpt lat="42.8691" lon="-0.45031">
        <ele>1311.4</ele>
        <time>2021-08-09 11:51:52</time>
      </trkpt>
      <trkpt lat="42.8691" lon="-0.4503">
        <ele>1311.4</ele>
        <time>2021-08-09 11:51:53</time>
      </trkpt>
      <trkpt lat="42.86911" lon="-0.45028">
        <ele>1311.6</ele>
        <time>2021-08-09 11:51:54</time>
      </trkpt>
      <trkpt lat="42.86911" lon="-0.45026">
        <ele>1311.8</ele>
        <time>2021-08-09 11:51:55</time>
      </trkpt>
      <trkpt lat="42.86911" lon="-0.45024">
        <ele>1312</ele>
        <time>2021-08-09 11:51:56</time>
      </trkpt>
      <trkpt lat="42.86913" lon="-0.45023">
        <ele>1312.2</ele>
        <time>2021-08-09 11:51:57</time>
      </trkpt>
      <trkpt lat="42.86913" lon="-0.45021">
        <ele>1312.4</ele>
        <time>2021-08-09 11:51:58</time>
      </trkpt>
      <trkpt lat="42.86913" lon="-0.45019">
        <ele>1312.6</ele>
        <time>2021-08-09 11:51:59</time>
      </trkpt>
      <trkpt lat="42.86913" lon="-0.45018">
        <ele>1312.6</ele>
        <time>2021-08-09 11:52:00</time>
      </trkpt>
      <trkpt lat="42.86913" lon="-0.45016">
        <ele>1312.6</ele>
        <time>2021-08-09 11:52:01</time>
      </trkpt>
      <trkpt lat="42.86913" lon="-0.45015">
        <ele>1312.8</ele>
        <time>2021-08-09 11:52:02</time>
      </trkpt>
      <trkpt lat="42.86914" lon="-0.45014">
        <ele>1313</ele>
        <time>2021-08-09 11:52:03</time>
      </trkpt>
      <trkpt lat="42.86914" lon="-0.45012">
        <ele>1313</ele>
        <time>2021-08-09 11:52:04</time>
      </trkpt>
      <trkpt lat="42.86914" lon="-0.4501">
        <ele>1312.8</ele>
        <time>2021-08-09 11:52:05</time>
      </trkpt>
      <trkpt lat="42.86916" lon="-0.45009">
        <ele>1313</ele>
        <time>2021-08-09 11:52:06</time>
      </trkpt>
      <trkpt lat="42.86916" lon="-0.45008">
        <ele>1312.8</ele>
        <time>2021-08-09 11:52:07</time>
      </trkpt>
      <trkpt lat="42.86916" lon="-0.45006">
        <ele>1312.8</ele>
        <time>2021-08-09 11:52:08</time>
      </trkpt>
      <trkpt lat="42.86917" lon="-0.45004">
        <ele>1313</ele>
        <time>2021-08-09 11:52:09</time>
      </trkpt>
      <trkpt lat="42.86917" lon="-0.45002">
        <ele>1312.8</ele>
        <time>2021-08-09 11:52:10</time>
      </trkpt>
      <trkpt lat="42.86916" lon="-0.45">
        <ele>1312.6</ele>
        <time>2021-08-09 11:52:11</time>
      </trkpt>
      <trkpt lat="42.86916" lon="-0.44999">
        <ele>1312.6</ele>
        <time>2021-08-09 11:52:12</time>
      </trkpt>
      <trkpt lat="42.86916" lon="-0.44997">
        <ele>1312.4</ele>
        <time>2021-08-09 11:52:13</time>
      </trkpt>
      <trkpt lat="42.86916" lon="-0.44995">
        <ele>1312.2</ele>
        <time>2021-08-09 11:52:14</time>
      </trkpt>
      <trkpt lat="42.86916" lon="-0.44994">
        <ele>1312.2</ele>
        <time>2021-08-09 11:52:15</time>
      </trkpt>
      <trkpt lat="42.86916" lon="-0.44991">
        <ele>1312.2</ele>
        <time>2021-08-09 11:52:16</time>
      </trkpt>
      <trkpt lat="42.86917" lon="-0.44989">
        <ele>1312</ele>
        <time>2021-08-09 11:52:17</time>
      </trkpt>
      <trkpt lat="42.86917" lon="-0.44987">
        <ele>1311.8</ele>
        <time>2021-08-09 11:52:18</time>
      </trkpt>
      <trkpt lat="42.86917" lon="-0.44985">
        <ele>1312</ele>
        <time>2021-08-09 11:52:19</time>
      </trkpt>
      <trkpt lat="42.86917" lon="-0.44983">
        <ele>1312</ele>
        <time>2021-08-09 11:52:20</time>
      </trkpt>
      <trkpt lat="42.86917" lon="-0.44981">
        <ele>1312.2</ele>
        <time>2021-08-09 11:52:21</time>
      </trkpt>
      <trkpt lat="42.86918" lon="-0.44979">
        <ele>1312.6</ele>
        <time>2021-08-09 11:52:22</time>
      </trkpt>
      <trkpt lat="42.86919" lon="-0.44977">
        <ele>1312.6</ele>
        <time>2021-08-09 11:52:23</time>
      </trkpt>
      <trkpt lat="42.86919" lon="-0.44976">
        <ele>1312.8</ele>
        <time>2021-08-09 11:52:24</time>
      </trkpt>
      <trkpt lat="42.86919" lon="-0.44974">
        <ele>1313</ele>
        <time>2021-08-09 11:52:25</time>
      </trkpt>
      <trkpt lat="42.86919" lon="-0.44973">
        <ele>1313</ele>
        <time>2021-08-09 11:52:26</time>
      </trkpt>
      <trkpt lat="42.86919" lon="-0.44972">
        <ele>1313</ele>
        <time>2021-08-09 11:52:27</time>
      </trkpt>
      <trkpt lat="42.8692" lon="-0.4497">
        <ele>1313.2</ele>
        <time>2021-08-09 11:52:28</time>
      </trkpt>
      <trkpt lat="42.86921" lon="-0.44968">
        <ele>1313.2</ele>
        <time>2021-08-09 11:52:29</time>
      </trkpt>
      <trkpt lat="42.86921" lon="-0.44966">
        <ele>1313</ele>
        <time>2021-08-09 11:52:30</time>
      </trkpt>
      <trkpt lat="42.86921" lon="-0.44965">
        <ele>1313.6</ele>
        <time>2021-08-09 11:52:31</time>
      </trkpt>
      <trkpt lat="42.86922" lon="-0.44964">
        <ele>1313.6</ele>
        <time>2021-08-09 11:52:32</time>
      </trkpt>
      <trkpt lat="42.86922" lon="-0.44961">
        <ele>1313.6</ele>
        <time>2021-08-09 11:52:33</time>
      </trkpt>
      <trkpt lat="42.86922" lon="-0.44959">
        <ele>1314</ele>
        <time>2021-08-09 11:52:34</time>
      </trkpt>
      <trkpt lat="42.86922" lon="-0.44957">
        <ele>1313.6</ele>
        <time>2021-08-09 11:52:35</time>
      </trkpt>
      <trkpt lat="42.86923" lon="-0.44956">
        <ele>1313.8</ele>
        <time>2021-08-09 11:52:36</time>
      </trkpt>
      <trkpt lat="42.86924" lon="-0.44954">
        <ele>1313.2</ele>
        <time>2021-08-09 11:52:37</time>
      </trkpt>
      <trkpt lat="42.86924" lon="-0.44953">
        <ele>1313.8</ele>
        <time>2021-08-09 11:52:38</time>
      </trkpt>
      <trkpt lat="42.86924" lon="-0.44951">
        <ele>1313</ele>
        <time>2021-08-09 11:52:39</time>
      </trkpt>
      <trkpt lat="42.86924" lon="-0.44949">
        <ele>1313.6</ele>
        <time>2021-08-09 11:52:40</time>
      </trkpt>
      <trkpt lat="42.86925" lon="-0.44947">
        <ele>1313.8</ele>
        <time>2021-08-09 11:52:41</time>
      </trkpt>
      <trkpt lat="42.86924" lon="-0.44946">
        <ele>1314</ele>
        <time>2021-08-09 11:52:42</time>
      </trkpt>
      <trkpt lat="42.86925" lon="-0.44944">
        <ele>1313.8</ele>
        <time>2021-08-09 11:52:43</time>
      </trkpt>
      <trkpt lat="42.86926" lon="-0.44943">
        <ele>1313.6</ele>
        <time>2021-08-09 11:52:44</time>
      </trkpt>
      <trkpt lat="42.86927" lon="-0.44941">
        <ele>1313.4</ele>
        <time>2021-08-09 11:52:45</time>
      </trkpt>
      <trkpt lat="42.86927" lon="-0.44939">
        <ele>1313.6</ele>
        <time>2021-08-09 11:52:46</time>
      </trkpt>
      <trkpt lat="42.86928" lon="-0.44937">
        <ele>1313.4</ele>
        <time>2021-08-09 11:52:47</time>
      </trkpt>
      <trkpt lat="42.86927" lon="-0.44935">
        <ele>1313.6</ele>
        <time>2021-08-09 11:52:48</time>
      </trkpt>
      <trkpt lat="42.86927" lon="-0.44933">
        <ele>1313.8</ele>
        <time>2021-08-09 11:52:49</time>
      </trkpt>
      <trkpt lat="42.86928" lon="-0.44931">
        <ele>1314</ele>
        <time>2021-08-09 11:52:50</time>
      </trkpt>
      <trkpt lat="42.86928" lon="-0.44928">
        <ele>1314</ele>
        <time>2021-08-09 11:52:51</time>
      </trkpt>
      <trkpt lat="42.86929" lon="-0.44926">
        <ele>1314</ele>
        <time>2021-08-09 11:52:52</time>
      </trkpt>
      <trkpt lat="42.8693" lon="-0.44925">
        <ele>1314.2</ele>
        <time>2021-08-09 11:52:53</time>
      </trkpt>
      <trkpt lat="42.8693" lon="-0.44923">
        <ele>1314</ele>
        <time>2021-08-09 11:52:54</time>
      </trkpt>
      <trkpt lat="42.8693" lon="-0.44921">
        <ele>1313.2</ele>
        <time>2021-08-09 11:52:55</time>
      </trkpt>
      <trkpt lat="42.8693" lon="-0.4492">
        <ele>1313.6</ele>
        <time>2021-08-09 11:52:56</time>
      </trkpt>
      <trkpt lat="42.86931" lon="-0.44918">
        <ele>1313.6</ele>
        <time>2021-08-09 11:52:57</time>
      </trkpt>
      <trkpt lat="42.86932" lon="-0.44916">
        <ele>1313.8</ele>
        <time>2021-08-09 11:52:58</time>
      </trkpt>
      <trkpt lat="42.86932" lon="-0.44914">
        <ele>1314</ele>
        <time>2021-08-09 11:52:59</time>
      </trkpt>
      <trkpt lat="42.86933" lon="-0.44912">
        <ele>1314</ele>
        <time>2021-08-09 11:53:00</time>
      </trkpt>
      <trkpt lat="42.86933" lon="-0.4491">
        <ele>1314</ele>
        <time>2021-08-09 11:53:01</time>
      </trkpt>
      <trkpt lat="42.86934" lon="-0.44909">
        <ele>1314</ele>
        <time>2021-08-09 11:53:02</time>
      </trkpt>
      <trkpt lat="42.86934" lon="-0.44907">
        <ele>1314.4</ele>
        <time>2021-08-09 11:53:03</time>
      </trkpt>
      <trkpt lat="42.86935" lon="-0.44905">
        <ele>1314.4</ele>
        <time>2021-08-09 11:53:04</time>
      </trkpt>
      <trkpt lat="42.86936" lon="-0.44903">
        <ele>1314.2</ele>
        <time>2021-08-09 11:53:05</time>
      </trkpt>
      <trkpt lat="42.86935" lon="-0.44902">
        <ele>1314.4</ele>
        <time>2021-08-09 11:53:06</time>
      </trkpt>
      <trkpt lat="42.86935" lon="-0.449">
        <ele>1314.4</ele>
        <time>2021-08-09 11:53:07</time>
      </trkpt>
      <trkpt lat="42.86936" lon="-0.44897">
        <ele>1314.6</ele>
        <time>2021-08-09 11:53:08</time>
      </trkpt>
      <trkpt lat="42.86937" lon="-0.44895">
        <ele>1314.6</ele>
        <time>2021-08-09 11:53:09</time>
      </trkpt>
      <trkpt lat="42.86938" lon="-0.44894">
        <ele>1314.6</ele>
        <time>2021-08-09 11:53:10</time>
      </trkpt>
      <trkpt lat="42.86938" lon="-0.44892">
        <ele>1314.6</ele>
        <time>2021-08-09 11:53:11</time>
      </trkpt>
      <trkpt lat="42.86938" lon="-0.4489">
        <ele>1314.8</ele>
        <time>2021-08-09 11:53:12</time>
      </trkpt>
      <trkpt lat="42.86939" lon="-0.44889">
        <ele>1314.6</ele>
        <time>2021-08-09 11:53:13</time>
      </trkpt>
      <trkpt lat="42.8694" lon="-0.44887">
        <ele>1314.8</ele>
        <time>2021-08-09 11:53:14</time>
      </trkpt>
      <trkpt lat="42.86941" lon="-0.44885">
        <ele>1314.6</ele>
        <time>2021-08-09 11:53:15</time>
      </trkpt>
      <trkpt lat="42.86941" lon="-0.44883">
        <ele>1315</ele>
        <time>2021-08-09 11:53:16</time>
      </trkpt>
      <trkpt lat="42.86942" lon="-0.44882">
        <ele>1314.6</ele>
        <time>2021-08-09 11:53:17</time>
      </trkpt>
      <trkpt lat="42.86943" lon="-0.4488">
        <ele>1314.2</ele>
        <time>2021-08-09 11:53:18</time>
      </trkpt>
      <trkpt lat="42.86943" lon="-0.44878">
        <ele>1314.4</ele>
        <time>2021-08-09 11:53:19</time>
      </trkpt>
      <trkpt lat="42.86943" lon="-0.44876">
        <ele>1314.6</ele>
        <time>2021-08-09 11:53:20</time>
      </trkpt>
      <trkpt lat="42.86943" lon="-0.44875">
        <ele>1314.6</ele>
        <time>2021-08-09 11:53:21</time>
      </trkpt>
      <trkpt lat="42.86943" lon="-0.44874">
        <ele>1314.4</ele>
        <time>2021-08-09 11:53:22</time>
      </trkpt>
      <trkpt lat="42.86943" lon="-0.44872">
        <ele>1314.2</ele>
        <time>2021-08-09 11:53:23</time>
      </trkpt>
      <trkpt lat="42.86943" lon="-0.4487">
        <ele>1314</ele>
        <time>2021-08-09 11:53:24</time>
      </trkpt>
      <trkpt lat="42.86941" lon="-0.44868">
        <ele>1314</ele>
        <time>2021-08-09 11:53:25</time>
      </trkpt>
      <trkpt lat="42.86939" lon="-0.44867">
        <ele>1314</ele>
        <time>2021-08-09 11:53:26</time>
      </trkpt>
      <trkpt lat="42.86938" lon="-0.44864">
        <ele>1313.6</ele>
        <time>2021-08-09 11:53:27</time>
      </trkpt>
      <trkpt lat="42.86938" lon="-0.44862">
        <ele>1313.4</ele>
        <time>2021-08-09 11:53:28</time>
      </trkpt>
      <trkpt lat="42.86937" lon="-0.4486">
        <ele>1313.6</ele>
        <time>2021-08-09 11:53:29</time>
      </trkpt>
      <trkpt lat="42.86936" lon="-0.44859">
        <ele>1313.6</ele>
        <time>2021-08-09 11:53:30</time>
      </trkpt>
      <trkpt lat="42.86937" lon="-0.44858">
        <ele>1313.6</ele>
        <time>2021-08-09 11:53:31</time>
      </trkpt>
      <trkpt lat="42.86937" lon="-0.44856">
        <ele>1313.4</ele>
        <time>2021-08-09 11:53:32</time>
      </trkpt>
      <trkpt lat="42.86936" lon="-0.44854">
        <ele>1313.4</ele>
        <time>2021-08-09 11:53:33</time>
      </trkpt>
      <trkpt lat="42.86935" lon="-0.44853">
        <ele>1313.6</ele>
        <time>2021-08-09 11:53:34</time>
      </trkpt>
      <trkpt lat="42.86934" lon="-0.44851">
        <ele>1312.4</ele>
        <time>2021-08-09 11:53:35</time>
      </trkpt>
      <trkpt lat="42.86933" lon="-0.44849">
        <ele>1312.4</ele>
        <time>2021-08-09 11:53:36</time>
      </trkpt>
      <trkpt lat="42.86933" lon="-0.44847">
        <ele>1312.2</ele>
        <time>2021-08-09 11:53:37</time>
      </trkpt>
      <trkpt lat="42.86933" lon="-0.44846">
        <ele>1313.2</ele>
        <time>2021-08-09 11:53:38</time>
      </trkpt>
      <trkpt lat="42.86933" lon="-0.44845">
        <ele>1313.2</ele>
        <time>2021-08-09 11:53:39</time>
      </trkpt>
      <trkpt lat="42.86932" lon="-0.44843">
        <ele>1313.4</ele>
        <time>2021-08-09 11:53:40</time>
      </trkpt>
      <trkpt lat="42.86932" lon="-0.44842">
        <ele>1313.4</ele>
        <time>2021-08-09 11:53:41</time>
      </trkpt>
      <trkpt lat="42.86932" lon="-0.4484">
        <ele>1313.4</ele>
        <time>2021-08-09 11:53:42</time>
      </trkpt>
      <trkpt lat="42.86932" lon="-0.44838">
        <ele>1313.2</ele>
        <time>2021-08-09 11:53:43</time>
      </trkpt>
      <trkpt lat="42.86931" lon="-0.44836">
        <ele>1313.2</ele>
        <time>2021-08-09 11:53:44</time>
      </trkpt>
      <trkpt lat="42.86931" lon="-0.44834">
        <ele>1313.4</ele>
        <time>2021-08-09 11:53:45</time>
      </trkpt>
      <trkpt lat="42.8693" lon="-0.44832">
        <ele>1313.4</ele>
        <time>2021-08-09 11:53:46</time>
      </trkpt>
      <trkpt lat="42.86931" lon="-0.4483">
        <ele>1313.2</ele>
        <time>2021-08-09 11:53:47</time>
      </trkpt>
      <trkpt lat="42.8693" lon="-0.44828">
        <ele>1313.4</ele>
        <time>2021-08-09 11:53:48</time>
      </trkpt>
      <trkpt lat="42.8693" lon="-0.44826">
        <ele>1313.6</ele>
        <time>2021-08-09 11:53:49</time>
      </trkpt>
      <trkpt lat="42.86931" lon="-0.44825">
        <ele>1313.8</ele>
        <time>2021-08-09 11:53:50</time>
      </trkpt>
      <trkpt lat="42.86932" lon="-0.44823">
        <ele>1313.8</ele>
        <time>2021-08-09 11:53:51</time>
      </trkpt>
      <trkpt lat="42.86932" lon="-0.44822">
        <ele>1314</ele>
        <time>2021-08-09 11:53:52</time>
      </trkpt>
      <trkpt lat="42.86932" lon="-0.44821">
        <ele>1314</ele>
        <time>2021-08-09 11:53:53</time>
      </trkpt>
      <trkpt lat="42.86932" lon="-0.4482">
        <ele>1314</ele>
        <time>2021-08-09 11:53:54</time>
      </trkpt>
      <trkpt lat="42.86932" lon="-0.44818">
        <ele>1314</ele>
        <time>2021-08-09 11:53:55</time>
      </trkpt>
      <trkpt lat="42.86932" lon="-0.44817">
        <ele>1314</ele>
        <time>2021-08-09 11:53:56</time>
      </trkpt>
      <trkpt lat="42.86932" lon="-0.44816">
        <ele>1314.2</ele>
        <time>2021-08-09 11:53:57</time>
      </trkpt>
      <trkpt lat="42.86931" lon="-0.44815">
        <ele>1314.6</ele>
        <time>2021-08-09 11:53:58</time>
      </trkpt>
      <trkpt lat="42.86931" lon="-0.44814">
        <ele>1314.6</ele>
        <time>2021-08-09 11:53:59</time>
      </trkpt>
      <trkpt lat="42.8693" lon="-0.44813">
        <ele>1314.8</ele>
        <time>2021-08-09 11:54:00</time>
      </trkpt>
      <trkpt lat="42.86929" lon="-0.44812">
        <ele>1315.2</ele>
        <time>2021-08-09 11:54:01</time>
      </trkpt>
      <trkpt lat="42.86928" lon="-0.44811">
        <ele>1315.2</ele>
        <time>2021-08-09 11:54:02</time>
      </trkpt>
      <trkpt lat="42.86927" lon="-0.44811">
        <ele>1315.6</ele>
        <time>2021-08-09 11:54:03</time>
      </trkpt>
      <trkpt lat="42.86927" lon="-0.44811">
        <ele>1315.8</ele>
        <time>2021-08-09 11:54:04</time>
      </trkpt>
      <trkpt lat="42.86926" lon="-0.44811">
        <ele>1316.6</ele>
        <time>2021-08-09 11:54:05</time>
      </trkpt>
      <trkpt lat="42.86926" lon="-0.44811">
        <ele>1316.8</ele>
        <time>2021-08-09 11:54:06</time>
      </trkpt>
      <trkpt lat="42.86925" lon="-0.44811">
        <ele>1317.2</ele>
        <time>2021-08-09 11:54:07</time>
      </trkpt>
      <trkpt lat="42.86924" lon="-0.44812">
        <ele>1317.6</ele>
        <time>2021-08-09 11:54:08</time>
      </trkpt>
      <trkpt lat="42.86924" lon="-0.44812">
        <ele>1317.6</ele>
        <time>2021-08-09 11:54:09</time>
      </trkpt>
      <trkpt lat="42.86923" lon="-0.44812">
        <ele>1318.2</ele>
        <time>2021-08-09 11:54:10</time>
      </trkpt>
      <trkpt lat="42.86922" lon="-0.44812">
        <ele>1318</ele>
        <time>2021-08-09 11:54:11</time>
      </trkpt>
      <trkpt lat="42.86921" lon="-0.44812">
        <ele>1318.2</ele>
        <time>2021-08-09 11:54:12</time>
      </trkpt>
      <trkpt lat="42.86921" lon="-0.44812">
        <ele>1318.2</ele>
        <time>2021-08-09 11:54:13</time>
      </trkpt>
      <trkpt lat="42.86921" lon="-0.44811">
        <ele>1317.4</ele>
        <time>2021-08-09 11:54:14</time>
      </trkpt>
      <trkpt lat="42.86921" lon="-0.44811">
        <ele>1317.2</ele>
        <time>2021-08-09 11:54:15</time>
      </trkpt>
      <trkpt lat="42.86921" lon="-0.44811">
        <ele>1318.2</ele>
        <time>2021-08-09 11:54:16</time>
      </trkpt>
      <trkpt lat="42.86921" lon="-0.44811">
        <ele>1318</ele>
        <time>2021-08-09 11:54:17</time>
      </trkpt>
      <trkpt lat="42.86922" lon="-0.44812">
        <ele>1318</ele>
        <time>2021-08-09 11:54:18</time>
      </trkpt>
      <trkpt lat="42.86922" lon="-0.44811">
        <ele>1317.8</ele>
        <time>2021-08-09 11:54:19</time>
      </trkpt>
      <trkpt lat="42.86923" lon="-0.44811">
        <ele>1318</ele>
        <time>2021-08-09 11:54:20</time>
      </trkpt>
      <trkpt lat="42.86923" lon="-0.44811">
        <ele>1318.2</ele>
        <time>2021-08-09 11:54:21</time>
      </trkpt>
      <trkpt lat="42.86923" lon="-0.44812">
        <ele>1317.8</ele>
        <time>2021-08-09 11:54:22</time>
      </trkpt>
      <trkpt lat="42.86923" lon="-0.44812">
        <ele>1317.8</ele>
        <time>2021-08-09 11:54:23</time>
      </trkpt>
      <trkpt lat="42.86922" lon="-0.44812">
        <ele>1317.8</ele>
        <time>2021-08-09 11:54:24</time>
      </trkpt>
      <trkpt lat="42.86922" lon="-0.44811">
        <ele>1317.8</ele>
        <time>2021-08-09 11:54:25</time>
      </trkpt>
      <trkpt lat="42.86921" lon="-0.44811">
        <ele>1317.6</ele>
        <time>2021-08-09 11:54:26</time>
      </trkpt>
      <trkpt lat="42.86922" lon="-0.44812">
        <ele>1317.6</ele>
        <time>2021-08-09 11:54:27</time>
      </trkpt>
      <trkpt lat="42.86922" lon="-0.44812">
        <ele>1317.6</ele>
        <time>2021-08-09 11:54:28</time>
      </trkpt>
      <trkpt lat="42.86921" lon="-0.44812">
        <ele>1317.8</ele>
        <time>2021-08-09 11:54:29</time>
      </trkpt>
      <trkpt lat="42.8692" lon="-0.44812">
        <ele>1317.6</ele>
        <time>2021-08-09 11:54:30</time>
      </trkpt>
      <trkpt lat="42.8692" lon="-0.44813">
        <ele>1317.6</ele>
        <time>2021-08-09 11:54:31</time>
      </trkpt>
      <trkpt lat="42.8692" lon="-0.44813">
        <ele>1317.8</ele>
        <time>2021-08-09 11:54:32</time>
      </trkpt>
      <trkpt lat="42.86919" lon="-0.44814">
        <ele>1317.8</ele>
        <time>2021-08-09 11:54:33</time>
      </trkpt>
      <trkpt lat="42.86919" lon="-0.44815">
        <ele>1317.6</ele>
        <time>2021-08-09 11:54:34</time>
      </trkpt>
      <trkpt lat="42.86918" lon="-0.44815">
        <ele>1317.4</ele>
        <time>2021-08-09 11:54:35</time>
      </trkpt>
      <trkpt lat="42.86917" lon="-0.44816">
        <ele>1317.2</ele>
        <time>2021-08-09 11:54:36</time>
      </trkpt>
      <trkpt lat="42.86916" lon="-0.44817">
        <ele>1317.2</ele>
        <time>2021-08-09 11:54:37</time>
      </trkpt>
      <trkpt lat="42.86915" lon="-0.44817">
        <ele>1317.4</ele>
        <time>2021-08-09 11:54:40</time>
      </trkpt>
      <trkpt lat="42.86914" lon="-0.44817">
        <ele>1317.4</ele>
        <time>2021-08-09 11:54:41</time>
      </trkpt>
      <trkpt lat="42.86914" lon="-0.44817">
        <ele>1317.8</ele>
        <time>2021-08-09 11:54:42</time>
      </trkpt>
      <trkpt lat="42.86913" lon="-0.44817">
        <ele>1317.8</ele>
        <time>2021-08-09 11:54:43</time>
      </trkpt>
      <trkpt lat="42.86912" lon="-0.44818">
        <ele>1317.8</ele>
        <time>2021-08-09 11:54:44</time>
      </trkpt>
      <trkpt lat="42.8691" lon="-0.44818">
        <ele>1317.8</ele>
        <time>2021-08-09 11:55:00</time>
      </trkpt>
      <trkpt lat="42.86909" lon="-0.44819">
        <ele>1317.6</ele>
        <time>2021-08-09 11:55:02</time>
      </trkpt>
      <trkpt lat="42.86907" lon="-0.44819">
        <ele>1317.6</ele>
        <time>2021-08-09 11:55:03</time>
      </trkpt>
      <trkpt lat="42.86906" lon="-0.44819">
        <ele>1316.8</ele>
        <time>2021-08-09 11:55:04</time>
      </trkpt>
      <trkpt lat="42.86905" lon="-0.4482">
        <ele>1317.4</ele>
        <time>2021-08-09 11:55:05</time>
      </trkpt>
      <trkpt lat="42.86904" lon="-0.44821">
        <ele>1317.4</ele>
        <time>2021-08-09 11:55:06</time>
      </trkpt>
      <trkpt lat="42.86903" lon="-0.44821">
        <ele>1317.6</ele>
        <time>2021-08-09 11:55:07</time>
      </trkpt>
      <trkpt lat="42.86902" lon="-0.44821">
        <ele>1317.4</ele>
        <time>2021-08-09 11:55:08</time>
      </trkpt>
      <trkpt lat="42.86901" lon="-0.44822">
        <ele>1317.4</ele>
        <time>2021-08-09 11:55:09</time>
      </trkpt>
      <trkpt lat="42.86899" lon="-0.44823">
        <ele>1317.6</ele>
        <time>2021-08-09 11:55:10</time>
      </trkpt>
      <trkpt lat="42.86897" lon="-0.44824">
        <ele>1318</ele>
        <time>2021-08-09 11:55:11</time>
      </trkpt>
      <trkpt lat="42.86896" lon="-0.44824">
        <ele>1318.2</ele>
        <time>2021-08-09 11:55:12</time>
      </trkpt>
      <trkpt lat="42.86892" lon="-0.44826">
        <ele>1313.6</ele>
        <time>2021-08-09 11:55:13</time>
      </trkpt>
      <trkpt lat="42.8689" lon="-0.44827">
        <ele>1316.4</ele>
        <time>2021-08-09 11:55:14</time>
      </trkpt>
      <trkpt lat="42.86889" lon="-0.44829">
        <ele>1316.2</ele>
        <time>2021-08-09 11:55:15</time>
      </trkpt>
      <trkpt lat="42.86887" lon="-0.4483">
        <ele>1318</ele>
        <time>2021-08-09 11:55:16</time>
      </trkpt>
      <trkpt lat="42.86885" lon="-0.4483">
        <ele>1318.6</ele>
        <time>2021-08-09 11:55:17</time>
      </trkpt>
      <trkpt lat="42.86884" lon="-0.4483">
        <ele>1318.6</ele>
        <time>2021-08-09 11:55:18</time>
      </trkpt>
      <trkpt lat="42.86883" lon="-0.4483">
        <ele>1318.8</ele>
        <time>2021-08-09 11:55:19</time>
      </trkpt>
      <trkpt lat="42.86882" lon="-0.4483">
        <ele>1318.6</ele>
      </trkpt>
      <trkpt lat="42.86881" lon="-0.44831">
        <ele>1318.6</ele>
        <time>2021-08-09 11:55:20</time>
      </trkpt>
      <trkpt lat="42.8688" lon="-0.44831">
        <ele>1318.6</ele>
        <time>2021-08-09 11:55:21</time>
      </trkpt>
      <trkpt lat="42.86879" lon="-0.44831">
        <ele>1318.4</ele>
        <time>2021-08-09 11:55:22</time>
      </trkpt>
      <trkpt lat="42.86878" lon="-0.44831">
        <ele>1318.4</ele>
        <time>2021-08-09 11:55:23</time>
      </trkpt>
      <trkpt lat="42.86877" lon="-0.44832">
        <ele>1318.6</ele>
        <time>2021-08-09 11:55:24</time>
      </trkpt>
      <trkpt lat="42.86876" lon="-0.44832">
        <ele>1318.6</ele>
        <time>2021-08-09 11:55:25</time>
      </trkpt>
      <trkpt lat="42.86875" lon="-0.44833">
        <ele>1318.6</ele>
        <time>2021-08-09 11:55:26</time>
      </trkpt>
      <trkpt lat="42.86874" lon="-0.44833">
        <ele>1318.4</ele>
        <time>2021-08-09 11:55:28</time>
      </trkpt>
      <trkpt lat="42.86874" lon="-0.44834">
        <ele>1318.4</ele>
      </trkpt>
      <trkpt lat="42.86873" lon="-0.44834">
        <ele>1318.4</ele>
        <time>2021-08-09 11:55:29</time>
      </trkpt>
      <trkpt lat="42.86872" lon="-0.44835">
        <ele>1318.4</ele>
        <time>2021-08-09 11:55:30</time>
      </trkpt>
      <trkpt lat="42.86871" lon="-0.44836">
        <ele>1318.4</ele>
        <time>2021-08-09 11:55:31</time>
      </trkpt>
      <trkpt lat="42.8687" lon="-0.44837">
        <ele>1318.2</ele>
        <time>2021-08-09 11:55:32</time>
      </trkpt>
      <trkpt lat="42.86869" lon="-0.44837">
        <ele>1318.2</ele>
        <time>2021-08-09 11:55:33</time>
      </trkpt>
      <trkpt lat="42.86868" lon="-0.44838">
        <ele>1318.4</ele>
        <time>2021-08-09 11:55:34</time>
      </trkpt>
      <trkpt lat="42.86867" lon="-0.44838">
        <ele>1318.4</ele>
        <time>2021-08-09 11:55:35</time>
      </trkpt>
      <trkpt lat="42.86866" lon="-0.44839">
        <ele>1318.4</ele>
        <time>2021-08-09 11:55:36</time>
      </trkpt>
      <trkpt lat="42.86866" lon="-0.4484">
        <ele>1318.4</ele>
        <time>2021-08-09 11:55:37</time>
      </trkpt>
      <trkpt lat="42.86865" lon="-0.4484">
        <ele>1318.6</ele>
        <time>2021-08-09 11:55:38</time>
      </trkpt>
      <trkpt lat="42.86864" lon="-0.44841">
        <ele>1318.6</ele>
        <time>2021-08-09 11:55:39</time>
      </trkpt>
      <trkpt lat="42.86863" lon="-0.44842">
        <ele>1318.6</ele>
        <time>2021-08-09 11:55:40</time>
      </trkpt>
      <trkpt lat="42.86862" lon="-0.44842">
        <ele>1318.4</ele>
        <time>2021-08-09 11:55:41</time>
      </trkpt>
      <trkpt lat="42.86862" lon="-0.44843">
        <ele>1318.4</ele>
        <time>2021-08-09 11:55:42</time>
      </trkpt>
      <trkpt lat="42.86861" lon="-0.44843">
        <ele>1318.2</ele>
        <time>2021-08-09 11:55:43</time>
      </trkpt>
      <trkpt lat="42.8686" lon="-0.44843">
        <ele>1318.2</ele>
        <time>2021-08-09 11:55:44</time>
      </trkpt>
      <trkpt lat="42.86859" lon="-0.44844">
        <ele>1318</ele>
        <time>2021-08-09 11:55:45</time>
      </trkpt>
      <trkpt lat="42.86858" lon="-0.44845">
        <ele>1318.2</ele>
        <time>2021-08-09 11:55:46</time>
      </trkpt>
      <trkpt lat="42.86857" lon="-0.44846">
        <ele>1318.4</ele>
        <time>2021-08-09 11:55:48</time>
      </trkpt>
      <trkpt lat="42.86856" lon="-0.44847">
        <ele>1318.8</ele>
      </trkpt>
      <trkpt lat="42.86855" lon="-0.44848">
        <ele>1319.2</ele>
        <time>2021-08-09 11:55:49</time>
      </trkpt>
      <trkpt lat="42.86855" lon="-0.44849">
        <ele>1319.2</ele>
        <time>2021-08-09 11:55:50</time>
      </trkpt>
      <trkpt lat="42.86854" lon="-0.44851">
        <ele>1318.8</ele>
        <time>2021-08-09 11:55:51</time>
      </trkpt>
      <trkpt lat="42.86853" lon="-0.44852">
        <ele>1318.6</ele>
        <time>2021-08-09 11:55:52</time>
      </trkpt>
      <trkpt lat="42.86852" lon="-0.44854">
        <ele>1318.4</ele>
        <time>2021-08-09 11:55:53</time>
      </trkpt>
      <trkpt lat="42.86853" lon="-0.44855">
        <ele>1318.4</ele>
        <time>2021-08-09 11:55:54</time>
      </trkpt>
      <trkpt lat="42.86852" lon="-0.44858">
        <ele>1318.6</ele>
        <time>2021-08-09 11:55:55</time>
      </trkpt>
      <trkpt lat="42.86852" lon="-0.44859">
        <ele>1318.4</ele>
        <time>2021-08-09 11:55:56</time>
      </trkpt>
      <trkpt lat="42.86851" lon="-0.4486">
        <ele>1318.4</ele>
        <time>2021-08-09 11:55:57</time>
      </trkpt>
      <trkpt lat="42.8685" lon="-0.4486">
        <ele>1318.4</ele>
        <time>2021-08-09 11:55:58</time>
      </trkpt>
      <trkpt lat="42.86848" lon="-0.44861">
        <ele>1318.2</ele>
        <time>2021-08-09 11:55:59</time>
      </trkpt>
      <trkpt lat="42.86848" lon="-0.44863">
        <ele>1318.4</ele>
        <time>2021-08-09 11:56:00</time>
      </trkpt>
      <trkpt lat="42.86847" lon="-0.44864">
        <ele>1318.4</ele>
        <time>2021-08-09 11:56:01</time>
      </trkpt>
      <trkpt lat="42.86847" lon="-0.44865">
        <ele>1318.6</ele>
        <time>2021-08-09 11:56:02</time>
      </trkpt>
      <trkpt lat="42.86845" lon="-0.44867">
        <ele>1318.2</ele>
        <time>2021-08-09 11:56:03</time>
      </trkpt>
      <trkpt lat="42.86844" lon="-0.44868">
        <ele>1318.2</ele>
        <time>2021-08-09 11:56:04</time>
      </trkpt>
      <trkpt lat="42.86843" lon="-0.4487">
        <ele>1318.2</ele>
        <time>2021-08-09 11:56:05</time>
      </trkpt>
      <trkpt lat="42.86843" lon="-0.44871">
        <ele>1318.2</ele>
        <time>2021-08-09 11:56:06</time>
      </trkpt>
      <trkpt lat="42.86842" lon="-0.44873">
        <ele>1318.2</ele>
        <time>2021-08-09 11:56:07</time>
      </trkpt>
      <trkpt lat="42.86842" lon="-0.44874">
        <ele>1318.2</ele>
        <time>2021-08-09 11:56:08</time>
      </trkpt>
      <trkpt lat="42.86841" lon="-0.44875">
        <ele>1318</ele>
        <time>2021-08-09 11:56:09</time>
      </trkpt>
      <trkpt lat="42.86841" lon="-0.44876">
        <ele>1317.6</ele>
        <time>2021-08-09 11:56:10</time>
      </trkpt>
      <trkpt lat="42.8684" lon="-0.44877">
        <ele>1317.8</ele>
        <time>2021-08-09 11:56:11</time>
      </trkpt>
      <trkpt lat="42.86838" lon="-0.44879">
        <ele>1317.8</ele>
        <time>2021-08-09 11:56:12</time>
      </trkpt>
      <trkpt lat="42.86838" lon="-0.4488">
        <ele>1318</ele>
        <time>2021-08-09 11:56:13</time>
      </trkpt>
      <trkpt lat="42.86837" lon="-0.44882">
        <ele>1318</ele>
        <time>2021-08-09 11:56:14</time>
      </trkpt>
      <trkpt lat="42.86836" lon="-0.44883">
        <ele>1318</ele>
        <time>2021-08-09 11:56:15</time>
      </trkpt>
      <trkpt lat="42.86836" lon="-0.44885">
        <ele>1318</ele>
        <time>2021-08-09 11:56:16</time>
      </trkpt>
      <trkpt lat="42.86835" lon="-0.44886">
        <ele>1318.2</ele>
        <time>2021-08-09 11:56:17</time>
      </trkpt>
      <trkpt lat="42.86835" lon="-0.44888">
        <ele>1318.2</ele>
        <time>2021-08-09 11:56:18</time>
      </trkpt>
      <trkpt lat="42.86836" lon="-0.4489">
        <ele>1318.2</ele>
        <time>2021-08-09 11:56:19</time>
      </trkpt>
      <trkpt lat="42.86835" lon="-0.44892">
        <ele>1318</ele>
        <time>2021-08-09 11:56:20</time>
      </trkpt>
      <trkpt lat="42.86834" lon="-0.44893">
        <ele>1318</ele>
        <time>2021-08-09 11:56:21</time>
      </trkpt>
      <trkpt lat="42.86834" lon="-0.44894">
        <ele>1317.4</ele>
        <time>2021-08-09 11:56:22</time>
      </trkpt>
      <trkpt lat="42.86834" lon="-0.44896">
        <ele>1317.6</ele>
        <time>2021-08-09 11:56:23</time>
      </trkpt>
      <trkpt lat="42.86833" lon="-0.44897">
        <ele>1318</ele>
        <time>2021-08-09 11:56:24</time>
      </trkpt>
      <trkpt lat="42.86832" lon="-0.44899">
        <ele>1318</ele>
        <time>2021-08-09 11:56:25</time>
      </trkpt>
      <trkpt lat="42.86832" lon="-0.44901">
        <ele>1318</ele>
        <time>2021-08-09 11:56:26</time>
      </trkpt>
      <trkpt lat="42.86831" lon="-0.44903">
        <ele>1318</ele>
        <time>2021-08-09 11:56:27</time>
      </trkpt>
      <trkpt lat="42.8683" lon="-0.44905">
        <ele>1318</ele>
        <time>2021-08-09 11:56:28</time>
      </trkpt>
      <trkpt lat="42.8683" lon="-0.44907">
        <ele>1318.2</ele>
        <time>2021-08-09 11:56:29</time>
      </trkpt>
      <trkpt lat="42.86829" lon="-0.44909">
        <ele>1318</ele>
        <time>2021-08-09 11:56:30</time>
      </trkpt>
      <trkpt lat="42.8683" lon="-0.44911">
        <ele>1318</ele>
        <time>2021-08-09 11:56:31</time>
      </trkpt>
      <trkpt lat="42.8683" lon="-0.44913">
        <ele>1317.8</ele>
        <time>2021-08-09 11:56:32</time>
      </trkpt>
      <trkpt lat="42.86829" lon="-0.44914">
        <ele>1317.8</ele>
        <time>2021-08-09 11:56:33</time>
      </trkpt>
      <trkpt lat="42.8683" lon="-0.44916">
        <ele>1317.8</ele>
        <time>2021-08-09 11:56:34</time>
      </trkpt>
      <trkpt lat="42.8683" lon="-0.44918">
        <ele>1318</ele>
        <time>2021-08-09 11:56:35</time>
      </trkpt>
      <trkpt lat="42.86829" lon="-0.44919">
        <ele>1317.8</ele>
        <time>2021-08-09 11:56:36</time>
      </trkpt>
      <trkpt lat="42.86828" lon="-0.4492">
        <ele>1317.8</ele>
        <time>2021-08-09 11:56:37</time>
      </trkpt>
      <trkpt lat="42.86827" lon="-0.44922">
        <ele>1318.2</ele>
        <time>2021-08-09 11:56:38</time>
      </trkpt>
      <trkpt lat="42.86826" lon="-0.44923">
        <ele>1318.4</ele>
        <time>2021-08-09 11:56:39</time>
      </trkpt>
      <trkpt lat="42.86825" lon="-0.44925">
        <ele>1318.4</ele>
        <time>2021-08-09 11:56:40</time>
      </trkpt>
      <trkpt lat="42.86824" lon="-0.44926">
        <ele>1318.6</ele>
        <time>2021-08-09 11:56:41</time>
      </trkpt>
      <trkpt lat="42.86823" lon="-0.44928">
        <ele>1318.8</ele>
        <time>2021-08-09 11:56:42</time>
      </trkpt>
      <trkpt lat="42.86822" lon="-0.44929">
        <ele>1319</ele>
        <time>2021-08-09 11:56:43</time>
      </trkpt>
      <trkpt lat="42.86822" lon="-0.44931">
        <ele>1319.2</ele>
        <time>2021-08-09 11:56:44</time>
      </trkpt>
      <trkpt lat="42.86821" lon="-0.44932">
        <ele>1319.2</ele>
        <time>2021-08-09 11:56:45</time>
      </trkpt>
      <trkpt lat="42.8682" lon="-0.44934">
        <ele>1319.2</ele>
        <time>2021-08-09 11:56:46</time>
      </trkpt>
      <trkpt lat="42.8682" lon="-0.44935">
        <ele>1319</ele>
        <time>2021-08-09 11:56:47</time>
      </trkpt>
      <trkpt lat="42.8682" lon="-0.44937">
        <ele>1319.2</ele>
        <time>2021-08-09 11:56:48</time>
      </trkpt>
      <trkpt lat="42.8682" lon="-0.44939">
        <ele>1319.4</ele>
        <time>2021-08-09 11:56:49</time>
      </trkpt>
      <trkpt lat="42.86819" lon="-0.4494">
        <ele>1319.8</ele>
        <time>2021-08-09 11:56:50</time>
      </trkpt>
      <trkpt lat="42.8682" lon="-0.44942">
        <ele>1320.4</ele>
        <time>2021-08-09 11:56:51</time>
      </trkpt>
      <trkpt lat="42.86819" lon="-0.44943">
        <ele>1319.8</ele>
        <time>2021-08-09 11:56:52</time>
      </trkpt>
      <trkpt lat="42.86819" lon="-0.44945">
        <ele>1320.2</ele>
        <time>2021-08-09 11:56:53</time>
      </trkpt>
      <trkpt lat="42.86818" lon="-0.44946">
        <ele>1320</ele>
        <time>2021-08-09 11:56:54</time>
      </trkpt>
      <trkpt lat="42.86817" lon="-0.44947">
        <ele>1320.4</ele>
        <time>2021-08-09 11:56:55</time>
      </trkpt>
      <trkpt lat="42.86816" lon="-0.44948">
        <ele>1320.4</ele>
        <time>2021-08-09 11:56:56</time>
      </trkpt>
      <trkpt lat="42.86815" lon="-0.4495">
        <ele>1320.4</ele>
        <time>2021-08-09 11:56:57</time>
      </trkpt>
      <trkpt lat="42.86815" lon="-0.44951">
        <ele>1320.4</ele>
        <time>2021-08-09 11:56:58</time>
      </trkpt>
      <trkpt lat="42.86814" lon="-0.44953">
        <ele>1320.6</ele>
        <time>2021-08-09 11:56:59</time>
      </trkpt>
      <trkpt lat="42.86814" lon="-0.44953">
        <ele>1321</ele>
        <time>2021-08-09 11:57:00</time>
      </trkpt>
      <trkpt lat="42.86813" lon="-0.44955">
        <ele>1321</ele>
        <time>2021-08-09 11:57:01</time>
      </trkpt>
      <trkpt lat="42.86812" lon="-0.44956">
        <ele>1321</ele>
        <time>2021-08-09 11:57:02</time>
      </trkpt>
      <trkpt lat="42.86811" lon="-0.44957">
        <ele>1320.8</ele>
        <time>2021-08-09 11:57:03</time>
      </trkpt>
      <trkpt lat="42.86811" lon="-0.44959">
        <ele>1320.8</ele>
        <time>2021-08-09 11:57:04</time>
      </trkpt>
      <trkpt lat="42.8681" lon="-0.4496">
        <ele>1321</ele>
        <time>2021-08-09 11:57:05</time>
      </trkpt>
      <trkpt lat="42.8681" lon="-0.44962">
        <ele>1321.2</ele>
        <time>2021-08-09 11:57:06</time>
      </trkpt>
      <trkpt lat="42.86809" lon="-0.44963">
        <ele>1321.2</ele>
        <time>2021-08-09 11:57:07</time>
      </trkpt>
      <trkpt lat="42.86808" lon="-0.44965">
        <ele>1321.4</ele>
        <time>2021-08-09 11:57:08</time>
      </trkpt>
      <trkpt lat="42.86807" lon="-0.44966">
        <ele>1321.2</ele>
        <time>2021-08-09 11:57:09</time>
      </trkpt>
      <trkpt lat="42.86807" lon="-0.44967">
        <ele>1321.4</ele>
        <time>2021-08-09 11:57:10</time>
      </trkpt>
      <trkpt lat="42.86806" lon="-0.44968">
        <ele>1321.6</ele>
        <time>2021-08-09 11:57:11</time>
      </trkpt>
      <trkpt lat="42.86805" lon="-0.4497">
        <ele>1321.4</ele>
        <time>2021-08-09 11:57:12</time>
      </trkpt>
      <trkpt lat="42.86804" lon="-0.44971">
        <ele>1321.4</ele>
        <time>2021-08-09 11:57:13</time>
      </trkpt>
      <trkpt lat="42.86803" lon="-0.44972">
        <ele>1321.4</ele>
        <time>2021-08-09 11:57:14</time>
      </trkpt>
      <trkpt lat="42.86802" lon="-0.44973">
        <ele>1321.6</ele>
        <time>2021-08-09 11:57:15</time>
      </trkpt>
      <trkpt lat="42.86801" lon="-0.44975">
        <ele>1321.6</ele>
        <time>2021-08-09 11:57:16</time>
      </trkpt>
      <trkpt lat="42.868" lon="-0.44976">
        <ele>1322</ele>
        <time>2021-08-09 11:57:17</time>
      </trkpt>
      <trkpt lat="42.86799" lon="-0.44977">
        <ele>1322</ele>
        <time>2021-08-09 11:57:18</time>
      </trkpt>
      <trkpt lat="42.86799" lon="-0.44978">
        <ele>1321.8</ele>
        <time>2021-08-09 11:57:19</time>
      </trkpt>
      <trkpt lat="42.86798" lon="-0.44979">
        <ele>1321.4</ele>
        <time>2021-08-09 11:57:20</time>
      </trkpt>
      <trkpt lat="42.86797" lon="-0.44981">
        <ele>1321.6</ele>
        <time>2021-08-09 11:57:21</time>
      </trkpt>
      <trkpt lat="42.86796" lon="-0.44982">
        <ele>1321.4</ele>
        <time>2021-08-09 11:57:22</time>
      </trkpt>
      <trkpt lat="42.86795" lon="-0.44983">
        <ele>1321.6</ele>
        <time>2021-08-09 11:57:23</time>
      </trkpt>
      <trkpt lat="42.86795" lon="-0.44984">
        <ele>1321.4</ele>
        <time>2021-08-09 11:57:24</time>
      </trkpt>
      <trkpt lat="42.86794" lon="-0.44986">
        <ele>1321.4</ele>
        <time>2021-08-09 11:57:25</time>
      </trkpt>
      <trkpt lat="42.86792" lon="-0.44987">
        <ele>1320.8</ele>
        <time>2021-08-09 11:57:26</time>
      </trkpt>
      <trkpt lat="42.86791" lon="-0.44989">
        <ele>1320.8</ele>
        <time>2021-08-09 11:57:27</time>
      </trkpt>
      <trkpt lat="42.8679" lon="-0.4499">
        <ele>1320.6</ele>
        <time>2021-08-09 11:57:28</time>
      </trkpt>
      <trkpt lat="42.8679" lon="-0.44991">
        <ele>1320.8</ele>
        <time>2021-08-09 11:57:29</time>
      </trkpt>
      <trkpt lat="42.86788" lon="-0.44992">
        <ele>1321</ele>
        <time>2021-08-09 11:57:30</time>
      </trkpt>
      <trkpt lat="42.86786" lon="-0.44993">
        <ele>1321</ele>
        <time>2021-08-09 11:57:31</time>
      </trkpt>
      <trkpt lat="42.86785" lon="-0.44994">
        <ele>1321</ele>
        <time>2021-08-09 11:57:32</time>
      </trkpt>
      <trkpt lat="42.86784" lon="-0.44995">
        <ele>1321</ele>
        <time>2021-08-09 11:57:33</time>
      </trkpt>
      <trkpt lat="42.86783" lon="-0.44996">
        <ele>1321.2</ele>
        <time>2021-08-09 11:57:34</time>
      </trkpt>
      <trkpt lat="42.86782" lon="-0.44998">
        <ele>1321.2</ele>
        <time>2021-08-09 11:57:35</time>
      </trkpt>
      <trkpt lat="42.86782" lon="-0.44999">
        <ele>1321.2</ele>
        <time>2021-08-09 11:57:36</time>
      </trkpt>
      <trkpt lat="42.86781" lon="-0.45001">
        <ele>1321.2</ele>
        <time>2021-08-09 11:57:37</time>
      </trkpt>
      <trkpt lat="42.8678" lon="-0.45002">
        <ele>1321.2</ele>
        <time>2021-08-09 11:57:38</time>
      </trkpt>
      <trkpt lat="42.86779" lon="-0.45003">
        <ele>1321</ele>
        <time>2021-08-09 11:57:39</time>
      </trkpt>
      <trkpt lat="42.86777" lon="-0.45004">
        <ele>1321</ele>
        <time>2021-08-09 11:57:40</time>
      </trkpt>
      <trkpt lat="42.86776" lon="-0.45005">
        <ele>1321</ele>
        <time>2021-08-09 11:57:41</time>
      </trkpt>
      <trkpt lat="42.86775" lon="-0.45006">
        <ele>1320.8</ele>
        <time>2021-08-09 11:57:42</time>
      </trkpt>
      <trkpt lat="42.86774" lon="-0.45007">
        <ele>1320.6</ele>
        <time>2021-08-09 11:57:43</time>
      </trkpt>
      <trkpt lat="42.86772" lon="-0.45008">
        <ele>1320.6</ele>
        <time>2021-08-09 11:57:44</time>
      </trkpt>
      <trkpt lat="42.86771" lon="-0.45009">
        <ele>1320.4</ele>
        <time>2021-08-09 11:57:45</time>
      </trkpt>
      <trkpt lat="42.8677" lon="-0.4501">
        <ele>1320.4</ele>
        <time>2021-08-09 11:57:46</time>
      </trkpt>
      <trkpt lat="42.86769" lon="-0.45012">
        <ele>1320.4</ele>
        <time>2021-08-09 11:57:47</time>
      </trkpt>
      <trkpt lat="42.86767" lon="-0.45013">
        <ele>1320.4</ele>
        <time>2021-08-09 11:57:48</time>
      </trkpt>
      <trkpt lat="42.86766" lon="-0.45014">
        <ele>1320.4</ele>
        <time>2021-08-09 11:57:49</time>
      </trkpt>
      <trkpt lat="42.86766" lon="-0.45014">
        <ele>1320.4</ele>
        <time>2021-08-09 11:57:50</time>
      </trkpt>
      <trkpt lat="42.86764" lon="-0.45016">
        <ele>1320.2</ele>
        <time>2021-08-09 11:57:51</time>
      </trkpt>
      <trkpt lat="42.86763" lon="-0.45017">
        <ele>1320.4</ele>
        <time>2021-08-09 11:57:52</time>
      </trkpt>
      <trkpt lat="42.86763" lon="-0.45017">
        <ele>1320.2</ele>
        <time>2021-08-09 11:57:53</time>
      </trkpt>
      <trkpt lat="42.86762" lon="-0.45018">
        <ele>1320</ele>
        <time>2021-08-09 11:57:54</time>
      </trkpt>
      <trkpt lat="42.86761" lon="-0.45019">
        <ele>1320.2</ele>
        <time>2021-08-09 11:57:55</time>
      </trkpt>
      <trkpt lat="42.86759" lon="-0.4502">
        <ele>1320.2</ele>
        <time>2021-08-09 11:57:56</time>
      </trkpt>
      <trkpt lat="42.86758" lon="-0.4502">
        <ele>1320</ele>
        <time>2021-08-09 11:57:57</time>
      </trkpt>
      <trkpt lat="42.86757" lon="-0.45021">
        <ele>1320</ele>
        <time>2021-08-09 11:57:58</time>
      </trkpt>
      <trkpt lat="42.86756" lon="-0.45022">
        <ele>1320</ele>
        <time>2021-08-09 11:57:59</time>
      </trkpt>
      <trkpt lat="42.86755" lon="-0.45023">
        <ele>1320</ele>
        <time>2021-08-09 11:58:00</time>
      </trkpt>
      <trkpt lat="42.86754" lon="-0.45024">
        <ele>1319.8</ele>
        <time>2021-08-09 11:58:01</time>
      </trkpt>
      <trkpt lat="42.86752" lon="-0.45025">
        <ele>1319.6</ele>
        <time>2021-08-09 11:58:02</time>
      </trkpt>
      <trkpt lat="42.8675" lon="-0.45025">
        <ele>1319.8</ele>
        <time>2021-08-09 11:58:03</time>
      </trkpt>
      <trkpt lat="42.86749" lon="-0.45026">
        <ele>1320</ele>
        <time>2021-08-09 11:58:04</time>
      </trkpt>
      <trkpt lat="42.86747" lon="-0.45026">
        <ele>1320</ele>
        <time>2021-08-09 11:58:05</time>
      </trkpt>
      <trkpt lat="42.86746" lon="-0.45026">
        <ele>1319.8</ele>
        <time>2021-08-09 11:58:06</time>
      </trkpt>
      <trkpt lat="42.86745" lon="-0.45027">
        <ele>1319.8</ele>
        <time>2021-08-09 11:58:07</time>
      </trkpt>
      <trkpt lat="42.86744" lon="-0.45028">
        <ele>1320</ele>
        <time>2021-08-09 11:58:08</time>
      </trkpt>
      <trkpt lat="42.86743" lon="-0.45028">
        <ele>1320</ele>
        <time>2021-08-09 11:58:09</time>
      </trkpt>
      <trkpt lat="42.86743" lon="-0.45029">
        <ele>1320</ele>
        <time>2021-08-09 11:58:10</time>
      </trkpt>
      <trkpt lat="42.86742" lon="-0.45029">
        <ele>1319.8</ele>
        <time>2021-08-09 11:58:11</time>
      </trkpt>
      <trkpt lat="42.86741" lon="-0.45029">
        <ele>1319.8</ele>
        <time>2021-08-09 11:58:12</time>
      </trkpt>
      <trkpt lat="42.8674" lon="-0.45029">
        <ele>1320.2</ele>
        <time>2021-08-09 11:58:13</time>
      </trkpt>
      <trkpt lat="42.86739" lon="-0.45029">
        <ele>1320.4</ele>
        <time>2021-08-09 11:58:14</time>
      </trkpt>
      <trkpt lat="42.86738" lon="-0.45029">
        <ele>1320.6</ele>
        <time>2021-08-09 11:58:15</time>
      </trkpt>
      <trkpt lat="42.86737" lon="-0.45029">
        <ele>1320.6</ele>
        <time>2021-08-09 11:58:16</time>
      </trkpt>
      <trkpt lat="42.86736" lon="-0.45029">
        <ele>1321</ele>
        <time>2021-08-09 11:58:17</time>
      </trkpt>
      <trkpt lat="42.86734" lon="-0.45028">
        <ele>1321</ele>
        <time>2021-08-09 11:58:18</time>
      </trkpt>
      <trkpt lat="42.86733" lon="-0.45028">
        <ele>1321.2</ele>
        <time>2021-08-09 11:58:19</time>
      </trkpt>
      <trkpt lat="42.86733" lon="-0.45028">
        <ele>1321.4</ele>
        <time>2021-08-09 11:58:20</time>
      </trkpt>
      <trkpt lat="42.86732" lon="-0.45028">
        <ele>1321.6</ele>
        <time>2021-08-09 11:58:21</time>
      </trkpt>
      <trkpt lat="42.8673" lon="-0.45028">
        <ele>1321.6</ele>
        <time>2021-08-09 11:58:22</time>
      </trkpt>
      <trkpt lat="42.86729" lon="-0.45027">
        <ele>1321.8</ele>
        <time>2021-08-09 11:58:23</time>
      </trkpt>
      <trkpt lat="42.86728" lon="-0.45027">
        <ele>1322</ele>
        <time>2021-08-09 11:58:24</time>
      </trkpt>
      <trkpt lat="42.86727" lon="-0.45027">
        <ele>1322</ele>
        <time>2021-08-09 11:58:25</time>
      </trkpt>
      <trkpt lat="42.86726" lon="-0.45026">
        <ele>1322.2</ele>
        <time>2021-08-09 11:58:26</time>
      </trkpt>
      <trkpt lat="42.86725" lon="-0.45026">
        <ele>1322</ele>
        <time>2021-08-09 11:58:27</time>
      </trkpt>
      <trkpt lat="42.86723" lon="-0.45025">
        <ele>1322.2</ele>
        <time>2021-08-09 11:58:28</time>
      </trkpt>
      <trkpt lat="42.86721" lon="-0.45024">
        <ele>1322.2</ele>
        <time>2021-08-09 11:58:29</time>
      </trkpt>
      <trkpt lat="42.8672" lon="-0.45024">
        <ele>1322.2</ele>
        <time>2021-08-09 11:58:30</time>
      </trkpt>
      <trkpt lat="42.86718" lon="-0.45024">
        <ele>1322</ele>
        <time>2021-08-09 11:58:31</time>
      </trkpt>
      <trkpt lat="42.86717" lon="-0.45024">
        <ele>1322.2</ele>
        <time>2021-08-09 11:58:32</time>
      </trkpt>
      <trkpt lat="42.86716" lon="-0.45024">
        <ele>1322</ele>
        <time>2021-08-09 11:58:33</time>
      </trkpt>
      <trkpt lat="42.86715" lon="-0.45023">
        <ele>1322.2</ele>
        <time>2021-08-09 11:58:34</time>
      </trkpt>
      <trkpt lat="42.86714" lon="-0.45023">
        <ele>1322</ele>
        <time>2021-08-09 11:58:35</time>
      </trkpt>
      <trkpt lat="42.86713" lon="-0.45022">
        <ele>1322</ele>
        <time>2021-08-09 11:58:36</time>
      </trkpt>
      <trkpt lat="42.86712" lon="-0.45022">
        <ele>1322</ele>
        <time>2021-08-09 11:58:37</time>
      </trkpt>
      <trkpt lat="42.86711" lon="-0.45022">
        <ele>1322</ele>
        <time>2021-08-09 11:58:38</time>
      </trkpt>
      <trkpt lat="42.86709" lon="-0.45022">
        <ele>1322.2</ele>
        <time>2021-08-09 11:58:39</time>
      </trkpt>
      <trkpt lat="42.86709" lon="-0.45021">
        <ele>1322.4</ele>
        <time>2021-08-09 11:58:40</time>
      </trkpt>
      <trkpt lat="42.86708" lon="-0.4502">
        <ele>1322.4</ele>
        <time>2021-08-09 11:58:41</time>
      </trkpt>
      <trkpt lat="42.86706" lon="-0.4502">
        <ele>1322.4</ele>
        <time>2021-08-09 11:58:42</time>
      </trkpt>
      <trkpt lat="42.86704" lon="-0.4502">
        <ele>1322.4</ele>
        <time>2021-08-09 11:58:43</time>
      </trkpt>
      <trkpt lat="42.86703" lon="-0.45019">
        <ele>1322.4</ele>
        <time>2021-08-09 11:58:44</time>
      </trkpt>
      <trkpt lat="42.86701" lon="-0.45018">
        <ele>1322.2</ele>
        <time>2021-08-09 11:58:45</time>
      </trkpt>
      <trkpt lat="42.867" lon="-0.45018">
        <ele>1322.4</ele>
        <time>2021-08-09 11:58:46</time>
      </trkpt>
      <trkpt lat="42.86699" lon="-0.45018">
        <ele>1322.2</ele>
        <time>2021-08-09 11:58:47</time>
      </trkpt>
      <trkpt lat="42.86697" lon="-0.45018">
        <ele>1322.2</ele>
        <time>2021-08-09 11:58:48</time>
      </trkpt>
      <trkpt lat="42.86695" lon="-0.45018">
        <ele>1322</ele>
        <time>2021-08-09 11:58:49</time>
      </trkpt>
      <trkpt lat="42.86694" lon="-0.45018">
        <ele>1322.2</ele>
        <time>2021-08-09 11:58:50</time>
      </trkpt>
      <trkpt lat="42.86692" lon="-0.45018">
        <ele>1322</ele>
        <time>2021-08-09 11:58:51</time>
      </trkpt>
      <trkpt lat="42.86691" lon="-0.45018">
        <ele>1322</ele>
        <time>2021-08-09 11:58:52</time>
      </trkpt>
      <trkpt lat="42.86689" lon="-0.45018">
        <ele>1322.2</ele>
        <time>2021-08-09 11:58:53</time>
      </trkpt>
      <trkpt lat="42.86687" lon="-0.45018">
        <ele>1322.2</ele>
        <time>2021-08-09 11:58:54</time>
      </trkpt>
      <trkpt lat="42.86686" lon="-0.45018">
        <ele>1322.4</ele>
        <time>2021-08-09 11:58:55</time>
      </trkpt>
      <trkpt lat="42.86685" lon="-0.45017">
        <ele>1322.4</ele>
        <time>2021-08-09 11:58:56</time>
      </trkpt>
      <trkpt lat="42.86684" lon="-0.45018">
        <ele>1322.4</ele>
        <time>2021-08-09 11:58:57</time>
      </trkpt>
      <trkpt lat="42.86683" lon="-0.45018">
        <ele>1322.6</ele>
        <time>2021-08-09 11:58:58</time>
      </trkpt>
      <trkpt lat="42.86681" lon="-0.45018">
        <ele>1322.8</ele>
        <time>2021-08-09 11:58:59</time>
      </trkpt>
      <trkpt lat="42.8668" lon="-0.45017">
        <ele>1323.2</ele>
        <time>2021-08-09 11:59:00</time>
      </trkpt>
      <trkpt lat="42.86679" lon="-0.45017">
        <ele>1323.4</ele>
        <time>2021-08-09 11:59:01</time>
      </trkpt>
      <trkpt lat="42.86677" lon="-0.45016">
        <ele>1323.6</ele>
        <time>2021-08-09 11:59:02</time>
      </trkpt>
      <trkpt lat="42.86675" lon="-0.45015">
        <ele>1323.8</ele>
        <time>2021-08-09 11:59:03</time>
      </trkpt>
      <trkpt lat="42.86674" lon="-0.45017">
        <ele>1323.8</ele>
        <time>2021-08-09 11:59:04</time>
      </trkpt>
      <trkpt lat="42.86672" lon="-0.45016">
        <ele>1324</ele>
        <time>2021-08-09 11:59:05</time>
      </trkpt>
      <trkpt lat="42.8667" lon="-0.45016">
        <ele>1324</ele>
        <time>2021-08-09 11:59:06</time>
      </trkpt>
      <trkpt lat="42.86669" lon="-0.45016">
        <ele>1324</ele>
        <time>2021-08-09 11:59:07</time>
      </trkpt>
      <trkpt lat="42.86668" lon="-0.45015">
        <ele>1324.2</ele>
        <time>2021-08-09 11:59:08</time>
      </trkpt>
      <trkpt lat="42.86666" lon="-0.45014">
        <ele>1324.2</ele>
        <time>2021-08-09 11:59:09</time>
      </trkpt>
      <trkpt lat="42.86665" lon="-0.45014">
        <ele>1324.4</ele>
        <time>2021-08-09 11:59:10</time>
      </trkpt>
      <trkpt lat="42.86663" lon="-0.45014">
        <ele>1324.4</ele>
        <time>2021-08-09 11:59:11</time>
      </trkpt>
      <trkpt lat="42.86662" lon="-0.45014">
        <ele>1324.2</ele>
        <time>2021-08-09 11:59:12</time>
      </trkpt>
      <trkpt lat="42.86661" lon="-0.45013">
        <ele>1324.2</ele>
        <time>2021-08-09 11:59:13</time>
      </trkpt>
      <trkpt lat="42.86659" lon="-0.45012">
        <ele>1324.2</ele>
        <time>2021-08-09 11:59:14</time>
      </trkpt>
      <trkpt lat="42.86658" lon="-0.45012">
        <ele>1324.4</ele>
        <time>2021-08-09 11:59:15</time>
      </trkpt>
      <trkpt lat="42.86656" lon="-0.4501">
        <ele>1324.4</ele>
        <time>2021-08-09 11:59:16</time>
      </trkpt>
      <trkpt lat="42.86655" lon="-0.4501">
        <ele>1324.4</ele>
        <time>2021-08-09 11:59:17</time>
      </trkpt>
      <trkpt lat="42.86653" lon="-0.4501">
        <ele>1324.4</ele>
        <time>2021-08-09 11:59:18</time>
      </trkpt>
      <trkpt lat="42.86651" lon="-0.45009">
        <ele>1324.4</ele>
        <time>2021-08-09 11:59:19</time>
      </trkpt>
      <trkpt lat="42.86651" lon="-0.45008">
        <ele>1324.4</ele>
        <time>2021-08-09 11:59:20</time>
      </trkpt>
      <trkpt lat="42.86649" lon="-0.45008">
        <ele>1324.4</ele>
        <time>2021-08-09 11:59:21</time>
      </trkpt>
      <trkpt lat="42.86648" lon="-0.45007">
        <ele>1324.2</ele>
        <time>2021-08-09 11:59:22</time>
      </trkpt>
      <trkpt lat="42.86648" lon="-0.45007">
        <ele>1324.2</ele>
        <time>2021-08-09 11:59:23</time>
      </trkpt>
      <trkpt lat="42.86646" lon="-0.45007">
        <ele>1324.4</ele>
        <time>2021-08-09 11:59:24</time>
      </trkpt>
      <trkpt lat="42.86645" lon="-0.45006">
        <ele>1324.2</ele>
        <time>2021-08-09 11:59:25</time>
      </trkpt>
      <trkpt lat="42.86643" lon="-0.45005">
        <ele>1324.2</ele>
        <time>2021-08-09 11:59:26</time>
      </trkpt>
      <trkpt lat="42.86643" lon="-0.45005">
        <ele>1324</ele>
        <time>2021-08-09 11:59:27</time>
      </trkpt>
      <trkpt lat="42.86642" lon="-0.45005">
        <ele>1324.2</ele>
        <time>2021-08-09 11:59:28</time>
      </trkpt>
      <trkpt lat="42.86641" lon="-0.45004">
        <ele>1324.2</ele>
        <time>2021-08-09 11:59:29</time>
      </trkpt>
      <trkpt lat="42.86639" lon="-0.45004">
        <ele>1324</ele>
        <time>2021-08-09 11:59:30</time>
      </trkpt>
      <trkpt lat="42.86639" lon="-0.45003">
        <ele>1324.2</ele>
        <time>2021-08-09 11:59:31</time>
      </trkpt>
      <trkpt lat="42.86638" lon="-0.45002">
        <ele>1324.2</ele>
        <time>2021-08-09 11:59:32</time>
      </trkpt>
      <trkpt lat="42.86637" lon="-0.45001">
        <ele>1324.2</ele>
        <time>2021-08-09 11:59:33</time>
      </trkpt>
      <trkpt lat="42.86636" lon="-0.45001">
        <ele>1324.2</ele>
        <time>2021-08-09 11:59:34</time>
      </trkpt>
      <trkpt lat="42.86634" lon="-0.45001">
        <ele>1324.2</ele>
        <time>2021-08-09 11:59:35</time>
      </trkpt>
      <trkpt lat="42.86633" lon="-0.45">
        <ele>1324.2</ele>
        <time>2021-08-09 11:59:36</time>
      </trkpt>
      <trkpt lat="42.86632" lon="-0.45">
        <ele>1324.2</ele>
        <time>2021-08-09 11:59:37</time>
      </trkpt>
      <trkpt lat="42.8663" lon="-0.45">
        <ele>1324</ele>
        <time>2021-08-09 11:59:38</time>
      </trkpt>
      <trkpt lat="42.86629" lon="-0.45">
        <ele>1324.2</ele>
        <time>2021-08-09 11:59:39</time>
      </trkpt>
      <trkpt lat="42.86628" lon="-0.45">
        <ele>1324.4</ele>
        <time>2021-08-09 11:59:40</time>
      </trkpt>
      <trkpt lat="42.86628" lon="-0.45">
        <ele>1324.2</ele>
        <time>2021-08-09 11:59:41</time>
      </trkpt>
      <trkpt lat="42.86627" lon="-0.45">
        <ele>1324.2</ele>
        <time>2021-08-09 11:59:42</time>
      </trkpt>
      <trkpt lat="42.86625" lon="-0.45001">
        <ele>1324.4</ele>
        <time>2021-08-09 11:59:43</time>
      </trkpt>
      <trkpt lat="42.86624" lon="-0.45001">
        <ele>1324.6</ele>
        <time>2021-08-09 11:59:44</time>
      </trkpt>
      <trkpt lat="42.86622" lon="-0.45002">
        <ele>1324.4</ele>
        <time>2021-08-09 11:59:45</time>
      </trkpt>
      <trkpt lat="42.86621" lon="-0.45002">
        <ele>1324.2</ele>
        <time>2021-08-09 11:59:46</time>
      </trkpt>
      <trkpt lat="42.8662" lon="-0.45002">
        <ele>1324.2</ele>
        <time>2021-08-09 11:59:47</time>
      </trkpt>
      <trkpt lat="42.86617" lon="-0.45003">
        <ele>1324.2</ele>
        <time>2021-08-09 11:59:48</time>
      </trkpt>
      <trkpt lat="42.86614" lon="-0.45004">
        <ele>1324.4</ele>
        <time>2021-08-09 11:59:49</time>
      </trkpt>
      <trkpt lat="42.86612" lon="-0.45005">
        <ele>1324.4</ele>
        <time>2021-08-09 11:59:50</time>
      </trkpt>
      <trkpt lat="42.8661" lon="-0.45005">
        <ele>1324.4</ele>
        <time>2021-08-09 11:59:51</time>
      </trkpt>
      <trkpt lat="42.86609" lon="-0.45006">
        <ele>1324.4</ele>
        <time>2021-08-09 11:59:52</time>
      </trkpt>
      <trkpt lat="42.86607" lon="-0.45006">
        <ele>1324.4</ele>
        <time>2021-08-09 11:59:53</time>
      </trkpt>
      <trkpt lat="42.86606" lon="-0.45007">
        <ele>1324.2</ele>
        <time>2021-08-09 11:59:54</time>
      </trkpt>
      <trkpt lat="42.86604" lon="-0.45008">
        <ele>1324</ele>
        <time>2021-08-09 11:59:55</time>
      </trkpt>
      <trkpt lat="42.86602" lon="-0.45009">
        <ele>1324</ele>
        <time>2021-08-09 11:59:56</time>
      </trkpt>
      <trkpt lat="42.86601" lon="-0.4501">
        <ele>1324.2</ele>
        <time>2021-08-09 11:59:57</time>
      </trkpt>
      <trkpt lat="42.866" lon="-0.45011">
        <ele>1323.8</ele>
        <time>2021-08-09 11:59:58</time>
      </trkpt>
      <trkpt lat="42.86599" lon="-0.45012">
        <ele>1323.8</ele>
        <time>2021-08-09 11:59:59</time>
      </trkpt>
      <trkpt lat="42.86597" lon="-0.45012">
        <ele>1324</ele>
        <time>2021-08-09 12:00:00</time>
      </trkpt>
      <trkpt lat="42.86596" lon="-0.45013">
        <ele>1324</ele>
        <time>2021-08-09 12:00:01</time>
      </trkpt>
      <trkpt lat="42.86595" lon="-0.45014">
        <ele>1323.8</ele>
        <time>2021-08-09 12:00:02</time>
      </trkpt>
      <trkpt lat="42.86594" lon="-0.45015">
        <ele>1323.8</ele>
        <time>2021-08-09 12:00:03</time>
      </trkpt>
      <trkpt lat="42.86593" lon="-0.45016">
        <ele>1324</ele>
        <time>2021-08-09 12:00:04</time>
      </trkpt>
      <trkpt lat="42.86591" lon="-0.45017">
        <ele>1323.8</ele>
        <time>2021-08-09 12:00:05</time>
      </trkpt>
      <trkpt lat="42.8659" lon="-0.45017">
        <ele>1323.8</ele>
        <time>2021-08-09 12:00:06</time>
      </trkpt>
      <trkpt lat="42.86589" lon="-0.45018">
        <ele>1323.4</ele>
        <time>2021-08-09 12:00:07</time>
      </trkpt>
      <trkpt lat="42.86588" lon="-0.45019">
        <ele>1323.4</ele>
        <time>2021-08-09 12:00:08</time>
      </trkpt>
      <trkpt lat="42.86588" lon="-0.4502">
        <ele>1323.2</ele>
        <time>2021-08-09 12:00:09</time>
      </trkpt>
      <trkpt lat="42.86588" lon="-0.45021">
        <ele>1323.2</ele>
        <time>2021-08-09 12:00:10</time>
      </trkpt>
      <trkpt lat="42.86588" lon="-0.45021">
        <ele>1323.2</ele>
        <time>2021-08-09 12:00:11</time>
      </trkpt>
      <trkpt lat="42.86588" lon="-0.45022">
        <ele>1323.4</ele>
        <time>2021-08-09 12:00:12</time>
      </trkpt>
      <trkpt lat="42.86587" lon="-0.45023">
        <ele>1323.4</ele>
        <time>2021-08-09 12:00:13</time>
      </trkpt>
      <trkpt lat="42.86587" lon="-0.45024">
        <ele>1323.4</ele>
        <time>2021-08-09 12:00:14</time>
      </trkpt>
      <trkpt lat="42.86587" lon="-0.45025">
        <ele>1323.2</ele>
        <time>2021-08-09 12:00:15</time>
      </trkpt>
      <trkpt lat="42.86587" lon="-0.45026">
        <ele>1323</ele>
        <time>2021-08-09 12:00:16</time>
      </trkpt>
      <trkpt lat="42.86586" lon="-0.45027">
        <ele>1323</ele>
        <time>2021-08-09 12:00:17</time>
      </trkpt>
      <trkpt lat="42.86586" lon="-0.45028">
        <ele>1323</ele>
        <time>2021-08-09 12:00:18</time>
      </trkpt>
      <trkpt lat="42.86586" lon="-0.45029">
        <ele>1322.8</ele>
        <time>2021-08-09 12:00:19</time>
      </trkpt>
      <trkpt lat="42.86586" lon="-0.45031">
        <ele>1322.6</ele>
        <time>2021-08-09 12:00:20</time>
      </trkpt>
      <trkpt lat="42.86585" lon="-0.45032">
        <ele>1322.4</ele>
        <time>2021-08-09 12:00:21</time>
      </trkpt>
      <trkpt lat="42.86584" lon="-0.45032">
        <ele>1322.8</ele>
        <time>2021-08-09 12:00:22</time>
      </trkpt>
      <trkpt lat="42.86583" lon="-0.45033">
        <ele>1322.8</ele>
        <time>2021-08-09 12:00:23</time>
      </trkpt>
      <trkpt lat="42.86582" lon="-0.45033">
        <ele>1322.8</ele>
        <time>2021-08-09 12:00:24</time>
      </trkpt>
      <trkpt lat="42.86581" lon="-0.45034">
        <ele>1322.8</ele>
        <time>2021-08-09 12:00:25</time>
      </trkpt>
      <trkpt lat="42.8658" lon="-0.45035">
        <ele>1322.8</ele>
        <time>2021-08-09 12:00:26</time>
      </trkpt>
      <trkpt lat="42.86579" lon="-0.45036">
        <ele>1322.6</ele>
        <time>2021-08-09 12:00:27</time>
      </trkpt>
      <trkpt lat="42.86578" lon="-0.45037">
        <ele>1322.8</ele>
        <time>2021-08-09 12:00:28</time>
      </trkpt>
      <trkpt lat="42.86577" lon="-0.45038">
        <ele>1322.8</ele>
        <time>2021-08-09 12:00:29</time>
      </trkpt>
      <trkpt lat="42.86576" lon="-0.45038">
        <ele>1322.6</ele>
        <time>2021-08-09 12:00:30</time>
      </trkpt>
      <trkpt lat="42.86575" lon="-0.45039">
        <ele>1322.4</ele>
        <time>2021-08-09 12:00:31</time>
      </trkpt>
      <trkpt lat="42.86574" lon="-0.45039">
        <ele>1322.6</ele>
        <time>2021-08-09 12:00:32</time>
      </trkpt>
      <trkpt lat="42.86573" lon="-0.4504">
        <ele>1323</ele>
        <time>2021-08-09 12:00:33</time>
      </trkpt>
      <trkpt lat="42.86572" lon="-0.45041">
        <ele>1322.8</ele>
        <time>2021-08-09 12:00:34</time>
      </trkpt>
      <trkpt lat="42.86572" lon="-0.45042">
        <ele>1323</ele>
        <time>2021-08-09 12:00:35</time>
      </trkpt>
      <trkpt lat="42.86572" lon="-0.45041">
        <ele>1323</ele>
        <time>2021-08-09 12:00:36</time>
      </trkpt>
      <trkpt lat="42.86573" lon="-0.45041">
        <ele>1323.2</ele>
        <time>2021-08-09 12:00:37</time>
      </trkpt>
      <trkpt lat="42.86574" lon="-0.45041">
        <ele>1323.2</ele>
        <time>2021-08-09 12:00:38</time>
      </trkpt>
      <trkpt lat="42.86574" lon="-0.45041">
        <ele>1323.4</ele>
        <time>2021-08-09 12:00:39</time>
      </trkpt>
      <trkpt lat="42.86574" lon="-0.45041">
        <ele>1323.4</ele>
        <time>2021-08-09 12:00:40</time>
      </trkpt>
      <trkpt lat="42.86574" lon="-0.45041">
        <ele>1323.4</ele>
        <time>2021-08-09 12:00:41</time>
      </trkpt>
      <trkpt lat="42.86573" lon="-0.45041">
        <ele>1323.4</ele>
        <time>2021-08-09 12:00:42</time>
      </trkpt>
      <trkpt lat="42.86573" lon="-0.45042">
        <ele>1323</ele>
        <time>2021-08-09 12:00:43</time>
      </trkpt>
      <trkpt lat="42.86573" lon="-0.45043">
        <ele>1322.8</ele>
        <time>2021-08-09 12:00:44</time>
      </trkpt>
      <trkpt lat="42.86571" lon="-0.45044">
        <ele>1322.4</ele>
        <time>2021-08-09 12:00:45</time>
      </trkpt>
      <trkpt lat="42.86571" lon="-0.45044">
        <ele>1322.4</ele>
        <time>2021-08-09 12:00:46</time>
      </trkpt>
      <trkpt lat="42.8657" lon="-0.45045">
        <ele>1322.2</ele>
        <time>2021-08-09 12:00:47</time>
      </trkpt>
      <trkpt lat="42.86569" lon="-0.45046">
        <ele>1322.2</ele>
        <time>2021-08-09 12:00:48</time>
      </trkpt>
      <trkpt lat="42.86568" lon="-0.45046">
        <ele>1322</ele>
        <time>2021-08-09 12:00:49</time>
      </trkpt>
      <trkpt lat="42.86567" lon="-0.45046">
        <ele>1322.2</ele>
        <time>2021-08-09 12:00:50</time>
      </trkpt>
      <trkpt lat="42.86566" lon="-0.45047">
        <ele>1322.4</ele>
        <time>2021-08-09 12:00:51</time>
      </trkpt>
      <trkpt lat="42.86566" lon="-0.45047">
        <ele>1322.4</ele>
        <time>2021-08-09 12:00:52</time>
      </trkpt>
      <trkpt lat="42.86565" lon="-0.45048">
        <ele>1322</ele>
        <time>2021-08-09 12:00:53</time>
      </trkpt>
      <trkpt lat="42.86565" lon="-0.45049">
        <ele>1322.2</ele>
        <time>2021-08-09 12:00:54</time>
      </trkpt>
      <trkpt lat="42.86564" lon="-0.45049">
        <ele>1322.2</ele>
        <time>2021-08-09 12:00:55</time>
      </trkpt>
      <trkpt lat="42.86564" lon="-0.45049">
        <ele>1322.4</ele>
        <time>2021-08-09 12:00:56</time>
      </trkpt>
      <trkpt lat="42.86561" lon="-0.45048">
        <ele>1322.2</ele>
        <time>2021-08-09 12:00:57</time>
      </trkpt>
      <trkpt lat="42.86559" lon="-0.45048">
        <ele>1322.4</ele>
        <time>2021-08-09 12:00:58</time>
      </trkpt>
      <trkpt lat="42.86557" lon="-0.45048">
        <ele>1322</ele>
        <time>2021-08-09 12:01:05</time>
      </trkpt>
      <trkpt lat="42.86554" lon="-0.45049">
        <ele>1321.8</ele>
        <time>2021-08-09 12:01:07</time>
      </trkpt>
      <trkpt lat="42.86553" lon="-0.45048">
        <ele>1321.8</ele>
        <time>2021-08-09 12:01:08</time>
      </trkpt>
      <trkpt lat="42.86551" lon="-0.45048">
        <ele>1321.8</ele>
        <time>2021-08-09 12:01:09</time>
      </trkpt>
      <trkpt lat="42.86549" lon="-0.45048">
        <ele>1321.8</ele>
        <time>2021-08-09 12:01:10</time>
      </trkpt>
      <trkpt lat="42.86547" lon="-0.45049">
        <ele>1321.8</ele>
        <time>2021-08-09 12:01:11</time>
      </trkpt>
      <trkpt lat="42.86546" lon="-0.45049">
        <ele>1321.8</ele>
        <time>2021-08-09 12:01:12</time>
      </trkpt>
      <trkpt lat="42.86544" lon="-0.45049">
        <ele>1321.8</ele>
        <time>2021-08-09 12:01:13</time>
      </trkpt>
      <trkpt lat="42.86543" lon="-0.45049">
        <ele>1322</ele>
        <time>2021-08-09 12:01:14</time>
      </trkpt>
      <trkpt lat="42.86542" lon="-0.45048">
        <ele>1321.8</ele>
        <time>2021-08-09 12:01:15</time>
      </trkpt>
      <trkpt lat="42.86541" lon="-0.45048">
        <ele>1321.6</ele>
        <time>2021-08-09 12:01:16</time>
      </trkpt>
      <trkpt lat="42.86539" lon="-0.45047">
        <ele>1321.6</ele>
        <time>2021-08-09 12:01:17</time>
      </trkpt>
      <trkpt lat="42.86538" lon="-0.45047">
        <ele>1321.6</ele>
        <time>2021-08-09 12:01:18</time>
      </trkpt>
      <trkpt lat="42.86537" lon="-0.45047">
        <ele>1321.6</ele>
        <time>2021-08-09 12:01:19</time>
      </trkpt>
      <trkpt lat="42.86535" lon="-0.45046">
        <ele>1321.4</ele>
        <time>2021-08-09 12:01:20</time>
      </trkpt>
      <trkpt lat="42.86534" lon="-0.45046">
        <ele>1321.6</ele>
        <time>2021-08-09 12:01:21</time>
      </trkpt>
      <trkpt lat="42.86533" lon="-0.45046">
        <ele>1321.4</ele>
        <time>2021-08-09 12:01:22</time>
      </trkpt>
      <trkpt lat="42.86532" lon="-0.45046">
        <ele>1321.4</ele>
        <time>2021-08-09 12:01:23</time>
      </trkpt>
      <trkpt lat="42.86531" lon="-0.45046">
        <ele>1321.4</ele>
        <time>2021-08-09 12:01:24</time>
      </trkpt>
      <trkpt lat="42.8653" lon="-0.45045">
        <ele>1321.4</ele>
      </trkpt>
      <trkpt lat="42.86529" lon="-0.45044">
        <ele>1321.2</ele>
        <time>2021-08-09 12:01:25</time>
      </trkpt>
      <trkpt lat="42.86528" lon="-0.45044">
        <ele>1321.2</ele>
        <time>2021-08-09 12:01:26</time>
      </trkpt>
      <trkpt lat="42.86528" lon="-0.45043">
        <ele>1321.2</ele>
        <time>2021-08-09 12:01:27</time>
      </trkpt>
      <trkpt lat="42.86526" lon="-0.45041">
        <ele>1321</ele>
        <time>2021-08-09 12:01:29</time>
      </trkpt>
      <trkpt lat="42.86525" lon="-0.4504">
        <ele>1320.8</ele>
      </trkpt>
      <trkpt lat="42.86524" lon="-0.4504">
        <ele>1320.6</ele>
        <time>2021-08-09 12:01:30</time>
      </trkpt>
      <trkpt lat="42.86522" lon="-0.45039">
        <ele>1320.4</ele>
        <time>2021-08-09 12:01:31</time>
      </trkpt>
      <trkpt lat="42.8652" lon="-0.45037">
        <ele>1320.4</ele>
        <time>2021-08-09 12:01:32</time>
      </trkpt>
      <trkpt lat="42.8652" lon="-0.45037">
        <ele>1320.6</ele>
        <time>2021-08-09 12:01:33</time>
      </trkpt>
      <trkpt lat="42.86518" lon="-0.45036">
        <ele>1320.6</ele>
        <time>2021-08-09 12:01:34</time>
      </trkpt>
      <trkpt lat="42.86517" lon="-0.45035">
        <ele>1320.6</ele>
        <time>2021-08-09 12:01:35</time>
      </trkpt>
      <trkpt lat="42.86515" lon="-0.45035">
        <ele>1320.6</ele>
        <time>2021-08-09 12:01:36</time>
      </trkpt>
      <trkpt lat="42.86516" lon="-0.45035">
        <ele>1320.6</ele>
        <time>2021-08-09 12:01:37</time>
      </trkpt>
      <trkpt lat="42.86515" lon="-0.45035">
        <ele>1320.6</ele>
        <time>2021-08-09 12:01:38</time>
      </trkpt>
      <trkpt lat="42.86513" lon="-0.45034">
        <ele>1320.8</ele>
        <time>2021-08-09 12:01:39</time>
      </trkpt>
      <trkpt lat="42.86512" lon="-0.45033">
        <ele>1321</ele>
        <time>2021-08-09 12:01:40</time>
      </trkpt>
      <trkpt lat="42.86511" lon="-0.45033">
        <ele>1321</ele>
        <time>2021-08-09 12:01:41</time>
      </trkpt>
      <trkpt lat="42.86508" lon="-0.45033">
        <ele>1321</ele>
        <time>2021-08-09 12:01:42</time>
      </trkpt>
      <trkpt lat="42.86505" lon="-0.45033">
        <ele>1321</ele>
        <time>2021-08-09 12:01:43</time>
      </trkpt>
      <trkpt lat="42.86503" lon="-0.45033">
        <ele>1321</ele>
        <time>2021-08-09 12:01:44</time>
      </trkpt>
      <trkpt lat="42.86501" lon="-0.45032">
        <ele>1321.2</ele>
        <time>2021-08-09 12:01:45</time>
      </trkpt>
      <trkpt lat="42.865" lon="-0.45032">
        <ele>1321.2</ele>
        <time>2021-08-09 12:01:46</time>
      </trkpt>
      <trkpt lat="42.86497" lon="-0.45033">
        <ele>1321.2</ele>
        <time>2021-08-09 12:01:48</time>
      </trkpt>
      <trkpt lat="42.86496" lon="-0.45033">
        <ele>1321.2</ele>
      </trkpt>
      <trkpt lat="42.86495" lon="-0.45033">
        <ele>1321.2</ele>
        <time>2021-08-09 12:01:49</time>
      </trkpt>
      <trkpt lat="42.86494" lon="-0.45032">
        <ele>1321.2</ele>
        <time>2021-08-09 12:01:50</time>
      </trkpt>
      <trkpt lat="42.86494" lon="-0.45031">
        <ele>1321.2</ele>
        <time>2021-08-09 12:01:51</time>
      </trkpt>
      <trkpt lat="42.86493" lon="-0.4503">
        <ele>1321.4</ele>
        <time>2021-08-09 12:01:52</time>
      </trkpt>
      <trkpt lat="42.86492" lon="-0.4503">
        <ele>1321.4</ele>
        <time>2021-08-09 12:01:53</time>
      </trkpt>
      <trkpt lat="42.86491" lon="-0.45029">
        <ele>1321.4</ele>
        <time>2021-08-09 12:01:54</time>
      </trkpt>
      <trkpt lat="42.86492" lon="-0.45028">
        <ele>1321.4</ele>
        <time>2021-08-09 12:01:55</time>
      </trkpt>
      <trkpt lat="42.86491" lon="-0.45027">
        <ele>1321.2</ele>
        <time>2021-08-09 12:01:56</time>
      </trkpt>
      <trkpt lat="42.8649" lon="-0.45026">
        <ele>1321.4</ele>
        <time>2021-08-09 12:01:57</time>
      </trkpt>
      <trkpt lat="42.86488" lon="-0.45025">
        <ele>1321.4</ele>
        <time>2021-08-09 12:01:58</time>
      </trkpt>
      <trkpt lat="42.86487" lon="-0.45023">
        <ele>1321.6</ele>
        <time>2021-08-09 12:01:59</time>
      </trkpt>
      <trkpt lat="42.86486" lon="-0.45022">
        <ele>1321.4</ele>
        <time>2021-08-09 12:02:00</time>
      </trkpt>
      <trkpt lat="42.86485" lon="-0.45021">
        <ele>1321.4</ele>
        <time>2021-08-09 12:02:01</time>
      </trkpt>
      <trkpt lat="42.86483" lon="-0.4502">
        <ele>1321.4</ele>
        <time>2021-08-09 12:02:02</time>
      </trkpt>
      <trkpt lat="42.86481" lon="-0.4502">
        <ele>1321.4</ele>
        <time>2021-08-09 12:02:03</time>
      </trkpt>
      <trkpt lat="42.86478" lon="-0.4502">
        <ele>1321.6</ele>
        <time>2021-08-09 12:02:04</time>
      </trkpt>
      <trkpt lat="42.86475" lon="-0.45021">
        <ele>1321.8</ele>
        <time>2021-08-09 12:02:05</time>
      </trkpt>
      <trkpt lat="42.86472" lon="-0.45019">
        <ele>1321.8</ele>
        <time>2021-08-09 12:02:06</time>
      </trkpt>
      <trkpt lat="42.86471" lon="-0.45017">
        <ele>1321.4</ele>
        <time>2021-08-09 12:02:07</time>
      </trkpt>
      <trkpt lat="42.8647" lon="-0.45015">
        <ele>1321.4</ele>
        <time>2021-08-09 12:02:08</time>
      </trkpt>
      <trkpt lat="42.8647" lon="-0.45013">
        <ele>1321.6</ele>
        <time>2021-08-09 12:02:09</time>
      </trkpt>
      <trkpt lat="42.8647" lon="-0.45013">
        <ele>1321.4</ele>
        <time>2021-08-09 12:02:10</time>
      </trkpt>
      <trkpt lat="42.86469" lon="-0.45013">
        <ele>1321.2</ele>
        <time>2021-08-09 12:02:11</time>
      </trkpt>
      <trkpt lat="42.86468" lon="-0.45012">
        <ele>1321.2</ele>
        <time>2021-08-09 12:02:12</time>
      </trkpt>
      <trkpt lat="42.86467" lon="-0.4501">
        <ele>1321.2</ele>
        <time>2021-08-09 12:02:13</time>
      </trkpt>
      <trkpt lat="42.86467" lon="-0.45011">
        <ele>1321</ele>
        <time>2021-08-09 12:02:14</time>
      </trkpt>
      <trkpt lat="42.86467" lon="-0.45009">
        <ele>1321</ele>
        <time>2021-08-09 12:02:15</time>
      </trkpt>
      <trkpt lat="42.86467" lon="-0.45009">
        <ele>1321</ele>
        <time>2021-08-09 12:02:16</time>
      </trkpt>
      <trkpt lat="42.86466" lon="-0.45008">
        <ele>1321.2</ele>
        <time>2021-08-09 12:02:17</time>
      </trkpt>
      <trkpt lat="42.86465" lon="-0.45008">
        <ele>1321</ele>
        <time>2021-08-09 12:02:18</time>
      </trkpt>
      <trkpt lat="42.86465" lon="-0.45007">
        <ele>1321.2</ele>
        <time>2021-08-09 12:02:19</time>
      </trkpt>
      <trkpt lat="42.86463" lon="-0.45006">
        <ele>1321</ele>
        <time>2021-08-09 12:02:20</time>
      </trkpt>
      <trkpt lat="42.86463" lon="-0.45005">
        <ele>1321.2</ele>
        <time>2021-08-09 12:02:21</time>
      </trkpt>
      <trkpt lat="42.86461" lon="-0.45004">
        <ele>1321.2</ele>
        <time>2021-08-09 12:02:22</time>
      </trkpt>
      <trkpt lat="42.8646" lon="-0.45004">
        <ele>1321.4</ele>
        <time>2021-08-09 12:02:23</time>
      </trkpt>
      <trkpt lat="42.8646" lon="-0.45004">
        <ele>1321.6</ele>
        <time>2021-08-09 12:02:24</time>
      </trkpt>
      <trkpt lat="42.86457" lon="-0.45004">
        <ele>1321.6</ele>
        <time>2021-08-09 12:02:25</time>
      </trkpt>
      <trkpt lat="42.86452" lon="-0.45003">
        <ele>1321.8</ele>
        <time>2021-08-09 12:02:26</time>
      </trkpt>
      <trkpt lat="42.86449" lon="-0.45001">
        <ele>1321.8</ele>
        <time>2021-08-09 12:02:28</time>
      </trkpt>
      <trkpt lat="42.86446" lon="-0.44999">
        <ele>1321.8</ele>
      </trkpt>
      <trkpt lat="42.86441" lon="-0.44997">
        <ele>1322</ele>
        <time>2021-08-09 12:02:29</time>
      </trkpt>
      <trkpt lat="42.86434" lon="-0.44994">
        <ele>1322.2</ele>
        <time>2021-08-09 12:02:30</time>
      </trkpt>
      <trkpt lat="42.8643" lon="-0.44994">
        <ele>1322.2</ele>
        <time>2021-08-09 12:02:31</time>
      </trkpt>
      <trkpt lat="42.86428" lon="-0.44994">
        <ele>1322.4</ele>
        <time>2021-08-09 12:02:32</time>
      </trkpt>
      <trkpt lat="42.86428" lon="-0.44994">
        <ele>1322.4</ele>
        <time>2021-08-09 12:02:33</time>
      </trkpt>
      <trkpt lat="42.86429" lon="-0.44994">
        <ele>1322.6</ele>
        <time>2021-08-09 12:02:34</time>
      </trkpt>
      <trkpt lat="42.8643" lon="-0.44995">
        <ele>1322.8</ele>
        <time>2021-08-09 12:02:35</time>
      </trkpt>
      <trkpt lat="42.86429" lon="-0.44996">
        <ele>1322.8</ele>
        <time>2021-08-09 12:02:36</time>
      </trkpt>
      <trkpt lat="42.86429" lon="-0.44996">
        <ele>1323</ele>
        <time>2021-08-09 12:02:37</time>
      </trkpt>
      <trkpt lat="42.86428" lon="-0.44998">
        <ele>1323.2</ele>
        <time>2021-08-09 12:02:38</time>
      </trkpt>
      <trkpt lat="42.86425" lon="-0.44997">
        <ele>1323.2</ele>
        <time>2021-08-09 12:02:39</time>
      </trkpt>
      <trkpt lat="42.86424" lon="-0.44999">
        <ele>1323.2</ele>
        <time>2021-08-09 12:02:40</time>
      </trkpt>
      <trkpt lat="42.86425" lon="-0.45">
        <ele>1323.2</ele>
        <time>2021-08-09 12:02:41</time>
      </trkpt>
      <trkpt lat="42.86426" lon="-0.45003">
        <ele>1323.4</ele>
        <time>2021-08-09 12:02:42</time>
      </trkpt>
      <trkpt lat="42.86426" lon="-0.45003">
        <ele>1323.6</ele>
        <time>2021-08-09 12:02:43</time>
      </trkpt>
      <trkpt lat="42.86425" lon="-0.45004">
        <ele>1323.6</ele>
        <time>2021-08-09 12:02:44</time>
      </trkpt>
      <trkpt lat="42.86426" lon="-0.45006">
        <ele>1323.8</ele>
        <time>2021-08-09 12:02:45</time>
      </trkpt>
      <trkpt lat="42.86427" lon="-0.45007">
        <ele>1324</ele>
        <time>2021-08-09 12:02:46</time>
      </trkpt>
      <trkpt lat="42.86427" lon="-0.45008">
        <ele>1324.4</ele>
        <time>2021-08-09 12:02:47</time>
      </trkpt>
      <trkpt lat="42.86427" lon="-0.45009">
        <ele>1324.8</ele>
        <time>2021-08-09 12:02:48</time>
      </trkpt>
      <trkpt lat="42.86427" lon="-0.45009">
        <ele>1325</ele>
        <time>2021-08-09 12:02:49</time>
      </trkpt>
      <trkpt lat="42.86427" lon="-0.4501">
        <ele>1325</ele>
        <time>2021-08-09 12:02:50</time>
      </trkpt>
      <trkpt lat="42.86427" lon="-0.45011">
        <ele>1325</ele>
        <time>2021-08-09 12:02:51</time>
      </trkpt>
      <trkpt lat="42.86426" lon="-0.45012">
        <ele>1325.2</ele>
        <time>2021-08-09 12:02:52</time>
      </trkpt>
      <trkpt lat="42.86426" lon="-0.45013">
        <ele>1325.2</ele>
        <time>2021-08-09 12:02:53</time>
      </trkpt>
      <trkpt lat="42.86426" lon="-0.45015">
        <ele>1325.4</ele>
        <time>2021-08-09 12:02:54</time>
      </trkpt>
      <trkpt lat="42.86427" lon="-0.45017">
        <ele>1325.6</ele>
        <time>2021-08-09 12:02:55</time>
      </trkpt>
      <trkpt lat="42.86427" lon="-0.45019">
        <ele>1325.8</ele>
        <time>2021-08-09 12:02:56</time>
      </trkpt>
      <trkpt lat="42.86427" lon="-0.45021">
        <ele>1326</ele>
        <time>2021-08-09 12:02:57</time>
      </trkpt>
      <trkpt lat="42.86427" lon="-0.45023">
        <ele>1326</ele>
        <time>2021-08-09 12:02:58</time>
      </trkpt>
      <trkpt lat="42.86425" lon="-0.45024">
        <ele>1326.2</ele>
        <time>2021-08-09 12:02:59</time>
      </trkpt>
      <trkpt lat="42.86425" lon="-0.45026">
        <ele>1326.2</ele>
        <time>2021-08-09 12:03:00</time>
      </trkpt>
      <trkpt lat="42.86425" lon="-0.45028">
        <ele>1326.6</ele>
        <time>2021-08-09 12:03:01</time>
      </trkpt>
      <trkpt lat="42.86425" lon="-0.4503">
        <ele>1326.6</ele>
        <time>2021-08-09 12:03:02</time>
      </trkpt>
      <trkpt lat="42.86425" lon="-0.45031">
        <ele>1326.8</ele>
        <time>2021-08-09 12:03:03</time>
      </trkpt>
      <trkpt lat="42.86424" lon="-0.45032">
        <ele>1326.8</ele>
        <time>2021-08-09 12:03:04</time>
      </trkpt>
      <trkpt lat="42.86425" lon="-0.45033">
        <ele>1327</ele>
        <time>2021-08-09 12:03:05</time>
      </trkpt>
      <trkpt lat="42.86425" lon="-0.45035">
        <ele>1327</ele>
        <time>2021-08-09 12:03:06</time>
      </trkpt>
      <trkpt lat="42.86429" lon="-0.45037">
        <ele>1327</ele>
        <time>2021-08-09 12:03:07</time>
      </trkpt>
      <trkpt lat="42.86433" lon="-0.4504">
        <ele>1326.8</ele>
        <time>2021-08-09 12:03:08</time>
      </trkpt>
      <trkpt lat="42.86434" lon="-0.45042">
        <ele>1327</ele>
        <time>2021-08-09 12:03:09</time>
      </trkpt>
      <trkpt lat="42.86435" lon="-0.45044">
        <ele>1327</ele>
        <time>2021-08-09 12:03:10</time>
      </trkpt>
      <trkpt lat="42.86435" lon="-0.45046">
        <ele>1327.2</ele>
        <time>2021-08-09 12:03:11</time>
      </trkpt>
      <trkpt lat="42.86434" lon="-0.45048">
        <ele>1327.2</ele>
        <time>2021-08-09 12:03:12</time>
      </trkpt>
      <trkpt lat="42.86432" lon="-0.45048">
        <ele>1327.4</ele>
        <time>2021-08-09 12:03:13</time>
      </trkpt>
      <trkpt lat="42.86431" lon="-0.4505">
        <ele>1327.6</ele>
        <time>2021-08-09 12:03:14</time>
      </trkpt>
      <trkpt lat="42.86431" lon="-0.45052">
        <ele>1327.8</ele>
        <time>2021-08-09 12:03:15</time>
      </trkpt>
      <trkpt lat="42.86431" lon="-0.45053">
        <ele>1327.8</ele>
        <time>2021-08-09 12:03:16</time>
      </trkpt>
      <trkpt lat="42.86432" lon="-0.45055">
        <ele>1328</ele>
        <time>2021-08-09 12:03:17</time>
      </trkpt>
      <trkpt lat="42.8643" lon="-0.45056">
        <ele>1328</ele>
        <time>2021-08-09 12:03:18</time>
      </trkpt>
      <trkpt lat="42.86431" lon="-0.45058">
        <ele>1328.4</ele>
        <time>2021-08-09 12:03:19</time>
      </trkpt>
      <trkpt lat="42.8643" lon="-0.45059">
        <ele>1328.6</ele>
        <time>2021-08-09 12:03:20</time>
      </trkpt>
      <trkpt lat="42.86431" lon="-0.4506">
        <ele>1328.8</ele>
        <time>2021-08-09 12:03:21</time>
      </trkpt>
      <trkpt lat="42.86431" lon="-0.45061">
        <ele>1328.8</ele>
        <time>2021-08-09 12:03:22</time>
      </trkpt>
      <trkpt lat="42.8643" lon="-0.45063">
        <ele>1328.8</ele>
        <time>2021-08-09 12:03:23</time>
      </trkpt>
      <trkpt lat="42.8643" lon="-0.45064">
        <ele>1329</ele>
        <time>2021-08-09 12:03:24</time>
      </trkpt>
      <trkpt lat="42.86431" lon="-0.45066">
        <ele>1329.2</ele>
        <time>2021-08-09 12:03:25</time>
      </trkpt>
      <trkpt lat="42.8643" lon="-0.45067">
        <ele>1329.2</ele>
        <time>2021-08-09 12:03:26</time>
      </trkpt>
      <trkpt lat="42.8643" lon="-0.45067">
        <ele>1329.4</ele>
        <time>2021-08-09 12:03:27</time>
      </trkpt>
      <trkpt lat="42.8643" lon="-0.45069">
        <ele>1329.4</ele>
        <time>2021-08-09 12:03:28</time>
      </trkpt>
      <trkpt lat="42.8643" lon="-0.4507">
        <ele>1329.6</ele>
        <time>2021-08-09 12:03:29</time>
      </trkpt>
      <trkpt lat="42.86429" lon="-0.45072">
        <ele>1329.8</ele>
        <time>2021-08-09 12:03:30</time>
      </trkpt>
      <trkpt lat="42.86429" lon="-0.45073">
        <ele>1330.2</ele>
        <time>2021-08-09 12:03:31</time>
      </trkpt>
      <trkpt lat="42.86426" lon="-0.45074">
        <ele>1330.4</ele>
        <time>2021-08-09 12:03:32</time>
      </trkpt>
      <trkpt lat="42.86427" lon="-0.45075">
        <ele>1330.6</ele>
        <time>2021-08-09 12:03:33</time>
      </trkpt>
      <trkpt lat="42.86426" lon="-0.45078">
        <ele>1331</ele>
        <time>2021-08-09 12:03:34</time>
      </trkpt>
      <trkpt lat="42.86426" lon="-0.45079">
        <ele>1331.2</ele>
        <time>2021-08-09 12:03:35</time>
      </trkpt>
      <trkpt lat="42.86425" lon="-0.45081">
        <ele>1331.6</ele>
        <time>2021-08-09 12:03:36</time>
      </trkpt>
      <trkpt lat="42.86426" lon="-0.45082">
        <ele>1331.8</ele>
        <time>2021-08-09 12:03:37</time>
      </trkpt>
      <trkpt lat="42.86428" lon="-0.45084">
        <ele>1331.8</ele>
        <time>2021-08-09 12:03:38</time>
      </trkpt>
      <trkpt lat="42.86429" lon="-0.45087">
        <ele>1331.8</ele>
        <time>2021-08-09 12:03:39</time>
      </trkpt>
      <trkpt lat="42.86429" lon="-0.45088">
        <ele>1332.2</ele>
        <time>2021-08-09 12:03:40</time>
      </trkpt>
      <trkpt lat="42.86429" lon="-0.45089">
        <ele>1332.2</ele>
        <time>2021-08-09 12:03:41</time>
      </trkpt>
      <trkpt lat="42.86431" lon="-0.45091">
        <ele>1332.4</ele>
        <time>2021-08-09 12:03:42</time>
      </trkpt>
      <trkpt lat="42.86431" lon="-0.45093">
        <ele>1332.6</ele>
        <time>2021-08-09 12:03:43</time>
      </trkpt>
      <trkpt lat="42.86432" lon="-0.45095">
        <ele>1332.6</ele>
        <time>2021-08-09 12:03:44</time>
      </trkpt>
      <trkpt lat="42.86432" lon="-0.45096">
        <ele>1332.6</ele>
        <time>2021-08-09 12:03:45</time>
      </trkpt>
      <trkpt lat="42.86432" lon="-0.45098">
        <ele>1332.4</ele>
        <time>2021-08-09 12:03:46</time>
      </trkpt>
      <trkpt lat="42.86432" lon="-0.45099">
        <ele>1332.6</ele>
        <time>2021-08-09 12:03:47</time>
      </trkpt>
      <trkpt lat="42.86432" lon="-0.45101">
        <ele>1332.8</ele>
        <time>2021-08-09 12:03:48</time>
      </trkpt>
      <trkpt lat="42.86431" lon="-0.45103">
        <ele>1332.8</ele>
        <time>2021-08-09 12:03:49</time>
      </trkpt>
      <trkpt lat="42.8643" lon="-0.45104">
        <ele>1332.8</ele>
        <time>2021-08-09 12:03:50</time>
      </trkpt>
      <trkpt lat="42.86429" lon="-0.45105">
        <ele>1332.8</ele>
        <time>2021-08-09 12:03:51</time>
      </trkpt>
      <trkpt lat="42.8643" lon="-0.45106">
        <ele>1333</ele>
        <time>2021-08-09 12:03:52</time>
      </trkpt>
      <trkpt lat="42.86429" lon="-0.45108">
        <ele>1333</ele>
        <time>2021-08-09 12:03:53</time>
      </trkpt>
      <trkpt lat="42.86428" lon="-0.45109">
        <ele>1333.2</ele>
        <time>2021-08-09 12:03:54</time>
      </trkpt>
      <trkpt lat="42.86426" lon="-0.4511">
        <ele>1333</ele>
        <time>2021-08-09 12:03:55</time>
      </trkpt>
      <trkpt lat="42.86425" lon="-0.45112">
        <ele>1333</ele>
        <time>2021-08-09 12:03:56</time>
      </trkpt>
      <trkpt lat="42.86425" lon="-0.45113">
        <ele>1333</ele>
        <time>2021-08-09 12:03:57</time>
      </trkpt>
      <trkpt lat="42.86425" lon="-0.45114">
        <ele>1333</ele>
        <time>2021-08-09 12:03:58</time>
      </trkpt>
      <trkpt lat="42.86425" lon="-0.45115">
        <ele>1333.2</ele>
        <time>2021-08-09 12:03:59</time>
      </trkpt>
      <trkpt lat="42.86426" lon="-0.45116">
        <ele>1333</ele>
        <time>2021-08-09 12:04:00</time>
      </trkpt>
      <trkpt lat="42.86424" lon="-0.45117">
        <ele>1332.8</ele>
        <time>2021-08-09 12:04:01</time>
      </trkpt>
      <trkpt lat="42.86424" lon="-0.45118">
        <ele>1332.8</ele>
        <time>2021-08-09 12:04:02</time>
      </trkpt>
      <trkpt lat="42.86422" lon="-0.45118">
        <ele>1333</ele>
        <time>2021-08-09 12:04:03</time>
      </trkpt>
      <trkpt lat="42.86421" lon="-0.45119">
        <ele>1333</ele>
        <time>2021-08-09 12:04:04</time>
      </trkpt>
      <trkpt lat="42.8642" lon="-0.45119">
        <ele>1333</ele>
        <time>2021-08-09 12:04:05</time>
      </trkpt>
      <trkpt lat="42.86419" lon="-0.45119">
        <ele>1333</ele>
        <time>2021-08-09 12:04:06</time>
      </trkpt>
      <trkpt lat="42.86418" lon="-0.45121">
        <ele>1333.4</ele>
        <time>2021-08-09 12:04:07</time>
      </trkpt>
      <trkpt lat="42.86418" lon="-0.45121">
        <ele>1333</ele>
        <time>2021-08-09 12:04:08</time>
      </trkpt>
      <trkpt lat="42.86417" lon="-0.45122">
        <ele>1333.2</ele>
        <time>2021-08-09 12:04:09</time>
      </trkpt>
      <trkpt lat="42.86417" lon="-0.45124">
        <ele>1333.2</ele>
        <time>2021-08-09 12:04:10</time>
      </trkpt>
      <trkpt lat="42.86415" lon="-0.45124">
        <ele>1333.2</ele>
        <time>2021-08-09 12:04:11</time>
      </trkpt>
      <trkpt lat="42.86417" lon="-0.45125">
        <ele>1333.4</ele>
        <time>2021-08-09 12:04:12</time>
      </trkpt>
      <trkpt lat="42.86416" lon="-0.45126">
        <ele>1333.4</ele>
        <time>2021-08-09 12:04:13</time>
      </trkpt>
      <trkpt lat="42.86415" lon="-0.45127">
        <ele>1333.4</ele>
        <time>2021-08-09 12:04:14</time>
      </trkpt>
      <trkpt lat="42.86415" lon="-0.45129">
        <ele>1333.8</ele>
        <time>2021-08-09 12:04:15</time>
      </trkpt>
      <trkpt lat="42.86415" lon="-0.45131">
        <ele>1333.8</ele>
        <time>2021-08-09 12:04:16</time>
      </trkpt>
      <trkpt lat="42.86415" lon="-0.45132">
        <ele>1333.8</ele>
        <time>2021-08-09 12:04:17</time>
      </trkpt>
      <trkpt lat="42.86415" lon="-0.45133">
        <ele>1333.8</ele>
        <time>2021-08-09 12:04:18</time>
      </trkpt>
      <trkpt lat="42.86414" lon="-0.45135">
        <ele>1334</ele>
        <time>2021-08-09 12:04:19</time>
      </trkpt>
      <trkpt lat="42.86414" lon="-0.45137">
        <ele>1334</ele>
        <time>2021-08-09 12:04:20</time>
      </trkpt>
      <trkpt lat="42.86413" lon="-0.45139">
        <ele>1334</ele>
        <time>2021-08-09 12:04:21</time>
      </trkpt>
      <trkpt lat="42.86413" lon="-0.4514">
        <ele>1334.2</ele>
        <time>2021-08-09 12:04:22</time>
      </trkpt>
      <trkpt lat="42.86413" lon="-0.45141">
        <ele>1334.2</ele>
        <time>2021-08-09 12:04:23</time>
      </trkpt>
      <trkpt lat="42.86412" lon="-0.45142">
        <ele>1334.2</ele>
        <time>2021-08-09 12:04:24</time>
      </trkpt>
      <trkpt lat="42.86413" lon="-0.45144">
        <ele>1334.2</ele>
        <time>2021-08-09 12:04:25</time>
      </trkpt>
      <trkpt lat="42.86413" lon="-0.45146">
        <ele>1334.4</ele>
        <time>2021-08-09 12:04:26</time>
      </trkpt>
      <trkpt lat="42.86412" lon="-0.45148">
        <ele>1334.6</ele>
        <time>2021-08-09 12:04:27</time>
      </trkpt>
      <trkpt lat="42.86412" lon="-0.45149">
        <ele>1334.6</ele>
        <time>2021-08-09 12:04:28</time>
      </trkpt>
      <trkpt lat="42.86411" lon="-0.45151">
        <ele>1334.6</ele>
        <time>2021-08-09 12:04:29</time>
      </trkpt>
      <trkpt lat="42.8641" lon="-0.45152">
        <ele>1334.6</ele>
        <time>2021-08-09 12:04:30</time>
      </trkpt>
      <trkpt lat="42.86409" lon="-0.45154">
        <ele>1334.6</ele>
        <time>2021-08-09 12:04:31</time>
      </trkpt>
      <trkpt lat="42.86409" lon="-0.45155">
        <ele>1334.4</ele>
        <time>2021-08-09 12:04:32</time>
      </trkpt>
      <trkpt lat="42.86409" lon="-0.45157">
        <ele>1334.4</ele>
        <time>2021-08-09 12:04:33</time>
      </trkpt>
      <trkpt lat="42.86408" lon="-0.45159">
        <ele>1334.2</ele>
        <time>2021-08-09 12:04:34</time>
      </trkpt>
      <trkpt lat="42.86406" lon="-0.4516">
        <ele>1334.2</ele>
        <time>2021-08-09 12:04:35</time>
      </trkpt>
      <trkpt lat="42.86405" lon="-0.45161">
        <ele>1334</ele>
        <time>2021-08-09 12:04:36</time>
      </trkpt>
      <trkpt lat="42.86405" lon="-0.45163">
        <ele>1334</ele>
        <time>2021-08-09 12:04:37</time>
      </trkpt>
      <trkpt lat="42.86405" lon="-0.45164">
        <ele>1333.8</ele>
        <time>2021-08-09 12:04:38</time>
      </trkpt>
      <trkpt lat="42.86402" lon="-0.45164">
        <ele>1334</ele>
        <time>2021-08-09 12:04:39</time>
      </trkpt>
      <trkpt lat="42.86402" lon="-0.45164">
        <ele>1334</ele>
        <time>2021-08-09 12:04:40</time>
      </trkpt>
      <trkpt lat="42.864" lon="-0.45165">
        <ele>1334</ele>
        <time>2021-08-09 12:04:41</time>
      </trkpt>
      <trkpt lat="42.86399" lon="-0.45166">
        <ele>1333.8</ele>
        <time>2021-08-09 12:04:42</time>
      </trkpt>
      <trkpt lat="42.86398" lon="-0.45167">
        <ele>1333.8</ele>
        <time>2021-08-09 12:04:43</time>
      </trkpt>
      <trkpt lat="42.86397" lon="-0.45169">
        <ele>1333.8</ele>
        <time>2021-08-09 12:04:44</time>
      </trkpt>
      <trkpt lat="42.86395" lon="-0.45171">
        <ele>1333.8</ele>
        <time>2021-08-09 12:04:45</time>
      </trkpt>
      <trkpt lat="42.86394" lon="-0.45173">
        <ele>1333.8</ele>
        <time>2021-08-09 12:04:46</time>
      </trkpt>
      <trkpt lat="42.86394" lon="-0.45174">
        <ele>1334</ele>
        <time>2021-08-09 12:04:47</time>
      </trkpt>
      <trkpt lat="42.86393" lon="-0.45176">
        <ele>1334.2</ele>
        <time>2021-08-09 12:04:48</time>
      </trkpt>
      <trkpt lat="42.86393" lon="-0.45178">
        <ele>1334.2</ele>
        <time>2021-08-09 12:04:49</time>
      </trkpt>
      <trkpt lat="42.86392" lon="-0.4518">
        <ele>1334.2</ele>
        <time>2021-08-09 12:04:50</time>
      </trkpt>
      <trkpt lat="42.86392" lon="-0.45181">
        <ele>1334.4</ele>
        <time>2021-08-09 12:04:51</time>
      </trkpt>
      <trkpt lat="42.86391" lon="-0.45183">
        <ele>1334.4</ele>
        <time>2021-08-09 12:04:52</time>
      </trkpt>
      <trkpt lat="42.8639" lon="-0.45185">
        <ele>1334.6</ele>
        <time>2021-08-09 12:04:53</time>
      </trkpt>
      <trkpt lat="42.8639" lon="-0.45188">
        <ele>1334.4</ele>
        <time>2021-08-09 12:04:54</time>
      </trkpt>
      <trkpt lat="42.86389" lon="-0.45189">
        <ele>1334.4</ele>
        <time>2021-08-09 12:04:55</time>
      </trkpt>
      <trkpt lat="42.86387" lon="-0.45189">
        <ele>1334.4</ele>
        <time>2021-08-09 12:04:56</time>
      </trkpt>
      <trkpt lat="42.86387" lon="-0.4519">
        <ele>1334.4</ele>
        <time>2021-08-09 12:04:57</time>
      </trkpt>
      <trkpt lat="42.86386" lon="-0.45191">
        <ele>1334.6</ele>
        <time>2021-08-09 12:04:58</time>
      </trkpt>
      <trkpt lat="42.86385" lon="-0.45192">
        <ele>1334.6</ele>
        <time>2021-08-09 12:04:59</time>
      </trkpt>
      <trkpt lat="42.86385" lon="-0.45193">
        <ele>1334.6</ele>
        <time>2021-08-09 12:05:00</time>
      </trkpt>
      <trkpt lat="42.86385" lon="-0.45194">
        <ele>1334.6</ele>
        <time>2021-08-09 12:05:01</time>
      </trkpt>
      <trkpt lat="42.86385" lon="-0.45195">
        <ele>1334.6</ele>
        <time>2021-08-09 12:05:02</time>
      </trkpt>
      <trkpt lat="42.86385" lon="-0.45196">
        <ele>1334.6</ele>
        <time>2021-08-09 12:05:03</time>
      </trkpt>
      <trkpt lat="42.86384" lon="-0.45198">
        <ele>1334.4</ele>
        <time>2021-08-09 12:05:04</time>
      </trkpt>
      <trkpt lat="42.86383" lon="-0.45199">
        <ele>1334.2</ele>
        <time>2021-08-09 12:05:05</time>
      </trkpt>
      <trkpt lat="42.86382" lon="-0.45201">
        <ele>1334.2</ele>
        <time>2021-08-09 12:05:06</time>
      </trkpt>
      <trkpt lat="42.8638" lon="-0.45202">
        <ele>1334.2</ele>
        <time>2021-08-09 12:05:07</time>
      </trkpt>
      <trkpt lat="42.86378" lon="-0.45203">
        <ele>1334</ele>
        <time>2021-08-09 12:05:08</time>
      </trkpt>
      <trkpt lat="42.86376" lon="-0.45203">
        <ele>1334.2</ele>
        <time>2021-08-09 12:05:09</time>
      </trkpt>
      <trkpt lat="42.86375" lon="-0.45204">
        <ele>1334.2</ele>
        <time>2021-08-09 12:05:10</time>
      </trkpt>
      <trkpt lat="42.86373" lon="-0.45205">
        <ele>1334.2</ele>
        <time>2021-08-09 12:05:11</time>
      </trkpt>
      <trkpt lat="42.86372" lon="-0.45206">
        <ele>1334</ele>
        <time>2021-08-09 12:05:12</time>
      </trkpt>
      <trkpt lat="42.8637" lon="-0.45207">
        <ele>1334</ele>
        <time>2021-08-09 12:05:13</time>
      </trkpt>
      <trkpt lat="42.86369" lon="-0.45207">
        <ele>1334</ele>
        <time>2021-08-09 12:05:14</time>
      </trkpt>
      <trkpt lat="42.86368" lon="-0.45208">
        <ele>1334</ele>
        <time>2021-08-09 12:05:15</time>
      </trkpt>
      <trkpt lat="42.86366" lon="-0.45209">
        <ele>1334</ele>
        <time>2021-08-09 12:05:16</time>
      </trkpt>
      <trkpt lat="42.86364" lon="-0.45209">
        <ele>1334.2</ele>
        <time>2021-08-09 12:05:17</time>
      </trkpt>
      <trkpt lat="42.86362" lon="-0.4521">
        <ele>1334</ele>
        <time>2021-08-09 12:05:18</time>
      </trkpt>
      <trkpt lat="42.86359" lon="-0.45211">
        <ele>1333.8</ele>
        <time>2021-08-09 12:05:19</time>
      </trkpt>
      <trkpt lat="42.86357" lon="-0.45211">
        <ele>1333.8</ele>
        <time>2021-08-09 12:05:20</time>
      </trkpt>
      <trkpt lat="42.86355" lon="-0.45211">
        <ele>1333.6</ele>
        <time>2021-08-09 12:05:21</time>
      </trkpt>
      <trkpt lat="42.86352" lon="-0.45211">
        <ele>1333.6</ele>
        <time>2021-08-09 12:05:22</time>
      </trkpt>
      <trkpt lat="42.8635" lon="-0.45211">
        <ele>1333.6</ele>
        <time>2021-08-09 12:05:23</time>
      </trkpt>
      <trkpt lat="42.86347" lon="-0.45212">
        <ele>1333.4</ele>
        <time>2021-08-09 12:05:24</time>
      </trkpt>
      <trkpt lat="42.86344" lon="-0.45211">
        <ele>1333.4</ele>
        <time>2021-08-09 12:05:25</time>
      </trkpt>
      <trkpt lat="42.8634" lon="-0.45211">
        <ele>1333.6</ele>
        <time>2021-08-09 12:05:26</time>
      </trkpt>
      <trkpt lat="42.86337" lon="-0.45212">
        <ele>1333.6</ele>
        <time>2021-08-09 12:05:27</time>
      </trkpt>
      <trkpt lat="42.86335" lon="-0.45212">
        <ele>1333.6</ele>
        <time>2021-08-09 12:05:28</time>
      </trkpt>
      <trkpt lat="42.86332" lon="-0.45213">
        <ele>1333.8</ele>
        <time>2021-08-09 12:05:29</time>
      </trkpt>
      <trkpt lat="42.8633" lon="-0.45213">
        <ele>1333.8</ele>
        <time>2021-08-09 12:05:30</time>
      </trkpt>
      <trkpt lat="42.86328" lon="-0.45213">
        <ele>1333.6</ele>
        <time>2021-08-09 12:05:31</time>
      </trkpt>
      <trkpt lat="42.86326" lon="-0.45214">
        <ele>1333.6</ele>
        <time>2021-08-09 12:05:32</time>
      </trkpt>
      <trkpt lat="42.86324" lon="-0.45214">
        <ele>1333.4</ele>
        <time>2021-08-09 12:05:33</time>
      </trkpt>
      <trkpt lat="42.86323" lon="-0.45214">
        <ele>1333.4</ele>
        <time>2021-08-09 12:05:34</time>
      </trkpt>
      <trkpt lat="42.8632" lon="-0.45214">
        <ele>1333.6</ele>
        <time>2021-08-09 12:05:35</time>
      </trkpt>
      <trkpt lat="42.86317" lon="-0.45215">
        <ele>1333.6</ele>
        <time>2021-08-09 12:05:36</time>
      </trkpt>
      <trkpt lat="42.86314" lon="-0.45214">
        <ele>1333.6</ele>
        <time>2021-08-09 12:05:37</time>
      </trkpt>
      <trkpt lat="42.86312" lon="-0.45214">
        <ele>1333.8</ele>
        <time>2021-08-09 12:05:38</time>
      </trkpt>
      <trkpt lat="42.8631" lon="-0.45215">
        <ele>1333.8</ele>
        <time>2021-08-09 12:05:39</time>
      </trkpt>
      <trkpt lat="42.86307" lon="-0.45215">
        <ele>1334</ele>
        <time>2021-08-09 12:05:40</time>
      </trkpt>
      <trkpt lat="42.86305" lon="-0.45215">
        <ele>1334</ele>
        <time>2021-08-09 12:05:41</time>
      </trkpt>
      <trkpt lat="42.86303" lon="-0.45216">
        <ele>1334</ele>
        <time>2021-08-09 12:05:42</time>
      </trkpt>
      <trkpt lat="42.86301" lon="-0.45216">
        <ele>1334</ele>
        <time>2021-08-09 12:05:43</time>
      </trkpt>
      <trkpt lat="42.86299" lon="-0.45216">
        <ele>1334</ele>
        <time>2021-08-09 12:05:44</time>
      </trkpt>
      <trkpt lat="42.86297" lon="-0.45217">
        <ele>1334</ele>
        <time>2021-08-09 12:05:45</time>
      </trkpt>
      <trkpt lat="42.86295" lon="-0.45217">
        <ele>1334.2</ele>
        <time>2021-08-09 12:05:46</time>
      </trkpt>
      <trkpt lat="42.86294" lon="-0.45218">
        <ele>1334.2</ele>
        <time>2021-08-09 12:05:47</time>
      </trkpt>
      <trkpt lat="42.86292" lon="-0.45218">
        <ele>1334.2</ele>
        <time>2021-08-09 12:05:48</time>
      </trkpt>
      <trkpt lat="42.86291" lon="-0.45219">
        <ele>1334.2</ele>
        <time>2021-08-09 12:05:49</time>
      </trkpt>
      <trkpt lat="42.8629" lon="-0.4522">
        <ele>1334.4</ele>
        <time>2021-08-09 12:05:50</time>
      </trkpt>
      <trkpt lat="42.86288" lon="-0.45222">
        <ele>1334.4</ele>
        <time>2021-08-09 12:05:51</time>
      </trkpt>
      <trkpt lat="42.86287" lon="-0.45223">
        <ele>1334.4</ele>
        <time>2021-08-09 12:05:52</time>
      </trkpt>
      <trkpt lat="42.86286" lon="-0.45224">
        <ele>1334.6</ele>
        <time>2021-08-09 12:05:53</time>
      </trkpt>
      <trkpt lat="42.86285" lon="-0.45226">
        <ele>1334.6</ele>
        <time>2021-08-09 12:05:54</time>
      </trkpt>
      <trkpt lat="42.86283" lon="-0.45227">
        <ele>1334.6</ele>
        <time>2021-08-09 12:05:55</time>
      </trkpt>
      <trkpt lat="42.86283" lon="-0.45228">
        <ele>1334.6</ele>
        <time>2021-08-09 12:05:56</time>
      </trkpt>
      <trkpt lat="42.86282" lon="-0.45229">
        <ele>1334.4</ele>
        <time>2021-08-09 12:05:57</time>
      </trkpt>
      <trkpt lat="42.86282" lon="-0.45229">
        <ele>1334.4</ele>
        <time>2021-08-09 12:05:58</time>
      </trkpt>
      <trkpt lat="42.86281" lon="-0.4523">
        <ele>1334.4</ele>
        <time>2021-08-09 12:05:59</time>
      </trkpt>
      <trkpt lat="42.86279" lon="-0.4523">
        <ele>1334.4</ele>
        <time>2021-08-09 12:06:00</time>
      </trkpt>
      <trkpt lat="42.86278" lon="-0.45231">
        <ele>1334.4</ele>
        <time>2021-08-09 12:06:01</time>
      </trkpt>
      <trkpt lat="42.86277" lon="-0.45232">
        <ele>1334.4</ele>
        <time>2021-08-09 12:06:02</time>
      </trkpt>
      <trkpt lat="42.86277" lon="-0.45233">
        <ele>1334.2</ele>
        <time>2021-08-09 12:06:03</time>
      </trkpt>
      <trkpt lat="42.86276" lon="-0.45234">
        <ele>1334.2</ele>
        <time>2021-08-09 12:06:04</time>
      </trkpt>
      <trkpt lat="42.86275" lon="-0.45235">
        <ele>1334.4</ele>
        <time>2021-08-09 12:06:05</time>
      </trkpt>
      <trkpt lat="42.86273" lon="-0.45234">
        <ele>1334.6</ele>
        <time>2021-08-09 12:06:06</time>
      </trkpt>
      <trkpt lat="42.86272" lon="-0.45235">
        <ele>1334.4</ele>
        <time>2021-08-09 12:06:07</time>
      </trkpt>
      <trkpt lat="42.86272" lon="-0.45235">
        <ele>1334.2</ele>
        <time>2021-08-09 12:06:08</time>
      </trkpt>
      <trkpt lat="42.86271" lon="-0.45236">
        <ele>1334.4</ele>
        <time>2021-08-09 12:06:09</time>
      </trkpt>
      <trkpt lat="42.86271" lon="-0.45236">
        <ele>1334.4</ele>
        <time>2021-08-09 12:06:10</time>
      </trkpt>
      <trkpt lat="42.8627" lon="-0.45236">
        <ele>1334.4</ele>
        <time>2021-08-09 12:06:11</time>
      </trkpt>
      <trkpt lat="42.86269" lon="-0.45238">
        <ele>1334.4</ele>
        <time>2021-08-09 12:06:12</time>
      </trkpt>
      <trkpt lat="42.86268" lon="-0.45238">
        <ele>1334.6</ele>
        <time>2021-08-09 12:06:13</time>
      </trkpt>
      <trkpt lat="42.86267" lon="-0.45239">
        <ele>1334.4</ele>
        <time>2021-08-09 12:06:14</time>
      </trkpt>
      <trkpt lat="42.86268" lon="-0.4524">
        <ele>1334.4</ele>
        <time>2021-08-09 12:06:15</time>
      </trkpt>
      <trkpt lat="42.86267" lon="-0.45241">
        <ele>1334.2</ele>
        <time>2021-08-09 12:06:16</time>
      </trkpt>
      <trkpt lat="42.86267" lon="-0.45242">
        <ele>1334.2</ele>
        <time>2021-08-09 12:06:17</time>
      </trkpt>
      <trkpt lat="42.86266" lon="-0.45243">
        <ele>1334</ele>
        <time>2021-08-09 12:06:18</time>
      </trkpt>
      <trkpt lat="42.86266" lon="-0.45244">
        <ele>1334</ele>
        <time>2021-08-09 12:06:19</time>
      </trkpt>
      <trkpt lat="42.86265" lon="-0.45244">
        <ele>1334</ele>
        <time>2021-08-09 12:06:20</time>
      </trkpt>
      <trkpt lat="42.86264" lon="-0.45244">
        <ele>1334</ele>
        <time>2021-08-09 12:06:21</time>
      </trkpt>
      <trkpt lat="42.86263" lon="-0.45245">
        <ele>1334</ele>
        <time>2021-08-09 12:06:22</time>
      </trkpt>
      <trkpt lat="42.86262" lon="-0.45246">
        <ele>1334</ele>
        <time>2021-08-09 12:06:23</time>
      </trkpt>
      <trkpt lat="42.86262" lon="-0.45248">
        <ele>1334</ele>
        <time>2021-08-09 12:06:24</time>
      </trkpt>
      <trkpt lat="42.86262" lon="-0.45249">
        <ele>1333.8</ele>
        <time>2021-08-09 12:06:25</time>
      </trkpt>
      <trkpt lat="42.86261" lon="-0.4525">
        <ele>1333.8</ele>
        <time>2021-08-09 12:06:26</time>
      </trkpt>
      <trkpt lat="42.86261" lon="-0.45252">
        <ele>1333.8</ele>
        <time>2021-08-09 12:06:27</time>
      </trkpt>
      <trkpt lat="42.8626" lon="-0.45254">
        <ele>1333.6</ele>
        <time>2021-08-09 12:06:28</time>
      </trkpt>
      <trkpt lat="42.8626" lon="-0.45255">
        <ele>1333.4</ele>
        <time>2021-08-09 12:06:29</time>
      </trkpt>
      <trkpt lat="42.8626" lon="-0.45257">
        <ele>1333.4</ele>
        <time>2021-08-09 12:06:30</time>
      </trkpt>
      <trkpt lat="42.86258" lon="-0.45258">
        <ele>1333.4</ele>
        <time>2021-08-09 12:06:31</time>
      </trkpt>
      <trkpt lat="42.86259" lon="-0.4526">
        <ele>1333.4</ele>
        <time>2021-08-09 12:06:32</time>
      </trkpt>
      <trkpt lat="42.8626" lon="-0.45262">
        <ele>1333.4</ele>
        <time>2021-08-09 12:06:33</time>
      </trkpt>
      <trkpt lat="42.86261" lon="-0.45263">
        <ele>1333.4</ele>
        <time>2021-08-09 12:06:34</time>
      </trkpt>
      <trkpt lat="42.86261" lon="-0.45265">
        <ele>1333.6</ele>
        <time>2021-08-09 12:06:35</time>
      </trkpt>
      <trkpt lat="42.8626" lon="-0.45266">
        <ele>1333.6</ele>
        <time>2021-08-09 12:06:36</time>
      </trkpt>
      <trkpt lat="42.86261" lon="-0.45267">
        <ele>1333.6</ele>
        <time>2021-08-09 12:06:37</time>
      </trkpt>
      <trkpt lat="42.86262" lon="-0.45269">
        <ele>1333.6</ele>
        <time>2021-08-09 12:06:38</time>
      </trkpt>
      <trkpt lat="42.86261" lon="-0.4527">
        <ele>1333.6</ele>
        <time>2021-08-09 12:06:39</time>
      </trkpt>
      <trkpt lat="42.8626" lon="-0.45272">
        <ele>1333.8</ele>
        <time>2021-08-09 12:06:40</time>
      </trkpt>
      <trkpt lat="42.86261" lon="-0.45274">
        <ele>1333.8</ele>
        <time>2021-08-09 12:06:41</time>
      </trkpt>
      <trkpt lat="42.8626" lon="-0.45274">
        <ele>1333.8</ele>
        <time>2021-08-09 12:06:42</time>
      </trkpt>
      <trkpt lat="42.86259" lon="-0.45275">
        <ele>1333.8</ele>
        <time>2021-08-09 12:06:43</time>
      </trkpt>
      <trkpt lat="42.86257" lon="-0.45276">
        <ele>1333.8</ele>
        <time>2021-08-09 12:06:44</time>
      </trkpt>
      <trkpt lat="42.86256" lon="-0.45276">
        <ele>1333.8</ele>
        <time>2021-08-09 12:06:45</time>
      </trkpt>
      <trkpt lat="42.86254" lon="-0.45278">
        <ele>1334</ele>
        <time>2021-08-09 12:06:46</time>
      </trkpt>
      <trkpt lat="42.86253" lon="-0.45278">
        <ele>1333.8</ele>
        <time>2021-08-09 12:06:47</time>
      </trkpt>
      <trkpt lat="42.86252" lon="-0.4528">
        <ele>1334</ele>
        <time>2021-08-09 12:06:48</time>
      </trkpt>
      <trkpt lat="42.86251" lon="-0.45281">
        <ele>1334</ele>
        <time>2021-08-09 12:06:49</time>
      </trkpt>
      <trkpt lat="42.86246" lon="-0.4528">
        <ele>1333.8</ele>
        <time>2021-08-09 12:06:50</time>
      </trkpt>
      <trkpt lat="42.86245" lon="-0.4528">
        <ele>1333.8</ele>
        <time>2021-08-09 12:06:51</time>
      </trkpt>
      <trkpt lat="42.86244" lon="-0.4528">
        <ele>1334</ele>
        <time>2021-08-09 12:06:52</time>
      </trkpt>
      <trkpt lat="42.86243" lon="-0.4528">
        <ele>1333.8</ele>
        <time>2021-08-09 12:06:53</time>
      </trkpt>
      <trkpt lat="42.86241" lon="-0.4528">
        <ele>1333.8</ele>
        <time>2021-08-09 12:06:54</time>
      </trkpt>
      <trkpt lat="42.86236" lon="-0.45277">
        <ele>1333.8</ele>
        <time>2021-08-09 12:06:55</time>
      </trkpt>
      <trkpt lat="42.86237" lon="-0.45277">
        <ele>1333.8</ele>
        <time>2021-08-09 12:06:56</time>
      </trkpt>
      <trkpt lat="42.86236" lon="-0.45277">
        <ele>1333.8</ele>
        <time>2021-08-09 12:06:57</time>
      </trkpt>
      <trkpt lat="42.86235" lon="-0.45276">
        <ele>1333.8</ele>
        <time>2021-08-09 12:06:58</time>
      </trkpt>
      <trkpt lat="42.86234" lon="-0.45275">
        <ele>1333.8</ele>
        <time>2021-08-09 12:06:59</time>
      </trkpt>
      <trkpt lat="42.86233" lon="-0.45276">
        <ele>1334</ele>
        <time>2021-08-09 12:07:00</time>
      </trkpt>
      <trkpt lat="42.86233" lon="-0.45275">
        <ele>1333.8</ele>
        <time>2021-08-09 12:07:01</time>
      </trkpt>
      <trkpt lat="42.86232" lon="-0.45276">
        <ele>1333.6</ele>
        <time>2021-08-09 12:07:02</time>
      </trkpt>
      <trkpt lat="42.86232" lon="-0.45276">
        <ele>1333.4</ele>
        <time>2021-08-09 12:07:03</time>
      </trkpt>
      <trkpt lat="42.86232" lon="-0.45276">
        <ele>1333.2</ele>
        <time>2021-08-09 12:07:04</time>
      </trkpt>
      <trkpt lat="42.86232" lon="-0.45278">
        <ele>1333.4</ele>
        <time>2021-08-09 12:07:05</time>
      </trkpt>
      <trkpt lat="42.86232" lon="-0.45278">
        <ele>1333.6</ele>
        <time>2021-08-09 12:07:06</time>
      </trkpt>
      <trkpt lat="42.86232" lon="-0.45279">
        <ele>1333.6</ele>
        <time>2021-08-09 12:07:07</time>
      </trkpt>
      <trkpt lat="42.86232" lon="-0.4528">
        <ele>1334</ele>
        <time>2021-08-09 12:07:08</time>
      </trkpt>
      <trkpt lat="42.86232" lon="-0.45282">
        <ele>1334</ele>
        <time>2021-08-09 12:07:09</time>
      </trkpt>
      <trkpt lat="42.86231" lon="-0.45283">
        <ele>1334.2</ele>
        <time>2021-08-09 12:07:10</time>
      </trkpt>
      <trkpt lat="42.86231" lon="-0.45284">
        <ele>1334.2</ele>
        <time>2021-08-09 12:07:11</time>
      </trkpt>
      <trkpt lat="42.86231" lon="-0.45285">
        <ele>1334.2</ele>
        <time>2021-08-09 12:07:12</time>
      </trkpt>
      <trkpt lat="42.86231" lon="-0.45287">
        <ele>1334.2</ele>
        <time>2021-08-09 12:07:13</time>
      </trkpt>
      <trkpt lat="42.86231" lon="-0.45288">
        <ele>1334.2</ele>
        <time>2021-08-09 12:07:14</time>
      </trkpt>
      <trkpt lat="42.8623" lon="-0.45289">
        <ele>1334.2</ele>
        <time>2021-08-09 12:07:15</time>
      </trkpt>
      <trkpt lat="42.8623" lon="-0.45291">
        <ele>1334.4</ele>
        <time>2021-08-09 12:07:30</time>
      </trkpt>
      <trkpt lat="42.86229" lon="-0.45292">
        <ele>1334.2</ele>
        <time>2021-08-09 12:07:31</time>
      </trkpt>
      <trkpt lat="42.86229" lon="-0.45293">
        <ele>1334.4</ele>
        <time>2021-08-09 12:07:32</time>
      </trkpt>
      <trkpt lat="42.86228" lon="-0.45294">
        <ele>1334.4</ele>
        <time>2021-08-09 12:07:36</time>
      </trkpt>
      <trkpt lat="42.86228" lon="-0.45296">
        <ele>1334.2</ele>
        <time>2021-08-09 12:07:37</time>
      </trkpt>
      <trkpt lat="42.86227" lon="-0.45298">
        <ele>1334.2</ele>
        <time>2021-08-09 12:07:38</time>
      </trkpt>
      <trkpt lat="42.86227" lon="-0.45299">
        <ele>1333.8</ele>
        <time>2021-08-09 12:07:39</time>
      </trkpt>
      <trkpt lat="42.86226" lon="-0.45301">
        <ele>1333.6</ele>
        <time>2021-08-09 12:07:40</time>
      </trkpt>
      <trkpt lat="42.86226" lon="-0.45302">
        <ele>1333.6</ele>
        <time>2021-08-09 12:07:41</time>
      </trkpt>
      <trkpt lat="42.86225" lon="-0.45303">
        <ele>1333.6</ele>
        <time>2021-08-09 12:07:42</time>
      </trkpt>
      <trkpt lat="42.86224" lon="-0.45304">
        <ele>1333.4</ele>
        <time>2021-08-09 12:07:44</time>
      </trkpt>
      <trkpt lat="42.86222" lon="-0.45305">
        <ele>1333.6</ele>
      </trkpt>
      <trkpt lat="42.86221" lon="-0.45306">
        <ele>1333.4</ele>
        <time>2021-08-09 12:07:45</time>
      </trkpt>
      <trkpt lat="42.86219" lon="-0.45307">
        <ele>1333.8</ele>
        <time>2021-08-09 12:07:46</time>
      </trkpt>
      <trkpt lat="42.86218" lon="-0.45308">
        <ele>1334</ele>
        <time>2021-08-09 12:07:47</time>
      </trkpt>
      <trkpt lat="42.86216" lon="-0.45309">
        <ele>1334</ele>
        <time>2021-08-09 12:07:48</time>
      </trkpt>
      <trkpt lat="42.86215" lon="-0.4531">
        <ele>1334</ele>
        <time>2021-08-09 12:07:49</time>
      </trkpt>
      <trkpt lat="42.86214" lon="-0.45311">
        <ele>1334.4</ele>
        <time>2021-08-09 12:07:50</time>
      </trkpt>
      <trkpt lat="42.86214" lon="-0.45312">
        <ele>1334.2</ele>
        <time>2021-08-09 12:07:51</time>
      </trkpt>
      <trkpt lat="42.86213" lon="-0.45314">
        <ele>1334.4</ele>
        <time>2021-08-09 12:07:52</time>
      </trkpt>
      <trkpt lat="42.86213" lon="-0.45315">
        <ele>1334.4</ele>
        <time>2021-08-09 12:07:53</time>
      </trkpt>
      <trkpt lat="42.86211" lon="-0.45316">
        <ele>1334.4</ele>
        <time>2021-08-09 12:07:54</time>
      </trkpt>
      <trkpt lat="42.86211" lon="-0.45318">
        <ele>1334.4</ele>
        <time>2021-08-09 12:07:55</time>
      </trkpt>
      <trkpt lat="42.8621" lon="-0.4532">
        <ele>1334.2</ele>
        <time>2021-08-09 12:07:56</time>
      </trkpt>
      <trkpt lat="42.86209" lon="-0.45321">
        <ele>1334</ele>
        <time>2021-08-09 12:07:57</time>
      </trkpt>
      <trkpt lat="42.86207" lon="-0.45322">
        <ele>1334.2</ele>
        <time>2021-08-09 12:07:58</time>
      </trkpt>
      <trkpt lat="42.86206" lon="-0.45323">
        <ele>1334.2</ele>
        <time>2021-08-09 12:07:59</time>
      </trkpt>
      <trkpt lat="42.86205" lon="-0.45324">
        <ele>1334.2</ele>
        <time>2021-08-09 12:08:00</time>
      </trkpt>
      <trkpt lat="42.86204" lon="-0.45326">
        <ele>1334.2</ele>
        <time>2021-08-09 12:08:01</time>
      </trkpt>
      <trkpt lat="42.86203" lon="-0.45327">
        <ele>1334.2</ele>
        <time>2021-08-09 12:08:02</time>
      </trkpt>
      <trkpt lat="42.86204" lon="-0.45329">
        <ele>1334.2</ele>
        <time>2021-08-09 12:08:03</time>
      </trkpt>
      <trkpt lat="42.86203" lon="-0.4533">
        <ele>1334.2</ele>
        <time>2021-08-09 12:08:04</time>
      </trkpt>
      <trkpt lat="42.86201" lon="-0.45332">
        <ele>1334</ele>
        <time>2021-08-09 12:08:05</time>
      </trkpt>
      <trkpt lat="42.86201" lon="-0.45333">
        <ele>1334</ele>
        <time>2021-08-09 12:08:06</time>
      </trkpt>
      <trkpt lat="42.86201" lon="-0.45335">
        <ele>1334</ele>
        <time>2021-08-09 12:08:07</time>
      </trkpt>
      <trkpt lat="42.862" lon="-0.45337">
        <ele>1334</ele>
        <time>2021-08-09 12:08:08</time>
      </trkpt>
      <trkpt lat="42.862" lon="-0.45339">
        <ele>1334</ele>
        <time>2021-08-09 12:08:09</time>
      </trkpt>
      <trkpt lat="42.862" lon="-0.4534">
        <ele>1334.2</ele>
        <time>2021-08-09 12:08:10</time>
      </trkpt>
      <trkpt lat="42.86199" lon="-0.45341">
        <ele>1334.2</ele>
        <time>2021-08-09 12:08:11</time>
      </trkpt>
      <trkpt lat="42.86198" lon="-0.45342">
        <ele>1334.4</ele>
        <time>2021-08-09 12:08:12</time>
      </trkpt>
      <trkpt lat="42.86198" lon="-0.45344">
        <ele>1334.6</ele>
        <time>2021-08-09 12:08:13</time>
      </trkpt>
      <trkpt lat="42.86197" lon="-0.45346">
        <ele>1334.8</ele>
        <time>2021-08-09 12:08:14</time>
      </trkpt>
      <trkpt lat="42.86197" lon="-0.45346">
        <ele>1334.8</ele>
        <time>2021-08-09 12:08:15</time>
      </trkpt>
      <trkpt lat="42.86196" lon="-0.45347">
        <ele>1334.8</ele>
        <time>2021-08-09 12:08:16</time>
      </trkpt>
      <trkpt lat="42.86198" lon="-0.45348">
        <ele>1334.8</ele>
        <time>2021-08-09 12:08:17</time>
      </trkpt>
      <trkpt lat="42.86198" lon="-0.4535">
        <ele>1334.8</ele>
        <time>2021-08-09 12:08:18</time>
      </trkpt>
      <trkpt lat="42.86197" lon="-0.4535">
        <ele>1334.8</ele>
        <time>2021-08-09 12:08:19</time>
      </trkpt>
      <trkpt lat="42.86197" lon="-0.45351">
        <ele>1335</ele>
        <time>2021-08-09 12:08:20</time>
      </trkpt>
      <trkpt lat="42.86197" lon="-0.45352">
        <ele>1335.2</ele>
        <time>2021-08-09 12:08:21</time>
      </trkpt>
      <trkpt lat="42.86197" lon="-0.45352">
        <ele>1335.4</ele>
        <time>2021-08-09 12:08:22</time>
      </trkpt>
      <trkpt lat="42.86196" lon="-0.45353">
        <ele>1335.6</ele>
        <time>2021-08-09 12:08:23</time>
      </trkpt>
      <trkpt lat="42.86195" lon="-0.45354">
        <ele>1336</ele>
        <time>2021-08-09 12:08:24</time>
      </trkpt>
      <trkpt lat="42.86195" lon="-0.45355">
        <ele>1336</ele>
        <time>2021-08-09 12:08:25</time>
      </trkpt>
      <trkpt lat="42.86194" lon="-0.45357">
        <ele>1336.2</ele>
        <time>2021-08-09 12:08:26</time>
      </trkpt>
      <trkpt lat="42.86192" lon="-0.45359">
        <ele>1336.4</ele>
        <time>2021-08-09 12:08:27</time>
      </trkpt>
      <trkpt lat="42.86192" lon="-0.4536">
        <ele>1336.6</ele>
        <time>2021-08-09 12:08:28</time>
      </trkpt>
      <trkpt lat="42.86192" lon="-0.45361">
        <ele>1336.8</ele>
        <time>2021-08-09 12:08:29</time>
      </trkpt>
      <trkpt lat="42.86192" lon="-0.45363">
        <ele>1337.2</ele>
        <time>2021-08-09 12:08:30</time>
      </trkpt>
      <trkpt lat="42.86191" lon="-0.45364">
        <ele>1337.4</ele>
        <time>2021-08-09 12:08:31</time>
      </trkpt>
      <trkpt lat="42.86191" lon="-0.45365">
        <ele>1337.6</ele>
        <time>2021-08-09 12:08:32</time>
      </trkpt>
      <trkpt lat="42.86192" lon="-0.45366">
        <ele>1337.8</ele>
        <time>2021-08-09 12:08:33</time>
      </trkpt>
      <trkpt lat="42.86191" lon="-0.45367">
        <ele>1338</ele>
        <time>2021-08-09 12:08:34</time>
      </trkpt>
      <trkpt lat="42.8619" lon="-0.45368">
        <ele>1338.4</ele>
        <time>2021-08-09 12:08:35</time>
      </trkpt>
      <trkpt lat="42.86189" lon="-0.45369">
        <ele>1338.4</ele>
        <time>2021-08-09 12:08:36</time>
      </trkpt>
      <trkpt lat="42.86188" lon="-0.4537">
        <ele>1338.8</ele>
        <time>2021-08-09 12:08:37</time>
      </trkpt>
      <trkpt lat="42.86186" lon="-0.45372">
        <ele>1338.8</ele>
        <time>2021-08-09 12:08:38</time>
      </trkpt>
      <trkpt lat="42.86185" lon="-0.45373">
        <ele>1339</ele>
        <time>2021-08-09 12:08:39</time>
      </trkpt>
      <trkpt lat="42.86183" lon="-0.45374">
        <ele>1339</ele>
        <time>2021-08-09 12:08:40</time>
      </trkpt>
      <trkpt lat="42.86181" lon="-0.45374">
        <ele>1339.4</ele>
        <time>2021-08-09 12:08:41</time>
      </trkpt>
      <trkpt lat="42.86179" lon="-0.45374">
        <ele>1339.8</ele>
        <time>2021-08-09 12:08:42</time>
      </trkpt>
      <trkpt lat="42.86177" lon="-0.45373">
        <ele>1340</ele>
        <time>2021-08-09 12:08:43</time>
      </trkpt>
      <trkpt lat="42.86175" lon="-0.45373">
        <ele>1340.2</ele>
        <time>2021-08-09 12:08:44</time>
      </trkpt>
      <trkpt lat="42.86174" lon="-0.45374">
        <ele>1340.2</ele>
        <time>2021-08-09 12:08:45</time>
      </trkpt>
      <trkpt lat="42.86174" lon="-0.45375">
        <ele>1340.4</ele>
        <time>2021-08-09 12:08:46</time>
      </trkpt>
      <trkpt lat="42.86173" lon="-0.45375">
        <ele>1340.4</ele>
        <time>2021-08-09 12:08:47</time>
      </trkpt>
      <trkpt lat="42.86172" lon="-0.45376">
        <ele>1340.6</ele>
        <time>2021-08-09 12:08:48</time>
      </trkpt>
      <trkpt lat="42.8617" lon="-0.45376">
        <ele>1340.8</ele>
        <time>2021-08-09 12:08:49</time>
      </trkpt>
      <trkpt lat="42.86169" lon="-0.45377">
        <ele>1341</ele>
        <time>2021-08-09 12:08:50</time>
      </trkpt>
      <trkpt lat="42.86168" lon="-0.45377">
        <ele>1341.2</ele>
        <time>2021-08-09 12:08:51</time>
      </trkpt>
      <trkpt lat="42.86166" lon="-0.45379">
        <ele>1341.4</ele>
        <time>2021-08-09 12:08:52</time>
      </trkpt>
      <trkpt lat="42.86165" lon="-0.4538">
        <ele>1341.4</ele>
        <time>2021-08-09 12:08:53</time>
      </trkpt>
      <trkpt lat="42.86165" lon="-0.45382">
        <ele>1341.6</ele>
        <time>2021-08-09 12:08:54</time>
      </trkpt>
      <trkpt lat="42.86164" lon="-0.45383">
        <ele>1341.8</ele>
        <time>2021-08-09 12:08:55</time>
      </trkpt>
      <trkpt lat="42.86163" lon="-0.45384">
        <ele>1341.8</ele>
        <time>2021-08-09 12:08:56</time>
      </trkpt>
      <trkpt lat="42.86162" lon="-0.45386">
        <ele>1341.8</ele>
        <time>2021-08-09 12:08:57</time>
      </trkpt>
      <trkpt lat="42.86161" lon="-0.45387">
        <ele>1341.8</ele>
        <time>2021-08-09 12:08:58</time>
      </trkpt>
      <trkpt lat="42.8616" lon="-0.45389">
        <ele>1342</ele>
        <time>2021-08-09 12:08:59</time>
      </trkpt>
      <trkpt lat="42.86159" lon="-0.4539">
        <ele>1342</ele>
        <time>2021-08-09 12:09:00</time>
      </trkpt>
      <trkpt lat="42.86159" lon="-0.45391">
        <ele>1342.2</ele>
        <time>2021-08-09 12:09:01</time>
      </trkpt>
      <trkpt lat="42.86158" lon="-0.45391">
        <ele>1342.4</ele>
        <time>2021-08-09 12:09:02</time>
      </trkpt>
      <trkpt lat="42.86157" lon="-0.45393">
        <ele>1342.4</ele>
        <time>2021-08-09 12:09:03</time>
      </trkpt>
      <trkpt lat="42.86157" lon="-0.45394">
        <ele>1342.6</ele>
        <time>2021-08-09 12:09:04</time>
      </trkpt>
      <trkpt lat="42.86156" lon="-0.45394">
        <ele>1342.8</ele>
        <time>2021-08-09 12:09:05</time>
      </trkpt>
      <trkpt lat="42.86155" lon="-0.45395">
        <ele>1342.8</ele>
        <time>2021-08-09 12:09:06</time>
      </trkpt>
      <trkpt lat="42.86155" lon="-0.45396">
        <ele>1342.8</ele>
        <time>2021-08-09 12:09:07</time>
      </trkpt>
      <trkpt lat="42.86154" lon="-0.45397">
        <ele>1343</ele>
        <time>2021-08-09 12:09:08</time>
      </trkpt>
      <trkpt lat="42.86154" lon="-0.45398">
        <ele>1343.2</ele>
        <time>2021-08-09 12:09:09</time>
      </trkpt>
      <trkpt lat="42.86153" lon="-0.454">
        <ele>1343.6</ele>
        <time>2021-08-09 12:09:10</time>
      </trkpt>
      <trkpt lat="42.86152" lon="-0.45401">
        <ele>1344</ele>
        <time>2021-08-09 12:09:11</time>
      </trkpt>
      <trkpt lat="42.86151" lon="-0.45402">
        <ele>1344</ele>
        <time>2021-08-09 12:09:12</time>
      </trkpt>
      <trkpt lat="42.8615" lon="-0.45403">
        <ele>1344.2</ele>
        <time>2021-08-09 12:09:13</time>
      </trkpt>
      <trkpt lat="42.86149" lon="-0.45404">
        <ele>1344.2</ele>
        <time>2021-08-09 12:09:14</time>
      </trkpt>
      <trkpt lat="42.86149" lon="-0.45406">
        <ele>1344</ele>
        <time>2021-08-09 12:09:15</time>
      </trkpt>
      <trkpt lat="42.86148" lon="-0.45407">
        <ele>1344</ele>
        <time>2021-08-09 12:09:16</time>
      </trkpt>
      <trkpt lat="42.86148" lon="-0.45409">
        <ele>1344.4</ele>
        <time>2021-08-09 12:09:17</time>
      </trkpt>
      <trkpt lat="42.86147" lon="-0.4541">
        <ele>1344.4</ele>
        <time>2021-08-09 12:09:18</time>
      </trkpt>
      <trkpt lat="42.86146" lon="-0.4541">
        <ele>1344.6</ele>
        <time>2021-08-09 12:09:19</time>
      </trkpt>
      <trkpt lat="42.86146" lon="-0.45411">
        <ele>1344.6</ele>
        <time>2021-08-09 12:09:20</time>
      </trkpt>
      <trkpt lat="42.86145" lon="-0.45412">
        <ele>1344.8</ele>
        <time>2021-08-09 12:09:21</time>
      </trkpt>
      <trkpt lat="42.86143" lon="-0.45414">
        <ele>1345</ele>
        <time>2021-08-09 12:09:22</time>
      </trkpt>
      <trkpt lat="42.86143" lon="-0.45414">
        <ele>1345.2</ele>
        <time>2021-08-09 12:09:23</time>
      </trkpt>
      <trkpt lat="42.86142" lon="-0.45415">
        <ele>1345.4</ele>
        <time>2021-08-09 12:09:24</time>
      </trkpt>
      <trkpt lat="42.86141" lon="-0.45416">
        <ele>1345.4</ele>
        <time>2021-08-09 12:09:25</time>
      </trkpt>
      <trkpt lat="42.8614" lon="-0.45416">
        <ele>1345.6</ele>
        <time>2021-08-09 12:09:26</time>
      </trkpt>
      <trkpt lat="42.8614" lon="-0.45416">
        <ele>1345.6</ele>
        <time>2021-08-09 12:09:27</time>
      </trkpt>
      <trkpt lat="42.86139" lon="-0.45417">
        <ele>1345.8</ele>
        <time>2021-08-09 12:09:28</time>
      </trkpt>
      <trkpt lat="42.86138" lon="-0.45418">
        <ele>1345.8</ele>
        <time>2021-08-09 12:09:29</time>
      </trkpt>
      <trkpt lat="42.86137" lon="-0.45418">
        <ele>1346</ele>
        <time>2021-08-09 12:09:30</time>
      </trkpt>
      <trkpt lat="42.86136" lon="-0.45418">
        <ele>1346.2</ele>
        <time>2021-08-09 12:09:31</time>
      </trkpt>
      <trkpt lat="42.86135" lon="-0.45419">
        <ele>1346.4</ele>
        <time>2021-08-09 12:09:32</time>
      </trkpt>
      <trkpt lat="42.86134" lon="-0.45419">
        <ele>1346.4</ele>
        <time>2021-08-09 12:09:33</time>
      </trkpt>
      <trkpt lat="42.86133" lon="-0.45419">
        <ele>1346.2</ele>
        <time>2021-08-09 12:09:34</time>
      </trkpt>
      <trkpt lat="42.86131" lon="-0.45419">
        <ele>1346.2</ele>
        <time>2021-08-09 12:09:35</time>
      </trkpt>
      <trkpt lat="42.86129" lon="-0.45419">
        <ele>1346.2</ele>
        <time>2021-08-09 12:09:36</time>
      </trkpt>
      <trkpt lat="42.86127" lon="-0.45419">
        <ele>1346.8</ele>
        <time>2021-08-09 12:09:37</time>
      </trkpt>
      <trkpt lat="42.86126" lon="-0.45419">
        <ele>1346.8</ele>
        <time>2021-08-09 12:09:38</time>
      </trkpt>
      <trkpt lat="42.86124" lon="-0.45419">
        <ele>1347.4</ele>
        <time>2021-08-09 12:09:39</time>
      </trkpt>
      <trkpt lat="42.86122" lon="-0.4542">
        <ele>1347.6</ele>
        <time>2021-08-09 12:09:40</time>
      </trkpt>
      <trkpt lat="42.86121" lon="-0.4542">
        <ele>1347.8</ele>
        <time>2021-08-09 12:09:41</time>
      </trkpt>
      <trkpt lat="42.86119" lon="-0.4542">
        <ele>1348</ele>
        <time>2021-08-09 12:09:42</time>
      </trkpt>
      <trkpt lat="42.86119" lon="-0.4542">
        <ele>1348.2</ele>
        <time>2021-08-09 12:09:43</time>
      </trkpt>
      <trkpt lat="42.86117" lon="-0.45419">
        <ele>1348.2</ele>
        <time>2021-08-09 12:09:44</time>
      </trkpt>
      <trkpt lat="42.86115" lon="-0.45419">
        <ele>1348.4</ele>
        <time>2021-08-09 12:09:45</time>
      </trkpt>
      <trkpt lat="42.86114" lon="-0.45418">
        <ele>1348.8</ele>
        <time>2021-08-09 12:09:46</time>
      </trkpt>
      <trkpt lat="42.86112" lon="-0.45418">
        <ele>1349</ele>
        <time>2021-08-09 12:09:47</time>
      </trkpt>
      <trkpt lat="42.86111" lon="-0.45418">
        <ele>1349.2</ele>
        <time>2021-08-09 12:09:48</time>
      </trkpt>
      <trkpt lat="42.86109" lon="-0.45418">
        <ele>1349.4</ele>
        <time>2021-08-09 12:09:49</time>
      </trkpt>
      <trkpt lat="42.86108" lon="-0.45418">
        <ele>1349.6</ele>
        <time>2021-08-09 12:09:50</time>
      </trkpt>
      <trkpt lat="42.86107" lon="-0.45419">
        <ele>1349.8</ele>
        <time>2021-08-09 12:09:51</time>
      </trkpt>
      <trkpt lat="42.86106" lon="-0.45419">
        <ele>1350</ele>
        <time>2021-08-09 12:09:52</time>
      </trkpt>
      <trkpt lat="42.86105" lon="-0.45419">
        <ele>1350.2</ele>
        <time>2021-08-09 12:09:53</time>
      </trkpt>
      <trkpt lat="42.86104" lon="-0.45419">
        <ele>1350.6</ele>
        <time>2021-08-09 12:09:54</time>
      </trkpt>
      <trkpt lat="42.86103" lon="-0.45419">
        <ele>1350.4</ele>
        <time>2021-08-09 12:09:55</time>
      </trkpt>
      <trkpt lat="42.86102" lon="-0.45419">
        <ele>1350.4</ele>
        <time>2021-08-09 12:09:56</time>
      </trkpt>
      <trkpt lat="42.861" lon="-0.45419">
        <ele>1350.4</ele>
        <time>2021-08-09 12:09:57</time>
      </trkpt>
      <trkpt lat="42.86099" lon="-0.45419">
        <ele>1350.4</ele>
        <time>2021-08-09 12:09:58</time>
      </trkpt>
      <trkpt lat="42.86098" lon="-0.45419">
        <ele>1350.4</ele>
        <time>2021-08-09 12:09:59</time>
      </trkpt>
      <trkpt lat="42.86096" lon="-0.45418">
        <ele>1350.6</ele>
        <time>2021-08-09 12:10:00</time>
      </trkpt>
      <trkpt lat="42.86095" lon="-0.45418">
        <ele>1350.8</ele>
        <time>2021-08-09 12:10:01</time>
      </trkpt>
      <trkpt lat="42.86093" lon="-0.45418">
        <ele>1351.2</ele>
        <time>2021-08-09 12:10:02</time>
      </trkpt>
      <trkpt lat="42.86092" lon="-0.45418">
        <ele>1351.2</ele>
        <time>2021-08-09 12:10:03</time>
      </trkpt>
      <trkpt lat="42.86092" lon="-0.45419">
        <ele>1351.2</ele>
        <time>2021-08-09 12:10:04</time>
      </trkpt>
      <trkpt lat="42.8609" lon="-0.45419">
        <ele>1351.2</ele>
        <time>2021-08-09 12:10:05</time>
      </trkpt>
      <trkpt lat="42.86089" lon="-0.45419">
        <ele>1351.4</ele>
        <time>2021-08-09 12:10:06</time>
      </trkpt>
      <trkpt lat="42.86087" lon="-0.45419">
        <ele>1351.4</ele>
        <time>2021-08-09 12:10:07</time>
      </trkpt>
      <trkpt lat="42.86086" lon="-0.45419">
        <ele>1351.2</ele>
        <time>2021-08-09 12:10:08</time>
      </trkpt>
      <trkpt lat="42.86085" lon="-0.4542">
        <ele>1351.2</ele>
        <time>2021-08-09 12:10:09</time>
      </trkpt>
      <trkpt lat="42.86084" lon="-0.4542">
        <ele>1351.4</ele>
        <time>2021-08-09 12:10:10</time>
      </trkpt>
      <trkpt lat="42.86083" lon="-0.4542">
        <ele>1351.6</ele>
        <time>2021-08-09 12:10:11</time>
      </trkpt>
      <trkpt lat="42.86082" lon="-0.4542">
        <ele>1352.2</ele>
        <time>2021-08-09 12:10:12</time>
      </trkpt>
      <trkpt lat="42.86081" lon="-0.4542">
        <ele>1352.6</ele>
        <time>2021-08-09 12:10:13</time>
      </trkpt>
      <trkpt lat="42.8608" lon="-0.45421">
        <ele>1352.8</ele>
        <time>2021-08-09 12:10:14</time>
      </trkpt>
      <trkpt lat="42.86079" lon="-0.45421">
        <ele>1353.2</ele>
        <time>2021-08-09 12:10:15</time>
      </trkpt>
      <trkpt lat="42.86078" lon="-0.45422">
        <ele>1353.8</ele>
        <time>2021-08-09 12:10:16</time>
      </trkpt>
      <trkpt lat="42.86077" lon="-0.45422">
        <ele>1354.2</ele>
        <time>2021-08-09 12:10:17</time>
      </trkpt>
      <trkpt lat="42.86076" lon="-0.45423">
        <ele>1354.4</ele>
        <time>2021-08-09 12:10:18</time>
      </trkpt>
      <trkpt lat="42.86075" lon="-0.45423">
        <ele>1354.6</ele>
        <time>2021-08-09 12:10:19</time>
      </trkpt>
      <trkpt lat="42.86073" lon="-0.45423">
        <ele>1354.8</ele>
        <time>2021-08-09 12:10:20</time>
      </trkpt>
      <trkpt lat="42.86072" lon="-0.45424">
        <ele>1355</ele>
        <time>2021-08-09 12:10:21</time>
      </trkpt>
      <trkpt lat="42.86071" lon="-0.45426">
        <ele>1355.2</ele>
        <time>2021-08-09 12:10:22</time>
      </trkpt>
      <trkpt lat="42.86071" lon="-0.45426">
        <ele>1355.4</ele>
        <time>2021-08-09 12:10:23</time>
      </trkpt>
      <trkpt lat="42.86069" lon="-0.45427">
        <ele>1355.2</ele>
        <time>2021-08-09 12:10:24</time>
      </trkpt>
      <trkpt lat="42.86068" lon="-0.45428">
        <ele>1355.4</ele>
        <time>2021-08-09 12:10:25</time>
      </trkpt>
      <trkpt lat="42.86067" lon="-0.45429">
        <ele>1355.8</ele>
        <time>2021-08-09 12:10:26</time>
      </trkpt>
      <trkpt lat="42.86066" lon="-0.4543">
        <ele>1356</ele>
        <time>2021-08-09 12:10:27</time>
      </trkpt>
      <trkpt lat="42.86066" lon="-0.45431">
        <ele>1356.2</ele>
        <time>2021-08-09 12:10:28</time>
      </trkpt>
      <trkpt lat="42.86065" lon="-0.45431">
        <ele>1356.4</ele>
        <time>2021-08-09 12:10:29</time>
      </trkpt>
      <trkpt lat="42.86063" lon="-0.45432">
        <ele>1356.6</ele>
        <time>2021-08-09 12:10:30</time>
      </trkpt>
      <trkpt lat="42.86062" lon="-0.45432">
        <ele>1356.6</ele>
        <time>2021-08-09 12:10:31</time>
      </trkpt>
      <trkpt lat="42.86061" lon="-0.45433">
        <ele>1356.6</ele>
        <time>2021-08-09 12:10:32</time>
      </trkpt>
      <trkpt lat="42.8606" lon="-0.45433">
        <ele>1356.8</ele>
        <time>2021-08-09 12:10:33</time>
      </trkpt>
      <trkpt lat="42.86059" lon="-0.45434">
        <ele>1356.8</ele>
        <time>2021-08-09 12:10:34</time>
      </trkpt>
      <trkpt lat="42.86058" lon="-0.45434">
        <ele>1357</ele>
        <time>2021-08-09 12:10:35</time>
      </trkpt>
      <trkpt lat="42.86056" lon="-0.45436">
        <ele>1357.2</ele>
        <time>2021-08-09 12:10:36</time>
      </trkpt>
      <trkpt lat="42.86054" lon="-0.45437">
        <ele>1357.4</ele>
        <time>2021-08-09 12:10:37</time>
      </trkpt>
      <trkpt lat="42.86052" lon="-0.45439">
        <ele>1357.4</ele>
        <time>2021-08-09 12:10:38</time>
      </trkpt>
      <trkpt lat="42.8605" lon="-0.4544">
        <ele>1357.4</ele>
        <time>2021-08-09 12:10:39</time>
      </trkpt>
      <trkpt lat="42.86047" lon="-0.45442">
        <ele>1357.6</ele>
        <time>2021-08-09 12:10:40</time>
      </trkpt>
      <trkpt lat="42.86046" lon="-0.45442">
        <ele>1357.8</ele>
        <time>2021-08-09 12:10:41</time>
      </trkpt>
      <trkpt lat="42.86044" lon="-0.45443">
        <ele>1358.2</ele>
        <time>2021-08-09 12:10:42</time>
      </trkpt>
      <trkpt lat="42.86042" lon="-0.45444">
        <ele>1358.2</ele>
        <time>2021-08-09 12:10:43</time>
      </trkpt>
      <trkpt lat="42.8604" lon="-0.45445">
        <ele>1358</ele>
        <time>2021-08-09 12:10:44</time>
      </trkpt>
      <trkpt lat="42.86038" lon="-0.45446">
        <ele>1357.8</ele>
        <time>2021-08-09 12:10:45</time>
      </trkpt>
      <trkpt lat="42.86037" lon="-0.45446">
        <ele>1357.6</ele>
        <time>2021-08-09 12:10:46</time>
      </trkpt>
      <trkpt lat="42.86035" lon="-0.45446">
        <ele>1357.8</ele>
        <time>2021-08-09 12:10:47</time>
      </trkpt>
      <trkpt lat="42.86034" lon="-0.45447">
        <ele>1358</ele>
        <time>2021-08-09 12:10:48</time>
      </trkpt>
      <trkpt lat="42.86033" lon="-0.45448">
        <ele>1358.2</ele>
        <time>2021-08-09 12:10:49</time>
      </trkpt>
      <trkpt lat="42.86031" lon="-0.45448">
        <ele>1358.6</ele>
        <time>2021-08-09 12:10:50</time>
      </trkpt>
      <trkpt lat="42.8603" lon="-0.45449">
        <ele>1359</ele>
        <time>2021-08-09 12:10:51</time>
      </trkpt>
      <trkpt lat="42.86028" lon="-0.45449">
        <ele>1359.2</ele>
        <time>2021-08-09 12:10:52</time>
      </trkpt>
      <trkpt lat="42.86027" lon="-0.45449">
        <ele>1359.6</ele>
        <time>2021-08-09 12:10:53</time>
      </trkpt>
      <trkpt lat="42.86026" lon="-0.4545">
        <ele>1359.8</ele>
        <time>2021-08-09 12:10:54</time>
      </trkpt>
      <trkpt lat="42.86024" lon="-0.4545">
        <ele>1360</ele>
        <time>2021-08-09 12:10:55</time>
      </trkpt>
      <trkpt lat="42.86023" lon="-0.4545">
        <ele>1360.4</ele>
        <time>2021-08-09 12:10:56</time>
      </trkpt>
      <trkpt lat="42.86022" lon="-0.4545">
        <ele>1360.6</ele>
        <time>2021-08-09 12:10:57</time>
      </trkpt>
      <trkpt lat="42.86021" lon="-0.4545">
        <ele>1361</ele>
        <time>2021-08-09 12:10:58</time>
      </trkpt>
      <trkpt lat="42.8602" lon="-0.45449">
        <ele>1361.2</ele>
        <time>2021-08-09 12:10:59</time>
      </trkpt>
      <trkpt lat="42.86019" lon="-0.4545">
        <ele>1361.4</ele>
        <time>2021-08-09 12:11:00</time>
      </trkpt>
      <trkpt lat="42.86017" lon="-0.4545">
        <ele>1361.4</ele>
        <time>2021-08-09 12:11:01</time>
      </trkpt>
      <trkpt lat="42.86016" lon="-0.4545">
        <ele>1361.6</ele>
        <time>2021-08-09 12:11:02</time>
      </trkpt>
      <trkpt lat="42.86015" lon="-0.4545">
        <ele>1361.6</ele>
        <time>2021-08-09 12:11:03</time>
      </trkpt>
      <trkpt lat="42.86014" lon="-0.45451">
        <ele>1361.4</ele>
        <time>2021-08-09 12:11:04</time>
      </trkpt>
      <trkpt lat="42.86012" lon="-0.45451">
        <ele>1361</ele>
        <time>2021-08-09 12:11:05</time>
      </trkpt>
      <trkpt lat="42.86011" lon="-0.45451">
        <ele>1361</ele>
        <time>2021-08-09 12:11:06</time>
      </trkpt>
      <trkpt lat="42.8601" lon="-0.45451">
        <ele>1361</ele>
        <time>2021-08-09 12:11:07</time>
      </trkpt>
      <trkpt lat="42.86009" lon="-0.45451">
        <ele>1361.4</ele>
        <time>2021-08-09 12:11:08</time>
      </trkpt>
      <trkpt lat="42.86008" lon="-0.45451">
        <ele>1361.6</ele>
        <time>2021-08-09 12:11:09</time>
      </trkpt>
      <trkpt lat="42.86007" lon="-0.45451">
        <ele>1362</ele>
        <time>2021-08-09 12:11:10</time>
      </trkpt>
      <trkpt lat="42.86006" lon="-0.4545">
        <ele>1362.4</ele>
        <time>2021-08-09 12:11:11</time>
      </trkpt>
      <trkpt lat="42.86005" lon="-0.4545">
        <ele>1362.6</ele>
        <time>2021-08-09 12:11:12</time>
      </trkpt>
      <trkpt lat="42.86004" lon="-0.4545">
        <ele>1362.8</ele>
        <time>2021-08-09 12:11:13</time>
      </trkpt>
      <trkpt lat="42.86003" lon="-0.4545">
        <ele>1363</ele>
        <time>2021-08-09 12:11:14</time>
      </trkpt>
      <trkpt lat="42.86002" lon="-0.4545">
        <ele>1363.4</ele>
        <time>2021-08-09 12:11:15</time>
      </trkpt>
      <trkpt lat="42.86001" lon="-0.4545">
        <ele>1363.6</ele>
        <time>2021-08-09 12:11:16</time>
      </trkpt>
      <trkpt lat="42.86" lon="-0.4545">
        <ele>1363.4</ele>
        <time>2021-08-09 12:11:17</time>
      </trkpt>
      <trkpt lat="42.85998" lon="-0.4545">
        <ele>1363.6</ele>
        <time>2021-08-09 12:11:18</time>
      </trkpt>
      <trkpt lat="42.85997" lon="-0.4545">
        <ele>1363.6</ele>
        <time>2021-08-09 12:11:19</time>
      </trkpt>
      <trkpt lat="42.85995" lon="-0.45451">
        <ele>1363.8</ele>
        <time>2021-08-09 12:11:20</time>
      </trkpt>
      <trkpt lat="42.85993" lon="-0.45452">
        <ele>1363.8</ele>
        <time>2021-08-09 12:11:21</time>
      </trkpt>
      <trkpt lat="42.85992" lon="-0.45452">
        <ele>1364</ele>
        <time>2021-08-09 12:11:22</time>
      </trkpt>
      <trkpt lat="42.8599" lon="-0.45453">
        <ele>1363.8</ele>
        <time>2021-08-09 12:11:23</time>
      </trkpt>
      <trkpt lat="42.85988" lon="-0.45454">
        <ele>1363.8</ele>
        <time>2021-08-09 12:11:24</time>
      </trkpt>
      <trkpt lat="42.85987" lon="-0.45455">
        <ele>1363.8</ele>
        <time>2021-08-09 12:11:25</time>
      </trkpt>
      <trkpt lat="42.85986" lon="-0.45456">
        <ele>1363.8</ele>
        <time>2021-08-09 12:11:26</time>
      </trkpt>
      <trkpt lat="42.85985" lon="-0.45456">
        <ele>1363.8</ele>
        <time>2021-08-09 12:11:27</time>
      </trkpt>
      <trkpt lat="42.85985" lon="-0.45455">
        <ele>1364</ele>
        <time>2021-08-09 12:11:28</time>
      </trkpt>
      <trkpt lat="42.85986" lon="-0.45454">
        <ele>1364.2</ele>
        <time>2021-08-09 12:11:29</time>
      </trkpt>
      <trkpt lat="42.85985" lon="-0.45453">
        <ele>1364.6</ele>
        <time>2021-08-09 12:11:30</time>
      </trkpt>
      <trkpt lat="42.85986" lon="-0.45453">
        <ele>1364.6</ele>
        <time>2021-08-09 12:11:31</time>
      </trkpt>
      <trkpt lat="42.85986" lon="-0.45453">
        <ele>1364.6</ele>
        <time>2021-08-09 12:11:32</time>
      </trkpt>
      <trkpt lat="42.85986" lon="-0.45453">
        <ele>1364.4</ele>
        <time>2021-08-09 12:11:33</time>
      </trkpt>
      <trkpt lat="42.85986" lon="-0.45453">
        <ele>1364</ele>
        <time>2021-08-09 12:11:34</time>
      </trkpt>
      <trkpt lat="42.85985" lon="-0.45454">
        <ele>1364</ele>
        <time>2021-08-09 12:11:35</time>
      </trkpt>
      <trkpt lat="42.85984" lon="-0.45454">
        <ele>1364</ele>
        <time>2021-08-09 12:11:36</time>
      </trkpt>
      <trkpt lat="42.85984" lon="-0.45454">
        <ele>1364.4</ele>
        <time>2021-08-09 12:11:37</time>
      </trkpt>
      <trkpt lat="42.85983" lon="-0.45454">
        <ele>1364.4</ele>
        <time>2021-08-09 12:11:38</time>
      </trkpt>
      <trkpt lat="42.85982" lon="-0.45454">
        <ele>1365</ele>
        <time>2021-08-09 12:11:39</time>
      </trkpt>
      <trkpt lat="42.85981" lon="-0.45455">
        <ele>1365</ele>
        <time>2021-08-09 12:11:40</time>
      </trkpt>
      <trkpt lat="42.8598" lon="-0.45455">
        <ele>1365.2</ele>
        <time>2021-08-09 12:11:41</time>
      </trkpt>
      <trkpt lat="42.85979" lon="-0.45456">
        <ele>1365.2</ele>
        <time>2021-08-09 12:11:42</time>
      </trkpt>
      <trkpt lat="42.85979" lon="-0.45456">
        <ele>1365.4</ele>
        <time>2021-08-09 12:11:43</time>
      </trkpt>
      <trkpt lat="42.85978" lon="-0.45457">
        <ele>1365.4</ele>
        <time>2021-08-09 12:11:44</time>
      </trkpt>
      <trkpt lat="42.85977" lon="-0.45458">
        <ele>1365.2</ele>
        <time>2021-08-09 12:11:45</time>
      </trkpt>
      <trkpt lat="42.85976" lon="-0.45458">
        <ele>1365.2</ele>
        <time>2021-08-09 12:11:46</time>
      </trkpt>
      <trkpt lat="42.85974" lon="-0.45459">
        <ele>1365.2</ele>
        <time>2021-08-09 12:11:47</time>
      </trkpt>
      <trkpt lat="42.85973" lon="-0.45459">
        <ele>1365.6</ele>
        <time>2021-08-09 12:11:48</time>
      </trkpt>
      <trkpt lat="42.85972" lon="-0.4546">
        <ele>1365.8</ele>
        <time>2021-08-09 12:11:49</time>
      </trkpt>
      <trkpt lat="42.85971" lon="-0.4546">
        <ele>1366</ele>
        <time>2021-08-09 12:11:50</time>
      </trkpt>
      <trkpt lat="42.8597" lon="-0.45461">
        <ele>1366.2</ele>
        <time>2021-08-09 12:11:51</time>
      </trkpt>
      <trkpt lat="42.85969" lon="-0.45461">
        <ele>1366.4</ele>
        <time>2021-08-09 12:11:52</time>
      </trkpt>
      <trkpt lat="42.85968" lon="-0.45462">
        <ele>1366.6</ele>
        <time>2021-08-09 12:11:53</time>
      </trkpt>
      <trkpt lat="42.85966" lon="-0.45462">
        <ele>1366.8</ele>
        <time>2021-08-09 12:11:54</time>
      </trkpt>
      <trkpt lat="42.85965" lon="-0.45462">
        <ele>1367</ele>
        <time>2021-08-09 12:11:55</time>
      </trkpt>
      <trkpt lat="42.85964" lon="-0.45463">
        <ele>1367</ele>
        <time>2021-08-09 12:11:56</time>
      </trkpt>
      <trkpt lat="42.85963" lon="-0.45463">
        <ele>1367.2</ele>
        <time>2021-08-09 12:11:57</time>
      </trkpt>
      <trkpt lat="42.85962" lon="-0.45464">
        <ele>1367.4</ele>
        <time>2021-08-09 12:11:58</time>
      </trkpt>
      <trkpt lat="42.8596" lon="-0.45464">
        <ele>1367</ele>
        <time>2021-08-09 12:11:59</time>
      </trkpt>
      <trkpt lat="42.85959" lon="-0.45465">
        <ele>1367.4</ele>
        <time>2021-08-09 12:12:00</time>
      </trkpt>
      <trkpt lat="42.85957" lon="-0.45465">
        <ele>1367.8</ele>
        <time>2021-08-09 12:12:01</time>
      </trkpt>
      <trkpt lat="42.85956" lon="-0.45466">
        <ele>1368.4</ele>
        <time>2021-08-09 12:12:02</time>
      </trkpt>
      <trkpt lat="42.85955" lon="-0.45466">
        <ele>1368.6</ele>
        <time>2021-08-09 12:12:03</time>
      </trkpt>
      <trkpt lat="42.85955" lon="-0.45466">
        <ele>1368.6</ele>
        <time>2021-08-09 12:12:04</time>
      </trkpt>
      <trkpt lat="42.85954" lon="-0.45467">
        <ele>1368.6</ele>
        <time>2021-08-09 12:12:05</time>
      </trkpt>
      <trkpt lat="42.85953" lon="-0.45467">
        <ele>1368.8</ele>
        <time>2021-08-09 12:12:06</time>
      </trkpt>
      <trkpt lat="42.85952" lon="-0.45467">
        <ele>1368.8</ele>
        <time>2021-08-09 12:12:07</time>
      </trkpt>
      <trkpt lat="42.85951" lon="-0.45468">
        <ele>1368.8</ele>
        <time>2021-08-09 12:12:08</time>
      </trkpt>
      <trkpt lat="42.8595" lon="-0.45469">
        <ele>1368.6</ele>
        <time>2021-08-09 12:12:09</time>
      </trkpt>
      <trkpt lat="42.85949" lon="-0.4547">
        <ele>1368.8</ele>
        <time>2021-08-09 12:12:10</time>
      </trkpt>
      <trkpt lat="42.85948" lon="-0.4547">
        <ele>1369</ele>
        <time>2021-08-09 12:12:11</time>
      </trkpt>
      <trkpt lat="42.85947" lon="-0.4547">
        <ele>1369.2</ele>
        <time>2021-08-09 12:12:12</time>
      </trkpt>
      <trkpt lat="42.85945" lon="-0.4547">
        <ele>1369.4</ele>
        <time>2021-08-09 12:12:13</time>
      </trkpt>
      <trkpt lat="42.85944" lon="-0.4547">
        <ele>1369.8</ele>
        <time>2021-08-09 12:12:14</time>
      </trkpt>
      <trkpt lat="42.85944" lon="-0.45471">
        <ele>1370</ele>
        <time>2021-08-09 12:12:15</time>
      </trkpt>
      <trkpt lat="42.85943" lon="-0.45471">
        <ele>1370.2</ele>
        <time>2021-08-09 12:12:16</time>
      </trkpt>
      <trkpt lat="42.85942" lon="-0.45471">
        <ele>1370.4</ele>
        <time>2021-08-09 12:12:17</time>
      </trkpt>
      <trkpt lat="42.85941" lon="-0.45471">
        <ele>1370.4</ele>
        <time>2021-08-09 12:12:18</time>
      </trkpt>
      <trkpt lat="42.8594" lon="-0.45471">
        <ele>1370.4</ele>
        <time>2021-08-09 12:12:19</time>
      </trkpt>
      <trkpt lat="42.85939" lon="-0.4547">
        <ele>1370.6</ele>
        <time>2021-08-09 12:12:20</time>
      </trkpt>
      <trkpt lat="42.85938" lon="-0.45469">
        <ele>1370.8</ele>
        <time>2021-08-09 12:12:21</time>
      </trkpt>
      <trkpt lat="42.85937" lon="-0.45469">
        <ele>1370.8</ele>
        <time>2021-08-09 12:12:22</time>
      </trkpt>
      <trkpt lat="42.85937" lon="-0.45468">
        <ele>1371</ele>
        <time>2021-08-09 12:12:23</time>
      </trkpt>
      <trkpt lat="42.85936" lon="-0.45468">
        <ele>1371.2</ele>
        <time>2021-08-09 12:12:24</time>
      </trkpt>
      <trkpt lat="42.85935" lon="-0.45467">
        <ele>1371.2</ele>
        <time>2021-08-09 12:12:25</time>
      </trkpt>
      <trkpt lat="42.85935" lon="-0.45467">
        <ele>1371.4</ele>
        <time>2021-08-09 12:12:26</time>
      </trkpt>
      <trkpt lat="42.85934" lon="-0.45466">
        <ele>1371.4</ele>
        <time>2021-08-09 12:12:27</time>
      </trkpt>
      <trkpt lat="42.85934" lon="-0.45466">
        <ele>1371.6</ele>
        <time>2021-08-09 12:12:28</time>
      </trkpt>
      <trkpt lat="42.85933" lon="-0.45465">
        <ele>1371.6</ele>
        <time>2021-08-09 12:12:29</time>
      </trkpt>
      <trkpt lat="42.85932" lon="-0.45465">
        <ele>1371.8</ele>
        <time>2021-08-09 12:12:30</time>
      </trkpt>
      <trkpt lat="42.85932" lon="-0.45465">
        <ele>1371.8</ele>
        <time>2021-08-09 12:12:31</time>
      </trkpt>
      <trkpt lat="42.85931" lon="-0.45464">
        <ele>1372</ele>
        <time>2021-08-09 12:12:32</time>
      </trkpt>
      <trkpt lat="42.8593" lon="-0.45464">
        <ele>1372</ele>
        <time>2021-08-09 12:12:33</time>
      </trkpt>
      <trkpt lat="42.85929" lon="-0.45464">
        <ele>1372</ele>
        <time>2021-08-09 12:12:34</time>
      </trkpt>
      <trkpt lat="42.85929" lon="-0.45464">
        <ele>1372.2</ele>
        <time>2021-08-09 12:12:35</time>
      </trkpt>
      <trkpt lat="42.85928" lon="-0.45463">
        <ele>1372.4</ele>
        <time>2021-08-09 12:12:36</time>
      </trkpt>
      <trkpt lat="42.85927" lon="-0.45463">
        <ele>1372.2</ele>
        <time>2021-08-09 12:12:37</time>
      </trkpt>
      <trkpt lat="42.85926" lon="-0.45462">
        <ele>1372.2</ele>
        <time>2021-08-09 12:12:38</time>
      </trkpt>
      <trkpt lat="42.85926" lon="-0.45462">
        <ele>1372.2</ele>
        <time>2021-08-09 12:12:39</time>
      </trkpt>
      <trkpt lat="42.85925" lon="-0.45461">
        <ele>1372.2</ele>
        <time>2021-08-09 12:12:40</time>
      </trkpt>
      <trkpt lat="42.85924" lon="-0.45461">
        <ele>1372.4</ele>
        <time>2021-08-09 12:12:41</time>
      </trkpt>
      <trkpt lat="42.85923" lon="-0.45461">
        <ele>1372.6</ele>
        <time>2021-08-09 12:12:42</time>
      </trkpt>
      <trkpt lat="42.85922" lon="-0.4546">
        <ele>1373</ele>
        <time>2021-08-09 12:12:43</time>
      </trkpt>
      <trkpt lat="42.85921" lon="-0.4546">
        <ele>1373.2</ele>
        <time>2021-08-09 12:12:44</time>
      </trkpt>
      <trkpt lat="42.8592" lon="-0.45459">
        <ele>1373.4</ele>
        <time>2021-08-09 12:12:45</time>
      </trkpt>
      <trkpt lat="42.8592" lon="-0.45458">
        <ele>1373.8</ele>
        <time>2021-08-09 12:12:46</time>
      </trkpt>
      <trkpt lat="42.85919" lon="-0.45458">
        <ele>1374</ele>
        <time>2021-08-09 12:12:47</time>
      </trkpt>
      <trkpt lat="42.85919" lon="-0.45458">
        <ele>1374.2</ele>
        <time>2021-08-09 12:12:48</time>
      </trkpt>
      <trkpt lat="42.85918" lon="-0.45458">
        <ele>1374.4</ele>
        <time>2021-08-09 12:12:49</time>
      </trkpt>
      <trkpt lat="42.85917" lon="-0.45457">
        <ele>1374.6</ele>
        <time>2021-08-09 12:12:50</time>
      </trkpt>
      <trkpt lat="42.85917" lon="-0.45457">
        <ele>1374.8</ele>
        <time>2021-08-09 12:12:51</time>
      </trkpt>
      <trkpt lat="42.85915" lon="-0.45457">
        <ele>1375</ele>
        <time>2021-08-09 12:12:52</time>
      </trkpt>
      <trkpt lat="42.85915" lon="-0.45458">
        <ele>1375</ele>
        <time>2021-08-09 12:12:53</time>
      </trkpt>
      <trkpt lat="42.85914" lon="-0.45458">
        <ele>1375.4</ele>
        <time>2021-08-09 12:12:54</time>
      </trkpt>
      <trkpt lat="42.85914" lon="-0.45458">
        <ele>1375.8</ele>
        <time>2021-08-09 12:12:55</time>
      </trkpt>
      <trkpt lat="42.85913" lon="-0.45457">
        <ele>1376.2</ele>
        <time>2021-08-09 12:12:56</time>
      </trkpt>
      <trkpt lat="42.85912" lon="-0.45457">
        <ele>1376.2</ele>
        <time>2021-08-09 12:12:57</time>
      </trkpt>
      <trkpt lat="42.85911" lon="-0.45457">
        <ele>1376.6</ele>
        <time>2021-08-09 12:12:58</time>
      </trkpt>
      <trkpt lat="42.8591" lon="-0.45457">
        <ele>1376.8</ele>
        <time>2021-08-09 12:12:59</time>
      </trkpt>
      <trkpt lat="42.8591" lon="-0.45456">
        <ele>1376.8</ele>
        <time>2021-08-09 12:13:00</time>
      </trkpt>
      <trkpt lat="42.85908" lon="-0.45456">
        <ele>1377</ele>
        <time>2021-08-09 12:13:01</time>
      </trkpt>
      <trkpt lat="42.85908" lon="-0.45456">
        <ele>1377.2</ele>
        <time>2021-08-09 12:13:02</time>
      </trkpt>
      <trkpt lat="42.85907" lon="-0.45456">
        <ele>1377</ele>
        <time>2021-08-09 12:13:03</time>
      </trkpt>
      <trkpt lat="42.85906" lon="-0.45455">
        <ele>1377</ele>
        <time>2021-08-09 12:13:04</time>
      </trkpt>
      <trkpt lat="42.85905" lon="-0.45454">
        <ele>1377</ele>
        <time>2021-08-09 12:13:05</time>
      </trkpt>
      <trkpt lat="42.85904" lon="-0.45454">
        <ele>1377.2</ele>
        <time>2021-08-09 12:13:06</time>
      </trkpt>
      <trkpt lat="42.85904" lon="-0.45453">
        <ele>1377</ele>
        <time>2021-08-09 12:13:07</time>
      </trkpt>
      <trkpt lat="42.85903" lon="-0.45453">
        <ele>1376.4</ele>
        <time>2021-08-09 12:13:08</time>
      </trkpt>
      <trkpt lat="42.85903" lon="-0.45452">
        <ele>1377</ele>
        <time>2021-08-09 12:13:09</time>
      </trkpt>
      <trkpt lat="42.85902" lon="-0.45452">
        <ele>1378</ele>
        <time>2021-08-09 12:13:10</time>
      </trkpt>
      <trkpt lat="42.85901" lon="-0.45452">
        <ele>1378</ele>
        <time>2021-08-09 12:13:11</time>
      </trkpt>
      <trkpt lat="42.859" lon="-0.45452">
        <ele>1378</ele>
        <time>2021-08-09 12:13:12</time>
      </trkpt>
      <trkpt lat="42.859" lon="-0.45451">
        <ele>1378</ele>
        <time>2021-08-09 12:13:13</time>
      </trkpt>
      <trkpt lat="42.85899" lon="-0.4545">
        <ele>1378.2</ele>
        <time>2021-08-09 12:13:14</time>
      </trkpt>
      <trkpt lat="42.85899" lon="-0.4545">
        <ele>1378.2</ele>
        <time>2021-08-09 12:13:15</time>
      </trkpt>
      <trkpt lat="42.85898" lon="-0.4545">
        <ele>1378.4</ele>
        <time>2021-08-09 12:13:16</time>
      </trkpt>
      <trkpt lat="42.85897" lon="-0.4545">
        <ele>1378.6</ele>
        <time>2021-08-09 12:13:17</time>
      </trkpt>
      <trkpt lat="42.85896" lon="-0.4545">
        <ele>1378.6</ele>
        <time>2021-08-09 12:13:18</time>
      </trkpt>
      <trkpt lat="42.85895" lon="-0.4545">
        <ele>1378.8</ele>
        <time>2021-08-09 12:13:19</time>
      </trkpt>
      <trkpt lat="42.85893" lon="-0.4545">
        <ele>1379</ele>
        <time>2021-08-09 12:13:20</time>
      </trkpt>
      <trkpt lat="42.85893" lon="-0.4545">
        <ele>1378.8</ele>
        <time>2021-08-09 12:13:21</time>
      </trkpt>
      <trkpt lat="42.85892" lon="-0.45449">
        <ele>1378.8</ele>
        <time>2021-08-09 12:13:22</time>
      </trkpt>
      <trkpt lat="42.85891" lon="-0.45449">
        <ele>1378.8</ele>
        <time>2021-08-09 12:13:23</time>
      </trkpt>
      <trkpt lat="42.8589" lon="-0.45448">
        <ele>1378.6</ele>
        <time>2021-08-09 12:13:24</time>
      </trkpt>
      <trkpt lat="42.85889" lon="-0.45448">
        <ele>1378.6</ele>
        <time>2021-08-09 12:13:25</time>
      </trkpt>
      <trkpt lat="42.85889" lon="-0.45448">
        <ele>1378.8</ele>
        <time>2021-08-09 12:13:26</time>
      </trkpt>
      <trkpt lat="42.85888" lon="-0.45449">
        <ele>1378.8</ele>
        <time>2021-08-09 12:13:27</time>
      </trkpt>
      <trkpt lat="42.85887" lon="-0.45449">
        <ele>1379</ele>
        <time>2021-08-09 12:13:28</time>
      </trkpt>
      <trkpt lat="42.85886" lon="-0.4545">
        <ele>1379.2</ele>
        <time>2021-08-09 12:13:29</time>
      </trkpt>
      <trkpt lat="42.85885" lon="-0.4545">
        <ele>1379.2</ele>
        <time>2021-08-09 12:13:30</time>
      </trkpt>
      <trkpt lat="42.85884" lon="-0.45449">
        <ele>1379.6</ele>
        <time>2021-08-09 12:13:31</time>
      </trkpt>
      <trkpt lat="42.85883" lon="-0.45449">
        <ele>1379.8</ele>
        <time>2021-08-09 12:13:32</time>
      </trkpt>
      <trkpt lat="42.85882" lon="-0.45451">
        <ele>1379.8</ele>
        <time>2021-08-09 12:13:33</time>
      </trkpt>
      <trkpt lat="42.85881" lon="-0.45451">
        <ele>1379.8</ele>
        <time>2021-08-09 12:13:34</time>
      </trkpt>
      <trkpt lat="42.85881" lon="-0.45451">
        <ele>1380</ele>
        <time>2021-08-09 12:13:35</time>
      </trkpt>
      <trkpt lat="42.8588" lon="-0.45451">
        <ele>1380</ele>
        <time>2021-08-09 12:13:36</time>
      </trkpt>
      <trkpt lat="42.85879" lon="-0.4545">
        <ele>1380.2</ele>
        <time>2021-08-09 12:13:37</time>
      </trkpt>
      <trkpt lat="42.85878" lon="-0.45449">
        <ele>1380.4</ele>
        <time>2021-08-09 12:13:38</time>
      </trkpt>
      <trkpt lat="42.85876" lon="-0.45449">
        <ele>1380.4</ele>
        <time>2021-08-09 12:13:39</time>
      </trkpt>
      <trkpt lat="42.85876" lon="-0.45449">
        <ele>1380.6</ele>
        <time>2021-08-09 12:13:40</time>
      </trkpt>
      <trkpt lat="42.85875" lon="-0.45448">
        <ele>1380.6</ele>
        <time>2021-08-09 12:13:41</time>
      </trkpt>
      <trkpt lat="42.85875" lon="-0.45448">
        <ele>1380.8</ele>
        <time>2021-08-09 12:13:42</time>
      </trkpt>
      <trkpt lat="42.85874" lon="-0.45447">
        <ele>1381</ele>
        <time>2021-08-09 12:13:43</time>
      </trkpt>
      <trkpt lat="42.85873" lon="-0.45447">
        <ele>1381</ele>
        <time>2021-08-09 12:13:44</time>
      </trkpt>
      <trkpt lat="42.85872" lon="-0.45446">
        <ele>1381.4</ele>
        <time>2021-08-09 12:13:45</time>
      </trkpt>
      <trkpt lat="42.85871" lon="-0.45446">
        <ele>1381.6</ele>
        <time>2021-08-09 12:13:46</time>
      </trkpt>
      <trkpt lat="42.85871" lon="-0.45445">
        <ele>1381.6</ele>
        <time>2021-08-09 12:13:47</time>
      </trkpt>
      <trkpt lat="42.8587" lon="-0.45445">
        <ele>1381.6</ele>
        <time>2021-08-09 12:13:48</time>
      </trkpt>
      <trkpt lat="42.85869" lon="-0.45444">
        <ele>1381.4</ele>
        <time>2021-08-09 12:13:49</time>
      </trkpt>
      <trkpt lat="42.85867" lon="-0.45444">
        <ele>1381.4</ele>
        <time>2021-08-09 12:13:50</time>
      </trkpt>
      <trkpt lat="42.85866" lon="-0.45444">
        <ele>1381.6</ele>
        <time>2021-08-09 12:13:51</time>
      </trkpt>
      <trkpt lat="42.85866" lon="-0.45444">
        <ele>1381.8</ele>
        <time>2021-08-09 12:13:52</time>
      </trkpt>
      <trkpt lat="42.8586" lon="-0.45445">
        <ele>1381.8</ele>
        <time>2021-08-09 12:13:53</time>
      </trkpt>
      <trkpt lat="42.8586" lon="-0.45445">
        <ele>1382</ele>
        <time>2021-08-09 12:13:54</time>
      </trkpt>
      <trkpt lat="42.85857" lon="-0.45446">
        <ele>1382.2</ele>
        <time>2021-08-09 12:13:55</time>
      </trkpt>
      <trkpt lat="42.85854" lon="-0.45447">
        <ele>1382.2</ele>
        <time>2021-08-09 12:13:56</time>
      </trkpt>
      <trkpt lat="42.85852" lon="-0.45447">
        <ele>1382.2</ele>
        <time>2021-08-09 12:13:57</time>
      </trkpt>
      <trkpt lat="42.8585" lon="-0.45448">
        <ele>1382</ele>
        <time>2021-08-09 12:13:58</time>
      </trkpt>
      <trkpt lat="42.85849" lon="-0.45448">
        <ele>1382.2</ele>
        <time>2021-08-09 12:13:59</time>
      </trkpt>
      <trkpt lat="42.85847" lon="-0.45448">
        <ele>1382.2</ele>
      </trkpt>
      <trkpt lat="42.85846" lon="-0.45448">
        <ele>1382.4</ele>
        <time>2021-08-09 12:14:01</time>
      </trkpt>
      <trkpt lat="42.85845" lon="-0.45448">
        <ele>1382.2</ele>
        <time>2021-08-09 12:14:02</time>
      </trkpt>
      <trkpt lat="42.85843" lon="-0.45449">
        <ele>1381.8</ele>
        <time>2021-08-09 12:14:03</time>
      </trkpt>
      <trkpt lat="42.85841" lon="-0.45449">
        <ele>1382</ele>
        <time>2021-08-09 12:14:04</time>
      </trkpt>
      <trkpt lat="42.85839" lon="-0.4545">
        <ele>1382.2</ele>
        <time>2021-08-09 12:14:05</time>
      </trkpt>
      <trkpt lat="42.85838" lon="-0.4545">
        <ele>1382.4</ele>
        <time>2021-08-09 12:14:06</time>
      </trkpt>
      <trkpt lat="42.85836" lon="-0.45451">
        <ele>1382.6</ele>
        <time>2021-08-09 12:14:07</time>
      </trkpt>
      <trkpt lat="42.85834" lon="-0.45451">
        <ele>1382.4</ele>
        <time>2021-08-09 12:14:08</time>
      </trkpt>
      <trkpt lat="42.85832" lon="-0.45452">
        <ele>1382.4</ele>
        <time>2021-08-09 12:14:09</time>
      </trkpt>
      <trkpt lat="42.85832" lon="-0.45454">
        <ele>1382.4</ele>
        <time>2021-08-09 12:14:10</time>
      </trkpt>
      <trkpt lat="42.85831" lon="-0.45455">
        <ele>1382.8</ele>
        <time>2021-08-09 12:14:11</time>
      </trkpt>
      <trkpt lat="42.85831" lon="-0.45456">
        <ele>1383</ele>
        <time>2021-08-09 12:14:12</time>
      </trkpt>
      <trkpt lat="42.85831" lon="-0.45456">
        <ele>1383.2</ele>
        <time>2021-08-09 12:14:13</time>
      </trkpt>
      <trkpt lat="42.85831" lon="-0.45456">
        <ele>1383</ele>
        <time>2021-08-09 12:14:14</time>
      </trkpt>
      <trkpt lat="42.85833" lon="-0.45456">
        <ele>1383.2</ele>
        <time>2021-08-09 12:14:15</time>
      </trkpt>
      <trkpt lat="42.85832" lon="-0.45455">
        <ele>1383.2</ele>
        <time>2021-08-09 12:14:16</time>
      </trkpt>
      <trkpt lat="42.85831" lon="-0.45455">
        <ele>1383.2</ele>
      </trkpt>
      <trkpt lat="42.85831" lon="-0.45455">
        <ele>1383.2</ele>
        <time>2021-08-09 12:14:17</time>
      </trkpt>
      <trkpt lat="42.8583" lon="-0.45455">
        <ele>1383.2</ele>
        <time>2021-08-09 12:14:18</time>
      </trkpt>
      <trkpt lat="42.85829" lon="-0.45455">
        <ele>1383.2</ele>
        <time>2021-08-09 12:14:19</time>
      </trkpt>
      <trkpt lat="42.85828" lon="-0.45455">
        <ele>1383.2</ele>
        <time>2021-08-09 12:14:20</time>
      </trkpt>
      <trkpt lat="42.85828" lon="-0.45455">
        <ele>1383</ele>
        <time>2021-08-09 12:14:21</time>
      </trkpt>
      <trkpt lat="42.85826" lon="-0.45455">
        <ele>1383</ele>
        <time>2021-08-09 12:14:22</time>
      </trkpt>
      <trkpt lat="42.85824" lon="-0.45456">
        <ele>1383</ele>
        <time>2021-08-09 12:14:23</time>
      </trkpt>
      <trkpt lat="42.85823" lon="-0.45456">
        <ele>1383.2</ele>
        <time>2021-08-09 12:14:24</time>
      </trkpt>
      <trkpt lat="42.85822" lon="-0.45456">
        <ele>1383.2</ele>
        <time>2021-08-09 12:14:25</time>
      </trkpt>
      <trkpt lat="42.8582" lon="-0.45456">
        <ele>1383.4</ele>
        <time>2021-08-09 12:14:26</time>
      </trkpt>
      <trkpt lat="42.85819" lon="-0.45456">
        <ele>1383.6</ele>
        <time>2021-08-09 12:14:27</time>
      </trkpt>
      <trkpt lat="42.85816" lon="-0.45456">
        <ele>1383.6</ele>
        <time>2021-08-09 12:14:28</time>
      </trkpt>
      <trkpt lat="42.85815" lon="-0.45455">
        <ele>1383.6</ele>
        <time>2021-08-09 12:14:29</time>
      </trkpt>
      <trkpt lat="42.85814" lon="-0.45455">
        <ele>1383.8</ele>
        <time>2021-08-09 12:14:30</time>
      </trkpt>
      <trkpt lat="42.85814" lon="-0.45455">
        <ele>1384</ele>
        <time>2021-08-09 12:14:31</time>
      </trkpt>
      <trkpt lat="42.85812" lon="-0.45455">
        <ele>1383.8</ele>
        <time>2021-08-09 12:14:33</time>
      </trkpt>
      <trkpt lat="42.85812" lon="-0.45456">
        <ele>1384</ele>
      </trkpt>
      <trkpt lat="42.85811" lon="-0.45456">
        <ele>1383.8</ele>
        <time>2021-08-09 12:14:34</time>
      </trkpt>
      <trkpt lat="42.85811" lon="-0.45456">
        <ele>1383.8</ele>
        <time>2021-08-09 12:14:35</time>
      </trkpt>
      <trkpt lat="42.85811" lon="-0.45457">
        <ele>1383.8</ele>
        <time>2021-08-09 12:14:36</time>
      </trkpt>
      <trkpt lat="42.8581" lon="-0.45459">
        <ele>1383.8</ele>
        <time>2021-08-09 12:14:37</time>
      </trkpt>
      <trkpt lat="42.85811" lon="-0.4546">
        <ele>1383.8</ele>
        <time>2021-08-09 12:14:38</time>
      </trkpt>
      <trkpt lat="42.85811" lon="-0.45461">
        <ele>1384</ele>
        <time>2021-08-09 12:14:39</time>
      </trkpt>
      <trkpt lat="42.8581" lon="-0.45462">
        <ele>1383.8</ele>
        <time>2021-08-09 12:14:40</time>
      </trkpt>
      <trkpt lat="42.85811" lon="-0.45464">
        <ele>1383.8</ele>
        <time>2021-08-09 12:14:41</time>
      </trkpt>
      <trkpt lat="42.8581" lon="-0.45465">
        <ele>1383.8</ele>
        <time>2021-08-09 12:14:42</time>
      </trkpt>
      <trkpt lat="42.8581" lon="-0.45465">
        <ele>1383.8</ele>
        <time>2021-08-09 12:14:43</time>
      </trkpt>
      <trkpt lat="42.8581" lon="-0.45466">
        <ele>1384</ele>
        <time>2021-08-09 12:14:44</time>
      </trkpt>
      <trkpt lat="42.8581" lon="-0.45468">
        <ele>1384</ele>
        <time>2021-08-09 12:14:45</time>
      </trkpt>
      <trkpt lat="42.8581" lon="-0.45469">
        <ele>1383.8</ele>
        <time>2021-08-09 12:14:46</time>
      </trkpt>
      <trkpt lat="42.85809" lon="-0.4547">
        <ele>1383.8</ele>
        <time>2021-08-09 12:14:47</time>
      </trkpt>
      <trkpt lat="42.85809" lon="-0.45471">
        <ele>1383.8</ele>
        <time>2021-08-09 12:14:48</time>
      </trkpt>
      <trkpt lat="42.85809" lon="-0.45471">
        <ele>1383.8</ele>
        <time>2021-08-09 12:14:49</time>
      </trkpt>
      <trkpt lat="42.85809" lon="-0.45472">
        <ele>1383.8</ele>
        <time>2021-08-09 12:14:50</time>
      </trkpt>
      <trkpt lat="42.85808" lon="-0.45473">
        <ele>1383.8</ele>
        <time>2021-08-09 12:14:52</time>
      </trkpt>
      <trkpt lat="42.85807" lon="-0.45475">
        <ele>1383.8</ele>
      </trkpt>
      <trkpt lat="42.85807" lon="-0.45476">
        <ele>1383.6</ele>
        <time>2021-08-09 12:14:53</time>
      </trkpt>
      <trkpt lat="42.85807" lon="-0.45476">
        <ele>1383.6</ele>
        <time>2021-08-09 12:14:54</time>
      </trkpt>
      <trkpt lat="42.85806" lon="-0.45478">
        <ele>1384</ele>
        <time>2021-08-09 12:14:55</time>
      </trkpt>
      <trkpt lat="42.85806" lon="-0.4548">
        <ele>1384</ele>
        <time>2021-08-09 12:14:56</time>
      </trkpt>
      <trkpt lat="42.85805" lon="-0.45481">
        <ele>1384</ele>
        <time>2021-08-09 12:14:57</time>
      </trkpt>
      <trkpt lat="42.85804" lon="-0.45482">
        <ele>1384</ele>
        <time>2021-08-09 12:14:58</time>
      </trkpt>
      <trkpt lat="42.85804" lon="-0.45484">
        <ele>1384</ele>
        <time>2021-08-09 12:14:59</time>
      </trkpt>
      <trkpt lat="42.85804" lon="-0.45485">
        <ele>1384.2</ele>
        <time>2021-08-09 12:15:00</time>
      </trkpt>
      <trkpt lat="42.85804" lon="-0.45486">
        <ele>1384.2</ele>
        <time>2021-08-09 12:15:01</time>
      </trkpt>
      <trkpt lat="42.85804" lon="-0.45488">
        <ele>1384.4</ele>
        <time>2021-08-09 12:15:02</time>
      </trkpt>
      <trkpt lat="42.85803" lon="-0.45488">
        <ele>1384.4</ele>
        <time>2021-08-09 12:15:03</time>
      </trkpt>
      <trkpt lat="42.85802" lon="-0.45489">
        <ele>1384.4</ele>
        <time>2021-08-09 12:15:04</time>
      </trkpt>
      <trkpt lat="42.858" lon="-0.4549">
        <ele>1384.4</ele>
        <time>2021-08-09 12:15:05</time>
      </trkpt>
      <trkpt lat="42.85799" lon="-0.45491">
        <ele>1384.4</ele>
        <time>2021-08-09 12:15:06</time>
      </trkpt>
      <trkpt lat="42.85799" lon="-0.45492">
        <ele>1384.4</ele>
        <time>2021-08-09 12:15:07</time>
      </trkpt>
      <trkpt lat="42.85799" lon="-0.45494">
        <ele>1384.2</ele>
        <time>2021-08-09 12:15:08</time>
      </trkpt>
      <trkpt lat="42.85798" lon="-0.45495">
        <ele>1384.2</ele>
        <time>2021-08-09 12:15:09</time>
      </trkpt>
      <trkpt lat="42.85798" lon="-0.45496">
        <ele>1384.2</ele>
        <time>2021-08-09 12:15:10</time>
      </trkpt>
      <trkpt lat="42.85798" lon="-0.45496">
        <ele>1384.4</ele>
        <time>2021-08-09 12:15:11</time>
      </trkpt>
      <trkpt lat="42.85797" lon="-0.45496">
        <ele>1384.6</ele>
        <time>2021-08-09 12:15:12</time>
      </trkpt>
      <trkpt lat="42.85797" lon="-0.45497">
        <ele>1384.6</ele>
        <time>2021-08-09 12:15:13</time>
      </trkpt>
      <trkpt lat="42.85797" lon="-0.45497">
        <ele>1384.6</ele>
        <time>2021-08-09 12:15:14</time>
      </trkpt>
      <trkpt lat="42.85795" lon="-0.45499">
        <ele>1384.6</ele>
        <time>2021-08-09 12:15:15</time>
      </trkpt>
      <trkpt lat="42.85794" lon="-0.45501">
        <ele>1384.4</ele>
        <time>2021-08-09 12:15:16</time>
      </trkpt>
      <trkpt lat="42.85793" lon="-0.45502">
        <ele>1384.4</ele>
        <time>2021-08-09 12:15:17</time>
      </trkpt>
      <trkpt lat="42.85792" lon="-0.45503">
        <ele>1384.2</ele>
        <time>2021-08-09 12:15:18</time>
      </trkpt>
      <trkpt lat="42.85791" lon="-0.45505">
        <ele>1384.4</ele>
        <time>2021-08-09 12:15:19</time>
      </trkpt>
      <trkpt lat="42.85789" lon="-0.45506">
        <ele>1384.2</ele>
        <time>2021-08-09 12:15:20</time>
      </trkpt>
      <trkpt lat="42.85788" lon="-0.45507">
        <ele>1384.2</ele>
        <time>2021-08-09 12:15:21</time>
      </trkpt>
      <trkpt lat="42.85787" lon="-0.45509">
        <ele>1384.2</ele>
        <time>2021-08-09 12:15:22</time>
      </trkpt>
      <trkpt lat="42.85786" lon="-0.4551">
        <ele>1384.2</ele>
        <time>2021-08-09 12:15:23</time>
      </trkpt>
      <trkpt lat="42.85784" lon="-0.4551">
        <ele>1384.2</ele>
        <time>2021-08-09 12:15:24</time>
      </trkpt>
      <trkpt lat="42.85782" lon="-0.45511">
        <ele>1384.2</ele>
        <time>2021-08-09 12:15:25</time>
      </trkpt>
      <trkpt lat="42.85781" lon="-0.45513">
        <ele>1384.2</ele>
        <time>2021-08-09 12:15:26</time>
      </trkpt>
      <trkpt lat="42.8578" lon="-0.45515">
        <ele>1384.2</ele>
        <time>2021-08-09 12:15:27</time>
      </trkpt>
      <trkpt lat="42.85778" lon="-0.45516">
        <ele>1384.2</ele>
        <time>2021-08-09 12:15:28</time>
      </trkpt>
      <trkpt lat="42.85777" lon="-0.45516">
        <ele>1384.2</ele>
        <time>2021-08-09 12:15:29</time>
      </trkpt>
      <trkpt lat="42.85777" lon="-0.45517">
        <ele>1384.2</ele>
        <time>2021-08-09 12:15:30</time>
      </trkpt>
      <trkpt lat="42.85775" lon="-0.45518">
        <ele>1384.2</ele>
        <time>2021-08-09 12:15:31</time>
      </trkpt>
      <trkpt lat="42.85773" lon="-0.45519">
        <ele>1384.2</ele>
        <time>2021-08-09 12:15:32</time>
      </trkpt>
      <trkpt lat="42.85772" lon="-0.4552">
        <ele>1384.2</ele>
        <time>2021-08-09 12:15:33</time>
      </trkpt>
      <trkpt lat="42.85771" lon="-0.45522">
        <ele>1384.4</ele>
        <time>2021-08-09 12:15:34</time>
      </trkpt>
      <trkpt lat="42.8577" lon="-0.45524">
        <ele>1384.2</ele>
        <time>2021-08-09 12:15:35</time>
      </trkpt>
      <trkpt lat="42.8577" lon="-0.45524">
        <ele>1384.2</ele>
        <time>2021-08-09 12:15:36</time>
      </trkpt>
      <trkpt lat="42.85769" lon="-0.45525">
        <ele>1384.2</ele>
        <time>2021-08-09 12:15:37</time>
      </trkpt>
      <trkpt lat="42.85769" lon="-0.45526">
        <ele>1384</ele>
        <time>2021-08-09 12:15:38</time>
      </trkpt>
      <trkpt lat="42.85768" lon="-0.45528">
        <ele>1384</ele>
        <time>2021-08-09 12:15:39</time>
      </trkpt>
      <trkpt lat="42.85768" lon="-0.45529">
        <ele>1384</ele>
        <time>2021-08-09 12:15:40</time>
      </trkpt>
      <trkpt lat="42.85768" lon="-0.4553">
        <ele>1383.8</ele>
        <time>2021-08-09 12:15:41</time>
      </trkpt>
      <trkpt lat="42.85768" lon="-0.45531">
        <ele>1383.8</ele>
        <time>2021-08-09 12:15:42</time>
      </trkpt>
      <trkpt lat="42.85766" lon="-0.45532">
        <ele>1383.8</ele>
        <time>2021-08-09 12:15:43</time>
      </trkpt>
      <trkpt lat="42.85765" lon="-0.45533">
        <ele>1383.8</ele>
        <time>2021-08-09 12:15:44</time>
      </trkpt>
      <trkpt lat="42.85764" lon="-0.45534">
        <ele>1383.8</ele>
        <time>2021-08-09 12:15:45</time>
      </trkpt>
      <trkpt lat="42.85764" lon="-0.45534">
        <ele>1384</ele>
        <time>2021-08-09 12:15:46</time>
      </trkpt>
      <trkpt lat="42.85762" lon="-0.45535">
        <ele>1383.8</ele>
        <time>2021-08-09 12:15:47</time>
      </trkpt>
      <trkpt lat="42.85761" lon="-0.45536">
        <ele>1383.8</ele>
        <time>2021-08-09 12:15:48</time>
      </trkpt>
      <trkpt lat="42.8576" lon="-0.45538">
        <ele>1384</ele>
        <time>2021-08-09 12:15:49</time>
      </trkpt>
      <trkpt lat="42.85759" lon="-0.45538">
        <ele>1384</ele>
        <time>2021-08-09 12:15:50</time>
      </trkpt>
      <trkpt lat="42.85759" lon="-0.45539">
        <ele>1384</ele>
        <time>2021-08-09 12:15:51</time>
      </trkpt>
      <trkpt lat="42.85758" lon="-0.4554">
        <ele>1384</ele>
        <time>2021-08-09 12:15:52</time>
      </trkpt>
      <trkpt lat="42.85758" lon="-0.45541">
        <ele>1384</ele>
        <time>2021-08-09 12:15:53</time>
      </trkpt>
      <trkpt lat="42.85757" lon="-0.45542">
        <ele>1384.2</ele>
        <time>2021-08-09 12:15:54</time>
      </trkpt>
      <trkpt lat="42.85756" lon="-0.45543">
        <ele>1384.6</ele>
        <time>2021-08-09 12:15:55</time>
      </trkpt>
      <trkpt lat="42.85755" lon="-0.45544">
        <ele>1384.6</ele>
        <time>2021-08-09 12:15:56</time>
      </trkpt>
      <trkpt lat="42.85754" lon="-0.45545">
        <ele>1384.8</ele>
        <time>2021-08-09 12:15:57</time>
      </trkpt>
      <trkpt lat="42.85754" lon="-0.45546">
        <ele>1385</ele>
        <time>2021-08-09 12:15:58</time>
      </trkpt>
      <trkpt lat="42.85753" lon="-0.45547">
        <ele>1385</ele>
        <time>2021-08-09 12:15:59</time>
      </trkpt>
      <trkpt lat="42.85752" lon="-0.45547">
        <ele>1385.2</ele>
        <time>2021-08-09 12:16:00</time>
      </trkpt>
      <trkpt lat="42.8575" lon="-0.45548">
        <ele>1385.2</ele>
        <time>2021-08-09 12:16:01</time>
      </trkpt>
      <trkpt lat="42.85749" lon="-0.45549">
        <ele>1385.4</ele>
        <time>2021-08-09 12:16:02</time>
      </trkpt>
      <trkpt lat="42.85749" lon="-0.4555">
        <ele>1385.4</ele>
        <time>2021-08-09 12:16:03</time>
      </trkpt>
      <trkpt lat="42.85748" lon="-0.45552">
        <ele>1385.6</ele>
        <time>2021-08-09 12:16:04</time>
      </trkpt>
      <trkpt lat="42.85747" lon="-0.45553">
        <ele>1385.8</ele>
        <time>2021-08-09 12:16:05</time>
      </trkpt>
      <trkpt lat="42.85746" lon="-0.45554">
        <ele>1386</ele>
        <time>2021-08-09 12:16:06</time>
      </trkpt>
      <trkpt lat="42.85744" lon="-0.45555">
        <ele>1386</ele>
        <time>2021-08-09 12:16:07</time>
      </trkpt>
      <trkpt lat="42.85744" lon="-0.45558">
        <ele>1386</ele>
        <time>2021-08-09 12:16:08</time>
      </trkpt>
      <trkpt lat="42.85743" lon="-0.4556">
        <ele>1386.2</ele>
        <time>2021-08-09 12:16:09</time>
      </trkpt>
      <trkpt lat="42.85742" lon="-0.45561">
        <ele>1386.2</ele>
        <time>2021-08-09 12:16:10</time>
      </trkpt>
      <trkpt lat="42.85742" lon="-0.45563">
        <ele>1386.2</ele>
        <time>2021-08-09 12:16:11</time>
      </trkpt>
      <trkpt lat="42.85742" lon="-0.45564">
        <ele>1385.8</ele>
        <time>2021-08-09 12:16:12</time>
      </trkpt>
      <trkpt lat="42.85741" lon="-0.45566">
        <ele>1386.2</ele>
        <time>2021-08-09 12:16:13</time>
      </trkpt>
      <trkpt lat="42.85742" lon="-0.45568">
        <ele>1386.4</ele>
        <time>2021-08-09 12:16:14</time>
      </trkpt>
      <trkpt lat="42.85741" lon="-0.45569">
        <ele>1387.6</ele>
        <time>2021-08-09 12:16:15</time>
      </trkpt>
      <trkpt lat="42.85741" lon="-0.45571">
        <ele>1387.4</ele>
        <time>2021-08-09 12:16:16</time>
      </trkpt>
      <trkpt lat="42.85741" lon="-0.45572">
        <ele>1387.6</ele>
        <time>2021-08-09 12:16:17</time>
      </trkpt>
      <trkpt lat="42.8574" lon="-0.45573">
        <ele>1388.2</ele>
        <time>2021-08-09 12:16:18</time>
      </trkpt>
      <trkpt lat="42.8574" lon="-0.45574">
        <ele>1387.8</ele>
        <time>2021-08-09 12:16:19</time>
      </trkpt>
      <trkpt lat="42.8574" lon="-0.45576">
        <ele>1387.8</ele>
        <time>2021-08-09 12:16:20</time>
      </trkpt>
      <trkpt lat="42.85741" lon="-0.45577">
        <ele>1387.6</ele>
        <time>2021-08-09 12:16:21</time>
      </trkpt>
      <trkpt lat="42.85741" lon="-0.45577">
        <ele>1387.8</ele>
        <time>2021-08-09 12:16:22</time>
      </trkpt>
      <trkpt lat="42.85741" lon="-0.45579">
        <ele>1388.4</ele>
        <time>2021-08-09 12:16:23</time>
      </trkpt>
      <trkpt lat="42.85741" lon="-0.45579">
        <ele>1388.8</ele>
        <time>2021-08-09 12:16:24</time>
      </trkpt>
      <trkpt lat="42.85741" lon="-0.45581">
        <ele>1388.8</ele>
        <time>2021-08-09 12:16:25</time>
      </trkpt>
      <trkpt lat="42.85741" lon="-0.45582">
        <ele>1389</ele>
        <time>2021-08-09 12:16:26</time>
      </trkpt>
      <trkpt lat="42.85741" lon="-0.45583">
        <ele>1389.6</ele>
        <time>2021-08-09 12:16:27</time>
      </trkpt>
      <trkpt lat="42.85741" lon="-0.45584">
        <ele>1389.6</ele>
        <time>2021-08-09 12:16:28</time>
      </trkpt>
      <trkpt lat="42.85741" lon="-0.45585">
        <ele>1389.8</ele>
        <time>2021-08-09 12:16:29</time>
      </trkpt>
      <trkpt lat="42.8574" lon="-0.45585">
        <ele>1389.8</ele>
        <time>2021-08-09 12:16:30</time>
      </trkpt>
      <trkpt lat="42.85739" lon="-0.45586">
        <ele>1390</ele>
        <time>2021-08-09 12:16:31</time>
      </trkpt>
      <trkpt lat="42.85739" lon="-0.45587">
        <ele>1390.2</ele>
        <time>2021-08-09 12:16:32</time>
      </trkpt>
      <trkpt lat="42.85738" lon="-0.45587">
        <ele>1390.4</ele>
        <time>2021-08-09 12:16:33</time>
      </trkpt>
      <trkpt lat="42.85737" lon="-0.45588">
        <ele>1390.6</ele>
        <time>2021-08-09 12:16:34</time>
      </trkpt>
      <trkpt lat="42.85737" lon="-0.45588">
        <ele>1391</ele>
        <time>2021-08-09 12:16:35</time>
      </trkpt>
      <trkpt lat="42.85736" lon="-0.45588">
        <ele>1391.2</ele>
        <time>2021-08-09 12:16:36</time>
      </trkpt>
      <trkpt lat="42.85735" lon="-0.45588">
        <ele>1391.4</ele>
        <time>2021-08-09 12:16:37</time>
      </trkpt>
      <trkpt lat="42.85734" lon="-0.45588">
        <ele>1391.6</ele>
        <time>2021-08-09 12:16:38</time>
      </trkpt>
      <trkpt lat="42.85733" lon="-0.45588">
        <ele>1391.6</ele>
        <time>2021-08-09 12:16:39</time>
      </trkpt>
      <trkpt lat="42.85732" lon="-0.45588">
        <ele>1392</ele>
        <time>2021-08-09 12:16:40</time>
      </trkpt>
      <trkpt lat="42.85731" lon="-0.45588">
        <ele>1392</ele>
        <time>2021-08-09 12:16:41</time>
      </trkpt>
      <trkpt lat="42.8573" lon="-0.45589">
        <ele>1392.4</ele>
        <time>2021-08-09 12:16:42</time>
      </trkpt>
      <trkpt lat="42.85729" lon="-0.45589">
        <ele>1392.4</ele>
        <time>2021-08-09 12:16:43</time>
      </trkpt>
      <trkpt lat="42.85728" lon="-0.45589">
        <ele>1392.4</ele>
        <time>2021-08-09 12:16:44</time>
      </trkpt>
      <trkpt lat="42.85727" lon="-0.45589">
        <ele>1392.6</ele>
        <time>2021-08-09 12:16:45</time>
      </trkpt>
      <trkpt lat="42.85725" lon="-0.45589">
        <ele>1392.8</ele>
        <time>2021-08-09 12:16:46</time>
      </trkpt>
      <trkpt lat="42.85723" lon="-0.45589">
        <ele>1393</ele>
        <time>2021-08-09 12:16:47</time>
      </trkpt>
      <trkpt lat="42.85722" lon="-0.45589">
        <ele>1393.2</ele>
        <time>2021-08-09 12:16:48</time>
      </trkpt>
      <trkpt lat="42.85721" lon="-0.45589">
        <ele>1393.4</ele>
        <time>2021-08-09 12:16:49</time>
      </trkpt>
      <trkpt lat="42.8572" lon="-0.45589">
        <ele>1393.6</ele>
        <time>2021-08-09 12:16:50</time>
      </trkpt>
      <trkpt lat="42.85719" lon="-0.45589">
        <ele>1393.6</ele>
        <time>2021-08-09 12:16:51</time>
      </trkpt>
      <trkpt lat="42.85718" lon="-0.4559">
        <ele>1394</ele>
        <time>2021-08-09 12:16:52</time>
      </trkpt>
      <trkpt lat="42.85718" lon="-0.45592">
        <ele>1394.2</ele>
        <time>2021-08-09 12:16:53</time>
      </trkpt>
      <trkpt lat="42.85719" lon="-0.45593">
        <ele>1394.4</ele>
        <time>2021-08-09 12:16:54</time>
      </trkpt>
      <trkpt lat="42.85718" lon="-0.45593">
        <ele>1394.6</ele>
        <time>2021-08-09 12:16:55</time>
      </trkpt>
      <trkpt lat="42.85718" lon="-0.45593">
        <ele>1395</ele>
        <time>2021-08-09 12:16:56</time>
      </trkpt>
      <trkpt lat="42.85717" lon="-0.45593">
        <ele>1395.2</ele>
        <time>2021-08-09 12:16:57</time>
      </trkpt>
      <trkpt lat="42.85716" lon="-0.45594">
        <ele>1395.4</ele>
        <time>2021-08-09 12:16:58</time>
      </trkpt>
      <trkpt lat="42.85715" lon="-0.45595">
        <ele>1395.8</ele>
        <time>2021-08-09 12:16:59</time>
      </trkpt>
      <trkpt lat="42.85713" lon="-0.45596">
        <ele>1396</ele>
        <time>2021-08-09 12:17:00</time>
      </trkpt>
      <trkpt lat="42.85712" lon="-0.45596">
        <ele>1396.2</ele>
        <time>2021-08-09 12:17:01</time>
      </trkpt>
      <trkpt lat="42.85711" lon="-0.45595">
        <ele>1396.2</ele>
        <time>2021-08-09 12:17:02</time>
      </trkpt>
      <trkpt lat="42.8571" lon="-0.45595">
        <ele>1396.4</ele>
        <time>2021-08-09 12:17:03</time>
      </trkpt>
      <trkpt lat="42.85709" lon="-0.45595">
        <ele>1396.6</ele>
        <time>2021-08-09 12:17:04</time>
      </trkpt>
      <trkpt lat="42.85708" lon="-0.45595">
        <ele>1396.8</ele>
        <time>2021-08-09 12:17:05</time>
      </trkpt>
      <trkpt lat="42.85707" lon="-0.45595">
        <ele>1396.8</ele>
        <time>2021-08-09 12:17:06</time>
      </trkpt>
      <trkpt lat="42.85706" lon="-0.45595">
        <ele>1397</ele>
        <time>2021-08-09 12:17:07</time>
      </trkpt>
      <trkpt lat="42.85705" lon="-0.45595">
        <ele>1397.2</ele>
        <time>2021-08-09 12:17:08</time>
      </trkpt>
      <trkpt lat="42.85704" lon="-0.45594">
        <ele>1397.4</ele>
        <time>2021-08-09 12:17:09</time>
      </trkpt>
      <trkpt lat="42.85703" lon="-0.45594">
        <ele>1397.8</ele>
        <time>2021-08-09 12:17:10</time>
      </trkpt>
      <trkpt lat="42.85702" lon="-0.45594">
        <ele>1397.8</ele>
        <time>2021-08-09 12:17:11</time>
      </trkpt>
      <trkpt lat="42.85701" lon="-0.45593">
        <ele>1398</ele>
        <time>2021-08-09 12:17:12</time>
      </trkpt>
      <trkpt lat="42.857" lon="-0.45594">
        <ele>1398</ele>
        <time>2021-08-09 12:17:13</time>
      </trkpt>
      <trkpt lat="42.857" lon="-0.45596">
        <ele>1398.2</ele>
        <time>2021-08-09 12:17:14</time>
      </trkpt>
      <trkpt lat="42.85698" lon="-0.45596">
        <ele>1398.4</ele>
        <time>2021-08-09 12:17:15</time>
      </trkpt>
      <trkpt lat="42.85698" lon="-0.45596">
        <ele>1398.8</ele>
        <time>2021-08-09 12:17:16</time>
      </trkpt>
      <trkpt lat="42.85697" lon="-0.45595">
        <ele>1398.8</ele>
        <time>2021-08-09 12:17:17</time>
      </trkpt>
      <trkpt lat="42.85695" lon="-0.45596">
        <ele>1399</ele>
        <time>2021-08-09 12:17:18</time>
      </trkpt>
      <trkpt lat="42.85693" lon="-0.45595">
        <ele>1399.2</ele>
        <time>2021-08-09 12:17:19</time>
      </trkpt>
      <trkpt lat="42.85691" lon="-0.45596">
        <ele>1399.2</ele>
        <time>2021-08-09 12:17:20</time>
      </trkpt>
      <trkpt lat="42.8569" lon="-0.45595">
        <ele>1399.4</ele>
        <time>2021-08-09 12:17:21</time>
      </trkpt>
      <trkpt lat="42.85689" lon="-0.45595">
        <ele>1399.6</ele>
        <time>2021-08-09 12:17:22</time>
      </trkpt>
      <trkpt lat="42.85688" lon="-0.45594">
        <ele>1399.8</ele>
        <time>2021-08-09 12:17:23</time>
      </trkpt>
      <trkpt lat="42.85687" lon="-0.45595">
        <ele>1399.8</ele>
        <time>2021-08-09 12:17:25</time>
      </trkpt>
      <trkpt lat="42.85686" lon="-0.45595">
        <ele>1399.8</ele>
        <time>2021-08-09 12:17:26</time>
      </trkpt>
      <trkpt lat="42.85685" lon="-0.45595">
        <ele>1399.8</ele>
        <time>2021-08-09 12:17:27</time>
      </trkpt>
      <trkpt lat="42.85685" lon="-0.45596">
        <ele>1400.2</ele>
        <time>2021-08-09 12:17:28</time>
      </trkpt>
      <trkpt lat="42.85684" lon="-0.45596">
        <ele>1400.4</ele>
        <time>2021-08-09 12:17:29</time>
      </trkpt>
      <trkpt lat="42.85683" lon="-0.45597">
        <ele>1400.8</ele>
        <time>2021-08-09 12:17:30</time>
      </trkpt>
      <trkpt lat="42.85683" lon="-0.45598">
        <ele>1400.8</ele>
        <time>2021-08-09 12:17:31</time>
      </trkpt>
      <trkpt lat="42.85682" lon="-0.456">
        <ele>1401.4</ele>
        <time>2021-08-09 12:17:32</time>
      </trkpt>
      <trkpt lat="42.8568" lon="-0.45601">
        <ele>1401.6</ele>
        <time>2021-08-09 12:17:33</time>
      </trkpt>
      <trkpt lat="42.8568" lon="-0.45602">
        <ele>1401.6</ele>
        <time>2021-08-09 12:17:34</time>
      </trkpt>
      <trkpt lat="42.85679" lon="-0.45602">
        <ele>1401.8</ele>
        <time>2021-08-09 12:17:35</time>
      </trkpt>
      <trkpt lat="42.85678" lon="-0.45603">
        <ele>1401.8</ele>
        <time>2021-08-09 12:17:36</time>
      </trkpt>
      <trkpt lat="42.85678" lon="-0.45605">
        <ele>1402</ele>
        <time>2021-08-09 12:17:37</time>
      </trkpt>
      <trkpt lat="42.85677" lon="-0.45605">
        <ele>1402.2</ele>
        <time>2021-08-09 12:17:38</time>
      </trkpt>
      <trkpt lat="42.85676" lon="-0.45604">
        <ele>1402.6</ele>
        <time>2021-08-09 12:17:39</time>
      </trkpt>
      <trkpt lat="42.85675" lon="-0.45605">
        <ele>1403</ele>
        <time>2021-08-09 12:17:40</time>
      </trkpt>
      <trkpt lat="42.85674" lon="-0.45605">
        <ele>1403</ele>
        <time>2021-08-09 12:17:41</time>
      </trkpt>
      <trkpt lat="42.85673" lon="-0.45605">
        <ele>1403</ele>
        <time>2021-08-09 12:17:42</time>
      </trkpt>
      <trkpt lat="42.85672" lon="-0.45605">
        <ele>1403.2</ele>
        <time>2021-08-09 12:17:43</time>
      </trkpt>
      <trkpt lat="42.85671" lon="-0.45606">
        <ele>1403.4</ele>
        <time>2021-08-09 12:17:44</time>
      </trkpt>
      <trkpt lat="42.8567" lon="-0.45607">
        <ele>1403.6</ele>
        <time>2021-08-09 12:17:45</time>
      </trkpt>
      <trkpt lat="42.85668" lon="-0.45607">
        <ele>1403.6</ele>
        <time>2021-08-09 12:17:46</time>
      </trkpt>
      <trkpt lat="42.85667" lon="-0.45607">
        <ele>1403.8</ele>
        <time>2021-08-09 12:17:47</time>
      </trkpt>
      <trkpt lat="42.85666" lon="-0.45607">
        <ele>1404</ele>
        <time>2021-08-09 12:17:48</time>
      </trkpt>
      <trkpt lat="42.85666" lon="-0.45609">
        <ele>1404.4</ele>
        <time>2021-08-09 12:17:49</time>
      </trkpt>
      <trkpt lat="42.85665" lon="-0.45609">
        <ele>1404.6</ele>
        <time>2021-08-09 12:17:50</time>
      </trkpt>
      <trkpt lat="42.85664" lon="-0.4561">
        <ele>1405</ele>
        <time>2021-08-09 12:17:51</time>
      </trkpt>
      <trkpt lat="42.85663" lon="-0.45611">
        <ele>1405</ele>
        <time>2021-08-09 12:17:52</time>
      </trkpt>
      <trkpt lat="42.85663" lon="-0.45612">
        <ele>1405.2</ele>
        <time>2021-08-09 12:17:53</time>
      </trkpt>
      <trkpt lat="42.85662" lon="-0.45612">
        <ele>1405.4</ele>
        <time>2021-08-09 12:17:54</time>
      </trkpt>
      <trkpt lat="42.85661" lon="-0.45613">
        <ele>1405.6</ele>
        <time>2021-08-09 12:17:55</time>
      </trkpt>
      <trkpt lat="42.85661" lon="-0.45613">
        <ele>1405.8</ele>
        <time>2021-08-09 12:17:56</time>
      </trkpt>
      <trkpt lat="42.8566" lon="-0.45613">
        <ele>1406</ele>
        <time>2021-08-09 12:17:57</time>
      </trkpt>
      <trkpt lat="42.85659" lon="-0.45613">
        <ele>1406.2</ele>
        <time>2021-08-09 12:17:58</time>
      </trkpt>
      <trkpt lat="42.85658" lon="-0.45613">
        <ele>1406.2</ele>
        <time>2021-08-09 12:17:59</time>
      </trkpt>
      <trkpt lat="42.85657" lon="-0.45614">
        <ele>1406.4</ele>
        <time>2021-08-09 12:18:00</time>
      </trkpt>
      <trkpt lat="42.85656" lon="-0.45614">
        <ele>1406.6</ele>
        <time>2021-08-09 12:18:01</time>
      </trkpt>
      <trkpt lat="42.85655" lon="-0.45615">
        <ele>1406.8</ele>
        <time>2021-08-09 12:18:02</time>
      </trkpt>
      <trkpt lat="42.85654" lon="-0.45614">
        <ele>1406.8</ele>
        <time>2021-08-09 12:18:03</time>
      </trkpt>
      <trkpt lat="42.85654" lon="-0.45614">
        <ele>1407.2</ele>
        <time>2021-08-09 12:18:04</time>
      </trkpt>
      <trkpt lat="42.85654" lon="-0.45613">
        <ele>1407.2</ele>
        <time>2021-08-09 12:18:05</time>
      </trkpt>
      <trkpt lat="42.85653" lon="-0.45614">
        <ele>1407.6</ele>
        <time>2021-08-09 12:18:06</time>
      </trkpt>
      <trkpt lat="42.85652" lon="-0.45614">
        <ele>1407.8</ele>
        <time>2021-08-09 12:18:07</time>
      </trkpt>
      <trkpt lat="42.8565" lon="-0.45614">
        <ele>1408</ele>
        <time>2021-08-09 12:18:08</time>
      </trkpt>
      <trkpt lat="42.85649" lon="-0.45613">
        <ele>1408</ele>
        <time>2021-08-09 12:18:09</time>
      </trkpt>
      <trkpt lat="42.85649" lon="-0.45614">
        <ele>1408</ele>
        <time>2021-08-09 12:18:10</time>
      </trkpt>
      <trkpt lat="42.8565" lon="-0.45615">
        <ele>1408.2</ele>
        <time>2021-08-09 12:18:11</time>
      </trkpt>
      <trkpt lat="42.8565" lon="-0.45614">
        <ele>1408.2</ele>
        <time>2021-08-09 12:18:12</time>
      </trkpt>
      <trkpt lat="42.8565" lon="-0.45613">
        <ele>1408.4</ele>
        <time>2021-08-09 12:18:13</time>
      </trkpt>
      <trkpt lat="42.85649" lon="-0.45613">
        <ele>1408.6</ele>
        <time>2021-08-09 12:18:14</time>
      </trkpt>
      <trkpt lat="42.85648" lon="-0.45613">
        <ele>1408.6</ele>
        <time>2021-08-09 12:18:15</time>
      </trkpt>
      <trkpt lat="42.85648" lon="-0.45613">
        <ele>1408.8</ele>
        <time>2021-08-09 12:18:16</time>
      </trkpt>
      <trkpt lat="42.85646" lon="-0.45613">
        <ele>1409.4</ele>
        <time>2021-08-09 12:18:17</time>
      </trkpt>
      <trkpt lat="42.85645" lon="-0.45613">
        <ele>1409.6</ele>
        <time>2021-08-09 12:18:18</time>
      </trkpt>
      <trkpt lat="42.85644" lon="-0.45613">
        <ele>1409.6</ele>
        <time>2021-08-09 12:18:19</time>
      </trkpt>
      <trkpt lat="42.85643" lon="-0.45613">
        <ele>1409.8</ele>
        <time>2021-08-09 12:18:20</time>
      </trkpt>
      <trkpt lat="42.85642" lon="-0.45613">
        <ele>1410</ele>
        <time>2021-08-09 12:18:21</time>
      </trkpt>
      <trkpt lat="42.8564" lon="-0.45612">
        <ele>1410.2</ele>
        <time>2021-08-09 12:18:22</time>
      </trkpt>
      <trkpt lat="42.85639" lon="-0.45612">
        <ele>1410.4</ele>
        <time>2021-08-09 12:18:23</time>
      </trkpt>
      <trkpt lat="42.85639" lon="-0.45613">
        <ele>1410.6</ele>
        <time>2021-08-09 12:18:24</time>
      </trkpt>
      <trkpt lat="42.85638" lon="-0.45612">
        <ele>1410.8</ele>
        <time>2021-08-09 12:18:25</time>
      </trkpt>
      <trkpt lat="42.85637" lon="-0.45611">
        <ele>1411</ele>
        <time>2021-08-09 12:18:26</time>
      </trkpt>
      <trkpt lat="42.85635" lon="-0.45611">
        <ele>1411.2</ele>
        <time>2021-08-09 12:18:27</time>
      </trkpt>
      <trkpt lat="42.85635" lon="-0.45611">
        <ele>1411.4</ele>
        <time>2021-08-09 12:18:28</time>
      </trkpt>
      <trkpt lat="42.85634" lon="-0.45611">
        <ele>1411.6</ele>
        <time>2021-08-09 12:18:29</time>
      </trkpt>
      <trkpt lat="42.85633" lon="-0.4561">
        <ele>1412</ele>
        <time>2021-08-09 12:18:30</time>
      </trkpt>
      <trkpt lat="42.85632" lon="-0.4561">
        <ele>1412</ele>
        <time>2021-08-09 12:18:31</time>
      </trkpt>
      <trkpt lat="42.85633" lon="-0.45609">
        <ele>1412</ele>
        <time>2021-08-09 12:18:32</time>
      </trkpt>
      <trkpt lat="42.85632" lon="-0.45609">
        <ele>1412</ele>
        <time>2021-08-09 12:18:33</time>
      </trkpt>
      <trkpt lat="42.85631" lon="-0.45609">
        <ele>1412.4</ele>
        <time>2021-08-09 12:18:34</time>
      </trkpt>
      <trkpt lat="42.85631" lon="-0.45609">
        <ele>1412.4</ele>
        <time>2021-08-09 12:18:35</time>
      </trkpt>
      <trkpt lat="42.8563" lon="-0.45609">
        <ele>1412.6</ele>
        <time>2021-08-09 12:18:36</time>
      </trkpt>
      <trkpt lat="42.8563" lon="-0.45609">
        <ele>1412.8</ele>
        <time>2021-08-09 12:18:37</time>
      </trkpt>
      <trkpt lat="42.85629" lon="-0.45609">
        <ele>1413</ele>
        <time>2021-08-09 12:18:38</time>
      </trkpt>
      <trkpt lat="42.85629" lon="-0.45609">
        <ele>1413.2</ele>
        <time>2021-08-09 12:18:39</time>
      </trkpt>
      <trkpt lat="42.85628" lon="-0.45608">
        <ele>1413.4</ele>
        <time>2021-08-09 12:18:40</time>
      </trkpt>
      <trkpt lat="42.85627" lon="-0.45608">
        <ele>1413.4</ele>
        <time>2021-08-09 12:18:41</time>
      </trkpt>
      <trkpt lat="42.85626" lon="-0.45608">
        <ele>1413.6</ele>
        <time>2021-08-09 12:18:42</time>
      </trkpt>
      <trkpt lat="42.85625" lon="-0.45608">
        <ele>1413.6</ele>
        <time>2021-08-09 12:18:44</time>
      </trkpt>
      <trkpt lat="42.85624" lon="-0.45608">
        <ele>1413.8</ele>
        <time>2021-08-09 12:18:45</time>
      </trkpt>
      <trkpt lat="42.85623" lon="-0.45608">
        <ele>1414</ele>
        <time>2021-08-09 12:18:46</time>
      </trkpt>
      <trkpt lat="42.85622" lon="-0.45608">
        <ele>1414.2</ele>
        <time>2021-08-09 12:18:47</time>
      </trkpt>
      <trkpt lat="42.85621" lon="-0.45608">
        <ele>1414.4</ele>
        <time>2021-08-09 12:18:48</time>
      </trkpt>
      <trkpt lat="42.8562" lon="-0.45608">
        <ele>1414.4</ele>
        <time>2021-08-09 12:18:49</time>
      </trkpt>
      <trkpt lat="42.8562" lon="-0.45608">
        <ele>1414.6</ele>
        <time>2021-08-09 12:18:50</time>
      </trkpt>
      <trkpt lat="42.8562" lon="-0.45607">
        <ele>1414.6</ele>
        <time>2021-08-09 12:18:51</time>
      </trkpt>
      <trkpt lat="42.85619" lon="-0.45607">
        <ele>1415</ele>
        <time>2021-08-09 12:18:52</time>
      </trkpt>
      <trkpt lat="42.85618" lon="-0.45606">
        <ele>1415</ele>
        <time>2021-08-09 12:18:53</time>
      </trkpt>
      <trkpt lat="42.85617" lon="-0.45606">
        <ele>1415.2</ele>
        <time>2021-08-09 12:18:54</time>
      </trkpt>
      <trkpt lat="42.85616" lon="-0.45607">
        <ele>1415.2</ele>
        <time>2021-08-09 12:18:55</time>
      </trkpt>
      <trkpt lat="42.85615" lon="-0.45607">
        <ele>1415.6</ele>
        <time>2021-08-09 12:18:56</time>
      </trkpt>
      <trkpt lat="42.85614" lon="-0.45607">
        <ele>1415.8</ele>
        <time>2021-08-09 12:18:57</time>
      </trkpt>
      <trkpt lat="42.85613" lon="-0.45607">
        <ele>1415.8</ele>
        <time>2021-08-09 12:18:58</time>
      </trkpt>
      <trkpt lat="42.85613" lon="-0.45608">
        <ele>1416</ele>
        <time>2021-08-09 12:18:59</time>
      </trkpt>
      <trkpt lat="42.85612" lon="-0.45608">
        <ele>1416.2</ele>
        <time>2021-08-09 12:19:00</time>
      </trkpt>
      <trkpt lat="42.85611" lon="-0.45609">
        <ele>1416.4</ele>
        <time>2021-08-09 12:19:01</time>
      </trkpt>
      <trkpt lat="42.8561" lon="-0.45609">
        <ele>1416.4</ele>
        <time>2021-08-09 12:19:02</time>
      </trkpt>
      <trkpt lat="42.85608" lon="-0.45609">
        <ele>1416.6</ele>
        <time>2021-08-09 12:19:03</time>
      </trkpt>
      <trkpt lat="42.85608" lon="-0.4561">
        <ele>1416.8</ele>
        <time>2021-08-09 12:19:04</time>
      </trkpt>
      <trkpt lat="42.85607" lon="-0.4561">
        <ele>1416.8</ele>
        <time>2021-08-09 12:19:05</time>
      </trkpt>
      <trkpt lat="42.85606" lon="-0.45611">
        <ele>1417.2</ele>
        <time>2021-08-09 12:19:06</time>
      </trkpt>
      <trkpt lat="42.85605" lon="-0.45611">
        <ele>1417.4</ele>
        <time>2021-08-09 12:19:07</time>
      </trkpt>
      <trkpt lat="42.85604" lon="-0.45611">
        <ele>1417.6</ele>
        <time>2021-08-09 12:19:08</time>
      </trkpt>
      <trkpt lat="42.85603" lon="-0.45611">
        <ele>1417.8</ele>
        <time>2021-08-09 12:19:09</time>
      </trkpt>
      <trkpt lat="42.85601" lon="-0.45611">
        <ele>1418</ele>
        <time>2021-08-09 12:19:10</time>
      </trkpt>
      <trkpt lat="42.85599" lon="-0.45612">
        <ele>1418</ele>
        <time>2021-08-09 12:19:11</time>
      </trkpt>
      <trkpt lat="42.85598" lon="-0.45612">
        <ele>1418</ele>
        <time>2021-08-09 12:19:12</time>
      </trkpt>
      <trkpt lat="42.85598" lon="-0.45613">
        <ele>1418</ele>
        <time>2021-08-09 12:19:13</time>
      </trkpt>
      <trkpt lat="42.85597" lon="-0.45614">
        <ele>1418</ele>
        <time>2021-08-09 12:19:14</time>
      </trkpt>
      <trkpt lat="42.85596" lon="-0.45614">
        <ele>1418.2</ele>
        <time>2021-08-09 12:19:15</time>
      </trkpt>
      <trkpt lat="42.85594" lon="-0.45614">
        <ele>1418.4</ele>
        <time>2021-08-09 12:19:16</time>
      </trkpt>
      <trkpt lat="42.85594" lon="-0.45615">
        <ele>1418.4</ele>
        <time>2021-08-09 12:19:17</time>
      </trkpt>
      <trkpt lat="42.85593" lon="-0.45615">
        <ele>1418.6</ele>
        <time>2021-08-09 12:19:18</time>
      </trkpt>
      <trkpt lat="42.85593" lon="-0.45616">
        <ele>1418.8</ele>
        <time>2021-08-09 12:19:19</time>
      </trkpt>
      <trkpt lat="42.85592" lon="-0.45617">
        <ele>1418.8</ele>
        <time>2021-08-09 12:19:20</time>
      </trkpt>
      <trkpt lat="42.85592" lon="-0.45618">
        <ele>1418.8</ele>
        <time>2021-08-09 12:19:21</time>
      </trkpt>
      <trkpt lat="42.85591" lon="-0.45619">
        <ele>1419</ele>
        <time>2021-08-09 12:19:22</time>
      </trkpt>
      <trkpt lat="42.85591" lon="-0.4562">
        <ele>1419</ele>
        <time>2021-08-09 12:19:23</time>
      </trkpt>
      <trkpt lat="42.85591" lon="-0.45621">
        <ele>1419.2</ele>
        <time>2021-08-09 12:19:24</time>
      </trkpt>
      <trkpt lat="42.85592" lon="-0.45623">
        <ele>1419.6</ele>
        <time>2021-08-09 12:19:25</time>
      </trkpt>
      <trkpt lat="42.85592" lon="-0.45624">
        <ele>1419.8</ele>
        <time>2021-08-09 12:19:26</time>
      </trkpt>
      <trkpt lat="42.85591" lon="-0.45625">
        <ele>1420</ele>
        <time>2021-08-09 12:19:27</time>
      </trkpt>
      <trkpt lat="42.85591" lon="-0.45626">
        <ele>1420.2</ele>
        <time>2021-08-09 12:19:28</time>
      </trkpt>
      <trkpt lat="42.8559" lon="-0.45626">
        <ele>1420.2</ele>
        <time>2021-08-09 12:19:29</time>
      </trkpt>
      <trkpt lat="42.8559" lon="-0.45626">
        <ele>1420.4</ele>
        <time>2021-08-09 12:19:30</time>
      </trkpt>
      <trkpt lat="42.8559" lon="-0.45627">
        <ele>1420.6</ele>
        <time>2021-08-09 12:19:31</time>
      </trkpt>
      <trkpt lat="42.85589" lon="-0.45628">
        <ele>1421</ele>
        <time>2021-08-09 12:19:32</time>
      </trkpt>
      <trkpt lat="42.85588" lon="-0.45628">
        <ele>1421</ele>
        <time>2021-08-09 12:19:33</time>
      </trkpt>
      <trkpt lat="42.85587" lon="-0.45629">
        <ele>1421.4</ele>
        <time>2021-08-09 12:19:34</time>
      </trkpt>
      <trkpt lat="42.85586" lon="-0.45628">
        <ele>1421.6</ele>
        <time>2021-08-09 12:19:35</time>
      </trkpt>
      <trkpt lat="42.85585" lon="-0.45629">
        <ele>1421.8</ele>
        <time>2021-08-09 12:19:36</time>
      </trkpt>
      <trkpt lat="42.85583" lon="-0.45628">
        <ele>1422.2</ele>
        <time>2021-08-09 12:19:37</time>
      </trkpt>
      <trkpt lat="42.85582" lon="-0.45629">
        <ele>1422.2</ele>
        <time>2021-08-09 12:19:38</time>
      </trkpt>
      <trkpt lat="42.85581" lon="-0.4563">
        <ele>1422.4</ele>
        <time>2021-08-09 12:19:39</time>
      </trkpt>
      <trkpt lat="42.8558" lon="-0.45631">
        <ele>1422.4</ele>
        <time>2021-08-09 12:19:40</time>
      </trkpt>
      <trkpt lat="42.85579" lon="-0.45632">
        <ele>1422.6</ele>
        <time>2021-08-09 12:19:41</time>
      </trkpt>
      <trkpt lat="42.85579" lon="-0.45633">
        <ele>1422.6</ele>
        <time>2021-08-09 12:19:42</time>
      </trkpt>
      <trkpt lat="42.85579" lon="-0.45634">
        <ele>1422.8</ele>
        <time>2021-08-09 12:19:43</time>
      </trkpt>
      <trkpt lat="42.85579" lon="-0.45635">
        <ele>1423</ele>
        <time>2021-08-09 12:19:44</time>
      </trkpt>
      <trkpt lat="42.85579" lon="-0.45637">
        <ele>1423.4</ele>
        <time>2021-08-09 12:19:45</time>
      </trkpt>
      <trkpt lat="42.85579" lon="-0.45638">
        <ele>1423.4</ele>
        <time>2021-08-09 12:19:46</time>
      </trkpt>
      <trkpt lat="42.85578" lon="-0.45638">
        <ele>1423.6</ele>
        <time>2021-08-09 12:19:47</time>
      </trkpt>
      <trkpt lat="42.85578" lon="-0.45638">
        <ele>1423.8</ele>
        <time>2021-08-09 12:19:48</time>
      </trkpt>
      <trkpt lat="42.85578" lon="-0.45639">
        <ele>1424.2</ele>
        <time>2021-08-09 12:19:49</time>
      </trkpt>
      <trkpt lat="42.85578" lon="-0.4564">
        <ele>1424.2</ele>
        <time>2021-08-09 12:19:50</time>
      </trkpt>
      <trkpt lat="42.85577" lon="-0.45641">
        <ele>1424.6</ele>
        <time>2021-08-09 12:19:51</time>
      </trkpt>
      <trkpt lat="42.85576" lon="-0.45641">
        <ele>1424.6</ele>
        <time>2021-08-09 12:19:52</time>
      </trkpt>
      <trkpt lat="42.85575" lon="-0.45642">
        <ele>1424.8</ele>
        <time>2021-08-09 12:19:53</time>
      </trkpt>
      <trkpt lat="42.85575" lon="-0.45644">
        <ele>1424.8</ele>
        <time>2021-08-09 12:19:54</time>
      </trkpt>
      <trkpt lat="42.85575" lon="-0.45645">
        <ele>1425</ele>
        <time>2021-08-09 12:19:55</time>
      </trkpt>
      <trkpt lat="42.85574" lon="-0.45647">
        <ele>1425</ele>
        <time>2021-08-09 12:19:56</time>
      </trkpt>
      <trkpt lat="42.85573" lon="-0.45647">
        <ele>1425</ele>
        <time>2021-08-09 12:19:57</time>
      </trkpt>
      <trkpt lat="42.85572" lon="-0.45648">
        <ele>1425</ele>
        <time>2021-08-09 12:19:58</time>
      </trkpt>
      <trkpt lat="42.85572" lon="-0.45649">
        <ele>1425.2</ele>
        <time>2021-08-09 12:19:59</time>
      </trkpt>
      <trkpt lat="42.85571" lon="-0.45651">
        <ele>1425.4</ele>
        <time>2021-08-09 12:20:00</time>
      </trkpt>
      <trkpt lat="42.85571" lon="-0.45652">
        <ele>1425.8</ele>
        <time>2021-08-09 12:20:01</time>
      </trkpt>
      <trkpt lat="42.8557" lon="-0.45653">
        <ele>1425.8</ele>
        <time>2021-08-09 12:20:02</time>
      </trkpt>
      <trkpt lat="42.85569" lon="-0.45652">
        <ele>1426</ele>
        <time>2021-08-09 12:20:03</time>
      </trkpt>
      <trkpt lat="42.85568" lon="-0.45653">
        <ele>1426.2</ele>
        <time>2021-08-09 12:20:04</time>
      </trkpt>
      <trkpt lat="42.85566" lon="-0.45652">
        <ele>1426.6</ele>
        <time>2021-08-09 12:20:05</time>
      </trkpt>
      <trkpt lat="42.85566" lon="-0.45653">
        <ele>1427</ele>
        <time>2021-08-09 12:20:06</time>
      </trkpt>
      <trkpt lat="42.85565" lon="-0.45654">
        <ele>1427.2</ele>
        <time>2021-08-09 12:20:07</time>
      </trkpt>
      <trkpt lat="42.85564" lon="-0.45654">
        <ele>1427.2</ele>
        <time>2021-08-09 12:20:08</time>
      </trkpt>
      <trkpt lat="42.85563" lon="-0.45655">
        <ele>1427.4</ele>
        <time>2021-08-09 12:20:09</time>
      </trkpt>
      <trkpt lat="42.85562" lon="-0.45656">
        <ele>1427.6</ele>
        <time>2021-08-09 12:20:10</time>
      </trkpt>
      <trkpt lat="42.85561" lon="-0.45657">
        <ele>1427.8</ele>
        <time>2021-08-09 12:20:11</time>
      </trkpt>
      <trkpt lat="42.8556" lon="-0.45657">
        <ele>1428.2</ele>
        <time>2021-08-09 12:20:12</time>
      </trkpt>
      <trkpt lat="42.8556" lon="-0.45658">
        <ele>1428.2</ele>
        <time>2021-08-09 12:20:13</time>
      </trkpt>
      <trkpt lat="42.8556" lon="-0.45659">
        <ele>1428.4</ele>
        <time>2021-08-09 12:20:14</time>
      </trkpt>
      <trkpt lat="42.85558" lon="-0.4566">
        <ele>1428.4</ele>
        <time>2021-08-09 12:20:15</time>
      </trkpt>
      <trkpt lat="42.85558" lon="-0.45662">
        <ele>1428.2</ele>
        <time>2021-08-09 12:20:16</time>
      </trkpt>
      <trkpt lat="42.85558" lon="-0.45662">
        <ele>1428.4</ele>
        <time>2021-08-09 12:20:17</time>
      </trkpt>
      <trkpt lat="42.85557" lon="-0.45663">
        <ele>1428.4</ele>
        <time>2021-08-09 12:20:18</time>
      </trkpt>
      <trkpt lat="42.85556" lon="-0.45664">
        <ele>1428.4</ele>
        <time>2021-08-09 12:20:19</time>
      </trkpt>
      <trkpt lat="42.85556" lon="-0.45665">
        <ele>1428.6</ele>
        <time>2021-08-09 12:20:20</time>
      </trkpt>
      <trkpt lat="42.85554" lon="-0.45666">
        <ele>1428.6</ele>
        <time>2021-08-09 12:20:21</time>
      </trkpt>
      <trkpt lat="42.85554" lon="-0.45666">
        <ele>1428.8</ele>
        <time>2021-08-09 12:20:22</time>
      </trkpt>
      <trkpt lat="42.85554" lon="-0.45667">
        <ele>1428.8</ele>
        <time>2021-08-09 12:20:23</time>
      </trkpt>
      <trkpt lat="42.85553" lon="-0.4567">
        <ele>1429</ele>
        <time>2021-08-09 12:20:24</time>
      </trkpt>
      <trkpt lat="42.85552" lon="-0.45671">
        <ele>1429</ele>
        <time>2021-08-09 12:20:25</time>
      </trkpt>
      <trkpt lat="42.8555" lon="-0.45673">
        <ele>1429.4</ele>
        <time>2021-08-09 12:20:26</time>
      </trkpt>
      <trkpt lat="42.8555" lon="-0.45673">
        <ele>1429.2</ele>
        <time>2021-08-09 12:20:27</time>
      </trkpt>
      <trkpt lat="42.85549" lon="-0.45674">
        <ele>1429.4</ele>
        <time>2021-08-09 12:20:28</time>
      </trkpt>
      <trkpt lat="42.85549" lon="-0.45674">
        <ele>1429.2</ele>
        <time>2021-08-09 12:20:29</time>
      </trkpt>
      <trkpt lat="42.85549" lon="-0.45676">
        <ele>1429.4</ele>
        <time>2021-08-09 12:20:30</time>
      </trkpt>
      <trkpt lat="42.85549" lon="-0.45678">
        <ele>1429.4</ele>
        <time>2021-08-09 12:20:31</time>
      </trkpt>
      <trkpt lat="42.85548" lon="-0.45679">
        <ele>1429.8</ele>
        <time>2021-08-09 12:20:32</time>
      </trkpt>
      <trkpt lat="42.85548" lon="-0.45681">
        <ele>1429.8</ele>
        <time>2021-08-09 12:20:33</time>
      </trkpt>
      <trkpt lat="42.85547" lon="-0.45682">
        <ele>1429.8</ele>
        <time>2021-08-09 12:20:34</time>
      </trkpt>
      <trkpt lat="42.85546" lon="-0.45683">
        <ele>1429.8</ele>
        <time>2021-08-09 12:20:35</time>
      </trkpt>
      <trkpt lat="42.85545" lon="-0.45684">
        <ele>1430</ele>
        <time>2021-08-09 12:20:36</time>
      </trkpt>
      <trkpt lat="42.85544" lon="-0.45686">
        <ele>1430.2</ele>
        <time>2021-08-09 12:20:37</time>
      </trkpt>
      <trkpt lat="42.85543" lon="-0.45687">
        <ele>1430.2</ele>
        <time>2021-08-09 12:20:38</time>
      </trkpt>
      <trkpt lat="42.85542" lon="-0.45687">
        <ele>1430.2</ele>
        <time>2021-08-09 12:20:39</time>
      </trkpt>
      <trkpt lat="42.85541" lon="-0.45689">
        <ele>1430.4</ele>
        <time>2021-08-09 12:20:40</time>
      </trkpt>
      <trkpt lat="42.8554" lon="-0.4569">
        <ele>1430.4</ele>
        <time>2021-08-09 12:20:41</time>
      </trkpt>
      <trkpt lat="42.85539" lon="-0.45691">
        <ele>1430.4</ele>
        <time>2021-08-09 12:20:42</time>
      </trkpt>
      <trkpt lat="42.85539" lon="-0.45691">
        <ele>1430.6</ele>
        <time>2021-08-09 12:20:43</time>
      </trkpt>
      <trkpt lat="42.85539" lon="-0.45692">
        <ele>1430.6</ele>
        <time>2021-08-09 12:20:44</time>
      </trkpt>
      <trkpt lat="42.85539" lon="-0.45692">
        <ele>1430.6</ele>
        <time>2021-08-09 12:20:45</time>
      </trkpt>
      <trkpt lat="42.85538" lon="-0.45692">
        <ele>1430.6</ele>
        <time>2021-08-09 12:20:46</time>
      </trkpt>
      <trkpt lat="42.85538" lon="-0.4569">
        <ele>1430.4</ele>
        <time>2021-08-09 12:20:47</time>
      </trkpt>
      <trkpt lat="42.85537" lon="-0.45689">
        <ele>1430.4</ele>
        <time>2021-08-09 12:20:48</time>
      </trkpt>
      <trkpt lat="42.85538" lon="-0.45689">
        <ele>1430.4</ele>
        <time>2021-08-09 12:20:49</time>
      </trkpt>
      <trkpt lat="42.85538" lon="-0.45689">
        <ele>1430.6</ele>
        <time>2021-08-09 12:20:50</time>
      </trkpt>
      <trkpt lat="42.85539" lon="-0.45689">
        <ele>1430.6</ele>
        <time>2021-08-09 12:20:51</time>
      </trkpt>
      <trkpt lat="42.8554" lon="-0.4569">
        <ele>1430.6</ele>
        <time>2021-08-09 12:20:52</time>
      </trkpt>
      <trkpt lat="42.85539" lon="-0.45689">
        <ele>1430.4</ele>
      </trkpt>
      <trkpt lat="42.85538" lon="-0.45689">
        <ele>1430.4</ele>
        <time>2021-08-09 12:20:53</time>
      </trkpt>
      <trkpt lat="42.85538" lon="-0.45688">
        <ele>1430.4</ele>
        <time>2021-08-09 12:20:54</time>
      </trkpt>
      <trkpt lat="42.85538" lon="-0.45688">
        <ele>1430.4</ele>
        <time>2021-08-09 12:20:55</time>
      </trkpt>
      <trkpt lat="42.85537" lon="-0.45688">
        <ele>1430.4</ele>
        <time>2021-08-09 12:20:56</time>
      </trkpt>
      <trkpt lat="42.85532" lon="-0.45685">
        <ele>1430.2</ele>
        <time>2021-08-09 12:20:57</time>
      </trkpt>
      <trkpt lat="42.85531" lon="-0.45684">
        <ele>1430.2</ele>
        <time>2021-08-09 12:20:58</time>
      </trkpt>
      <trkpt lat="42.85531" lon="-0.45684">
        <ele>1430.2</ele>
        <time>2021-08-09 12:20:59</time>
      </trkpt>
      <trkpt lat="42.85531" lon="-0.45684">
        <ele>1430.2</ele>
        <time>2021-08-09 12:21:00</time>
      </trkpt>
      <trkpt lat="42.85529" lon="-0.45681">
        <ele>1429.8</ele>
        <time>2021-08-09 12:21:01</time>
      </trkpt>
      <trkpt lat="42.85528" lon="-0.45681">
        <ele>1429.8</ele>
        <time>2021-08-09 12:21:02</time>
      </trkpt>
      <trkpt lat="42.85529" lon="-0.45681">
        <ele>1429.8</ele>
        <time>2021-08-09 12:21:03</time>
      </trkpt>
      <trkpt lat="42.85529" lon="-0.45681">
        <ele>1429.6</ele>
        <time>2021-08-09 12:21:04</time>
      </trkpt>
      <trkpt lat="42.85529" lon="-0.45682">
        <ele>1429.8</ele>
        <time>2021-08-09 12:21:05</time>
      </trkpt>
      <trkpt lat="42.85529" lon="-0.45681">
        <ele>1429.8</ele>
        <time>2021-08-09 12:21:06</time>
      </trkpt>
      <trkpt lat="42.85529" lon="-0.45681">
        <ele>1429.8</ele>
        <time>2021-08-09 12:21:08</time>
      </trkpt>
      <trkpt lat="42.85529" lon="-0.45682">
        <ele>1429.6</ele>
      </trkpt>
      <trkpt lat="42.85528" lon="-0.45681">
        <ele>1429.6</ele>
        <time>2021-08-09 12:21:09</time>
      </trkpt>
      <trkpt lat="42.85528" lon="-0.45682">
        <ele>1429.4</ele>
        <time>2021-08-09 12:21:10</time>
      </trkpt>
      <trkpt lat="42.85528" lon="-0.45682">
        <ele>1429.6</ele>
        <time>2021-08-09 12:21:11</time>
      </trkpt>
      <trkpt lat="42.85527" lon="-0.45682">
        <ele>1429.6</ele>
        <time>2021-08-09 12:21:12</time>
      </trkpt>
      <trkpt lat="42.85527" lon="-0.45682">
        <ele>1429.6</ele>
        <time>2021-08-09 12:21:13</time>
      </trkpt>
      <trkpt lat="42.85527" lon="-0.45682">
        <ele>1429.6</ele>
        <time>2021-08-09 12:21:15</time>
      </trkpt>
      <trkpt lat="42.85527" lon="-0.45682">
        <ele>1429.2</ele>
        <time>2021-08-09 12:21:16</time>
      </trkpt>
      <trkpt lat="42.85526" lon="-0.45683">
        <ele>1429.6</ele>
        <time>2021-08-09 12:21:17</time>
      </trkpt>
      <trkpt lat="42.85524" lon="-0.45683">
        <ele>1429.8</ele>
        <time>2021-08-09 12:21:18</time>
      </trkpt>
      <trkpt lat="42.85524" lon="-0.45685">
        <ele>1429.6</ele>
        <time>2021-08-09 12:21:19</time>
      </trkpt>
      <trkpt lat="42.85524" lon="-0.45686">
        <ele>1429.8</ele>
        <time>2021-08-09 12:21:20</time>
      </trkpt>
      <trkpt lat="42.85523" lon="-0.45687">
        <ele>1429.8</ele>
        <time>2021-08-09 12:21:21</time>
      </trkpt>
      <trkpt lat="42.85523" lon="-0.45689">
        <ele>1430.2</ele>
        <time>2021-08-09 12:21:22</time>
      </trkpt>
      <trkpt lat="42.85522" lon="-0.4569">
        <ele>1430</ele>
        <time>2021-08-09 12:21:23</time>
      </trkpt>
      <trkpt lat="42.85522" lon="-0.45691">
        <ele>1430.2</ele>
        <time>2021-08-09 12:21:24</time>
      </trkpt>
      <trkpt lat="42.85521" lon="-0.45692">
        <ele>1430.4</ele>
        <time>2021-08-09 12:21:25</time>
      </trkpt>
      <trkpt lat="42.8552" lon="-0.45693">
        <ele>1430.6</ele>
        <time>2021-08-09 12:21:42</time>
      </trkpt>
      <trkpt lat="42.85519" lon="-0.45693">
        <ele>1430.8</ele>
        <time>2021-08-09 12:21:43</time>
      </trkpt>
      <trkpt lat="42.85518" lon="-0.45693">
        <ele>1430.6</ele>
        <time>2021-08-09 12:21:44</time>
      </trkpt>
      <trkpt lat="42.85517" lon="-0.45695">
        <ele>1430.8</ele>
        <time>2021-08-09 12:21:45</time>
      </trkpt>
      <trkpt lat="42.85516" lon="-0.45696">
        <ele>1430.6</ele>
        <time>2021-08-09 12:22:10</time>
      </trkpt>
      <trkpt lat="42.85515" lon="-0.45698">
        <ele>1431</ele>
        <time>2021-08-09 12:22:11</time>
      </trkpt>
      <trkpt lat="42.85514" lon="-0.457">
        <ele>1431.2</ele>
        <time>2021-08-09 12:22:12</time>
      </trkpt>
      <trkpt lat="42.85514" lon="-0.45702">
        <ele>1431.2</ele>
        <time>2021-08-09 12:22:13</time>
      </trkpt>
      <trkpt lat="42.85513" lon="-0.45703">
        <ele>1431.4</ele>
        <time>2021-08-09 12:22:14</time>
      </trkpt>
      <trkpt lat="42.85513" lon="-0.45705">
        <ele>1431.2</ele>
        <time>2021-08-09 12:22:15</time>
      </trkpt>
      <trkpt lat="42.85512" lon="-0.45706">
        <ele>1431.4</ele>
        <time>2021-08-09 12:22:16</time>
      </trkpt>
      <trkpt lat="42.85511" lon="-0.45707">
        <ele>1431.2</ele>
        <time>2021-08-09 12:22:17</time>
      </trkpt>
      <trkpt lat="42.8551" lon="-0.45707">
        <ele>1431.6</ele>
        <time>2021-08-09 12:22:22</time>
      </trkpt>
      <trkpt lat="42.85509" lon="-0.45709">
        <ele>1431.6</ele>
        <time>2021-08-09 12:22:23</time>
      </trkpt>
      <trkpt lat="42.8551" lon="-0.4571">
        <ele>1432</ele>
        <time>2021-08-09 12:22:24</time>
      </trkpt>
      <trkpt lat="42.8551" lon="-0.45712">
        <ele>1432.2</ele>
        <time>2021-08-09 12:22:25</time>
      </trkpt>
      <trkpt lat="42.85509" lon="-0.45713">
        <ele>1432.8</ele>
        <time>2021-08-09 12:22:26</time>
      </trkpt>
      <trkpt lat="42.85509" lon="-0.45714">
        <ele>1433</ele>
        <time>2021-08-09 12:22:27</time>
      </trkpt>
      <trkpt lat="42.85509" lon="-0.45717">
        <ele>1433</ele>
        <time>2021-08-09 12:22:31</time>
      </trkpt>
      <trkpt lat="42.85508" lon="-0.4572">
        <ele>1433</ele>
        <time>2021-08-09 12:22:32</time>
      </trkpt>
      <trkpt lat="42.85508" lon="-0.45722">
        <ele>1433</ele>
        <time>2021-08-09 12:22:33</time>
      </trkpt>
      <trkpt lat="42.85508" lon="-0.45724">
        <ele>1433</ele>
        <time>2021-08-09 12:22:34</time>
      </trkpt>
      <trkpt lat="42.85508" lon="-0.45725">
        <ele>1433.2</ele>
        <time>2021-08-09 12:22:35</time>
      </trkpt>
      <trkpt lat="42.85507" lon="-0.45727">
        <ele>1433.2</ele>
        <time>2021-08-09 12:22:36</time>
      </trkpt>
      <trkpt lat="42.85506" lon="-0.45728">
        <ele>1433.2</ele>
        <time>2021-08-09 12:22:37</time>
      </trkpt>
      <trkpt lat="42.85506" lon="-0.4573">
        <ele>1433.2</ele>
        <time>2021-08-09 12:22:38</time>
      </trkpt>
      <trkpt lat="42.85504" lon="-0.45731">
        <ele>1433</ele>
        <time>2021-08-09 12:22:39</time>
      </trkpt>
      <trkpt lat="42.85503" lon="-0.45733">
        <ele>1433.4</ele>
        <time>2021-08-09 12:22:40</time>
      </trkpt>
      <trkpt lat="42.85502" lon="-0.45734">
        <ele>1433.4</ele>
        <time>2021-08-09 12:22:41</time>
      </trkpt>
      <trkpt lat="42.85502" lon="-0.45735">
        <ele>1433.8</ele>
        <time>2021-08-09 12:22:42</time>
      </trkpt>
      <trkpt lat="42.85501" lon="-0.45736">
        <ele>1434</ele>
        <time>2021-08-09 12:22:43</time>
      </trkpt>
      <trkpt lat="42.855" lon="-0.45737">
        <ele>1434</ele>
        <time>2021-08-09 12:22:44</time>
      </trkpt>
      <trkpt lat="42.85499" lon="-0.45738">
        <ele>1434.2</ele>
        <time>2021-08-09 12:22:45</time>
      </trkpt>
      <trkpt lat="42.85498" lon="-0.45739">
        <ele>1434.4</ele>
        <time>2021-08-09 12:22:46</time>
      </trkpt>
      <trkpt lat="42.85498" lon="-0.4574">
        <ele>1434.6</ele>
        <time>2021-08-09 12:22:47</time>
      </trkpt>
      <trkpt lat="42.85497" lon="-0.45741">
        <ele>1434.8</ele>
        <time>2021-08-09 12:22:48</time>
      </trkpt>
      <trkpt lat="42.85496" lon="-0.45742">
        <ele>1435</ele>
        <time>2021-08-09 12:22:49</time>
      </trkpt>
      <trkpt lat="42.85495" lon="-0.45743">
        <ele>1435</ele>
        <time>2021-08-09 12:22:50</time>
      </trkpt>
      <trkpt lat="42.85493" lon="-0.45743">
        <ele>1435.2</ele>
        <time>2021-08-09 12:22:51</time>
      </trkpt>
      <trkpt lat="42.85492" lon="-0.45744">
        <ele>1435</ele>
        <time>2021-08-09 12:22:52</time>
      </trkpt>
      <trkpt lat="42.85491" lon="-0.45743">
        <ele>1435</ele>
        <time>2021-08-09 12:22:53</time>
      </trkpt>
      <trkpt lat="42.8549" lon="-0.45745">
        <ele>1435</ele>
        <time>2021-08-09 12:22:54</time>
      </trkpt>
      <trkpt lat="42.85489" lon="-0.45746">
        <ele>1435</ele>
        <time>2021-08-09 12:22:55</time>
      </trkpt>
      <trkpt lat="42.85488" lon="-0.45747">
        <ele>1434.8</ele>
        <time>2021-08-09 12:22:56</time>
      </trkpt>
      <trkpt lat="42.85487" lon="-0.45747">
        <ele>1434.6</ele>
        <time>2021-08-09 12:22:57</time>
      </trkpt>
      <trkpt lat="42.85487" lon="-0.45748">
        <ele>1434.6</ele>
        <time>2021-08-09 12:22:58</time>
      </trkpt>
      <trkpt lat="42.85486" lon="-0.45748">
        <ele>1434.6</ele>
        <time>2021-08-09 12:22:59</time>
      </trkpt>
      <trkpt lat="42.85484" lon="-0.45747">
        <ele>1434.4</ele>
        <time>2021-08-09 12:23:00</time>
      </trkpt>
      <trkpt lat="42.85484" lon="-0.45748">
        <ele>1434.6</ele>
        <time>2021-08-09 12:23:01</time>
      </trkpt>
      <trkpt lat="42.85482" lon="-0.45747">
        <ele>1434.4</ele>
        <time>2021-08-09 12:23:02</time>
      </trkpt>
      <trkpt lat="42.85481" lon="-0.45747">
        <ele>1434.6</ele>
        <time>2021-08-09 12:23:03</time>
      </trkpt>
      <trkpt lat="42.8548" lon="-0.45747">
        <ele>1434.6</ele>
        <time>2021-08-09 12:23:04</time>
      </trkpt>
      <trkpt lat="42.85478" lon="-0.45747">
        <ele>1434.4</ele>
        <time>2021-08-09 12:23:05</time>
      </trkpt>
      <trkpt lat="42.85476" lon="-0.45747">
        <ele>1434.4</ele>
        <time>2021-08-09 12:23:06</time>
      </trkpt>
      <trkpt lat="42.85475" lon="-0.45747">
        <ele>1434.4</ele>
        <time>2021-08-09 12:23:07</time>
      </trkpt>
      <trkpt lat="42.85475" lon="-0.45747">
        <ele>1434.6</ele>
        <time>2021-08-09 12:23:08</time>
      </trkpt>
      <trkpt lat="42.85474" lon="-0.45747">
        <ele>1434.6</ele>
        <time>2021-08-09 12:23:09</time>
      </trkpt>
      <trkpt lat="42.85474" lon="-0.45747">
        <ele>1434.8</ele>
        <time>2021-08-09 12:23:10</time>
      </trkpt>
      <trkpt lat="42.85474" lon="-0.45749">
        <ele>1435</ele>
        <time>2021-08-09 12:23:11</time>
      </trkpt>
      <trkpt lat="42.85474" lon="-0.4575">
        <ele>1435</ele>
        <time>2021-08-09 12:23:12</time>
      </trkpt>
      <trkpt lat="42.85473" lon="-0.4575">
        <ele>1435</ele>
        <time>2021-08-09 12:23:13</time>
      </trkpt>
      <trkpt lat="42.85473" lon="-0.45749">
        <ele>1435</ele>
        <time>2021-08-09 12:23:14</time>
      </trkpt>
      <trkpt lat="42.8547" lon="-0.45752">
        <ele>1434.8</ele>
        <time>2021-08-09 12:23:15</time>
      </trkpt>
      <trkpt lat="42.8547" lon="-0.45752">
        <ele>1434.6</ele>
        <time>2021-08-09 12:23:16</time>
      </trkpt>
      <trkpt lat="42.8547" lon="-0.45752">
        <ele>1434.6</ele>
        <time>2021-08-09 12:23:17</time>
      </trkpt>
      <trkpt lat="42.85471" lon="-0.45753">
        <ele>1434.6</ele>
        <time>2021-08-09 12:23:18</time>
      </trkpt>
      <trkpt lat="42.8547" lon="-0.45752">
        <ele>1434.8</ele>
        <time>2021-08-09 12:23:19</time>
      </trkpt>
      <trkpt lat="42.85467" lon="-0.45753">
        <ele>1434.2</ele>
        <time>2021-08-09 12:23:20</time>
      </trkpt>
      <trkpt lat="42.85467" lon="-0.45754">
        <ele>1434.2</ele>
        <time>2021-08-09 12:23:21</time>
      </trkpt>
      <trkpt lat="42.85467" lon="-0.45753">
        <ele>1435.2</ele>
        <time>2021-08-09 12:23:22</time>
      </trkpt>
      <trkpt lat="42.85467" lon="-0.45754">
        <ele>1434.8</ele>
        <time>2021-08-09 12:23:23</time>
      </trkpt>
      <trkpt lat="42.85466" lon="-0.45754">
        <ele>1435</ele>
        <time>2021-08-09 12:23:24</time>
      </trkpt>
      <trkpt lat="42.85466" lon="-0.45753">
        <ele>1434.6</ele>
        <time>2021-08-09 12:23:25</time>
      </trkpt>
      <trkpt lat="42.85465" lon="-0.45754">
        <ele>1434.4</ele>
        <time>2021-08-09 12:23:26</time>
      </trkpt>
      <trkpt lat="42.85463" lon="-0.45753">
        <ele>1433.8</ele>
        <time>2021-08-09 12:23:27</time>
      </trkpt>
      <trkpt lat="42.85462" lon="-0.45753">
        <ele>1433.6</ele>
        <time>2021-08-09 12:23:28</time>
      </trkpt>
      <trkpt lat="42.85461" lon="-0.45754">
        <ele>1433.6</ele>
        <time>2021-08-09 12:23:29</time>
      </trkpt>
      <trkpt lat="42.8546" lon="-0.45754">
        <ele>1433.4</ele>
        <time>2021-08-09 12:23:30</time>
      </trkpt>
      <trkpt lat="42.85459" lon="-0.45754">
        <ele>1433.2</ele>
        <time>2021-08-09 12:23:31</time>
      </trkpt>
      <trkpt lat="42.85458" lon="-0.45755">
        <ele>1433</ele>
        <time>2021-08-09 12:23:32</time>
      </trkpt>
      <trkpt lat="42.85457" lon="-0.45756">
        <ele>1433</ele>
        <time>2021-08-09 12:23:33</time>
      </trkpt>
      <trkpt lat="42.85456" lon="-0.45757">
        <ele>1433.4</ele>
        <time>2021-08-09 12:23:34</time>
      </trkpt>
      <trkpt lat="42.85455" lon="-0.45757">
        <ele>1433</ele>
        <time>2021-08-09 12:23:35</time>
      </trkpt>
      <trkpt lat="42.85453" lon="-0.45757">
        <ele>1433.2</ele>
        <time>2021-08-09 12:23:36</time>
      </trkpt>
      <trkpt lat="42.85452" lon="-0.45757">
        <ele>1433</ele>
        <time>2021-08-09 12:23:37</time>
      </trkpt>
      <trkpt lat="42.85451" lon="-0.45758">
        <ele>1432.8</ele>
        <time>2021-08-09 12:23:38</time>
      </trkpt>
      <trkpt lat="42.8545" lon="-0.45758">
        <ele>1432.4</ele>
        <time>2021-08-09 12:23:39</time>
      </trkpt>
      <trkpt lat="42.8545" lon="-0.45758">
        <ele>1433.2</ele>
        <time>2021-08-09 12:23:40</time>
      </trkpt>
      <trkpt lat="42.85449" lon="-0.45758">
        <ele>1433.8</ele>
        <time>2021-08-09 12:23:41</time>
      </trkpt>
      <trkpt lat="42.85449" lon="-0.45758">
        <ele>1434</ele>
        <time>2021-08-09 12:23:42</time>
      </trkpt>
      <trkpt lat="42.85449" lon="-0.45758">
        <ele>1434.4</ele>
        <time>2021-08-09 12:24:04</time>
      </trkpt>
      <trkpt lat="42.85449" lon="-0.45759">
        <ele>1433.6</ele>
        <time>2021-08-09 12:24:05</time>
      </trkpt>
      <trkpt lat="42.85449" lon="-0.4576">
        <ele>1432.8</ele>
        <time>2021-08-09 12:24:06</time>
      </trkpt>
      <trkpt lat="42.85449" lon="-0.45762">
        <ele>1432.4</ele>
        <time>2021-08-09 12:24:07</time>
      </trkpt>
      <trkpt lat="42.85448" lon="-0.45763">
        <ele>1432.4</ele>
        <time>2021-08-09 12:24:08</time>
      </trkpt>
      <trkpt lat="42.85448" lon="-0.45764">
        <ele>1432.4</ele>
        <time>2021-08-09 12:24:30</time>
      </trkpt>
      <trkpt lat="42.85447" lon="-0.45766">
        <ele>1432</ele>
        <time>2021-08-09 12:24:31</time>
      </trkpt>
      <trkpt lat="42.85447" lon="-0.45767">
        <ele>1432</ele>
        <time>2021-08-09 12:24:32</time>
      </trkpt>
      <trkpt lat="42.85446" lon="-0.45768">
        <ele>1432.6</ele>
        <time>2021-08-09 12:24:33</time>
      </trkpt>
      <trkpt lat="42.85445" lon="-0.45769">
        <ele>1433.4</ele>
        <time>2021-08-09 12:24:34</time>
      </trkpt>
      <trkpt lat="42.85445" lon="-0.4577">
        <ele>1433.8</ele>
        <time>2021-08-09 12:24:35</time>
      </trkpt>
      <trkpt lat="42.85445" lon="-0.45771">
        <ele>1434.2</ele>
        <time>2021-08-09 12:24:36</time>
      </trkpt>
      <trkpt lat="42.85445" lon="-0.45772">
        <ele>1434.4</ele>
        <time>2021-08-09 12:24:37</time>
      </trkpt>
      <trkpt lat="42.85444" lon="-0.45774">
        <ele>1434</ele>
        <time>2021-08-09 12:24:38</time>
      </trkpt>
      <trkpt lat="42.85443" lon="-0.45775">
        <ele>1433.2</ele>
        <time>2021-08-09 12:24:39</time>
      </trkpt>
      <trkpt lat="42.85443" lon="-0.45777">
        <ele>1432.6</ele>
        <time>2021-08-09 12:24:40</time>
      </trkpt>
      <trkpt lat="42.85442" lon="-0.45777">
        <ele>1432.8</ele>
        <time>2021-08-09 12:24:41</time>
      </trkpt>
      <trkpt lat="42.85442" lon="-0.45777">
        <ele>1432.4</ele>
        <time>2021-08-09 12:24:42</time>
      </trkpt>
      <trkpt lat="42.85442" lon="-0.45778">
        <ele>1432.8</ele>
        <time>2021-08-09 12:24:43</time>
      </trkpt>
      <trkpt lat="42.85442" lon="-0.45779">
        <ele>1433</ele>
        <time>2021-08-09 12:24:44</time>
      </trkpt>
      <trkpt lat="42.85442" lon="-0.45779">
        <ele>1434</ele>
        <time>2021-08-09 12:24:45</time>
      </trkpt>
      <trkpt lat="42.85441" lon="-0.45778">
        <ele>1434.6</ele>
        <time>2021-08-09 12:24:46</time>
      </trkpt>
      <trkpt lat="42.85442" lon="-0.45776">
        <ele>1435</ele>
        <time>2021-08-09 12:24:47</time>
      </trkpt>
      <trkpt lat="42.85442" lon="-0.45775">
        <ele>1434.6</ele>
        <time>2021-08-09 12:24:48</time>
      </trkpt>
      <trkpt lat="42.85442" lon="-0.45776">
        <ele>1433.8</ele>
        <time>2021-08-09 12:24:49</time>
      </trkpt>
      <trkpt lat="42.85442" lon="-0.45777">
        <ele>1433.6</ele>
        <time>2021-08-09 12:24:50</time>
      </trkpt>
      <trkpt lat="42.85443" lon="-0.45779">
        <ele>1433.6</ele>
        <time>2021-08-09 12:24:51</time>
      </trkpt>
      <trkpt lat="42.85443" lon="-0.45781">
        <ele>1433.6</ele>
        <time>2021-08-09 12:24:52</time>
      </trkpt>
      <trkpt lat="42.85442" lon="-0.45782">
        <ele>1433.8</ele>
        <time>2021-08-09 12:24:53</time>
      </trkpt>
      <trkpt lat="42.85442" lon="-0.45783">
        <ele>1433.8</ele>
        <time>2021-08-09 12:24:57</time>
      </trkpt>
      <trkpt lat="42.85442" lon="-0.45785">
        <ele>1433.6</ele>
        <time>2021-08-09 12:24:58</time>
      </trkpt>
      <trkpt lat="42.85442" lon="-0.45786">
        <ele>1434.2</ele>
        <time>2021-08-09 12:24:59</time>
      </trkpt>
      <trkpt lat="42.85441" lon="-0.45787">
        <ele>1434.6</ele>
        <time>2021-08-09 12:25:00</time>
      </trkpt>
      <trkpt lat="42.85441" lon="-0.45789">
        <ele>1434.6</ele>
        <time>2021-08-09 12:25:01</time>
      </trkpt>
      <trkpt lat="42.8544" lon="-0.4579">
        <ele>1433.8</ele>
        <time>2021-08-09 12:25:02</time>
      </trkpt>
      <trkpt lat="42.8544" lon="-0.45791">
        <ele>1433.6</ele>
        <time>2021-08-09 12:25:03</time>
      </trkpt>
      <trkpt lat="42.8544" lon="-0.45793">
        <ele>1434.2</ele>
        <time>2021-08-09 12:25:04</time>
      </trkpt>
      <trkpt lat="42.8544" lon="-0.45794">
        <ele>1434.4</ele>
        <time>2021-08-09 12:25:05</time>
      </trkpt>
      <trkpt lat="42.85439" lon="-0.45796">
        <ele>1434.8</ele>
        <time>2021-08-09 12:25:06</time>
      </trkpt>
      <trkpt lat="42.8544" lon="-0.45798">
        <ele>1435</ele>
        <time>2021-08-09 12:25:07</time>
      </trkpt>
      <trkpt lat="42.85439" lon="-0.458">
        <ele>1435.2</ele>
        <time>2021-08-09 12:25:08</time>
      </trkpt>
      <trkpt lat="42.85439" lon="-0.45801">
        <ele>1435.4</ele>
        <time>2021-08-09 12:25:09</time>
      </trkpt>
      <trkpt lat="42.85439" lon="-0.45802">
        <ele>1435.6</ele>
        <time>2021-08-09 12:25:10</time>
      </trkpt>
      <trkpt lat="42.8544" lon="-0.45803">
        <ele>1435.6</ele>
        <time>2021-08-09 12:25:11</time>
      </trkpt>
      <trkpt lat="42.85439" lon="-0.45805">
        <ele>1435.8</ele>
        <time>2021-08-09 12:25:12</time>
      </trkpt>
      <trkpt lat="42.85439" lon="-0.45806">
        <ele>1436</ele>
        <time>2021-08-09 12:25:13</time>
      </trkpt>
      <trkpt lat="42.85439" lon="-0.45807">
        <ele>1435.8</ele>
        <time>2021-08-09 12:25:17</time>
      </trkpt>
      <trkpt lat="42.85439" lon="-0.45808">
        <ele>1436</ele>
        <time>2021-08-09 12:25:18</time>
      </trkpt>
      <trkpt lat="42.85439" lon="-0.4581">
        <ele>1436.2</ele>
        <time>2021-08-09 12:25:19</time>
      </trkpt>
      <trkpt lat="42.85439" lon="-0.45811">
        <ele>1436.4</ele>
        <time>2021-08-09 12:25:20</time>
      </trkpt>
      <trkpt lat="42.85438" lon="-0.45812">
        <ele>1436.4</ele>
        <time>2021-08-09 12:25:21</time>
      </trkpt>
      <trkpt lat="42.85437" lon="-0.45812">
        <ele>1436.2</ele>
        <time>2021-08-09 12:25:22</time>
      </trkpt>
      <trkpt lat="42.85436" lon="-0.45813">
        <ele>1436</ele>
        <time>2021-08-09 12:25:24</time>
      </trkpt>
      <trkpt lat="42.85436" lon="-0.45814">
        <ele>1436</ele>
        <time>2021-08-09 12:25:25</time>
      </trkpt>
      <trkpt lat="42.85436" lon="-0.45816">
        <ele>1436</ele>
        <time>2021-08-09 12:25:26</time>
      </trkpt>
      <trkpt lat="42.85436" lon="-0.45817">
        <ele>1436.2</ele>
        <time>2021-08-09 12:25:27</time>
      </trkpt>
      <trkpt lat="42.85436" lon="-0.45818">
        <ele>1436</ele>
        <time>2021-08-09 12:25:28</time>
      </trkpt>
      <trkpt lat="42.85435" lon="-0.45819">
        <ele>1436</ele>
        <time>2021-08-09 12:25:29</time>
      </trkpt>
      <trkpt lat="42.85436" lon="-0.45821">
        <ele>1436</ele>
        <time>2021-08-09 12:25:30</time>
      </trkpt>
      <trkpt lat="42.85435" lon="-0.45823">
        <ele>1436</ele>
        <time>2021-08-09 12:25:31</time>
      </trkpt>
      <trkpt lat="42.85435" lon="-0.45825">
        <ele>1436.2</ele>
        <time>2021-08-09 12:25:32</time>
      </trkpt>
      <trkpt lat="42.85434" lon="-0.45826">
        <ele>1436.4</ele>
        <time>2021-08-09 12:25:33</time>
      </trkpt>
      <trkpt lat="42.85434" lon="-0.45827">
        <ele>1436.6</ele>
        <time>2021-08-09 12:25:34</time>
      </trkpt>
      <trkpt lat="42.85434" lon="-0.45828">
        <ele>1436.6</ele>
        <time>2021-08-09 12:25:35</time>
      </trkpt>
      <trkpt lat="42.85434" lon="-0.4583">
        <ele>1437</ele>
        <time>2021-08-09 12:25:36</time>
      </trkpt>
      <trkpt lat="42.85434" lon="-0.45832">
        <ele>1437.2</ele>
        <time>2021-08-09 12:25:37</time>
      </trkpt>
      <trkpt lat="42.85433" lon="-0.45833">
        <ele>1437.6</ele>
        <time>2021-08-09 12:25:38</time>
      </trkpt>
      <trkpt lat="42.85433" lon="-0.45834">
        <ele>1437.6</ele>
        <time>2021-08-09 12:25:39</time>
      </trkpt>
      <trkpt lat="42.85431" lon="-0.45835">
        <ele>1437.6</ele>
        <time>2021-08-09 12:25:40</time>
      </trkpt>
      <trkpt lat="42.8543" lon="-0.45834">
        <ele>1437.6</ele>
        <time>2021-08-09 12:25:41</time>
      </trkpt>
      <trkpt lat="42.8543" lon="-0.45834">
        <ele>1437.6</ele>
        <time>2021-08-09 12:25:42</time>
      </trkpt>
      <trkpt lat="42.85431" lon="-0.45835">
        <ele>1437.8</ele>
        <time>2021-08-09 12:25:43</time>
      </trkpt>
      <trkpt lat="42.85431" lon="-0.45837">
        <ele>1437.8</ele>
        <time>2021-08-09 12:25:44</time>
      </trkpt>
      <trkpt lat="42.8543" lon="-0.45838">
        <ele>1437.4</ele>
        <time>2021-08-09 12:25:45</time>
      </trkpt>
      <trkpt lat="42.8543" lon="-0.45839">
        <ele>1438</ele>
        <time>2021-08-09 12:25:46</time>
      </trkpt>
      <trkpt lat="42.85429" lon="-0.4584">
        <ele>1438.2</ele>
        <time>2021-08-09 12:25:47</time>
      </trkpt>
      <trkpt lat="42.85429" lon="-0.45842">
        <ele>1438.8</ele>
        <time>2021-08-09 12:25:48</time>
      </trkpt>
      <trkpt lat="42.85428" lon="-0.45843">
        <ele>1439.4</ele>
        <time>2021-08-09 12:25:49</time>
      </trkpt>
      <trkpt lat="42.85428" lon="-0.45845">
        <ele>1439.6</ele>
        <time>2021-08-09 12:25:50</time>
      </trkpt>
      <trkpt lat="42.85428" lon="-0.45846">
        <ele>1439.6</ele>
        <time>2021-08-09 12:25:51</time>
      </trkpt>
      <trkpt lat="42.85428" lon="-0.45848">
        <ele>1439.2</ele>
        <time>2021-08-09 12:25:52</time>
      </trkpt>
      <trkpt lat="42.85428" lon="-0.45849">
        <ele>1439</ele>
        <time>2021-08-09 12:25:53</time>
      </trkpt>
      <trkpt lat="42.85428" lon="-0.4585">
        <ele>1439.4</ele>
        <time>2021-08-09 12:25:54</time>
      </trkpt>
      <trkpt lat="42.85428" lon="-0.4585">
        <ele>1440</ele>
        <time>2021-08-09 12:25:55</time>
      </trkpt>
      <trkpt lat="42.85428" lon="-0.45852">
        <ele>1440.2</ele>
        <time>2021-08-09 12:25:56</time>
      </trkpt>
      <trkpt lat="42.85428" lon="-0.45854">
        <ele>1440.2</ele>
        <time>2021-08-09 12:25:57</time>
      </trkpt>
      <trkpt lat="42.85429" lon="-0.45857">
        <ele>1440.4</ele>
        <time>2021-08-09 12:25:58</time>
      </trkpt>
      <trkpt lat="42.85428" lon="-0.45858">
        <ele>1440.4</ele>
        <time>2021-08-09 12:25:59</time>
      </trkpt>
      <trkpt lat="42.85428" lon="-0.45859">
        <ele>1440.6</ele>
        <time>2021-08-09 12:26:00</time>
      </trkpt>
      <trkpt lat="42.85429" lon="-0.4586">
        <ele>1440.8</ele>
        <time>2021-08-09 12:26:01</time>
      </trkpt>
      <trkpt lat="42.85429" lon="-0.45862">
        <ele>1441</ele>
        <time>2021-08-09 12:26:02</time>
      </trkpt>
      <trkpt lat="42.85428" lon="-0.45863">
        <ele>1441</ele>
        <time>2021-08-09 12:26:03</time>
      </trkpt>
      <trkpt lat="42.85428" lon="-0.45865">
        <ele>1441.4</ele>
        <time>2021-08-09 12:26:04</time>
      </trkpt>
      <trkpt lat="42.85427" lon="-0.45866">
        <ele>1441.6</ele>
        <time>2021-08-09 12:26:05</time>
      </trkpt>
      <trkpt lat="42.85426" lon="-0.45868">
        <ele>1442.2</ele>
        <time>2021-08-09 12:26:06</time>
      </trkpt>
      <trkpt lat="42.85426" lon="-0.45871">
        <ele>1442.2</ele>
        <time>2021-08-09 12:26:07</time>
      </trkpt>
      <trkpt lat="42.85425" lon="-0.45872">
        <ele>1442.2</ele>
        <time>2021-08-09 12:26:08</time>
      </trkpt>
      <trkpt lat="42.85424" lon="-0.45873">
        <ele>1443</ele>
        <time>2021-08-09 12:26:09</time>
      </trkpt>
      <trkpt lat="42.85424" lon="-0.45874">
        <ele>1443.2</ele>
        <time>2021-08-09 12:26:10</time>
      </trkpt>
      <trkpt lat="42.85423" lon="-0.45875">
        <ele>1443.4</ele>
        <time>2021-08-09 12:26:11</time>
      </trkpt>
      <trkpt lat="42.85422" lon="-0.45877">
        <ele>1443.6</ele>
        <time>2021-08-09 12:26:12</time>
      </trkpt>
      <trkpt lat="42.85422" lon="-0.45878">
        <ele>1443.6</ele>
        <time>2021-08-09 12:26:13</time>
      </trkpt>
      <trkpt lat="42.85422" lon="-0.4588">
        <ele>1443.4</ele>
        <time>2021-08-09 12:26:14</time>
      </trkpt>
      <trkpt lat="42.85422" lon="-0.45881">
        <ele>1443.2</ele>
        <time>2021-08-09 12:26:15</time>
      </trkpt>
      <trkpt lat="42.85422" lon="-0.45882">
        <ele>1443</ele>
        <time>2021-08-09 12:26:16</time>
      </trkpt>
      <trkpt lat="42.85422" lon="-0.45883">
        <ele>1442.6</ele>
        <time>2021-08-09 12:26:17</time>
      </trkpt>
      <trkpt lat="42.85421" lon="-0.45884">
        <ele>1443.2</ele>
        <time>2021-08-09 12:26:18</time>
      </trkpt>
      <trkpt lat="42.8542" lon="-0.45885">
        <ele>1443.2</ele>
        <time>2021-08-09 12:26:19</time>
      </trkpt>
      <trkpt lat="42.8542" lon="-0.45885">
        <ele>1443.6</ele>
        <time>2021-08-09 12:26:20</time>
      </trkpt>
      <trkpt lat="42.85421" lon="-0.45885">
        <ele>1443.8</ele>
        <time>2021-08-09 12:26:21</time>
      </trkpt>
      <trkpt lat="42.8542" lon="-0.45885">
        <ele>1444.2</ele>
        <time>2021-08-09 12:26:22</time>
      </trkpt>
      <trkpt lat="42.8542" lon="-0.45886">
        <ele>1444.4</ele>
        <time>2021-08-09 12:26:23</time>
      </trkpt>
      <trkpt lat="42.8542" lon="-0.45887">
        <ele>1444.4</ele>
        <time>2021-08-09 12:26:24</time>
      </trkpt>
      <trkpt lat="42.8542" lon="-0.45887">
        <ele>1444.4</ele>
        <time>2021-08-09 12:26:25</time>
      </trkpt>
      <trkpt lat="42.8542" lon="-0.45887">
        <ele>1444.8</ele>
        <time>2021-08-09 12:26:26</time>
      </trkpt>
      <trkpt lat="42.8542" lon="-0.45888">
        <ele>1445</ele>
        <time>2021-08-09 12:26:27</time>
      </trkpt>
      <trkpt lat="42.85419" lon="-0.45888">
        <ele>1445.2</ele>
        <time>2021-08-09 12:26:28</time>
      </trkpt>
      <trkpt lat="42.85419" lon="-0.4589">
        <ele>1445.2</ele>
        <time>2021-08-09 12:26:29</time>
      </trkpt>
      <trkpt lat="42.85419" lon="-0.45891">
        <ele>1445</ele>
        <time>2021-08-09 12:26:30</time>
      </trkpt>
      <trkpt lat="42.85418" lon="-0.45894">
        <ele>1445.2</ele>
        <time>2021-08-09 12:26:31</time>
      </trkpt>
      <trkpt lat="42.85418" lon="-0.45895">
        <ele>1445</ele>
        <time>2021-08-09 12:26:32</time>
      </trkpt>
      <trkpt lat="42.85418" lon="-0.45895">
        <ele>1445</ele>
        <time>2021-08-09 12:26:33</time>
      </trkpt>
      <trkpt lat="42.85418" lon="-0.45896">
        <ele>1445</ele>
        <time>2021-08-09 12:26:34</time>
      </trkpt>
      <trkpt lat="42.85418" lon="-0.45898">
        <ele>1445</ele>
        <time>2021-08-09 12:26:35</time>
      </trkpt>
      <trkpt lat="42.85418" lon="-0.45899">
        <ele>1445.4</ele>
        <time>2021-08-09 12:26:36</time>
      </trkpt>
      <trkpt lat="42.85417" lon="-0.45898">
        <ele>1445.2</ele>
        <time>2021-08-09 12:26:37</time>
      </trkpt>
      <trkpt lat="42.85416" lon="-0.45898">
        <ele>1445.8</ele>
        <time>2021-08-09 12:26:38</time>
      </trkpt>
      <trkpt lat="42.85416" lon="-0.45899">
        <ele>1445.2</ele>
        <time>2021-08-09 12:26:39</time>
      </trkpt>
      <trkpt lat="42.85416" lon="-0.459">
        <ele>1446.2</ele>
        <time>2021-08-09 12:26:40</time>
      </trkpt>
      <trkpt lat="42.85417" lon="-0.459">
        <ele>1445.8</ele>
        <time>2021-08-09 12:26:41</time>
      </trkpt>
      <trkpt lat="42.85416" lon="-0.459">
        <ele>1445.8</ele>
        <time>2021-08-09 12:26:42</time>
      </trkpt>
      <trkpt lat="42.85416" lon="-0.45901">
        <ele>1445.2</ele>
        <time>2021-08-09 12:26:43</time>
      </trkpt>
      <trkpt lat="42.85417" lon="-0.45901">
        <ele>1445.2</ele>
        <time>2021-08-09 12:26:44</time>
      </trkpt>
      <trkpt lat="42.85416" lon="-0.459">
        <ele>1445</ele>
        <time>2021-08-09 12:26:45</time>
      </trkpt>
      <trkpt lat="42.85416" lon="-0.45901">
        <ele>1444.8</ele>
        <time>2021-08-09 12:26:46</time>
      </trkpt>
      <trkpt lat="42.85417" lon="-0.45903">
        <ele>1444.6</ele>
        <time>2021-08-09 12:26:47</time>
      </trkpt>
      <trkpt lat="42.85417" lon="-0.45904">
        <ele>1445</ele>
        <time>2021-08-09 12:26:48</time>
      </trkpt>
      <trkpt lat="42.85416" lon="-0.45904">
        <ele>1445.2</ele>
        <time>2021-08-09 12:26:49</time>
      </trkpt>
      <trkpt lat="42.85415" lon="-0.45906">
        <ele>1444.6</ele>
        <time>2021-08-09 12:26:50</time>
      </trkpt>
      <trkpt lat="42.85415" lon="-0.45908">
        <ele>1445.2</ele>
        <time>2021-08-09 12:26:51</time>
      </trkpt>
      <trkpt lat="42.85415" lon="-0.45909">
        <ele>1445.8</ele>
        <time>2021-08-09 12:26:52</time>
      </trkpt>
      <trkpt lat="42.85415" lon="-0.45912">
        <ele>1446</ele>
        <time>2021-08-09 12:26:53</time>
      </trkpt>
      <trkpt lat="42.85415" lon="-0.45913">
        <ele>1446</ele>
        <time>2021-08-09 12:26:54</time>
      </trkpt>
      <trkpt lat="42.85415" lon="-0.45916">
        <ele>1446.2</ele>
        <time>2021-08-09 12:26:55</time>
      </trkpt>
      <trkpt lat="42.85415" lon="-0.45918">
        <ele>1446</ele>
        <time>2021-08-09 12:26:56</time>
      </trkpt>
      <trkpt lat="42.85414" lon="-0.4592">
        <ele>1446.2</ele>
        <time>2021-08-09 12:26:57</time>
      </trkpt>
      <trkpt lat="42.85414" lon="-0.45921">
        <ele>1445.8</ele>
        <time>2021-08-09 12:26:58</time>
      </trkpt>
      <trkpt lat="42.85415" lon="-0.45924">
        <ele>1446.4</ele>
        <time>2021-08-09 12:26:59</time>
      </trkpt>
      <trkpt lat="42.85415" lon="-0.45924">
        <ele>1446.8</ele>
      </trkpt>
      <trkpt lat="42.85415" lon="-0.45926">
        <ele>1446.2</ele>
        <time>2021-08-09 12:27:01</time>
      </trkpt>
      <trkpt lat="42.85417" lon="-0.45934">
        <ele>1445.6</ele>
        <time>2021-08-09 12:27:02</time>
      </trkpt>
      <trkpt lat="42.85416" lon="-0.45936">
        <ele>1446</ele>
        <time>2021-08-09 12:27:03</time>
      </trkpt>
      <trkpt lat="42.85415" lon="-0.45938">
        <ele>1446.4</ele>
        <time>2021-08-09 12:27:04</time>
      </trkpt>
      <trkpt lat="42.85415" lon="-0.45939">
        <ele>1446.4</ele>
        <time>2021-08-09 12:27:05</time>
      </trkpt>
      <trkpt lat="42.85414" lon="-0.45943">
        <ele>1446.4</ele>
        <time>2021-08-09 12:27:06</time>
      </trkpt>
      <trkpt lat="42.85414" lon="-0.45943">
        <ele>1446.2</ele>
        <time>2021-08-09 12:27:07</time>
      </trkpt>
      <trkpt lat="42.85413" lon="-0.45944">
        <ele>1446.4</ele>
        <time>2021-08-09 12:27:08</time>
      </trkpt>
      <trkpt lat="42.85411" lon="-0.45947">
        <ele>1446.6</ele>
        <time>2021-08-09 12:27:09</time>
      </trkpt>
      <trkpt lat="42.8541" lon="-0.45948">
        <ele>1446.6</ele>
        <time>2021-08-09 12:27:10</time>
      </trkpt>
      <trkpt lat="42.85409" lon="-0.45949">
        <ele>1446.8</ele>
        <time>2021-08-09 12:27:11</time>
      </trkpt>
      <trkpt lat="42.85408" lon="-0.45951">
        <ele>1446.8</ele>
        <time>2021-08-09 12:27:12</time>
      </trkpt>
      <trkpt lat="42.85407" lon="-0.45952">
        <ele>1447</ele>
        <time>2021-08-09 12:27:13</time>
      </trkpt>
      <trkpt lat="42.85406" lon="-0.45953">
        <ele>1447</ele>
        <time>2021-08-09 12:27:14</time>
      </trkpt>
      <trkpt lat="42.85405" lon="-0.45954">
        <ele>1447.2</ele>
        <time>2021-08-09 12:27:15</time>
      </trkpt>
      <trkpt lat="42.85404" lon="-0.45955">
        <ele>1447.4</ele>
        <time>2021-08-09 12:27:16</time>
      </trkpt>
      <trkpt lat="42.85403" lon="-0.45956">
        <ele>1447.4</ele>
        <time>2021-08-09 12:27:17</time>
      </trkpt>
      <trkpt lat="42.85403" lon="-0.45957">
        <ele>1447.6</ele>
        <time>2021-08-09 12:27:18</time>
      </trkpt>
      <trkpt lat="42.85403" lon="-0.45957">
        <ele>1447.6</ele>
        <time>2021-08-09 12:27:19</time>
      </trkpt>
      <trkpt lat="42.85403" lon="-0.45958">
        <ele>1447.8</ele>
        <time>2021-08-09 12:27:20</time>
      </trkpt>
      <trkpt lat="42.85403" lon="-0.45958">
        <ele>1447.8</ele>
        <time>2021-08-09 12:27:21</time>
      </trkpt>
      <trkpt lat="42.85402" lon="-0.45958">
        <ele>1448.2</ele>
        <time>2021-08-09 12:27:22</time>
      </trkpt>
      <trkpt lat="42.85402" lon="-0.45959">
        <ele>1448.2</ele>
        <time>2021-08-09 12:27:23</time>
      </trkpt>
      <trkpt lat="42.85403" lon="-0.45959">
        <ele>1448.4</ele>
        <time>2021-08-09 12:27:24</time>
      </trkpt>
      <trkpt lat="42.85403" lon="-0.45961">
        <ele>1448.6</ele>
        <time>2021-08-09 12:27:25</time>
      </trkpt>
      <trkpt lat="42.85402" lon="-0.45963">
        <ele>1448.8</ele>
        <time>2021-08-09 12:27:26</time>
      </trkpt>
      <trkpt lat="42.85402" lon="-0.45964">
        <ele>1449</ele>
        <time>2021-08-09 12:27:27</time>
      </trkpt>
      <trkpt lat="42.85402" lon="-0.45966">
        <ele>1449.2</ele>
        <time>2021-08-09 12:27:28</time>
      </trkpt>
      <trkpt lat="42.85401" lon="-0.45968">
        <ele>1449.4</ele>
        <time>2021-08-09 12:27:29</time>
      </trkpt>
      <trkpt lat="42.854" lon="-0.45968">
        <ele>1449.4</ele>
        <time>2021-08-09 12:27:30</time>
      </trkpt>
      <trkpt lat="42.854" lon="-0.45969">
        <ele>1449.6</ele>
        <time>2021-08-09 12:27:31</time>
      </trkpt>
      <trkpt lat="42.854" lon="-0.4597">
        <ele>1450</ele>
        <time>2021-08-09 12:27:32</time>
      </trkpt>
      <trkpt lat="42.854" lon="-0.45972">
        <ele>1450.2</ele>
      </trkpt>
      <trkpt lat="42.854" lon="-0.45973">
        <ele>1450.4</ele>
        <time>2021-08-09 12:27:33</time>
      </trkpt>
      <trkpt lat="42.85399" lon="-0.45974">
        <ele>1450.6</ele>
        <time>2021-08-09 12:27:34</time>
      </trkpt>
      <trkpt lat="42.85398" lon="-0.45974">
        <ele>1450.6</ele>
        <time>2021-08-09 12:27:35</time>
      </trkpt>
      <trkpt lat="42.85399" lon="-0.45975">
        <ele>1450.8</ele>
        <time>2021-08-09 12:27:36</time>
      </trkpt>
      <trkpt lat="42.85398" lon="-0.45976">
        <ele>1450.8</ele>
        <time>2021-08-09 12:27:37</time>
      </trkpt>
      <trkpt lat="42.85398" lon="-0.45977">
        <ele>1451</ele>
        <time>2021-08-09 12:27:39</time>
      </trkpt>
      <trkpt lat="42.85397" lon="-0.45977">
        <ele>1451.6</ele>
      </trkpt>
      <trkpt lat="42.85396" lon="-0.45978">
        <ele>1451.8</ele>
        <time>2021-08-09 12:27:40</time>
      </trkpt>
      <trkpt lat="42.85396" lon="-0.45978">
        <ele>1451.8</ele>
        <time>2021-08-09 12:27:41</time>
      </trkpt>
      <trkpt lat="42.85396" lon="-0.45979">
        <ele>1452</ele>
        <time>2021-08-09 12:27:42</time>
      </trkpt>
      <trkpt lat="42.85396" lon="-0.45979">
        <ele>1452</ele>
        <time>2021-08-09 12:27:43</time>
      </trkpt>
      <trkpt lat="42.85395" lon="-0.45978">
        <ele>1452.2</ele>
        <time>2021-08-09 12:27:44</time>
      </trkpt>
      <trkpt lat="42.85396" lon="-0.4598">
        <ele>1452.6</ele>
        <time>2021-08-09 12:27:45</time>
      </trkpt>
      <trkpt lat="42.85396" lon="-0.45981">
        <ele>1453</ele>
        <time>2021-08-09 12:27:46</time>
      </trkpt>
      <trkpt lat="42.85395" lon="-0.45982">
        <ele>1453.4</ele>
        <time>2021-08-09 12:27:47</time>
      </trkpt>
      <trkpt lat="42.85395" lon="-0.45982">
        <ele>1453.6</ele>
        <time>2021-08-09 12:27:48</time>
      </trkpt>
      <trkpt lat="42.85393" lon="-0.45982">
        <ele>1453.8</ele>
        <time>2021-08-09 12:27:49</time>
      </trkpt>
      <trkpt lat="42.85394" lon="-0.45983">
        <ele>1454.2</ele>
        <time>2021-08-09 12:27:50</time>
      </trkpt>
      <trkpt lat="42.85394" lon="-0.45983">
        <ele>1454.4</ele>
        <time>2021-08-09 12:27:51</time>
      </trkpt>
      <trkpt lat="42.85393" lon="-0.45985">
        <ele>1454.4</ele>
        <time>2021-08-09 12:27:52</time>
      </trkpt>
      <trkpt lat="42.85394" lon="-0.45986">
        <ele>1454.6</ele>
        <time>2021-08-09 12:27:53</time>
      </trkpt>
      <trkpt lat="42.85394" lon="-0.45988">
        <ele>1455</ele>
        <time>2021-08-09 12:27:54</time>
      </trkpt>
      <trkpt lat="42.85394" lon="-0.45988">
        <ele>1455</ele>
        <time>2021-08-09 12:27:55</time>
      </trkpt>
      <trkpt lat="42.85393" lon="-0.4599">
        <ele>1455.4</ele>
        <time>2021-08-09 12:27:56</time>
      </trkpt>
      <trkpt lat="42.85393" lon="-0.45991">
        <ele>1455.6</ele>
        <time>2021-08-09 12:27:57</time>
      </trkpt>
      <trkpt lat="42.85393" lon="-0.45993">
        <ele>1455.8</ele>
        <time>2021-08-09 12:27:59</time>
      </trkpt>
      <trkpt lat="42.85394" lon="-0.45994">
        <ele>1456</ele>
      </trkpt>
      <trkpt lat="42.85394" lon="-0.45996">
        <ele>1456.4</ele>
        <time>2021-08-09 12:28:00</time>
      </trkpt>
      <trkpt lat="42.85394" lon="-0.45997">
        <ele>1456.8</ele>
        <time>2021-08-09 12:28:01</time>
      </trkpt>
      <trkpt lat="42.85394" lon="-0.45998">
        <ele>1456.8</ele>
        <time>2021-08-09 12:28:02</time>
      </trkpt>
      <trkpt lat="42.85394" lon="-0.45999">
        <ele>1457</ele>
        <time>2021-08-09 12:28:03</time>
      </trkpt>
      <trkpt lat="42.85395" lon="-0.46">
        <ele>1457.2</ele>
        <time>2021-08-09 12:28:04</time>
      </trkpt>
      <trkpt lat="42.85395" lon="-0.46">
        <ele>1457.2</ele>
        <time>2021-08-09 12:28:05</time>
      </trkpt>
      <trkpt lat="42.85395" lon="-0.46001">
        <ele>1457.8</ele>
        <time>2021-08-09 12:28:06</time>
      </trkpt>
      <trkpt lat="42.85394" lon="-0.46002">
        <ele>1458</ele>
        <time>2021-08-09 12:28:07</time>
      </trkpt>
      <trkpt lat="42.85394" lon="-0.46003">
        <ele>1458.2</ele>
        <time>2021-08-09 12:28:08</time>
      </trkpt>
      <trkpt lat="42.85394" lon="-0.46005">
        <ele>1458.6</ele>
        <time>2021-08-09 12:28:09</time>
      </trkpt>
      <trkpt lat="42.85394" lon="-0.46007">
        <ele>1459.2</ele>
        <time>2021-08-09 12:28:10</time>
      </trkpt>
      <trkpt lat="42.85394" lon="-0.46007">
        <ele>1458.6</ele>
        <time>2021-08-09 12:28:11</time>
      </trkpt>
      <trkpt lat="42.85393" lon="-0.46008">
        <ele>1459</ele>
        <time>2021-08-09 12:28:12</time>
      </trkpt>
      <trkpt lat="42.85393" lon="-0.46009">
        <ele>1459</ele>
        <time>2021-08-09 12:28:13</time>
      </trkpt>
      <trkpt lat="42.85393" lon="-0.46011">
        <ele>1459.4</ele>
        <time>2021-08-09 12:28:14</time>
      </trkpt>
      <trkpt lat="42.85393" lon="-0.46012">
        <ele>1459.8</ele>
        <time>2021-08-09 12:28:15</time>
      </trkpt>
      <trkpt lat="42.85393" lon="-0.46013">
        <ele>1459.6</ele>
        <time>2021-08-09 12:28:16</time>
      </trkpt>
      <trkpt lat="42.85393" lon="-0.46013">
        <ele>1459.6</ele>
        <time>2021-08-09 12:28:18</time>
      </trkpt>
      <trkpt lat="42.85392" lon="-0.46014">
        <ele>1459.6</ele>
        <time>2021-08-09 12:28:19</time>
      </trkpt>
      <trkpt lat="42.85392" lon="-0.46015">
        <ele>1460</ele>
        <time>2021-08-09 12:28:20</time>
      </trkpt>
      <trkpt lat="42.85392" lon="-0.46015">
        <ele>1460.2</ele>
        <time>2021-08-09 12:28:21</time>
      </trkpt>
      <trkpt lat="42.85392" lon="-0.46016">
        <ele>1460.2</ele>
        <time>2021-08-09 12:28:22</time>
      </trkpt>
      <trkpt lat="42.85392" lon="-0.46018">
        <ele>1460.6</ele>
        <time>2021-08-09 12:28:23</time>
      </trkpt>
      <trkpt lat="42.85392" lon="-0.46018">
        <ele>1460.6</ele>
        <time>2021-08-09 12:28:24</time>
      </trkpt>
      <trkpt lat="42.85392" lon="-0.46018">
        <ele>1461</ele>
        <time>2021-08-09 12:28:26</time>
      </trkpt>
      <trkpt lat="42.85392" lon="-0.46019">
        <ele>1460.6</ele>
        <time>2021-08-09 12:28:27</time>
      </trkpt>
      <trkpt lat="42.85391" lon="-0.46019">
        <ele>1461</ele>
        <time>2021-08-09 12:28:28</time>
      </trkpt>
      <trkpt lat="42.85392" lon="-0.4602">
        <ele>1461.2</ele>
        <time>2021-08-09 12:28:29</time>
      </trkpt>
      <trkpt lat="42.85393" lon="-0.46021">
        <ele>1461.4</ele>
        <time>2021-08-09 12:28:30</time>
      </trkpt>
      <trkpt lat="42.85392" lon="-0.46022">
        <ele>1461.4</ele>
        <time>2021-08-09 12:28:31</time>
      </trkpt>
      <trkpt lat="42.85392" lon="-0.46023">
        <ele>1461.4</ele>
        <time>2021-08-09 12:28:32</time>
      </trkpt>
      <trkpt lat="42.85392" lon="-0.46024">
        <ele>1461.4</ele>
        <time>2021-08-09 12:28:33</time>
      </trkpt>
      <trkpt lat="42.85392" lon="-0.46024">
        <ele>1461.4</ele>
        <time>2021-08-09 12:28:34</time>
      </trkpt>
      <trkpt lat="42.85392" lon="-0.46024">
        <ele>1461.2</ele>
        <time>2021-08-09 12:28:35</time>
      </trkpt>
      <trkpt lat="42.85392" lon="-0.46025">
        <ele>1461.8</ele>
        <time>2021-08-09 12:28:36</time>
      </trkpt>
      <trkpt lat="42.85392" lon="-0.46026">
        <ele>1462</ele>
        <time>2021-08-09 12:28:37</time>
      </trkpt>
      <trkpt lat="42.85391" lon="-0.46027">
        <ele>1462</ele>
        <time>2021-08-09 12:28:38</time>
      </trkpt>
      <trkpt lat="42.85391" lon="-0.46028">
        <ele>1462</ele>
        <time>2021-08-09 12:28:39</time>
      </trkpt>
      <trkpt lat="42.85391" lon="-0.46028">
        <ele>1462.2</ele>
        <time>2021-08-09 12:28:40</time>
      </trkpt>
      <trkpt lat="42.85391" lon="-0.46029">
        <ele>1462.6</ele>
        <time>2021-08-09 12:28:41</time>
      </trkpt>
      <trkpt lat="42.8539" lon="-0.4603">
        <ele>1462.6</ele>
        <time>2021-08-09 12:28:42</time>
      </trkpt>
      <trkpt lat="42.8539" lon="-0.46031">
        <ele>1462.8</ele>
        <time>2021-08-09 12:28:43</time>
      </trkpt>
      <trkpt lat="42.8539" lon="-0.46032">
        <ele>1462.6</ele>
        <time>2021-08-09 12:28:44</time>
      </trkpt>
      <trkpt lat="42.8539" lon="-0.46033">
        <ele>1463.2</ele>
        <time>2021-08-09 12:28:45</time>
      </trkpt>
      <trkpt lat="42.8539" lon="-0.46033">
        <ele>1463.2</ele>
        <time>2021-08-09 12:28:46</time>
      </trkpt>
      <trkpt lat="42.8539" lon="-0.46034">
        <ele>1463.4</ele>
        <time>2021-08-09 12:28:47</time>
      </trkpt>
      <trkpt lat="42.85391" lon="-0.46035">
        <ele>1463.6</ele>
        <time>2021-08-09 12:28:48</time>
      </trkpt>
      <trkpt lat="42.85391" lon="-0.46037">
        <ele>1463.8</ele>
        <time>2021-08-09 12:28:49</time>
      </trkpt>
      <trkpt lat="42.85391" lon="-0.46038">
        <ele>1464.2</ele>
        <time>2021-08-09 12:28:50</time>
      </trkpt>
      <trkpt lat="42.85392" lon="-0.46041">
        <ele>1464.4</ele>
        <time>2021-08-09 12:28:51</time>
      </trkpt>
      <trkpt lat="42.85392" lon="-0.46043">
        <ele>1464.2</ele>
        <time>2021-08-09 12:28:52</time>
      </trkpt>
      <trkpt lat="42.85392" lon="-0.46044">
        <ele>1464</ele>
        <time>2021-08-09 12:28:53</time>
      </trkpt>
      <trkpt lat="42.85393" lon="-0.46045">
        <ele>1464</ele>
        <time>2021-08-09 12:28:54</time>
      </trkpt>
      <trkpt lat="42.85393" lon="-0.46046">
        <ele>1464.4</ele>
        <time>2021-08-09 12:28:55</time>
      </trkpt>
      <trkpt lat="42.85393" lon="-0.46048">
        <ele>1464.6</ele>
        <time>2021-08-09 12:28:56</time>
      </trkpt>
      <trkpt lat="42.85393" lon="-0.46047">
        <ele>1465.2</ele>
        <time>2021-08-09 12:28:57</time>
      </trkpt>
      <trkpt lat="42.85392" lon="-0.46048">
        <ele>1465</ele>
        <time>2021-08-09 12:28:58</time>
      </trkpt>
      <trkpt lat="42.85393" lon="-0.46049">
        <ele>1465</ele>
        <time>2021-08-09 12:28:59</time>
      </trkpt>
      <trkpt lat="42.85392" lon="-0.46051">
        <ele>1465.2</ele>
        <time>2021-08-09 12:29:00</time>
      </trkpt>
      <trkpt lat="42.85392" lon="-0.46052">
        <ele>1465.4</ele>
        <time>2021-08-09 12:29:01</time>
      </trkpt>
      <trkpt lat="42.85392" lon="-0.46053">
        <ele>1465.4</ele>
        <time>2021-08-09 12:29:02</time>
      </trkpt>
      <trkpt lat="42.85391" lon="-0.46055">
        <ele>1465.6</ele>
        <time>2021-08-09 12:29:03</time>
      </trkpt>
      <trkpt lat="42.8539" lon="-0.46054">
        <ele>1465.8</ele>
        <time>2021-08-09 12:29:04</time>
      </trkpt>
      <trkpt lat="42.8539" lon="-0.46055">
        <ele>1465.8</ele>
        <time>2021-08-09 12:29:05</time>
      </trkpt>
      <trkpt lat="42.8539" lon="-0.46055">
        <ele>1466</ele>
        <time>2021-08-09 12:29:06</time>
      </trkpt>
      <trkpt lat="42.8539" lon="-0.46057">
        <ele>1466.2</ele>
        <time>2021-08-09 12:29:07</time>
      </trkpt>
      <trkpt lat="42.8539" lon="-0.46058">
        <ele>1466.4</ele>
        <time>2021-08-09 12:29:09</time>
      </trkpt>
      <trkpt lat="42.8539" lon="-0.46059">
        <ele>1466.6</ele>
        <time>2021-08-09 12:29:10</time>
      </trkpt>
      <trkpt lat="42.8539" lon="-0.4606">
        <ele>1466.8</ele>
        <time>2021-08-09 12:29:11</time>
      </trkpt>
      <trkpt lat="42.8539" lon="-0.46061">
        <ele>1467</ele>
        <time>2021-08-09 12:29:12</time>
      </trkpt>
      <trkpt lat="42.8539" lon="-0.46061">
        <ele>1467.2</ele>
        <time>2021-08-09 12:29:13</time>
      </trkpt>
      <trkpt lat="42.8539" lon="-0.46062">
        <ele>1467.4</ele>
        <time>2021-08-09 12:29:14</time>
      </trkpt>
      <trkpt lat="42.8539" lon="-0.46063">
        <ele>1467.6</ele>
        <time>2021-08-09 12:29:15</time>
      </trkpt>
      <trkpt lat="42.85391" lon="-0.46065">
        <ele>1467.8</ele>
        <time>2021-08-09 12:29:16</time>
      </trkpt>
      <trkpt lat="42.85391" lon="-0.46065">
        <ele>1468</ele>
        <time>2021-08-09 12:29:17</time>
      </trkpt>
      <trkpt lat="42.85392" lon="-0.46068">
        <ele>1468</ele>
        <time>2021-08-09 12:29:18</time>
      </trkpt>
      <trkpt lat="42.85392" lon="-0.46069">
        <ele>1468.2</ele>
        <time>2021-08-09 12:29:19</time>
      </trkpt>
      <trkpt lat="42.85393" lon="-0.4607">
        <ele>1468.4</ele>
        <time>2021-08-09 12:29:20</time>
      </trkpt>
      <trkpt lat="42.85393" lon="-0.46072">
        <ele>1468.6</ele>
        <time>2021-08-09 12:29:21</time>
      </trkpt>
      <trkpt lat="42.85393" lon="-0.46074">
        <ele>1468.6</ele>
        <time>2021-08-09 12:29:22</time>
      </trkpt>
      <trkpt lat="42.85392" lon="-0.46074">
        <ele>1468.8</ele>
        <time>2021-08-09 12:29:23</time>
      </trkpt>
      <trkpt lat="42.85393" lon="-0.46075">
        <ele>1468.6</ele>
        <time>2021-08-09 12:29:24</time>
      </trkpt>
      <trkpt lat="42.85393" lon="-0.46077">
        <ele>1468.8</ele>
        <time>2021-08-09 12:29:25</time>
      </trkpt>
      <trkpt lat="42.85393" lon="-0.46078">
        <ele>1469</ele>
        <time>2021-08-09 12:29:26</time>
      </trkpt>
      <trkpt lat="42.85392" lon="-0.4608">
        <ele>1469</ele>
        <time>2021-08-09 12:29:27</time>
      </trkpt>
      <trkpt lat="42.85392" lon="-0.46081">
        <ele>1469.2</ele>
        <time>2021-08-09 12:29:28</time>
      </trkpt>
      <trkpt lat="42.85392" lon="-0.46082">
        <ele>1469.4</ele>
        <time>2021-08-09 12:29:29</time>
      </trkpt>
      <trkpt lat="42.85392" lon="-0.46083">
        <ele>1469.6</ele>
        <time>2021-08-09 12:29:30</time>
      </trkpt>
      <trkpt lat="42.85392" lon="-0.46084">
        <ele>1470</ele>
        <time>2021-08-09 12:29:31</time>
      </trkpt>
      <trkpt lat="42.85392" lon="-0.46085">
        <ele>1470.4</ele>
        <time>2021-08-09 12:29:32</time>
      </trkpt>
      <trkpt lat="42.85391" lon="-0.46087">
        <ele>1469.8</ele>
        <time>2021-08-09 12:29:33</time>
      </trkpt>
      <trkpt lat="42.85391" lon="-0.46088">
        <ele>1470.2</ele>
        <time>2021-08-09 12:29:34</time>
      </trkpt>
      <trkpt lat="42.8539" lon="-0.46089">
        <ele>1470.2</ele>
        <time>2021-08-09 12:29:35</time>
      </trkpt>
      <trkpt lat="42.8539" lon="-0.4609">
        <ele>1470.6</ele>
        <time>2021-08-09 12:29:36</time>
      </trkpt>
      <trkpt lat="42.85391" lon="-0.46092">
        <ele>1470.2</ele>
        <time>2021-08-09 12:29:37</time>
      </trkpt>
      <trkpt lat="42.8539" lon="-0.46093">
        <ele>1470.6</ele>
        <time>2021-08-09 12:29:38</time>
      </trkpt>
      <trkpt lat="42.8539" lon="-0.46094">
        <ele>1470.8</ele>
        <time>2021-08-09 12:29:39</time>
      </trkpt>
      <trkpt lat="42.85391" lon="-0.46096">
        <ele>1471</ele>
        <time>2021-08-09 12:29:40</time>
      </trkpt>
      <trkpt lat="42.8539" lon="-0.46098">
        <ele>1471</ele>
        <time>2021-08-09 12:29:41</time>
      </trkpt>
      <trkpt lat="42.8539" lon="-0.46098">
        <ele>1471</ele>
        <time>2021-08-09 12:29:42</time>
      </trkpt>
      <trkpt lat="42.8539" lon="-0.46099">
        <ele>1471.4</ele>
        <time>2021-08-09 12:29:43</time>
      </trkpt>
      <trkpt lat="42.8539" lon="-0.46101">
        <ele>1471.6</ele>
        <time>2021-08-09 12:29:44</time>
      </trkpt>
      <trkpt lat="42.8539" lon="-0.46103">
        <ele>1471.8</ele>
        <time>2021-08-09 12:29:45</time>
      </trkpt>
      <trkpt lat="42.8539" lon="-0.46104">
        <ele>1471.6</ele>
        <time>2021-08-09 12:29:46</time>
      </trkpt>
      <trkpt lat="42.8539" lon="-0.46106">
        <ele>1471.8</ele>
        <time>2021-08-09 12:29:47</time>
      </trkpt>
      <trkpt lat="42.8539" lon="-0.46108">
        <ele>1471.8</ele>
        <time>2021-08-09 12:29:48</time>
      </trkpt>
      <trkpt lat="42.85389" lon="-0.46108">
        <ele>1471.6</ele>
        <time>2021-08-09 12:29:49</time>
      </trkpt>
      <trkpt lat="42.85389" lon="-0.46109">
        <ele>1472</ele>
        <time>2021-08-09 12:29:50</time>
      </trkpt>
      <trkpt lat="42.85389" lon="-0.4611">
        <ele>1471.8</ele>
        <time>2021-08-09 12:29:51</time>
      </trkpt>
      <trkpt lat="42.8539" lon="-0.46111">
        <ele>1472</ele>
        <time>2021-08-09 12:29:52</time>
      </trkpt>
      <trkpt lat="42.85389" lon="-0.46111">
        <ele>1472.2</ele>
        <time>2021-08-09 12:29:53</time>
      </trkpt>
      <trkpt lat="42.85389" lon="-0.46112">
        <ele>1472.4</ele>
        <time>2021-08-09 12:29:54</time>
      </trkpt>
      <trkpt lat="42.85389" lon="-0.46112">
        <ele>1472.6</ele>
        <time>2021-08-09 12:29:55</time>
      </trkpt>
      <trkpt lat="42.85389" lon="-0.46114">
        <ele>1472.8</ele>
        <time>2021-08-09 12:29:56</time>
      </trkpt>
      <trkpt lat="42.85388" lon="-0.46115">
        <ele>1472.8</ele>
        <time>2021-08-09 12:29:57</time>
      </trkpt>
      <trkpt lat="42.85389" lon="-0.46117">
        <ele>1473</ele>
        <time>2021-08-09 12:29:58</time>
      </trkpt>
      <trkpt lat="42.85389" lon="-0.46117">
        <ele>1473.2</ele>
        <time>2021-08-09 12:29:59</time>
      </trkpt>
      <trkpt lat="42.8539" lon="-0.46118">
        <ele>1473.2</ele>
        <time>2021-08-09 12:30:00</time>
      </trkpt>
      <trkpt lat="42.8539" lon="-0.4612">
        <ele>1473.2</ele>
        <time>2021-08-09 12:30:01</time>
      </trkpt>
      <trkpt lat="42.8539" lon="-0.46122">
        <ele>1473.6</ele>
        <time>2021-08-09 12:30:02</time>
      </trkpt>
      <trkpt lat="42.85389" lon="-0.46123">
        <ele>1473.6</ele>
        <time>2021-08-09 12:30:03</time>
      </trkpt>
      <trkpt lat="42.8539" lon="-0.46124">
        <ele>1473.8</ele>
        <time>2021-08-09 12:30:04</time>
      </trkpt>
      <trkpt lat="42.8539" lon="-0.46125">
        <ele>1474</ele>
        <time>2021-08-09 12:30:05</time>
      </trkpt>
      <trkpt lat="42.8539" lon="-0.46126">
        <ele>1474</ele>
        <time>2021-08-09 12:30:06</time>
      </trkpt>
      <trkpt lat="42.8539" lon="-0.46127">
        <ele>1474.4</ele>
        <time>2021-08-09 12:30:07</time>
      </trkpt>
      <trkpt lat="42.8539" lon="-0.46129">
        <ele>1474.4</ele>
        <time>2021-08-09 12:30:08</time>
      </trkpt>
      <trkpt lat="42.8539" lon="-0.4613">
        <ele>1474.8</ele>
        <time>2021-08-09 12:30:09</time>
      </trkpt>
      <trkpt lat="42.8539" lon="-0.46132">
        <ele>1474.6</ele>
        <time>2021-08-09 12:30:10</time>
      </trkpt>
      <trkpt lat="42.8539" lon="-0.46134">
        <ele>1475</ele>
        <time>2021-08-09 12:30:11</time>
      </trkpt>
      <trkpt lat="42.85391" lon="-0.46136">
        <ele>1475.2</ele>
        <time>2021-08-09 12:30:12</time>
      </trkpt>
      <trkpt lat="42.8539" lon="-0.46137">
        <ele>1475.4</ele>
        <time>2021-08-09 12:30:13</time>
      </trkpt>
      <trkpt lat="42.85389" lon="-0.46137">
        <ele>1475.2</ele>
        <time>2021-08-09 12:30:14</time>
      </trkpt>
      <trkpt lat="42.85389" lon="-0.46139">
        <ele>1475.8</ele>
        <time>2021-08-09 12:30:15</time>
      </trkpt>
      <trkpt lat="42.85388" lon="-0.46139">
        <ele>1475.8</ele>
        <time>2021-08-09 12:30:16</time>
      </trkpt>
      <trkpt lat="42.85389" lon="-0.46141">
        <ele>1476</ele>
        <time>2021-08-09 12:30:17</time>
      </trkpt>
      <trkpt lat="42.85388" lon="-0.46142">
        <ele>1476</ele>
        <time>2021-08-09 12:30:18</time>
      </trkpt>
      <trkpt lat="42.85388" lon="-0.46143">
        <ele>1476.2</ele>
        <time>2021-08-09 12:30:19</time>
      </trkpt>
      <trkpt lat="42.85388" lon="-0.46145">
        <ele>1476.2</ele>
        <time>2021-08-09 12:30:20</time>
      </trkpt>
      <trkpt lat="42.85387" lon="-0.46146">
        <ele>1476.4</ele>
        <time>2021-08-09 12:30:21</time>
      </trkpt>
      <trkpt lat="42.85387" lon="-0.46147">
        <ele>1476.6</ele>
        <time>2021-08-09 12:30:22</time>
      </trkpt>
      <trkpt lat="42.85387" lon="-0.46148">
        <ele>1476.8</ele>
        <time>2021-08-09 12:30:23</time>
      </trkpt>
      <trkpt lat="42.85386" lon="-0.46149">
        <ele>1476.8</ele>
        <time>2021-08-09 12:30:24</time>
      </trkpt>
      <trkpt lat="42.85387" lon="-0.4615">
        <ele>1477</ele>
        <time>2021-08-09 12:30:25</time>
      </trkpt>
      <trkpt lat="42.85387" lon="-0.46152">
        <ele>1477</ele>
        <time>2021-08-09 12:30:26</time>
      </trkpt>
      <trkpt lat="42.85387" lon="-0.46153">
        <ele>1477</ele>
        <time>2021-08-09 12:30:27</time>
      </trkpt>
      <trkpt lat="42.85388" lon="-0.46154">
        <ele>1477.2</ele>
        <time>2021-08-09 12:30:28</time>
      </trkpt>
      <trkpt lat="42.85388" lon="-0.46156">
        <ele>1477.4</ele>
        <time>2021-08-09 12:30:29</time>
      </trkpt>
      <trkpt lat="42.85388" lon="-0.46157">
        <ele>1477.4</ele>
        <time>2021-08-09 12:30:30</time>
      </trkpt>
      <trkpt lat="42.85388" lon="-0.46158">
        <ele>1477.4</ele>
        <time>2021-08-09 12:30:31</time>
      </trkpt>
      <trkpt lat="42.85388" lon="-0.46159">
        <ele>1477.4</ele>
        <time>2021-08-09 12:30:32</time>
      </trkpt>
      <trkpt lat="42.85388" lon="-0.4616">
        <ele>1477.4</ele>
        <time>2021-08-09 12:30:33</time>
      </trkpt>
      <trkpt lat="42.85388" lon="-0.46162">
        <ele>1477.4</ele>
        <time>2021-08-09 12:30:34</time>
      </trkpt>
      <trkpt lat="42.85389" lon="-0.46163">
        <ele>1477.8</ele>
        <time>2021-08-09 12:30:35</time>
      </trkpt>
      <trkpt lat="42.85389" lon="-0.46164">
        <ele>1477.8</ele>
        <time>2021-08-09 12:30:36</time>
      </trkpt>
      <trkpt lat="42.85388" lon="-0.46166">
        <ele>1477.6</ele>
        <time>2021-08-09 12:30:37</time>
      </trkpt>
      <trkpt lat="42.85389" lon="-0.46167">
        <ele>1477.8</ele>
        <time>2021-08-09 12:30:38</time>
      </trkpt>
      <trkpt lat="42.85389" lon="-0.46168">
        <ele>1477.8</ele>
        <time>2021-08-09 12:30:39</time>
      </trkpt>
      <trkpt lat="42.85389" lon="-0.46169">
        <ele>1477.8</ele>
        <time>2021-08-09 12:30:40</time>
      </trkpt>
      <trkpt lat="42.85389" lon="-0.4617">
        <ele>1478</ele>
        <time>2021-08-09 12:30:41</time>
      </trkpt>
      <trkpt lat="42.85389" lon="-0.46172">
        <ele>1478.2</ele>
        <time>2021-08-09 12:30:42</time>
      </trkpt>
      <trkpt lat="42.85388" lon="-0.46173">
        <ele>1478.2</ele>
        <time>2021-08-09 12:30:43</time>
      </trkpt>
      <trkpt lat="42.85389" lon="-0.46174">
        <ele>1478.2</ele>
        <time>2021-08-09 12:30:44</time>
      </trkpt>
      <trkpt lat="42.85389" lon="-0.46176">
        <ele>1478.2</ele>
        <time>2021-08-09 12:30:45</time>
      </trkpt>
      <trkpt lat="42.85388" lon="-0.46177">
        <ele>1478.2</ele>
        <time>2021-08-09 12:30:46</time>
      </trkpt>
      <trkpt lat="42.85388" lon="-0.46179">
        <ele>1478.4</ele>
        <time>2021-08-09 12:30:47</time>
      </trkpt>
      <trkpt lat="42.85387" lon="-0.4618">
        <ele>1478.4</ele>
        <time>2021-08-09 12:30:48</time>
      </trkpt>
      <trkpt lat="42.85387" lon="-0.4618">
        <ele>1478.6</ele>
        <time>2021-08-09 12:30:49</time>
      </trkpt>
      <trkpt lat="42.85386" lon="-0.46182">
        <ele>1478.6</ele>
        <time>2021-08-09 12:30:50</time>
      </trkpt>
      <trkpt lat="42.85386" lon="-0.46181">
        <ele>1478.8</ele>
        <time>2021-08-09 12:30:51</time>
      </trkpt>
      <trkpt lat="42.85386" lon="-0.46182">
        <ele>1479.2</ele>
        <time>2021-08-09 12:30:52</time>
      </trkpt>
      <trkpt lat="42.85387" lon="-0.46184">
        <ele>1479.2</ele>
        <time>2021-08-09 12:30:53</time>
      </trkpt>
      <trkpt lat="42.85387" lon="-0.46185">
        <ele>1479.4</ele>
        <time>2021-08-09 12:30:54</time>
      </trkpt>
      <trkpt lat="42.85387" lon="-0.46186">
        <ele>1479.4</ele>
        <time>2021-08-09 12:30:55</time>
      </trkpt>
      <trkpt lat="42.85387" lon="-0.46187">
        <ele>1479.8</ele>
        <time>2021-08-09 12:30:56</time>
      </trkpt>
      <trkpt lat="42.85388" lon="-0.46188">
        <ele>1479.8</ele>
        <time>2021-08-09 12:30:57</time>
      </trkpt>
      <trkpt lat="42.85387" lon="-0.46188">
        <ele>1480</ele>
        <time>2021-08-09 12:30:58</time>
      </trkpt>
      <trkpt lat="42.85387" lon="-0.46189">
        <ele>1480</ele>
        <time>2021-08-09 12:30:59</time>
      </trkpt>
      <trkpt lat="42.85387" lon="-0.46191">
        <ele>1480.2</ele>
        <time>2021-08-09 12:31:00</time>
      </trkpt>
      <trkpt lat="42.85388" lon="-0.46191">
        <ele>1480.4</ele>
        <time>2021-08-09 12:31:01</time>
      </trkpt>
      <trkpt lat="42.85388" lon="-0.46191">
        <ele>1480.6</ele>
        <time>2021-08-09 12:31:02</time>
      </trkpt>
      <trkpt lat="42.85387" lon="-0.46191">
        <ele>1480.6</ele>
        <time>2021-08-09 12:31:03</time>
      </trkpt>
      <trkpt lat="42.85387" lon="-0.46192">
        <ele>1480.4</ele>
        <time>2021-08-09 12:31:04</time>
      </trkpt>
      <trkpt lat="42.85387" lon="-0.46193">
        <ele>1480.6</ele>
        <time>2021-08-09 12:31:05</time>
      </trkpt>
      <trkpt lat="42.85387" lon="-0.46194">
        <ele>1480.6</ele>
        <time>2021-08-09 12:31:06</time>
      </trkpt>
      <trkpt lat="42.85387" lon="-0.46195">
        <ele>1480.6</ele>
        <time>2021-08-09 12:31:07</time>
      </trkpt>
      <trkpt lat="42.85387" lon="-0.46196">
        <ele>1480.6</ele>
        <time>2021-08-09 12:31:08</time>
      </trkpt>
      <trkpt lat="42.85387" lon="-0.46196">
        <ele>1480.8</ele>
        <time>2021-08-09 12:31:09</time>
      </trkpt>
      <trkpt lat="42.85386" lon="-0.46197">
        <ele>1480.8</ele>
        <time>2021-08-09 12:31:10</time>
      </trkpt>
      <trkpt lat="42.85386" lon="-0.46197">
        <ele>1480.8</ele>
        <time>2021-08-09 12:31:11</time>
      </trkpt>
      <trkpt lat="42.85386" lon="-0.46198">
        <ele>1480.8</ele>
        <time>2021-08-09 12:31:12</time>
      </trkpt>
      <trkpt lat="42.85385" lon="-0.46198">
        <ele>1480.8</ele>
        <time>2021-08-09 12:31:13</time>
      </trkpt>
      <trkpt lat="42.85384" lon="-0.46198">
        <ele>1480.6</ele>
        <time>2021-08-09 12:31:14</time>
      </trkpt>
      <trkpt lat="42.85384" lon="-0.46199">
        <ele>1480.6</ele>
        <time>2021-08-09 12:31:15</time>
      </trkpt>
      <trkpt lat="42.85384" lon="-0.46199">
        <ele>1480.4</ele>
        <time>2021-08-09 12:31:16</time>
      </trkpt>
      <trkpt lat="42.8538" lon="-0.46202">
        <ele>1481</ele>
        <time>2021-08-09 12:31:17</time>
      </trkpt>
      <trkpt lat="42.8538" lon="-0.46203">
        <ele>1480.8</ele>
        <time>2021-08-09 12:31:18</time>
      </trkpt>
      <trkpt lat="42.8538" lon="-0.46202">
        <ele>1481</ele>
        <time>2021-08-09 12:31:19</time>
      </trkpt>
      <trkpt lat="42.8538" lon="-0.46202">
        <ele>1481</ele>
        <time>2021-08-09 12:31:20</time>
      </trkpt>
      <trkpt lat="42.85379" lon="-0.46201">
        <ele>1481</ele>
        <time>2021-08-09 12:31:21</time>
      </trkpt>
      <trkpt lat="42.85379" lon="-0.46201">
        <ele>1480.8</ele>
        <time>2021-08-09 12:31:22</time>
      </trkpt>
      <trkpt lat="42.85379" lon="-0.46201">
        <ele>1481</ele>
        <time>2021-08-09 12:31:23</time>
      </trkpt>
      <trkpt lat="42.8538" lon="-0.46204">
        <ele>1480.8</ele>
        <time>2021-08-09 12:31:24</time>
      </trkpt>
      <trkpt lat="42.85379" lon="-0.46204">
        <ele>1481</ele>
        <time>2021-08-09 12:31:25</time>
      </trkpt>
      <trkpt lat="42.85379" lon="-0.46204">
        <ele>1481</ele>
        <time>2021-08-09 12:31:26</time>
      </trkpt>
      <trkpt lat="42.8538" lon="-0.46206">
        <ele>1480.8</ele>
        <time>2021-08-09 12:31:27</time>
      </trkpt>
      <trkpt lat="42.85381" lon="-0.46207">
        <ele>1480.8</ele>
        <time>2021-08-09 12:31:28</time>
      </trkpt>
      <trkpt lat="42.85381" lon="-0.46207">
        <ele>1481</ele>
        <time>2021-08-09 12:31:29</time>
      </trkpt>
      <trkpt lat="42.85381" lon="-0.46208">
        <ele>1481.2</ele>
        <time>2021-08-09 12:31:30</time>
      </trkpt>
      <trkpt lat="42.85381" lon="-0.46208">
        <ele>1481.4</ele>
        <time>2021-08-09 12:31:31</time>
      </trkpt>
      <trkpt lat="42.85381" lon="-0.46208">
        <ele>1481.6</ele>
        <time>2021-08-09 12:31:32</time>
      </trkpt>
      <trkpt lat="42.8538" lon="-0.46209">
        <ele>1481.6</ele>
        <time>2021-08-09 12:31:33</time>
      </trkpt>
      <trkpt lat="42.8538" lon="-0.46209">
        <ele>1481.8</ele>
        <time>2021-08-09 12:31:34</time>
      </trkpt>
      <trkpt lat="42.8538" lon="-0.46209">
        <ele>1481.8</ele>
        <time>2021-08-09 12:31:35</time>
      </trkpt>
      <trkpt lat="42.8538" lon="-0.46209">
        <ele>1482</ele>
        <time>2021-08-09 12:31:36</time>
      </trkpt>
      <trkpt lat="42.8538" lon="-0.46209">
        <ele>1482</ele>
        <time>2021-08-09 12:31:37</time>
      </trkpt>
      <trkpt lat="42.85379" lon="-0.4621">
        <ele>1481.8</ele>
        <time>2021-08-09 12:31:38</time>
      </trkpt>
      <trkpt lat="42.85379" lon="-0.4621">
        <ele>1482.4</ele>
        <time>2021-08-09 12:31:39</time>
      </trkpt>
      <trkpt lat="42.8538" lon="-0.4621">
        <ele>1482.6</ele>
        <time>2021-08-09 12:31:40</time>
      </trkpt>
      <trkpt lat="42.85379" lon="-0.46211">
        <ele>1482.8</ele>
        <time>2021-08-09 12:31:41</time>
      </trkpt>
      <trkpt lat="42.8538" lon="-0.46211">
        <ele>1482.8</ele>
        <time>2021-08-09 12:31:42</time>
      </trkpt>
      <trkpt lat="42.85379" lon="-0.46211">
        <ele>1482.8</ele>
        <time>2021-08-09 12:31:43</time>
      </trkpt>
      <trkpt lat="42.85379" lon="-0.46211">
        <ele>1483</ele>
        <time>2021-08-09 12:31:44</time>
      </trkpt>
      <trkpt lat="42.85379" lon="-0.46211">
        <ele>1483.2</ele>
        <time>2021-08-09 12:31:49</time>
      </trkpt>
      <trkpt lat="42.85379" lon="-0.46211">
        <ele>1483.4</ele>
        <time>2021-08-09 12:31:50</time>
      </trkpt>
      <trkpt lat="42.8538" lon="-0.46212">
        <ele>1484</ele>
        <time>2021-08-09 12:31:51</time>
      </trkpt>
      <trkpt lat="42.8538" lon="-0.46213">
        <ele>1484.2</ele>
        <time>2021-08-09 12:31:52</time>
      </trkpt>
      <trkpt lat="42.8538" lon="-0.46214">
        <ele>1484.4</ele>
        <time>2021-08-09 12:32:08</time>
      </trkpt>
      <trkpt lat="42.8538" lon="-0.46215">
        <ele>1484.4</ele>
        <time>2021-08-09 12:32:09</time>
      </trkpt>
      <trkpt lat="42.8538" lon="-0.46216">
        <ele>1484.4</ele>
        <time>2021-08-09 12:32:10</time>
      </trkpt>
      <trkpt lat="42.8538" lon="-0.46217">
        <ele>1484.6</ele>
        <time>2021-08-09 12:32:11</time>
      </trkpt>
      <trkpt lat="42.85379" lon="-0.46217">
        <ele>1484.8</ele>
        <time>2021-08-09 12:32:13</time>
      </trkpt>
      <trkpt lat="42.85378" lon="-0.46218">
        <ele>1484.8</ele>
        <time>2021-08-09 12:32:14</time>
      </trkpt>
      <trkpt lat="42.85378" lon="-0.46219">
        <ele>1484.8</ele>
        <time>2021-08-09 12:32:15</time>
      </trkpt>
      <trkpt lat="42.85379" lon="-0.4622">
        <ele>1485</ele>
        <time>2021-08-09 12:32:19</time>
      </trkpt>
      <trkpt lat="42.85379" lon="-0.46222">
        <ele>1485.4</ele>
        <time>2021-08-09 12:32:20</time>
      </trkpt>
      <trkpt lat="42.8538" lon="-0.46222">
        <ele>1485.8</ele>
        <time>2021-08-09 12:32:21</time>
      </trkpt>
      <trkpt lat="42.85379" lon="-0.46223">
        <ele>1486</ele>
        <time>2021-08-09 12:32:29</time>
      </trkpt>
      <trkpt lat="42.8538" lon="-0.46224">
        <ele>1485.8</ele>
        <time>2021-08-09 12:32:30</time>
      </trkpt>
      <trkpt lat="42.85379" lon="-0.46225">
        <ele>1485.8</ele>
        <time>2021-08-09 12:32:31</time>
      </trkpt>
      <trkpt lat="42.85379" lon="-0.46227">
        <ele>1485.8</ele>
        <time>2021-08-09 12:32:32</time>
      </trkpt>
      <trkpt lat="42.85379" lon="-0.46228">
        <ele>1486</ele>
        <time>2021-08-09 12:32:33</time>
      </trkpt>
      <trkpt lat="42.85379" lon="-0.46229">
        <ele>1486</ele>
        <time>2021-08-09 12:32:34</time>
      </trkpt>
      <trkpt lat="42.8538" lon="-0.4623">
        <ele>1486.2</ele>
        <time>2021-08-09 12:32:35</time>
      </trkpt>
      <trkpt lat="42.85381" lon="-0.4623">
        <ele>1486.2</ele>
        <time>2021-08-09 12:32:36</time>
      </trkpt>
      <trkpt lat="42.85381" lon="-0.4623">
        <ele>1486.6</ele>
        <time>2021-08-09 12:32:37</time>
      </trkpt>
      <trkpt lat="42.85381" lon="-0.46231">
        <ele>1486.8</ele>
        <time>2021-08-09 12:32:38</time>
      </trkpt>
      <trkpt lat="42.85381" lon="-0.46232">
        <ele>1487.2</ele>
        <time>2021-08-09 12:32:39</time>
      </trkpt>
      <trkpt lat="42.85382" lon="-0.46232">
        <ele>1487.2</ele>
        <time>2021-08-09 12:32:42</time>
      </trkpt>
      <trkpt lat="42.85381" lon="-0.46233">
        <ele>1487.4</ele>
        <time>2021-08-09 12:32:43</time>
      </trkpt>
      <trkpt lat="42.85381" lon="-0.46233">
        <ele>1487.6</ele>
        <time>2021-08-09 12:32:44</time>
      </trkpt>
      <trkpt lat="42.85382" lon="-0.46234">
        <ele>1487.8</ele>
        <time>2021-08-09 12:32:45</time>
      </trkpt>
      <trkpt lat="42.85381" lon="-0.46235">
        <ele>1487.8</ele>
        <time>2021-08-09 12:32:46</time>
      </trkpt>
      <trkpt lat="42.85381" lon="-0.46236">
        <ele>1488.2</ele>
        <time>2021-08-09 12:32:47</time>
      </trkpt>
      <trkpt lat="42.8538" lon="-0.46236">
        <ele>1488</ele>
        <time>2021-08-09 12:32:48</time>
      </trkpt>
      <trkpt lat="42.85381" lon="-0.46237">
        <ele>1488.2</ele>
        <time>2021-08-09 12:32:49</time>
      </trkpt>
      <trkpt lat="42.85381" lon="-0.46239">
        <ele>1488.2</ele>
        <time>2021-08-09 12:32:50</time>
      </trkpt>
      <trkpt lat="42.85382" lon="-0.46239">
        <ele>1488.4</ele>
        <time>2021-08-09 12:32:53</time>
      </trkpt>
      <trkpt lat="42.85381" lon="-0.4624">
        <ele>1488.4</ele>
        <time>2021-08-09 12:32:54</time>
      </trkpt>
      <trkpt lat="42.85381" lon="-0.46241">
        <ele>1488.4</ele>
        <time>2021-08-09 12:32:55</time>
      </trkpt>
      <trkpt lat="42.8538" lon="-0.46241">
        <ele>1488.4</ele>
        <time>2021-08-09 12:32:56</time>
      </trkpt>
      <trkpt lat="42.8538" lon="-0.46241">
        <ele>1488.4</ele>
        <time>2021-08-09 12:32:57</time>
      </trkpt>
      <trkpt lat="42.8538" lon="-0.46243">
        <ele>1488.6</ele>
        <time>2021-08-09 12:32:58</time>
      </trkpt>
      <trkpt lat="42.85381" lon="-0.46243">
        <ele>1488.6</ele>
        <time>2021-08-09 12:32:59</time>
      </trkpt>
      <trkpt lat="42.85381" lon="-0.46245">
        <ele>1488.4</ele>
        <time>2021-08-09 12:33:00</time>
      </trkpt>
      <trkpt lat="42.85381" lon="-0.46246">
        <ele>1489.4</ele>
        <time>2021-08-09 12:33:01</time>
      </trkpt>
      <trkpt lat="42.85381" lon="-0.46246">
        <ele>1489.4</ele>
        <time>2021-08-09 12:33:02</time>
      </trkpt>
      <trkpt lat="42.85381" lon="-0.46247">
        <ele>1489.6</ele>
        <time>2021-08-09 12:33:03</time>
      </trkpt>
      <trkpt lat="42.85379" lon="-0.46248">
        <ele>1489.4</ele>
        <time>2021-08-09 12:33:04</time>
      </trkpt>
      <trkpt lat="42.85379" lon="-0.4625">
        <ele>1489.4</ele>
        <time>2021-08-09 12:33:05</time>
      </trkpt>
      <trkpt lat="42.85378" lon="-0.46251">
        <ele>1489.6</ele>
        <time>2021-08-09 12:33:06</time>
      </trkpt>
      <trkpt lat="42.85378" lon="-0.46252">
        <ele>1489.6</ele>
        <time>2021-08-09 12:33:07</time>
      </trkpt>
      <trkpt lat="42.85378" lon="-0.46253">
        <ele>1489.8</ele>
        <time>2021-08-09 12:33:08</time>
      </trkpt>
      <trkpt lat="42.85377" lon="-0.46254">
        <ele>1490.2</ele>
        <time>2021-08-09 12:33:09</time>
      </trkpt>
      <trkpt lat="42.85376" lon="-0.46254">
        <ele>1490.2</ele>
        <time>2021-08-09 12:33:10</time>
      </trkpt>
      <trkpt lat="42.85375" lon="-0.46256">
        <ele>1490.6</ele>
        <time>2021-08-09 12:33:11</time>
      </trkpt>
      <trkpt lat="42.85374" lon="-0.46257">
        <ele>1490.8</ele>
        <time>2021-08-09 12:33:12</time>
      </trkpt>
      <trkpt lat="42.85373" lon="-0.46258">
        <ele>1491.2</ele>
        <time>2021-08-09 12:33:13</time>
      </trkpt>
      <trkpt lat="42.85374" lon="-0.46261">
        <ele>1490.8</ele>
        <time>2021-08-09 12:33:14</time>
      </trkpt>
      <trkpt lat="42.85373" lon="-0.46262">
        <ele>1490.8</ele>
        <time>2021-08-09 12:33:15</time>
      </trkpt>
      <trkpt lat="42.85373" lon="-0.46264">
        <ele>1490.2</ele>
        <time>2021-08-09 12:33:16</time>
      </trkpt>
      <trkpt lat="42.85372" lon="-0.46264">
        <ele>1491</ele>
        <time>2021-08-09 12:33:17</time>
      </trkpt>
      <trkpt lat="42.85371" lon="-0.46265">
        <ele>1491</ele>
        <time>2021-08-09 12:33:18</time>
      </trkpt>
      <trkpt lat="42.85369" lon="-0.46265">
        <ele>1491.8</ele>
        <time>2021-08-09 12:33:19</time>
      </trkpt>
      <trkpt lat="42.85369" lon="-0.46267">
        <ele>1492</ele>
        <time>2021-08-09 12:33:20</time>
      </trkpt>
      <trkpt lat="42.85369" lon="-0.46268">
        <ele>1492</ele>
        <time>2021-08-09 12:33:21</time>
      </trkpt>
      <trkpt lat="42.8537" lon="-0.46268">
        <ele>1491.6</ele>
        <time>2021-08-09 12:33:22</time>
      </trkpt>
      <trkpt lat="42.85369" lon="-0.46268">
        <ele>1492</ele>
        <time>2021-08-09 12:33:23</time>
      </trkpt>
      <trkpt lat="42.85369" lon="-0.4627">
        <ele>1492.2</ele>
        <time>2021-08-09 12:33:24</time>
      </trkpt>
      <trkpt lat="42.85369" lon="-0.4627">
        <ele>1492.2</ele>
        <time>2021-08-09 12:33:25</time>
      </trkpt>
      <trkpt lat="42.85369" lon="-0.46271">
        <ele>1492.4</ele>
        <time>2021-08-09 12:33:26</time>
      </trkpt>
      <trkpt lat="42.85369" lon="-0.46274">
        <ele>1492.8</ele>
        <time>2021-08-09 12:33:27</time>
      </trkpt>
      <trkpt lat="42.85368" lon="-0.46274">
        <ele>1493</ele>
        <time>2021-08-09 12:33:28</time>
      </trkpt>
      <trkpt lat="42.85367" lon="-0.46274">
        <ele>1493.2</ele>
        <time>2021-08-09 12:33:29</time>
      </trkpt>
      <trkpt lat="42.85367" lon="-0.46274">
        <ele>1493.4</ele>
        <time>2021-08-09 12:33:30</time>
      </trkpt>
      <trkpt lat="42.85367" lon="-0.46276">
        <ele>1493.6</ele>
        <time>2021-08-09 12:33:31</time>
      </trkpt>
      <trkpt lat="42.85367" lon="-0.46277">
        <ele>1493.8</ele>
        <time>2021-08-09 12:33:32</time>
      </trkpt>
      <trkpt lat="42.85367" lon="-0.46279">
        <ele>1493.8</ele>
        <time>2021-08-09 12:33:33</time>
      </trkpt>
      <trkpt lat="42.85366" lon="-0.4628">
        <ele>1494</ele>
        <time>2021-08-09 12:33:34</time>
      </trkpt>
      <trkpt lat="42.85366" lon="-0.46281">
        <ele>1494</ele>
        <time>2021-08-09 12:33:35</time>
      </trkpt>
      <trkpt lat="42.85366" lon="-0.46282">
        <ele>1494.2</ele>
        <time>2021-08-09 12:33:36</time>
      </trkpt>
      <trkpt lat="42.85366" lon="-0.46284">
        <ele>1494.4</ele>
        <time>2021-08-09 12:33:37</time>
      </trkpt>
      <trkpt lat="42.85365" lon="-0.46285">
        <ele>1494.6</ele>
        <time>2021-08-09 12:33:38</time>
      </trkpt>
      <trkpt lat="42.85364" lon="-0.46286">
        <ele>1494.6</ele>
        <time>2021-08-09 12:33:39</time>
      </trkpt>
      <trkpt lat="42.85364" lon="-0.46287">
        <ele>1494.8</ele>
        <time>2021-08-09 12:33:40</time>
      </trkpt>
      <trkpt lat="42.85364" lon="-0.46289">
        <ele>1494.8</ele>
        <time>2021-08-09 12:33:41</time>
      </trkpt>
      <trkpt lat="42.85364" lon="-0.46289">
        <ele>1495</ele>
        <time>2021-08-09 12:33:42</time>
      </trkpt>
      <trkpt lat="42.85366" lon="-0.46292">
        <ele>1495</ele>
        <time>2021-08-09 12:33:43</time>
      </trkpt>
      <trkpt lat="42.85366" lon="-0.46293">
        <ele>1495.2</ele>
        <time>2021-08-09 12:33:44</time>
      </trkpt>
      <trkpt lat="42.85366" lon="-0.46293">
        <ele>1495.2</ele>
        <time>2021-08-09 12:33:45</time>
      </trkpt>
      <trkpt lat="42.85366" lon="-0.46294">
        <ele>1495.6</ele>
        <time>2021-08-09 12:33:46</time>
      </trkpt>
      <trkpt lat="42.85366" lon="-0.46296">
        <ele>1496.2</ele>
        <time>2021-08-09 12:33:47</time>
      </trkpt>
      <trkpt lat="42.85366" lon="-0.46296">
        <ele>1496.2</ele>
        <time>2021-08-09 12:33:48</time>
      </trkpt>
      <trkpt lat="42.85366" lon="-0.46297">
        <ele>1496.2</ele>
        <time>2021-08-09 12:33:49</time>
      </trkpt>
      <trkpt lat="42.85366" lon="-0.46298">
        <ele>1496.6</ele>
        <time>2021-08-09 12:33:50</time>
      </trkpt>
      <trkpt lat="42.85366" lon="-0.463">
        <ele>1496.4</ele>
        <time>2021-08-09 12:33:51</time>
      </trkpt>
      <trkpt lat="42.85366" lon="-0.46301">
        <ele>1496.6</ele>
        <time>2021-08-09 12:33:52</time>
      </trkpt>
      <trkpt lat="42.85366" lon="-0.46302">
        <ele>1496.6</ele>
        <time>2021-08-09 12:33:53</time>
      </trkpt>
      <trkpt lat="42.85366" lon="-0.46303">
        <ele>1497.2</ele>
        <time>2021-08-09 12:33:54</time>
      </trkpt>
      <trkpt lat="42.85365" lon="-0.46306">
        <ele>1497</ele>
        <time>2021-08-09 12:33:55</time>
      </trkpt>
      <trkpt lat="42.85364" lon="-0.46306">
        <ele>1496.8</ele>
        <time>2021-08-09 12:33:56</time>
      </trkpt>
      <trkpt lat="42.85364" lon="-0.46308">
        <ele>1496.6</ele>
        <time>2021-08-09 12:33:57</time>
      </trkpt>
      <trkpt lat="42.85364" lon="-0.46309">
        <ele>1497.2</ele>
        <time>2021-08-09 12:33:58</time>
      </trkpt>
      <trkpt lat="42.85364" lon="-0.4631">
        <ele>1497.8</ele>
        <time>2021-08-09 12:33:59</time>
      </trkpt>
      <trkpt lat="42.85364" lon="-0.4631">
        <ele>1498</ele>
      </trkpt>
      <trkpt lat="42.85364" lon="-0.46311">
        <ele>1498.2</ele>
        <time>2021-08-09 12:34:01</time>
      </trkpt>
      <trkpt lat="42.85363" lon="-0.46312">
        <ele>1498.4</ele>
        <time>2021-08-09 12:34:02</time>
      </trkpt>
      <trkpt lat="42.85363" lon="-0.46313">
        <ele>1498.2</ele>
        <time>2021-08-09 12:34:03</time>
      </trkpt>
      <trkpt lat="42.85363" lon="-0.46313">
        <ele>1497.4</ele>
        <time>2021-08-09 12:34:04</time>
      </trkpt>
      <trkpt lat="42.85363" lon="-0.46315">
        <ele>1498.4</ele>
        <time>2021-08-09 12:34:05</time>
      </trkpt>
      <trkpt lat="42.85363" lon="-0.46316">
        <ele>1498.4</ele>
        <time>2021-08-09 12:34:06</time>
      </trkpt>
      <trkpt lat="42.85363" lon="-0.46317">
        <ele>1499.2</ele>
        <time>2021-08-09 12:34:07</time>
      </trkpt>
      <trkpt lat="42.85364" lon="-0.46317">
        <ele>1499.2</ele>
        <time>2021-08-09 12:34:08</time>
      </trkpt>
      <trkpt lat="42.85364" lon="-0.46318">
        <ele>1499.4</ele>
        <time>2021-08-09 12:34:09</time>
      </trkpt>
      <trkpt lat="42.85364" lon="-0.4632">
        <ele>1499.4</ele>
        <time>2021-08-09 12:34:10</time>
      </trkpt>
      <trkpt lat="42.85364" lon="-0.46321">
        <ele>1499.2</ele>
        <time>2021-08-09 12:34:11</time>
      </trkpt>
      <trkpt lat="42.85364" lon="-0.46322">
        <ele>1499.2</ele>
        <time>2021-08-09 12:34:12</time>
      </trkpt>
      <trkpt lat="42.85362" lon="-0.46322">
        <ele>1499.4</ele>
        <time>2021-08-09 12:34:13</time>
      </trkpt>
      <trkpt lat="42.85363" lon="-0.46324">
        <ele>1499.6</ele>
        <time>2021-08-09 12:34:14</time>
      </trkpt>
      <trkpt lat="42.85362" lon="-0.46325">
        <ele>1499.8</ele>
        <time>2021-08-09 12:34:15</time>
      </trkpt>
      <trkpt lat="42.85361" lon="-0.46324">
        <ele>1500</ele>
        <time>2021-08-09 12:34:16</time>
      </trkpt>
      <trkpt lat="42.85361" lon="-0.46324">
        <ele>1500.2</ele>
        <time>2021-08-09 12:34:17</time>
      </trkpt>
      <trkpt lat="42.85361" lon="-0.46324">
        <ele>1500.4</ele>
        <time>2021-08-09 12:34:18</time>
      </trkpt>
      <trkpt lat="42.85361" lon="-0.46325">
        <ele>1500.6</ele>
        <time>2021-08-09 12:34:19</time>
      </trkpt>
      <trkpt lat="42.85362" lon="-0.46326">
        <ele>1500.8</ele>
        <time>2021-08-09 12:34:20</time>
      </trkpt>
      <trkpt lat="42.85362" lon="-0.46326">
        <ele>1501</ele>
      </trkpt>
      <trkpt lat="42.85361" lon="-0.46327">
        <ele>1501.2</ele>
        <time>2021-08-09 12:34:21</time>
      </trkpt>
      <trkpt lat="42.85361" lon="-0.46328">
        <ele>1501.2</ele>
        <time>2021-08-09 12:34:22</time>
      </trkpt>
      <trkpt lat="42.85361" lon="-0.46328">
        <ele>1501.2</ele>
        <time>2021-08-09 12:34:23</time>
      </trkpt>
      <trkpt lat="42.85362" lon="-0.4633">
        <ele>1501</ele>
        <time>2021-08-09 12:34:24</time>
      </trkpt>
      <trkpt lat="42.85362" lon="-0.4633">
        <ele>1501.2</ele>
        <time>2021-08-09 12:34:25</time>
      </trkpt>
      <trkpt lat="42.85363" lon="-0.4633">
        <ele>1501.2</ele>
        <time>2021-08-09 12:34:26</time>
      </trkpt>
      <trkpt lat="42.85364" lon="-0.46329">
        <ele>1501</ele>
        <time>2021-08-09 12:34:27</time>
      </trkpt>
      <trkpt lat="42.85364" lon="-0.4633">
        <ele>1501</ele>
        <time>2021-08-09 12:34:29</time>
      </trkpt>
      <trkpt lat="42.85364" lon="-0.4633">
        <ele>1501</ele>
      </trkpt>
      <trkpt lat="42.85364" lon="-0.46331">
        <ele>1500.8</ele>
        <time>2021-08-09 12:34:30</time>
      </trkpt>
      <trkpt lat="42.85362" lon="-0.46332">
        <ele>1500.8</ele>
        <time>2021-08-09 12:34:31</time>
      </trkpt>
      <trkpt lat="42.85362" lon="-0.46335">
        <ele>1500.8</ele>
        <time>2021-08-09 12:34:32</time>
      </trkpt>
      <trkpt lat="42.85362" lon="-0.46336">
        <ele>1500.6</ele>
        <time>2021-08-09 12:34:33</time>
      </trkpt>
      <trkpt lat="42.85362" lon="-0.46337">
        <ele>1500.6</ele>
        <time>2021-08-09 12:34:34</time>
      </trkpt>
      <trkpt lat="42.8536" lon="-0.46337">
        <ele>1500.6</ele>
        <time>2021-08-09 12:34:35</time>
      </trkpt>
      <trkpt lat="42.85359" lon="-0.46338">
        <ele>1500.8</ele>
        <time>2021-08-09 12:34:36</time>
      </trkpt>
      <trkpt lat="42.85356" lon="-0.4634">
        <ele>1501</ele>
        <time>2021-08-09 12:34:37</time>
      </trkpt>
      <trkpt lat="42.85357" lon="-0.46342">
        <ele>1501</ele>
        <time>2021-08-09 12:34:38</time>
      </trkpt>
      <trkpt lat="42.85357" lon="-0.46343">
        <ele>1501.2</ele>
        <time>2021-08-09 12:34:39</time>
      </trkpt>
      <trkpt lat="42.85357" lon="-0.46344">
        <ele>1501.4</ele>
        <time>2021-08-09 12:34:40</time>
      </trkpt>
      <trkpt lat="42.85357" lon="-0.46345">
        <ele>1501.6</ele>
        <time>2021-08-09 12:34:41</time>
      </trkpt>
      <trkpt lat="42.85357" lon="-0.46345">
        <ele>1501.6</ele>
        <time>2021-08-09 12:34:42</time>
      </trkpt>
      <trkpt lat="42.85357" lon="-0.46347">
        <ele>1502</ele>
        <time>2021-08-09 12:34:43</time>
      </trkpt>
      <trkpt lat="42.85357" lon="-0.46348">
        <ele>1502.2</ele>
        <time>2021-08-09 12:34:44</time>
      </trkpt>
      <trkpt lat="42.85357" lon="-0.46348">
        <ele>1502.4</ele>
        <time>2021-08-09 12:34:45</time>
      </trkpt>
      <trkpt lat="42.85357" lon="-0.4635">
        <ele>1502.4</ele>
        <time>2021-08-09 12:34:46</time>
      </trkpt>
      <trkpt lat="42.85358" lon="-0.46352">
        <ele>1502.6</ele>
        <time>2021-08-09 12:34:47</time>
      </trkpt>
      <trkpt lat="42.85358" lon="-0.46353">
        <ele>1502.8</ele>
        <time>2021-08-09 12:34:49</time>
      </trkpt>
      <trkpt lat="42.85358" lon="-0.46353">
        <ele>1503</ele>
      </trkpt>
      <trkpt lat="42.85357" lon="-0.46354">
        <ele>1503.2</ele>
        <time>2021-08-09 12:34:50</time>
      </trkpt>
      <trkpt lat="42.85356" lon="-0.46356">
        <ele>1503.2</ele>
        <time>2021-08-09 12:34:51</time>
      </trkpt>
      <trkpt lat="42.85356" lon="-0.46358">
        <ele>1503.2</ele>
        <time>2021-08-09 12:34:52</time>
      </trkpt>
      <trkpt lat="42.85356" lon="-0.46359">
        <ele>1503.4</ele>
        <time>2021-08-09 12:34:53</time>
      </trkpt>
      <trkpt lat="42.85356" lon="-0.4636">
        <ele>1503.6</ele>
        <time>2021-08-09 12:34:54</time>
      </trkpt>
      <trkpt lat="42.85356" lon="-0.46362">
        <ele>1504</ele>
        <time>2021-08-09 12:34:55</time>
      </trkpt>
      <trkpt lat="42.85357" lon="-0.46363">
        <ele>1504.4</ele>
        <time>2021-08-09 12:34:56</time>
      </trkpt>
      <trkpt lat="42.85357" lon="-0.46364">
        <ele>1504.8</ele>
        <time>2021-08-09 12:34:57</time>
      </trkpt>
      <trkpt lat="42.85357" lon="-0.46363">
        <ele>1505</ele>
        <time>2021-08-09 12:34:58</time>
      </trkpt>
      <trkpt lat="42.85357" lon="-0.46364">
        <ele>1505.2</ele>
        <time>2021-08-09 12:34:59</time>
      </trkpt>
      <trkpt lat="42.85357" lon="-0.46366">
        <ele>1505.2</ele>
        <time>2021-08-09 12:35:02</time>
      </trkpt>
      <trkpt lat="42.85357" lon="-0.46367">
        <ele>1505.4</ele>
        <time>2021-08-09 12:35:03</time>
      </trkpt>
      <trkpt lat="42.85358" lon="-0.46368">
        <ele>1505.6</ele>
        <time>2021-08-09 12:35:04</time>
      </trkpt>
      <trkpt lat="42.85358" lon="-0.4637">
        <ele>1505.6</ele>
        <time>2021-08-09 12:35:05</time>
      </trkpt>
      <trkpt lat="42.85358" lon="-0.46371">
        <ele>1505.8</ele>
        <time>2021-08-09 12:35:06</time>
      </trkpt>
      <trkpt lat="42.85357" lon="-0.46372">
        <ele>1505.8</ele>
        <time>2021-08-09 12:35:07</time>
      </trkpt>
      <trkpt lat="42.85358" lon="-0.46375">
        <ele>1506</ele>
        <time>2021-08-09 12:35:08</time>
      </trkpt>
      <trkpt lat="42.85358" lon="-0.46376">
        <ele>1506</ele>
        <time>2021-08-09 12:35:09</time>
      </trkpt>
      <trkpt lat="42.85357" lon="-0.46376">
        <ele>1506.2</ele>
        <time>2021-08-09 12:35:11</time>
      </trkpt>
      <trkpt lat="42.85357" lon="-0.46376">
        <ele>1506.4</ele>
        <time>2021-08-09 12:35:12</time>
      </trkpt>
      <trkpt lat="42.85357" lon="-0.46377">
        <ele>1507</ele>
        <time>2021-08-09 12:35:13</time>
      </trkpt>
      <trkpt lat="42.85356" lon="-0.46377">
        <ele>1507.2</ele>
        <time>2021-08-09 12:35:14</time>
      </trkpt>
      <trkpt lat="42.85356" lon="-0.46378">
        <ele>1507.6</ele>
        <time>2021-08-09 12:35:15</time>
      </trkpt>
      <trkpt lat="42.85356" lon="-0.46378">
        <ele>1507.8</ele>
        <time>2021-08-09 12:35:21</time>
      </trkpt>
      <trkpt lat="42.85357" lon="-0.46379">
        <ele>1508.2</ele>
        <time>2021-08-09 12:35:22</time>
      </trkpt>
      <trkpt lat="42.85358" lon="-0.4638">
        <ele>1508.2</ele>
        <time>2021-08-09 12:35:23</time>
      </trkpt>
      <trkpt lat="42.85357" lon="-0.46381">
        <ele>1508.4</ele>
        <time>2021-08-09 12:35:24</time>
      </trkpt>
      <trkpt lat="42.85356" lon="-0.46383">
        <ele>1508.6</ele>
        <time>2021-08-09 12:35:25</time>
      </trkpt>
      <trkpt lat="42.85356" lon="-0.46384">
        <ele>1508.8</ele>
        <time>2021-08-09 12:35:26</time>
      </trkpt>
      <trkpt lat="42.85355" lon="-0.46384">
        <ele>1508.6</ele>
        <time>2021-08-09 12:35:27</time>
      </trkpt>
      <trkpt lat="42.85355" lon="-0.46385">
        <ele>1508.8</ele>
        <time>2021-08-09 12:35:28</time>
      </trkpt>
      <trkpt lat="42.85355" lon="-0.46387">
        <ele>1508.6</ele>
        <time>2021-08-09 12:35:29</time>
      </trkpt>
      <trkpt lat="42.85356" lon="-0.46388">
        <ele>1509</ele>
        <time>2021-08-09 12:35:30</time>
      </trkpt>
      <trkpt lat="42.85356" lon="-0.4639">
        <ele>1509</ele>
        <time>2021-08-09 12:35:31</time>
      </trkpt>
      <trkpt lat="42.85356" lon="-0.46391">
        <ele>1509.2</ele>
        <time>2021-08-09 12:35:32</time>
      </trkpt>
      <trkpt lat="42.85356" lon="-0.46393">
        <ele>1509.4</ele>
        <time>2021-08-09 12:35:33</time>
      </trkpt>
      <trkpt lat="42.85357" lon="-0.46394">
        <ele>1509.6</ele>
        <time>2021-08-09 12:35:34</time>
      </trkpt>
      <trkpt lat="42.85357" lon="-0.46396">
        <ele>1509.6</ele>
        <time>2021-08-09 12:35:35</time>
      </trkpt>
      <trkpt lat="42.85357" lon="-0.46397">
        <ele>1509.6</ele>
        <time>2021-08-09 12:35:36</time>
      </trkpt>
      <trkpt lat="42.85357" lon="-0.46399">
        <ele>1509.8</ele>
        <time>2021-08-09 12:35:37</time>
      </trkpt>
      <trkpt lat="42.85357" lon="-0.464">
        <ele>1509.6</ele>
        <time>2021-08-09 12:35:38</time>
      </trkpt>
      <trkpt lat="42.85356" lon="-0.464">
        <ele>1509.8</ele>
        <time>2021-08-09 12:35:39</time>
      </trkpt>
      <trkpt lat="42.85357" lon="-0.46401">
        <ele>1509.8</ele>
        <time>2021-08-09 12:35:40</time>
      </trkpt>
      <trkpt lat="42.85357" lon="-0.46402">
        <ele>1510</ele>
        <time>2021-08-09 12:35:41</time>
      </trkpt>
      <trkpt lat="42.85358" lon="-0.46403">
        <ele>1510.2</ele>
        <time>2021-08-09 12:35:42</time>
      </trkpt>
      <trkpt lat="42.85358" lon="-0.46404">
        <ele>1510.4</ele>
        <time>2021-08-09 12:35:43</time>
      </trkpt>
      <trkpt lat="42.85358" lon="-0.46405">
        <ele>1510.6</ele>
        <time>2021-08-09 12:35:44</time>
      </trkpt>
      <trkpt lat="42.85358" lon="-0.46406">
        <ele>1510.8</ele>
        <time>2021-08-09 12:35:45</time>
      </trkpt>
      <trkpt lat="42.85358" lon="-0.46407">
        <ele>1511</ele>
        <time>2021-08-09 12:35:46</time>
      </trkpt>
      <trkpt lat="42.85358" lon="-0.46409">
        <ele>1511</ele>
        <time>2021-08-09 12:35:47</time>
      </trkpt>
      <trkpt lat="42.85358" lon="-0.4641">
        <ele>1511</ele>
        <time>2021-08-09 12:35:48</time>
      </trkpt>
      <trkpt lat="42.85359" lon="-0.46411">
        <ele>1511</ele>
        <time>2021-08-09 12:35:49</time>
      </trkpt>
      <trkpt lat="42.85359" lon="-0.46412">
        <ele>1510.8</ele>
        <time>2021-08-09 12:35:50</time>
      </trkpt>
      <trkpt lat="42.85359" lon="-0.46414">
        <ele>1510.8</ele>
        <time>2021-08-09 12:35:51</time>
      </trkpt>
      <trkpt lat="42.8536" lon="-0.46415">
        <ele>1511</ele>
        <time>2021-08-09 12:35:52</time>
      </trkpt>
      <trkpt lat="42.8536" lon="-0.46416">
        <ele>1511</ele>
        <time>2021-08-09 12:35:53</time>
      </trkpt>
      <trkpt lat="42.85361" lon="-0.46417">
        <ele>1511.2</ele>
        <time>2021-08-09 12:35:55</time>
      </trkpt>
      <trkpt lat="42.85361" lon="-0.46418">
        <ele>1511.4</ele>
        <time>2021-08-09 12:35:56</time>
      </trkpt>
      <trkpt lat="42.85361" lon="-0.46419">
        <ele>1511.6</ele>
        <time>2021-08-09 12:35:57</time>
      </trkpt>
      <trkpt lat="42.8536" lon="-0.4642">
        <ele>1511.6</ele>
        <time>2021-08-09 12:35:58</time>
      </trkpt>
      <trkpt lat="42.8536" lon="-0.46422">
        <ele>1511.6</ele>
        <time>2021-08-09 12:35:59</time>
      </trkpt>
      <trkpt lat="42.85359" lon="-0.46423">
        <ele>1511.8</ele>
        <time>2021-08-09 12:36:00</time>
      </trkpt>
      <trkpt lat="42.85359" lon="-0.46424">
        <ele>1511.6</ele>
        <time>2021-08-09 12:36:01</time>
      </trkpt>
      <trkpt lat="42.85358" lon="-0.46425">
        <ele>1511.8</ele>
        <time>2021-08-09 12:36:02</time>
      </trkpt>
      <trkpt lat="42.85358" lon="-0.46426">
        <ele>1511.8</ele>
        <time>2021-08-09 12:36:03</time>
      </trkpt>
      <trkpt lat="42.85358" lon="-0.46428">
        <ele>1512</ele>
        <time>2021-08-09 12:36:04</time>
      </trkpt>
      <trkpt lat="42.85357" lon="-0.4643">
        <ele>1512.2</ele>
        <time>2021-08-09 12:36:05</time>
      </trkpt>
      <trkpt lat="42.85357" lon="-0.46431">
        <ele>1512.2</ele>
        <time>2021-08-09 12:36:06</time>
      </trkpt>
      <trkpt lat="42.85356" lon="-0.46432">
        <ele>1512.4</ele>
        <time>2021-08-09 12:36:07</time>
      </trkpt>
      <trkpt lat="42.85356" lon="-0.46433">
        <ele>1512.6</ele>
        <time>2021-08-09 12:36:08</time>
      </trkpt>
      <trkpt lat="42.85355" lon="-0.46434">
        <ele>1512.8</ele>
        <time>2021-08-09 12:36:09</time>
      </trkpt>
      <trkpt lat="42.85355" lon="-0.46435">
        <ele>1513</ele>
        <time>2021-08-09 12:36:10</time>
      </trkpt>
      <trkpt lat="42.85355" lon="-0.46436">
        <ele>1513.2</ele>
        <time>2021-08-09 12:36:11</time>
      </trkpt>
      <trkpt lat="42.85354" lon="-0.46437">
        <ele>1513.4</ele>
        <time>2021-08-09 12:36:12</time>
      </trkpt>
      <trkpt lat="42.85354" lon="-0.46438">
        <ele>1513.6</ele>
        <time>2021-08-09 12:36:13</time>
      </trkpt>
      <trkpt lat="42.85354" lon="-0.4644">
        <ele>1513.8</ele>
        <time>2021-08-09 12:36:14</time>
      </trkpt>
      <trkpt lat="42.85354" lon="-0.46441">
        <ele>1513.8</ele>
        <time>2021-08-09 12:36:15</time>
      </trkpt>
      <trkpt lat="42.85353" lon="-0.46443">
        <ele>1514.2</ele>
        <time>2021-08-09 12:36:16</time>
      </trkpt>
      <trkpt lat="42.85353" lon="-0.46444">
        <ele>1514.2</ele>
        <time>2021-08-09 12:36:17</time>
      </trkpt>
      <trkpt lat="42.85353" lon="-0.46445">
        <ele>1514.2</ele>
        <time>2021-08-09 12:36:18</time>
      </trkpt>
      <trkpt lat="42.85352" lon="-0.46446">
        <ele>1514.4</ele>
        <time>2021-08-09 12:36:19</time>
      </trkpt>
      <trkpt lat="42.85353" lon="-0.46448">
        <ele>1514.4</ele>
        <time>2021-08-09 12:36:20</time>
      </trkpt>
      <trkpt lat="42.85353" lon="-0.46449">
        <ele>1514.6</ele>
        <time>2021-08-09 12:36:21</time>
      </trkpt>
      <trkpt lat="42.85352" lon="-0.46449">
        <ele>1514.8</ele>
        <time>2021-08-09 12:36:22</time>
      </trkpt>
      <trkpt lat="42.85352" lon="-0.4645">
        <ele>1515</ele>
        <time>2021-08-09 12:36:23</time>
      </trkpt>
      <trkpt lat="42.85352" lon="-0.46452">
        <ele>1515.2</ele>
        <time>2021-08-09 12:36:24</time>
      </trkpt>
      <trkpt lat="42.85352" lon="-0.46453">
        <ele>1515.4</ele>
        <time>2021-08-09 12:36:25</time>
      </trkpt>
      <trkpt lat="42.85352" lon="-0.46454">
        <ele>1515.4</ele>
        <time>2021-08-09 12:36:26</time>
      </trkpt>
      <trkpt lat="42.85352" lon="-0.46455">
        <ele>1515.8</ele>
        <time>2021-08-09 12:36:27</time>
      </trkpt>
      <trkpt lat="42.85352" lon="-0.46455">
        <ele>1516</ele>
        <time>2021-08-09 12:36:28</time>
      </trkpt>
      <trkpt lat="42.85353" lon="-0.46457">
        <ele>1516</ele>
        <time>2021-08-09 12:36:29</time>
      </trkpt>
      <trkpt lat="42.85352" lon="-0.46458">
        <ele>1516</ele>
        <time>2021-08-09 12:36:30</time>
      </trkpt>
      <trkpt lat="42.85352" lon="-0.46459">
        <ele>1516.2</ele>
        <time>2021-08-09 12:36:31</time>
      </trkpt>
      <trkpt lat="42.85352" lon="-0.4646">
        <ele>1516.6</ele>
        <time>2021-08-09 12:36:32</time>
      </trkpt>
      <trkpt lat="42.85351" lon="-0.46462">
        <ele>1516.6</ele>
        <time>2021-08-09 12:36:33</time>
      </trkpt>
      <trkpt lat="42.85351" lon="-0.46462">
        <ele>1516.8</ele>
        <time>2021-08-09 12:36:34</time>
      </trkpt>
      <trkpt lat="42.85351" lon="-0.46463">
        <ele>1517</ele>
        <time>2021-08-09 12:36:35</time>
      </trkpt>
      <trkpt lat="42.85352" lon="-0.46463">
        <ele>1517.2</ele>
        <time>2021-08-09 12:36:36</time>
      </trkpt>
      <trkpt lat="42.85352" lon="-0.46464">
        <ele>1517.4</ele>
        <time>2021-08-09 12:36:37</time>
      </trkpt>
      <trkpt lat="42.85352" lon="-0.46465">
        <ele>1517.6</ele>
        <time>2021-08-09 12:36:38</time>
      </trkpt>
      <trkpt lat="42.85352" lon="-0.46465">
        <ele>1517.8</ele>
        <time>2021-08-09 12:36:39</time>
      </trkpt>
      <trkpt lat="42.85351" lon="-0.46467">
        <ele>1518</ele>
        <time>2021-08-09 12:36:40</time>
      </trkpt>
      <trkpt lat="42.8535" lon="-0.46468">
        <ele>1518</ele>
        <time>2021-08-09 12:36:41</time>
      </trkpt>
      <trkpt lat="42.8535" lon="-0.4647">
        <ele>1518.2</ele>
        <time>2021-08-09 12:36:42</time>
      </trkpt>
      <trkpt lat="42.8535" lon="-0.4647">
        <ele>1518.4</ele>
        <time>2021-08-09 12:36:43</time>
      </trkpt>
      <trkpt lat="42.8535" lon="-0.46471">
        <ele>1518.4</ele>
        <time>2021-08-09 12:36:44</time>
      </trkpt>
      <trkpt lat="42.8535" lon="-0.46472">
        <ele>1518.6</ele>
        <time>2021-08-09 12:36:45</time>
      </trkpt>
      <trkpt lat="42.85349" lon="-0.46473">
        <ele>1518.6</ele>
        <time>2021-08-09 12:36:46</time>
      </trkpt>
      <trkpt lat="42.85349" lon="-0.46473">
        <ele>1518.8</ele>
        <time>2021-08-09 12:36:47</time>
      </trkpt>
      <trkpt lat="42.85349" lon="-0.46474">
        <ele>1519</ele>
        <time>2021-08-09 12:36:48</time>
      </trkpt>
      <trkpt lat="42.85349" lon="-0.46475">
        <ele>1519.2</ele>
        <time>2021-08-09 12:36:49</time>
      </trkpt>
      <trkpt lat="42.85348" lon="-0.46476">
        <ele>1519.4</ele>
        <time>2021-08-09 12:36:50</time>
      </trkpt>
      <trkpt lat="42.85348" lon="-0.46479">
        <ele>1519.2</ele>
        <time>2021-08-09 12:36:51</time>
      </trkpt>
      <trkpt lat="42.85348" lon="-0.46479">
        <ele>1519.4</ele>
        <time>2021-08-09 12:36:52</time>
      </trkpt>
      <trkpt lat="42.85347" lon="-0.4648">
        <ele>1519.6</ele>
        <time>2021-08-09 12:36:53</time>
      </trkpt>
      <trkpt lat="42.85347" lon="-0.4648">
        <ele>1519.8</ele>
        <time>2021-08-09 12:36:54</time>
      </trkpt>
      <trkpt lat="42.85347" lon="-0.46482">
        <ele>1520</ele>
        <time>2021-08-09 12:36:55</time>
      </trkpt>
      <trkpt lat="42.85347" lon="-0.46484">
        <ele>1520</ele>
        <time>2021-08-09 12:36:56</time>
      </trkpt>
      <trkpt lat="42.85346" lon="-0.46485">
        <ele>1520.2</ele>
        <time>2021-08-09 12:36:57</time>
      </trkpt>
      <trkpt lat="42.85345" lon="-0.46485">
        <ele>1520.4</ele>
        <time>2021-08-09 12:36:58</time>
      </trkpt>
      <trkpt lat="42.85344" lon="-0.46487">
        <ele>1520.8</ele>
        <time>2021-08-09 12:36:59</time>
      </trkpt>
      <trkpt lat="42.85343" lon="-0.46489">
        <ele>1520.8</ele>
        <time>2021-08-09 12:37:00</time>
      </trkpt>
      <trkpt lat="42.85343" lon="-0.4649">
        <ele>1521</ele>
        <time>2021-08-09 12:37:01</time>
      </trkpt>
      <trkpt lat="42.85343" lon="-0.46491">
        <ele>1521.2</ele>
        <time>2021-08-09 12:37:02</time>
      </trkpt>
      <trkpt lat="42.85344" lon="-0.46493">
        <ele>1521.2</ele>
        <time>2021-08-09 12:37:03</time>
      </trkpt>
      <trkpt lat="42.85343" lon="-0.46494">
        <ele>1521.4</ele>
        <time>2021-08-09 12:37:04</time>
      </trkpt>
      <trkpt lat="42.85343" lon="-0.46495">
        <ele>1521.6</ele>
        <time>2021-08-09 12:37:05</time>
      </trkpt>
      <trkpt lat="42.85342" lon="-0.46496">
        <ele>1521.6</ele>
        <time>2021-08-09 12:37:06</time>
      </trkpt>
      <trkpt lat="42.85342" lon="-0.46497">
        <ele>1521.8</ele>
        <time>2021-08-09 12:37:07</time>
      </trkpt>
      <trkpt lat="42.85342" lon="-0.46498">
        <ele>1521.8</ele>
        <time>2021-08-09 12:37:08</time>
      </trkpt>
      <trkpt lat="42.85342" lon="-0.46499">
        <ele>1521.8</ele>
        <time>2021-08-09 12:37:09</time>
      </trkpt>
      <trkpt lat="42.85341" lon="-0.465">
        <ele>1522</ele>
        <time>2021-08-09 12:37:10</time>
      </trkpt>
      <trkpt lat="42.8534" lon="-0.46499">
        <ele>1522</ele>
        <time>2021-08-09 12:37:11</time>
      </trkpt>
      <trkpt lat="42.8534" lon="-0.46499">
        <ele>1522</ele>
        <time>2021-08-09 12:37:12</time>
      </trkpt>
      <trkpt lat="42.8534" lon="-0.46501">
        <ele>1521.8</ele>
        <time>2021-08-09 12:37:13</time>
      </trkpt>
      <trkpt lat="42.85339" lon="-0.46502">
        <ele>1521.8</ele>
        <time>2021-08-09 12:37:14</time>
      </trkpt>
      <trkpt lat="42.85339" lon="-0.46503">
        <ele>1522</ele>
        <time>2021-08-09 12:37:15</time>
      </trkpt>
      <trkpt lat="42.85338" lon="-0.46505">
        <ele>1522.2</ele>
        <time>2021-08-09 12:37:16</time>
      </trkpt>
      <trkpt lat="42.85338" lon="-0.46506">
        <ele>1522.2</ele>
        <time>2021-08-09 12:37:17</time>
      </trkpt>
      <trkpt lat="42.85337" lon="-0.46508">
        <ele>1522.2</ele>
        <time>2021-08-09 12:37:18</time>
      </trkpt>
      <trkpt lat="42.85337" lon="-0.46509">
        <ele>1522.6</ele>
        <time>2021-08-09 12:37:19</time>
      </trkpt>
      <trkpt lat="42.85337" lon="-0.4651">
        <ele>1522.8</ele>
        <time>2021-08-09 12:37:20</time>
      </trkpt>
      <trkpt lat="42.85336" lon="-0.46511">
        <ele>1522.8</ele>
        <time>2021-08-09 12:37:21</time>
      </trkpt>
      <trkpt lat="42.85336" lon="-0.46513">
        <ele>1522.8</ele>
        <time>2021-08-09 12:37:22</time>
      </trkpt>
      <trkpt lat="42.85335" lon="-0.46514">
        <ele>1523</ele>
        <time>2021-08-09 12:37:23</time>
      </trkpt>
      <trkpt lat="42.85336" lon="-0.46515">
        <ele>1523.2</ele>
        <time>2021-08-09 12:37:24</time>
      </trkpt>
      <trkpt lat="42.85336" lon="-0.46516">
        <ele>1523.4</ele>
        <time>2021-08-09 12:37:25</time>
      </trkpt>
      <trkpt lat="42.85336" lon="-0.46517">
        <ele>1523.6</ele>
        <time>2021-08-09 12:37:26</time>
      </trkpt>
      <trkpt lat="42.85336" lon="-0.46518">
        <ele>1523.8</ele>
        <time>2021-08-09 12:37:27</time>
      </trkpt>
      <trkpt lat="42.85336" lon="-0.46519">
        <ele>1523.8</ele>
        <time>2021-08-09 12:37:28</time>
      </trkpt>
      <trkpt lat="42.85336" lon="-0.4652">
        <ele>1524.2</ele>
        <time>2021-08-09 12:37:29</time>
      </trkpt>
      <trkpt lat="42.85337" lon="-0.46521">
        <ele>1524.2</ele>
        <time>2021-08-09 12:37:30</time>
      </trkpt>
      <trkpt lat="42.85336" lon="-0.46522">
        <ele>1524.2</ele>
        <time>2021-08-09 12:37:31</time>
      </trkpt>
      <trkpt lat="42.85337" lon="-0.46523">
        <ele>1524.4</ele>
        <time>2021-08-09 12:37:32</time>
      </trkpt>
      <trkpt lat="42.85337" lon="-0.46524">
        <ele>1524.8</ele>
        <time>2021-08-09 12:37:33</time>
      </trkpt>
      <trkpt lat="42.85337" lon="-0.46525">
        <ele>1525</ele>
        <time>2021-08-09 12:37:34</time>
      </trkpt>
      <trkpt lat="42.85337" lon="-0.46527">
        <ele>1525.2</ele>
        <time>2021-08-09 12:37:35</time>
      </trkpt>
      <trkpt lat="42.85336" lon="-0.46528">
        <ele>1525.2</ele>
        <time>2021-08-09 12:37:36</time>
      </trkpt>
      <trkpt lat="42.85336" lon="-0.46529">
        <ele>1525.4</ele>
        <time>2021-08-09 12:37:37</time>
      </trkpt>
      <trkpt lat="42.85336" lon="-0.46531">
        <ele>1525.4</ele>
        <time>2021-08-09 12:37:38</time>
      </trkpt>
      <trkpt lat="42.85335" lon="-0.46532">
        <ele>1525.6</ele>
        <time>2021-08-09 12:37:39</time>
      </trkpt>
      <trkpt lat="42.85335" lon="-0.46534">
        <ele>1525.6</ele>
        <time>2021-08-09 12:37:40</time>
      </trkpt>
      <trkpt lat="42.85335" lon="-0.46535">
        <ele>1526</ele>
        <time>2021-08-09 12:37:41</time>
      </trkpt>
      <trkpt lat="42.85335" lon="-0.46535">
        <ele>1526.2</ele>
        <time>2021-08-09 12:37:42</time>
      </trkpt>
      <trkpt lat="42.85335" lon="-0.46536">
        <ele>1526.2</ele>
        <time>2021-08-09 12:37:43</time>
      </trkpt>
      <trkpt lat="42.85336" lon="-0.46537">
        <ele>1526.4</ele>
        <time>2021-08-09 12:37:44</time>
      </trkpt>
      <trkpt lat="42.85336" lon="-0.46538">
        <ele>1526.6</ele>
        <time>2021-08-09 12:37:45</time>
      </trkpt>
      <trkpt lat="42.85337" lon="-0.46539">
        <ele>1526.8</ele>
        <time>2021-08-09 12:37:46</time>
      </trkpt>
      <trkpt lat="42.85337" lon="-0.46539">
        <ele>1527</ele>
        <time>2021-08-09 12:37:47</time>
      </trkpt>
      <trkpt lat="42.85337" lon="-0.4654">
        <ele>1527</ele>
        <time>2021-08-09 12:37:48</time>
      </trkpt>
      <trkpt lat="42.85337" lon="-0.46541">
        <ele>1527.2</ele>
        <time>2021-08-09 12:37:49</time>
      </trkpt>
      <trkpt lat="42.85337" lon="-0.46543">
        <ele>1527.4</ele>
        <time>2021-08-09 12:37:50</time>
      </trkpt>
      <trkpt lat="42.85337" lon="-0.46544">
        <ele>1527.8</ele>
        <time>2021-08-09 12:37:51</time>
      </trkpt>
      <trkpt lat="42.85337" lon="-0.46545">
        <ele>1527.8</ele>
        <time>2021-08-09 12:37:52</time>
      </trkpt>
      <trkpt lat="42.85336" lon="-0.46546">
        <ele>1528</ele>
        <time>2021-08-09 12:37:53</time>
      </trkpt>
      <trkpt lat="42.85336" lon="-0.46547">
        <ele>1528.2</ele>
        <time>2021-08-09 12:37:54</time>
      </trkpt>
      <trkpt lat="42.85336" lon="-0.46548">
        <ele>1528.6</ele>
        <time>2021-08-09 12:37:55</time>
      </trkpt>
      <trkpt lat="42.85335" lon="-0.46549">
        <ele>1528.6</ele>
        <time>2021-08-09 12:37:56</time>
      </trkpt>
      <trkpt lat="42.85335" lon="-0.46549">
        <ele>1529</ele>
        <time>2021-08-09 12:37:57</time>
      </trkpt>
      <trkpt lat="42.85336" lon="-0.46552">
        <ele>1529.2</ele>
        <time>2021-08-09 12:37:58</time>
      </trkpt>
      <trkpt lat="42.85335" lon="-0.46553">
        <ele>1529.4</ele>
        <time>2021-08-09 12:37:59</time>
      </trkpt>
      <trkpt lat="42.85336" lon="-0.46554">
        <ele>1529.6</ele>
        <time>2021-08-09 12:38:00</time>
      </trkpt>
      <trkpt lat="42.85336" lon="-0.46555">
        <ele>1529.8</ele>
        <time>2021-08-09 12:38:01</time>
      </trkpt>
      <trkpt lat="42.85336" lon="-0.46556">
        <ele>1529.8</ele>
        <time>2021-08-09 12:38:02</time>
      </trkpt>
      <trkpt lat="42.85336" lon="-0.46557">
        <ele>1530</ele>
        <time>2021-08-09 12:38:03</time>
      </trkpt>
      <trkpt lat="42.85336" lon="-0.46559">
        <ele>1530</ele>
        <time>2021-08-09 12:38:04</time>
      </trkpt>
      <trkpt lat="42.85336" lon="-0.46559">
        <ele>1530</ele>
        <time>2021-08-09 12:38:05</time>
      </trkpt>
      <trkpt lat="42.85336" lon="-0.46561">
        <ele>1530.2</ele>
        <time>2021-08-09 12:38:06</time>
      </trkpt>
      <trkpt lat="42.85336" lon="-0.46562">
        <ele>1530.2</ele>
        <time>2021-08-09 12:38:07</time>
      </trkpt>
      <trkpt lat="42.85337" lon="-0.46563">
        <ele>1530.4</ele>
        <time>2021-08-09 12:38:08</time>
      </trkpt>
      <trkpt lat="42.85337" lon="-0.46564">
        <ele>1530.2</ele>
        <time>2021-08-09 12:38:09</time>
      </trkpt>
      <trkpt lat="42.85337" lon="-0.46565">
        <ele>1530.4</ele>
        <time>2021-08-09 12:38:10</time>
      </trkpt>
      <trkpt lat="42.85337" lon="-0.46566">
        <ele>1530.4</ele>
        <time>2021-08-09 12:38:11</time>
      </trkpt>
      <trkpt lat="42.85336" lon="-0.46566">
        <ele>1530.6</ele>
        <time>2021-08-09 12:38:12</time>
      </trkpt>
      <trkpt lat="42.85336" lon="-0.46567">
        <ele>1530.8</ele>
        <time>2021-08-09 12:38:13</time>
      </trkpt>
      <trkpt lat="42.85336" lon="-0.46568">
        <ele>1530.8</ele>
        <time>2021-08-09 12:38:14</time>
      </trkpt>
      <trkpt lat="42.85335" lon="-0.46569">
        <ele>1531</ele>
        <time>2021-08-09 12:38:15</time>
      </trkpt>
      <trkpt lat="42.85335" lon="-0.46571">
        <ele>1531</ele>
        <time>2021-08-09 12:38:16</time>
      </trkpt>
      <trkpt lat="42.85335" lon="-0.46571">
        <ele>1531.2</ele>
        <time>2021-08-09 12:38:17</time>
      </trkpt>
      <trkpt lat="42.85335" lon="-0.46572">
        <ele>1531.4</ele>
        <time>2021-08-09 12:38:18</time>
      </trkpt>
      <trkpt lat="42.85335" lon="-0.46572">
        <ele>1531.6</ele>
        <time>2021-08-09 12:38:19</time>
      </trkpt>
      <trkpt lat="42.85335" lon="-0.46573">
        <ele>1531.8</ele>
        <time>2021-08-09 12:38:20</time>
      </trkpt>
      <trkpt lat="42.85335" lon="-0.46574">
        <ele>1531.8</ele>
        <time>2021-08-09 12:38:21</time>
      </trkpt>
      <trkpt lat="42.85334" lon="-0.46574">
        <ele>1532</ele>
        <time>2021-08-09 12:38:22</time>
      </trkpt>
      <trkpt lat="42.85334" lon="-0.46576">
        <ele>1532.2</ele>
        <time>2021-08-09 12:38:23</time>
      </trkpt>
      <trkpt lat="42.85334" lon="-0.46577">
        <ele>1532.4</ele>
        <time>2021-08-09 12:38:24</time>
      </trkpt>
      <trkpt lat="42.85333" lon="-0.46578">
        <ele>1532.6</ele>
        <time>2021-08-09 12:38:25</time>
      </trkpt>
      <trkpt lat="42.85333" lon="-0.46579">
        <ele>1532.6</ele>
        <time>2021-08-09 12:38:26</time>
      </trkpt>
      <trkpt lat="42.85333" lon="-0.4658">
        <ele>1532.8</ele>
        <time>2021-08-09 12:38:27</time>
      </trkpt>
      <trkpt lat="42.85333" lon="-0.46581">
        <ele>1533</ele>
        <time>2021-08-09 12:38:28</time>
      </trkpt>
      <trkpt lat="42.85333" lon="-0.46582">
        <ele>1533.2</ele>
        <time>2021-08-09 12:38:29</time>
      </trkpt>
      <trkpt lat="42.85333" lon="-0.46583">
        <ele>1533.2</ele>
        <time>2021-08-09 12:38:30</time>
      </trkpt>
      <trkpt lat="42.85334" lon="-0.46584">
        <ele>1533.2</ele>
        <time>2021-08-09 12:38:31</time>
      </trkpt>
      <trkpt lat="42.85335" lon="-0.46585">
        <ele>1533.4</ele>
        <time>2021-08-09 12:38:32</time>
      </trkpt>
      <trkpt lat="42.85335" lon="-0.46586">
        <ele>1533.6</ele>
        <time>2021-08-09 12:38:33</time>
      </trkpt>
      <trkpt lat="42.85335" lon="-0.46586">
        <ele>1533.8</ele>
        <time>2021-08-09 12:38:34</time>
      </trkpt>
      <trkpt lat="42.85335" lon="-0.46586">
        <ele>1533.8</ele>
        <time>2021-08-09 12:38:35</time>
      </trkpt>
      <trkpt lat="42.85335" lon="-0.46588">
        <ele>1534</ele>
        <time>2021-08-09 12:38:36</time>
      </trkpt>
      <trkpt lat="42.85335" lon="-0.4659">
        <ele>1534</ele>
        <time>2021-08-09 12:38:37</time>
      </trkpt>
      <trkpt lat="42.85336" lon="-0.46591">
        <ele>1534</ele>
        <time>2021-08-09 12:38:38</time>
      </trkpt>
      <trkpt lat="42.85335" lon="-0.46592">
        <ele>1534.2</ele>
        <time>2021-08-09 12:38:39</time>
      </trkpt>
      <trkpt lat="42.85335" lon="-0.46593">
        <ele>1534.2</ele>
        <time>2021-08-09 12:38:40</time>
      </trkpt>
      <trkpt lat="42.85334" lon="-0.46595">
        <ele>1534.4</ele>
        <time>2021-08-09 12:38:41</time>
      </trkpt>
      <trkpt lat="42.85333" lon="-0.46595">
        <ele>1534.4</ele>
        <time>2021-08-09 12:38:42</time>
      </trkpt>
      <trkpt lat="42.85333" lon="-0.46596">
        <ele>1534.6</ele>
        <time>2021-08-09 12:38:43</time>
      </trkpt>
      <trkpt lat="42.85332" lon="-0.46597">
        <ele>1534.8</ele>
        <time>2021-08-09 12:38:44</time>
      </trkpt>
      <trkpt lat="42.85333" lon="-0.46599">
        <ele>1534.8</ele>
        <time>2021-08-09 12:38:45</time>
      </trkpt>
      <trkpt lat="42.85332" lon="-0.46599">
        <ele>1535</ele>
        <time>2021-08-09 12:38:46</time>
      </trkpt>
      <trkpt lat="42.85332" lon="-0.46601">
        <ele>1535.2</ele>
        <time>2021-08-09 12:38:47</time>
      </trkpt>
      <trkpt lat="42.85332" lon="-0.46602">
        <ele>1535.2</ele>
        <time>2021-08-09 12:38:48</time>
      </trkpt>
      <trkpt lat="42.85332" lon="-0.46603">
        <ele>1535.4</ele>
        <time>2021-08-09 12:38:49</time>
      </trkpt>
      <trkpt lat="42.85333" lon="-0.46605">
        <ele>1535.6</ele>
        <time>2021-08-09 12:38:50</time>
      </trkpt>
      <trkpt lat="42.85332" lon="-0.46606">
        <ele>1535.6</ele>
        <time>2021-08-09 12:38:51</time>
      </trkpt>
      <trkpt lat="42.85332" lon="-0.46607">
        <ele>1535.8</ele>
        <time>2021-08-09 12:38:52</time>
      </trkpt>
      <trkpt lat="42.85332" lon="-0.46609">
        <ele>1536</ele>
        <time>2021-08-09 12:38:53</time>
      </trkpt>
      <trkpt lat="42.85332" lon="-0.46609">
        <ele>1536</ele>
        <time>2021-08-09 12:38:54</time>
      </trkpt>
      <trkpt lat="42.85331" lon="-0.46609">
        <ele>1536.2</ele>
        <time>2021-08-09 12:38:55</time>
      </trkpt>
      <trkpt lat="42.85331" lon="-0.46612">
        <ele>1536.2</ele>
        <time>2021-08-09 12:38:56</time>
      </trkpt>
      <trkpt lat="42.85332" lon="-0.46613">
        <ele>1536.4</ele>
        <time>2021-08-09 12:38:57</time>
      </trkpt>
      <trkpt lat="42.85332" lon="-0.46615">
        <ele>1536.4</ele>
        <time>2021-08-09 12:38:58</time>
      </trkpt>
      <trkpt lat="42.85332" lon="-0.46616">
        <ele>1536.8</ele>
        <time>2021-08-09 12:38:59</time>
      </trkpt>
      <trkpt lat="42.85332" lon="-0.46617">
        <ele>1537</ele>
        <time>2021-08-09 12:39:00</time>
      </trkpt>
      <trkpt lat="42.85333" lon="-0.46619">
        <ele>1537.4</ele>
        <time>2021-08-09 12:39:01</time>
      </trkpt>
      <trkpt lat="42.85333" lon="-0.46621">
        <ele>1537.6</ele>
        <time>2021-08-09 12:39:02</time>
      </trkpt>
      <trkpt lat="42.85332" lon="-0.46621">
        <ele>1537.8</ele>
        <time>2021-08-09 12:39:03</time>
      </trkpt>
      <trkpt lat="42.85332" lon="-0.46623">
        <ele>1537.6</ele>
        <time>2021-08-09 12:39:04</time>
      </trkpt>
      <trkpt lat="42.85332" lon="-0.46624">
        <ele>1537.8</ele>
        <time>2021-08-09 12:39:05</time>
      </trkpt>
      <trkpt lat="42.85332" lon="-0.46626">
        <ele>1538.2</ele>
        <time>2021-08-09 12:39:06</time>
      </trkpt>
      <trkpt lat="42.85332" lon="-0.46626">
        <ele>1538.4</ele>
        <time>2021-08-09 12:39:07</time>
      </trkpt>
      <trkpt lat="42.85331" lon="-0.46628">
        <ele>1538.4</ele>
        <time>2021-08-09 12:39:08</time>
      </trkpt>
      <trkpt lat="42.85331" lon="-0.4663">
        <ele>1538.4</ele>
        <time>2021-08-09 12:39:09</time>
      </trkpt>
      <trkpt lat="42.85331" lon="-0.46631">
        <ele>1538.6</ele>
        <time>2021-08-09 12:39:10</time>
      </trkpt>
      <trkpt lat="42.85331" lon="-0.46632">
        <ele>1538.8</ele>
        <time>2021-08-09 12:39:11</time>
      </trkpt>
      <trkpt lat="42.85332" lon="-0.46634">
        <ele>1539</ele>
        <time>2021-08-09 12:39:12</time>
      </trkpt>
      <trkpt lat="42.85332" lon="-0.46636">
        <ele>1539</ele>
        <time>2021-08-09 12:39:13</time>
      </trkpt>
      <trkpt lat="42.85331" lon="-0.46638">
        <ele>1539.2</ele>
        <time>2021-08-09 12:39:14</time>
      </trkpt>
      <trkpt lat="42.85331" lon="-0.46639">
        <ele>1539.4</ele>
        <time>2021-08-09 12:39:15</time>
      </trkpt>
      <trkpt lat="42.85331" lon="-0.46641">
        <ele>1539.4</ele>
        <time>2021-08-09 12:39:16</time>
      </trkpt>
      <trkpt lat="42.8533" lon="-0.46642">
        <ele>1539.4</ele>
        <time>2021-08-09 12:39:17</time>
      </trkpt>
      <trkpt lat="42.8533" lon="-0.46643">
        <ele>1539.4</ele>
        <time>2021-08-09 12:39:18</time>
      </trkpt>
      <trkpt lat="42.85329" lon="-0.46644">
        <ele>1539.6</ele>
        <time>2021-08-09 12:39:19</time>
      </trkpt>
      <trkpt lat="42.85329" lon="-0.46646">
        <ele>1540</ele>
        <time>2021-08-09 12:39:20</time>
      </trkpt>
      <trkpt lat="42.85329" lon="-0.46647">
        <ele>1540.2</ele>
        <time>2021-08-09 12:39:21</time>
      </trkpt>
      <trkpt lat="42.85329" lon="-0.46645">
        <ele>1540.4</ele>
        <time>2021-08-09 12:39:22</time>
      </trkpt>
      <trkpt lat="42.85329" lon="-0.46647">
        <ele>1540.6</ele>
        <time>2021-08-09 12:39:23</time>
      </trkpt>
      <trkpt lat="42.85328" lon="-0.46646">
        <ele>1540.6</ele>
        <time>2021-08-09 12:39:24</time>
      </trkpt>
      <trkpt lat="42.85328" lon="-0.46648">
        <ele>1540.8</ele>
        <time>2021-08-09 12:39:25</time>
      </trkpt>
      <trkpt lat="42.85327" lon="-0.46648">
        <ele>1541</ele>
        <time>2021-08-09 12:39:26</time>
      </trkpt>
      <trkpt lat="42.85327" lon="-0.46648">
        <ele>1541</ele>
        <time>2021-08-09 12:39:27</time>
      </trkpt>
      <trkpt lat="42.85327" lon="-0.46649">
        <ele>1541</ele>
        <time>2021-08-09 12:39:28</time>
      </trkpt>
      <trkpt lat="42.85327" lon="-0.46649">
        <ele>1541</ele>
        <time>2021-08-09 12:39:29</time>
      </trkpt>
      <trkpt lat="42.85327" lon="-0.4665">
        <ele>1541.2</ele>
        <time>2021-08-09 12:39:30</time>
      </trkpt>
      <trkpt lat="42.85328" lon="-0.4665">
        <ele>1541.2</ele>
        <time>2021-08-09 12:39:31</time>
      </trkpt>
      <trkpt lat="42.85328" lon="-0.46651">
        <ele>1541.2</ele>
        <time>2021-08-09 12:39:32</time>
      </trkpt>
      <trkpt lat="42.85328" lon="-0.46651">
        <ele>1541.4</ele>
        <time>2021-08-09 12:39:33</time>
      </trkpt>
      <trkpt lat="42.85328" lon="-0.46652">
        <ele>1541.4</ele>
        <time>2021-08-09 12:39:34</time>
      </trkpt>
      <trkpt lat="42.85329" lon="-0.46653">
        <ele>1541.6</ele>
        <time>2021-08-09 12:39:35</time>
      </trkpt>
      <trkpt lat="42.85329" lon="-0.46653">
        <ele>1541.8</ele>
        <time>2021-08-09 12:39:36</time>
      </trkpt>
      <trkpt lat="42.8533" lon="-0.46653">
        <ele>1542</ele>
        <time>2021-08-09 12:39:37</time>
      </trkpt>
      <trkpt lat="42.8533" lon="-0.46652">
        <ele>1542.2</ele>
        <time>2021-08-09 12:39:38</time>
      </trkpt>
      <trkpt lat="42.8533" lon="-0.46653">
        <ele>1542.2</ele>
        <time>2021-08-09 12:39:39</time>
      </trkpt>
      <trkpt lat="42.85327" lon="-0.46654">
        <ele>1542.4</ele>
        <time>2021-08-09 12:39:40</time>
      </trkpt>
      <trkpt lat="42.85324" lon="-0.46655">
        <ele>1542.2</ele>
        <time>2021-08-09 12:39:41</time>
      </trkpt>
      <trkpt lat="42.85323" lon="-0.46656">
        <ele>1541.6</ele>
        <time>2021-08-09 12:39:42</time>
      </trkpt>
      <trkpt lat="42.85323" lon="-0.46656">
        <ele>1541.6</ele>
        <time>2021-08-09 12:39:43</time>
      </trkpt>
      <trkpt lat="42.85323" lon="-0.46656">
        <ele>1541.4</ele>
        <time>2021-08-09 12:39:44</time>
      </trkpt>
      <trkpt lat="42.85323" lon="-0.46656">
        <ele>1541.6</ele>
        <time>2021-08-09 12:39:45</time>
      </trkpt>
      <trkpt lat="42.85324" lon="-0.46656">
        <ele>1541.4</ele>
        <time>2021-08-09 12:39:46</time>
      </trkpt>
      <trkpt lat="42.85323" lon="-0.46656">
        <ele>1541.4</ele>
        <time>2021-08-09 12:39:47</time>
      </trkpt>
      <trkpt lat="42.85323" lon="-0.46656">
        <ele>1541.4</ele>
        <time>2021-08-09 12:39:48</time>
      </trkpt>
      <trkpt lat="42.85314" lon="-0.46658">
        <ele>1541.4</ele>
        <time>2021-08-09 12:39:49</time>
      </trkpt>
      <trkpt lat="42.85314" lon="-0.46658">
        <ele>1541.4</ele>
        <time>2021-08-09 12:39:50</time>
      </trkpt>
      <trkpt lat="42.85313" lon="-0.46659">
        <ele>1541.4</ele>
        <time>2021-08-09 12:39:51</time>
      </trkpt>
      <trkpt lat="42.85314" lon="-0.46659">
        <ele>1541.6</ele>
        <time>2021-08-09 12:39:52</time>
      </trkpt>
      <trkpt lat="42.85314" lon="-0.46659">
        <ele>1541.4</ele>
        <time>2021-08-09 12:39:53</time>
      </trkpt>
      <trkpt lat="42.85314" lon="-0.46659">
        <ele>1541.6</ele>
        <time>2021-08-09 12:39:54</time>
      </trkpt>
      <trkpt lat="42.85317" lon="-0.46664">
        <ele>1541.6</ele>
        <time>2021-08-09 12:39:55</time>
      </trkpt>
      <trkpt lat="42.85318" lon="-0.46664">
        <ele>1541.6</ele>
        <time>2021-08-09 12:39:56</time>
      </trkpt>
      <trkpt lat="42.85318" lon="-0.46665">
        <ele>1541.6</ele>
        <time>2021-08-09 12:39:57</time>
      </trkpt>
      <trkpt lat="42.85318" lon="-0.46665">
        <ele>1541.6</ele>
        <time>2021-08-09 12:39:58</time>
      </trkpt>
      <trkpt lat="42.85318" lon="-0.46665">
        <ele>1541.8</ele>
        <time>2021-08-09 12:39:59</time>
      </trkpt>
      <trkpt lat="42.85318" lon="-0.46664">
        <ele>1541.6</ele>
        <time>2021-08-09 12:40:00</time>
      </trkpt>
      <trkpt lat="42.85317" lon="-0.46664">
        <ele>1541.6</ele>
        <time>2021-08-09 12:40:01</time>
      </trkpt>
      <trkpt lat="42.85317" lon="-0.46664">
        <ele>1541.6</ele>
        <time>2021-08-09 12:40:02</time>
      </trkpt>
      <trkpt lat="42.85317" lon="-0.46664">
        <ele>1541.8</ele>
        <time>2021-08-09 12:40:03</time>
      </trkpt>
      <trkpt lat="42.85317" lon="-0.46664">
        <ele>1541.6</ele>
        <time>2021-08-09 12:40:04</time>
      </trkpt>
      <trkpt lat="42.85313" lon="-0.46661">
        <ele>1542</ele>
        <time>2021-08-09 12:40:05</time>
      </trkpt>
      <trkpt lat="42.85313" lon="-0.46661">
        <ele>1542.2</ele>
        <time>2021-08-09 12:40:06</time>
      </trkpt>
      <trkpt lat="42.85313" lon="-0.46662">
        <ele>1542.2</ele>
        <time>2021-08-09 12:40:08</time>
      </trkpt>
      <trkpt lat="42.85313" lon="-0.46662">
        <ele>1542</ele>
        <time>2021-08-09 12:40:09</time>
      </trkpt>
      <trkpt lat="42.85313" lon="-0.46662">
        <ele>1542</ele>
        <time>2021-08-09 12:40:10</time>
      </trkpt>
      <trkpt lat="42.85313" lon="-0.46662">
        <ele>1542.2</ele>
        <time>2021-08-09 12:40:11</time>
      </trkpt>
      <trkpt lat="42.85313" lon="-0.46662">
        <ele>1542.2</ele>
        <time>2021-08-09 12:40:12</time>
      </trkpt>
      <trkpt lat="42.85314" lon="-0.46663">
        <ele>1541.8</ele>
        <time>2021-08-09 12:40:13</time>
      </trkpt>
      <trkpt lat="42.85314" lon="-0.46663">
        <ele>1541.8</ele>
        <time>2021-08-09 12:40:14</time>
      </trkpt>
      <trkpt lat="42.85314" lon="-0.46663">
        <ele>1541.8</ele>
        <time>2021-08-09 12:40:15</time>
      </trkpt>
      <trkpt lat="42.85314" lon="-0.46663">
        <ele>1541.6</ele>
        <time>2021-08-09 12:40:16</time>
      </trkpt>
      <trkpt lat="42.85314" lon="-0.46662">
        <ele>1541.8</ele>
        <time>2021-08-09 12:40:17</time>
      </trkpt>
      <trkpt lat="42.85314" lon="-0.46662">
        <ele>1541.6</ele>
        <time>2021-08-09 12:40:18</time>
      </trkpt>
      <trkpt lat="42.8531" lon="-0.4665">
        <ele>1541.8</ele>
        <time>2021-08-09 12:41:06</time>
      </trkpt>
      <trkpt lat="42.8531" lon="-0.4665">
        <ele>1542.4</ele>
        <time>2021-08-09 12:41:07</time>
      </trkpt>
      <trkpt lat="42.8531" lon="-0.4665">
        <ele>1542.4</ele>
        <time>2021-08-09 12:41:08</time>
      </trkpt>
      <trkpt lat="42.8531" lon="-0.46651">
        <ele>1542.4</ele>
        <time>2021-08-09 12:41:09</time>
      </trkpt>
      <trkpt lat="42.8531" lon="-0.46652">
        <ele>1542.2</ele>
        <time>2021-08-09 12:41:10</time>
      </trkpt>
      <trkpt lat="42.85311" lon="-0.46652">
        <ele>1542.2</ele>
        <time>2021-08-09 12:41:11</time>
      </trkpt>
      <trkpt lat="42.85311" lon="-0.46652">
        <ele>1542.4</ele>
        <time>2021-08-09 12:41:12</time>
      </trkpt>
      <trkpt lat="42.85311" lon="-0.46653">
        <ele>1542.4</ele>
        <time>2021-08-09 12:42:23</time>
      </trkpt>
      <trkpt lat="42.85312" lon="-0.46653">
        <ele>1542.6</ele>
        <time>2021-08-09 12:42:24</time>
      </trkpt>
      <trkpt lat="42.85313" lon="-0.46654">
        <ele>1542.6</ele>
        <time>2021-08-09 12:42:25</time>
      </trkpt>
      <trkpt lat="42.85313" lon="-0.46654">
        <ele>1542.4</ele>
        <time>2021-08-09 12:42:29</time>
      </trkpt>
      <trkpt lat="42.85314" lon="-0.46655">
        <ele>1542.6</ele>
        <time>2021-08-09 12:42:30</time>
      </trkpt>
      <trkpt lat="42.85314" lon="-0.46656">
        <ele>1542.8</ele>
        <time>2021-08-09 12:42:31</time>
      </trkpt>
      <trkpt lat="42.85315" lon="-0.46657">
        <ele>1543</ele>
        <time>2021-08-09 12:43:54</time>
      </trkpt>
      <trkpt lat="42.85315" lon="-0.46658">
        <ele>1543</ele>
        <time>2021-08-09 12:43:55</time>
      </trkpt>
      <trkpt lat="42.85316" lon="-0.46659">
        <ele>1543.2</ele>
        <time>2021-08-09 12:43:56</time>
      </trkpt>
      <trkpt lat="42.85316" lon="-0.46659">
        <ele>1543.4</ele>
        <time>2021-08-09 12:43:57</time>
      </trkpt>
      <trkpt lat="42.85318" lon="-0.4666">
        <ele>1543.6</ele>
        <time>2021-08-09 12:43:58</time>
      </trkpt>
      <trkpt lat="42.85319" lon="-0.4666">
        <ele>1543.8</ele>
        <time>2021-08-09 12:43:59</time>
      </trkpt>
      <trkpt lat="42.85319" lon="-0.4666">
        <ele>1544</ele>
        <time>2021-08-09 12:44:00</time>
      </trkpt>
      <trkpt lat="42.85319" lon="-0.4666">
        <ele>1544</ele>
        <time>2021-08-09 12:44:05</time>
      </trkpt>
      <trkpt lat="42.8532" lon="-0.4666">
        <ele>1544</ele>
        <time>2021-08-09 12:44:06</time>
      </trkpt>
      <trkpt lat="42.8532" lon="-0.46661">
        <ele>1544</ele>
        <time>2021-08-09 12:44:07</time>
      </trkpt>
      <trkpt lat="42.85321" lon="-0.4666">
        <ele>1544.4</ele>
        <time>2021-08-09 12:44:31</time>
      </trkpt>
      <trkpt lat="42.85322" lon="-0.4666">
        <ele>1544.4</ele>
        <time>2021-08-09 12:44:32</time>
      </trkpt>
      <trkpt lat="42.85322" lon="-0.46659">
        <ele>1544.8</ele>
        <time>2021-08-09 12:44:33</time>
      </trkpt>
      <trkpt lat="42.85322" lon="-0.46658">
        <ele>1545</ele>
        <time>2021-08-09 12:44:34</time>
      </trkpt>
      <trkpt lat="42.85322" lon="-0.46658">
        <ele>1545.2</ele>
        <time>2021-08-09 12:44:36</time>
      </trkpt>
      <trkpt lat="42.85322" lon="-0.46655">
        <ele>1545.4</ele>
        <time>2021-08-09 12:44:37</time>
      </trkpt>
      <trkpt lat="42.85321" lon="-0.46655">
        <ele>1545.6</ele>
        <time>2021-08-09 12:44:38</time>
      </trkpt>
      <trkpt lat="42.85321" lon="-0.46654">
        <ele>1545.8</ele>
        <time>2021-08-09 12:44:48</time>
      </trkpt>
      <trkpt lat="42.85322" lon="-0.46654">
        <ele>1546.2</ele>
        <time>2021-08-09 12:44:49</time>
      </trkpt>
      <trkpt lat="42.85322" lon="-0.46654">
        <ele>1546.4</ele>
        <time>2021-08-09 12:44:50</time>
      </trkpt>
      <trkpt lat="42.85322" lon="-0.46654">
        <ele>1546.6</ele>
        <time>2021-08-09 12:44:51</time>
      </trkpt>
      <trkpt lat="42.85323" lon="-0.46654">
        <ele>1546.8</ele>
        <time>2021-08-09 12:44:52</time>
      </trkpt>
      <trkpt lat="42.85323" lon="-0.46653">
        <ele>1547</ele>
        <time>2021-08-09 12:44:53</time>
      </trkpt>
      <trkpt lat="42.85324" lon="-0.46653">
        <ele>1547.2</ele>
        <time>2021-08-09 12:45:47</time>
      </trkpt>
      <trkpt lat="42.85324" lon="-0.46653">
        <ele>1547.2</ele>
        <time>2021-08-09 12:45:48</time>
      </trkpt>
      <trkpt lat="42.85323" lon="-0.46653">
        <ele>1547.4</ele>
        <time>2021-08-09 12:45:49</time>
      </trkpt>
      <trkpt lat="42.85323" lon="-0.46652">
        <ele>1547.8</ele>
        <time>2021-08-09 12:45:50</time>
      </trkpt>
      <trkpt lat="42.85323" lon="-0.46653">
        <ele>1548</ele>
        <time>2021-08-09 12:45:51</time>
      </trkpt>
      <trkpt lat="42.85324" lon="-0.46654">
        <ele>1548.2</ele>
        <time>2021-08-09 12:45:52</time>
      </trkpt>
      <trkpt lat="42.85324" lon="-0.46654">
        <ele>1548.4</ele>
        <time>2021-08-09 12:45:53</time>
      </trkpt>
      <trkpt lat="42.85324" lon="-0.46655">
        <ele>1548.6</ele>
        <time>2021-08-09 12:45:54</time>
      </trkpt>
      <trkpt lat="42.85325" lon="-0.46655">
        <ele>1548.8</ele>
        <time>2021-08-09 12:45:55</time>
      </trkpt>
      <trkpt lat="42.85325" lon="-0.46656">
        <ele>1549</ele>
        <time>2021-08-09 12:45:56</time>
      </trkpt>
      <trkpt lat="42.85326" lon="-0.46657">
        <ele>1549</ele>
        <time>2021-08-09 12:45:57</time>
      </trkpt>
      <trkpt lat="42.85327" lon="-0.46658">
        <ele>1549.4</ele>
        <time>2021-08-09 12:45:58</time>
      </trkpt>
      <trkpt lat="42.85328" lon="-0.4666">
        <ele>1549.4</ele>
        <time>2021-08-09 12:45:59</time>
      </trkpt>
      <trkpt lat="42.8533" lon="-0.46662">
        <ele>1549.4</ele>
        <time>2021-08-09 12:46:00</time>
      </trkpt>
      <trkpt lat="42.85331" lon="-0.46664">
        <ele>1549.4</ele>
        <time>2021-08-09 12:46:01</time>
      </trkpt>
      <trkpt lat="42.85334" lon="-0.46666">
        <ele>1549.6</ele>
        <time>2021-08-09 12:46:02</time>
      </trkpt>
      <trkpt lat="42.85333" lon="-0.46667">
        <ele>1549.8</ele>
        <time>2021-08-09 12:46:03</time>
      </trkpt>
      <trkpt lat="42.85333" lon="-0.46668">
        <ele>1550</ele>
        <time>2021-08-09 12:46:04</time>
      </trkpt>
      <trkpt lat="42.85333" lon="-0.4667">
        <ele>1550.4</ele>
        <time>2021-08-09 12:46:05</time>
      </trkpt>
      <trkpt lat="42.85333" lon="-0.46671">
        <ele>1550.6</ele>
        <time>2021-08-09 12:46:06</time>
      </trkpt>
      <trkpt lat="42.85332" lon="-0.46671">
        <ele>1549.8</ele>
        <time>2021-08-09 12:46:07</time>
      </trkpt>
      <trkpt lat="42.85332" lon="-0.46672">
        <ele>1550.6</ele>
        <time>2021-08-09 12:46:08</time>
      </trkpt>
      <trkpt lat="42.85333" lon="-0.46673">
        <ele>1550.8</ele>
        <time>2021-08-09 12:46:09</time>
      </trkpt>
      <trkpt lat="42.85333" lon="-0.46675">
        <ele>1550.4</ele>
        <time>2021-08-09 12:46:10</time>
      </trkpt>
      <trkpt lat="42.85332" lon="-0.46675">
        <ele>1551.4</ele>
        <time>2021-08-09 12:46:11</time>
      </trkpt>
      <trkpt lat="42.85333" lon="-0.46676">
        <ele>1551.8</ele>
        <time>2021-08-09 12:46:12</time>
      </trkpt>
      <trkpt lat="42.85334" lon="-0.46677">
        <ele>1552.2</ele>
        <time>2021-08-09 12:46:13</time>
      </trkpt>
      <trkpt lat="42.85334" lon="-0.46678">
        <ele>1552.2</ele>
        <time>2021-08-09 12:46:14</time>
      </trkpt>
      <trkpt lat="42.85335" lon="-0.46679">
        <ele>1552.6</ele>
        <time>2021-08-09 12:46:15</time>
      </trkpt>
      <trkpt lat="42.85335" lon="-0.46679">
        <ele>1553</ele>
        <time>2021-08-09 12:46:16</time>
      </trkpt>
      <trkpt lat="42.85335" lon="-0.4668">
        <ele>1553</ele>
        <time>2021-08-09 12:46:17</time>
      </trkpt>
      <trkpt lat="42.85336" lon="-0.4668">
        <ele>1553.4</ele>
        <time>2021-08-09 12:46:18</time>
      </trkpt>
      <trkpt lat="42.85337" lon="-0.4668">
        <ele>1553.2</ele>
        <time>2021-08-09 12:46:19</time>
      </trkpt>
      <trkpt lat="42.85337" lon="-0.46681">
        <ele>1553.4</ele>
        <time>2021-08-09 12:46:20</time>
      </trkpt>
      <trkpt lat="42.85338" lon="-0.46681">
        <ele>1554.2</ele>
        <time>2021-08-09 12:46:21</time>
      </trkpt>
      <trkpt lat="42.85338" lon="-0.46681">
        <ele>1553.8</ele>
        <time>2021-08-09 12:46:22</time>
      </trkpt>
      <trkpt lat="42.85339" lon="-0.46682">
        <ele>1554.2</ele>
        <time>2021-08-09 12:46:23</time>
      </trkpt>
      <trkpt lat="42.85339" lon="-0.46682">
        <ele>1554</ele>
        <time>2021-08-09 12:46:24</time>
      </trkpt>
      <trkpt lat="42.8534" lon="-0.46683">
        <ele>1553.6</ele>
        <time>2021-08-09 12:46:25</time>
      </trkpt>
      <trkpt lat="42.8534" lon="-0.46684">
        <ele>1553.6</ele>
        <time>2021-08-09 12:46:27</time>
      </trkpt>
      <trkpt lat="42.8534" lon="-0.46685">
        <ele>1553.8</ele>
        <time>2021-08-09 12:46:28</time>
      </trkpt>
      <trkpt lat="42.8534" lon="-0.46686">
        <ele>1554</ele>
        <time>2021-08-09 12:46:29</time>
      </trkpt>
      <trkpt lat="42.85341" lon="-0.46688">
        <ele>1554</ele>
        <time>2021-08-09 12:46:30</time>
      </trkpt>
      <trkpt lat="42.85341" lon="-0.46688">
        <ele>1553.8</ele>
        <time>2021-08-09 12:46:31</time>
      </trkpt>
      <trkpt lat="42.85341" lon="-0.46689">
        <ele>1554</ele>
        <time>2021-08-09 12:46:32</time>
      </trkpt>
      <trkpt lat="42.85342" lon="-0.4669">
        <ele>1554</ele>
        <time>2021-08-09 12:46:33</time>
      </trkpt>
      <trkpt lat="42.85342" lon="-0.46692">
        <ele>1554.2</ele>
        <time>2021-08-09 12:46:34</time>
      </trkpt>
      <trkpt lat="42.85343" lon="-0.46692">
        <ele>1554</ele>
        <time>2021-08-09 12:46:35</time>
      </trkpt>
      <trkpt lat="42.85344" lon="-0.46693">
        <ele>1553.8</ele>
        <time>2021-08-09 12:46:36</time>
      </trkpt>
      <trkpt lat="42.85344" lon="-0.46693">
        <ele>1554.4</ele>
        <time>2021-08-09 12:46:37</time>
      </trkpt>
      <trkpt lat="42.85344" lon="-0.46694">
        <ele>1554</ele>
        <time>2021-08-09 12:46:38</time>
      </trkpt>
      <trkpt lat="42.85344" lon="-0.46695">
        <ele>1554.2</ele>
        <time>2021-08-09 12:46:39</time>
      </trkpt>
      <trkpt lat="42.85344" lon="-0.46695">
        <ele>1554.6</ele>
        <time>2021-08-09 12:46:40</time>
      </trkpt>
      <trkpt lat="42.85345" lon="-0.46696">
        <ele>1554.4</ele>
        <time>2021-08-09 12:46:41</time>
      </trkpt>
      <trkpt lat="42.85345" lon="-0.46697">
        <ele>1555</ele>
        <time>2021-08-09 12:46:42</time>
      </trkpt>
      <trkpt lat="42.85347" lon="-0.46698">
        <ele>1554.8</ele>
        <time>2021-08-09 12:46:43</time>
      </trkpt>
      <trkpt lat="42.85348" lon="-0.46699">
        <ele>1554.6</ele>
        <time>2021-08-09 12:46:44</time>
      </trkpt>
      <trkpt lat="42.85348" lon="-0.467">
        <ele>1555</ele>
        <time>2021-08-09 12:46:45</time>
      </trkpt>
      <trkpt lat="42.85349" lon="-0.46701">
        <ele>1555</ele>
        <time>2021-08-09 12:46:46</time>
      </trkpt>
      <trkpt lat="42.8535" lon="-0.46702">
        <ele>1554.8</ele>
        <time>2021-08-09 12:46:47</time>
      </trkpt>
      <trkpt lat="42.8535" lon="-0.46703">
        <ele>1554.2</ele>
        <time>2021-08-09 12:46:48</time>
      </trkpt>
      <trkpt lat="42.85351" lon="-0.46704">
        <ele>1555</ele>
        <time>2021-08-09 12:46:49</time>
      </trkpt>
      <trkpt lat="42.8535" lon="-0.46705">
        <ele>1555.2</ele>
        <time>2021-08-09 12:46:50</time>
      </trkpt>
      <trkpt lat="42.8535" lon="-0.46705">
        <ele>1556.2</ele>
        <time>2021-08-09 12:46:51</time>
      </trkpt>
      <trkpt lat="42.8535" lon="-0.46706">
        <ele>1556.2</ele>
        <time>2021-08-09 12:46:52</time>
      </trkpt>
      <trkpt lat="42.8535" lon="-0.46706">
        <ele>1556.6</ele>
        <time>2021-08-09 12:46:53</time>
      </trkpt>
      <trkpt lat="42.8535" lon="-0.46706">
        <ele>1556.4</ele>
        <time>2021-08-09 12:46:54</time>
      </trkpt>
      <trkpt lat="42.85349" lon="-0.46707">
        <ele>1556.2</ele>
        <time>2021-08-09 12:46:55</time>
      </trkpt>
      <trkpt lat="42.8535" lon="-0.46709">
        <ele>1556.6</ele>
        <time>2021-08-09 12:46:56</time>
      </trkpt>
      <trkpt lat="42.8535" lon="-0.4671">
        <ele>1557.4</ele>
        <time>2021-08-09 12:46:57</time>
      </trkpt>
      <trkpt lat="42.85349" lon="-0.46711">
        <ele>1557.2</ele>
        <time>2021-08-09 12:46:58</time>
      </trkpt>
      <trkpt lat="42.85349" lon="-0.46712">
        <ele>1557.2</ele>
        <time>2021-08-09 12:46:59</time>
      </trkpt>
      <trkpt lat="42.85349" lon="-0.46714">
        <ele>1557.4</ele>
        <time>2021-08-09 12:47:00</time>
      </trkpt>
      <trkpt lat="42.85348" lon="-0.46715">
        <ele>1557</ele>
        <time>2021-08-09 12:47:01</time>
      </trkpt>
      <trkpt lat="42.85348" lon="-0.46716">
        <ele>1557.2</ele>
        <time>2021-08-09 12:47:02</time>
      </trkpt>
      <trkpt lat="42.85348" lon="-0.46717">
        <ele>1557.4</ele>
        <time>2021-08-09 12:47:03</time>
      </trkpt>
      <trkpt lat="42.85348" lon="-0.46718">
        <ele>1557.8</ele>
        <time>2021-08-09 12:47:04</time>
      </trkpt>
      <trkpt lat="42.85348" lon="-0.46719">
        <ele>1557.4</ele>
        <time>2021-08-09 12:47:05</time>
      </trkpt>
      <trkpt lat="42.85348" lon="-0.46719">
        <ele>1557.2</ele>
        <time>2021-08-09 12:47:06</time>
      </trkpt>
      <trkpt lat="42.85348" lon="-0.46719">
        <ele>1557.4</ele>
        <time>2021-08-09 12:47:07</time>
      </trkpt>
      <trkpt lat="42.85349" lon="-0.46719">
        <ele>1557.8</ele>
        <time>2021-08-09 12:47:08</time>
      </trkpt>
      <trkpt lat="42.85349" lon="-0.46719">
        <ele>1558.4</ele>
        <time>2021-08-09 12:47:09</time>
      </trkpt>
      <trkpt lat="42.85348" lon="-0.4672">
        <ele>1558.4</ele>
        <time>2021-08-09 12:47:10</time>
      </trkpt>
      <trkpt lat="42.85348" lon="-0.4672">
        <ele>1558.8</ele>
        <time>2021-08-09 12:47:11</time>
      </trkpt>
      <trkpt lat="42.85348" lon="-0.46721">
        <ele>1559</ele>
        <time>2021-08-09 12:47:13</time>
      </trkpt>
      <trkpt lat="42.85349" lon="-0.46721">
        <ele>1559.2</ele>
        <time>2021-08-09 12:47:14</time>
      </trkpt>
      <trkpt lat="42.85349" lon="-0.46721">
        <ele>1559.4</ele>
        <time>2021-08-09 12:47:15</time>
      </trkpt>
      <trkpt lat="42.85349" lon="-0.46721">
        <ele>1559.6</ele>
        <time>2021-08-09 12:47:16</time>
      </trkpt>
      <trkpt lat="42.85349" lon="-0.46722">
        <ele>1559.6</ele>
        <time>2021-08-09 12:47:17</time>
      </trkpt>
      <trkpt lat="42.8535" lon="-0.46722">
        <ele>1559.6</ele>
        <time>2021-08-09 12:47:18</time>
      </trkpt>
      <trkpt lat="42.8535" lon="-0.46722">
        <ele>1559.6</ele>
        <time>2021-08-09 12:47:19</time>
      </trkpt>
      <trkpt lat="42.8535" lon="-0.46723">
        <ele>1559.6</ele>
        <time>2021-08-09 12:47:20</time>
      </trkpt>
      <trkpt lat="42.8535" lon="-0.46722">
        <ele>1560</ele>
        <time>2021-08-09 12:47:21</time>
      </trkpt>
      <trkpt lat="42.8535" lon="-0.46722">
        <ele>1560.4</ele>
        <time>2021-08-09 12:47:22</time>
      </trkpt>
      <trkpt lat="42.8535" lon="-0.46722">
        <ele>1560.8</ele>
        <time>2021-08-09 12:47:23</time>
      </trkpt>
      <trkpt lat="42.8535" lon="-0.46723">
        <ele>1560.8</ele>
        <time>2021-08-09 12:47:24</time>
      </trkpt>
      <trkpt lat="42.8535" lon="-0.46723">
        <ele>1561.2</ele>
        <time>2021-08-09 12:47:25</time>
      </trkpt>
      <trkpt lat="42.8535" lon="-0.46723">
        <ele>1561.6</ele>
        <time>2021-08-09 12:47:26</time>
      </trkpt>
      <trkpt lat="42.8535" lon="-0.46723">
        <ele>1562.2</ele>
        <time>2021-08-09 12:47:27</time>
      </trkpt>
      <trkpt lat="42.85351" lon="-0.46724">
        <ele>1561.2</ele>
        <time>2021-08-09 12:47:28</time>
      </trkpt>
      <trkpt lat="42.85351" lon="-0.46724">
        <ele>1561.2</ele>
        <time>2021-08-09 12:47:29</time>
      </trkpt>
      <trkpt lat="42.85352" lon="-0.46724">
        <ele>1561.4</ele>
        <time>2021-08-09 12:47:30</time>
      </trkpt>
      <trkpt lat="42.85352" lon="-0.46725">
        <ele>1562</ele>
        <time>2021-08-09 12:47:31</time>
      </trkpt>
      <trkpt lat="42.85352" lon="-0.46725">
        <ele>1562</ele>
        <time>2021-08-09 12:47:32</time>
      </trkpt>
      <trkpt lat="42.85353" lon="-0.46726">
        <ele>1562.2</ele>
        <time>2021-08-09 12:47:33</time>
      </trkpt>
      <trkpt lat="42.85353" lon="-0.46727">
        <ele>1562.4</ele>
        <time>2021-08-09 12:47:34</time>
      </trkpt>
      <trkpt lat="42.85354" lon="-0.46727">
        <ele>1562.6</ele>
        <time>2021-08-09 12:47:35</time>
      </trkpt>
      <trkpt lat="42.85355" lon="-0.46727">
        <ele>1562.8</ele>
        <time>2021-08-09 12:47:36</time>
      </trkpt>
      <trkpt lat="42.85355" lon="-0.46727">
        <ele>1562.6</ele>
        <time>2021-08-09 12:47:37</time>
      </trkpt>
      <trkpt lat="42.85355" lon="-0.46727">
        <ele>1562.6</ele>
        <time>2021-08-09 12:47:38</time>
      </trkpt>
      <trkpt lat="42.85356" lon="-0.46727">
        <ele>1563</ele>
        <time>2021-08-09 12:47:39</time>
      </trkpt>
      <trkpt lat="42.85356" lon="-0.46727">
        <ele>1563.4</ele>
        <time>2021-08-09 12:47:40</time>
      </trkpt>
      <trkpt lat="42.85357" lon="-0.46727">
        <ele>1563.6</ele>
        <time>2021-08-09 12:47:41</time>
      </trkpt>
      <trkpt lat="42.85357" lon="-0.46727">
        <ele>1563.8</ele>
        <time>2021-08-09 12:47:42</time>
      </trkpt>
      <trkpt lat="42.85357" lon="-0.46727">
        <ele>1564</ele>
        <time>2021-08-09 12:47:43</time>
      </trkpt>
      <trkpt lat="42.85357" lon="-0.46727">
        <ele>1564</ele>
        <time>2021-08-09 12:47:44</time>
      </trkpt>
      <trkpt lat="42.85357" lon="-0.46727">
        <ele>1564.2</ele>
        <time>2021-08-09 12:47:45</time>
      </trkpt>
      <trkpt lat="42.85356" lon="-0.46727">
        <ele>1564.6</ele>
        <time>2021-08-09 12:47:46</time>
      </trkpt>
      <trkpt lat="42.85356" lon="-0.46726">
        <ele>1564.6</ele>
        <time>2021-08-09 12:47:47</time>
      </trkpt>
      <trkpt lat="42.85356" lon="-0.46726">
        <ele>1564.4</ele>
        <time>2021-08-09 12:47:48</time>
      </trkpt>
      <trkpt lat="42.85356" lon="-0.46726">
        <ele>1564.8</ele>
        <time>2021-08-09 12:47:49</time>
      </trkpt>
      <trkpt lat="42.85356" lon="-0.46727">
        <ele>1565</ele>
        <time>2021-08-09 12:47:50</time>
      </trkpt>
      <trkpt lat="42.85356" lon="-0.46728">
        <ele>1565.4</ele>
        <time>2021-08-09 12:47:51</time>
      </trkpt>
      <trkpt lat="42.85356" lon="-0.46728">
        <ele>1565.8</ele>
        <time>2021-08-09 12:47:52</time>
      </trkpt>
      <trkpt lat="42.85356" lon="-0.46728">
        <ele>1565.6</ele>
        <time>2021-08-09 12:47:53</time>
      </trkpt>
      <trkpt lat="42.85356" lon="-0.46729">
        <ele>1566.4</ele>
        <time>2021-08-09 12:47:54</time>
      </trkpt>
      <trkpt lat="42.85357" lon="-0.46728">
        <ele>1566.2</ele>
        <time>2021-08-09 12:47:55</time>
      </trkpt>
      <trkpt lat="42.85358" lon="-0.46728">
        <ele>1566</ele>
        <time>2021-08-09 12:47:56</time>
      </trkpt>
      <trkpt lat="42.85358" lon="-0.46728">
        <ele>1566.4</ele>
        <time>2021-08-09 12:47:57</time>
      </trkpt>
      <trkpt lat="42.85358" lon="-0.46729">
        <ele>1566.8</ele>
        <time>2021-08-09 12:47:58</time>
      </trkpt>
      <trkpt lat="42.85358" lon="-0.46729">
        <ele>1566.6</ele>
        <time>2021-08-09 12:47:59</time>
      </trkpt>
      <trkpt lat="42.85358" lon="-0.4673">
        <ele>1566.6</ele>
      </trkpt>
      <trkpt lat="42.85359" lon="-0.46729">
        <ele>1566.8</ele>
        <time>2021-08-09 12:48:01</time>
      </trkpt>
      <trkpt lat="42.85359" lon="-0.46729">
        <ele>1567</ele>
        <time>2021-08-09 12:48:02</time>
      </trkpt>
      <trkpt lat="42.85359" lon="-0.46729">
        <ele>1567.2</ele>
        <time>2021-08-09 12:48:03</time>
      </trkpt>
      <trkpt lat="42.8536" lon="-0.4673">
        <ele>1567.2</ele>
        <time>2021-08-09 12:48:04</time>
      </trkpt>
      <trkpt lat="42.85361" lon="-0.46729">
        <ele>1568</ele>
      </trkpt>
      <trkpt lat="42.85362" lon="-0.46729">
        <ele>1567.8</ele>
        <time>2021-08-09 12:48:05</time>
      </trkpt>
      <trkpt lat="42.85362" lon="-0.46729">
        <ele>1567.8</ele>
        <time>2021-08-09 12:48:06</time>
      </trkpt>
      <trkpt lat="42.85363" lon="-0.46729">
        <ele>1567.6</ele>
        <time>2021-08-09 12:48:07</time>
      </trkpt>
      <trkpt lat="42.85363" lon="-0.46729">
        <ele>1567.8</ele>
        <time>2021-08-09 12:48:08</time>
      </trkpt>
      <trkpt lat="42.85364" lon="-0.4673">
        <ele>1568</ele>
        <time>2021-08-09 12:48:09</time>
      </trkpt>
      <trkpt lat="42.85366" lon="-0.4673">
        <ele>1568.2</ele>
        <time>2021-08-09 12:48:10</time>
      </trkpt>
      <trkpt lat="42.85367" lon="-0.46731">
        <ele>1568.4</ele>
        <time>2021-08-09 12:48:11</time>
      </trkpt>
      <trkpt lat="42.85368" lon="-0.46732">
        <ele>1568.6</ele>
        <time>2021-08-09 12:48:12</time>
      </trkpt>
      <trkpt lat="42.85368" lon="-0.46733">
        <ele>1569</ele>
        <time>2021-08-09 12:48:13</time>
      </trkpt>
      <trkpt lat="42.85368" lon="-0.46733">
        <ele>1569.2</ele>
        <time>2021-08-09 12:48:14</time>
      </trkpt>
      <trkpt lat="42.85369" lon="-0.46734">
        <ele>1569.4</ele>
        <time>2021-08-09 12:48:15</time>
      </trkpt>
      <trkpt lat="42.85369" lon="-0.46734">
        <ele>1569.6</ele>
        <time>2021-08-09 12:48:16</time>
      </trkpt>
      <trkpt lat="42.85369" lon="-0.46736">
        <ele>1569.8</ele>
        <time>2021-08-09 12:48:17</time>
      </trkpt>
      <trkpt lat="42.85369" lon="-0.46736">
        <ele>1569.8</ele>
        <time>2021-08-09 12:48:18</time>
      </trkpt>
      <trkpt lat="42.8537" lon="-0.46736">
        <ele>1570</ele>
        <time>2021-08-09 12:48:19</time>
      </trkpt>
      <trkpt lat="42.85371" lon="-0.46737">
        <ele>1570</ele>
        <time>2021-08-09 12:48:20</time>
      </trkpt>
      <trkpt lat="42.85371" lon="-0.46737">
        <ele>1570.2</ele>
        <time>2021-08-09 12:48:21</time>
      </trkpt>
      <trkpt lat="42.85372" lon="-0.46737">
        <ele>1570.4</ele>
        <time>2021-08-09 12:48:22</time>
      </trkpt>
      <trkpt lat="42.85372" lon="-0.46738">
        <ele>1570.4</ele>
        <time>2021-08-09 12:48:24</time>
      </trkpt>
      <trkpt lat="42.85373" lon="-0.46739">
        <ele>1570.6</ele>
      </trkpt>
      <trkpt lat="42.85373" lon="-0.46739">
        <ele>1570.8</ele>
        <time>2021-08-09 12:48:25</time>
      </trkpt>
      <trkpt lat="42.85374" lon="-0.46739">
        <ele>1571</ele>
        <time>2021-08-09 12:48:26</time>
      </trkpt>
      <trkpt lat="42.85374" lon="-0.4674">
        <ele>1571.2</ele>
        <time>2021-08-09 12:48:27</time>
      </trkpt>
      <trkpt lat="42.85375" lon="-0.46739">
        <ele>1571.6</ele>
        <time>2021-08-09 12:48:28</time>
      </trkpt>
      <trkpt lat="42.85376" lon="-0.4674">
        <ele>1571.8</ele>
        <time>2021-08-09 12:48:29</time>
      </trkpt>
      <trkpt lat="42.85377" lon="-0.4674">
        <ele>1572</ele>
        <time>2021-08-09 12:48:30</time>
      </trkpt>
      <trkpt lat="42.85377" lon="-0.4674">
        <ele>1572</ele>
        <time>2021-08-09 12:48:31</time>
      </trkpt>
      <trkpt lat="42.85378" lon="-0.4674">
        <ele>1572</ele>
        <time>2021-08-09 12:48:32</time>
      </trkpt>
      <trkpt lat="42.85379" lon="-0.4674">
        <ele>1572.4</ele>
        <time>2021-08-09 12:48:33</time>
      </trkpt>
      <trkpt lat="42.85379" lon="-0.46741">
        <ele>1572.6</ele>
        <time>2021-08-09 12:48:34</time>
      </trkpt>
      <trkpt lat="42.8538" lon="-0.46741">
        <ele>1572.6</ele>
        <time>2021-08-09 12:48:35</time>
      </trkpt>
      <trkpt lat="42.85381" lon="-0.46742">
        <ele>1572.8</ele>
        <time>2021-08-09 12:48:36</time>
      </trkpt>
      <trkpt lat="42.85381" lon="-0.46743">
        <ele>1573</ele>
        <time>2021-08-09 12:48:37</time>
      </trkpt>
      <trkpt lat="42.85381" lon="-0.46744">
        <ele>1573</ele>
        <time>2021-08-09 12:48:38</time>
      </trkpt>
      <trkpt lat="42.85382" lon="-0.46744">
        <ele>1573</ele>
        <time>2021-08-09 12:48:39</time>
      </trkpt>
      <trkpt lat="42.85383" lon="-0.46745">
        <ele>1573.2</ele>
        <time>2021-08-09 12:48:40</time>
      </trkpt>
      <trkpt lat="42.85384" lon="-0.46745">
        <ele>1573.4</ele>
        <time>2021-08-09 12:48:41</time>
      </trkpt>
      <trkpt lat="42.85384" lon="-0.46744">
        <ele>1573.6</ele>
        <time>2021-08-09 12:48:42</time>
      </trkpt>
      <trkpt lat="42.85386" lon="-0.46744">
        <ele>1574</ele>
        <time>2021-08-09 12:48:43</time>
      </trkpt>
      <trkpt lat="42.85387" lon="-0.46744">
        <ele>1574</ele>
        <time>2021-08-09 12:48:44</time>
      </trkpt>
      <trkpt lat="42.85387" lon="-0.46744">
        <ele>1574.4</ele>
        <time>2021-08-09 12:48:45</time>
      </trkpt>
      <trkpt lat="42.85388" lon="-0.46744">
        <ele>1574.6</ele>
        <time>2021-08-09 12:48:46</time>
      </trkpt>
      <trkpt lat="42.85389" lon="-0.46744">
        <ele>1574.8</ele>
        <time>2021-08-09 12:48:47</time>
      </trkpt>
      <trkpt lat="42.85389" lon="-0.46745">
        <ele>1575.2</ele>
        <time>2021-08-09 12:48:48</time>
      </trkpt>
      <trkpt lat="42.85389" lon="-0.46745">
        <ele>1575.4</ele>
        <time>2021-08-09 12:48:49</time>
      </trkpt>
      <trkpt lat="42.85392" lon="-0.46745">
        <ele>1575.6</ele>
        <time>2021-08-09 12:48:50</time>
      </trkpt>
      <trkpt lat="42.85393" lon="-0.46746">
        <ele>1576</ele>
        <time>2021-08-09 12:48:51</time>
      </trkpt>
      <trkpt lat="42.85393" lon="-0.46746">
        <ele>1576</ele>
        <time>2021-08-09 12:48:52</time>
      </trkpt>
      <trkpt lat="42.85394" lon="-0.46747">
        <ele>1576.2</ele>
        <time>2021-08-09 12:48:53</time>
      </trkpt>
      <trkpt lat="42.85395" lon="-0.46747">
        <ele>1576.4</ele>
        <time>2021-08-09 12:48:54</time>
      </trkpt>
      <trkpt lat="42.85396" lon="-0.46748">
        <ele>1576.8</ele>
        <time>2021-08-09 12:48:55</time>
      </trkpt>
      <trkpt lat="42.85396" lon="-0.46748">
        <ele>1577</ele>
        <time>2021-08-09 12:48:56</time>
      </trkpt>
      <trkpt lat="42.85396" lon="-0.46749">
        <ele>1577.2</ele>
        <time>2021-08-09 12:48:57</time>
      </trkpt>
      <trkpt lat="42.85397" lon="-0.46749">
        <ele>1577.2</ele>
        <time>2021-08-09 12:48:58</time>
      </trkpt>
      <trkpt lat="42.85398" lon="-0.46749">
        <ele>1577.6</ele>
        <time>2021-08-09 12:48:59</time>
      </trkpt>
      <trkpt lat="42.85398" lon="-0.4675">
        <ele>1577.8</ele>
        <time>2021-08-09 12:49:00</time>
      </trkpt>
      <trkpt lat="42.85399" lon="-0.46751">
        <ele>1578</ele>
        <time>2021-08-09 12:49:01</time>
      </trkpt>
      <trkpt lat="42.85399" lon="-0.46751">
        <ele>1578.2</ele>
        <time>2021-08-09 12:49:02</time>
      </trkpt>
      <trkpt lat="42.854" lon="-0.46752">
        <ele>1578</ele>
        <time>2021-08-09 12:49:03</time>
      </trkpt>
      <trkpt lat="42.854" lon="-0.46753">
        <ele>1577.8</ele>
        <time>2021-08-09 12:49:04</time>
      </trkpt>
      <trkpt lat="42.85401" lon="-0.46754">
        <ele>1578</ele>
        <time>2021-08-09 12:49:05</time>
      </trkpt>
      <trkpt lat="42.85401" lon="-0.46755">
        <ele>1578.2</ele>
        <time>2021-08-09 12:49:06</time>
      </trkpt>
      <trkpt lat="42.85401" lon="-0.46756">
        <ele>1578.6</ele>
        <time>2021-08-09 12:49:07</time>
      </trkpt>
      <trkpt lat="42.85404" lon="-0.46759">
        <ele>1578.6</ele>
        <time>2021-08-09 12:49:08</time>
      </trkpt>
      <trkpt lat="42.85404" lon="-0.4676">
        <ele>1578.8</ele>
        <time>2021-08-09 12:49:09</time>
      </trkpt>
      <trkpt lat="42.85404" lon="-0.46761">
        <ele>1577.6</ele>
        <time>2021-08-09 12:49:10</time>
      </trkpt>
      <trkpt lat="42.85404" lon="-0.46761">
        <ele>1578.8</ele>
        <time>2021-08-09 12:49:11</time>
      </trkpt>
      <trkpt lat="42.85405" lon="-0.46763">
        <ele>1578.8</ele>
        <time>2021-08-09 12:49:12</time>
      </trkpt>
      <trkpt lat="42.85405" lon="-0.46764">
        <ele>1579.2</ele>
        <time>2021-08-09 12:49:13</time>
      </trkpt>
      <trkpt lat="42.85405" lon="-0.46765">
        <ele>1579.4</ele>
        <time>2021-08-09 12:49:14</time>
      </trkpt>
      <trkpt lat="42.85405" lon="-0.46766">
        <ele>1579.2</ele>
        <time>2021-08-09 12:49:15</time>
      </trkpt>
      <trkpt lat="42.85406" lon="-0.46766">
        <ele>1579.2</ele>
        <time>2021-08-09 12:49:16</time>
      </trkpt>
      <trkpt lat="42.85407" lon="-0.46767">
        <ele>1579.2</ele>
        <time>2021-08-09 12:49:17</time>
      </trkpt>
      <trkpt lat="42.85406" lon="-0.46768">
        <ele>1580</ele>
        <time>2021-08-09 12:49:18</time>
      </trkpt>
      <trkpt lat="42.85406" lon="-0.46768">
        <ele>1580.4</ele>
        <time>2021-08-09 12:49:19</time>
      </trkpt>
      <trkpt lat="42.85406" lon="-0.46769">
        <ele>1580.6</ele>
        <time>2021-08-09 12:49:20</time>
      </trkpt>
      <trkpt lat="42.85405" lon="-0.4677">
        <ele>1580.2</ele>
        <time>2021-08-09 12:49:21</time>
      </trkpt>
      <trkpt lat="42.85406" lon="-0.46772">
        <ele>1580.4</ele>
        <time>2021-08-09 12:49:23</time>
      </trkpt>
      <trkpt lat="42.85406" lon="-0.46773">
        <ele>1580.6</ele>
      </trkpt>
      <trkpt lat="42.85406" lon="-0.46774">
        <ele>1580.6</ele>
        <time>2021-08-09 12:49:24</time>
      </trkpt>
      <trkpt lat="42.85406" lon="-0.46775">
        <ele>1579.6</ele>
        <time>2021-08-09 12:49:25</time>
      </trkpt>
      <trkpt lat="42.85407" lon="-0.46776">
        <ele>1580.8</ele>
        <time>2021-08-09 12:49:26</time>
      </trkpt>
      <trkpt lat="42.85407" lon="-0.46777">
        <ele>1580.8</ele>
        <time>2021-08-09 12:49:27</time>
      </trkpt>
      <trkpt lat="42.85408" lon="-0.4678">
        <ele>1581.4</ele>
        <time>2021-08-09 12:49:28</time>
      </trkpt>
      <trkpt lat="42.85408" lon="-0.46781">
        <ele>1581.6</ele>
        <time>2021-08-09 12:49:29</time>
      </trkpt>
      <trkpt lat="42.85409" lon="-0.46783">
        <ele>1581.8</ele>
        <time>2021-08-09 12:49:30</time>
      </trkpt>
      <trkpt lat="42.8541" lon="-0.46785">
        <ele>1581.8</ele>
        <time>2021-08-09 12:49:31</time>
      </trkpt>
      <trkpt lat="42.85411" lon="-0.46786">
        <ele>1581.8</ele>
        <time>2021-08-09 12:49:32</time>
      </trkpt>
      <trkpt lat="42.85411" lon="-0.46787">
        <ele>1582.2</ele>
        <time>2021-08-09 12:49:33</time>
      </trkpt>
      <trkpt lat="42.85411" lon="-0.46788">
        <ele>1582.4</ele>
        <time>2021-08-09 12:49:34</time>
      </trkpt>
      <trkpt lat="42.8541" lon="-0.46789">
        <ele>1582.8</ele>
        <time>2021-08-09 12:49:35</time>
      </trkpt>
      <trkpt lat="42.85411" lon="-0.46791">
        <ele>1582.8</ele>
        <time>2021-08-09 12:49:36</time>
      </trkpt>
      <trkpt lat="42.85412" lon="-0.46796">
        <ele>1582.8</ele>
        <time>2021-08-09 12:49:37</time>
      </trkpt>
      <trkpt lat="42.85412" lon="-0.46797">
        <ele>1582.8</ele>
        <time>2021-08-09 12:49:38</time>
      </trkpt>
      <trkpt lat="42.85413" lon="-0.468">
        <ele>1583</ele>
        <time>2021-08-09 12:49:39</time>
      </trkpt>
      <trkpt lat="42.85413" lon="-0.46801">
        <ele>1583.2</ele>
        <time>2021-08-09 12:49:40</time>
      </trkpt>
      <trkpt lat="42.85413" lon="-0.46802">
        <ele>1583.2</ele>
        <time>2021-08-09 12:49:41</time>
      </trkpt>
      <trkpt lat="42.85413" lon="-0.46804">
        <ele>1583.2</ele>
        <time>2021-08-09 12:49:42</time>
      </trkpt>
      <trkpt lat="42.85413" lon="-0.46805">
        <ele>1583.4</ele>
        <time>2021-08-09 12:49:43</time>
      </trkpt>
      <trkpt lat="42.85413" lon="-0.46806">
        <ele>1583.4</ele>
        <time>2021-08-09 12:49:44</time>
      </trkpt>
      <trkpt lat="42.85413" lon="-0.46807">
        <ele>1583.6</ele>
        <time>2021-08-09 12:49:45</time>
      </trkpt>
      <trkpt lat="42.85414" lon="-0.46808">
        <ele>1583.6</ele>
        <time>2021-08-09 12:49:46</time>
      </trkpt>
      <trkpt lat="42.85413" lon="-0.46809">
        <ele>1583.8</ele>
        <time>2021-08-09 12:49:47</time>
      </trkpt>
      <trkpt lat="42.85413" lon="-0.46809">
        <ele>1583.8</ele>
        <time>2021-08-09 12:49:48</time>
      </trkpt>
      <trkpt lat="42.85412" lon="-0.46811">
        <ele>1583.8</ele>
        <time>2021-08-09 12:49:49</time>
      </trkpt>
      <trkpt lat="42.85411" lon="-0.46812">
        <ele>1583.8</ele>
        <time>2021-08-09 12:49:50</time>
      </trkpt>
      <trkpt lat="42.85411" lon="-0.46813">
        <ele>1584</ele>
        <time>2021-08-09 12:49:51</time>
      </trkpt>
      <trkpt lat="42.85412" lon="-0.46815">
        <ele>1583.8</ele>
        <time>2021-08-09 12:49:52</time>
      </trkpt>
      <trkpt lat="42.85413" lon="-0.46816">
        <ele>1584</ele>
        <time>2021-08-09 12:49:53</time>
      </trkpt>
      <trkpt lat="42.85413" lon="-0.46817">
        <ele>1584</ele>
        <time>2021-08-09 12:49:54</time>
      </trkpt>
      <trkpt lat="42.85414" lon="-0.46818">
        <ele>1584</ele>
        <time>2021-08-09 12:49:55</time>
      </trkpt>
      <trkpt lat="42.85414" lon="-0.46819">
        <ele>1583.8</ele>
        <time>2021-08-09 12:49:56</time>
      </trkpt>
      <trkpt lat="42.85414" lon="-0.46819">
        <ele>1584</ele>
        <time>2021-08-09 12:49:57</time>
      </trkpt>
      <trkpt lat="42.85414" lon="-0.4682">
        <ele>1584.4</ele>
        <time>2021-08-09 12:49:58</time>
      </trkpt>
      <trkpt lat="42.85414" lon="-0.46822">
        <ele>1585.8</ele>
        <time>2021-08-09 12:49:59</time>
      </trkpt>
      <trkpt lat="42.85414" lon="-0.46823">
        <ele>1585.2</ele>
        <time>2021-08-09 12:50:00</time>
      </trkpt>
      <trkpt lat="42.85414" lon="-0.46824">
        <ele>1585.4</ele>
        <time>2021-08-09 12:50:01</time>
      </trkpt>
      <trkpt lat="42.85414" lon="-0.46825">
        <ele>1585.2</ele>
        <time>2021-08-09 12:50:02</time>
      </trkpt>
      <trkpt lat="42.85414" lon="-0.46826">
        <ele>1584.8</ele>
        <time>2021-08-09 12:50:03</time>
      </trkpt>
      <trkpt lat="42.85414" lon="-0.46828">
        <ele>1583.8</ele>
        <time>2021-08-09 12:50:04</time>
      </trkpt>
      <trkpt lat="42.85413" lon="-0.46828">
        <ele>1584.4</ele>
        <time>2021-08-09 12:50:05</time>
      </trkpt>
      <trkpt lat="42.85413" lon="-0.46829">
        <ele>1584.4</ele>
        <time>2021-08-09 12:50:06</time>
      </trkpt>
      <trkpt lat="42.85413" lon="-0.46831">
        <ele>1585.2</ele>
        <time>2021-08-09 12:50:07</time>
      </trkpt>
      <trkpt lat="42.85414" lon="-0.46833">
        <ele>1584.8</ele>
        <time>2021-08-09 12:50:08</time>
      </trkpt>
      <trkpt lat="42.85414" lon="-0.46834">
        <ele>1584.6</ele>
        <time>2021-08-09 12:50:09</time>
      </trkpt>
      <trkpt lat="42.85414" lon="-0.46836">
        <ele>1584.6</ele>
        <time>2021-08-09 12:50:10</time>
      </trkpt>
      <trkpt lat="42.85413" lon="-0.46837">
        <ele>1584.6</ele>
        <time>2021-08-09 12:50:11</time>
      </trkpt>
      <trkpt lat="42.85413" lon="-0.46838">
        <ele>1584.8</ele>
        <time>2021-08-09 12:50:12</time>
      </trkpt>
      <trkpt lat="42.85414" lon="-0.4684">
        <ele>1585</ele>
        <time>2021-08-09 12:50:13</time>
      </trkpt>
      <trkpt lat="42.85415" lon="-0.4684">
        <ele>1584.8</ele>
        <time>2021-08-09 12:50:14</time>
      </trkpt>
      <trkpt lat="42.85416" lon="-0.46842">
        <ele>1584.8</ele>
        <time>2021-08-09 12:50:15</time>
      </trkpt>
      <trkpt lat="42.85417" lon="-0.46843">
        <ele>1584.6</ele>
        <time>2021-08-09 12:50:16</time>
      </trkpt>
      <trkpt lat="42.85418" lon="-0.46843">
        <ele>1584.6</ele>
        <time>2021-08-09 12:50:17</time>
      </trkpt>
      <trkpt lat="42.85418" lon="-0.46844">
        <ele>1584.4</ele>
        <time>2021-08-09 12:50:18</time>
      </trkpt>
      <trkpt lat="42.85419" lon="-0.46844">
        <ele>1584.6</ele>
        <time>2021-08-09 12:50:19</time>
      </trkpt>
      <trkpt lat="42.85419" lon="-0.46845">
        <ele>1584.8</ele>
        <time>2021-08-09 12:50:20</time>
      </trkpt>
      <trkpt lat="42.85419" lon="-0.46847">
        <ele>1584.6</ele>
        <time>2021-08-09 12:50:21</time>
      </trkpt>
      <trkpt lat="42.8542" lon="-0.46848">
        <ele>1584.8</ele>
        <time>2021-08-09 12:50:22</time>
      </trkpt>
      <trkpt lat="42.85421" lon="-0.46849">
        <ele>1585</ele>
        <time>2021-08-09 12:50:23</time>
      </trkpt>
      <trkpt lat="42.85421" lon="-0.46849">
        <ele>1585.2</ele>
        <time>2021-08-09 12:50:24</time>
      </trkpt>
      <trkpt lat="42.85422" lon="-0.46849">
        <ele>1585.4</ele>
        <time>2021-08-09 12:50:25</time>
      </trkpt>
      <trkpt lat="42.85422" lon="-0.46849">
        <ele>1585.2</ele>
        <time>2021-08-09 12:50:26</time>
      </trkpt>
      <trkpt lat="42.85422" lon="-0.4685">
        <ele>1585.2</ele>
        <time>2021-08-09 12:50:27</time>
      </trkpt>
      <trkpt lat="42.85423" lon="-0.4685">
        <ele>1585.2</ele>
        <time>2021-08-09 12:50:28</time>
      </trkpt>
      <trkpt lat="42.85424" lon="-0.46851">
        <ele>1585</ele>
        <time>2021-08-09 12:50:29</time>
      </trkpt>
      <trkpt lat="42.85424" lon="-0.46851">
        <ele>1584.8</ele>
        <time>2021-08-09 12:50:30</time>
      </trkpt>
      <trkpt lat="42.85425" lon="-0.46852">
        <ele>1585</ele>
        <time>2021-08-09 12:50:31</time>
      </trkpt>
      <trkpt lat="42.85427" lon="-0.46852">
        <ele>1585</ele>
        <time>2021-08-09 12:50:32</time>
      </trkpt>
      <trkpt lat="42.85428" lon="-0.46853">
        <ele>1585.2</ele>
        <time>2021-08-09 12:50:33</time>
      </trkpt>
      <trkpt lat="42.85429" lon="-0.46853">
        <ele>1585.4</ele>
        <time>2021-08-09 12:50:34</time>
      </trkpt>
      <trkpt lat="42.8543" lon="-0.46854">
        <ele>1585.6</ele>
        <time>2021-08-09 12:50:35</time>
      </trkpt>
      <trkpt lat="42.8543" lon="-0.46854">
        <ele>1585.8</ele>
        <time>2021-08-09 12:50:36</time>
      </trkpt>
      <trkpt lat="42.85431" lon="-0.46854">
        <ele>1585.6</ele>
        <time>2021-08-09 12:50:37</time>
      </trkpt>
      <trkpt lat="42.85431" lon="-0.46855">
        <ele>1585.8</ele>
        <time>2021-08-09 12:50:38</time>
      </trkpt>
      <trkpt lat="42.85432" lon="-0.46856">
        <ele>1585.4</ele>
        <time>2021-08-09 12:50:39</time>
      </trkpt>
      <trkpt lat="42.85432" lon="-0.46857">
        <ele>1585.2</ele>
        <time>2021-08-09 12:50:40</time>
      </trkpt>
      <trkpt lat="42.85432" lon="-0.46858">
        <ele>1585.2</ele>
        <time>2021-08-09 12:50:41</time>
      </trkpt>
      <trkpt lat="42.85432" lon="-0.46859">
        <ele>1585.6</ele>
        <time>2021-08-09 12:50:42</time>
      </trkpt>
      <trkpt lat="42.85432" lon="-0.4686">
        <ele>1585.6</ele>
        <time>2021-08-09 12:50:43</time>
      </trkpt>
      <trkpt lat="42.85432" lon="-0.46861">
        <ele>1585.6</ele>
        <time>2021-08-09 12:50:44</time>
      </trkpt>
      <trkpt lat="42.85432" lon="-0.46862">
        <ele>1585.8</ele>
        <time>2021-08-09 12:50:45</time>
      </trkpt>
      <trkpt lat="42.85432" lon="-0.46862">
        <ele>1585.8</ele>
        <time>2021-08-09 12:50:46</time>
      </trkpt>
      <trkpt lat="42.85431" lon="-0.46862">
        <ele>1585.6</ele>
        <time>2021-08-09 12:50:47</time>
      </trkpt>
      <trkpt lat="42.85431" lon="-0.46862">
        <ele>1585.6</ele>
        <time>2021-08-09 12:50:48</time>
      </trkpt>
      <trkpt lat="42.85432" lon="-0.46862">
        <ele>1585.8</ele>
        <time>2021-08-09 12:50:49</time>
      </trkpt>
      <trkpt lat="42.85432" lon="-0.46862">
        <ele>1585.6</ele>
        <time>2021-08-09 12:50:50</time>
      </trkpt>
      <trkpt lat="42.85432" lon="-0.46862">
        <ele>1585.8</ele>
        <time>2021-08-09 12:50:51</time>
      </trkpt>
      <trkpt lat="42.85432" lon="-0.46862">
        <ele>1585.6</ele>
        <time>2021-08-09 12:50:52</time>
      </trkpt>
      <trkpt lat="42.85432" lon="-0.46862">
        <ele>1585.4</ele>
        <time>2021-08-09 12:50:53</time>
      </trkpt>
      <trkpt lat="42.85432" lon="-0.46863">
        <ele>1585.4</ele>
        <time>2021-08-09 12:50:54</time>
      </trkpt>
      <trkpt lat="42.85432" lon="-0.46863">
        <ele>1585.2</ele>
        <time>2021-08-09 12:50:55</time>
      </trkpt>
      <trkpt lat="42.85432" lon="-0.46864">
        <ele>1584.4</ele>
        <time>2021-08-09 12:50:56</time>
      </trkpt>
      <trkpt lat="42.85432" lon="-0.46865">
        <ele>1585</ele>
        <time>2021-08-09 12:50:57</time>
      </trkpt>
      <trkpt lat="42.85432" lon="-0.46865">
        <ele>1585.4</ele>
        <time>2021-08-09 12:50:58</time>
      </trkpt>
      <trkpt lat="42.85431" lon="-0.46866">
        <ele>1585.6</ele>
        <time>2021-08-09 12:50:59</time>
      </trkpt>
      <trkpt lat="42.85431" lon="-0.46866">
        <ele>1585.2</ele>
        <time>2021-08-09 12:51:00</time>
      </trkpt>
      <trkpt lat="42.85431" lon="-0.46867">
        <ele>1585.2</ele>
        <time>2021-08-09 12:51:01</time>
      </trkpt>
      <trkpt lat="42.85431" lon="-0.46869">
        <ele>1585</ele>
        <time>2021-08-09 12:51:02</time>
      </trkpt>
      <trkpt lat="42.8543" lon="-0.46869">
        <ele>1585</ele>
        <time>2021-08-09 12:51:03</time>
      </trkpt>
      <trkpt lat="42.8543" lon="-0.4687">
        <ele>1585.4</ele>
        <time>2021-08-09 12:51:04</time>
      </trkpt>
      <trkpt lat="42.8543" lon="-0.46871">
        <ele>1585.6</ele>
        <time>2021-08-09 12:51:05</time>
      </trkpt>
      <trkpt lat="42.8543" lon="-0.46872">
        <ele>1586</ele>
        <time>2021-08-09 12:51:06</time>
      </trkpt>
      <trkpt lat="42.85429" lon="-0.46873">
        <ele>1586.2</ele>
        <time>2021-08-09 12:51:07</time>
      </trkpt>
      <trkpt lat="42.85429" lon="-0.46874">
        <ele>1586.2</ele>
        <time>2021-08-09 12:51:08</time>
      </trkpt>
      <trkpt lat="42.85429" lon="-0.46875">
        <ele>1586.4</ele>
        <time>2021-08-09 12:51:09</time>
      </trkpt>
      <trkpt lat="42.8543" lon="-0.46876">
        <ele>1586.4</ele>
        <time>2021-08-09 12:51:10</time>
      </trkpt>
      <trkpt lat="42.85429" lon="-0.46877">
        <ele>1586</ele>
        <time>2021-08-09 12:51:11</time>
      </trkpt>
      <trkpt lat="42.85429" lon="-0.46879">
        <ele>1586.2</ele>
        <time>2021-08-09 12:51:12</time>
      </trkpt>
      <trkpt lat="42.85429" lon="-0.4688">
        <ele>1586.2</ele>
        <time>2021-08-09 12:51:13</time>
      </trkpt>
      <trkpt lat="42.85429" lon="-0.46881">
        <ele>1586.4</ele>
        <time>2021-08-09 12:51:14</time>
      </trkpt>
      <trkpt lat="42.85429" lon="-0.46883">
        <ele>1586.4</ele>
        <time>2021-08-09 12:51:15</time>
      </trkpt>
      <trkpt lat="42.85429" lon="-0.46884">
        <ele>1586.6</ele>
        <time>2021-08-09 12:51:16</time>
      </trkpt>
      <trkpt lat="42.85428" lon="-0.46885">
        <ele>1586.6</ele>
        <time>2021-08-09 12:51:17</time>
      </trkpt>
      <trkpt lat="42.85428" lon="-0.46886">
        <ele>1587</ele>
        <time>2021-08-09 12:51:18</time>
      </trkpt>
      <trkpt lat="42.85428" lon="-0.46888">
        <ele>1587</ele>
        <time>2021-08-09 12:51:19</time>
      </trkpt>
      <trkpt lat="42.85428" lon="-0.46889">
        <ele>1586.8</ele>
        <time>2021-08-09 12:51:20</time>
      </trkpt>
      <trkpt lat="42.85428" lon="-0.46891">
        <ele>1586.6</ele>
        <time>2021-08-09 12:51:21</time>
      </trkpt>
      <trkpt lat="42.85428" lon="-0.46892">
        <ele>1586.6</ele>
        <time>2021-08-09 12:51:22</time>
      </trkpt>
      <trkpt lat="42.85428" lon="-0.46893">
        <ele>1586.4</ele>
        <time>2021-08-09 12:51:23</time>
      </trkpt>
      <trkpt lat="42.85428" lon="-0.46895">
        <ele>1586</ele>
        <time>2021-08-09 12:51:24</time>
      </trkpt>
      <trkpt lat="42.85428" lon="-0.46895">
        <ele>1586.2</ele>
        <time>2021-08-09 12:51:25</time>
      </trkpt>
      <trkpt lat="42.85428" lon="-0.46896">
        <ele>1586.6</ele>
        <time>2021-08-09 12:51:26</time>
      </trkpt>
      <trkpt lat="42.85428" lon="-0.46897">
        <ele>1586.6</ele>
        <time>2021-08-09 12:51:27</time>
      </trkpt>
      <trkpt lat="42.85427" lon="-0.46898">
        <ele>1586.6</ele>
        <time>2021-08-09 12:51:28</time>
      </trkpt>
      <trkpt lat="42.85427" lon="-0.46899">
        <ele>1586.4</ele>
        <time>2021-08-09 12:51:31</time>
      </trkpt>
      <trkpt lat="42.85428" lon="-0.46901">
        <ele>1586.4</ele>
        <time>2021-08-09 12:51:32</time>
      </trkpt>
      <trkpt lat="42.85428" lon="-0.46902">
        <ele>1586.4</ele>
        <time>2021-08-09 12:51:33</time>
      </trkpt>
      <trkpt lat="42.85428" lon="-0.46904">
        <ele>1586.6</ele>
        <time>2021-08-09 12:51:38</time>
      </trkpt>
      <trkpt lat="42.85429" lon="-0.46906">
        <ele>1586.6</ele>
        <time>2021-08-09 12:51:39</time>
      </trkpt>
      <trkpt lat="42.85429" lon="-0.46907">
        <ele>1586.4</ele>
        <time>2021-08-09 12:51:40</time>
      </trkpt>
      <trkpt lat="42.85429" lon="-0.46908">
        <ele>1586.4</ele>
        <time>2021-08-09 12:51:41</time>
      </trkpt>
      <trkpt lat="42.85429" lon="-0.4691">
        <ele>1586.4</ele>
        <time>2021-08-09 12:51:52</time>
      </trkpt>
      <trkpt lat="42.85429" lon="-0.46911">
        <ele>1586.6</ele>
        <time>2021-08-09 12:51:53</time>
      </trkpt>
      <trkpt lat="42.8543" lon="-0.46911">
        <ele>1586.4</ele>
        <time>2021-08-09 12:51:54</time>
      </trkpt>
      <trkpt lat="42.8543" lon="-0.46911">
        <ele>1586.4</ele>
        <time>2021-08-09 12:51:55</time>
      </trkpt>
      <trkpt lat="42.85429" lon="-0.46912">
        <ele>1587.2</ele>
        <time>2021-08-09 12:51:56</time>
      </trkpt>
      <trkpt lat="42.85429" lon="-0.46912">
        <ele>1587.2</ele>
        <time>2021-08-09 12:51:57</time>
      </trkpt>
      <trkpt lat="42.85429" lon="-0.46912">
        <ele>1587</ele>
        <time>2021-08-09 12:51:58</time>
      </trkpt>
      <trkpt lat="42.85429" lon="-0.46911">
        <ele>1586.8</ele>
        <time>2021-08-09 12:51:59</time>
      </trkpt>
      <trkpt lat="42.85429" lon="-0.46911">
        <ele>1587</ele>
        <time>2021-08-09 12:52:00</time>
      </trkpt>
      <trkpt lat="42.85429" lon="-0.46911">
        <ele>1586.8</ele>
        <time>2021-08-09 12:52:01</time>
      </trkpt>
      <trkpt lat="42.85429" lon="-0.46912">
        <ele>1587</ele>
        <time>2021-08-09 12:52:02</time>
      </trkpt>
      <trkpt lat="42.85429" lon="-0.46912">
        <ele>1586.8</ele>
        <time>2021-08-09 12:52:03</time>
      </trkpt>
      <trkpt lat="42.8543" lon="-0.46913">
        <ele>1587</ele>
        <time>2021-08-09 12:52:04</time>
      </trkpt>
      <trkpt lat="42.8543" lon="-0.46913">
        <ele>1587.2</ele>
        <time>2021-08-09 12:52:05</time>
      </trkpt>
      <trkpt lat="42.8543" lon="-0.46913">
        <ele>1587.2</ele>
        <time>2021-08-09 12:52:06</time>
      </trkpt>
      <trkpt lat="42.8543" lon="-0.46913">
        <ele>1587</ele>
        <time>2021-08-09 12:52:07</time>
      </trkpt>
      <trkpt lat="42.8543" lon="-0.46913">
        <ele>1587.2</ele>
        <time>2021-08-09 12:52:08</time>
      </trkpt>
      <trkpt lat="42.8543" lon="-0.46913">
        <ele>1587.2</ele>
        <time>2021-08-09 12:52:09</time>
      </trkpt>
      <trkpt lat="42.85431" lon="-0.46914">
        <ele>1587.2</ele>
        <time>2021-08-09 12:52:10</time>
      </trkpt>
      <trkpt lat="42.85431" lon="-0.46914">
        <ele>1587.2</ele>
        <time>2021-08-09 12:52:11</time>
      </trkpt>
      <trkpt lat="42.8543" lon="-0.46914">
        <ele>1587.2</ele>
        <time>2021-08-09 12:52:12</time>
      </trkpt>
      <trkpt lat="42.8543" lon="-0.46914">
        <ele>1587</ele>
        <time>2021-08-09 12:52:13</time>
      </trkpt>
      <trkpt lat="42.8543" lon="-0.46914">
        <ele>1587.8</ele>
        <time>2021-08-09 12:52:14</time>
      </trkpt>
      <trkpt lat="42.8543" lon="-0.46915">
        <ele>1587.8</ele>
        <time>2021-08-09 12:52:15</time>
      </trkpt>
      <trkpt lat="42.85429" lon="-0.46916">
        <ele>1588</ele>
        <time>2021-08-09 12:52:16</time>
      </trkpt>
      <trkpt lat="42.85429" lon="-0.46917">
        <ele>1588</ele>
        <time>2021-08-09 12:52:17</time>
      </trkpt>
      <trkpt lat="42.85429" lon="-0.46918">
        <ele>1588.2</ele>
        <time>2021-08-09 12:52:18</time>
      </trkpt>
      <trkpt lat="42.85429" lon="-0.46918">
        <ele>1588.4</ele>
        <time>2021-08-09 12:52:19</time>
      </trkpt>
      <trkpt lat="42.85429" lon="-0.46919">
        <ele>1588.4</ele>
        <time>2021-08-09 12:52:20</time>
      </trkpt>
      <trkpt lat="42.85429" lon="-0.46919">
        <ele>1588.6</ele>
        <time>2021-08-09 12:52:21</time>
      </trkpt>
      <trkpt lat="42.85429" lon="-0.4692">
        <ele>1588.8</ele>
        <time>2021-08-09 12:52:22</time>
      </trkpt>
      <trkpt lat="42.85428" lon="-0.46922">
        <ele>1588.8</ele>
        <time>2021-08-09 12:52:23</time>
      </trkpt>
      <trkpt lat="42.85428" lon="-0.46922">
        <ele>1589</ele>
        <time>2021-08-09 12:52:24</time>
      </trkpt>
      <trkpt lat="42.85428" lon="-0.46923">
        <ele>1589.2</ele>
        <time>2021-08-09 12:52:25</time>
      </trkpt>
      <trkpt lat="42.85428" lon="-0.46924">
        <ele>1589</ele>
        <time>2021-08-09 12:52:26</time>
      </trkpt>
      <trkpt lat="42.85428" lon="-0.46925">
        <ele>1589.2</ele>
        <time>2021-08-09 12:52:27</time>
      </trkpt>
      <trkpt lat="42.85428" lon="-0.46926">
        <ele>1589.2</ele>
        <time>2021-08-09 12:52:28</time>
      </trkpt>
      <trkpt lat="42.85428" lon="-0.46927">
        <ele>1589.2</ele>
        <time>2021-08-09 12:52:29</time>
      </trkpt>
      <trkpt lat="42.85428" lon="-0.46928">
        <ele>1589.4</ele>
        <time>2021-08-09 12:52:30</time>
      </trkpt>
      <trkpt lat="42.85428" lon="-0.46929">
        <ele>1589.6</ele>
        <time>2021-08-09 12:52:31</time>
      </trkpt>
      <trkpt lat="42.85428" lon="-0.4693">
        <ele>1590</ele>
        <time>2021-08-09 12:52:32</time>
      </trkpt>
      <trkpt lat="42.85428" lon="-0.4693">
        <ele>1590.2</ele>
        <time>2021-08-09 12:52:33</time>
      </trkpt>
      <trkpt lat="42.85428" lon="-0.46931">
        <ele>1590.4</ele>
        <time>2021-08-09 12:52:34</time>
      </trkpt>
      <trkpt lat="42.85428" lon="-0.46932">
        <ele>1590.6</ele>
        <time>2021-08-09 12:52:35</time>
      </trkpt>
      <trkpt lat="42.85428" lon="-0.46932">
        <ele>1590.8</ele>
        <time>2021-08-09 12:52:42</time>
      </trkpt>
      <trkpt lat="42.85428" lon="-0.46933">
        <ele>1591</ele>
        <time>2021-08-09 12:52:43</time>
      </trkpt>
      <trkpt lat="42.85429" lon="-0.46933">
        <ele>1591.2</ele>
        <time>2021-08-09 12:52:44</time>
      </trkpt>
      <trkpt lat="42.85429" lon="-0.46934">
        <ele>1591.6</ele>
        <time>2021-08-09 12:52:45</time>
      </trkpt>
      <trkpt lat="42.85429" lon="-0.46935">
        <ele>1592</ele>
        <time>2021-08-09 12:52:46</time>
      </trkpt>
      <trkpt lat="42.85429" lon="-0.46935">
        <ele>1592</ele>
        <time>2021-08-09 12:52:47</time>
      </trkpt>
      <trkpt lat="42.85429" lon="-0.46936">
        <ele>1592.2</ele>
        <time>2021-08-09 12:52:48</time>
      </trkpt>
      <trkpt lat="42.85429" lon="-0.46937">
        <ele>1592.6</ele>
        <time>2021-08-09 12:52:49</time>
      </trkpt>
      <trkpt lat="42.85429" lon="-0.46937">
        <ele>1593</ele>
        <time>2021-08-09 12:52:54</time>
      </trkpt>
      <trkpt lat="42.85429" lon="-0.46938">
        <ele>1593.4</ele>
        <time>2021-08-09 12:52:55</time>
      </trkpt>
      <trkpt lat="42.85429" lon="-0.46938">
        <ele>1593.6</ele>
        <time>2021-08-09 12:52:56</time>
      </trkpt>
      <trkpt lat="42.85429" lon="-0.46939">
        <ele>1593.6</ele>
        <time>2021-08-09 12:53:00</time>
      </trkpt>
      <trkpt lat="42.85429" lon="-0.4694">
        <ele>1594</ele>
        <time>2021-08-09 12:53:01</time>
      </trkpt>
      <trkpt lat="42.85428" lon="-0.46941">
        <ele>1594.2</ele>
        <time>2021-08-09 12:53:02</time>
      </trkpt>
      <trkpt lat="42.85428" lon="-0.46942">
        <ele>1594.4</ele>
        <time>2021-08-09 12:53:10</time>
      </trkpt>
      <trkpt lat="42.85428" lon="-0.46942">
        <ele>1594.6</ele>
        <time>2021-08-09 12:53:11</time>
      </trkpt>
      <trkpt lat="42.85428" lon="-0.46943">
        <ele>1594.6</ele>
        <time>2021-08-09 12:53:12</time>
      </trkpt>
      <trkpt lat="42.85428" lon="-0.46944">
        <ele>1594.6</ele>
        <time>2021-08-09 12:53:13</time>
      </trkpt>
      <trkpt lat="42.85427" lon="-0.46944">
        <ele>1594.6</ele>
        <time>2021-08-09 12:53:23</time>
      </trkpt>
      <trkpt lat="42.85427" lon="-0.46945">
        <ele>1594.8</ele>
        <time>2021-08-09 12:53:24</time>
      </trkpt>
      <trkpt lat="42.85426" lon="-0.46946">
        <ele>1595</ele>
        <time>2021-08-09 12:53:25</time>
      </trkpt>
      <trkpt lat="42.85426" lon="-0.46947">
        <ele>1595.4</ele>
        <time>2021-08-09 12:53:26</time>
      </trkpt>
      <trkpt lat="42.85426" lon="-0.46947">
        <ele>1595.6</ele>
        <time>2021-08-09 12:53:27</time>
      </trkpt>
      <trkpt lat="42.85427" lon="-0.46949">
        <ele>1595.8</ele>
        <time>2021-08-09 12:53:28</time>
      </trkpt>
      <trkpt lat="42.85427" lon="-0.46949">
        <ele>1596</ele>
        <time>2021-08-09 12:53:29</time>
      </trkpt>
      <trkpt lat="42.85427" lon="-0.4695">
        <ele>1596</ele>
        <time>2021-08-09 12:53:30</time>
      </trkpt>
      <trkpt lat="42.85427" lon="-0.46951">
        <ele>1596.2</ele>
        <time>2021-08-09 12:53:31</time>
      </trkpt>
      <trkpt lat="42.85427" lon="-0.46952">
        <ele>1596.2</ele>
        <time>2021-08-09 12:53:32</time>
      </trkpt>
      <trkpt lat="42.85428" lon="-0.46953">
        <ele>1596.2</ele>
        <time>2021-08-09 12:53:33</time>
      </trkpt>
      <trkpt lat="42.85428" lon="-0.46954">
        <ele>1596.4</ele>
        <time>2021-08-09 12:53:34</time>
      </trkpt>
      <trkpt lat="42.85428" lon="-0.46955">
        <ele>1596.4</ele>
        <time>2021-08-09 12:53:35</time>
      </trkpt>
      <trkpt lat="42.85428" lon="-0.46955">
        <ele>1596.4</ele>
        <time>2021-08-09 12:53:36</time>
      </trkpt>
      <trkpt lat="42.85428" lon="-0.46955">
        <ele>1596.6</ele>
        <time>2021-08-09 12:53:37</time>
      </trkpt>
      <trkpt lat="42.85428" lon="-0.46956">
        <ele>1596.6</ele>
        <time>2021-08-09 12:53:38</time>
      </trkpt>
      <trkpt lat="42.85428" lon="-0.46956">
        <ele>1596.6</ele>
        <time>2021-08-09 12:53:39</time>
      </trkpt>
      <trkpt lat="42.85428" lon="-0.46957">
        <ele>1596.8</ele>
        <time>2021-08-09 12:53:40</time>
      </trkpt>
      <trkpt lat="42.85428" lon="-0.46956">
        <ele>1597.2</ele>
        <time>2021-08-09 12:53:41</time>
      </trkpt>
      <trkpt lat="42.85428" lon="-0.46957">
        <ele>1597</ele>
        <time>2021-08-09 12:53:42</time>
      </trkpt>
      <trkpt lat="42.85427" lon="-0.46957">
        <ele>1597.2</ele>
        <time>2021-08-09 12:53:43</time>
      </trkpt>
      <trkpt lat="42.85427" lon="-0.46957">
        <ele>1596.8</ele>
        <time>2021-08-09 12:53:44</time>
      </trkpt>
      <trkpt lat="42.85427" lon="-0.46957">
        <ele>1597</ele>
        <time>2021-08-09 12:53:45</time>
      </trkpt>
      <trkpt lat="42.85427" lon="-0.46957">
        <ele>1596.8</ele>
        <time>2021-08-09 12:53:46</time>
      </trkpt>
      <trkpt lat="42.85426" lon="-0.46957">
        <ele>1596.8</ele>
        <time>2021-08-09 12:53:47</time>
      </trkpt>
      <trkpt lat="42.85427" lon="-0.46956">
        <ele>1596.8</ele>
        <time>2021-08-09 12:53:48</time>
      </trkpt>
      <trkpt lat="42.85426" lon="-0.46956">
        <ele>1597.2</ele>
        <time>2021-08-09 12:53:49</time>
      </trkpt>
      <trkpt lat="42.85426" lon="-0.46956">
        <ele>1597.2</ele>
        <time>2021-08-09 12:53:50</time>
      </trkpt>
      <trkpt lat="42.85426" lon="-0.46955">
        <ele>1597.2</ele>
        <time>2021-08-09 12:53:51</time>
      </trkpt>
      <trkpt lat="42.85426" lon="-0.46955">
        <ele>1597</ele>
        <time>2021-08-09 12:53:52</time>
      </trkpt>
      <trkpt lat="42.85426" lon="-0.46955">
        <ele>1597.2</ele>
        <time>2021-08-09 12:53:53</time>
      </trkpt>
      <trkpt lat="42.85426" lon="-0.46955">
        <ele>1597.2</ele>
        <time>2021-08-09 12:53:54</time>
      </trkpt>
      <trkpt lat="42.85426" lon="-0.46956">
        <ele>1597.2</ele>
        <time>2021-08-09 12:53:55</time>
      </trkpt>
      <trkpt lat="42.85426" lon="-0.46957">
        <ele>1597.2</ele>
        <time>2021-08-09 12:53:56</time>
      </trkpt>
      <trkpt lat="42.85426" lon="-0.46958">
        <ele>1597.2</ele>
        <time>2021-08-09 12:53:57</time>
      </trkpt>
      <trkpt lat="42.85426" lon="-0.46958">
        <ele>1597.4</ele>
        <time>2021-08-09 12:53:58</time>
      </trkpt>
      <trkpt lat="42.85427" lon="-0.46959">
        <ele>1597.4</ele>
        <time>2021-08-09 12:53:59</time>
      </trkpt>
      <trkpt lat="42.85427" lon="-0.46959">
        <ele>1597.4</ele>
        <time>2021-08-09 12:54:00</time>
      </trkpt>
      <trkpt lat="42.85427" lon="-0.4696">
        <ele>1597.8</ele>
        <time>2021-08-09 12:54:01</time>
      </trkpt>
      <trkpt lat="42.85427" lon="-0.46961">
        <ele>1598.2</ele>
        <time>2021-08-09 12:54:02</time>
      </trkpt>
      <trkpt lat="42.85427" lon="-0.46962">
        <ele>1598.4</ele>
        <time>2021-08-09 12:54:03</time>
      </trkpt>
      <trkpt lat="42.85427" lon="-0.46963">
        <ele>1598.6</ele>
        <time>2021-08-09 12:54:04</time>
      </trkpt>
      <trkpt lat="42.85427" lon="-0.46964">
        <ele>1598.6</ele>
        <time>2021-08-09 12:54:05</time>
      </trkpt>
      <trkpt lat="42.85427" lon="-0.46965">
        <ele>1598.6</ele>
        <time>2021-08-09 12:54:06</time>
      </trkpt>
      <trkpt lat="42.85428" lon="-0.46966">
        <ele>1599</ele>
        <time>2021-08-09 12:54:07</time>
      </trkpt>
      <trkpt lat="42.85428" lon="-0.46967">
        <ele>1599.2</ele>
        <time>2021-08-09 12:54:08</time>
      </trkpt>
      <trkpt lat="42.85428" lon="-0.46967">
        <ele>1599.2</ele>
        <time>2021-08-09 12:54:09</time>
      </trkpt>
      <trkpt lat="42.85428" lon="-0.46968">
        <ele>1599.4</ele>
        <time>2021-08-09 12:54:10</time>
      </trkpt>
      <trkpt lat="42.85429" lon="-0.46969">
        <ele>1599.4</ele>
        <time>2021-08-09 12:54:11</time>
      </trkpt>
      <trkpt lat="42.85429" lon="-0.4697">
        <ele>1599.4</ele>
        <time>2021-08-09 12:54:12</time>
      </trkpt>
      <trkpt lat="42.85429" lon="-0.4697">
        <ele>1599.8</ele>
        <time>2021-08-09 12:54:13</time>
      </trkpt>
      <trkpt lat="42.85429" lon="-0.46971">
        <ele>1599.8</ele>
        <time>2021-08-09 12:54:14</time>
      </trkpt>
      <trkpt lat="42.8543" lon="-0.46972">
        <ele>1600</ele>
        <time>2021-08-09 12:54:15</time>
      </trkpt>
      <trkpt lat="42.8543" lon="-0.46972">
        <ele>1600</ele>
        <time>2021-08-09 12:54:16</time>
      </trkpt>
      <trkpt lat="42.8543" lon="-0.46972">
        <ele>1600</ele>
        <time>2021-08-09 12:54:17</time>
      </trkpt>
      <trkpt lat="42.8543" lon="-0.46972">
        <ele>1599.8</ele>
        <time>2021-08-09 12:54:18</time>
      </trkpt>
      <trkpt lat="42.8543" lon="-0.46973">
        <ele>1600.2</ele>
        <time>2021-08-09 12:54:19</time>
      </trkpt>
      <trkpt lat="42.8543" lon="-0.46973">
        <ele>1600.4</ele>
        <time>2021-08-09 12:54:20</time>
      </trkpt>
      <trkpt lat="42.8543" lon="-0.46973">
        <ele>1600.4</ele>
        <time>2021-08-09 12:54:21</time>
      </trkpt>
      <trkpt lat="42.85431" lon="-0.46974">
        <ele>1600.6</ele>
        <time>2021-08-09 12:54:22</time>
      </trkpt>
      <trkpt lat="42.8543" lon="-0.46975">
        <ele>1600.8</ele>
        <time>2021-08-09 12:54:23</time>
      </trkpt>
      <trkpt lat="42.8543" lon="-0.46976">
        <ele>1600.6</ele>
        <time>2021-08-09 12:54:25</time>
      </trkpt>
      <trkpt lat="42.85431" lon="-0.46976">
        <ele>1600.8</ele>
        <time>2021-08-09 12:54:26</time>
      </trkpt>
      <trkpt lat="42.85431" lon="-0.46977">
        <ele>1601.2</ele>
        <time>2021-08-09 12:54:27</time>
      </trkpt>
      <trkpt lat="42.85431" lon="-0.46979">
        <ele>1601.2</ele>
        <time>2021-08-09 12:54:28</time>
      </trkpt>
      <trkpt lat="42.85431" lon="-0.46979">
        <ele>1601.2</ele>
        <time>2021-08-09 12:54:29</time>
      </trkpt>
      <trkpt lat="42.85431" lon="-0.4698">
        <ele>1601.4</ele>
        <time>2021-08-09 12:54:30</time>
      </trkpt>
      <trkpt lat="42.85431" lon="-0.46981">
        <ele>1601.6</ele>
        <time>2021-08-09 12:54:31</time>
      </trkpt>
      <trkpt lat="42.85431" lon="-0.46982">
        <ele>1601.8</ele>
        <time>2021-08-09 12:54:32</time>
      </trkpt>
      <trkpt lat="42.85431" lon="-0.46983">
        <ele>1601.8</ele>
        <time>2021-08-09 12:54:33</time>
      </trkpt>
      <trkpt lat="42.85431" lon="-0.46983">
        <ele>1602</ele>
        <time>2021-08-09 12:54:34</time>
      </trkpt>
      <trkpt lat="42.85431" lon="-0.46984">
        <ele>1602</ele>
        <time>2021-08-09 12:54:35</time>
      </trkpt>
      <trkpt lat="42.85432" lon="-0.46986">
        <ele>1602.4</ele>
        <time>2021-08-09 12:54:42</time>
      </trkpt>
      <trkpt lat="42.85432" lon="-0.46987">
        <ele>1602.4</ele>
        <time>2021-08-09 12:54:43</time>
      </trkpt>
      <trkpt lat="42.85433" lon="-0.46988">
        <ele>1602.8</ele>
      </trkpt>
      <trkpt lat="42.85433" lon="-0.46989">
        <ele>1602.8</ele>
        <time>2021-08-09 12:54:44</time>
      </trkpt>
      <trkpt lat="42.85433" lon="-0.46991">
        <ele>1603.4</ele>
        <time>2021-08-09 12:54:45</time>
      </trkpt>
      <trkpt lat="42.85434" lon="-0.46992">
        <ele>1603.8</ele>
        <time>2021-08-09 12:54:46</time>
      </trkpt>
      <trkpt lat="42.85434" lon="-0.46993">
        <ele>1603.8</ele>
        <time>2021-08-09 12:54:47</time>
      </trkpt>
      <trkpt lat="42.85434" lon="-0.46994">
        <ele>1604</ele>
        <time>2021-08-09 12:54:48</time>
      </trkpt>
      <trkpt lat="42.85434" lon="-0.46995">
        <ele>1604.2</ele>
        <time>2021-08-09 12:54:50</time>
      </trkpt>
      <trkpt lat="42.85434" lon="-0.46995">
        <ele>1604.2</ele>
      </trkpt>
      <trkpt lat="42.85434" lon="-0.46996">
        <ele>1604.2</ele>
        <time>2021-08-09 12:54:51</time>
      </trkpt>
      <trkpt lat="42.85434" lon="-0.46997">
        <ele>1604.2</ele>
        <time>2021-08-09 12:54:52</time>
      </trkpt>
      <trkpt lat="42.85435" lon="-0.46998">
        <ele>1604.4</ele>
        <time>2021-08-09 12:54:53</time>
      </trkpt>
      <trkpt lat="42.85435" lon="-0.46999">
        <ele>1604.6</ele>
        <time>2021-08-09 12:54:54</time>
      </trkpt>
      <trkpt lat="42.85435" lon="-0.47">
        <ele>1604.6</ele>
        <time>2021-08-09 12:54:55</time>
      </trkpt>
      <trkpt lat="42.85435" lon="-0.47002">
        <ele>1604.6</ele>
        <time>2021-08-09 12:54:56</time>
      </trkpt>
      <trkpt lat="42.85435" lon="-0.47003">
        <ele>1605</ele>
        <time>2021-08-09 12:54:57</time>
      </trkpt>
      <trkpt lat="42.85436" lon="-0.47004">
        <ele>1605.6</ele>
        <time>2021-08-09 12:54:58</time>
      </trkpt>
      <trkpt lat="42.85436" lon="-0.47006">
        <ele>1606</ele>
        <time>2021-08-09 12:54:59</time>
      </trkpt>
      <trkpt lat="42.85436" lon="-0.47007">
        <ele>1606.4</ele>
        <time>2021-08-09 12:55:00</time>
      </trkpt>
      <trkpt lat="42.85435" lon="-0.47008">
        <ele>1606.4</ele>
        <time>2021-08-09 12:55:01</time>
      </trkpt>
      <trkpt lat="42.85436" lon="-0.47009">
        <ele>1606.4</ele>
        <time>2021-08-09 12:55:02</time>
      </trkpt>
      <trkpt lat="42.85436" lon="-0.4701">
        <ele>1606.2</ele>
        <time>2021-08-09 12:55:03</time>
      </trkpt>
      <trkpt lat="42.85436" lon="-0.47011">
        <ele>1606</ele>
        <time>2021-08-09 12:55:04</time>
      </trkpt>
      <trkpt lat="42.85435" lon="-0.47012">
        <ele>1606.2</ele>
        <time>2021-08-09 12:55:05</time>
      </trkpt>
      <trkpt lat="42.85434" lon="-0.47014">
        <ele>1606.6</ele>
        <time>2021-08-09 12:55:07</time>
      </trkpt>
      <trkpt lat="42.85434" lon="-0.47015">
        <ele>1606.8</ele>
        <time>2021-08-09 12:55:08</time>
      </trkpt>
      <trkpt lat="42.85435" lon="-0.47019">
        <ele>1607.2</ele>
        <time>2021-08-09 12:55:10</time>
      </trkpt>
      <trkpt lat="42.85434" lon="-0.4702">
        <ele>1607.4</ele>
      </trkpt>
      <trkpt lat="42.85433" lon="-0.47021">
        <ele>1607.4</ele>
        <time>2021-08-09 12:55:11</time>
      </trkpt>
      <trkpt lat="42.85432" lon="-0.47021">
        <ele>1607.2</ele>
        <time>2021-08-09 12:55:12</time>
      </trkpt>
      <trkpt lat="42.8543" lon="-0.47021">
        <ele>1607.2</ele>
        <time>2021-08-09 12:55:13</time>
      </trkpt>
      <trkpt lat="42.8543" lon="-0.47022">
        <ele>1607.4</ele>
        <time>2021-08-09 12:55:14</time>
      </trkpt>
      <trkpt lat="42.85429" lon="-0.47023">
        <ele>1607.2</ele>
        <time>2021-08-09 12:55:15</time>
      </trkpt>
      <trkpt lat="42.85428" lon="-0.47023">
        <ele>1607.4</ele>
        <time>2021-08-09 12:55:16</time>
      </trkpt>
      <trkpt lat="42.85427" lon="-0.47024">
        <ele>1607.6</ele>
        <time>2021-08-09 12:55:17</time>
      </trkpt>
      <trkpt lat="42.85426" lon="-0.47024">
        <ele>1607.8</ele>
        <time>2021-08-09 12:55:18</time>
      </trkpt>
      <trkpt lat="42.85425" lon="-0.47025">
        <ele>1607.8</ele>
        <time>2021-08-09 12:55:19</time>
      </trkpt>
      <trkpt lat="42.85424" lon="-0.47026">
        <ele>1607.8</ele>
        <time>2021-08-09 12:55:20</time>
      </trkpt>
      <trkpt lat="42.85423" lon="-0.47026">
        <ele>1607.8</ele>
        <time>2021-08-09 12:55:21</time>
      </trkpt>
      <trkpt lat="42.85421" lon="-0.47027">
        <ele>1608</ele>
        <time>2021-08-09 12:55:22</time>
      </trkpt>
      <trkpt lat="42.8542" lon="-0.47028">
        <ele>1608.2</ele>
        <time>2021-08-09 12:55:23</time>
      </trkpt>
      <trkpt lat="42.85419" lon="-0.47028">
        <ele>1608.2</ele>
        <time>2021-08-09 12:55:24</time>
      </trkpt>
      <trkpt lat="42.85418" lon="-0.47029">
        <ele>1608.6</ele>
        <time>2021-08-09 12:55:25</time>
      </trkpt>
      <trkpt lat="42.85417" lon="-0.4703">
        <ele>1608.6</ele>
        <time>2021-08-09 12:55:26</time>
      </trkpt>
      <trkpt lat="42.85417" lon="-0.47031">
        <ele>1608.8</ele>
        <time>2021-08-09 12:55:27</time>
      </trkpt>
      <trkpt lat="42.85416" lon="-0.47032">
        <ele>1608.8</ele>
        <time>2021-08-09 12:55:28</time>
      </trkpt>
      <trkpt lat="42.85416" lon="-0.47033">
        <ele>1609</ele>
        <time>2021-08-09 12:55:30</time>
      </trkpt>
      <trkpt lat="42.85415" lon="-0.47033">
        <ele>1609</ele>
      </trkpt>
      <trkpt lat="42.85414" lon="-0.47034">
        <ele>1609</ele>
        <time>2021-08-09 12:55:31</time>
      </trkpt>
      <trkpt lat="42.85414" lon="-0.47035">
        <ele>1609.2</ele>
        <time>2021-08-09 12:55:32</time>
      </trkpt>
      <trkpt lat="42.85413" lon="-0.47036">
        <ele>1609.2</ele>
        <time>2021-08-09 12:55:33</time>
      </trkpt>
      <trkpt lat="42.85413" lon="-0.47037">
        <ele>1609</ele>
        <time>2021-08-09 12:55:34</time>
      </trkpt>
      <trkpt lat="42.85412" lon="-0.47038">
        <ele>1609</ele>
        <time>2021-08-09 12:55:35</time>
      </trkpt>
      <trkpt lat="42.85411" lon="-0.47039">
        <ele>1609</ele>
        <time>2021-08-09 12:55:36</time>
      </trkpt>
      <trkpt lat="42.8541" lon="-0.47039">
        <ele>1609</ele>
        <time>2021-08-09 12:55:37</time>
      </trkpt>
      <trkpt lat="42.85409" lon="-0.4704">
        <ele>1609.2</ele>
        <time>2021-08-09 12:55:38</time>
      </trkpt>
      <trkpt lat="42.85408" lon="-0.47041">
        <ele>1609.2</ele>
        <time>2021-08-09 12:55:39</time>
      </trkpt>
      <trkpt lat="42.85407" lon="-0.47042">
        <ele>1609.4</ele>
        <time>2021-08-09 12:55:40</time>
      </trkpt>
      <trkpt lat="42.85407" lon="-0.47044">
        <ele>1609.6</ele>
        <time>2021-08-09 12:55:41</time>
      </trkpt>
      <trkpt lat="42.85406" lon="-0.47045">
        <ele>1609.6</ele>
        <time>2021-08-09 12:55:42</time>
      </trkpt>
      <trkpt lat="42.85406" lon="-0.47046">
        <ele>1609.4</ele>
        <time>2021-08-09 12:55:43</time>
      </trkpt>
      <trkpt lat="42.85405" lon="-0.47047">
        <ele>1609.6</ele>
        <time>2021-08-09 12:55:44</time>
      </trkpt>
      <trkpt lat="42.85404" lon="-0.47048">
        <ele>1609.4</ele>
        <time>2021-08-09 12:55:45</time>
      </trkpt>
      <trkpt lat="42.85404" lon="-0.47049">
        <ele>1609.6</ele>
        <time>2021-08-09 12:55:46</time>
      </trkpt>
      <trkpt lat="42.85403" lon="-0.47051">
        <ele>1609.8</ele>
        <time>2021-08-09 12:55:47</time>
      </trkpt>
      <trkpt lat="42.85403" lon="-0.47052">
        <ele>1609.8</ele>
        <time>2021-08-09 12:55:48</time>
      </trkpt>
      <trkpt lat="42.85402" lon="-0.47053">
        <ele>1610</ele>
        <time>2021-08-09 12:55:49</time>
      </trkpt>
      <trkpt lat="42.85402" lon="-0.47053">
        <ele>1610.2</ele>
        <time>2021-08-09 12:55:50</time>
      </trkpt>
      <trkpt lat="42.85401" lon="-0.47054">
        <ele>1610.2</ele>
        <time>2021-08-09 12:55:51</time>
      </trkpt>
      <trkpt lat="42.85401" lon="-0.47054">
        <ele>1610.4</ele>
        <time>2021-08-09 12:55:52</time>
      </trkpt>
      <trkpt lat="42.854" lon="-0.47055">
        <ele>1610.4</ele>
        <time>2021-08-09 12:55:53</time>
      </trkpt>
      <trkpt lat="42.85399" lon="-0.47055">
        <ele>1610.6</ele>
        <time>2021-08-09 12:55:54</time>
      </trkpt>
      <trkpt lat="42.85398" lon="-0.47056">
        <ele>1610.8</ele>
        <time>2021-08-09 12:55:55</time>
      </trkpt>
      <trkpt lat="42.85397" lon="-0.47056">
        <ele>1611</ele>
        <time>2021-08-09 12:55:56</time>
      </trkpt>
      <trkpt lat="42.85396" lon="-0.47057">
        <ele>1611.2</ele>
        <time>2021-08-09 12:55:57</time>
      </trkpt>
      <trkpt lat="42.85396" lon="-0.47058">
        <ele>1611.4</ele>
        <time>2021-08-09 12:55:58</time>
      </trkpt>
      <trkpt lat="42.85396" lon="-0.47058">
        <ele>1611.6</ele>
        <time>2021-08-09 12:55:59</time>
      </trkpt>
      <trkpt lat="42.85396" lon="-0.47058">
        <ele>1611.8</ele>
        <time>2021-08-09 12:56:00</time>
      </trkpt>
      <trkpt lat="42.85396" lon="-0.47059">
        <ele>1612</ele>
        <time>2021-08-09 12:56:01</time>
      </trkpt>
      <trkpt lat="42.85396" lon="-0.47059">
        <ele>1612.2</ele>
        <time>2021-08-09 12:56:02</time>
      </trkpt>
      <trkpt lat="42.85396" lon="-0.47059">
        <ele>1612.2</ele>
        <time>2021-08-09 12:56:03</time>
      </trkpt>
      <trkpt lat="42.85397" lon="-0.47059">
        <ele>1612.4</ele>
        <time>2021-08-09 12:56:04</time>
      </trkpt>
      <trkpt lat="42.85397" lon="-0.4706">
        <ele>1612.6</ele>
        <time>2021-08-09 12:56:05</time>
      </trkpt>
      <trkpt lat="42.85397" lon="-0.47061">
        <ele>1612.8</ele>
        <time>2021-08-09 12:56:06</time>
      </trkpt>
      <trkpt lat="42.85397" lon="-0.47062">
        <ele>1613.2</ele>
        <time>2021-08-09 12:56:07</time>
      </trkpt>
      <trkpt lat="42.85397" lon="-0.47063">
        <ele>1613.2</ele>
        <time>2021-08-09 12:56:08</time>
      </trkpt>
      <trkpt lat="42.85397" lon="-0.47064">
        <ele>1613.4</ele>
        <time>2021-08-09 12:56:09</time>
      </trkpt>
      <trkpt lat="42.85396" lon="-0.47065">
        <ele>1613.8</ele>
        <time>2021-08-09 12:56:10</time>
      </trkpt>
      <trkpt lat="42.85396" lon="-0.47065">
        <ele>1614</ele>
        <time>2021-08-09 12:56:11</time>
      </trkpt>
      <trkpt lat="42.85396" lon="-0.47066">
        <ele>1614</ele>
        <time>2021-08-09 12:56:12</time>
      </trkpt>
      <trkpt lat="42.85396" lon="-0.47067">
        <ele>1614.2</ele>
        <time>2021-08-09 12:56:13</time>
      </trkpt>
      <trkpt lat="42.85395" lon="-0.47068">
        <ele>1614.6</ele>
        <time>2021-08-09 12:56:14</time>
      </trkpt>
      <trkpt lat="42.85395" lon="-0.4707">
        <ele>1614.8</ele>
        <time>2021-08-09 12:56:15</time>
      </trkpt>
      <trkpt lat="42.85395" lon="-0.4707">
        <ele>1615</ele>
        <time>2021-08-09 12:56:16</time>
      </trkpt>
      <trkpt lat="42.85394" lon="-0.4707">
        <ele>1615.2</ele>
        <time>2021-08-09 12:56:17</time>
      </trkpt>
      <trkpt lat="42.85393" lon="-0.47071">
        <ele>1615.2</ele>
        <time>2021-08-09 12:56:18</time>
      </trkpt>
      <trkpt lat="42.85393" lon="-0.47072">
        <ele>1615.2</ele>
        <time>2021-08-09 12:56:19</time>
      </trkpt>
      <trkpt lat="42.85392" lon="-0.47073">
        <ele>1615.6</ele>
        <time>2021-08-09 12:56:20</time>
      </trkpt>
      <trkpt lat="42.85392" lon="-0.47074">
        <ele>1615.4</ele>
        <time>2021-08-09 12:56:21</time>
      </trkpt>
      <trkpt lat="42.85392" lon="-0.47074">
        <ele>1615.6</ele>
        <time>2021-08-09 12:56:22</time>
      </trkpt>
      <trkpt lat="42.85392" lon="-0.47076">
        <ele>1615.8</ele>
        <time>2021-08-09 12:56:23</time>
      </trkpt>
      <trkpt lat="42.85392" lon="-0.47077">
        <ele>1615.8</ele>
        <time>2021-08-09 12:56:24</time>
      </trkpt>
      <trkpt lat="42.85391" lon="-0.47077">
        <ele>1616.2</ele>
        <time>2021-08-09 12:56:25</time>
      </trkpt>
      <trkpt lat="42.85391" lon="-0.47078">
        <ele>1616.4</ele>
        <time>2021-08-09 12:56:26</time>
      </trkpt>
      <trkpt lat="42.8539" lon="-0.47079">
        <ele>1616.6</ele>
        <time>2021-08-09 12:56:27</time>
      </trkpt>
      <trkpt lat="42.85389" lon="-0.47079">
        <ele>1616.4</ele>
        <time>2021-08-09 12:56:28</time>
      </trkpt>
      <trkpt lat="42.85389" lon="-0.4708">
        <ele>1616.6</ele>
        <time>2021-08-09 12:56:29</time>
      </trkpt>
      <trkpt lat="42.85387" lon="-0.47081">
        <ele>1616.6</ele>
        <time>2021-08-09 12:56:30</time>
      </trkpt>
      <trkpt lat="42.85387" lon="-0.47083">
        <ele>1617</ele>
        <time>2021-08-09 12:56:31</time>
      </trkpt>
      <trkpt lat="42.85386" lon="-0.47084">
        <ele>1617</ele>
        <time>2021-08-09 12:56:32</time>
      </trkpt>
      <trkpt lat="42.85385" lon="-0.47085">
        <ele>1617</ele>
        <time>2021-08-09 12:56:33</time>
      </trkpt>
      <trkpt lat="42.85384" lon="-0.47086">
        <ele>1617</ele>
        <time>2021-08-09 12:56:34</time>
      </trkpt>
      <trkpt lat="42.85383" lon="-0.47087">
        <ele>1617.2</ele>
        <time>2021-08-09 12:56:35</time>
      </trkpt>
      <trkpt lat="42.85383" lon="-0.47088">
        <ele>1617.2</ele>
        <time>2021-08-09 12:56:36</time>
      </trkpt>
      <trkpt lat="42.85382" lon="-0.4709">
        <ele>1617.2</ele>
        <time>2021-08-09 12:56:37</time>
      </trkpt>
      <trkpt lat="42.85381" lon="-0.4709">
        <ele>1617.4</ele>
        <time>2021-08-09 12:56:38</time>
      </trkpt>
      <trkpt lat="42.85381" lon="-0.47092">
        <ele>1617.6</ele>
        <time>2021-08-09 12:56:39</time>
      </trkpt>
      <trkpt lat="42.85381" lon="-0.47093">
        <ele>1617.6</ele>
        <time>2021-08-09 12:56:40</time>
      </trkpt>
      <trkpt lat="42.85381" lon="-0.47093">
        <ele>1617.6</ele>
        <time>2021-08-09 12:56:41</time>
      </trkpt>
      <trkpt lat="42.8538" lon="-0.47094">
        <ele>1617.8</ele>
        <time>2021-08-09 12:56:42</time>
      </trkpt>
      <trkpt lat="42.85379" lon="-0.47095">
        <ele>1617.8</ele>
        <time>2021-08-09 12:56:43</time>
      </trkpt>
      <trkpt lat="42.85379" lon="-0.47096">
        <ele>1618</ele>
        <time>2021-08-09 12:56:44</time>
      </trkpt>
      <trkpt lat="42.85379" lon="-0.47097">
        <ele>1618.2</ele>
        <time>2021-08-09 12:56:45</time>
      </trkpt>
      <trkpt lat="42.85378" lon="-0.47098">
        <ele>1618.2</ele>
        <time>2021-08-09 12:56:46</time>
      </trkpt>
      <trkpt lat="42.85377" lon="-0.47099">
        <ele>1618.4</ele>
        <time>2021-08-09 12:56:47</time>
      </trkpt>
      <trkpt lat="42.85377" lon="-0.47099">
        <ele>1618.6</ele>
        <time>2021-08-09 12:56:48</time>
      </trkpt>
      <trkpt lat="42.85377" lon="-0.47101">
        <ele>1618.4</ele>
        <time>2021-08-09 12:56:49</time>
      </trkpt>
      <trkpt lat="42.85377" lon="-0.47102">
        <ele>1618.4</ele>
        <time>2021-08-09 12:56:50</time>
      </trkpt>
      <trkpt lat="42.85377" lon="-0.47103">
        <ele>1618.4</ele>
        <time>2021-08-09 12:56:51</time>
      </trkpt>
      <trkpt lat="42.85377" lon="-0.47104">
        <ele>1618.4</ele>
        <time>2021-08-09 12:56:52</time>
      </trkpt>
      <trkpt lat="42.85377" lon="-0.47106">
        <ele>1618.2</ele>
        <time>2021-08-09 12:56:53</time>
      </trkpt>
      <trkpt lat="42.85376" lon="-0.47107">
        <ele>1618.4</ele>
        <time>2021-08-09 12:56:54</time>
      </trkpt>
      <trkpt lat="42.85376" lon="-0.47108">
        <ele>1618.4</ele>
        <time>2021-08-09 12:56:55</time>
      </trkpt>
      <trkpt lat="42.85375" lon="-0.47109">
        <ele>1618.4</ele>
        <time>2021-08-09 12:56:56</time>
      </trkpt>
      <trkpt lat="42.85375" lon="-0.4711">
        <ele>1618.4</ele>
        <time>2021-08-09 12:56:57</time>
      </trkpt>
      <trkpt lat="42.85376" lon="-0.47112">
        <ele>1618.4</ele>
        <time>2021-08-09 12:56:58</time>
      </trkpt>
      <trkpt lat="42.85375" lon="-0.47113">
        <ele>1618</ele>
        <time>2021-08-09 12:56:59</time>
      </trkpt>
      <trkpt lat="42.85374" lon="-0.47114">
        <ele>1617.8</ele>
        <time>2021-08-09 12:57:00</time>
      </trkpt>
      <trkpt lat="42.85373" lon="-0.47116">
        <ele>1618</ele>
        <time>2021-08-09 12:57:01</time>
      </trkpt>
      <trkpt lat="42.85372" lon="-0.47116">
        <ele>1617.8</ele>
        <time>2021-08-09 12:57:02</time>
      </trkpt>
      <trkpt lat="42.85371" lon="-0.47117">
        <ele>1617.6</ele>
        <time>2021-08-09 12:57:03</time>
      </trkpt>
      <trkpt lat="42.85368" lon="-0.47118">
        <ele>1617.2</ele>
        <time>2021-08-09 12:57:04</time>
      </trkpt>
      <trkpt lat="42.85367" lon="-0.47119">
        <ele>1617</ele>
        <time>2021-08-09 12:57:05</time>
      </trkpt>
      <trkpt lat="42.85365" lon="-0.47119">
        <ele>1616.8</ele>
        <time>2021-08-09 12:57:06</time>
      </trkpt>
      <trkpt lat="42.85364" lon="-0.47121">
        <ele>1616.8</ele>
        <time>2021-08-09 12:57:07</time>
      </trkpt>
      <trkpt lat="42.85361" lon="-0.47123">
        <ele>1616.8</ele>
        <time>2021-08-09 12:57:08</time>
      </trkpt>
      <trkpt lat="42.8536" lon="-0.47124">
        <ele>1617.2</ele>
        <time>2021-08-09 12:57:09</time>
      </trkpt>
      <trkpt lat="42.85359" lon="-0.47125">
        <ele>1617.4</ele>
        <time>2021-08-09 12:57:10</time>
      </trkpt>
      <trkpt lat="42.85359" lon="-0.47126">
        <ele>1617.8</ele>
        <time>2021-08-09 12:57:11</time>
      </trkpt>
      <trkpt lat="42.85358" lon="-0.47127">
        <ele>1618.2</ele>
        <time>2021-08-09 12:57:12</time>
      </trkpt>
      <trkpt lat="42.85356" lon="-0.47128">
        <ele>1618.6</ele>
        <time>2021-08-09 12:57:13</time>
      </trkpt>
      <trkpt lat="42.85356" lon="-0.47128">
        <ele>1618.6</ele>
        <time>2021-08-09 12:57:14</time>
      </trkpt>
      <trkpt lat="42.85355" lon="-0.47129">
        <ele>1618.6</ele>
        <time>2021-08-09 12:57:15</time>
      </trkpt>
      <trkpt lat="42.85354" lon="-0.4713">
        <ele>1618.8</ele>
        <time>2021-08-09 12:57:16</time>
      </trkpt>
      <trkpt lat="42.85353" lon="-0.47131">
        <ele>1619</ele>
        <time>2021-08-09 12:57:17</time>
      </trkpt>
      <trkpt lat="42.85353" lon="-0.47132">
        <ele>1619.2</ele>
        <time>2021-08-09 12:57:18</time>
      </trkpt>
      <trkpt lat="42.85352" lon="-0.47133">
        <ele>1619.2</ele>
        <time>2021-08-09 12:57:19</time>
      </trkpt>
      <trkpt lat="42.85351" lon="-0.47135">
        <ele>1619.2</ele>
        <time>2021-08-09 12:57:20</time>
      </trkpt>
      <trkpt lat="42.85351" lon="-0.47136">
        <ele>1619.2</ele>
        <time>2021-08-09 12:57:21</time>
      </trkpt>
      <trkpt lat="42.8535" lon="-0.47136">
        <ele>1619.2</ele>
        <time>2021-08-09 12:57:22</time>
      </trkpt>
      <trkpt lat="42.85349" lon="-0.47137">
        <ele>1619</ele>
        <time>2021-08-09 12:57:23</time>
      </trkpt>
      <trkpt lat="42.85348" lon="-0.47138">
        <ele>1619.2</ele>
        <time>2021-08-09 12:57:24</time>
      </trkpt>
      <trkpt lat="42.85348" lon="-0.47139">
        <ele>1619.4</ele>
        <time>2021-08-09 12:57:25</time>
      </trkpt>
      <trkpt lat="42.85347" lon="-0.4714">
        <ele>1619.4</ele>
        <time>2021-08-09 12:57:26</time>
      </trkpt>
      <trkpt lat="42.85347" lon="-0.47142">
        <ele>1619.2</ele>
        <time>2021-08-09 12:57:27</time>
      </trkpt>
      <trkpt lat="42.85345" lon="-0.47143">
        <ele>1619.4</ele>
        <time>2021-08-09 12:57:28</time>
      </trkpt>
      <trkpt lat="42.85344" lon="-0.47144">
        <ele>1619.6</ele>
        <time>2021-08-09 12:57:29</time>
      </trkpt>
      <trkpt lat="42.85343" lon="-0.47145">
        <ele>1619.8</ele>
        <time>2021-08-09 12:57:30</time>
      </trkpt>
      <trkpt lat="42.85342" lon="-0.47146">
        <ele>1619.8</ele>
        <time>2021-08-09 12:57:31</time>
      </trkpt>
      <trkpt lat="42.85342" lon="-0.47147">
        <ele>1620</ele>
        <time>2021-08-09 12:57:32</time>
      </trkpt>
      <trkpt lat="42.8534" lon="-0.47148">
        <ele>1620</ele>
        <time>2021-08-09 12:57:33</time>
      </trkpt>
      <trkpt lat="42.8534" lon="-0.47149">
        <ele>1620.2</ele>
        <time>2021-08-09 12:57:34</time>
      </trkpt>
      <trkpt lat="42.85339" lon="-0.4715">
        <ele>1620</ele>
        <time>2021-08-09 12:57:35</time>
      </trkpt>
      <trkpt lat="42.85339" lon="-0.4715">
        <ele>1620.4</ele>
        <time>2021-08-09 12:57:36</time>
      </trkpt>
      <trkpt lat="42.85337" lon="-0.4715">
        <ele>1620.4</ele>
        <time>2021-08-09 12:57:37</time>
      </trkpt>
      <trkpt lat="42.85336" lon="-0.4715">
        <ele>1620.4</ele>
        <time>2021-08-09 12:57:38</time>
      </trkpt>
      <trkpt lat="42.85336" lon="-0.47151">
        <ele>1620.4</ele>
        <time>2021-08-09 12:57:39</time>
      </trkpt>
      <trkpt lat="42.85335" lon="-0.47152">
        <ele>1620.6</ele>
        <time>2021-08-09 12:57:40</time>
      </trkpt>
      <trkpt lat="42.85334" lon="-0.47154">
        <ele>1620.8</ele>
        <time>2021-08-09 12:57:41</time>
      </trkpt>
      <trkpt lat="42.85334" lon="-0.47155">
        <ele>1620.8</ele>
        <time>2021-08-09 12:57:42</time>
      </trkpt>
      <trkpt lat="42.85333" lon="-0.47156">
        <ele>1620.8</ele>
        <time>2021-08-09 12:57:43</time>
      </trkpt>
      <trkpt lat="42.85333" lon="-0.47158">
        <ele>1621</ele>
        <time>2021-08-09 12:57:44</time>
      </trkpt>
      <trkpt lat="42.85333" lon="-0.47159">
        <ele>1621</ele>
        <time>2021-08-09 12:57:45</time>
      </trkpt>
      <trkpt lat="42.85332" lon="-0.4716">
        <ele>1621.2</ele>
        <time>2021-08-09 12:57:46</time>
      </trkpt>
      <trkpt lat="42.85331" lon="-0.4716">
        <ele>1621.2</ele>
        <time>2021-08-09 12:57:47</time>
      </trkpt>
      <trkpt lat="42.85331" lon="-0.47161">
        <ele>1621.2</ele>
        <time>2021-08-09 12:57:48</time>
      </trkpt>
      <trkpt lat="42.85332" lon="-0.47162">
        <ele>1621.4</ele>
        <time>2021-08-09 12:57:49</time>
      </trkpt>
      <trkpt lat="42.85332" lon="-0.47163">
        <ele>1621.6</ele>
        <time>2021-08-09 12:57:50</time>
      </trkpt>
      <trkpt lat="42.85332" lon="-0.47165">
        <ele>1621.6</ele>
        <time>2021-08-09 12:57:51</time>
      </trkpt>
      <trkpt lat="42.85333" lon="-0.47166">
        <ele>1621.6</ele>
        <time>2021-08-09 12:57:52</time>
      </trkpt>
      <trkpt lat="42.85333" lon="-0.47167">
        <ele>1622</ele>
        <time>2021-08-09 12:57:53</time>
      </trkpt>
      <trkpt lat="42.85332" lon="-0.47168">
        <ele>1622.2</ele>
        <time>2021-08-09 12:57:54</time>
      </trkpt>
      <trkpt lat="42.85332" lon="-0.47168">
        <ele>1622.4</ele>
        <time>2021-08-09 12:57:55</time>
      </trkpt>
      <trkpt lat="42.85332" lon="-0.47169">
        <ele>1622.6</ele>
        <time>2021-08-09 12:57:56</time>
      </trkpt>
      <trkpt lat="42.85333" lon="-0.4717">
        <ele>1622.6</ele>
        <time>2021-08-09 12:57:57</time>
      </trkpt>
      <trkpt lat="42.85333" lon="-0.47171">
        <ele>1622.8</ele>
        <time>2021-08-09 12:57:58</time>
      </trkpt>
      <trkpt lat="42.85332" lon="-0.47172">
        <ele>1622.8</ele>
        <time>2021-08-09 12:57:59</time>
      </trkpt>
      <trkpt lat="42.85331" lon="-0.47173">
        <ele>1623.2</ele>
        <time>2021-08-09 12:58:00</time>
      </trkpt>
      <trkpt lat="42.85331" lon="-0.47174">
        <ele>1623.2</ele>
        <time>2021-08-09 12:58:01</time>
      </trkpt>
      <trkpt lat="42.85331" lon="-0.47174">
        <ele>1623.4</ele>
        <time>2021-08-09 12:58:02</time>
      </trkpt>
      <trkpt lat="42.8533" lon="-0.47176">
        <ele>1623.4</ele>
        <time>2021-08-09 12:58:03</time>
      </trkpt>
      <trkpt lat="42.8533" lon="-0.47176">
        <ele>1623.6</ele>
        <time>2021-08-09 12:58:04</time>
      </trkpt>
      <trkpt lat="42.85329" lon="-0.47176">
        <ele>1623.6</ele>
        <time>2021-08-09 12:58:05</time>
      </trkpt>
      <trkpt lat="42.85329" lon="-0.47178">
        <ele>1623.6</ele>
        <time>2021-08-09 12:58:06</time>
      </trkpt>
      <trkpt lat="42.85328" lon="-0.47178">
        <ele>1623.6</ele>
        <time>2021-08-09 12:58:07</time>
      </trkpt>
      <trkpt lat="42.85328" lon="-0.4718">
        <ele>1623.8</ele>
        <time>2021-08-09 12:58:08</time>
      </trkpt>
      <trkpt lat="42.85327" lon="-0.47181">
        <ele>1624</ele>
        <time>2021-08-09 12:58:09</time>
      </trkpt>
      <trkpt lat="42.85326" lon="-0.47182">
        <ele>1624.2</ele>
        <time>2021-08-09 12:58:10</time>
      </trkpt>
      <trkpt lat="42.85326" lon="-0.47183">
        <ele>1624.2</ele>
        <time>2021-08-09 12:58:11</time>
      </trkpt>
      <trkpt lat="42.85325" lon="-0.47184">
        <ele>1624.2</ele>
        <time>2021-08-09 12:58:12</time>
      </trkpt>
      <trkpt lat="42.85324" lon="-0.47185">
        <ele>1624.6</ele>
        <time>2021-08-09 12:58:13</time>
      </trkpt>
      <trkpt lat="42.85323" lon="-0.47185">
        <ele>1624.4</ele>
        <time>2021-08-09 12:58:14</time>
      </trkpt>
      <trkpt lat="42.85322" lon="-0.47186">
        <ele>1624.8</ele>
        <time>2021-08-09 12:58:15</time>
      </trkpt>
      <trkpt lat="42.85322" lon="-0.47187">
        <ele>1625</ele>
        <time>2021-08-09 12:58:16</time>
      </trkpt>
      <trkpt lat="42.85322" lon="-0.47188">
        <ele>1625.2</ele>
        <time>2021-08-09 12:58:17</time>
      </trkpt>
      <trkpt lat="42.85321" lon="-0.47188">
        <ele>1625.4</ele>
        <time>2021-08-09 12:58:18</time>
      </trkpt>
      <trkpt lat="42.85321" lon="-0.47189">
        <ele>1625.6</ele>
        <time>2021-08-09 12:58:19</time>
      </trkpt>
      <trkpt lat="42.85321" lon="-0.47191">
        <ele>1625.6</ele>
        <time>2021-08-09 12:58:20</time>
      </trkpt>
      <trkpt lat="42.85321" lon="-0.47192">
        <ele>1625.6</ele>
        <time>2021-08-09 12:58:21</time>
      </trkpt>
      <trkpt lat="42.85321" lon="-0.47193">
        <ele>1625.6</ele>
        <time>2021-08-09 12:58:22</time>
      </trkpt>
      <trkpt lat="42.85321" lon="-0.47193">
        <ele>1626</ele>
        <time>2021-08-09 12:58:23</time>
      </trkpt>
      <trkpt lat="42.8532" lon="-0.47194">
        <ele>1626.4</ele>
        <time>2021-08-09 12:58:24</time>
      </trkpt>
      <trkpt lat="42.85319" lon="-0.47194">
        <ele>1626.4</ele>
        <time>2021-08-09 12:58:25</time>
      </trkpt>
      <trkpt lat="42.8532" lon="-0.47196">
        <ele>1626.6</ele>
        <time>2021-08-09 12:58:26</time>
      </trkpt>
      <trkpt lat="42.85319" lon="-0.47196">
        <ele>1626.6</ele>
        <time>2021-08-09 12:58:27</time>
      </trkpt>
      <trkpt lat="42.85318" lon="-0.47196">
        <ele>1627</ele>
        <time>2021-08-09 12:58:28</time>
      </trkpt>
      <trkpt lat="42.85318" lon="-0.47197">
        <ele>1627.2</ele>
        <time>2021-08-09 12:58:29</time>
      </trkpt>
      <trkpt lat="42.85317" lon="-0.47197">
        <ele>1626.8</ele>
        <time>2021-08-09 12:58:30</time>
      </trkpt>
      <trkpt lat="42.85316" lon="-0.47198">
        <ele>1626.8</ele>
        <time>2021-08-09 12:58:31</time>
      </trkpt>
      <trkpt lat="42.85314" lon="-0.47199">
        <ele>1627</ele>
        <time>2021-08-09 12:58:32</time>
      </trkpt>
      <trkpt lat="42.85313" lon="-0.472">
        <ele>1627.2</ele>
        <time>2021-08-09 12:58:33</time>
      </trkpt>
      <trkpt lat="42.85314" lon="-0.47201">
        <ele>1627.4</ele>
        <time>2021-08-09 12:58:34</time>
      </trkpt>
      <trkpt lat="42.85314" lon="-0.47202">
        <ele>1627.6</ele>
        <time>2021-08-09 12:58:35</time>
      </trkpt>
      <trkpt lat="42.85313" lon="-0.47203">
        <ele>1627.8</ele>
        <time>2021-08-09 12:58:36</time>
      </trkpt>
      <trkpt lat="42.85313" lon="-0.47203">
        <ele>1628.2</ele>
        <time>2021-08-09 12:58:37</time>
      </trkpt>
      <trkpt lat="42.85312" lon="-0.47204">
        <ele>1628</ele>
        <time>2021-08-09 12:58:38</time>
      </trkpt>
      <trkpt lat="42.85312" lon="-0.47204">
        <ele>1628.2</ele>
        <time>2021-08-09 12:58:39</time>
      </trkpt>
      <trkpt lat="42.85312" lon="-0.47205">
        <ele>1628.4</ele>
        <time>2021-08-09 12:58:40</time>
      </trkpt>
      <trkpt lat="42.85311" lon="-0.47205">
        <ele>1628.6</ele>
        <time>2021-08-09 12:58:41</time>
      </trkpt>
      <trkpt lat="42.85311" lon="-0.47206">
        <ele>1629</ele>
        <time>2021-08-09 12:58:42</time>
      </trkpt>
      <trkpt lat="42.85311" lon="-0.47206">
        <ele>1629</ele>
        <time>2021-08-09 12:58:43</time>
      </trkpt>
      <trkpt lat="42.8531" lon="-0.47206">
        <ele>1629.2</ele>
        <time>2021-08-09 12:58:44</time>
      </trkpt>
      <trkpt lat="42.85311" lon="-0.47207">
        <ele>1629.4</ele>
        <time>2021-08-09 12:58:45</time>
      </trkpt>
      <trkpt lat="42.85311" lon="-0.47207">
        <ele>1629.4</ele>
        <time>2021-08-09 12:58:46</time>
      </trkpt>
      <trkpt lat="42.8531" lon="-0.47208">
        <ele>1629.6</ele>
        <time>2021-08-09 12:58:47</time>
      </trkpt>
      <trkpt lat="42.85311" lon="-0.47209">
        <ele>1629.6</ele>
        <time>2021-08-09 12:58:48</time>
      </trkpt>
      <trkpt lat="42.85311" lon="-0.4721">
        <ele>1630</ele>
        <time>2021-08-09 12:58:49</time>
      </trkpt>
      <trkpt lat="42.85311" lon="-0.4721">
        <ele>1630.2</ele>
        <time>2021-08-09 12:58:50</time>
      </trkpt>
      <trkpt lat="42.85311" lon="-0.47211">
        <ele>1630.4</ele>
        <time>2021-08-09 12:58:51</time>
      </trkpt>
      <trkpt lat="42.85311" lon="-0.47212">
        <ele>1630.4</ele>
        <time>2021-08-09 12:58:52</time>
      </trkpt>
      <trkpt lat="42.85312" lon="-0.47213">
        <ele>1630.2</ele>
        <time>2021-08-09 12:58:53</time>
      </trkpt>
      <trkpt lat="42.85312" lon="-0.47213">
        <ele>1630.4</ele>
        <time>2021-08-09 12:58:54</time>
      </trkpt>
      <trkpt lat="42.85312" lon="-0.47214">
        <ele>1630.6</ele>
        <time>2021-08-09 12:58:55</time>
      </trkpt>
      <trkpt lat="42.85312" lon="-0.47214">
        <ele>1630.8</ele>
        <time>2021-08-09 12:58:56</time>
      </trkpt>
      <trkpt lat="42.85311" lon="-0.47214">
        <ele>1631</ele>
        <time>2021-08-09 12:58:57</time>
      </trkpt>
      <trkpt lat="42.8531" lon="-0.47214">
        <ele>1631.2</ele>
        <time>2021-08-09 12:58:58</time>
      </trkpt>
      <trkpt lat="42.8531" lon="-0.47214">
        <ele>1631</ele>
        <time>2021-08-09 12:58:59</time>
      </trkpt>
      <trkpt lat="42.8531" lon="-0.47214">
        <ele>1631</ele>
        <time>2021-08-09 12:59:00</time>
      </trkpt>
      <trkpt lat="42.85309" lon="-0.47215">
        <ele>1630.4</ele>
        <time>2021-08-09 12:59:01</time>
      </trkpt>
      <trkpt lat="42.85309" lon="-0.47216">
        <ele>1630.4</ele>
        <time>2021-08-09 12:59:02</time>
      </trkpt>
      <trkpt lat="42.8531" lon="-0.47217">
        <ele>1630.6</ele>
        <time>2021-08-09 12:59:03</time>
      </trkpt>
      <trkpt lat="42.8531" lon="-0.47218">
        <ele>1630.6</ele>
        <time>2021-08-09 12:59:04</time>
      </trkpt>
      <trkpt lat="42.85309" lon="-0.47219">
        <ele>1630.8</ele>
        <time>2021-08-09 12:59:05</time>
      </trkpt>
      <trkpt lat="42.85309" lon="-0.4722">
        <ele>1631</ele>
        <time>2021-08-09 12:59:06</time>
      </trkpt>
      <trkpt lat="42.85309" lon="-0.47221">
        <ele>1631.4</ele>
        <time>2021-08-09 12:59:07</time>
      </trkpt>
      <trkpt lat="42.85309" lon="-0.47222">
        <ele>1631.6</ele>
        <time>2021-08-09 12:59:08</time>
      </trkpt>
      <trkpt lat="42.85309" lon="-0.47222">
        <ele>1631.6</ele>
        <time>2021-08-09 12:59:09</time>
      </trkpt>
      <trkpt lat="42.85309" lon="-0.47223">
        <ele>1631.6</ele>
        <time>2021-08-09 12:59:10</time>
      </trkpt>
      <trkpt lat="42.85309" lon="-0.47224">
        <ele>1631.8</ele>
        <time>2021-08-09 12:59:11</time>
      </trkpt>
      <trkpt lat="42.85308" lon="-0.47225">
        <ele>1631.8</ele>
        <time>2021-08-09 12:59:12</time>
      </trkpt>
      <trkpt lat="42.85308" lon="-0.47226">
        <ele>1632</ele>
        <time>2021-08-09 12:59:13</time>
      </trkpt>
      <trkpt lat="42.85308" lon="-0.47226">
        <ele>1632.2</ele>
        <time>2021-08-09 12:59:14</time>
      </trkpt>
      <trkpt lat="42.85308" lon="-0.47227">
        <ele>1632.4</ele>
        <time>2021-08-09 12:59:15</time>
      </trkpt>
      <trkpt lat="42.85307" lon="-0.47228">
        <ele>1632.4</ele>
        <time>2021-08-09 12:59:16</time>
      </trkpt>
      <trkpt lat="42.85307" lon="-0.47229">
        <ele>1632.6</ele>
        <time>2021-08-09 12:59:17</time>
      </trkpt>
      <trkpt lat="42.85306" lon="-0.4723">
        <ele>1632.8</ele>
        <time>2021-08-09 12:59:18</time>
      </trkpt>
      <trkpt lat="42.85306" lon="-0.4723">
        <ele>1632.8</ele>
        <time>2021-08-09 12:59:19</time>
      </trkpt>
      <trkpt lat="42.85306" lon="-0.4723">
        <ele>1633</ele>
        <time>2021-08-09 12:59:20</time>
      </trkpt>
      <trkpt lat="42.85305" lon="-0.47231">
        <ele>1633.2</ele>
        <time>2021-08-09 12:59:21</time>
      </trkpt>
      <trkpt lat="42.85304" lon="-0.47232">
        <ele>1633.2</ele>
        <time>2021-08-09 12:59:22</time>
      </trkpt>
      <trkpt lat="42.85303" lon="-0.47233">
        <ele>1633.2</ele>
        <time>2021-08-09 12:59:23</time>
      </trkpt>
      <trkpt lat="42.85303" lon="-0.47234">
        <ele>1633.4</ele>
        <time>2021-08-09 12:59:24</time>
      </trkpt>
      <trkpt lat="42.85302" lon="-0.47235">
        <ele>1633.6</ele>
        <time>2021-08-09 12:59:25</time>
      </trkpt>
      <trkpt lat="42.85302" lon="-0.47236">
        <ele>1634</ele>
        <time>2021-08-09 12:59:26</time>
      </trkpt>
      <trkpt lat="42.85301" lon="-0.47237">
        <ele>1634</ele>
        <time>2021-08-09 12:59:27</time>
      </trkpt>
      <trkpt lat="42.85301" lon="-0.47238">
        <ele>1634</ele>
        <time>2021-08-09 12:59:28</time>
      </trkpt>
      <trkpt lat="42.85302" lon="-0.47239">
        <ele>1634</ele>
        <time>2021-08-09 12:59:29</time>
      </trkpt>
      <trkpt lat="42.85301" lon="-0.4724">
        <ele>1634.2</ele>
        <time>2021-08-09 12:59:30</time>
      </trkpt>
      <trkpt lat="42.853" lon="-0.47241">
        <ele>1634</ele>
        <time>2021-08-09 12:59:31</time>
      </trkpt>
      <trkpt lat="42.853" lon="-0.47241">
        <ele>1634.2</ele>
        <time>2021-08-09 12:59:32</time>
      </trkpt>
      <trkpt lat="42.85299" lon="-0.47242">
        <ele>1634.2</ele>
        <time>2021-08-09 12:59:33</time>
      </trkpt>
      <trkpt lat="42.85299" lon="-0.47243">
        <ele>1634.4</ele>
        <time>2021-08-09 12:59:34</time>
      </trkpt>
      <trkpt lat="42.85298" lon="-0.47244">
        <ele>1634.6</ele>
        <time>2021-08-09 12:59:35</time>
      </trkpt>
      <trkpt lat="42.85298" lon="-0.47244">
        <ele>1634.6</ele>
        <time>2021-08-09 12:59:36</time>
      </trkpt>
      <trkpt lat="42.85297" lon="-0.47245">
        <ele>1634.8</ele>
        <time>2021-08-09 12:59:37</time>
      </trkpt>
      <trkpt lat="42.85296" lon="-0.47247">
        <ele>1634.8</ele>
        <time>2021-08-09 12:59:38</time>
      </trkpt>
      <trkpt lat="42.85296" lon="-0.47248">
        <ele>1634.8</ele>
        <time>2021-08-09 12:59:39</time>
      </trkpt>
      <trkpt lat="42.85295" lon="-0.47249">
        <ele>1634.8</ele>
        <time>2021-08-09 12:59:40</time>
      </trkpt>
      <trkpt lat="42.85294" lon="-0.4725">
        <ele>1635</ele>
        <time>2021-08-09 12:59:41</time>
      </trkpt>
      <trkpt lat="42.85295" lon="-0.4725">
        <ele>1634.8</ele>
        <time>2021-08-09 12:59:42</time>
      </trkpt>
      <trkpt lat="42.85294" lon="-0.47251">
        <ele>1635</ele>
        <time>2021-08-09 12:59:43</time>
      </trkpt>
      <trkpt lat="42.85294" lon="-0.47252">
        <ele>1635.2</ele>
        <time>2021-08-09 12:59:44</time>
      </trkpt>
      <trkpt lat="42.85294" lon="-0.47252">
        <ele>1635.4</ele>
        <time>2021-08-09 12:59:52</time>
      </trkpt>
      <trkpt lat="42.85293" lon="-0.47253">
        <ele>1635.4</ele>
        <time>2021-08-09 12:59:53</time>
      </trkpt>
      <trkpt lat="42.85293" lon="-0.47255">
        <ele>1635.2</ele>
        <time>2021-08-09 12:59:54</time>
      </trkpt>
      <trkpt lat="42.85292" lon="-0.47255">
        <ele>1635</ele>
        <time>2021-08-09 12:59:55</time>
      </trkpt>
      <trkpt lat="42.85292" lon="-0.47256">
        <ele>1635.4</ele>
        <time>2021-08-09 12:59:56</time>
      </trkpt>
      <trkpt lat="42.85291" lon="-0.47257">
        <ele>1635.8</ele>
        <time>2021-08-09 12:59:57</time>
      </trkpt>
      <trkpt lat="42.8529" lon="-0.47257">
        <ele>1636.6</ele>
        <time>2021-08-09 12:59:58</time>
      </trkpt>
      <trkpt lat="42.8529" lon="-0.47258">
        <ele>1637</ele>
        <time>2021-08-09 12:59:59</time>
      </trkpt>
      <trkpt lat="42.8529" lon="-0.47259">
        <ele>1636.8</ele>
        <time>2021-08-09 13:00:00</time>
      </trkpt>
      <trkpt lat="42.85289" lon="-0.4726">
        <ele>1636.8</ele>
        <time>2021-08-09 13:00:01</time>
      </trkpt>
      <trkpt lat="42.85288" lon="-0.4726">
        <ele>1637</ele>
        <time>2021-08-09 13:00:02</time>
      </trkpt>
      <trkpt lat="42.85287" lon="-0.47261">
        <ele>1637</ele>
        <time>2021-08-09 13:00:03</time>
      </trkpt>
      <trkpt lat="42.85287" lon="-0.47263">
        <ele>1637</ele>
        <time>2021-08-09 13:00:04</time>
      </trkpt>
      <trkpt lat="42.85286" lon="-0.47263">
        <ele>1636.8</ele>
        <time>2021-08-09 13:00:05</time>
      </trkpt>
      <trkpt lat="42.85285" lon="-0.47264">
        <ele>1636.8</ele>
        <time>2021-08-09 13:00:06</time>
      </trkpt>
      <trkpt lat="42.85285" lon="-0.47264">
        <ele>1637.2</ele>
        <time>2021-08-09 13:00:07</time>
      </trkpt>
      <trkpt lat="42.85285" lon="-0.47265">
        <ele>1637.4</ele>
        <time>2021-08-09 13:00:08</time>
      </trkpt>
      <trkpt lat="42.85285" lon="-0.47266">
        <ele>1637.6</ele>
        <time>2021-08-09 13:00:09</time>
      </trkpt>
      <trkpt lat="42.85285" lon="-0.47267">
        <ele>1637.8</ele>
        <time>2021-08-09 13:00:10</time>
      </trkpt>
      <trkpt lat="42.85285" lon="-0.47269">
        <ele>1637.8</ele>
        <time>2021-08-09 13:00:11</time>
      </trkpt>
      <trkpt lat="42.85284" lon="-0.47269">
        <ele>1638</ele>
        <time>2021-08-09 13:00:12</time>
      </trkpt>
      <trkpt lat="42.85284" lon="-0.4727">
        <ele>1638.2</ele>
        <time>2021-08-09 13:00:13</time>
      </trkpt>
      <trkpt lat="42.85283" lon="-0.47271">
        <ele>1638.2</ele>
        <time>2021-08-09 13:00:14</time>
      </trkpt>
      <trkpt lat="42.85281" lon="-0.47272">
        <ele>1638</ele>
        <time>2021-08-09 13:00:15</time>
      </trkpt>
      <trkpt lat="42.85281" lon="-0.47273">
        <ele>1637.6</ele>
        <time>2021-08-09 13:00:16</time>
      </trkpt>
      <trkpt lat="42.8528" lon="-0.47274">
        <ele>1637.6</ele>
        <time>2021-08-09 13:00:17</time>
      </trkpt>
      <trkpt lat="42.85279" lon="-0.47275">
        <ele>1637.8</ele>
        <time>2021-08-09 13:00:18</time>
      </trkpt>
      <trkpt lat="42.85278" lon="-0.47275">
        <ele>1638.2</ele>
        <time>2021-08-09 13:00:19</time>
      </trkpt>
      <trkpt lat="42.85278" lon="-0.47276">
        <ele>1638.6</ele>
        <time>2021-08-09 13:00:20</time>
      </trkpt>
      <trkpt lat="42.85277" lon="-0.47277">
        <ele>1638.8</ele>
        <time>2021-08-09 13:00:21</time>
      </trkpt>
      <trkpt lat="42.85277" lon="-0.47278">
        <ele>1638.4</ele>
        <time>2021-08-09 13:00:22</time>
      </trkpt>
      <trkpt lat="42.85276" lon="-0.47278">
        <ele>1638.4</ele>
        <time>2021-08-09 13:00:23</time>
      </trkpt>
      <trkpt lat="42.85276" lon="-0.47278">
        <ele>1638.4</ele>
        <time>2021-08-09 13:00:24</time>
      </trkpt>
      <trkpt lat="42.85275" lon="-0.47278">
        <ele>1638.8</ele>
        <time>2021-08-09 13:00:25</time>
      </trkpt>
      <trkpt lat="42.85274" lon="-0.47279">
        <ele>1638.6</ele>
        <time>2021-08-09 13:00:26</time>
      </trkpt>
      <trkpt lat="42.85274" lon="-0.47279">
        <ele>1638.4</ele>
        <time>2021-08-09 13:00:27</time>
      </trkpt>
      <trkpt lat="42.85274" lon="-0.47279">
        <ele>1638.2</ele>
        <time>2021-08-09 13:00:28</time>
      </trkpt>
      <trkpt lat="42.85273" lon="-0.4728">
        <ele>1638.4</ele>
        <time>2021-08-09 13:00:29</time>
      </trkpt>
      <trkpt lat="42.85273" lon="-0.4728">
        <ele>1638.8</ele>
        <time>2021-08-09 13:00:30</time>
      </trkpt>
      <trkpt lat="42.85272" lon="-0.47281">
        <ele>1639</ele>
        <time>2021-08-09 13:00:31</time>
      </trkpt>
      <trkpt lat="42.85272" lon="-0.47282">
        <ele>1639</ele>
        <time>2021-08-09 13:00:32</time>
      </trkpt>
      <trkpt lat="42.85272" lon="-0.47282">
        <ele>1638.8</ele>
        <time>2021-08-09 13:00:33</time>
      </trkpt>
      <trkpt lat="42.85271" lon="-0.47283">
        <ele>1639</ele>
        <time>2021-08-09 13:00:34</time>
      </trkpt>
      <trkpt lat="42.85271" lon="-0.47284">
        <ele>1638.8</ele>
        <time>2021-08-09 13:00:35</time>
      </trkpt>
      <trkpt lat="42.8527" lon="-0.47285">
        <ele>1639</ele>
        <time>2021-08-09 13:00:36</time>
      </trkpt>
      <trkpt lat="42.8527" lon="-0.47286">
        <ele>1639.2</ele>
        <time>2021-08-09 13:00:37</time>
      </trkpt>
      <trkpt lat="42.85269" lon="-0.47287">
        <ele>1639.4</ele>
        <time>2021-08-09 13:00:38</time>
      </trkpt>
      <trkpt lat="42.85269" lon="-0.47288">
        <ele>1639.8</ele>
        <time>2021-08-09 13:00:39</time>
      </trkpt>
      <trkpt lat="42.85269" lon="-0.47289">
        <ele>1639.8</ele>
        <time>2021-08-09 13:00:40</time>
      </trkpt>
      <trkpt lat="42.85268" lon="-0.47289">
        <ele>1640.2</ele>
        <time>2021-08-09 13:00:41</time>
      </trkpt>
      <trkpt lat="42.85268" lon="-0.4729">
        <ele>1640.6</ele>
        <time>2021-08-09 13:00:42</time>
      </trkpt>
      <trkpt lat="42.85267" lon="-0.47291">
        <ele>1640.8</ele>
        <time>2021-08-09 13:00:43</time>
      </trkpt>
      <trkpt lat="42.85266" lon="-0.47293">
        <ele>1640.6</ele>
        <time>2021-08-09 13:00:44</time>
      </trkpt>
      <trkpt lat="42.85265" lon="-0.47293">
        <ele>1640.4</ele>
        <time>2021-08-09 13:00:45</time>
      </trkpt>
      <trkpt lat="42.85265" lon="-0.47294">
        <ele>1640.6</ele>
        <time>2021-08-09 13:00:46</time>
      </trkpt>
      <trkpt lat="42.85264" lon="-0.47294">
        <ele>1640.6</ele>
        <time>2021-08-09 13:00:47</time>
      </trkpt>
      <trkpt lat="42.85264" lon="-0.47295">
        <ele>1640.8</ele>
        <time>2021-08-09 13:00:48</time>
      </trkpt>
      <trkpt lat="42.85263" lon="-0.47296">
        <ele>1641.2</ele>
        <time>2021-08-09 13:00:49</time>
      </trkpt>
      <trkpt lat="42.85262" lon="-0.47296">
        <ele>1641.6</ele>
        <time>2021-08-09 13:00:50</time>
      </trkpt>
      <trkpt lat="42.85261" lon="-0.47297">
        <ele>1641.6</ele>
        <time>2021-08-09 13:00:51</time>
      </trkpt>
      <trkpt lat="42.85261" lon="-0.47297">
        <ele>1641.6</ele>
        <time>2021-08-09 13:00:52</time>
      </trkpt>
      <trkpt lat="42.8526" lon="-0.47298">
        <ele>1641.6</ele>
        <time>2021-08-09 13:00:53</time>
      </trkpt>
      <trkpt lat="42.85259" lon="-0.47298">
        <ele>1642</ele>
        <time>2021-08-09 13:00:54</time>
      </trkpt>
      <trkpt lat="42.85259" lon="-0.47298">
        <ele>1642</ele>
        <time>2021-08-09 13:00:55</time>
      </trkpt>
      <trkpt lat="42.85258" lon="-0.47299">
        <ele>1642.2</ele>
        <time>2021-08-09 13:00:56</time>
      </trkpt>
      <trkpt lat="42.85257" lon="-0.47299">
        <ele>1642.2</ele>
        <time>2021-08-09 13:00:57</time>
      </trkpt>
      <trkpt lat="42.85256" lon="-0.47299">
        <ele>1642.4</ele>
        <time>2021-08-09 13:00:58</time>
      </trkpt>
      <trkpt lat="42.85256" lon="-0.473">
        <ele>1642.6</ele>
        <time>2021-08-09 13:00:59</time>
      </trkpt>
      <trkpt lat="42.85255" lon="-0.47301">
        <ele>1642.4</ele>
      </trkpt>
      <trkpt lat="42.85255" lon="-0.47301">
        <ele>1642.6</ele>
        <time>2021-08-09 13:01:01</time>
      </trkpt>
      <trkpt lat="42.85254" lon="-0.47302">
        <ele>1642.8</ele>
        <time>2021-08-09 13:01:02</time>
      </trkpt>
      <trkpt lat="42.85254" lon="-0.47304">
        <ele>1643</ele>
        <time>2021-08-09 13:01:03</time>
      </trkpt>
      <trkpt lat="42.85254" lon="-0.47305">
        <ele>1643.4</ele>
        <time>2021-08-09 13:01:04</time>
      </trkpt>
      <trkpt lat="42.85253" lon="-0.47306">
        <ele>1643.8</ele>
        <time>2021-08-09 13:01:05</time>
      </trkpt>
      <trkpt lat="42.85253" lon="-0.47307">
        <ele>1643.8</ele>
        <time>2021-08-09 13:01:06</time>
      </trkpt>
      <trkpt lat="42.85252" lon="-0.47308">
        <ele>1644</ele>
        <time>2021-08-09 13:01:07</time>
      </trkpt>
      <trkpt lat="42.85252" lon="-0.47308">
        <ele>1643.8</ele>
        <time>2021-08-09 13:01:08</time>
      </trkpt>
      <trkpt lat="42.85251" lon="-0.47308">
        <ele>1644.2</ele>
        <time>2021-08-09 13:01:09</time>
      </trkpt>
      <trkpt lat="42.8525" lon="-0.47307">
        <ele>1643</ele>
        <time>2021-08-09 13:01:12</time>
      </trkpt>
      <trkpt lat="42.85249" lon="-0.47307">
        <ele>1643.4</ele>
        <time>2021-08-09 13:01:13</time>
      </trkpt>
      <trkpt lat="42.85249" lon="-0.47307">
        <ele>1643.8</ele>
        <time>2021-08-09 13:01:14</time>
      </trkpt>
      <trkpt lat="42.85248" lon="-0.47307">
        <ele>1644.4</ele>
        <time>2021-08-09 13:01:16</time>
      </trkpt>
      <trkpt lat="42.85248" lon="-0.47307">
        <ele>1644.2</ele>
        <time>2021-08-09 13:01:17</time>
      </trkpt>
      <trkpt lat="42.85247" lon="-0.47307">
        <ele>1644.2</ele>
        <time>2021-08-09 13:01:18</time>
      </trkpt>
      <trkpt lat="42.85247" lon="-0.47308">
        <ele>1644.2</ele>
      </trkpt>
      <trkpt lat="42.85246" lon="-0.47308">
        <ele>1644.6</ele>
        <time>2021-08-09 13:01:19</time>
      </trkpt>
      <trkpt lat="42.85245" lon="-0.47308">
        <ele>1644.6</ele>
        <time>2021-08-09 13:01:20</time>
      </trkpt>
      <trkpt lat="42.85245" lon="-0.47308">
        <ele>1644.6</ele>
        <time>2021-08-09 13:01:21</time>
      </trkpt>
      <trkpt lat="42.85244" lon="-0.47309">
        <ele>1644.8</ele>
        <time>2021-08-09 13:01:22</time>
      </trkpt>
      <trkpt lat="42.85244" lon="-0.47309">
        <ele>1645</ele>
        <time>2021-08-09 13:01:23</time>
      </trkpt>
      <trkpt lat="42.85243" lon="-0.47309">
        <ele>1645</ele>
        <time>2021-08-09 13:01:24</time>
      </trkpt>
      <trkpt lat="42.85242" lon="-0.4731">
        <ele>1644.8</ele>
        <time>2021-08-09 13:01:25</time>
      </trkpt>
      <trkpt lat="42.85241" lon="-0.4731">
        <ele>1645</ele>
        <time>2021-08-09 13:01:26</time>
      </trkpt>
      <trkpt lat="42.8524" lon="-0.4731">
        <ele>1645.2</ele>
        <time>2021-08-09 13:01:27</time>
      </trkpt>
      <trkpt lat="42.85239" lon="-0.4731">
        <ele>1645.2</ele>
        <time>2021-08-09 13:01:28</time>
      </trkpt>
      <trkpt lat="42.85238" lon="-0.47311">
        <ele>1645.4</ele>
        <time>2021-08-09 13:01:29</time>
      </trkpt>
      <trkpt lat="42.85237" lon="-0.47311">
        <ele>1645.6</ele>
        <time>2021-08-09 13:01:30</time>
      </trkpt>
      <trkpt lat="42.85236" lon="-0.47312">
        <ele>1645.6</ele>
        <time>2021-08-09 13:01:31</time>
      </trkpt>
      <trkpt lat="42.85235" lon="-0.47312">
        <ele>1645.8</ele>
        <time>2021-08-09 13:01:33</time>
      </trkpt>
      <trkpt lat="42.85234" lon="-0.47312">
        <ele>1645.8</ele>
      </trkpt>
      <trkpt lat="42.85233" lon="-0.47312">
        <ele>1646.2</ele>
        <time>2021-08-09 13:01:34</time>
      </trkpt>
      <trkpt lat="42.85233" lon="-0.47312">
        <ele>1646.4</ele>
        <time>2021-08-09 13:01:35</time>
      </trkpt>
      <trkpt lat="42.85233" lon="-0.47312">
        <ele>1646.4</ele>
        <time>2021-08-09 13:01:36</time>
      </trkpt>
      <trkpt lat="42.85232" lon="-0.47312">
        <ele>1645.8</ele>
        <time>2021-08-09 13:01:37</time>
      </trkpt>
      <trkpt lat="42.85231" lon="-0.47311">
        <ele>1646</ele>
        <time>2021-08-09 13:01:38</time>
      </trkpt>
      <trkpt lat="42.8523" lon="-0.47312">
        <ele>1646.2</ele>
        <time>2021-08-09 13:01:39</time>
      </trkpt>
      <trkpt lat="42.85229" lon="-0.47312">
        <ele>1646.4</ele>
        <time>2021-08-09 13:01:40</time>
      </trkpt>
      <trkpt lat="42.85228" lon="-0.47312">
        <ele>1646.4</ele>
        <time>2021-08-09 13:01:41</time>
      </trkpt>
      <trkpt lat="42.85227" lon="-0.47312">
        <ele>1646.6</ele>
        <time>2021-08-09 13:01:42</time>
      </trkpt>
      <trkpt lat="42.85226" lon="-0.47312">
        <ele>1646.6</ele>
        <time>2021-08-09 13:01:43</time>
      </trkpt>
      <trkpt lat="42.85226" lon="-0.47312">
        <ele>1646.8</ele>
        <time>2021-08-09 13:01:44</time>
      </trkpt>
      <trkpt lat="42.85225" lon="-0.47312">
        <ele>1647.2</ele>
        <time>2021-08-09 13:01:45</time>
      </trkpt>
      <trkpt lat="42.85225" lon="-0.47313">
        <ele>1647.2</ele>
        <time>2021-08-09 13:01:46</time>
      </trkpt>
      <trkpt lat="42.85224" lon="-0.47314">
        <ele>1647.4</ele>
        <time>2021-08-09 13:01:47</time>
      </trkpt>
      <trkpt lat="42.85223" lon="-0.47314">
        <ele>1647.4</ele>
        <time>2021-08-09 13:01:48</time>
      </trkpt>
      <trkpt lat="42.85222" lon="-0.47314">
        <ele>1647.4</ele>
        <time>2021-08-09 13:01:49</time>
      </trkpt>
      <trkpt lat="42.85221" lon="-0.47314">
        <ele>1647.4</ele>
        <time>2021-08-09 13:01:50</time>
      </trkpt>
      <trkpt lat="42.85221" lon="-0.47314">
        <ele>1647.6</ele>
        <time>2021-08-09 13:01:51</time>
      </trkpt>
      <trkpt lat="42.8522" lon="-0.47314">
        <ele>1647.8</ele>
        <time>2021-08-09 13:01:53</time>
      </trkpt>
      <trkpt lat="42.85219" lon="-0.47313">
        <ele>1648</ele>
      </trkpt>
      <trkpt lat="42.85218" lon="-0.47313">
        <ele>1648.2</ele>
        <time>2021-08-09 13:01:54</time>
      </trkpt>
      <trkpt lat="42.85217" lon="-0.47313">
        <ele>1648.4</ele>
        <time>2021-08-09 13:01:55</time>
      </trkpt>
      <trkpt lat="42.85217" lon="-0.47313">
        <ele>1648.6</ele>
        <time>2021-08-09 13:01:56</time>
      </trkpt>
      <trkpt lat="42.85215" lon="-0.47314">
        <ele>1648.8</ele>
        <time>2021-08-09 13:01:57</time>
      </trkpt>
      <trkpt lat="42.85215" lon="-0.47314">
        <ele>1648.8</ele>
        <time>2021-08-09 13:01:58</time>
      </trkpt>
      <trkpt lat="42.85214" lon="-0.47314">
        <ele>1649</ele>
        <time>2021-08-09 13:01:59</time>
      </trkpt>
      <trkpt lat="42.85213" lon="-0.47313">
        <ele>1649</ele>
        <time>2021-08-09 13:02:00</time>
      </trkpt>
      <trkpt lat="42.85212" lon="-0.47313">
        <ele>1649</ele>
        <time>2021-08-09 13:02:01</time>
      </trkpt>
      <trkpt lat="42.85211" lon="-0.47313">
        <ele>1649.2</ele>
        <time>2021-08-09 13:02:02</time>
      </trkpt>
      <trkpt lat="42.8521" lon="-0.47312">
        <ele>1649.2</ele>
        <time>2021-08-09 13:02:03</time>
      </trkpt>
      <trkpt lat="42.85209" lon="-0.47312">
        <ele>1649.8</ele>
        <time>2021-08-09 13:02:04</time>
      </trkpt>
      <trkpt lat="42.85209" lon="-0.47312">
        <ele>1650</ele>
        <time>2021-08-09 13:02:05</time>
      </trkpt>
      <trkpt lat="42.85208" lon="-0.47312">
        <ele>1650.2</ele>
        <time>2021-08-09 13:02:06</time>
      </trkpt>
      <trkpt lat="42.85208" lon="-0.47312">
        <ele>1650</ele>
        <time>2021-08-09 13:02:07</time>
      </trkpt>
      <trkpt lat="42.85207" lon="-0.47312">
        <ele>1650</ele>
        <time>2021-08-09 13:02:08</time>
      </trkpt>
      <trkpt lat="42.85206" lon="-0.47311">
        <ele>1649.8</ele>
        <time>2021-08-09 13:02:09</time>
      </trkpt>
      <trkpt lat="42.85205" lon="-0.47311">
        <ele>1650</ele>
        <time>2021-08-09 13:02:10</time>
      </trkpt>
      <trkpt lat="42.85204" lon="-0.47311">
        <ele>1650.2</ele>
        <time>2021-08-09 13:02:11</time>
      </trkpt>
      <trkpt lat="42.85204" lon="-0.47311">
        <ele>1650.6</ele>
        <time>2021-08-09 13:02:12</time>
      </trkpt>
      <trkpt lat="42.85203" lon="-0.47311">
        <ele>1650.6</ele>
        <time>2021-08-09 13:02:13</time>
      </trkpt>
      <trkpt lat="42.85202" lon="-0.4731">
        <ele>1650.8</ele>
        <time>2021-08-09 13:02:14</time>
      </trkpt>
      <trkpt lat="42.85202" lon="-0.4731">
        <ele>1651</ele>
        <time>2021-08-09 13:02:15</time>
      </trkpt>
      <trkpt lat="42.85201" lon="-0.47309">
        <ele>1651.2</ele>
        <time>2021-08-09 13:02:16</time>
      </trkpt>
      <trkpt lat="42.852" lon="-0.47308">
        <ele>1651.2</ele>
        <time>2021-08-09 13:02:17</time>
      </trkpt>
      <trkpt lat="42.85199" lon="-0.47308">
        <ele>1651.6</ele>
        <time>2021-08-09 13:02:18</time>
      </trkpt>
      <trkpt lat="42.85198" lon="-0.47308">
        <ele>1651.6</ele>
        <time>2021-08-09 13:02:19</time>
      </trkpt>
      <trkpt lat="42.85198" lon="-0.47307">
        <ele>1651.8</ele>
        <time>2021-08-09 13:02:20</time>
      </trkpt>
      <trkpt lat="42.85197" lon="-0.47307">
        <ele>1651.8</ele>
        <time>2021-08-09 13:02:21</time>
      </trkpt>
      <trkpt lat="42.85196" lon="-0.47306">
        <ele>1651.8</ele>
        <time>2021-08-09 13:02:22</time>
      </trkpt>
      <trkpt lat="42.85195" lon="-0.47306">
        <ele>1651.8</ele>
        <time>2021-08-09 13:02:23</time>
      </trkpt>
      <trkpt lat="42.85194" lon="-0.47305">
        <ele>1652</ele>
        <time>2021-08-09 13:02:24</time>
      </trkpt>
      <trkpt lat="42.85194" lon="-0.47304">
        <ele>1652</ele>
        <time>2021-08-09 13:02:26</time>
      </trkpt>
      <trkpt lat="42.85193" lon="-0.47304">
        <ele>1652.2</ele>
        <time>2021-08-09 13:02:27</time>
      </trkpt>
      <trkpt lat="42.85192" lon="-0.47303">
        <ele>1652.2</ele>
        <time>2021-08-09 13:02:28</time>
      </trkpt>
      <trkpt lat="42.85191" lon="-0.47302">
        <ele>1652.4</ele>
        <time>2021-08-09 13:02:29</time>
      </trkpt>
      <trkpt lat="42.85191" lon="-0.47302">
        <ele>1652.4</ele>
        <time>2021-08-09 13:02:30</time>
      </trkpt>
      <trkpt lat="42.8519" lon="-0.47302">
        <ele>1652.6</ele>
        <time>2021-08-09 13:02:31</time>
      </trkpt>
      <trkpt lat="42.85189" lon="-0.47301">
        <ele>1652.8</ele>
        <time>2021-08-09 13:02:32</time>
      </trkpt>
      <trkpt lat="42.85188" lon="-0.47301">
        <ele>1653</ele>
        <time>2021-08-09 13:02:33</time>
      </trkpt>
      <trkpt lat="42.85188" lon="-0.47301">
        <ele>1653</ele>
        <time>2021-08-09 13:02:34</time>
      </trkpt>
      <trkpt lat="42.85187" lon="-0.473">
        <ele>1653.2</ele>
        <time>2021-08-09 13:02:35</time>
      </trkpt>
      <trkpt lat="42.85187" lon="-0.473">
        <ele>1653.4</ele>
        <time>2021-08-09 13:02:36</time>
      </trkpt>
      <trkpt lat="42.85186" lon="-0.47299">
        <ele>1653.4</ele>
        <time>2021-08-09 13:02:37</time>
      </trkpt>
      <trkpt lat="42.85185" lon="-0.47298">
        <ele>1653.4</ele>
        <time>2021-08-09 13:02:38</time>
      </trkpt>
      <trkpt lat="42.85185" lon="-0.47297">
        <ele>1653.6</ele>
        <time>2021-08-09 13:02:39</time>
      </trkpt>
      <trkpt lat="42.85185" lon="-0.47297">
        <ele>1653.8</ele>
        <time>2021-08-09 13:02:40</time>
      </trkpt>
      <trkpt lat="42.85184" lon="-0.47297">
        <ele>1654</ele>
        <time>2021-08-09 13:02:41</time>
      </trkpt>
      <trkpt lat="42.85184" lon="-0.47297">
        <ele>1653.6</ele>
        <time>2021-08-09 13:02:42</time>
      </trkpt>
      <trkpt lat="42.85183" lon="-0.47296">
        <ele>1653.2</ele>
        <time>2021-08-09 13:02:43</time>
      </trkpt>
      <trkpt lat="42.85182" lon="-0.47296">
        <ele>1653</ele>
        <time>2021-08-09 13:02:44</time>
      </trkpt>
      <trkpt lat="42.85182" lon="-0.47296">
        <ele>1653.2</ele>
        <time>2021-08-09 13:02:45</time>
      </trkpt>
      <trkpt lat="42.85182" lon="-0.47296">
        <ele>1653.6</ele>
        <time>2021-08-09 13:02:46</time>
      </trkpt>
      <trkpt lat="42.8518" lon="-0.47296">
        <ele>1652.2</ele>
        <time>2021-08-09 13:02:47</time>
      </trkpt>
      <trkpt lat="42.85179" lon="-0.47296">
        <ele>1652</ele>
        <time>2021-08-09 13:02:48</time>
      </trkpt>
      <trkpt lat="42.85178" lon="-0.47295">
        <ele>1653.6</ele>
        <time>2021-08-09 13:02:49</time>
      </trkpt>
      <trkpt lat="42.85177" lon="-0.47296">
        <ele>1653.6</ele>
        <time>2021-08-09 13:02:50</time>
      </trkpt>
      <trkpt lat="42.85176" lon="-0.47296">
        <ele>1653.8</ele>
        <time>2021-08-09 13:02:51</time>
      </trkpt>
      <trkpt lat="42.85176" lon="-0.47296">
        <ele>1654</ele>
        <time>2021-08-09 13:02:52</time>
      </trkpt>
      <trkpt lat="42.85175" lon="-0.47296">
        <ele>1654.2</ele>
        <time>2021-08-09 13:02:53</time>
      </trkpt>
      <trkpt lat="42.85174" lon="-0.47296">
        <ele>1654.4</ele>
        <time>2021-08-09 13:02:54</time>
      </trkpt>
      <trkpt lat="42.85173" lon="-0.47296">
        <ele>1654.6</ele>
        <time>2021-08-09 13:02:55</time>
      </trkpt>
      <trkpt lat="42.85172" lon="-0.47296">
        <ele>1654.8</ele>
        <time>2021-08-09 13:02:56</time>
      </trkpt>
      <trkpt lat="42.85171" lon="-0.47297">
        <ele>1655</ele>
        <time>2021-08-09 13:02:57</time>
      </trkpt>
      <trkpt lat="42.8517" lon="-0.47297">
        <ele>1655.2</ele>
        <time>2021-08-09 13:02:58</time>
      </trkpt>
      <trkpt lat="42.85169" lon="-0.47297">
        <ele>1655.2</ele>
        <time>2021-08-09 13:02:59</time>
      </trkpt>
      <trkpt lat="42.85168" lon="-0.47297">
        <ele>1655.4</ele>
        <time>2021-08-09 13:03:00</time>
      </trkpt>
      <trkpt lat="42.85167" lon="-0.47297">
        <ele>1655.4</ele>
        <time>2021-08-09 13:03:01</time>
      </trkpt>
      <trkpt lat="42.85167" lon="-0.47298">
        <ele>1655.4</ele>
        <time>2021-08-09 13:03:02</time>
      </trkpt>
      <trkpt lat="42.85166" lon="-0.47298">
        <ele>1655.6</ele>
        <time>2021-08-09 13:03:03</time>
      </trkpt>
      <trkpt lat="42.85165" lon="-0.47297">
        <ele>1655.6</ele>
        <time>2021-08-09 13:03:04</time>
      </trkpt>
      <trkpt lat="42.85164" lon="-0.47298">
        <ele>1655.6</ele>
        <time>2021-08-09 13:03:05</time>
      </trkpt>
      <trkpt lat="42.85163" lon="-0.47298">
        <ele>1655.6</ele>
        <time>2021-08-09 13:03:06</time>
      </trkpt>
      <trkpt lat="42.85162" lon="-0.47298">
        <ele>1655.6</ele>
        <time>2021-08-09 13:03:07</time>
      </trkpt>
      <trkpt lat="42.85161" lon="-0.47298">
        <ele>1655.8</ele>
        <time>2021-08-09 13:03:08</time>
      </trkpt>
      <trkpt lat="42.8516" lon="-0.47298">
        <ele>1656</ele>
        <time>2021-08-09 13:03:09</time>
      </trkpt>
      <trkpt lat="42.85159" lon="-0.47298">
        <ele>1656</ele>
        <time>2021-08-09 13:03:10</time>
      </trkpt>
      <trkpt lat="42.85158" lon="-0.47297">
        <ele>1656</ele>
        <time>2021-08-09 13:03:11</time>
      </trkpt>
      <trkpt lat="42.85157" lon="-0.47296">
        <ele>1656</ele>
        <time>2021-08-09 13:03:12</time>
      </trkpt>
      <trkpt lat="42.85157" lon="-0.47295">
        <ele>1656</ele>
        <time>2021-08-09 13:03:13</time>
      </trkpt>
      <trkpt lat="42.85156" lon="-0.47295">
        <ele>1655.4</ele>
        <time>2021-08-09 13:03:14</time>
      </trkpt>
      <trkpt lat="42.85155" lon="-0.47295">
        <ele>1655.6</ele>
        <time>2021-08-09 13:03:15</time>
      </trkpt>
      <trkpt lat="42.85154" lon="-0.47295">
        <ele>1655.4</ele>
        <time>2021-08-09 13:03:16</time>
      </trkpt>
      <trkpt lat="42.85153" lon="-0.47295">
        <ele>1655.6</ele>
        <time>2021-08-09 13:03:17</time>
      </trkpt>
      <trkpt lat="42.85152" lon="-0.47296">
        <ele>1656</ele>
        <time>2021-08-09 13:03:18</time>
      </trkpt>
      <trkpt lat="42.85151" lon="-0.47295">
        <ele>1656.4</ele>
        <time>2021-08-09 13:03:19</time>
      </trkpt>
      <trkpt lat="42.8515" lon="-0.47295">
        <ele>1656.8</ele>
        <time>2021-08-09 13:03:20</time>
      </trkpt>
      <trkpt lat="42.8515" lon="-0.47295">
        <ele>1657.2</ele>
        <time>2021-08-09 13:03:21</time>
      </trkpt>
      <trkpt lat="42.85149" lon="-0.47296">
        <ele>1656.6</ele>
        <time>2021-08-09 13:03:22</time>
      </trkpt>
      <trkpt lat="42.85148" lon="-0.47296">
        <ele>1656.6</ele>
        <time>2021-08-09 13:03:23</time>
      </trkpt>
      <trkpt lat="42.85148" lon="-0.47296">
        <ele>1656.4</ele>
        <time>2021-08-09 13:03:24</time>
      </trkpt>
      <trkpt lat="42.85147" lon="-0.47295">
        <ele>1656.8</ele>
        <time>2021-08-09 13:03:25</time>
      </trkpt>
      <trkpt lat="42.85146" lon="-0.47296">
        <ele>1656.6</ele>
        <time>2021-08-09 13:03:26</time>
      </trkpt>
      <trkpt lat="42.85145" lon="-0.47296">
        <ele>1657</ele>
        <time>2021-08-09 13:03:27</time>
      </trkpt>
      <trkpt lat="42.85145" lon="-0.47296">
        <ele>1656.8</ele>
        <time>2021-08-09 13:03:28</time>
      </trkpt>
      <trkpt lat="42.85144" lon="-0.47295">
        <ele>1656.6</ele>
        <time>2021-08-09 13:03:29</time>
      </trkpt>
      <trkpt lat="42.85143" lon="-0.47295">
        <ele>1656</ele>
        <time>2021-08-09 13:03:30</time>
      </trkpt>
      <trkpt lat="42.85142" lon="-0.47295">
        <ele>1657</ele>
        <time>2021-08-09 13:03:31</time>
      </trkpt>
      <trkpt lat="42.85142" lon="-0.47295">
        <ele>1658</ele>
        <time>2021-08-09 13:03:32</time>
      </trkpt>
      <trkpt lat="42.85142" lon="-0.47295">
        <ele>1658.8</ele>
        <time>2021-08-09 13:03:33</time>
      </trkpt>
      <trkpt lat="42.85142" lon="-0.47295">
        <ele>1659</ele>
        <time>2021-08-09 13:03:34</time>
      </trkpt>
      <trkpt lat="42.85142" lon="-0.47295">
        <ele>1658.8</ele>
        <time>2021-08-09 13:03:35</time>
      </trkpt>
      <trkpt lat="42.85142" lon="-0.47295">
        <ele>1659</ele>
        <time>2021-08-09 13:03:36</time>
      </trkpt>
      <trkpt lat="42.85141" lon="-0.47295">
        <ele>1659</ele>
        <time>2021-08-09 13:03:37</time>
      </trkpt>
      <trkpt lat="42.85141" lon="-0.47295">
        <ele>1659.6</ele>
        <time>2021-08-09 13:03:38</time>
      </trkpt>
      <trkpt lat="42.85141" lon="-0.47294">
        <ele>1659.6</ele>
        <time>2021-08-09 13:03:39</time>
      </trkpt>
      <trkpt lat="42.85141" lon="-0.47294">
        <ele>1659</ele>
        <time>2021-08-09 13:03:40</time>
      </trkpt>
      <trkpt lat="42.85141" lon="-0.47294">
        <ele>1658.8</ele>
        <time>2021-08-09 13:03:41</time>
      </trkpt>
      <trkpt lat="42.85141" lon="-0.47294">
        <ele>1658.8</ele>
        <time>2021-08-09 13:03:42</time>
      </trkpt>
      <trkpt lat="42.85141" lon="-0.47293">
        <ele>1658.6</ele>
        <time>2021-08-09 13:03:43</time>
      </trkpt>
      <trkpt lat="42.85141" lon="-0.47293">
        <ele>1658</ele>
        <time>2021-08-09 13:03:44</time>
      </trkpt>
      <trkpt lat="42.85141" lon="-0.47293">
        <ele>1657.4</ele>
        <time>2021-08-09 13:03:45</time>
      </trkpt>
      <trkpt lat="42.85141" lon="-0.47294">
        <ele>1656.8</ele>
        <time>2021-08-09 13:03:46</time>
      </trkpt>
      <trkpt lat="42.85141" lon="-0.47294">
        <ele>1658.2</ele>
        <time>2021-08-09 13:03:47</time>
      </trkpt>
      <trkpt lat="42.85141" lon="-0.47293">
        <ele>1658.8</ele>
        <time>2021-08-09 13:03:48</time>
      </trkpt>
      <trkpt lat="42.85142" lon="-0.47293">
        <ele>1658.6</ele>
        <time>2021-08-09 13:03:49</time>
      </trkpt>
      <trkpt lat="42.85142" lon="-0.47294">
        <ele>1658.4</ele>
        <time>2021-08-09 13:03:50</time>
      </trkpt>
      <trkpt lat="42.85142" lon="-0.47294">
        <ele>1658.4</ele>
        <time>2021-08-09 13:03:51</time>
      </trkpt>
      <trkpt lat="42.85142" lon="-0.47294">
        <ele>1658.6</ele>
        <time>2021-08-09 13:03:52</time>
      </trkpt>
      <trkpt lat="42.85142" lon="-0.47293">
        <ele>1658.4</ele>
        <time>2021-08-09 13:03:53</time>
      </trkpt>
      <trkpt lat="42.85142" lon="-0.47293">
        <ele>1658.6</ele>
        <time>2021-08-09 13:03:54</time>
      </trkpt>
      <trkpt lat="42.85143" lon="-0.47294">
        <ele>1658.8</ele>
        <time>2021-08-09 13:03:55</time>
      </trkpt>
      <trkpt lat="42.85142" lon="-0.47294">
        <ele>1658.4</ele>
        <time>2021-08-09 13:03:56</time>
      </trkpt>
      <trkpt lat="42.85142" lon="-0.47295">
        <ele>1658.4</ele>
        <time>2021-08-09 13:03:57</time>
      </trkpt>
      <trkpt lat="42.85142" lon="-0.47296">
        <ele>1658.6</ele>
        <time>2021-08-09 13:03:58</time>
      </trkpt>
      <trkpt lat="42.85141" lon="-0.47296">
        <ele>1658.6</ele>
        <time>2021-08-09 13:03:59</time>
      </trkpt>
      <trkpt lat="42.8514" lon="-0.47297">
        <ele>1658.8</ele>
        <time>2021-08-09 13:04:00</time>
      </trkpt>
      <trkpt lat="42.85139" lon="-0.47298">
        <ele>1658.6</ele>
        <time>2021-08-09 13:04:01</time>
      </trkpt>
      <trkpt lat="42.85138" lon="-0.47299">
        <ele>1658.6</ele>
        <time>2021-08-09 13:04:02</time>
      </trkpt>
      <trkpt lat="42.85138" lon="-0.47299">
        <ele>1658.6</ele>
        <time>2021-08-09 13:04:03</time>
      </trkpt>
      <trkpt lat="42.85137" lon="-0.473">
        <ele>1658.4</ele>
        <time>2021-08-09 13:04:04</time>
      </trkpt>
      <trkpt lat="42.85137" lon="-0.473">
        <ele>1658.4</ele>
        <time>2021-08-09 13:04:05</time>
      </trkpt>
      <trkpt lat="42.85137" lon="-0.47301">
        <ele>1658.2</ele>
        <time>2021-08-09 13:04:06</time>
      </trkpt>
      <trkpt lat="42.85136" lon="-0.47301">
        <ele>1658.6</ele>
        <time>2021-08-09 13:04:07</time>
      </trkpt>
      <trkpt lat="42.85136" lon="-0.47302">
        <ele>1658.4</ele>
        <time>2021-08-09 13:04:08</time>
      </trkpt>
      <trkpt lat="42.85135" lon="-0.47303">
        <ele>1659</ele>
        <time>2021-08-09 13:04:09</time>
      </trkpt>
      <trkpt lat="42.85135" lon="-0.47304">
        <ele>1659.2</ele>
        <time>2021-08-09 13:04:10</time>
      </trkpt>
      <trkpt lat="42.85134" lon="-0.47305">
        <ele>1659.6</ele>
        <time>2021-08-09 13:04:11</time>
      </trkpt>
      <trkpt lat="42.85134" lon="-0.47306">
        <ele>1659.2</ele>
        <time>2021-08-09 13:04:12</time>
      </trkpt>
      <trkpt lat="42.85133" lon="-0.47307">
        <ele>1659.2</ele>
        <time>2021-08-09 13:04:13</time>
      </trkpt>
      <trkpt lat="42.85132" lon="-0.47307">
        <ele>1659.2</ele>
        <time>2021-08-09 13:04:14</time>
      </trkpt>
      <trkpt lat="42.85131" lon="-0.47308">
        <ele>1659.4</ele>
        <time>2021-08-09 13:04:15</time>
      </trkpt>
      <trkpt lat="42.85131" lon="-0.47308">
        <ele>1659.6</ele>
        <time>2021-08-09 13:04:16</time>
      </trkpt>
      <trkpt lat="42.8513" lon="-0.47309">
        <ele>1659.6</ele>
        <time>2021-08-09 13:04:17</time>
      </trkpt>
      <trkpt lat="42.85129" lon="-0.47309">
        <ele>1659.6</ele>
        <time>2021-08-09 13:04:18</time>
      </trkpt>
      <trkpt lat="42.85129" lon="-0.47309">
        <ele>1659.8</ele>
        <time>2021-08-09 13:04:19</time>
      </trkpt>
      <trkpt lat="42.85128" lon="-0.47309">
        <ele>1660.2</ele>
        <time>2021-08-09 13:04:20</time>
      </trkpt>
      <trkpt lat="42.85128" lon="-0.4731">
        <ele>1660.2</ele>
        <time>2021-08-09 13:04:21</time>
      </trkpt>
      <trkpt lat="42.85127" lon="-0.4731">
        <ele>1660.2</ele>
        <time>2021-08-09 13:04:22</time>
      </trkpt>
      <trkpt lat="42.85127" lon="-0.47311">
        <ele>1660.4</ele>
        <time>2021-08-09 13:04:23</time>
      </trkpt>
      <trkpt lat="42.85126" lon="-0.47311">
        <ele>1660.6</ele>
        <time>2021-08-09 13:04:24</time>
      </trkpt>
      <trkpt lat="42.85126" lon="-0.47312">
        <ele>1660.6</ele>
        <time>2021-08-09 13:04:25</time>
      </trkpt>
      <trkpt lat="42.85125" lon="-0.47313">
        <ele>1660.6</ele>
        <time>2021-08-09 13:04:26</time>
      </trkpt>
      <trkpt lat="42.85124" lon="-0.47313">
        <ele>1660.6</ele>
        <time>2021-08-09 13:04:27</time>
      </trkpt>
      <trkpt lat="42.85123" lon="-0.47314">
        <ele>1660.8</ele>
        <time>2021-08-09 13:04:33</time>
      </trkpt>
      <trkpt lat="42.85123" lon="-0.47315">
        <ele>1660.6</ele>
        <time>2021-08-09 13:04:34</time>
      </trkpt>
      <trkpt lat="42.85122" lon="-0.47315">
        <ele>1661</ele>
        <time>2021-08-09 13:04:35</time>
      </trkpt>
      <trkpt lat="42.85121" lon="-0.47315">
        <ele>1661.2</ele>
        <time>2021-08-09 13:04:37</time>
      </trkpt>
      <trkpt lat="42.8512" lon="-0.47315">
        <ele>1661.4</ele>
        <time>2021-08-09 13:04:38</time>
      </trkpt>
      <trkpt lat="42.85119" lon="-0.47315">
        <ele>1661.6</ele>
        <time>2021-08-09 13:04:39</time>
      </trkpt>
      <trkpt lat="42.85118" lon="-0.47316">
        <ele>1662</ele>
        <time>2021-08-09 13:04:40</time>
      </trkpt>
      <trkpt lat="42.85117" lon="-0.47316">
        <ele>1662.2</ele>
        <time>2021-08-09 13:04:42</time>
      </trkpt>
      <trkpt lat="42.85117" lon="-0.47317">
        <ele>1662</ele>
        <time>2021-08-09 13:04:43</time>
      </trkpt>
      <trkpt lat="42.85116" lon="-0.47317">
        <ele>1662</ele>
        <time>2021-08-09 13:04:44</time>
      </trkpt>
      <trkpt lat="42.85115" lon="-0.47317">
        <ele>1662.2</ele>
        <time>2021-08-09 13:04:46</time>
      </trkpt>
      <trkpt lat="42.85114" lon="-0.47318">
        <ele>1662.8</ele>
        <time>2021-08-09 13:04:47</time>
      </trkpt>
      <trkpt lat="42.85114" lon="-0.47319">
        <ele>1663.2</ele>
        <time>2021-08-09 13:04:48</time>
      </trkpt>
      <trkpt lat="42.85113" lon="-0.47319">
        <ele>1663.6</ele>
        <time>2021-08-09 13:05:19</time>
      </trkpt>
      <trkpt lat="42.85113" lon="-0.4732">
        <ele>1663.8</ele>
        <time>2021-08-09 13:05:20</time>
      </trkpt>
      <trkpt lat="42.85112" lon="-0.47321">
        <ele>1663.8</ele>
        <time>2021-08-09 13:05:21</time>
      </trkpt>
      <trkpt lat="42.85111" lon="-0.47321">
        <ele>1664.2</ele>
        <time>2021-08-09 13:05:23</time>
      </trkpt>
      <trkpt lat="42.85111" lon="-0.47322">
        <ele>1664.2</ele>
        <time>2021-08-09 13:05:24</time>
      </trkpt>
      <trkpt lat="42.8511" lon="-0.47322">
        <ele>1664.2</ele>
        <time>2021-08-09 13:05:25</time>
      </trkpt>
      <trkpt lat="42.85109" lon="-0.47322">
        <ele>1664</ele>
        <time>2021-08-09 13:05:26</time>
      </trkpt>
      <trkpt lat="42.85108" lon="-0.47323">
        <ele>1663.6</ele>
        <time>2021-08-09 13:05:27</time>
      </trkpt>
      <trkpt lat="42.85108" lon="-0.47323">
        <ele>1664</ele>
        <time>2021-08-09 13:05:28</time>
      </trkpt>
      <trkpt lat="42.85107" lon="-0.47324">
        <ele>1664.6</ele>
        <time>2021-08-09 13:05:29</time>
      </trkpt>
      <trkpt lat="42.85106" lon="-0.47325">
        <ele>1665.2</ele>
        <time>2021-08-09 13:05:30</time>
      </trkpt>
      <trkpt lat="42.85106" lon="-0.47325">
        <ele>1665.4</ele>
        <time>2021-08-09 13:05:31</time>
      </trkpt>
      <trkpt lat="42.85105" lon="-0.47326">
        <ele>1665.4</ele>
        <time>2021-08-09 13:05:32</time>
      </trkpt>
      <trkpt lat="42.85105" lon="-0.47326">
        <ele>1665.6</ele>
        <time>2021-08-09 13:05:33</time>
      </trkpt>
      <trkpt lat="42.85104" lon="-0.47327">
        <ele>1665.2</ele>
        <time>2021-08-09 13:05:54</time>
      </trkpt>
      <trkpt lat="42.85103" lon="-0.47327">
        <ele>1665</ele>
        <time>2021-08-09 13:05:55</time>
      </trkpt>
      <trkpt lat="42.85102" lon="-0.47328">
        <ele>1665</ele>
        <time>2021-08-09 13:05:56</time>
      </trkpt>
      <trkpt lat="42.85102" lon="-0.47328">
        <ele>1665</ele>
        <time>2021-08-09 13:05:57</time>
      </trkpt>
      <trkpt lat="42.85101" lon="-0.47328">
        <ele>1665.2</ele>
        <time>2021-08-09 13:05:58</time>
      </trkpt>
      <trkpt lat="42.851" lon="-0.47328">
        <ele>1665.6</ele>
        <time>2021-08-09 13:05:59</time>
      </trkpt>
      <trkpt lat="42.851" lon="-0.47329">
        <ele>1665.4</ele>
        <time>2021-08-09 13:06:00</time>
      </trkpt>
      <trkpt lat="42.85099" lon="-0.47329">
        <ele>1665.2</ele>
        <time>2021-08-09 13:06:01</time>
      </trkpt>
      <trkpt lat="42.85099" lon="-0.4733">
        <ele>1666</ele>
        <time>2021-08-09 13:06:02</time>
      </trkpt>
      <trkpt lat="42.85097" lon="-0.4733">
        <ele>1665.8</ele>
        <time>2021-08-09 13:06:03</time>
      </trkpt>
      <trkpt lat="42.85097" lon="-0.4733">
        <ele>1666.4</ele>
        <time>2021-08-09 13:06:04</time>
      </trkpt>
      <trkpt lat="42.85096" lon="-0.47331">
        <ele>1665.6</ele>
        <time>2021-08-09 13:06:05</time>
      </trkpt>
      <trkpt lat="42.85096" lon="-0.47331">
        <ele>1665.8</ele>
        <time>2021-08-09 13:06:06</time>
      </trkpt>
      <trkpt lat="42.85095" lon="-0.47332">
        <ele>1666</ele>
        <time>2021-08-09 13:06:07</time>
      </trkpt>
      <trkpt lat="42.85094" lon="-0.47332">
        <ele>1666.4</ele>
        <time>2021-08-09 13:06:08</time>
      </trkpt>
      <trkpt lat="42.85093" lon="-0.47332">
        <ele>1666.6</ele>
        <time>2021-08-09 13:06:09</time>
      </trkpt>
      <trkpt lat="42.85093" lon="-0.47333">
        <ele>1666.2</ele>
        <time>2021-08-09 13:06:10</time>
      </trkpt>
      <trkpt lat="42.85092" lon="-0.47333">
        <ele>1666.6</ele>
        <time>2021-08-09 13:06:11</time>
      </trkpt>
      <trkpt lat="42.85091" lon="-0.47333">
        <ele>1666</ele>
        <time>2021-08-09 13:06:12</time>
      </trkpt>
      <trkpt lat="42.8509" lon="-0.47334">
        <ele>1666.4</ele>
        <time>2021-08-09 13:06:13</time>
      </trkpt>
      <trkpt lat="42.8509" lon="-0.47334">
        <ele>1666.8</ele>
        <time>2021-08-09 13:06:14</time>
      </trkpt>
      <trkpt lat="42.85089" lon="-0.47334">
        <ele>1667.4</ele>
        <time>2021-08-09 13:06:15</time>
      </trkpt>
      <trkpt lat="42.85088" lon="-0.47334">
        <ele>1667.6</ele>
        <time>2021-08-09 13:06:16</time>
      </trkpt>
      <trkpt lat="42.85087" lon="-0.47334">
        <ele>1667.8</ele>
        <time>2021-08-09 13:06:17</time>
      </trkpt>
      <trkpt lat="42.85086" lon="-0.47335">
        <ele>1668</ele>
        <time>2021-08-09 13:06:18</time>
      </trkpt>
      <trkpt lat="42.85086" lon="-0.47335">
        <ele>1668.2</ele>
        <time>2021-08-09 13:06:19</time>
      </trkpt>
      <trkpt lat="42.85085" lon="-0.47336">
        <ele>1668.4</ele>
        <time>2021-08-09 13:06:20</time>
      </trkpt>
      <trkpt lat="42.85085" lon="-0.47337">
        <ele>1668.4</ele>
        <time>2021-08-09 13:06:21</time>
      </trkpt>
      <trkpt lat="42.85084" lon="-0.47337">
        <ele>1668</ele>
        <time>2021-08-09 13:06:22</time>
      </trkpt>
      <trkpt lat="42.85083" lon="-0.47338">
        <ele>1668</ele>
        <time>2021-08-09 13:06:23</time>
      </trkpt>
      <trkpt lat="42.85082" lon="-0.47338">
        <ele>1667.8</ele>
        <time>2021-08-09 13:06:24</time>
      </trkpt>
      <trkpt lat="42.85081" lon="-0.47339">
        <ele>1668.4</ele>
        <time>2021-08-09 13:06:25</time>
      </trkpt>
      <trkpt lat="42.85081" lon="-0.47339">
        <ele>1668.8</ele>
        <time>2021-08-09 13:06:26</time>
      </trkpt>
      <trkpt lat="42.8508" lon="-0.4734">
        <ele>1669.4</ele>
        <time>2021-08-09 13:06:27</time>
      </trkpt>
      <trkpt lat="42.8508" lon="-0.47341">
        <ele>1669.6</ele>
        <time>2021-08-09 13:06:28</time>
      </trkpt>
      <trkpt lat="42.8508" lon="-0.47342">
        <ele>1669.4</ele>
        <time>2021-08-09 13:06:29</time>
      </trkpt>
      <trkpt lat="42.8508" lon="-0.47342">
        <ele>1669.4</ele>
        <time>2021-08-09 13:06:30</time>
      </trkpt>
      <trkpt lat="42.85079" lon="-0.47342">
        <ele>1669</ele>
        <time>2021-08-09 13:06:31</time>
      </trkpt>
      <trkpt lat="42.85079" lon="-0.47343">
        <ele>1669.4</ele>
        <time>2021-08-09 13:06:32</time>
      </trkpt>
      <trkpt lat="42.85078" lon="-0.47343">
        <ele>1669.4</ele>
        <time>2021-08-09 13:06:33</time>
      </trkpt>
      <trkpt lat="42.85077" lon="-0.47344">
        <ele>1669.8</ele>
        <time>2021-08-09 13:06:34</time>
      </trkpt>
      <trkpt lat="42.85077" lon="-0.47344">
        <ele>1669.6</ele>
        <time>2021-08-09 13:06:35</time>
      </trkpt>
      <trkpt lat="42.85076" lon="-0.47345">
        <ele>1669.4</ele>
        <time>2021-08-09 13:06:36</time>
      </trkpt>
      <trkpt lat="42.85076" lon="-0.47346">
        <ele>1669.4</ele>
        <time>2021-08-09 13:06:37</time>
      </trkpt>
      <trkpt lat="42.85075" lon="-0.47347">
        <ele>1669.8</ele>
        <time>2021-08-09 13:06:38</time>
      </trkpt>
      <trkpt lat="42.85074" lon="-0.47348">
        <ele>1670</ele>
        <time>2021-08-09 13:06:39</time>
      </trkpt>
      <trkpt lat="42.85074" lon="-0.47348">
        <ele>1670.2</ele>
        <time>2021-08-09 13:06:40</time>
      </trkpt>
      <trkpt lat="42.85073" lon="-0.47349">
        <ele>1669.8</ele>
        <time>2021-08-09 13:06:41</time>
      </trkpt>
      <trkpt lat="42.85073" lon="-0.4735">
        <ele>1670</ele>
        <time>2021-08-09 13:06:42</time>
      </trkpt>
      <trkpt lat="42.85072" lon="-0.4735">
        <ele>1670</ele>
        <time>2021-08-09 13:06:43</time>
      </trkpt>
      <trkpt lat="42.85071" lon="-0.47351">
        <ele>1669.8</ele>
        <time>2021-08-09 13:06:44</time>
      </trkpt>
      <trkpt lat="42.85071" lon="-0.47352">
        <ele>1670</ele>
        <time>2021-08-09 13:06:45</time>
      </trkpt>
      <trkpt lat="42.8507" lon="-0.47353">
        <ele>1670.6</ele>
        <time>2021-08-09 13:06:46</time>
      </trkpt>
      <trkpt lat="42.8507" lon="-0.47354">
        <ele>1670.6</ele>
        <time>2021-08-09 13:06:47</time>
      </trkpt>
      <trkpt lat="42.8507" lon="-0.47355">
        <ele>1670.4</ele>
        <time>2021-08-09 13:06:48</time>
      </trkpt>
      <trkpt lat="42.85069" lon="-0.47356">
        <ele>1670.6</ele>
        <time>2021-08-09 13:06:49</time>
      </trkpt>
      <trkpt lat="42.85069" lon="-0.47356">
        <ele>1670.4</ele>
        <time>2021-08-09 13:06:50</time>
      </trkpt>
      <trkpt lat="42.85069" lon="-0.47356">
        <ele>1670.8</ele>
        <time>2021-08-09 13:06:51</time>
      </trkpt>
      <trkpt lat="42.85068" lon="-0.47357">
        <ele>1670.6</ele>
        <time>2021-08-09 13:06:52</time>
      </trkpt>
      <trkpt lat="42.85068" lon="-0.47358">
        <ele>1670.6</ele>
        <time>2021-08-09 13:06:53</time>
      </trkpt>
      <trkpt lat="42.85067" lon="-0.47359">
        <ele>1671</ele>
        <time>2021-08-09 13:06:54</time>
      </trkpt>
      <trkpt lat="42.85066" lon="-0.4736">
        <ele>1671.4</ele>
        <time>2021-08-09 13:06:55</time>
      </trkpt>
      <trkpt lat="42.85066" lon="-0.47361">
        <ele>1671.6</ele>
        <time>2021-08-09 13:06:56</time>
      </trkpt>
      <trkpt lat="42.85066" lon="-0.47361">
        <ele>1671.6</ele>
        <time>2021-08-09 13:06:57</time>
      </trkpt>
      <trkpt lat="42.85066" lon="-0.47362">
        <ele>1671.6</ele>
        <time>2021-08-09 13:06:58</time>
      </trkpt>
      <trkpt lat="42.85066" lon="-0.47363">
        <ele>1671.4</ele>
        <time>2021-08-09 13:06:59</time>
      </trkpt>
      <trkpt lat="42.85064" lon="-0.47365">
        <ele>1671.2</ele>
        <time>2021-08-09 13:07:00</time>
      </trkpt>
      <trkpt lat="42.85063" lon="-0.47366">
        <ele>1671.6</ele>
        <time>2021-08-09 13:07:01</time>
      </trkpt>
      <trkpt lat="42.85062" lon="-0.47367">
        <ele>1671.6</ele>
        <time>2021-08-09 13:07:02</time>
      </trkpt>
      <trkpt lat="42.85061" lon="-0.47368">
        <ele>1671.4</ele>
        <time>2021-08-09 13:07:03</time>
      </trkpt>
      <trkpt lat="42.8506" lon="-0.47369">
        <ele>1671.4</ele>
        <time>2021-08-09 13:07:04</time>
      </trkpt>
      <trkpt lat="42.85059" lon="-0.4737">
        <ele>1671.6</ele>
        <time>2021-08-09 13:07:05</time>
      </trkpt>
      <trkpt lat="42.85059" lon="-0.47371">
        <ele>1671.8</ele>
        <time>2021-08-09 13:07:06</time>
      </trkpt>
      <trkpt lat="42.85058" lon="-0.47373">
        <ele>1672</ele>
        <time>2021-08-09 13:07:07</time>
      </trkpt>
      <trkpt lat="42.85058" lon="-0.47374">
        <ele>1672.2</ele>
        <time>2021-08-09 13:07:08</time>
      </trkpt>
      <trkpt lat="42.85057" lon="-0.47375">
        <ele>1672.4</ele>
        <time>2021-08-09 13:07:09</time>
      </trkpt>
      <trkpt lat="42.85057" lon="-0.47376">
        <ele>1672.2</ele>
        <time>2021-08-09 13:07:10</time>
      </trkpt>
      <trkpt lat="42.85056" lon="-0.47378">
        <ele>1672.4</ele>
        <time>2021-08-09 13:07:11</time>
      </trkpt>
      <trkpt lat="42.85055" lon="-0.47378">
        <ele>1672.6</ele>
        <time>2021-08-09 13:07:12</time>
      </trkpt>
      <trkpt lat="42.85054" lon="-0.47379">
        <ele>1672.6</ele>
        <time>2021-08-09 13:07:13</time>
      </trkpt>
      <trkpt lat="42.85054" lon="-0.4738">
        <ele>1672.8</ele>
        <time>2021-08-09 13:07:14</time>
      </trkpt>
      <trkpt lat="42.85053" lon="-0.47382">
        <ele>1673.2</ele>
        <time>2021-08-09 13:07:15</time>
      </trkpt>
      <trkpt lat="42.85053" lon="-0.47383">
        <ele>1673.4</ele>
        <time>2021-08-09 13:07:16</time>
      </trkpt>
      <trkpt lat="42.85052" lon="-0.47385">
        <ele>1673.8</ele>
        <time>2021-08-09 13:07:17</time>
      </trkpt>
      <trkpt lat="42.85051" lon="-0.47386">
        <ele>1673.8</ele>
        <time>2021-08-09 13:07:18</time>
      </trkpt>
      <trkpt lat="42.85051" lon="-0.47386">
        <ele>1673.8</ele>
        <time>2021-08-09 13:07:19</time>
      </trkpt>
      <trkpt lat="42.8505" lon="-0.47387">
        <ele>1674</ele>
        <time>2021-08-09 13:07:20</time>
      </trkpt>
      <trkpt lat="42.85049" lon="-0.47388">
        <ele>1674.2</ele>
        <time>2021-08-09 13:07:21</time>
      </trkpt>
      <trkpt lat="42.85049" lon="-0.47389">
        <ele>1674.6</ele>
        <time>2021-08-09 13:07:22</time>
      </trkpt>
      <trkpt lat="42.85049" lon="-0.4739">
        <ele>1674.6</ele>
        <time>2021-08-09 13:07:23</time>
      </trkpt>
      <trkpt lat="42.85049" lon="-0.47391">
        <ele>1675</ele>
        <time>2021-08-09 13:07:24</time>
      </trkpt>
      <trkpt lat="42.85049" lon="-0.47392">
        <ele>1675.2</ele>
        <time>2021-08-09 13:07:25</time>
      </trkpt>
      <trkpt lat="42.85048" lon="-0.47393">
        <ele>1675.4</ele>
        <time>2021-08-09 13:07:26</time>
      </trkpt>
      <trkpt lat="42.85047" lon="-0.47394">
        <ele>1675.8</ele>
        <time>2021-08-09 13:07:27</time>
      </trkpt>
      <trkpt lat="42.85047" lon="-0.47395">
        <ele>1676</ele>
        <time>2021-08-09 13:07:28</time>
      </trkpt>
      <trkpt lat="42.85047" lon="-0.47396">
        <ele>1676.4</ele>
        <time>2021-08-09 13:07:29</time>
      </trkpt>
      <trkpt lat="42.85046" lon="-0.47397">
        <ele>1676.4</ele>
        <time>2021-08-09 13:07:30</time>
      </trkpt>
      <trkpt lat="42.85045" lon="-0.47398">
        <ele>1676.6</ele>
        <time>2021-08-09 13:07:31</time>
      </trkpt>
      <trkpt lat="42.85044" lon="-0.47399">
        <ele>1676.6</ele>
        <time>2021-08-09 13:07:32</time>
      </trkpt>
      <trkpt lat="42.85043" lon="-0.47399">
        <ele>1676.6</ele>
        <time>2021-08-09 13:07:33</time>
      </trkpt>
      <trkpt lat="42.85043" lon="-0.474">
        <ele>1676.6</ele>
        <time>2021-08-09 13:07:34</time>
      </trkpt>
      <trkpt lat="42.85042" lon="-0.474">
        <ele>1676.6</ele>
        <time>2021-08-09 13:07:35</time>
      </trkpt>
      <trkpt lat="42.85041" lon="-0.47402">
        <ele>1676.6</ele>
        <time>2021-08-09 13:07:36</time>
      </trkpt>
      <trkpt lat="42.8504" lon="-0.47403">
        <ele>1676.6</ele>
        <time>2021-08-09 13:07:37</time>
      </trkpt>
      <trkpt lat="42.85039" lon="-0.47404">
        <ele>1677</ele>
        <time>2021-08-09 13:07:38</time>
      </trkpt>
      <trkpt lat="42.85039" lon="-0.47405">
        <ele>1677.4</ele>
        <time>2021-08-09 13:07:39</time>
      </trkpt>
      <trkpt lat="42.8504" lon="-0.47406">
        <ele>1677.4</ele>
        <time>2021-08-09 13:07:40</time>
      </trkpt>
      <trkpt lat="42.85039" lon="-0.47406">
        <ele>1677.6</ele>
        <time>2021-08-09 13:07:41</time>
      </trkpt>
      <trkpt lat="42.85039" lon="-0.47407">
        <ele>1677.6</ele>
        <time>2021-08-09 13:07:42</time>
      </trkpt>
      <trkpt lat="42.85038" lon="-0.47407">
        <ele>1677.4</ele>
        <time>2021-08-09 13:07:43</time>
      </trkpt>
      <trkpt lat="42.85038" lon="-0.47409">
        <ele>1677.4</ele>
        <time>2021-08-09 13:07:44</time>
      </trkpt>
      <trkpt lat="42.85037" lon="-0.4741">
        <ele>1677.6</ele>
        <time>2021-08-09 13:07:45</time>
      </trkpt>
      <trkpt lat="42.85038" lon="-0.47411">
        <ele>1678.4</ele>
        <time>2021-08-09 13:07:46</time>
      </trkpt>
      <trkpt lat="42.85038" lon="-0.47412">
        <ele>1678.6</ele>
        <time>2021-08-09 13:07:47</time>
      </trkpt>
      <trkpt lat="42.85038" lon="-0.47413">
        <ele>1679</ele>
        <time>2021-08-09 13:07:48</time>
      </trkpt>
      <trkpt lat="42.85038" lon="-0.47414">
        <ele>1679</ele>
      </trkpt>
      <trkpt lat="42.85038" lon="-0.47415">
        <ele>1679</ele>
        <time>2021-08-09 13:07:50</time>
      </trkpt>
      <trkpt lat="42.85038" lon="-0.47416">
        <ele>1679</ele>
      </trkpt>
      <trkpt lat="42.85038" lon="-0.47417">
        <ele>1679.4</ele>
        <time>2021-08-09 13:07:51</time>
      </trkpt>
      <trkpt lat="42.85038" lon="-0.47418">
        <ele>1679.4</ele>
        <time>2021-08-09 13:07:52</time>
      </trkpt>
      <trkpt lat="42.85038" lon="-0.47419">
        <ele>1679.6</ele>
        <time>2021-08-09 13:07:53</time>
      </trkpt>
      <trkpt lat="42.85038" lon="-0.47421">
        <ele>1680</ele>
        <time>2021-08-09 13:07:54</time>
      </trkpt>
      <trkpt lat="42.85038" lon="-0.47422">
        <ele>1681</ele>
        <time>2021-08-09 13:07:55</time>
      </trkpt>
      <trkpt lat="42.85038" lon="-0.47423">
        <ele>1681.4</ele>
        <time>2021-08-09 13:07:56</time>
      </trkpt>
      <trkpt lat="42.85038" lon="-0.47424">
        <ele>1681.8</ele>
        <time>2021-08-09 13:07:57</time>
      </trkpt>
      <trkpt lat="42.85038" lon="-0.47425">
        <ele>1681.8</ele>
        <time>2021-08-09 13:07:58</time>
      </trkpt>
      <trkpt lat="42.85039" lon="-0.47426">
        <ele>1681.4</ele>
        <time>2021-08-09 13:07:59</time>
      </trkpt>
      <trkpt lat="42.85039" lon="-0.47427">
        <ele>1681.6</ele>
        <time>2021-08-09 13:08:00</time>
      </trkpt>
      <trkpt lat="42.85039" lon="-0.47428">
        <ele>1681.8</ele>
        <time>2021-08-09 13:08:01</time>
      </trkpt>
      <trkpt lat="42.85039" lon="-0.47429">
        <ele>1682.6</ele>
        <time>2021-08-09 13:08:02</time>
      </trkpt>
      <trkpt lat="42.85039" lon="-0.4743">
        <ele>1682.8</ele>
        <time>2021-08-09 13:08:03</time>
      </trkpt>
      <trkpt lat="42.85038" lon="-0.47432">
        <ele>1683.2</ele>
        <time>2021-08-09 13:08:04</time>
      </trkpt>
      <trkpt lat="42.85038" lon="-0.47433">
        <ele>1683</ele>
        <time>2021-08-09 13:08:05</time>
      </trkpt>
      <trkpt lat="42.85036" lon="-0.47434">
        <ele>1682.8</ele>
        <time>2021-08-09 13:08:07</time>
      </trkpt>
      <trkpt lat="42.85034" lon="-0.47434">
        <ele>1682.2</ele>
      </trkpt>
      <trkpt lat="42.85034" lon="-0.47434">
        <ele>1681.8</ele>
        <time>2021-08-09 13:08:08</time>
      </trkpt>
      <trkpt lat="42.85034" lon="-0.47434">
        <ele>1681.2</ele>
        <time>2021-08-09 13:08:09</time>
      </trkpt>
      <trkpt lat="42.85035" lon="-0.47435">
        <ele>1681.2</ele>
        <time>2021-08-09 13:08:10</time>
      </trkpt>
      <trkpt lat="42.85034" lon="-0.47435">
        <ele>1681.8</ele>
        <time>2021-08-09 13:08:11</time>
      </trkpt>
      <trkpt lat="42.85034" lon="-0.47436">
        <ele>1682.2</ele>
        <time>2021-08-09 13:08:12</time>
      </trkpt>
      <trkpt lat="42.85034" lon="-0.47437">
        <ele>1680.8</ele>
        <time>2021-08-09 13:08:13</time>
      </trkpt>
      <trkpt lat="42.85033" lon="-0.47438">
        <ele>1680.8</ele>
        <time>2021-08-09 13:08:14</time>
      </trkpt>
      <trkpt lat="42.85033" lon="-0.47439">
        <ele>1681.2</ele>
        <time>2021-08-09 13:08:15</time>
      </trkpt>
      <trkpt lat="42.85033" lon="-0.4744">
        <ele>1681.2</ele>
        <time>2021-08-09 13:08:16</time>
      </trkpt>
      <trkpt lat="42.85033" lon="-0.47442">
        <ele>1681.2</ele>
        <time>2021-08-09 13:08:17</time>
      </trkpt>
      <trkpt lat="42.85033" lon="-0.47443">
        <ele>1681.4</ele>
        <time>2021-08-09 13:08:18</time>
      </trkpt>
      <trkpt lat="42.85033" lon="-0.47444">
        <ele>1681.6</ele>
        <time>2021-08-09 13:08:19</time>
      </trkpt>
      <trkpt lat="42.85033" lon="-0.47445">
        <ele>1681.8</ele>
        <time>2021-08-09 13:08:20</time>
      </trkpt>
      <trkpt lat="42.85032" lon="-0.47446">
        <ele>1681.8</ele>
        <time>2021-08-09 13:08:21</time>
      </trkpt>
      <trkpt lat="42.85032" lon="-0.47447">
        <ele>1681.6</ele>
        <time>2021-08-09 13:08:22</time>
      </trkpt>
      <trkpt lat="42.85031" lon="-0.47448">
        <ele>1681.6</ele>
        <time>2021-08-09 13:08:23</time>
      </trkpt>
      <trkpt lat="42.85031" lon="-0.47449">
        <ele>1681.6</ele>
        <time>2021-08-09 13:08:24</time>
      </trkpt>
      <trkpt lat="42.8503" lon="-0.4745">
        <ele>1681.6</ele>
        <time>2021-08-09 13:08:25</time>
      </trkpt>
      <trkpt lat="42.8503" lon="-0.47451">
        <ele>1681.8</ele>
        <time>2021-08-09 13:08:27</time>
      </trkpt>
      <trkpt lat="42.8503" lon="-0.47452">
        <ele>1682.2</ele>
      </trkpt>
      <trkpt lat="42.8503" lon="-0.47454">
        <ele>1682.4</ele>
        <time>2021-08-09 13:08:28</time>
      </trkpt>
      <trkpt lat="42.8503" lon="-0.47455">
        <ele>1682.4</ele>
        <time>2021-08-09 13:08:29</time>
      </trkpt>
      <trkpt lat="42.8503" lon="-0.47456">
        <ele>1682.6</ele>
        <time>2021-08-09 13:08:30</time>
      </trkpt>
      <trkpt lat="42.85029" lon="-0.47456">
        <ele>1682.6</ele>
        <time>2021-08-09 13:08:31</time>
      </trkpt>
      <trkpt lat="42.85028" lon="-0.47457">
        <ele>1683</ele>
        <time>2021-08-09 13:08:32</time>
      </trkpt>
      <trkpt lat="42.85028" lon="-0.47459">
        <ele>1683</ele>
        <time>2021-08-09 13:08:33</time>
      </trkpt>
      <trkpt lat="42.85027" lon="-0.4746">
        <ele>1683.2</ele>
        <time>2021-08-09 13:08:34</time>
      </trkpt>
      <trkpt lat="42.85027" lon="-0.47462">
        <ele>1683.4</ele>
        <time>2021-08-09 13:08:35</time>
      </trkpt>
      <trkpt lat="42.85026" lon="-0.47463">
        <ele>1683.6</ele>
        <time>2021-08-09 13:08:36</time>
      </trkpt>
      <trkpt lat="42.85026" lon="-0.47464">
        <ele>1683.8</ele>
        <time>2021-08-09 13:08:37</time>
      </trkpt>
      <trkpt lat="42.85025" lon="-0.47465">
        <ele>1684</ele>
        <time>2021-08-09 13:08:38</time>
      </trkpt>
      <trkpt lat="42.85025" lon="-0.47466">
        <ele>1684</ele>
        <time>2021-08-09 13:08:39</time>
      </trkpt>
      <trkpt lat="42.85025" lon="-0.47467">
        <ele>1684.2</ele>
        <time>2021-08-09 13:08:40</time>
      </trkpt>
      <trkpt lat="42.85025" lon="-0.47468">
        <ele>1684.2</ele>
        <time>2021-08-09 13:08:41</time>
      </trkpt>
      <trkpt lat="42.85025" lon="-0.47469">
        <ele>1684.4</ele>
        <time>2021-08-09 13:08:42</time>
      </trkpt>
      <trkpt lat="42.85025" lon="-0.4747">
        <ele>1684.4</ele>
        <time>2021-08-09 13:08:43</time>
      </trkpt>
      <trkpt lat="42.85025" lon="-0.47471">
        <ele>1684.8</ele>
        <time>2021-08-09 13:08:44</time>
      </trkpt>
      <trkpt lat="42.85025" lon="-0.47473">
        <ele>1685</ele>
        <time>2021-08-09 13:08:45</time>
      </trkpt>
      <trkpt lat="42.85025" lon="-0.47474">
        <ele>1684.8</ele>
        <time>2021-08-09 13:08:46</time>
      </trkpt>
      <trkpt lat="42.85025" lon="-0.47475">
        <ele>1685</ele>
        <time>2021-08-09 13:08:47</time>
      </trkpt>
      <trkpt lat="42.85025" lon="-0.47476">
        <ele>1685.2</ele>
        <time>2021-08-09 13:08:48</time>
      </trkpt>
      <trkpt lat="42.85025" lon="-0.47477">
        <ele>1685</ele>
        <time>2021-08-09 13:08:49</time>
      </trkpt>
      <trkpt lat="42.85025" lon="-0.47478">
        <ele>1685.4</ele>
        <time>2021-08-09 13:08:50</time>
      </trkpt>
      <trkpt lat="42.85025" lon="-0.47478">
        <ele>1685.8</ele>
        <time>2021-08-09 13:08:51</time>
      </trkpt>
      <trkpt lat="42.85026" lon="-0.47479">
        <ele>1685.6</ele>
        <time>2021-08-09 13:08:52</time>
      </trkpt>
      <trkpt lat="42.85025" lon="-0.47479">
        <ele>1686</ele>
        <time>2021-08-09 13:08:53</time>
      </trkpt>
      <trkpt lat="42.85026" lon="-0.4748">
        <ele>1686</ele>
        <time>2021-08-09 13:08:54</time>
      </trkpt>
      <trkpt lat="42.85026" lon="-0.47481">
        <ele>1686</ele>
        <time>2021-08-09 13:08:55</time>
      </trkpt>
      <trkpt lat="42.85027" lon="-0.47481">
        <ele>1686</ele>
        <time>2021-08-09 13:08:56</time>
      </trkpt>
      <trkpt lat="42.85027" lon="-0.47482">
        <ele>1686.4</ele>
        <time>2021-08-09 13:08:57</time>
      </trkpt>
      <trkpt lat="42.85027" lon="-0.47483">
        <ele>1686.4</ele>
        <time>2021-08-09 13:08:58</time>
      </trkpt>
      <trkpt lat="42.85028" lon="-0.47484">
        <ele>1686.6</ele>
        <time>2021-08-09 13:08:59</time>
      </trkpt>
      <trkpt lat="42.85028" lon="-0.47485">
        <ele>1686.8</ele>
        <time>2021-08-09 13:09:00</time>
      </trkpt>
      <trkpt lat="42.85028" lon="-0.47486">
        <ele>1686.8</ele>
        <time>2021-08-09 13:09:01</time>
      </trkpt>
      <trkpt lat="42.85028" lon="-0.47488">
        <ele>1686.6</ele>
        <time>2021-08-09 13:09:04</time>
      </trkpt>
      <trkpt lat="42.85027" lon="-0.47489">
        <ele>1686.6</ele>
        <time>2021-08-09 13:09:05</time>
      </trkpt>
      <trkpt lat="42.85027" lon="-0.4749">
        <ele>1686.6</ele>
        <time>2021-08-09 13:09:06</time>
      </trkpt>
      <trkpt lat="42.85026" lon="-0.4749">
        <ele>1686.6</ele>
        <time>2021-08-09 13:09:07</time>
      </trkpt>
      <trkpt lat="42.85025" lon="-0.47491">
        <ele>1686.4</ele>
        <time>2021-08-09 13:09:08</time>
      </trkpt>
      <trkpt lat="42.85025" lon="-0.47492">
        <ele>1686.4</ele>
        <time>2021-08-09 13:09:09</time>
      </trkpt>
      <trkpt lat="42.85024" lon="-0.47494">
        <ele>1686.4</ele>
        <time>2021-08-09 13:09:10</time>
      </trkpt>
      <trkpt lat="42.85023" lon="-0.47495">
        <ele>1686.4</ele>
        <time>2021-08-09 13:09:11</time>
      </trkpt>
      <trkpt lat="42.85022" lon="-0.47497">
        <ele>1686.4</ele>
        <time>2021-08-09 13:09:12</time>
      </trkpt>
      <trkpt lat="42.85022" lon="-0.47498">
        <ele>1686.4</ele>
        <time>2021-08-09 13:09:13</time>
      </trkpt>
      <trkpt lat="42.85021" lon="-0.47499">
        <ele>1686.4</ele>
        <time>2021-08-09 13:09:14</time>
      </trkpt>
      <trkpt lat="42.85021" lon="-0.475">
        <ele>1686.2</ele>
        <time>2021-08-09 13:09:15</time>
      </trkpt>
      <trkpt lat="42.8502" lon="-0.475">
        <ele>1686</ele>
        <time>2021-08-09 13:09:16</time>
      </trkpt>
      <trkpt lat="42.85019" lon="-0.475">
        <ele>1686.2</ele>
        <time>2021-08-09 13:09:17</time>
      </trkpt>
      <trkpt lat="42.85019" lon="-0.47501">
        <ele>1686.2</ele>
        <time>2021-08-09 13:09:18</time>
      </trkpt>
      <trkpt lat="42.85018" lon="-0.47502">
        <ele>1686</ele>
        <time>2021-08-09 13:09:19</time>
      </trkpt>
      <trkpt lat="42.85018" lon="-0.47503">
        <ele>1686.2</ele>
        <time>2021-08-09 13:09:20</time>
      </trkpt>
      <trkpt lat="42.85018" lon="-0.47503">
        <ele>1686.8</ele>
        <time>2021-08-09 13:09:21</time>
      </trkpt>
      <trkpt lat="42.85018" lon="-0.47505">
        <ele>1687</ele>
        <time>2021-08-09 13:09:22</time>
      </trkpt>
      <trkpt lat="42.85018" lon="-0.47506">
        <ele>1687.2</ele>
        <time>2021-08-09 13:09:23</time>
      </trkpt>
      <trkpt lat="42.85018" lon="-0.47507">
        <ele>1687</ele>
        <time>2021-08-09 13:09:24</time>
      </trkpt>
      <trkpt lat="42.85018" lon="-0.47509">
        <ele>1687</ele>
        <time>2021-08-09 13:09:25</time>
      </trkpt>
      <trkpt lat="42.85017" lon="-0.47509">
        <ele>1687.2</ele>
        <time>2021-08-09 13:09:26</time>
      </trkpt>
      <trkpt lat="42.85017" lon="-0.4751">
        <ele>1687.2</ele>
        <time>2021-08-09 13:09:27</time>
      </trkpt>
      <trkpt lat="42.85017" lon="-0.47511">
        <ele>1687.6</ele>
        <time>2021-08-09 13:09:28</time>
      </trkpt>
      <trkpt lat="42.85016" lon="-0.47512">
        <ele>1687.8</ele>
        <time>2021-08-09 13:09:29</time>
      </trkpt>
      <trkpt lat="42.85016" lon="-0.47513">
        <ele>1688</ele>
        <time>2021-08-09 13:09:30</time>
      </trkpt>
      <trkpt lat="42.85016" lon="-0.47514">
        <ele>1688.4</ele>
        <time>2021-08-09 13:09:31</time>
      </trkpt>
      <trkpt lat="42.85016" lon="-0.47515">
        <ele>1688.4</ele>
        <time>2021-08-09 13:09:32</time>
      </trkpt>
      <trkpt lat="42.85015" lon="-0.47515">
        <ele>1688.6</ele>
        <time>2021-08-09 13:09:33</time>
      </trkpt>
      <trkpt lat="42.85014" lon="-0.47515">
        <ele>1688.6</ele>
        <time>2021-08-09 13:09:34</time>
      </trkpt>
      <trkpt lat="42.85014" lon="-0.47516">
        <ele>1689</ele>
        <time>2021-08-09 13:09:35</time>
      </trkpt>
      <trkpt lat="42.85013" lon="-0.47517">
        <ele>1689</ele>
        <time>2021-08-09 13:09:36</time>
      </trkpt>
      <trkpt lat="42.85012" lon="-0.47518">
        <ele>1689</ele>
        <time>2021-08-09 13:09:37</time>
      </trkpt>
      <trkpt lat="42.85011" lon="-0.47518">
        <ele>1689.2</ele>
        <time>2021-08-09 13:09:38</time>
      </trkpt>
      <trkpt lat="42.8501" lon="-0.47518">
        <ele>1689.6</ele>
        <time>2021-08-09 13:09:39</time>
      </trkpt>
      <trkpt lat="42.8501" lon="-0.47519">
        <ele>1689.6</ele>
        <time>2021-08-09 13:09:40</time>
      </trkpt>
      <trkpt lat="42.85009" lon="-0.4752">
        <ele>1689.6</ele>
        <time>2021-08-09 13:09:41</time>
      </trkpt>
      <trkpt lat="42.85009" lon="-0.47521">
        <ele>1690</ele>
        <time>2021-08-09 13:09:42</time>
      </trkpt>
      <trkpt lat="42.85008" lon="-0.47522">
        <ele>1690.4</ele>
        <time>2021-08-09 13:09:43</time>
      </trkpt>
      <trkpt lat="42.85008" lon="-0.47522">
        <ele>1690.6</ele>
        <time>2021-08-09 13:09:44</time>
      </trkpt>
      <trkpt lat="42.85008" lon="-0.47523">
        <ele>1690.6</ele>
        <time>2021-08-09 13:09:45</time>
      </trkpt>
      <trkpt lat="42.85007" lon="-0.47523">
        <ele>1690.8</ele>
        <time>2021-08-09 13:09:46</time>
      </trkpt>
      <trkpt lat="42.85007" lon="-0.47524">
        <ele>1691</ele>
        <time>2021-08-09 13:09:47</time>
      </trkpt>
      <trkpt lat="42.85007" lon="-0.47525">
        <ele>1690.8</ele>
        <time>2021-08-09 13:09:48</time>
      </trkpt>
      <trkpt lat="42.85007" lon="-0.47526">
        <ele>1691</ele>
        <time>2021-08-09 13:09:49</time>
      </trkpt>
      <trkpt lat="42.85006" lon="-0.47527">
        <ele>1691.2</ele>
        <time>2021-08-09 13:09:50</time>
      </trkpt>
      <trkpt lat="42.85006" lon="-0.47527">
        <ele>1691.4</ele>
        <time>2021-08-09 13:09:51</time>
      </trkpt>
      <trkpt lat="42.85005" lon="-0.47528">
        <ele>1691.6</ele>
        <time>2021-08-09 13:09:52</time>
      </trkpt>
      <trkpt lat="42.85005" lon="-0.47529">
        <ele>1691.6</ele>
        <time>2021-08-09 13:09:53</time>
      </trkpt>
      <trkpt lat="42.85004" lon="-0.47529">
        <ele>1691.6</ele>
        <time>2021-08-09 13:09:54</time>
      </trkpt>
      <trkpt lat="42.85004" lon="-0.4753">
        <ele>1691.8</ele>
        <time>2021-08-09 13:09:55</time>
      </trkpt>
      <trkpt lat="42.85004" lon="-0.47531">
        <ele>1692</ele>
        <time>2021-08-09 13:09:56</time>
      </trkpt>
      <trkpt lat="42.85003" lon="-0.47532">
        <ele>1692.2</ele>
        <time>2021-08-09 13:09:57</time>
      </trkpt>
      <trkpt lat="42.85003" lon="-0.47532">
        <ele>1692.4</ele>
        <time>2021-08-09 13:09:58</time>
      </trkpt>
      <trkpt lat="42.85002" lon="-0.47533">
        <ele>1692.4</ele>
        <time>2021-08-09 13:09:59</time>
      </trkpt>
      <trkpt lat="42.85002" lon="-0.47534">
        <ele>1692.4</ele>
        <time>2021-08-09 13:10:00</time>
      </trkpt>
      <trkpt lat="42.85002" lon="-0.47534">
        <ele>1692.6</ele>
        <time>2021-08-09 13:10:01</time>
      </trkpt>
      <trkpt lat="42.85001" lon="-0.47534">
        <ele>1692.8</ele>
        <time>2021-08-09 13:10:02</time>
      </trkpt>
      <trkpt lat="42.85001" lon="-0.47535">
        <ele>1693</ele>
        <time>2021-08-09 13:10:03</time>
      </trkpt>
      <trkpt lat="42.85" lon="-0.47535">
        <ele>1693.2</ele>
        <time>2021-08-09 13:10:04</time>
      </trkpt>
      <trkpt lat="42.85" lon="-0.47535">
        <ele>1693.6</ele>
        <time>2021-08-09 13:10:05</time>
      </trkpt>
      <trkpt lat="42.84999" lon="-0.47536">
        <ele>1693.6</ele>
        <time>2021-08-09 13:10:06</time>
      </trkpt>
      <trkpt lat="42.84999" lon="-0.47537">
        <ele>1693.6</ele>
        <time>2021-08-09 13:10:07</time>
      </trkpt>
      <trkpt lat="42.84999" lon="-0.47538">
        <ele>1693.6</ele>
        <time>2021-08-09 13:10:08</time>
      </trkpt>
      <trkpt lat="42.84998" lon="-0.47539">
        <ele>1693.8</ele>
        <time>2021-08-09 13:10:09</time>
      </trkpt>
      <trkpt lat="42.84998" lon="-0.47539">
        <ele>1693.8</ele>
        <time>2021-08-09 13:10:10</time>
      </trkpt>
      <trkpt lat="42.84998" lon="-0.4754">
        <ele>1694</ele>
        <time>2021-08-09 13:10:11</time>
      </trkpt>
      <trkpt lat="42.84997" lon="-0.4754">
        <ele>1694.2</ele>
        <time>2021-08-09 13:10:12</time>
      </trkpt>
      <trkpt lat="42.84997" lon="-0.4754">
        <ele>1694.4</ele>
        <time>2021-08-09 13:10:13</time>
      </trkpt>
      <trkpt lat="42.84997" lon="-0.47541">
        <ele>1694.4</ele>
        <time>2021-08-09 13:10:14</time>
      </trkpt>
      <trkpt lat="42.84996" lon="-0.47542">
        <ele>1694.6</ele>
        <time>2021-08-09 13:10:15</time>
      </trkpt>
      <trkpt lat="42.84996" lon="-0.47542">
        <ele>1694.8</ele>
        <time>2021-08-09 13:10:16</time>
      </trkpt>
      <trkpt lat="42.84996" lon="-0.47542">
        <ele>1694.8</ele>
        <time>2021-08-09 13:10:17</time>
      </trkpt>
      <trkpt lat="42.84995" lon="-0.47543">
        <ele>1695</ele>
        <time>2021-08-09 13:10:18</time>
      </trkpt>
      <trkpt lat="42.84995" lon="-0.47544">
        <ele>1695.2</ele>
        <time>2021-08-09 13:10:19</time>
      </trkpt>
      <trkpt lat="42.84995" lon="-0.47544">
        <ele>1695.2</ele>
        <time>2021-08-09 13:10:20</time>
      </trkpt>
      <trkpt lat="42.84994" lon="-0.47544">
        <ele>1695.6</ele>
        <time>2021-08-09 13:10:21</time>
      </trkpt>
      <trkpt lat="42.84994" lon="-0.47545">
        <ele>1695.6</ele>
        <time>2021-08-09 13:10:22</time>
      </trkpt>
      <trkpt lat="42.84994" lon="-0.47545">
        <ele>1695.8</ele>
        <time>2021-08-09 13:10:23</time>
      </trkpt>
      <trkpt lat="42.84993" lon="-0.47546">
        <ele>1696</ele>
        <time>2021-08-09 13:10:24</time>
      </trkpt>
      <trkpt lat="42.84993" lon="-0.47546">
        <ele>1696.2</ele>
        <time>2021-08-09 13:10:25</time>
      </trkpt>
      <trkpt lat="42.84993" lon="-0.47547">
        <ele>1696.4</ele>
        <time>2021-08-09 13:10:26</time>
      </trkpt>
      <trkpt lat="42.84992" lon="-0.47547">
        <ele>1696.6</ele>
        <time>2021-08-09 13:10:27</time>
      </trkpt>
      <trkpt lat="42.84992" lon="-0.47547">
        <ele>1697</ele>
        <time>2021-08-09 13:10:28</time>
      </trkpt>
      <trkpt lat="42.84991" lon="-0.47548">
        <ele>1697</ele>
        <time>2021-08-09 13:10:29</time>
      </trkpt>
      <trkpt lat="42.84991" lon="-0.47549">
        <ele>1697.2</ele>
        <time>2021-08-09 13:10:30</time>
      </trkpt>
      <trkpt lat="42.8499" lon="-0.47549">
        <ele>1697.2</ele>
        <time>2021-08-09 13:10:31</time>
      </trkpt>
      <trkpt lat="42.8499" lon="-0.47549">
        <ele>1697.4</ele>
        <time>2021-08-09 13:10:32</time>
      </trkpt>
      <trkpt lat="42.84989" lon="-0.4755">
        <ele>1697.6</ele>
        <time>2021-08-09 13:10:33</time>
      </trkpt>
      <trkpt lat="42.84989" lon="-0.4755">
        <ele>1697.8</ele>
        <time>2021-08-09 13:10:34</time>
      </trkpt>
      <trkpt lat="42.84988" lon="-0.4755">
        <ele>1697.6</ele>
        <time>2021-08-09 13:10:35</time>
      </trkpt>
      <trkpt lat="42.84988" lon="-0.47551">
        <ele>1697.4</ele>
        <time>2021-08-09 13:10:36</time>
      </trkpt>
      <trkpt lat="42.84987" lon="-0.47551">
        <ele>1697.4</ele>
        <time>2021-08-09 13:10:37</time>
      </trkpt>
      <trkpt lat="42.84987" lon="-0.47552">
        <ele>1697.8</ele>
        <time>2021-08-09 13:10:38</time>
      </trkpt>
      <trkpt lat="42.84986" lon="-0.47552">
        <ele>1698</ele>
        <time>2021-08-09 13:10:39</time>
      </trkpt>
      <trkpt lat="42.84986" lon="-0.47553">
        <ele>1698.2</ele>
        <time>2021-08-09 13:10:40</time>
      </trkpt>
      <trkpt lat="42.84985" lon="-0.47554">
        <ele>1698.2</ele>
        <time>2021-08-09 13:10:41</time>
      </trkpt>
      <trkpt lat="42.84985" lon="-0.47554">
        <ele>1698.6</ele>
        <time>2021-08-09 13:10:42</time>
      </trkpt>
      <trkpt lat="42.84984" lon="-0.47555">
        <ele>1698.8</ele>
        <time>2021-08-09 13:10:43</time>
      </trkpt>
      <trkpt lat="42.84984" lon="-0.47555">
        <ele>1698.8</ele>
        <time>2021-08-09 13:10:44</time>
      </trkpt>
      <trkpt lat="42.84984" lon="-0.47556">
        <ele>1699</ele>
        <time>2021-08-09 13:10:45</time>
      </trkpt>
      <trkpt lat="42.84984" lon="-0.47556">
        <ele>1699.2</ele>
        <time>2021-08-09 13:10:46</time>
      </trkpt>
      <trkpt lat="42.84983" lon="-0.47557">
        <ele>1699.4</ele>
        <time>2021-08-09 13:10:47</time>
      </trkpt>
      <trkpt lat="42.84983" lon="-0.47558">
        <ele>1699.4</ele>
        <time>2021-08-09 13:10:48</time>
      </trkpt>
      <trkpt lat="42.84983" lon="-0.47559">
        <ele>1699.6</ele>
        <time>2021-08-09 13:10:49</time>
      </trkpt>
      <trkpt lat="42.84982" lon="-0.47559">
        <ele>1699.8</ele>
        <time>2021-08-09 13:10:50</time>
      </trkpt>
      <trkpt lat="42.84981" lon="-0.4756">
        <ele>1700.2</ele>
        <time>2021-08-09 13:10:51</time>
      </trkpt>
      <trkpt lat="42.84981" lon="-0.4756">
        <ele>1700.2</ele>
        <time>2021-08-09 13:10:52</time>
      </trkpt>
      <trkpt lat="42.84981" lon="-0.47561">
        <ele>1700.4</ele>
        <time>2021-08-09 13:10:53</time>
      </trkpt>
      <trkpt lat="42.84981" lon="-0.47562">
        <ele>1700.8</ele>
        <time>2021-08-09 13:10:54</time>
      </trkpt>
      <trkpt lat="42.84981" lon="-0.47562">
        <ele>1701</ele>
        <time>2021-08-09 13:10:55</time>
      </trkpt>
      <trkpt lat="42.84981" lon="-0.47561">
        <ele>1701</ele>
        <time>2021-08-09 13:10:56</time>
      </trkpt>
      <trkpt lat="42.84982" lon="-0.47562">
        <ele>1700.6</ele>
        <time>2021-08-09 13:10:57</time>
      </trkpt>
      <trkpt lat="42.84982" lon="-0.47563">
        <ele>1700.2</ele>
        <time>2021-08-09 13:10:58</time>
      </trkpt>
      <trkpt lat="42.84982" lon="-0.47563">
        <ele>1699.6</ele>
        <time>2021-08-09 13:10:59</time>
      </trkpt>
      <trkpt lat="42.84982" lon="-0.47563">
        <ele>1699.6</ele>
        <time>2021-08-09 13:11:00</time>
      </trkpt>
      <trkpt lat="42.84982" lon="-0.47564">
        <ele>1699.4</ele>
        <time>2021-08-09 13:11:01</time>
      </trkpt>
      <trkpt lat="42.84981" lon="-0.47564">
        <ele>1699.8</ele>
        <time>2021-08-09 13:11:02</time>
      </trkpt>
      <trkpt lat="42.84981" lon="-0.47565">
        <ele>1700.2</ele>
        <time>2021-08-09 13:11:03</time>
      </trkpt>
      <trkpt lat="42.8498" lon="-0.47566">
        <ele>1701</ele>
        <time>2021-08-09 13:11:04</time>
      </trkpt>
      <trkpt lat="42.8498" lon="-0.47567">
        <ele>1701.2</ele>
        <time>2021-08-09 13:11:05</time>
      </trkpt>
      <trkpt lat="42.84979" lon="-0.47568">
        <ele>1701.2</ele>
        <time>2021-08-09 13:11:06</time>
      </trkpt>
      <trkpt lat="42.84979" lon="-0.47569">
        <ele>1701.4</ele>
        <time>2021-08-09 13:11:07</time>
      </trkpt>
      <trkpt lat="42.84979" lon="-0.47569">
        <ele>1701.4</ele>
        <time>2021-08-09 13:11:08</time>
      </trkpt>
      <trkpt lat="42.84978" lon="-0.47571">
        <ele>1701.4</ele>
        <time>2021-08-09 13:11:09</time>
      </trkpt>
      <trkpt lat="42.84978" lon="-0.47571">
        <ele>1701.2</ele>
        <time>2021-08-09 13:11:10</time>
      </trkpt>
      <trkpt lat="42.84978" lon="-0.47572">
        <ele>1701.4</ele>
        <time>2021-08-09 13:11:11</time>
      </trkpt>
      <trkpt lat="42.84977" lon="-0.47572">
        <ele>1701.4</ele>
        <time>2021-08-09 13:11:12</time>
      </trkpt>
      <trkpt lat="42.84976" lon="-0.47573">
        <ele>1701.4</ele>
        <time>2021-08-09 13:11:13</time>
      </trkpt>
      <trkpt lat="42.84975" lon="-0.47574">
        <ele>1701.8</ele>
        <time>2021-08-09 13:11:14</time>
      </trkpt>
      <trkpt lat="42.84975" lon="-0.47574">
        <ele>1701.8</ele>
        <time>2021-08-09 13:11:15</time>
      </trkpt>
      <trkpt lat="42.84973" lon="-0.47574">
        <ele>1701.4</ele>
        <time>2021-08-09 13:11:16</time>
      </trkpt>
      <trkpt lat="42.84973" lon="-0.47574">
        <ele>1700.8</ele>
        <time>2021-08-09 13:11:17</time>
      </trkpt>
      <trkpt lat="42.84972" lon="-0.47574">
        <ele>1700.4</ele>
        <time>2021-08-09 13:11:18</time>
      </trkpt>
      <trkpt lat="42.84972" lon="-0.47574">
        <ele>1700.4</ele>
        <time>2021-08-09 13:11:19</time>
      </trkpt>
      <trkpt lat="42.84971" lon="-0.47574">
        <ele>1700.8</ele>
        <time>2021-08-09 13:11:20</time>
      </trkpt>
      <trkpt lat="42.8497" lon="-0.47575">
        <ele>1700.8</ele>
        <time>2021-08-09 13:11:21</time>
      </trkpt>
      <trkpt lat="42.84969" lon="-0.47576">
        <ele>1701</ele>
        <time>2021-08-09 13:11:22</time>
      </trkpt>
      <trkpt lat="42.84968" lon="-0.47577">
        <ele>1701</ele>
        <time>2021-08-09 13:11:23</time>
      </trkpt>
      <trkpt lat="42.84967" lon="-0.47577">
        <ele>1701.6</ele>
        <time>2021-08-09 13:11:24</time>
      </trkpt>
      <trkpt lat="42.84966" lon="-0.47578">
        <ele>1701.4</ele>
        <time>2021-08-09 13:11:25</time>
      </trkpt>
      <trkpt lat="42.84965" lon="-0.47579">
        <ele>1701.6</ele>
        <time>2021-08-09 13:11:26</time>
      </trkpt>
      <trkpt lat="42.84964" lon="-0.4758">
        <ele>1701.8</ele>
        <time>2021-08-09 13:11:27</time>
      </trkpt>
      <trkpt lat="42.84963" lon="-0.47581">
        <ele>1701.8</ele>
        <time>2021-08-09 13:11:28</time>
      </trkpt>
      <trkpt lat="42.84962" lon="-0.47581">
        <ele>1701.8</ele>
        <time>2021-08-09 13:11:29</time>
      </trkpt>
      <trkpt lat="42.84962" lon="-0.47582">
        <ele>1702</ele>
        <time>2021-08-09 13:11:30</time>
      </trkpt>
      <trkpt lat="42.84961" lon="-0.47583">
        <ele>1702</ele>
        <time>2021-08-09 13:11:31</time>
      </trkpt>
      <trkpt lat="42.84961" lon="-0.47583">
        <ele>1702.4</ele>
        <time>2021-08-09 13:11:32</time>
      </trkpt>
      <trkpt lat="42.8496" lon="-0.47584">
        <ele>1702.6</ele>
        <time>2021-08-09 13:11:33</time>
      </trkpt>
      <trkpt lat="42.84959" lon="-0.47585">
        <ele>1702.8</ele>
        <time>2021-08-09 13:11:34</time>
      </trkpt>
      <trkpt lat="42.84959" lon="-0.47586">
        <ele>1703.2</ele>
        <time>2021-08-09 13:11:35</time>
      </trkpt>
      <trkpt lat="42.84958" lon="-0.47587">
        <ele>1703.4</ele>
        <time>2021-08-09 13:11:36</time>
      </trkpt>
      <trkpt lat="42.84958" lon="-0.47587">
        <ele>1703.6</ele>
        <time>2021-08-09 13:11:37</time>
      </trkpt>
      <trkpt lat="42.84957" lon="-0.47588">
        <ele>1703.8</ele>
        <time>2021-08-09 13:11:38</time>
      </trkpt>
      <trkpt lat="42.84956" lon="-0.47589">
        <ele>1704</ele>
        <time>2021-08-09 13:11:39</time>
      </trkpt>
      <trkpt lat="42.84956" lon="-0.4759">
        <ele>1704</ele>
        <time>2021-08-09 13:11:40</time>
      </trkpt>
      <trkpt lat="42.84956" lon="-0.47591">
        <ele>1704.2</ele>
        <time>2021-08-09 13:11:41</time>
      </trkpt>
      <trkpt lat="42.84955" lon="-0.47591">
        <ele>1704.4</ele>
        <time>2021-08-09 13:11:42</time>
      </trkpt>
      <trkpt lat="42.84955" lon="-0.47592">
        <ele>1704.8</ele>
        <time>2021-08-09 13:11:43</time>
      </trkpt>
      <trkpt lat="42.84954" lon="-0.47593">
        <ele>1705</ele>
        <time>2021-08-09 13:11:44</time>
      </trkpt>
      <trkpt lat="42.84954" lon="-0.47594">
        <ele>1705.2</ele>
        <time>2021-08-09 13:11:45</time>
      </trkpt>
      <trkpt lat="42.84954" lon="-0.47594">
        <ele>1705.4</ele>
        <time>2021-08-09 13:11:46</time>
      </trkpt>
      <trkpt lat="42.84953" lon="-0.47595">
        <ele>1705.4</ele>
        <time>2021-08-09 13:11:47</time>
      </trkpt>
      <trkpt lat="42.84953" lon="-0.47596">
        <ele>1705.8</ele>
        <time>2021-08-09 13:11:48</time>
      </trkpt>
      <trkpt lat="42.84952" lon="-0.47597">
        <ele>1706</ele>
        <time>2021-08-09 13:11:52</time>
      </trkpt>
      <trkpt lat="42.84952" lon="-0.47598">
        <ele>1706.2</ele>
        <time>2021-08-09 13:11:53</time>
      </trkpt>
      <trkpt lat="42.84952" lon="-0.47599">
        <ele>1706.6</ele>
        <time>2021-08-09 13:11:54</time>
      </trkpt>
      <trkpt lat="42.84951" lon="-0.476">
        <ele>1706.8</ele>
        <time>2021-08-09 13:11:55</time>
      </trkpt>
      <trkpt lat="42.84951" lon="-0.476">
        <ele>1707</ele>
        <time>2021-08-09 13:12:02</time>
      </trkpt>
      <trkpt lat="42.84951" lon="-0.47601">
        <ele>1707.2</ele>
        <time>2021-08-09 13:12:03</time>
      </trkpt>
      <trkpt lat="42.84951" lon="-0.47602">
        <ele>1707.4</ele>
        <time>2021-08-09 13:12:04</time>
      </trkpt>
      <trkpt lat="42.84951" lon="-0.47603">
        <ele>1708</ele>
        <time>2021-08-09 13:12:05</time>
      </trkpt>
      <trkpt lat="42.8495" lon="-0.47604">
        <ele>1708.4</ele>
        <time>2021-08-09 13:12:06</time>
      </trkpt>
      <trkpt lat="42.8495" lon="-0.47605">
        <ele>1708.6</ele>
        <time>2021-08-09 13:12:07</time>
      </trkpt>
      <trkpt lat="42.8495" lon="-0.47605">
        <ele>1708.2</ele>
        <time>2021-08-09 13:12:08</time>
      </trkpt>
      <trkpt lat="42.84949" lon="-0.47606">
        <ele>1707.8</ele>
        <time>2021-08-09 13:12:09</time>
      </trkpt>
      <trkpt lat="42.84949" lon="-0.47607">
        <ele>1708.6</ele>
        <time>2021-08-09 13:12:10</time>
      </trkpt>
      <trkpt lat="42.84948" lon="-0.47608">
        <ele>1709.4</ele>
        <time>2021-08-09 13:12:11</time>
      </trkpt>
      <trkpt lat="42.84948" lon="-0.47609">
        <ele>1709</ele>
        <time>2021-08-09 13:12:12</time>
      </trkpt>
      <trkpt lat="42.84947" lon="-0.4761">
        <ele>1709</ele>
        <time>2021-08-09 13:12:13</time>
      </trkpt>
      <trkpt lat="42.84947" lon="-0.47611">
        <ele>1709</ele>
        <time>2021-08-09 13:12:14</time>
      </trkpt>
      <trkpt lat="42.84946" lon="-0.47611">
        <ele>1709</ele>
        <time>2021-08-09 13:12:15</time>
      </trkpt>
      <trkpt lat="42.84946" lon="-0.47612">
        <ele>1709.2</ele>
        <time>2021-08-09 13:12:16</time>
      </trkpt>
      <trkpt lat="42.84945" lon="-0.47613">
        <ele>1709.4</ele>
        <time>2021-08-09 13:12:17</time>
      </trkpt>
      <trkpt lat="42.84945" lon="-0.47614">
        <ele>1709.2</ele>
        <time>2021-08-09 13:12:18</time>
      </trkpt>
      <trkpt lat="42.84944" lon="-0.47614">
        <ele>1709</ele>
        <time>2021-08-09 13:12:19</time>
      </trkpt>
      <trkpt lat="42.84943" lon="-0.47614">
        <ele>1709.2</ele>
        <time>2021-08-09 13:12:20</time>
      </trkpt>
      <trkpt lat="42.84943" lon="-0.47615">
        <ele>1709.2</ele>
        <time>2021-08-09 13:12:21</time>
      </trkpt>
      <trkpt lat="42.84942" lon="-0.47616">
        <ele>1709.6</ele>
        <time>2021-08-09 13:12:22</time>
      </trkpt>
      <trkpt lat="42.84941" lon="-0.47616">
        <ele>1709.8</ele>
        <time>2021-08-09 13:12:23</time>
      </trkpt>
      <trkpt lat="42.8494" lon="-0.47617">
        <ele>1709.8</ele>
        <time>2021-08-09 13:12:24</time>
      </trkpt>
      <trkpt lat="42.84939" lon="-0.47618">
        <ele>1709.8</ele>
        <time>2021-08-09 13:12:25</time>
      </trkpt>
      <trkpt lat="42.84938" lon="-0.47619">
        <ele>1710</ele>
        <time>2021-08-09 13:12:26</time>
      </trkpt>
      <trkpt lat="42.84938" lon="-0.47619">
        <ele>1710</ele>
        <time>2021-08-09 13:12:27</time>
      </trkpt>
      <trkpt lat="42.84937" lon="-0.4762">
        <ele>1710.4</ele>
        <time>2021-08-09 13:12:28</time>
      </trkpt>
      <trkpt lat="42.84936" lon="-0.47621">
        <ele>1710.4</ele>
        <time>2021-08-09 13:12:29</time>
      </trkpt>
      <trkpt lat="42.84935" lon="-0.47621">
        <ele>1710.6</ele>
        <time>2021-08-09 13:12:30</time>
      </trkpt>
      <trkpt lat="42.84934" lon="-0.47622">
        <ele>1710.4</ele>
        <time>2021-08-09 13:12:31</time>
      </trkpt>
      <trkpt lat="42.84933" lon="-0.47623">
        <ele>1710.4</ele>
        <time>2021-08-09 13:12:32</time>
      </trkpt>
      <trkpt lat="42.84932" lon="-0.47624">
        <ele>1710.4</ele>
        <time>2021-08-09 13:12:33</time>
      </trkpt>
      <trkpt lat="42.84931" lon="-0.47625">
        <ele>1711</ele>
        <time>2021-08-09 13:12:34</time>
      </trkpt>
      <trkpt lat="42.84931" lon="-0.47626">
        <ele>1710.8</ele>
        <time>2021-08-09 13:12:35</time>
      </trkpt>
      <trkpt lat="42.8493" lon="-0.47626">
        <ele>1710.8</ele>
        <time>2021-08-09 13:12:36</time>
      </trkpt>
      <trkpt lat="42.84929" lon="-0.47627">
        <ele>1711.4</ele>
        <time>2021-08-09 13:12:37</time>
      </trkpt>
      <trkpt lat="42.84928" lon="-0.47627">
        <ele>1711.4</ele>
        <time>2021-08-09 13:12:38</time>
      </trkpt>
      <trkpt lat="42.84928" lon="-0.47628">
        <ele>1711.6</ele>
        <time>2021-08-09 13:12:39</time>
      </trkpt>
      <trkpt lat="42.84927" lon="-0.47629">
        <ele>1711.6</ele>
        <time>2021-08-09 13:12:40</time>
      </trkpt>
      <trkpt lat="42.84927" lon="-0.47629">
        <ele>1711.6</ele>
        <time>2021-08-09 13:12:41</time>
      </trkpt>
      <trkpt lat="42.84927" lon="-0.4763">
        <ele>1712</ele>
        <time>2021-08-09 13:12:42</time>
      </trkpt>
      <trkpt lat="42.84926" lon="-0.47631">
        <ele>1712.2</ele>
        <time>2021-08-09 13:12:43</time>
      </trkpt>
      <trkpt lat="42.84926" lon="-0.47632">
        <ele>1712.2</ele>
        <time>2021-08-09 13:12:44</time>
      </trkpt>
      <trkpt lat="42.84925" lon="-0.47633">
        <ele>1712.4</ele>
        <time>2021-08-09 13:12:45</time>
      </trkpt>
      <trkpt lat="42.84925" lon="-0.47634">
        <ele>1713</ele>
        <time>2021-08-09 13:12:46</time>
      </trkpt>
      <trkpt lat="42.84924" lon="-0.47635">
        <ele>1713</ele>
        <time>2021-08-09 13:12:47</time>
      </trkpt>
      <trkpt lat="42.84923" lon="-0.47635">
        <ele>1713.4</ele>
        <time>2021-08-09 13:12:48</time>
      </trkpt>
      <trkpt lat="42.84923" lon="-0.47636">
        <ele>1713.6</ele>
        <time>2021-08-09 13:12:49</time>
      </trkpt>
      <trkpt lat="42.84922" lon="-0.47636">
        <ele>1714.2</ele>
        <time>2021-08-09 13:12:50</time>
      </trkpt>
      <trkpt lat="42.84921" lon="-0.47637">
        <ele>1715.4</ele>
        <time>2021-08-09 13:12:51</time>
      </trkpt>
      <trkpt lat="42.8492" lon="-0.47637">
        <ele>1714.2</ele>
        <time>2021-08-09 13:12:52</time>
      </trkpt>
      <trkpt lat="42.84919" lon="-0.47638">
        <ele>1714.8</ele>
        <time>2021-08-09 13:12:53</time>
      </trkpt>
      <trkpt lat="42.84918" lon="-0.47638">
        <ele>1713.6</ele>
        <time>2021-08-09 13:12:54</time>
      </trkpt>
      <trkpt lat="42.84917" lon="-0.47639">
        <ele>1714.4</ele>
        <time>2021-08-09 13:12:55</time>
      </trkpt>
      <trkpt lat="42.84916" lon="-0.47639">
        <ele>1713.6</ele>
        <time>2021-08-09 13:12:56</time>
      </trkpt>
      <trkpt lat="42.84915" lon="-0.47639">
        <ele>1714.4</ele>
        <time>2021-08-09 13:12:57</time>
      </trkpt>
      <trkpt lat="42.84915" lon="-0.4764">
        <ele>1713.8</ele>
        <time>2021-08-09 13:12:58</time>
      </trkpt>
      <trkpt lat="42.84914" lon="-0.47641">
        <ele>1714</ele>
        <time>2021-08-09 13:12:59</time>
      </trkpt>
      <trkpt lat="42.84914" lon="-0.47641">
        <ele>1714</ele>
        <time>2021-08-09 13:13:00</time>
      </trkpt>
      <trkpt lat="42.84913" lon="-0.47642">
        <ele>1714.2</ele>
        <time>2021-08-09 13:13:01</time>
      </trkpt>
      <trkpt lat="42.84913" lon="-0.47642">
        <ele>1715</ele>
        <time>2021-08-09 13:13:02</time>
      </trkpt>
      <trkpt lat="42.84912" lon="-0.47643">
        <ele>1715.2</ele>
        <time>2021-08-09 13:13:03</time>
      </trkpt>
      <trkpt lat="42.84912" lon="-0.47643">
        <ele>1715.4</ele>
        <time>2021-08-09 13:13:04</time>
      </trkpt>
      <trkpt lat="42.84912" lon="-0.47644">
        <ele>1715.4</ele>
        <time>2021-08-09 13:13:05</time>
      </trkpt>
      <trkpt lat="42.84912" lon="-0.47645">
        <ele>1716</ele>
        <time>2021-08-09 13:13:06</time>
      </trkpt>
      <trkpt lat="42.84911" lon="-0.47647">
        <ele>1716.6</ele>
        <time>2021-08-09 13:13:07</time>
      </trkpt>
      <trkpt lat="42.8491" lon="-0.47648">
        <ele>1716.2</ele>
        <time>2021-08-09 13:13:08</time>
      </trkpt>
      <trkpt lat="42.8491" lon="-0.47649">
        <ele>1716.6</ele>
        <time>2021-08-09 13:13:09</time>
      </trkpt>
      <trkpt lat="42.84909" lon="-0.4765">
        <ele>1716.4</ele>
        <time>2021-08-09 13:13:10</time>
      </trkpt>
      <trkpt lat="42.84908" lon="-0.47651">
        <ele>1716.2</ele>
        <time>2021-08-09 13:13:11</time>
      </trkpt>
      <trkpt lat="42.84908" lon="-0.47652">
        <ele>1716.6</ele>
        <time>2021-08-09 13:13:12</time>
      </trkpt>
      <trkpt lat="42.84908" lon="-0.47651">
        <ele>1716.8</ele>
        <time>2021-08-09 13:13:13</time>
      </trkpt>
      <trkpt lat="42.84908" lon="-0.4765">
        <ele>1717</ele>
        <time>2021-08-09 13:13:14</time>
      </trkpt>
      <trkpt lat="42.84908" lon="-0.4765">
        <ele>1717.2</ele>
        <time>2021-08-09 13:13:15</time>
      </trkpt>
      <trkpt lat="42.84908" lon="-0.4765">
        <ele>1717.2</ele>
        <time>2021-08-09 13:13:16</time>
      </trkpt>
      <trkpt lat="42.84908" lon="-0.4765">
        <ele>1717.2</ele>
        <time>2021-08-09 13:13:17</time>
      </trkpt>
      <trkpt lat="42.84908" lon="-0.4765">
        <ele>1717.4</ele>
        <time>2021-08-09 13:13:18</time>
      </trkpt>
      <trkpt lat="42.84907" lon="-0.47652">
        <ele>1717.4</ele>
        <time>2021-08-09 13:13:19</time>
      </trkpt>
      <trkpt lat="42.84906" lon="-0.47652">
        <ele>1717.6</ele>
        <time>2021-08-09 13:13:20</time>
      </trkpt>
      <trkpt lat="42.84906" lon="-0.47653">
        <ele>1717.4</ele>
        <time>2021-08-09 13:13:21</time>
      </trkpt>
      <trkpt lat="42.84906" lon="-0.47653">
        <ele>1717.8</ele>
        <time>2021-08-09 13:13:22</time>
      </trkpt>
      <trkpt lat="42.84905" lon="-0.47655">
        <ele>1718</ele>
        <time>2021-08-09 13:13:23</time>
      </trkpt>
      <trkpt lat="42.84905" lon="-0.47657">
        <ele>1718.6</ele>
        <time>2021-08-09 13:13:24</time>
      </trkpt>
      <trkpt lat="42.84905" lon="-0.47657">
        <ele>1718.6</ele>
        <time>2021-08-09 13:13:25</time>
      </trkpt>
      <trkpt lat="42.84905" lon="-0.47658">
        <ele>1719</ele>
        <time>2021-08-09 13:13:26</time>
      </trkpt>
      <trkpt lat="42.84904" lon="-0.47659">
        <ele>1719</ele>
        <time>2021-08-09 13:13:27</time>
      </trkpt>
      <trkpt lat="42.84904" lon="-0.4766">
        <ele>1719.4</ele>
        <time>2021-08-09 13:13:28</time>
      </trkpt>
      <trkpt lat="42.84904" lon="-0.47661">
        <ele>1719.6</ele>
        <time>2021-08-09 13:13:29</time>
      </trkpt>
      <trkpt lat="42.84904" lon="-0.47662">
        <ele>1719.8</ele>
        <time>2021-08-09 13:13:30</time>
      </trkpt>
      <trkpt lat="42.84904" lon="-0.47662">
        <ele>1720.2</ele>
        <time>2021-08-09 13:13:31</time>
      </trkpt>
      <trkpt lat="42.84904" lon="-0.47662">
        <ele>1720.2</ele>
        <time>2021-08-09 13:13:32</time>
      </trkpt>
      <trkpt lat="42.84904" lon="-0.47663">
        <ele>1720.4</ele>
        <time>2021-08-09 13:13:33</time>
      </trkpt>
      <trkpt lat="42.84903" lon="-0.47663">
        <ele>1720.6</ele>
        <time>2021-08-09 13:13:34</time>
      </trkpt>
      <trkpt lat="42.84903" lon="-0.47664">
        <ele>1720.8</ele>
        <time>2021-08-09 13:13:35</time>
      </trkpt>
      <trkpt lat="42.84903" lon="-0.47665">
        <ele>1720.8</ele>
        <time>2021-08-09 13:13:36</time>
      </trkpt>
      <trkpt lat="42.84903" lon="-0.47668">
        <ele>1721</ele>
        <time>2021-08-09 13:13:37</time>
      </trkpt>
      <trkpt lat="42.84903" lon="-0.47668">
        <ele>1721.4</ele>
        <time>2021-08-09 13:13:38</time>
      </trkpt>
      <trkpt lat="42.84902" lon="-0.47669">
        <ele>1721.6</ele>
        <time>2021-08-09 13:13:39</time>
      </trkpt>
      <trkpt lat="42.84902" lon="-0.4767">
        <ele>1721.8</ele>
        <time>2021-08-09 13:13:40</time>
      </trkpt>
      <trkpt lat="42.84902" lon="-0.4767">
        <ele>1721.8</ele>
        <time>2021-08-09 13:13:41</time>
      </trkpt>
      <trkpt lat="42.84902" lon="-0.47671">
        <ele>1721.8</ele>
        <time>2021-08-09 13:13:42</time>
      </trkpt>
      <trkpt lat="42.84902" lon="-0.47672">
        <ele>1721.8</ele>
        <time>2021-08-09 13:13:43</time>
      </trkpt>
      <trkpt lat="42.84901" lon="-0.47672">
        <ele>1722</ele>
        <time>2021-08-09 13:13:44</time>
      </trkpt>
      <trkpt lat="42.84901" lon="-0.47673">
        <ele>1722.4</ele>
        <time>2021-08-09 13:13:45</time>
      </trkpt>
      <trkpt lat="42.849" lon="-0.47673">
        <ele>1722.6</ele>
        <time>2021-08-09 13:13:46</time>
      </trkpt>
      <trkpt lat="42.849" lon="-0.47674">
        <ele>1723</ele>
        <time>2021-08-09 13:13:47</time>
      </trkpt>
      <trkpt lat="42.849" lon="-0.47675">
        <ele>1723</ele>
        <time>2021-08-09 13:13:48</time>
      </trkpt>
      <trkpt lat="42.849" lon="-0.47676">
        <ele>1723.2</ele>
        <time>2021-08-09 13:13:49</time>
      </trkpt>
      <trkpt lat="42.849" lon="-0.47677">
        <ele>1723.2</ele>
        <time>2021-08-09 13:13:50</time>
      </trkpt>
      <trkpt lat="42.84899" lon="-0.47677">
        <ele>1723.4</ele>
        <time>2021-08-09 13:13:51</time>
      </trkpt>
      <trkpt lat="42.84899" lon="-0.47678">
        <ele>1723.4</ele>
        <time>2021-08-09 13:13:52</time>
      </trkpt>
      <trkpt lat="42.84899" lon="-0.4768">
        <ele>1723.6</ele>
        <time>2021-08-09 13:13:53</time>
      </trkpt>
      <trkpt lat="42.84899" lon="-0.47681">
        <ele>1723.6</ele>
        <time>2021-08-09 13:13:54</time>
      </trkpt>
      <trkpt lat="42.84898" lon="-0.47682">
        <ele>1723.6</ele>
        <time>2021-08-09 13:13:55</time>
      </trkpt>
      <trkpt lat="42.84898" lon="-0.47683">
        <ele>1724.2</ele>
        <time>2021-08-09 13:13:56</time>
      </trkpt>
      <trkpt lat="42.84897" lon="-0.47684">
        <ele>1724.2</ele>
        <time>2021-08-09 13:13:57</time>
      </trkpt>
      <trkpt lat="42.84897" lon="-0.47685">
        <ele>1724.2</ele>
        <time>2021-08-09 13:13:58</time>
      </trkpt>
      <trkpt lat="42.84897" lon="-0.47685">
        <ele>1724.2</ele>
        <time>2021-08-09 13:13:59</time>
      </trkpt>
      <trkpt lat="42.84898" lon="-0.47685">
        <ele>1724.4</ele>
      </trkpt>
      <trkpt lat="42.84898" lon="-0.47686">
        <ele>1724.6</ele>
        <time>2021-08-09 13:14:01</time>
      </trkpt>
      <trkpt lat="42.84898" lon="-0.47687">
        <ele>1724.6</ele>
        <time>2021-08-09 13:14:02</time>
      </trkpt>
      <trkpt lat="42.84898" lon="-0.47688">
        <ele>1724.2</ele>
        <time>2021-08-09 13:14:03</time>
      </trkpt>
      <trkpt lat="42.84897" lon="-0.47689">
        <ele>1724.2</ele>
        <time>2021-08-09 13:14:04</time>
      </trkpt>
      <trkpt lat="42.84897" lon="-0.47689">
        <ele>1724.2</ele>
        <time>2021-08-09 13:14:05</time>
      </trkpt>
      <trkpt lat="42.84896" lon="-0.47688">
        <ele>1724.4</ele>
        <time>2021-08-09 13:14:06</time>
      </trkpt>
      <trkpt lat="42.84896" lon="-0.47688">
        <ele>1724.4</ele>
        <time>2021-08-09 13:14:07</time>
      </trkpt>
      <trkpt lat="42.84896" lon="-0.47688">
        <ele>1724.2</ele>
        <time>2021-08-09 13:14:10</time>
      </trkpt>
      <trkpt lat="42.84897" lon="-0.47689">
        <ele>1724.4</ele>
        <time>2021-08-09 13:14:11</time>
      </trkpt>
      <trkpt lat="42.84897" lon="-0.4769">
        <ele>1724.6</ele>
        <time>2021-08-09 13:14:12</time>
      </trkpt>
      <trkpt lat="42.84897" lon="-0.47691">
        <ele>1724.4</ele>
        <time>2021-08-09 13:14:13</time>
      </trkpt>
      <trkpt lat="42.84898" lon="-0.47692">
        <ele>1724.2</ele>
        <time>2021-08-09 13:14:14</time>
      </trkpt>
      <trkpt lat="42.84898" lon="-0.47691">
        <ele>1724.4</ele>
        <time>2021-08-09 13:14:15</time>
      </trkpt>
      <trkpt lat="42.84898" lon="-0.47692">
        <ele>1724.4</ele>
        <time>2021-08-09 13:14:16</time>
      </trkpt>
      <trkpt lat="42.84897" lon="-0.47694">
        <ele>1724.4</ele>
        <time>2021-08-09 13:14:17</time>
      </trkpt>
      <trkpt lat="42.84897" lon="-0.47696">
        <ele>1724.2</ele>
        <time>2021-08-09 13:14:18</time>
      </trkpt>
      <trkpt lat="42.84897" lon="-0.47697">
        <ele>1724.4</ele>
      </trkpt>
      <trkpt lat="42.84897" lon="-0.47698">
        <ele>1724.4</ele>
        <time>2021-08-09 13:14:19</time>
      </trkpt>
      <trkpt lat="42.84897" lon="-0.477">
        <ele>1724.4</ele>
        <time>2021-08-09 13:14:20</time>
      </trkpt>
      <trkpt lat="42.84897" lon="-0.47701">
        <ele>1724.4</ele>
        <time>2021-08-09 13:14:21</time>
      </trkpt>
      <trkpt lat="42.84897" lon="-0.47702">
        <ele>1724.4</ele>
        <time>2021-08-09 13:14:22</time>
      </trkpt>
      <trkpt lat="42.84897" lon="-0.47704">
        <ele>1724.4</ele>
        <time>2021-08-09 13:14:23</time>
      </trkpt>
      <trkpt lat="42.84897" lon="-0.47705">
        <ele>1724.6</ele>
        <time>2021-08-09 13:14:24</time>
      </trkpt>
      <trkpt lat="42.84897" lon="-0.47706">
        <ele>1724.8</ele>
        <time>2021-08-09 13:14:25</time>
      </trkpt>
      <trkpt lat="42.84897" lon="-0.47708">
        <ele>1724.4</ele>
        <time>2021-08-09 13:14:26</time>
      </trkpt>
      <trkpt lat="42.84897" lon="-0.47709">
        <ele>1724.4</ele>
        <time>2021-08-09 13:14:27</time>
      </trkpt>
      <trkpt lat="42.84897" lon="-0.4771">
        <ele>1724.6</ele>
        <time>2021-08-09 13:14:28</time>
      </trkpt>
      <trkpt lat="42.84896" lon="-0.47712">
        <ele>1724.4</ele>
        <time>2021-08-09 13:14:29</time>
      </trkpt>
      <trkpt lat="42.84896" lon="-0.47713">
        <ele>1724.2</ele>
        <time>2021-08-09 13:14:30</time>
      </trkpt>
      <trkpt lat="42.84896" lon="-0.47714">
        <ele>1724</ele>
        <time>2021-08-09 13:14:31</time>
      </trkpt>
      <trkpt lat="42.84896" lon="-0.47716">
        <ele>1724.6</ele>
        <time>2021-08-09 13:14:33</time>
      </trkpt>
      <trkpt lat="42.84895" lon="-0.47717">
        <ele>1724.6</ele>
      </trkpt>
      <trkpt lat="42.84895" lon="-0.47718">
        <ele>1724.8</ele>
        <time>2021-08-09 13:14:34</time>
      </trkpt>
      <trkpt lat="42.84895" lon="-0.47719">
        <ele>1725.2</ele>
        <time>2021-08-09 13:14:35</time>
      </trkpt>
      <trkpt lat="42.84895" lon="-0.4772">
        <ele>1725.4</ele>
        <time>2021-08-09 13:14:36</time>
      </trkpt>
      <trkpt lat="42.84894" lon="-0.47721">
        <ele>1725.6</ele>
        <time>2021-08-09 13:14:37</time>
      </trkpt>
      <trkpt lat="42.84894" lon="-0.47723">
        <ele>1725.6</ele>
        <time>2021-08-09 13:14:38</time>
      </trkpt>
      <trkpt lat="42.84894" lon="-0.47724">
        <ele>1725.6</ele>
        <time>2021-08-09 13:14:39</time>
      </trkpt>
      <trkpt lat="42.84894" lon="-0.47726">
        <ele>1726.2</ele>
        <time>2021-08-09 13:14:40</time>
      </trkpt>
      <trkpt lat="42.84894" lon="-0.47727">
        <ele>1726</ele>
        <time>2021-08-09 13:14:41</time>
      </trkpt>
      <trkpt lat="42.84894" lon="-0.47728">
        <ele>1725.2</ele>
        <time>2021-08-09 13:14:42</time>
      </trkpt>
      <trkpt lat="42.84893" lon="-0.47729">
        <ele>1725.2</ele>
        <time>2021-08-09 13:14:43</time>
      </trkpt>
      <trkpt lat="42.84893" lon="-0.47731">
        <ele>1726.2</ele>
        <time>2021-08-09 13:14:44</time>
      </trkpt>
      <trkpt lat="42.84894" lon="-0.47732">
        <ele>1726.4</ele>
        <time>2021-08-09 13:14:45</time>
      </trkpt>
      <trkpt lat="42.84894" lon="-0.47733">
        <ele>1726.8</ele>
        <time>2021-08-09 13:14:46</time>
      </trkpt>
      <trkpt lat="42.84894" lon="-0.47734">
        <ele>1726.8</ele>
        <time>2021-08-09 13:14:47</time>
      </trkpt>
      <trkpt lat="42.84894" lon="-0.47736">
        <ele>1726.8</ele>
        <time>2021-08-09 13:14:48</time>
      </trkpt>
      <trkpt lat="42.84895" lon="-0.47737">
        <ele>1727</ele>
        <time>2021-08-09 13:14:49</time>
      </trkpt>
      <trkpt lat="42.84894" lon="-0.47738">
        <ele>1727</ele>
        <time>2021-08-09 13:14:50</time>
      </trkpt>
      <trkpt lat="42.84894" lon="-0.4774">
        <ele>1727.2</ele>
        <time>2021-08-09 13:14:51</time>
      </trkpt>
      <trkpt lat="42.84894" lon="-0.47742">
        <ele>1727.6</ele>
        <time>2021-08-09 13:14:53</time>
      </trkpt>
      <trkpt lat="42.84894" lon="-0.47743">
        <ele>1727.6</ele>
      </trkpt>
      <trkpt lat="42.84894" lon="-0.47745">
        <ele>1727.2</ele>
        <time>2021-08-09 13:14:54</time>
      </trkpt>
      <trkpt lat="42.84894" lon="-0.47746">
        <ele>1727.4</ele>
        <time>2021-08-09 13:14:55</time>
      </trkpt>
      <trkpt lat="42.84894" lon="-0.47748">
        <ele>1727.4</ele>
        <time>2021-08-09 13:14:56</time>
      </trkpt>
      <trkpt lat="42.84894" lon="-0.47749">
        <ele>1727.4</ele>
        <time>2021-08-09 13:14:57</time>
      </trkpt>
      <trkpt lat="42.84894" lon="-0.4775">
        <ele>1727.4</ele>
        <time>2021-08-09 13:14:58</time>
      </trkpt>
      <trkpt lat="42.84894" lon="-0.47751">
        <ele>1727.4</ele>
        <time>2021-08-09 13:14:59</time>
      </trkpt>
      <trkpt lat="42.84894" lon="-0.47752">
        <ele>1727.4</ele>
        <time>2021-08-09 13:15:00</time>
      </trkpt>
      <trkpt lat="42.84895" lon="-0.47753">
        <ele>1727.4</ele>
        <time>2021-08-09 13:15:01</time>
      </trkpt>
      <trkpt lat="42.84895" lon="-0.47754">
        <ele>1727.8</ele>
        <time>2021-08-09 13:15:02</time>
      </trkpt>
      <trkpt lat="42.84895" lon="-0.47756">
        <ele>1727.8</ele>
        <time>2021-08-09 13:15:03</time>
      </trkpt>
      <trkpt lat="42.84896" lon="-0.47756">
        <ele>1728</ele>
        <time>2021-08-09 13:15:04</time>
      </trkpt>
      <trkpt lat="42.84897" lon="-0.47758">
        <ele>1728.2</ele>
        <time>2021-08-09 13:15:05</time>
      </trkpt>
      <trkpt lat="42.84897" lon="-0.47759">
        <ele>1728.4</ele>
        <time>2021-08-09 13:15:06</time>
      </trkpt>
      <trkpt lat="42.84898" lon="-0.47759">
        <ele>1728.4</ele>
        <time>2021-08-09 13:15:07</time>
      </trkpt>
      <trkpt lat="42.84899" lon="-0.4776">
        <ele>1728.2</ele>
        <time>2021-08-09 13:15:08</time>
      </trkpt>
      <trkpt lat="42.84899" lon="-0.47762">
        <ele>1728</ele>
        <time>2021-08-09 13:15:09</time>
      </trkpt>
      <trkpt lat="42.849" lon="-0.47763">
        <ele>1727.8</ele>
        <time>2021-08-09 13:15:10</time>
      </trkpt>
      <trkpt lat="42.849" lon="-0.47764">
        <ele>1727.4</ele>
        <time>2021-08-09 13:15:11</time>
      </trkpt>
      <trkpt lat="42.84901" lon="-0.47765">
        <ele>1727.6</ele>
        <time>2021-08-09 13:15:13</time>
      </trkpt>
      <trkpt lat="42.84901" lon="-0.47766">
        <ele>1727.8</ele>
      </trkpt>
      <trkpt lat="42.84902" lon="-0.47767">
        <ele>1727.8</ele>
        <time>2021-08-09 13:15:14</time>
      </trkpt>
      <trkpt lat="42.84902" lon="-0.47768">
        <ele>1727.8</ele>
        <time>2021-08-09 13:15:15</time>
      </trkpt>
      <trkpt lat="42.84903" lon="-0.47769">
        <ele>1727.8</ele>
        <time>2021-08-09 13:15:16</time>
      </trkpt>
      <trkpt lat="42.84903" lon="-0.4777">
        <ele>1727.8</ele>
        <time>2021-08-09 13:15:17</time>
      </trkpt>
      <trkpt lat="42.84904" lon="-0.47771">
        <ele>1727.8</ele>
        <time>2021-08-09 13:15:18</time>
      </trkpt>
      <trkpt lat="42.84905" lon="-0.47772">
        <ele>1728</ele>
        <time>2021-08-09 13:15:19</time>
      </trkpt>
      <trkpt lat="42.84905" lon="-0.47773">
        <ele>1728</ele>
        <time>2021-08-09 13:15:20</time>
      </trkpt>
      <trkpt lat="42.84906" lon="-0.47774">
        <ele>1728.2</ele>
        <time>2021-08-09 13:15:21</time>
      </trkpt>
      <trkpt lat="42.84906" lon="-0.47775">
        <ele>1728.4</ele>
        <time>2021-08-09 13:15:22</time>
      </trkpt>
      <trkpt lat="42.84907" lon="-0.47776">
        <ele>1728.4</ele>
        <time>2021-08-09 13:15:23</time>
      </trkpt>
      <trkpt lat="42.84907" lon="-0.47777">
        <ele>1728.4</ele>
        <time>2021-08-09 13:15:24</time>
      </trkpt>
      <trkpt lat="42.84907" lon="-0.47777">
        <ele>1728.2</ele>
        <time>2021-08-09 13:15:25</time>
      </trkpt>
      <trkpt lat="42.84908" lon="-0.47778">
        <ele>1728.4</ele>
        <time>2021-08-09 13:15:26</time>
      </trkpt>
      <trkpt lat="42.84909" lon="-0.47779">
        <ele>1728.4</ele>
        <time>2021-08-09 13:15:27</time>
      </trkpt>
      <trkpt lat="42.84909" lon="-0.47779">
        <ele>1728.6</ele>
        <time>2021-08-09 13:15:28</time>
      </trkpt>
      <trkpt lat="42.84909" lon="-0.4778">
        <ele>1728.4</ele>
        <time>2021-08-09 13:15:29</time>
      </trkpt>
      <trkpt lat="42.8491" lon="-0.4778">
        <ele>1728.8</ele>
        <time>2021-08-09 13:15:30</time>
      </trkpt>
      <trkpt lat="42.8491" lon="-0.47781">
        <ele>1728.6</ele>
        <time>2021-08-09 13:15:31</time>
      </trkpt>
      <trkpt lat="42.8491" lon="-0.47781">
        <ele>1728.6</ele>
        <time>2021-08-09 13:15:32</time>
      </trkpt>
      <trkpt lat="42.8491" lon="-0.47781">
        <ele>1728.6</ele>
        <time>2021-08-09 13:15:33</time>
      </trkpt>
      <trkpt lat="42.8491" lon="-0.47781">
        <ele>1728</ele>
        <time>2021-08-09 13:15:34</time>
      </trkpt>
      <trkpt lat="42.8491" lon="-0.47782">
        <ele>1728.2</ele>
        <time>2021-08-09 13:15:35</time>
      </trkpt>
      <trkpt lat="42.8491" lon="-0.47782">
        <ele>1728.2</ele>
        <time>2021-08-09 13:15:36</time>
      </trkpt>
      <trkpt lat="42.8491" lon="-0.47782">
        <ele>1728</ele>
        <time>2021-08-09 13:15:37</time>
      </trkpt>
      <trkpt lat="42.8491" lon="-0.47783">
        <ele>1727.8</ele>
        <time>2021-08-09 13:15:38</time>
      </trkpt>
      <trkpt lat="42.84911" lon="-0.47784">
        <ele>1727.8</ele>
        <time>2021-08-09 13:15:39</time>
      </trkpt>
      <trkpt lat="42.84911" lon="-0.47784">
        <ele>1727.8</ele>
        <time>2021-08-09 13:15:40</time>
      </trkpt>
      <trkpt lat="42.84912" lon="-0.47785">
        <ele>1727.6</ele>
        <time>2021-08-09 13:15:41</time>
      </trkpt>
      <trkpt lat="42.84912" lon="-0.47786">
        <ele>1727.2</ele>
        <time>2021-08-09 13:15:42</time>
      </trkpt>
      <trkpt lat="42.84913" lon="-0.47786">
        <ele>1727.2</ele>
        <time>2021-08-09 13:15:43</time>
      </trkpt>
      <trkpt lat="42.84913" lon="-0.47787">
        <ele>1727</ele>
        <time>2021-08-09 13:15:44</time>
      </trkpt>
      <trkpt lat="42.84913" lon="-0.47788">
        <ele>1727</ele>
        <time>2021-08-09 13:15:45</time>
      </trkpt>
      <trkpt lat="42.84914" lon="-0.47789">
        <ele>1727</ele>
        <time>2021-08-09 13:15:46</time>
      </trkpt>
      <trkpt lat="42.84914" lon="-0.4779">
        <ele>1726.8</ele>
        <time>2021-08-09 13:15:47</time>
      </trkpt>
      <trkpt lat="42.84915" lon="-0.47791">
        <ele>1726.8</ele>
        <time>2021-08-09 13:15:48</time>
      </trkpt>
      <trkpt lat="42.84915" lon="-0.47792">
        <ele>1726.6</ele>
        <time>2021-08-09 13:15:49</time>
      </trkpt>
      <trkpt lat="42.84916" lon="-0.47793">
        <ele>1726.8</ele>
        <time>2021-08-09 13:15:50</time>
      </trkpt>
      <trkpt lat="42.84916" lon="-0.47794">
        <ele>1726.8</ele>
        <time>2021-08-09 13:15:51</time>
      </trkpt>
      <trkpt lat="42.84917" lon="-0.47795">
        <ele>1726.8</ele>
        <time>2021-08-09 13:15:52</time>
      </trkpt>
      <trkpt lat="42.84917" lon="-0.47796">
        <ele>1726.6</ele>
        <time>2021-08-09 13:15:53</time>
      </trkpt>
      <trkpt lat="42.84918" lon="-0.47797">
        <ele>1726.6</ele>
        <time>2021-08-09 13:15:54</time>
      </trkpt>
      <trkpt lat="42.84918" lon="-0.47798">
        <ele>1726.4</ele>
        <time>2021-08-09 13:15:55</time>
      </trkpt>
      <trkpt lat="42.84919" lon="-0.47799">
        <ele>1726.4</ele>
        <time>2021-08-09 13:15:56</time>
      </trkpt>
      <trkpt lat="42.8492" lon="-0.478">
        <ele>1726.4</ele>
        <time>2021-08-09 13:15:57</time>
      </trkpt>
      <trkpt lat="42.84921" lon="-0.47802">
        <ele>1726.2</ele>
        <time>2021-08-09 13:15:58</time>
      </trkpt>
      <trkpt lat="42.84921" lon="-0.47803">
        <ele>1726.2</ele>
        <time>2021-08-09 13:15:59</time>
      </trkpt>
      <trkpt lat="42.84921" lon="-0.47804">
        <ele>1726.4</ele>
        <time>2021-08-09 13:16:00</time>
      </trkpt>
      <trkpt lat="42.84922" lon="-0.47805">
        <ele>1726.2</ele>
        <time>2021-08-09 13:16:01</time>
      </trkpt>
      <trkpt lat="42.84922" lon="-0.47807">
        <ele>1725.8</ele>
        <time>2021-08-09 13:16:02</time>
      </trkpt>
      <trkpt lat="42.84923" lon="-0.47808">
        <ele>1725.6</ele>
        <time>2021-08-09 13:16:03</time>
      </trkpt>
      <trkpt lat="42.84923" lon="-0.47809">
        <ele>1726</ele>
        <time>2021-08-09 13:16:04</time>
      </trkpt>
      <trkpt lat="42.84923" lon="-0.4781">
        <ele>1726.6</ele>
        <time>2021-08-09 13:16:05</time>
      </trkpt>
      <trkpt lat="42.84924" lon="-0.47811">
        <ele>1727</ele>
        <time>2021-08-09 13:16:06</time>
      </trkpt>
      <trkpt lat="42.84925" lon="-0.47812">
        <ele>1727.2</ele>
        <time>2021-08-09 13:16:07</time>
      </trkpt>
      <trkpt lat="42.84926" lon="-0.47812">
        <ele>1727</ele>
        <time>2021-08-09 13:16:08</time>
      </trkpt>
      <trkpt lat="42.84926" lon="-0.47813">
        <ele>1726.4</ele>
        <time>2021-08-09 13:16:09</time>
      </trkpt>
      <trkpt lat="42.84927" lon="-0.47814">
        <ele>1726.4</ele>
        <time>2021-08-09 13:16:10</time>
      </trkpt>
      <trkpt lat="42.84927" lon="-0.47814">
        <ele>1726.2</ele>
        <time>2021-08-09 13:16:11</time>
      </trkpt>
      <trkpt lat="42.84928" lon="-0.47815">
        <ele>1725.6</ele>
        <time>2021-08-09 13:16:12</time>
      </trkpt>
      <trkpt lat="42.84928" lon="-0.47815">
        <ele>1725.2</ele>
        <time>2021-08-09 13:16:13</time>
      </trkpt>
      <trkpt lat="42.84928" lon="-0.47815">
        <ele>1724.8</ele>
        <time>2021-08-09 13:16:14</time>
      </trkpt>
      <trkpt lat="42.84928" lon="-0.47815">
        <ele>1725.2</ele>
        <time>2021-08-09 13:16:15</time>
      </trkpt>
      <trkpt lat="42.84928" lon="-0.47814">
        <ele>1725.4</ele>
        <time>2021-08-09 13:16:16</time>
      </trkpt>
      <trkpt lat="42.84927" lon="-0.47814">
        <ele>1725.6</ele>
        <time>2021-08-09 13:16:17</time>
      </trkpt>
      <trkpt lat="42.84927" lon="-0.47814">
        <ele>1725.4</ele>
        <time>2021-08-09 13:16:18</time>
      </trkpt>
      <trkpt lat="42.84927" lon="-0.47814">
        <ele>1725.6</ele>
        <time>2021-08-09 13:16:19</time>
      </trkpt>
      <trkpt lat="42.84927" lon="-0.47814">
        <ele>1725.4</ele>
        <time>2021-08-09 13:16:20</time>
      </trkpt>
      <trkpt lat="42.84928" lon="-0.47814">
        <ele>1726</ele>
        <time>2021-08-09 13:16:21</time>
      </trkpt>
      <trkpt lat="42.84928" lon="-0.47814">
        <ele>1725.8</ele>
        <time>2021-08-09 13:16:22</time>
      </trkpt>
      <trkpt lat="42.84928" lon="-0.47814">
        <ele>1726</ele>
        <time>2021-08-09 13:16:23</time>
      </trkpt>
      <trkpt lat="42.84928" lon="-0.47814">
        <ele>1726.2</ele>
        <time>2021-08-09 13:16:24</time>
      </trkpt>
      <trkpt lat="42.84928" lon="-0.47814">
        <ele>1726.8</ele>
        <time>2021-08-09 13:16:25</time>
      </trkpt>
      <trkpt lat="42.84929" lon="-0.47815">
        <ele>1726.6</ele>
        <time>2021-08-09 13:16:26</time>
      </trkpt>
      <trkpt lat="42.8493" lon="-0.47816">
        <ele>1726.6</ele>
        <time>2021-08-09 13:16:27</time>
      </trkpt>
      <trkpt lat="42.8493" lon="-0.47817">
        <ele>1726.6</ele>
        <time>2021-08-09 13:16:28</time>
      </trkpt>
      <trkpt lat="42.84931" lon="-0.47818">
        <ele>1726.6</ele>
        <time>2021-08-09 13:16:29</time>
      </trkpt>
      <trkpt lat="42.84931" lon="-0.47819">
        <ele>1726.4</ele>
        <time>2021-08-09 13:16:30</time>
      </trkpt>
      <trkpt lat="42.84932" lon="-0.4782">
        <ele>1726.2</ele>
        <time>2021-08-09 13:16:38</time>
      </trkpt>
      <trkpt lat="42.84932" lon="-0.47821">
        <ele>1725.6</ele>
        <time>2021-08-09 13:16:39</time>
      </trkpt>
      <trkpt lat="42.84933" lon="-0.47822">
        <ele>1725.6</ele>
        <time>2021-08-09 13:16:40</time>
      </trkpt>
      <trkpt lat="42.84933" lon="-0.47823">
        <ele>1725.2</ele>
        <time>2021-08-09 13:16:41</time>
      </trkpt>
      <trkpt lat="42.84934" lon="-0.47824">
        <ele>1725.2</ele>
        <time>2021-08-09 13:16:42</time>
      </trkpt>
      <trkpt lat="42.84934" lon="-0.47825">
        <ele>1725.4</ele>
        <time>2021-08-09 13:16:43</time>
      </trkpt>
      <trkpt lat="42.84935" lon="-0.47826">
        <ele>1725.6</ele>
        <time>2021-08-09 13:16:44</time>
      </trkpt>
      <trkpt lat="42.84935" lon="-0.47826">
        <ele>1725.6</ele>
        <time>2021-08-09 13:16:45</time>
      </trkpt>
      <trkpt lat="42.84936" lon="-0.47827">
        <ele>1725.4</ele>
        <time>2021-08-09 13:16:46</time>
      </trkpt>
      <trkpt lat="42.84937" lon="-0.47829">
        <ele>1725.2</ele>
        <time>2021-08-09 13:16:47</time>
      </trkpt>
      <trkpt lat="42.84937" lon="-0.4783">
        <ele>1725.4</ele>
        <time>2021-08-09 13:16:48</time>
      </trkpt>
      <trkpt lat="42.84938" lon="-0.47831">
        <ele>1725.2</ele>
        <time>2021-08-09 13:16:49</time>
      </trkpt>
      <trkpt lat="42.84939" lon="-0.47833">
        <ele>1725.2</ele>
        <time>2021-08-09 13:16:50</time>
      </trkpt>
      <trkpt lat="42.8494" lon="-0.47834">
        <ele>1725.2</ele>
        <time>2021-08-09 13:16:51</time>
      </trkpt>
      <trkpt lat="42.84941" lon="-0.47835">
        <ele>1725.2</ele>
        <time>2021-08-09 13:16:52</time>
      </trkpt>
      <trkpt lat="42.84942" lon="-0.47836">
        <ele>1725</ele>
        <time>2021-08-09 13:16:53</time>
      </trkpt>
      <trkpt lat="42.84943" lon="-0.47837">
        <ele>1725</ele>
        <time>2021-08-09 13:16:54</time>
      </trkpt>
      <trkpt lat="42.84944" lon="-0.47839">
        <ele>1725</ele>
        <time>2021-08-09 13:16:55</time>
      </trkpt>
      <trkpt lat="42.84945" lon="-0.4784">
        <ele>1725</ele>
        <time>2021-08-09 13:16:56</time>
      </trkpt>
      <trkpt lat="42.84945" lon="-0.47841">
        <ele>1725.2</ele>
        <time>2021-08-09 13:16:57</time>
      </trkpt>
      <trkpt lat="42.84946" lon="-0.47842">
        <ele>1725.2</ele>
        <time>2021-08-09 13:16:58</time>
      </trkpt>
      <trkpt lat="42.84948" lon="-0.47843">
        <ele>1725.4</ele>
        <time>2021-08-09 13:16:59</time>
      </trkpt>
      <trkpt lat="42.84948" lon="-0.47844">
        <ele>1725.4</ele>
        <time>2021-08-09 13:17:00</time>
      </trkpt>
      <trkpt lat="42.84949" lon="-0.47845">
        <ele>1725.4</ele>
        <time>2021-08-09 13:17:01</time>
      </trkpt>
      <trkpt lat="42.8495" lon="-0.47846">
        <ele>1725.4</ele>
        <time>2021-08-09 13:17:02</time>
      </trkpt>
      <trkpt lat="42.8495" lon="-0.47848">
        <ele>1725.4</ele>
        <time>2021-08-09 13:17:03</time>
      </trkpt>
      <trkpt lat="42.84951" lon="-0.47849">
        <ele>1725.6</ele>
        <time>2021-08-09 13:17:04</time>
      </trkpt>
      <trkpt lat="42.84952" lon="-0.4785">
        <ele>1725.6</ele>
        <time>2021-08-09 13:17:05</time>
      </trkpt>
      <trkpt lat="42.84953" lon="-0.47851">
        <ele>1725.6</ele>
        <time>2021-08-09 13:17:06</time>
      </trkpt>
      <trkpt lat="42.84954" lon="-0.47852">
        <ele>1725.6</ele>
        <time>2021-08-09 13:17:07</time>
      </trkpt>
      <trkpt lat="42.84954" lon="-0.47853">
        <ele>1725.4</ele>
        <time>2021-08-09 13:17:08</time>
      </trkpt>
      <trkpt lat="42.84955" lon="-0.47855">
        <ele>1725.6</ele>
        <time>2021-08-09 13:17:09</time>
      </trkpt>
      <trkpt lat="42.84956" lon="-0.47856">
        <ele>1725.6</ele>
        <time>2021-08-09 13:17:10</time>
      </trkpt>
      <trkpt lat="42.84956" lon="-0.47857">
        <ele>1725.8</ele>
        <time>2021-08-09 13:17:11</time>
      </trkpt>
      <trkpt lat="42.84957" lon="-0.47858">
        <ele>1726</ele>
        <time>2021-08-09 13:17:12</time>
      </trkpt>
      <trkpt lat="42.84958" lon="-0.47859">
        <ele>1726.2</ele>
        <time>2021-08-09 13:17:13</time>
      </trkpt>
      <trkpt lat="42.84958" lon="-0.47861">
        <ele>1726.2</ele>
        <time>2021-08-09 13:17:14</time>
      </trkpt>
      <trkpt lat="42.84958" lon="-0.47861">
        <ele>1726</ele>
        <time>2021-08-09 13:17:15</time>
      </trkpt>
      <trkpt lat="42.84959" lon="-0.47862">
        <ele>1726</ele>
        <time>2021-08-09 13:17:16</time>
      </trkpt>
      <trkpt lat="42.8496" lon="-0.47864">
        <ele>1726.4</ele>
        <time>2021-08-09 13:17:17</time>
      </trkpt>
      <trkpt lat="42.84961" lon="-0.47865">
        <ele>1726.4</ele>
        <time>2021-08-09 13:17:18</time>
      </trkpt>
      <trkpt lat="42.84961" lon="-0.47866">
        <ele>1726.6</ele>
        <time>2021-08-09 13:17:19</time>
      </trkpt>
      <trkpt lat="42.84962" lon="-0.47867">
        <ele>1726.6</ele>
        <time>2021-08-09 13:17:49</time>
      </trkpt>
      <trkpt lat="42.84962" lon="-0.47868">
        <ele>1726.4</ele>
        <time>2021-08-09 13:17:50</time>
      </trkpt>
      <trkpt lat="42.84963" lon="-0.47869">
        <ele>1726.6</ele>
        <time>2021-08-09 13:17:51</time>
      </trkpt>
      <trkpt lat="42.84964" lon="-0.4787">
        <ele>1726.4</ele>
        <time>2021-08-09 13:17:52</time>
      </trkpt>
      <trkpt lat="42.84965" lon="-0.47871">
        <ele>1726.2</ele>
        <time>2021-08-09 13:17:53</time>
      </trkpt>
      <trkpt lat="42.84965" lon="-0.47871">
        <ele>1726.4</ele>
        <time>2021-08-09 13:17:54</time>
      </trkpt>
      <trkpt lat="42.84966" lon="-0.47872">
        <ele>1726.4</ele>
        <time>2021-08-09 13:17:55</time>
      </trkpt>
      <trkpt lat="42.84967" lon="-0.47873">
        <ele>1726.4</ele>
        <time>2021-08-09 13:17:56</time>
      </trkpt>
      <trkpt lat="42.84969" lon="-0.47874">
        <ele>1726.6</ele>
        <time>2021-08-09 13:17:57</time>
      </trkpt>
      <trkpt lat="42.8497" lon="-0.47874">
        <ele>1726.6</ele>
        <time>2021-08-09 13:17:58</time>
      </trkpt>
      <trkpt lat="42.8497" lon="-0.47875">
        <ele>1726.6</ele>
        <time>2021-08-09 13:17:59</time>
      </trkpt>
      <trkpt lat="42.84972" lon="-0.47876">
        <ele>1726.6</ele>
        <time>2021-08-09 13:18:00</time>
      </trkpt>
      <trkpt lat="42.84972" lon="-0.47878">
        <ele>1726.6</ele>
        <time>2021-08-09 13:18:01</time>
      </trkpt>
      <trkpt lat="42.84973" lon="-0.47879">
        <ele>1726.6</ele>
        <time>2021-08-09 13:18:02</time>
      </trkpt>
      <trkpt lat="42.84973" lon="-0.4788">
        <ele>1726.6</ele>
        <time>2021-08-09 13:18:03</time>
      </trkpt>
      <trkpt lat="42.84975" lon="-0.47881">
        <ele>1726.6</ele>
        <time>2021-08-09 13:18:04</time>
      </trkpt>
      <trkpt lat="42.84975" lon="-0.47883">
        <ele>1726.6</ele>
        <time>2021-08-09 13:18:05</time>
      </trkpt>
      <trkpt lat="42.84976" lon="-0.47884">
        <ele>1726.6</ele>
        <time>2021-08-09 13:18:06</time>
      </trkpt>
      <trkpt lat="42.84977" lon="-0.47886">
        <ele>1726.8</ele>
        <time>2021-08-09 13:18:07</time>
      </trkpt>
      <trkpt lat="42.84977" lon="-0.47887">
        <ele>1726.6</ele>
        <time>2021-08-09 13:18:08</time>
      </trkpt>
      <trkpt lat="42.84978" lon="-0.47888">
        <ele>1726.6</ele>
        <time>2021-08-09 13:18:09</time>
      </trkpt>
      <trkpt lat="42.84978" lon="-0.47888">
        <ele>1726.6</ele>
        <time>2021-08-09 13:18:10</time>
      </trkpt>
      <trkpt lat="42.84979" lon="-0.47889">
        <ele>1726.8</ele>
        <time>2021-08-09 13:18:11</time>
      </trkpt>
      <trkpt lat="42.84979" lon="-0.4789">
        <ele>1726.8</ele>
        <time>2021-08-09 13:18:12</time>
      </trkpt>
      <trkpt lat="42.8498" lon="-0.4789">
        <ele>1727</ele>
        <time>2021-08-09 13:18:13</time>
      </trkpt>
      <trkpt lat="42.8498" lon="-0.47891">
        <ele>1727</ele>
        <time>2021-08-09 13:18:14</time>
      </trkpt>
      <trkpt lat="42.84981" lon="-0.47893">
        <ele>1727.2</ele>
        <time>2021-08-09 13:18:15</time>
      </trkpt>
      <trkpt lat="42.84982" lon="-0.47893">
        <ele>1727.2</ele>
        <time>2021-08-09 13:18:16</time>
      </trkpt>
      <trkpt lat="42.84983" lon="-0.47893">
        <ele>1727.2</ele>
        <time>2021-08-09 13:18:17</time>
      </trkpt>
      <trkpt lat="42.84983" lon="-0.47894">
        <ele>1727.4</ele>
        <time>2021-08-09 13:18:18</time>
      </trkpt>
      <trkpt lat="42.84984" lon="-0.47894">
        <ele>1727.6</ele>
        <time>2021-08-09 13:18:19</time>
      </trkpt>
      <trkpt lat="42.84986" lon="-0.47894">
        <ele>1727.8</ele>
        <time>2021-08-09 13:18:20</time>
      </trkpt>
      <trkpt lat="42.84987" lon="-0.47895">
        <ele>1728</ele>
        <time>2021-08-09 13:18:21</time>
      </trkpt>
      <trkpt lat="42.84988" lon="-0.47895">
        <ele>1728</ele>
        <time>2021-08-09 13:18:22</time>
      </trkpt>
      <trkpt lat="42.84989" lon="-0.47895">
        <ele>1728</ele>
        <time>2021-08-09 13:18:23</time>
      </trkpt>
      <trkpt lat="42.8499" lon="-0.47895">
        <ele>1727.8</ele>
        <time>2021-08-09 13:18:24</time>
      </trkpt>
      <trkpt lat="42.84991" lon="-0.47896">
        <ele>1727.8</ele>
        <time>2021-08-09 13:18:25</time>
      </trkpt>
      <trkpt lat="42.84991" lon="-0.47897">
        <ele>1727.8</ele>
        <time>2021-08-09 13:18:26</time>
      </trkpt>
      <trkpt lat="42.84992" lon="-0.47897">
        <ele>1727.8</ele>
        <time>2021-08-09 13:18:27</time>
      </trkpt>
      <trkpt lat="42.84992" lon="-0.47897">
        <ele>1728.2</ele>
        <time>2021-08-09 13:18:28</time>
      </trkpt>
      <trkpt lat="42.84993" lon="-0.47898">
        <ele>1728</ele>
        <time>2021-08-09 13:18:29</time>
      </trkpt>
      <trkpt lat="42.84994" lon="-0.47899">
        <ele>1728</ele>
        <time>2021-08-09 13:18:30</time>
      </trkpt>
      <trkpt lat="42.84995" lon="-0.479">
        <ele>1727.8</ele>
        <time>2021-08-09 13:18:31</time>
      </trkpt>
      <trkpt lat="42.84995" lon="-0.47901">
        <ele>1727.6</ele>
        <time>2021-08-09 13:18:32</time>
      </trkpt>
      <trkpt lat="42.84996" lon="-0.47901">
        <ele>1727.6</ele>
        <time>2021-08-09 13:18:33</time>
      </trkpt>
      <trkpt lat="42.84997" lon="-0.47901">
        <ele>1727.6</ele>
        <time>2021-08-09 13:18:34</time>
      </trkpt>
      <trkpt lat="42.84998" lon="-0.47902">
        <ele>1727.8</ele>
        <time>2021-08-09 13:18:35</time>
      </trkpt>
      <trkpt lat="42.84999" lon="-0.47903">
        <ele>1728</ele>
        <time>2021-08-09 13:18:36</time>
      </trkpt>
      <trkpt lat="42.84999" lon="-0.47903">
        <ele>1728</ele>
        <time>2021-08-09 13:18:37</time>
      </trkpt>
      <trkpt lat="42.85" lon="-0.47904">
        <ele>1728</ele>
        <time>2021-08-09 13:18:38</time>
      </trkpt>
      <trkpt lat="42.85" lon="-0.47905">
        <ele>1728</ele>
        <time>2021-08-09 13:18:39</time>
      </trkpt>
      <trkpt lat="42.85" lon="-0.47905">
        <ele>1728</ele>
        <time>2021-08-09 13:18:40</time>
      </trkpt>
      <trkpt lat="42.85001" lon="-0.47906">
        <ele>1728.2</ele>
        <time>2021-08-09 13:18:41</time>
      </trkpt>
      <trkpt lat="42.85001" lon="-0.47906">
        <ele>1728.2</ele>
        <time>2021-08-09 13:18:42</time>
      </trkpt>
      <trkpt lat="42.85002" lon="-0.47907">
        <ele>1728.2</ele>
        <time>2021-08-09 13:18:43</time>
      </trkpt>
      <trkpt lat="42.85003" lon="-0.47908">
        <ele>1728</ele>
        <time>2021-08-09 13:18:44</time>
      </trkpt>
      <trkpt lat="42.85003" lon="-0.47909">
        <ele>1728.2</ele>
        <time>2021-08-09 13:18:45</time>
      </trkpt>
      <trkpt lat="42.85003" lon="-0.4791">
        <ele>1727.8</ele>
        <time>2021-08-09 13:18:46</time>
      </trkpt>
      <trkpt lat="42.85003" lon="-0.47911">
        <ele>1727.6</ele>
        <time>2021-08-09 13:18:47</time>
      </trkpt>
      <trkpt lat="42.85004" lon="-0.47912">
        <ele>1728.2</ele>
        <time>2021-08-09 13:18:48</time>
      </trkpt>
      <trkpt lat="42.85004" lon="-0.47912">
        <ele>1728</ele>
        <time>2021-08-09 13:18:49</time>
      </trkpt>
      <trkpt lat="42.85005" lon="-0.47913">
        <ele>1728.2</ele>
        <time>2021-08-09 13:18:50</time>
      </trkpt>
      <trkpt lat="42.85006" lon="-0.47914">
        <ele>1728</ele>
        <time>2021-08-09 13:18:51</time>
      </trkpt>
      <trkpt lat="42.85007" lon="-0.47915">
        <ele>1728</ele>
        <time>2021-08-09 13:18:52</time>
      </trkpt>
      <trkpt lat="42.85007" lon="-0.47915">
        <ele>1728.2</ele>
        <time>2021-08-09 13:18:53</time>
      </trkpt>
      <trkpt lat="42.85008" lon="-0.47916">
        <ele>1728.4</ele>
        <time>2021-08-09 13:18:54</time>
      </trkpt>
      <trkpt lat="42.85009" lon="-0.47918">
        <ele>1728.2</ele>
        <time>2021-08-09 13:18:55</time>
      </trkpt>
      <trkpt lat="42.85009" lon="-0.47919">
        <ele>1728.2</ele>
        <time>2021-08-09 13:18:56</time>
      </trkpt>
      <trkpt lat="42.8501" lon="-0.4792">
        <ele>1728.2</ele>
        <time>2021-08-09 13:18:57</time>
      </trkpt>
      <trkpt lat="42.8501" lon="-0.47921">
        <ele>1728.8</ele>
        <time>2021-08-09 13:18:58</time>
      </trkpt>
      <trkpt lat="42.85011" lon="-0.47922">
        <ele>1728.6</ele>
        <time>2021-08-09 13:18:59</time>
      </trkpt>
      <trkpt lat="42.85011" lon="-0.47923">
        <ele>1728.8</ele>
        <time>2021-08-09 13:19:00</time>
      </trkpt>
      <trkpt lat="42.85011" lon="-0.47924">
        <ele>1728.8</ele>
        <time>2021-08-09 13:19:01</time>
      </trkpt>
      <trkpt lat="42.85011" lon="-0.47925">
        <ele>1729</ele>
        <time>2021-08-09 13:19:02</time>
      </trkpt>
      <trkpt lat="42.85011" lon="-0.47926">
        <ele>1728.8</ele>
        <time>2021-08-09 13:19:03</time>
      </trkpt>
      <trkpt lat="42.85012" lon="-0.47927">
        <ele>1728.6</ele>
        <time>2021-08-09 13:19:04</time>
      </trkpt>
      <trkpt lat="42.85012" lon="-0.47928">
        <ele>1728.8</ele>
        <time>2021-08-09 13:19:05</time>
      </trkpt>
      <trkpt lat="42.85012" lon="-0.4793">
        <ele>1728.8</ele>
        <time>2021-08-09 13:19:06</time>
      </trkpt>
      <trkpt lat="42.85012" lon="-0.47931">
        <ele>1729.4</ele>
        <time>2021-08-09 13:19:07</time>
      </trkpt>
      <trkpt lat="42.85012" lon="-0.47932">
        <ele>1729.4</ele>
        <time>2021-08-09 13:19:08</time>
      </trkpt>
      <trkpt lat="42.85013" lon="-0.47933">
        <ele>1730</ele>
        <time>2021-08-09 13:19:09</time>
      </trkpt>
      <trkpt lat="42.85013" lon="-0.47934">
        <ele>1730</ele>
        <time>2021-08-09 13:19:10</time>
      </trkpt>
      <trkpt lat="42.85013" lon="-0.47935">
        <ele>1730.2</ele>
        <time>2021-08-09 13:19:11</time>
      </trkpt>
      <trkpt lat="42.85013" lon="-0.47938">
        <ele>1730.2</ele>
        <time>2021-08-09 13:19:12</time>
      </trkpt>
      <trkpt lat="42.85013" lon="-0.47939">
        <ele>1730.2</ele>
        <time>2021-08-09 13:19:13</time>
      </trkpt>
      <trkpt lat="42.85013" lon="-0.4794">
        <ele>1730.6</ele>
        <time>2021-08-09 13:19:14</time>
      </trkpt>
      <trkpt lat="42.85013" lon="-0.47942">
        <ele>1730.8</ele>
        <time>2021-08-09 13:19:15</time>
      </trkpt>
      <trkpt lat="42.85012" lon="-0.47943">
        <ele>1730.8</ele>
        <time>2021-08-09 13:19:16</time>
      </trkpt>
      <trkpt lat="42.85012" lon="-0.47944">
        <ele>1730.8</ele>
        <time>2021-08-09 13:19:17</time>
      </trkpt>
      <trkpt lat="42.85012" lon="-0.47945">
        <ele>1731.2</ele>
        <time>2021-08-09 13:19:18</time>
      </trkpt>
      <trkpt lat="42.85012" lon="-0.47946">
        <ele>1731.4</ele>
        <time>2021-08-09 13:19:19</time>
      </trkpt>
      <trkpt lat="42.85011" lon="-0.47947">
        <ele>1732</ele>
        <time>2021-08-09 13:19:20</time>
      </trkpt>
      <trkpt lat="42.85011" lon="-0.47948">
        <ele>1731.6</ele>
        <time>2021-08-09 13:19:21</time>
      </trkpt>
      <trkpt lat="42.85011" lon="-0.47949">
        <ele>1732</ele>
        <time>2021-08-09 13:19:22</time>
      </trkpt>
      <trkpt lat="42.85011" lon="-0.4795">
        <ele>1732.2</ele>
        <time>2021-08-09 13:19:23</time>
      </trkpt>
      <trkpt lat="42.85011" lon="-0.47951">
        <ele>1732.4</ele>
        <time>2021-08-09 13:19:24</time>
      </trkpt>
      <trkpt lat="42.85011" lon="-0.47953">
        <ele>1732.2</ele>
        <time>2021-08-09 13:19:25</time>
      </trkpt>
      <trkpt lat="42.85011" lon="-0.47954">
        <ele>1733</ele>
        <time>2021-08-09 13:19:26</time>
      </trkpt>
      <trkpt lat="42.85011" lon="-0.47955">
        <ele>1733.2</ele>
        <time>2021-08-09 13:19:27</time>
      </trkpt>
      <trkpt lat="42.85011" lon="-0.47956">
        <ele>1733.2</ele>
        <time>2021-08-09 13:19:28</time>
      </trkpt>
      <trkpt lat="42.85011" lon="-0.47957">
        <ele>1733.2</ele>
        <time>2021-08-09 13:19:29</time>
      </trkpt>
      <trkpt lat="42.85011" lon="-0.47958">
        <ele>1733.6</ele>
        <time>2021-08-09 13:19:30</time>
      </trkpt>
      <trkpt lat="42.8501" lon="-0.47959">
        <ele>1733.8</ele>
        <time>2021-08-09 13:19:31</time>
      </trkpt>
      <trkpt lat="42.8501" lon="-0.4796">
        <ele>1733.8</ele>
        <time>2021-08-09 13:19:32</time>
      </trkpt>
      <trkpt lat="42.8501" lon="-0.47961">
        <ele>1734</ele>
        <time>2021-08-09 13:19:33</time>
      </trkpt>
      <trkpt lat="42.8501" lon="-0.47962">
        <ele>1734.2</ele>
        <time>2021-08-09 13:19:34</time>
      </trkpt>
      <trkpt lat="42.8501" lon="-0.47963">
        <ele>1734.4</ele>
        <time>2021-08-09 13:19:35</time>
      </trkpt>
      <trkpt lat="42.8501" lon="-0.47963">
        <ele>1734.4</ele>
        <time>2021-08-09 13:19:36</time>
      </trkpt>
      <trkpt lat="42.85009" lon="-0.47964">
        <ele>1734.4</ele>
        <time>2021-08-09 13:19:37</time>
      </trkpt>
      <trkpt lat="42.85008" lon="-0.47965">
        <ele>1734.8</ele>
        <time>2021-08-09 13:19:38</time>
      </trkpt>
      <trkpt lat="42.85008" lon="-0.47966">
        <ele>1735</ele>
        <time>2021-08-09 13:19:39</time>
      </trkpt>
      <trkpt lat="42.85007" lon="-0.47966">
        <ele>1735</ele>
        <time>2021-08-09 13:19:40</time>
      </trkpt>
      <trkpt lat="42.85007" lon="-0.47966">
        <ele>1735.2</ele>
        <time>2021-08-09 13:19:41</time>
      </trkpt>
      <trkpt lat="42.85006" lon="-0.47967">
        <ele>1735.2</ele>
        <time>2021-08-09 13:19:42</time>
      </trkpt>
      <trkpt lat="42.85005" lon="-0.47967">
        <ele>1735.4</ele>
        <time>2021-08-09 13:19:43</time>
      </trkpt>
      <trkpt lat="42.85005" lon="-0.47968">
        <ele>1735.6</ele>
        <time>2021-08-09 13:19:44</time>
      </trkpt>
      <trkpt lat="42.85004" lon="-0.47968">
        <ele>1735.8</ele>
        <time>2021-08-09 13:19:45</time>
      </trkpt>
      <trkpt lat="42.85004" lon="-0.47969">
        <ele>1735.8</ele>
        <time>2021-08-09 13:19:46</time>
      </trkpt>
      <trkpt lat="42.85004" lon="-0.47971">
        <ele>1735.8</ele>
        <time>2021-08-09 13:19:47</time>
      </trkpt>
      <trkpt lat="42.85004" lon="-0.47972">
        <ele>1736</ele>
        <time>2021-08-09 13:19:48</time>
      </trkpt>
      <trkpt lat="42.85004" lon="-0.47972">
        <ele>1736</ele>
        <time>2021-08-09 13:19:49</time>
      </trkpt>
      <trkpt lat="42.85004" lon="-0.47973">
        <ele>1736.4</ele>
        <time>2021-08-09 13:19:50</time>
      </trkpt>
      <trkpt lat="42.85004" lon="-0.47973">
        <ele>1736.4</ele>
        <time>2021-08-09 13:19:51</time>
      </trkpt>
      <trkpt lat="42.85004" lon="-0.47974">
        <ele>1736.6</ele>
        <time>2021-08-09 13:19:52</time>
      </trkpt>
      <trkpt lat="42.85003" lon="-0.47976">
        <ele>1736.6</ele>
        <time>2021-08-09 13:19:53</time>
      </trkpt>
      <trkpt lat="42.85003" lon="-0.47977">
        <ele>1736.8</ele>
        <time>2021-08-09 13:19:54</time>
      </trkpt>
      <trkpt lat="42.85003" lon="-0.47978">
        <ele>1737</ele>
        <time>2021-08-09 13:19:55</time>
      </trkpt>
      <trkpt lat="42.85002" lon="-0.47978">
        <ele>1737</ele>
        <time>2021-08-09 13:19:56</time>
      </trkpt>
      <trkpt lat="42.85002" lon="-0.47979">
        <ele>1737</ele>
        <time>2021-08-09 13:19:57</time>
      </trkpt>
      <trkpt lat="42.85002" lon="-0.47981">
        <ele>1737.4</ele>
        <time>2021-08-09 13:19:58</time>
      </trkpt>
      <trkpt lat="42.85002" lon="-0.47981">
        <ele>1737.2</ele>
        <time>2021-08-09 13:19:59</time>
      </trkpt>
      <trkpt lat="42.85002" lon="-0.47982">
        <ele>1737.6</ele>
        <time>2021-08-09 13:20:00</time>
      </trkpt>
      <trkpt lat="42.85002" lon="-0.47982">
        <ele>1737.8</ele>
        <time>2021-08-09 13:20:01</time>
      </trkpt>
      <trkpt lat="42.85002" lon="-0.47984">
        <ele>1738</ele>
        <time>2021-08-09 13:20:02</time>
      </trkpt>
      <trkpt lat="42.85002" lon="-0.47985">
        <ele>1738.4</ele>
        <time>2021-08-09 13:20:03</time>
      </trkpt>
      <trkpt lat="42.85002" lon="-0.47986">
        <ele>1738.6</ele>
        <time>2021-08-09 13:20:04</time>
      </trkpt>
      <trkpt lat="42.85002" lon="-0.47988">
        <ele>1739</ele>
        <time>2021-08-09 13:20:05</time>
      </trkpt>
      <trkpt lat="42.85002" lon="-0.47989">
        <ele>1739</ele>
        <time>2021-08-09 13:20:06</time>
      </trkpt>
      <trkpt lat="42.85003" lon="-0.4799">
        <ele>1739.2</ele>
        <time>2021-08-09 13:20:07</time>
      </trkpt>
      <trkpt lat="42.85003" lon="-0.47991">
        <ele>1739.2</ele>
        <time>2021-08-09 13:20:08</time>
      </trkpt>
      <trkpt lat="42.85003" lon="-0.47992">
        <ele>1739.2</ele>
        <time>2021-08-09 13:20:09</time>
      </trkpt>
      <trkpt lat="42.85004" lon="-0.47993">
        <ele>1739.4</ele>
        <time>2021-08-09 13:20:10</time>
      </trkpt>
      <trkpt lat="42.85004" lon="-0.47994">
        <ele>1739.6</ele>
        <time>2021-08-09 13:20:11</time>
      </trkpt>
      <trkpt lat="42.85004" lon="-0.47995">
        <ele>1739.8</ele>
        <time>2021-08-09 13:20:12</time>
      </trkpt>
      <trkpt lat="42.85004" lon="-0.47996">
        <ele>1740.2</ele>
        <time>2021-08-09 13:20:13</time>
      </trkpt>
      <trkpt lat="42.85004" lon="-0.47997">
        <ele>1740.4</ele>
        <time>2021-08-09 13:20:14</time>
      </trkpt>
      <trkpt lat="42.85004" lon="-0.47997">
        <ele>1740.6</ele>
        <time>2021-08-09 13:20:15</time>
      </trkpt>
      <trkpt lat="42.85004" lon="-0.47998">
        <ele>1740.6</ele>
        <time>2021-08-09 13:20:16</time>
      </trkpt>
      <trkpt lat="42.85004" lon="-0.47998">
        <ele>1740.6</ele>
        <time>2021-08-09 13:20:17</time>
      </trkpt>
      <trkpt lat="42.85005" lon="-0.47998">
        <ele>1740.8</ele>
        <time>2021-08-09 13:20:18</time>
      </trkpt>
      <trkpt lat="42.85005" lon="-0.47998">
        <ele>1741.2</ele>
        <time>2021-08-09 13:20:19</time>
      </trkpt>
      <trkpt lat="42.85005" lon="-0.47998">
        <ele>1741.4</ele>
        <time>2021-08-09 13:20:20</time>
      </trkpt>
      <trkpt lat="42.85006" lon="-0.47997">
        <ele>1741.4</ele>
        <time>2021-08-09 13:20:21</time>
      </trkpt>
      <trkpt lat="42.85006" lon="-0.47997">
        <ele>1741.6</ele>
        <time>2021-08-09 13:20:22</time>
      </trkpt>
      <trkpt lat="42.85007" lon="-0.47996">
        <ele>1742</ele>
        <time>2021-08-09 13:20:23</time>
      </trkpt>
      <trkpt lat="42.85007" lon="-0.47997">
        <ele>1742.2</ele>
        <time>2021-08-09 13:20:24</time>
      </trkpt>
      <trkpt lat="42.85008" lon="-0.47997">
        <ele>1742.8</ele>
        <time>2021-08-09 13:20:25</time>
      </trkpt>
      <trkpt lat="42.85009" lon="-0.47997">
        <ele>1742.8</ele>
        <time>2021-08-09 13:20:26</time>
      </trkpt>
      <trkpt lat="42.85009" lon="-0.47997">
        <ele>1742.8</ele>
        <time>2021-08-09 13:20:27</time>
      </trkpt>
      <trkpt lat="42.8501" lon="-0.47998">
        <ele>1743</ele>
        <time>2021-08-09 13:20:28</time>
      </trkpt>
      <trkpt lat="42.8501" lon="-0.47999">
        <ele>1743</ele>
        <time>2021-08-09 13:20:29</time>
      </trkpt>
      <trkpt lat="42.8501" lon="-0.48">
        <ele>1743</ele>
        <time>2021-08-09 13:20:30</time>
      </trkpt>
      <trkpt lat="42.8501" lon="-0.48001">
        <ele>1743.2</ele>
        <time>2021-08-09 13:20:31</time>
      </trkpt>
      <trkpt lat="42.85009" lon="-0.48001">
        <ele>1743.4</ele>
        <time>2021-08-09 13:20:32</time>
      </trkpt>
      <trkpt lat="42.85009" lon="-0.48001">
        <ele>1743.6</ele>
        <time>2021-08-09 13:20:33</time>
      </trkpt>
      <trkpt lat="42.85009" lon="-0.48002">
        <ele>1743.8</ele>
        <time>2021-08-09 13:20:34</time>
      </trkpt>
      <trkpt lat="42.85008" lon="-0.48002">
        <ele>1744</ele>
        <time>2021-08-09 13:20:35</time>
      </trkpt>
      <trkpt lat="42.85008" lon="-0.48002">
        <ele>1744.2</ele>
        <time>2021-08-09 13:20:36</time>
      </trkpt>
      <trkpt lat="42.85008" lon="-0.48002">
        <ele>1744.2</ele>
        <time>2021-08-09 13:20:37</time>
      </trkpt>
      <trkpt lat="42.85008" lon="-0.48004">
        <ele>1744.2</ele>
        <time>2021-08-09 13:20:38</time>
      </trkpt>
      <trkpt lat="42.85008" lon="-0.48004">
        <ele>1744.6</ele>
        <time>2021-08-09 13:20:39</time>
      </trkpt>
      <trkpt lat="42.85008" lon="-0.48005">
        <ele>1744.6</ele>
        <time>2021-08-09 13:20:40</time>
      </trkpt>
      <trkpt lat="42.85008" lon="-0.48005">
        <ele>1744.8</ele>
        <time>2021-08-09 13:20:41</time>
      </trkpt>
      <trkpt lat="42.85008" lon="-0.48005">
        <ele>1744.8</ele>
        <time>2021-08-09 13:20:42</time>
      </trkpt>
      <trkpt lat="42.85007" lon="-0.48006">
        <ele>1744.6</ele>
        <time>2021-08-09 13:20:43</time>
      </trkpt>
      <trkpt lat="42.85007" lon="-0.48007">
        <ele>1744.6</ele>
        <time>2021-08-09 13:20:44</time>
      </trkpt>
      <trkpt lat="42.85007" lon="-0.48007">
        <ele>1744.6</ele>
        <time>2021-08-09 13:20:45</time>
      </trkpt>
      <trkpt lat="42.85007" lon="-0.48008">
        <ele>1744.4</ele>
        <time>2021-08-09 13:20:46</time>
      </trkpt>
      <trkpt lat="42.85007" lon="-0.48008">
        <ele>1744.6</ele>
        <time>2021-08-09 13:20:47</time>
      </trkpt>
      <trkpt lat="42.85007" lon="-0.48008">
        <ele>1744.8</ele>
        <time>2021-08-09 13:20:48</time>
      </trkpt>
      <trkpt lat="42.85007" lon="-0.48009">
        <ele>1744.8</ele>
        <time>2021-08-09 13:20:49</time>
      </trkpt>
      <trkpt lat="42.85006" lon="-0.48008">
        <ele>1744.6</ele>
        <time>2021-08-09 13:20:50</time>
      </trkpt>
      <trkpt lat="42.85006" lon="-0.48009">
        <ele>1745</ele>
        <time>2021-08-09 13:20:51</time>
      </trkpt>
      <trkpt lat="42.85006" lon="-0.48009">
        <ele>1745</ele>
        <time>2021-08-09 13:20:52</time>
      </trkpt>
      <trkpt lat="42.85007" lon="-0.4801">
        <ele>1745.2</ele>
        <time>2021-08-09 13:20:53</time>
      </trkpt>
      <trkpt lat="42.85007" lon="-0.48011">
        <ele>1745.4</ele>
      </trkpt>
      <trkpt lat="42.85007" lon="-0.48011">
        <ele>1745.2</ele>
        <time>2021-08-09 13:20:54</time>
      </trkpt>
      <trkpt lat="42.85008" lon="-0.48011">
        <ele>1745.6</ele>
        <time>2021-08-09 13:20:55</time>
      </trkpt>
      <trkpt lat="42.85008" lon="-0.48013">
        <ele>1745.6</ele>
        <time>2021-08-09 13:20:56</time>
      </trkpt>
      <trkpt lat="42.85008" lon="-0.48013">
        <ele>1745.6</ele>
        <time>2021-08-09 13:20:57</time>
      </trkpt>
      <trkpt lat="42.85008" lon="-0.48014">
        <ele>1746</ele>
        <time>2021-08-09 13:20:58</time>
      </trkpt>
      <trkpt lat="42.85008" lon="-0.48014">
        <ele>1746.2</ele>
        <time>2021-08-09 13:20:59</time>
      </trkpt>
      <trkpt lat="42.85008" lon="-0.48014">
        <ele>1746.2</ele>
        <time>2021-08-09 13:21:00</time>
      </trkpt>
      <trkpt lat="42.85009" lon="-0.48014">
        <ele>1746.2</ele>
        <time>2021-08-09 13:21:01</time>
      </trkpt>
      <trkpt lat="42.8501" lon="-0.48013">
        <ele>1746.2</ele>
        <time>2021-08-09 13:21:03</time>
      </trkpt>
      <trkpt lat="42.85009" lon="-0.48012">
        <ele>1746.2</ele>
      </trkpt>
      <trkpt lat="42.8501" lon="-0.48012">
        <ele>1746.2</ele>
        <time>2021-08-09 13:21:04</time>
      </trkpt>
      <trkpt lat="42.8501" lon="-0.48012">
        <ele>1746.2</ele>
        <time>2021-08-09 13:21:05</time>
      </trkpt>
      <trkpt lat="42.8501" lon="-0.48012">
        <ele>1746.4</ele>
        <time>2021-08-09 13:21:06</time>
      </trkpt>
      <trkpt lat="42.8501" lon="-0.48012">
        <ele>1746.6</ele>
        <time>2021-08-09 13:21:07</time>
      </trkpt>
      <trkpt lat="42.8501" lon="-0.48013">
        <ele>1746.8</ele>
        <time>2021-08-09 13:21:08</time>
      </trkpt>
      <trkpt lat="42.8501" lon="-0.48014">
        <ele>1747</ele>
        <time>2021-08-09 13:21:09</time>
      </trkpt>
      <trkpt lat="42.8501" lon="-0.48015">
        <ele>1746.2</ele>
        <time>2021-08-09 13:21:10</time>
      </trkpt>
      <trkpt lat="42.8501" lon="-0.48015">
        <ele>1747</ele>
        <time>2021-08-09 13:21:11</time>
      </trkpt>
      <trkpt lat="42.85009" lon="-0.48015">
        <ele>1747.4</ele>
        <time>2021-08-09 13:21:12</time>
      </trkpt>
      <trkpt lat="42.8501" lon="-0.48016">
        <ele>1747.4</ele>
        <time>2021-08-09 13:21:13</time>
      </trkpt>
      <trkpt lat="42.8501" lon="-0.48016">
        <ele>1747.2</ele>
        <time>2021-08-09 13:21:14</time>
      </trkpt>
      <trkpt lat="42.8501" lon="-0.48017">
        <ele>1747.4</ele>
        <time>2021-08-09 13:21:15</time>
      </trkpt>
      <trkpt lat="42.8501" lon="-0.48017">
        <ele>1747.4</ele>
        <time>2021-08-09 13:21:16</time>
      </trkpt>
      <trkpt lat="42.8501" lon="-0.48018">
        <ele>1747.6</ele>
        <time>2021-08-09 13:21:17</time>
      </trkpt>
      <trkpt lat="42.85011" lon="-0.48019">
        <ele>1747.6</ele>
        <time>2021-08-09 13:21:18</time>
      </trkpt>
      <trkpt lat="42.85011" lon="-0.48019">
        <ele>1747.8</ele>
        <time>2021-08-09 13:21:19</time>
      </trkpt>
      <trkpt lat="42.85011" lon="-0.4802">
        <ele>1748.2</ele>
        <time>2021-08-09 13:21:20</time>
      </trkpt>
      <trkpt lat="42.85011" lon="-0.4802">
        <ele>1748.4</ele>
        <time>2021-08-09 13:21:22</time>
      </trkpt>
      <trkpt lat="42.85011" lon="-0.4802">
        <ele>1748.4</ele>
      </trkpt>
      <trkpt lat="42.85011" lon="-0.48021">
        <ele>1748.6</ele>
        <time>2021-08-09 13:21:23</time>
      </trkpt>
      <trkpt lat="42.85011" lon="-0.48022">
        <ele>1748.6</ele>
        <time>2021-08-09 13:21:24</time>
      </trkpt>
      <trkpt lat="42.8501" lon="-0.48022">
        <ele>1748.6</ele>
        <time>2021-08-09 13:21:25</time>
      </trkpt>
      <trkpt lat="42.8501" lon="-0.48023">
        <ele>1748.6</ele>
        <time>2021-08-09 13:21:26</time>
      </trkpt>
      <trkpt lat="42.8501" lon="-0.48023">
        <ele>1748.6</ele>
        <time>2021-08-09 13:21:27</time>
      </trkpt>
      <trkpt lat="42.8501" lon="-0.48024">
        <ele>1748.8</ele>
        <time>2021-08-09 13:21:28</time>
      </trkpt>
      <trkpt lat="42.8501" lon="-0.48024">
        <ele>1749</ele>
        <time>2021-08-09 13:21:29</time>
      </trkpt>
      <trkpt lat="42.8501" lon="-0.48025">
        <ele>1749.4</ele>
        <time>2021-08-09 13:21:30</time>
      </trkpt>
      <trkpt lat="42.8501" lon="-0.48026">
        <ele>1749.8</ele>
        <time>2021-08-09 13:21:31</time>
      </trkpt>
      <trkpt lat="42.85011" lon="-0.48027">
        <ele>1749.8</ele>
        <time>2021-08-09 13:21:32</time>
      </trkpt>
      <trkpt lat="42.8501" lon="-0.48028">
        <ele>1749.8</ele>
        <time>2021-08-09 13:21:33</time>
      </trkpt>
      <trkpt lat="42.8501" lon="-0.48028">
        <ele>1749.6</ele>
        <time>2021-08-09 13:21:34</time>
      </trkpt>
      <trkpt lat="42.8501" lon="-0.48029">
        <ele>1750</ele>
        <time>2021-08-09 13:21:35</time>
      </trkpt>
      <trkpt lat="42.8501" lon="-0.48029">
        <ele>1750</ele>
        <time>2021-08-09 13:21:36</time>
      </trkpt>
      <trkpt lat="42.8501" lon="-0.4803">
        <ele>1750.4</ele>
        <time>2021-08-09 13:21:37</time>
      </trkpt>
      <trkpt lat="42.8501" lon="-0.4803">
        <ele>1750.6</ele>
        <time>2021-08-09 13:21:38</time>
      </trkpt>
      <trkpt lat="42.85011" lon="-0.48031">
        <ele>1750.8</ele>
        <time>2021-08-09 13:21:39</time>
      </trkpt>
      <trkpt lat="42.85011" lon="-0.48032">
        <ele>1751</ele>
        <time>2021-08-09 13:21:40</time>
      </trkpt>
      <trkpt lat="42.85011" lon="-0.48033">
        <ele>1751</ele>
        <time>2021-08-09 13:21:41</time>
      </trkpt>
      <trkpt lat="42.8501" lon="-0.48033">
        <ele>1751</ele>
        <time>2021-08-09 13:21:47</time>
      </trkpt>
      <trkpt lat="42.8501" lon="-0.48033">
        <ele>1751</ele>
        <time>2021-08-09 13:21:48</time>
      </trkpt>
      <trkpt lat="42.8501" lon="-0.48033">
        <ele>1751.6</ele>
        <time>2021-08-09 13:21:49</time>
      </trkpt>
      <trkpt lat="42.8501" lon="-0.48032">
        <ele>1752</ele>
        <time>2021-08-09 13:21:54</time>
      </trkpt>
      <trkpt lat="42.8501" lon="-0.48032">
        <ele>1752</ele>
        <time>2021-08-09 13:21:55</time>
      </trkpt>
      <trkpt lat="42.8501" lon="-0.48031">
        <ele>1752</ele>
        <time>2021-08-09 13:21:56</time>
      </trkpt>
      <trkpt lat="42.8501" lon="-0.48031">
        <ele>1752.2</ele>
        <time>2021-08-09 13:21:57</time>
      </trkpt>
      <trkpt lat="42.8501" lon="-0.48031">
        <ele>1752.4</ele>
        <time>2021-08-09 13:22:34</time>
      </trkpt>
      <trkpt lat="42.8501" lon="-0.48031">
        <ele>1752.6</ele>
        <time>2021-08-09 13:22:35</time>
      </trkpt>
      <trkpt lat="42.85011" lon="-0.4803">
        <ele>1752.6</ele>
        <time>2021-08-09 13:22:36</time>
      </trkpt>
      <trkpt lat="42.85011" lon="-0.4803">
        <ele>1752.6</ele>
        <time>2021-08-09 13:22:37</time>
      </trkpt>
      <trkpt lat="42.85011" lon="-0.48029">
        <ele>1752.8</ele>
        <time>2021-08-09 13:22:38</time>
      </trkpt>
      <trkpt lat="42.85012" lon="-0.48029">
        <ele>1753</ele>
        <time>2021-08-09 13:22:39</time>
      </trkpt>
      <trkpt lat="42.85012" lon="-0.48028">
        <ele>1753</ele>
        <time>2021-08-09 13:22:40</time>
      </trkpt>
      <trkpt lat="42.85012" lon="-0.48028">
        <ele>1753</ele>
        <time>2021-08-09 13:22:41</time>
      </trkpt>
      <trkpt lat="42.85013" lon="-0.48027">
        <ele>1753.2</ele>
        <time>2021-08-09 13:22:42</time>
      </trkpt>
      <trkpt lat="42.85013" lon="-0.48027">
        <ele>1753.8</ele>
        <time>2021-08-09 13:22:43</time>
      </trkpt>
      <trkpt lat="42.85013" lon="-0.48027">
        <ele>1754</ele>
        <time>2021-08-09 13:22:44</time>
      </trkpt>
      <trkpt lat="42.85013" lon="-0.48026">
        <ele>1754</ele>
        <time>2021-08-09 13:22:45</time>
      </trkpt>
      <trkpt lat="42.85014" lon="-0.48024">
        <ele>1754.2</ele>
        <time>2021-08-09 13:22:46</time>
      </trkpt>
      <trkpt lat="42.85015" lon="-0.48024">
        <ele>1754.4</ele>
        <time>2021-08-09 13:22:47</time>
      </trkpt>
      <trkpt lat="42.85016" lon="-0.48023">
        <ele>1754.4</ele>
        <time>2021-08-09 13:22:48</time>
      </trkpt>
      <trkpt lat="42.85016" lon="-0.48023">
        <ele>1754.4</ele>
        <time>2021-08-09 13:22:49</time>
      </trkpt>
      <trkpt lat="42.85016" lon="-0.48022">
        <ele>1754.4</ele>
        <time>2021-08-09 13:22:52</time>
      </trkpt>
      <trkpt lat="42.85017" lon="-0.48022">
        <ele>1754.8</ele>
        <time>2021-08-09 13:22:53</time>
      </trkpt>
      <trkpt lat="42.85018" lon="-0.48022">
        <ele>1754.4</ele>
        <time>2021-08-09 13:22:54</time>
      </trkpt>
      <trkpt lat="42.85019" lon="-0.48021">
        <ele>1754.6</ele>
        <time>2021-08-09 13:22:55</time>
      </trkpt>
      <trkpt lat="42.85019" lon="-0.48021">
        <ele>1755</ele>
        <time>2021-08-09 13:22:56</time>
      </trkpt>
      <trkpt lat="42.8502" lon="-0.4802">
        <ele>1755.6</ele>
        <time>2021-08-09 13:22:57</time>
      </trkpt>
      <trkpt lat="42.8502" lon="-0.48019">
        <ele>1755.4</ele>
        <time>2021-08-09 13:22:58</time>
      </trkpt>
      <trkpt lat="42.8502" lon="-0.48019">
        <ele>1755.8</ele>
        <time>2021-08-09 13:22:59</time>
      </trkpt>
      <trkpt lat="42.85021" lon="-0.48018">
        <ele>1755.4</ele>
        <time>2021-08-09 13:23:00</time>
      </trkpt>
      <trkpt lat="42.85021" lon="-0.48018">
        <ele>1755.4</ele>
        <time>2021-08-09 13:23:01</time>
      </trkpt>
      <trkpt lat="42.85022" lon="-0.48018">
        <ele>1755.6</ele>
        <time>2021-08-09 13:23:02</time>
      </trkpt>
      <trkpt lat="42.85022" lon="-0.48018">
        <ele>1755.8</ele>
        <time>2021-08-09 13:23:03</time>
      </trkpt>
      <trkpt lat="42.85023" lon="-0.48018">
        <ele>1756</ele>
        <time>2021-08-09 13:23:04</time>
      </trkpt>
      <trkpt lat="42.85023" lon="-0.48018">
        <ele>1756.2</ele>
        <time>2021-08-09 13:23:05</time>
      </trkpt>
      <trkpt lat="42.85024" lon="-0.48017">
        <ele>1756.4</ele>
        <time>2021-08-09 13:23:06</time>
      </trkpt>
      <trkpt lat="42.85024" lon="-0.48017">
        <ele>1756.6</ele>
        <time>2021-08-09 13:23:07</time>
      </trkpt>
      <trkpt lat="42.85024" lon="-0.48017">
        <ele>1756.8</ele>
        <time>2021-08-09 13:23:08</time>
      </trkpt>
      <trkpt lat="42.85025" lon="-0.48017">
        <ele>1757</ele>
        <time>2021-08-09 13:23:09</time>
      </trkpt>
      <trkpt lat="42.85025" lon="-0.48016">
        <ele>1757.4</ele>
        <time>2021-08-09 13:23:12</time>
      </trkpt>
      <trkpt lat="42.85026" lon="-0.48016">
        <ele>1757.4</ele>
        <time>2021-08-09 13:23:13</time>
      </trkpt>
      <trkpt lat="42.85026" lon="-0.48016">
        <ele>1757.6</ele>
        <time>2021-08-09 13:23:14</time>
      </trkpt>
      <trkpt lat="42.85027" lon="-0.48016">
        <ele>1757.4</ele>
        <time>2021-08-09 13:23:15</time>
      </trkpt>
      <trkpt lat="42.85027" lon="-0.48016">
        <ele>1757.6</ele>
        <time>2021-08-09 13:23:16</time>
      </trkpt>
      <trkpt lat="42.85028" lon="-0.48017">
        <ele>1757.8</ele>
        <time>2021-08-09 13:23:17</time>
      </trkpt>
      <trkpt lat="42.85028" lon="-0.48018">
        <ele>1758.2</ele>
        <time>2021-08-09 13:23:18</time>
      </trkpt>
      <trkpt lat="42.85028" lon="-0.48019">
        <ele>1757.8</ele>
        <time>2021-08-09 13:23:19</time>
      </trkpt>
      <trkpt lat="42.85028" lon="-0.48019">
        <ele>1758</ele>
        <time>2021-08-09 13:23:20</time>
      </trkpt>
      <trkpt lat="42.85028" lon="-0.4802">
        <ele>1758</ele>
        <time>2021-08-09 13:23:21</time>
      </trkpt>
      <trkpt lat="42.85028" lon="-0.4802">
        <ele>1758</ele>
        <time>2021-08-09 13:23:22</time>
      </trkpt>
      <trkpt lat="42.85028" lon="-0.48021">
        <ele>1758.2</ele>
        <time>2021-08-09 13:23:23</time>
      </trkpt>
      <trkpt lat="42.85028" lon="-0.48022">
        <ele>1758.4</ele>
        <time>2021-08-09 13:23:24</time>
      </trkpt>
      <trkpt lat="42.85028" lon="-0.48022">
        <ele>1758.6</ele>
        <time>2021-08-09 13:23:25</time>
      </trkpt>
      <trkpt lat="42.85028" lon="-0.48023">
        <ele>1758.6</ele>
        <time>2021-08-09 13:23:26</time>
      </trkpt>
      <trkpt lat="42.85028" lon="-0.48024">
        <ele>1758.6</ele>
        <time>2021-08-09 13:23:27</time>
      </trkpt>
      <trkpt lat="42.85028" lon="-0.48025">
        <ele>1758.8</ele>
        <time>2021-08-09 13:23:28</time>
      </trkpt>
      <trkpt lat="42.85027" lon="-0.48025">
        <ele>1759</ele>
        <time>2021-08-09 13:23:29</time>
      </trkpt>
      <trkpt lat="42.85026" lon="-0.48025">
        <ele>1760</ele>
        <time>2021-08-09 13:23:30</time>
      </trkpt>
      <trkpt lat="42.85026" lon="-0.48026">
        <ele>1759.4</ele>
        <time>2021-08-09 13:23:31</time>
      </trkpt>
      <trkpt lat="42.85025" lon="-0.48026">
        <ele>1759.2</ele>
        <time>2021-08-09 13:23:32</time>
      </trkpt>
      <trkpt lat="42.85025" lon="-0.48027">
        <ele>1759.2</ele>
        <time>2021-08-09 13:23:33</time>
      </trkpt>
      <trkpt lat="42.85025" lon="-0.48028">
        <ele>1759.4</ele>
        <time>2021-08-09 13:23:34</time>
      </trkpt>
      <trkpt lat="42.85025" lon="-0.4803">
        <ele>1760</ele>
        <time>2021-08-09 13:23:35</time>
      </trkpt>
      <trkpt lat="42.85025" lon="-0.48031">
        <ele>1760.4</ele>
        <time>2021-08-09 13:23:36</time>
      </trkpt>
      <trkpt lat="42.85025" lon="-0.48032">
        <ele>1759.6</ele>
        <time>2021-08-09 13:23:37</time>
      </trkpt>
      <trkpt lat="42.85025" lon="-0.48033">
        <ele>1759.8</ele>
        <time>2021-08-09 13:23:38</time>
      </trkpt>
      <trkpt lat="42.85024" lon="-0.48033">
        <ele>1760.2</ele>
        <time>2021-08-09 13:23:39</time>
      </trkpt>
      <trkpt lat="42.85024" lon="-0.48034">
        <ele>1760.4</ele>
        <time>2021-08-09 13:23:40</time>
      </trkpt>
      <trkpt lat="42.85023" lon="-0.48035">
        <ele>1760.6</ele>
        <time>2021-08-09 13:23:41</time>
      </trkpt>
      <trkpt lat="42.85022" lon="-0.48036">
        <ele>1760.8</ele>
        <time>2021-08-09 13:23:42</time>
      </trkpt>
      <trkpt lat="42.85022" lon="-0.48037">
        <ele>1760.8</ele>
        <time>2021-08-09 13:23:43</time>
      </trkpt>
      <trkpt lat="42.85022" lon="-0.48038">
        <ele>1761</ele>
        <time>2021-08-09 13:23:44</time>
      </trkpt>
      <trkpt lat="42.85021" lon="-0.48038">
        <ele>1760.8</ele>
        <time>2021-08-09 13:23:45</time>
      </trkpt>
      <trkpt lat="42.85021" lon="-0.48038">
        <ele>1760.8</ele>
        <time>2021-08-09 13:23:46</time>
      </trkpt>
      <trkpt lat="42.8502" lon="-0.48039">
        <ele>1760.8</ele>
        <time>2021-08-09 13:23:47</time>
      </trkpt>
      <trkpt lat="42.8502" lon="-0.48039">
        <ele>1760.8</ele>
        <time>2021-08-09 13:23:48</time>
      </trkpt>
      <trkpt lat="42.85019" lon="-0.48039">
        <ele>1761</ele>
        <time>2021-08-09 13:23:49</time>
      </trkpt>
      <trkpt lat="42.85019" lon="-0.48039">
        <ele>1761.2</ele>
        <time>2021-08-09 13:23:50</time>
      </trkpt>
      <trkpt lat="42.85019" lon="-0.48039">
        <ele>1761.2</ele>
        <time>2021-08-09 13:23:51</time>
      </trkpt>
      <trkpt lat="42.85019" lon="-0.4804">
        <ele>1761</ele>
        <time>2021-08-09 13:23:52</time>
      </trkpt>
      <trkpt lat="42.85019" lon="-0.48041">
        <ele>1761.2</ele>
        <time>2021-08-09 13:23:53</time>
      </trkpt>
      <trkpt lat="42.85019" lon="-0.48042">
        <ele>1761.4</ele>
        <time>2021-08-09 13:23:54</time>
      </trkpt>
      <trkpt lat="42.8502" lon="-0.48042">
        <ele>1761.8</ele>
        <time>2021-08-09 13:23:55</time>
      </trkpt>
      <trkpt lat="42.8502" lon="-0.48043">
        <ele>1761.6</ele>
        <time>2021-08-09 13:23:56</time>
      </trkpt>
      <trkpt lat="42.85019" lon="-0.48043">
        <ele>1761.6</ele>
        <time>2021-08-09 13:23:57</time>
      </trkpt>
      <trkpt lat="42.85019" lon="-0.48044">
        <ele>1761.8</ele>
        <time>2021-08-09 13:23:58</time>
      </trkpt>
      <trkpt lat="42.85019" lon="-0.48046">
        <ele>1762</ele>
        <time>2021-08-09 13:23:59</time>
      </trkpt>
      <trkpt lat="42.85019" lon="-0.48046">
        <ele>1762.4</ele>
        <time>2021-08-09 13:24:00</time>
      </trkpt>
      <trkpt lat="42.85019" lon="-0.48047">
        <ele>1762.4</ele>
        <time>2021-08-09 13:24:01</time>
      </trkpt>
      <trkpt lat="42.85019" lon="-0.48048">
        <ele>1762.6</ele>
        <time>2021-08-09 13:24:02</time>
      </trkpt>
      <trkpt lat="42.85019" lon="-0.48048">
        <ele>1762.6</ele>
        <time>2021-08-09 13:24:03</time>
      </trkpt>
      <trkpt lat="42.85019" lon="-0.48049">
        <ele>1762.6</ele>
        <time>2021-08-09 13:24:04</time>
      </trkpt>
      <trkpt lat="42.8502" lon="-0.4805">
        <ele>1762.8</ele>
        <time>2021-08-09 13:24:05</time>
      </trkpt>
      <trkpt lat="42.8502" lon="-0.48051">
        <ele>1762.8</ele>
        <time>2021-08-09 13:24:06</time>
      </trkpt>
      <trkpt lat="42.8502" lon="-0.48052">
        <ele>1763.2</ele>
        <time>2021-08-09 13:24:07</time>
      </trkpt>
      <trkpt lat="42.8502" lon="-0.48053">
        <ele>1763.2</ele>
        <time>2021-08-09 13:24:08</time>
      </trkpt>
      <trkpt lat="42.85021" lon="-0.48054">
        <ele>1763.4</ele>
        <time>2021-08-09 13:24:09</time>
      </trkpt>
      <trkpt lat="42.85021" lon="-0.48055">
        <ele>1763.6</ele>
        <time>2021-08-09 13:24:10</time>
      </trkpt>
      <trkpt lat="42.85022" lon="-0.48056">
        <ele>1763.8</ele>
        <time>2021-08-09 13:24:11</time>
      </trkpt>
      <trkpt lat="42.85022" lon="-0.48057">
        <ele>1763.8</ele>
        <time>2021-08-09 13:24:12</time>
      </trkpt>
      <trkpt lat="42.85022" lon="-0.48058">
        <ele>1763.8</ele>
        <time>2021-08-09 13:24:13</time>
      </trkpt>
      <trkpt lat="42.85022" lon="-0.4806">
        <ele>1763.6</ele>
        <time>2021-08-09 13:24:14</time>
      </trkpt>
      <trkpt lat="42.85023" lon="-0.4806">
        <ele>1764.2</ele>
        <time>2021-08-09 13:24:15</time>
      </trkpt>
      <trkpt lat="42.85023" lon="-0.48059">
        <ele>1764.2</ele>
        <time>2021-08-09 13:24:16</time>
      </trkpt>
      <trkpt lat="42.85022" lon="-0.48058">
        <ele>1764.2</ele>
        <time>2021-08-09 13:24:17</time>
      </trkpt>
      <trkpt lat="42.85023" lon="-0.48058">
        <ele>1763.2</ele>
        <time>2021-08-09 13:24:18</time>
      </trkpt>
      <trkpt lat="42.85023" lon="-0.48059">
        <ele>1763.4</ele>
        <time>2021-08-09 13:24:19</time>
      </trkpt>
      <trkpt lat="42.85024" lon="-0.4806">
        <ele>1764</ele>
        <time>2021-08-09 13:24:20</time>
      </trkpt>
      <trkpt lat="42.85024" lon="-0.4806">
        <ele>1764.2</ele>
        <time>2021-08-09 13:24:21</time>
      </trkpt>
      <trkpt lat="42.85024" lon="-0.48061">
        <ele>1764.4</ele>
        <time>2021-08-09 13:24:22</time>
      </trkpt>
      <trkpt lat="42.85023" lon="-0.48061">
        <ele>1764.6</ele>
        <time>2021-08-09 13:24:23</time>
      </trkpt>
      <trkpt lat="42.85022" lon="-0.48062">
        <ele>1764.8</ele>
        <time>2021-08-09 13:24:24</time>
      </trkpt>
      <trkpt lat="42.85021" lon="-0.48064">
        <ele>1764.8</ele>
        <time>2021-08-09 13:24:25</time>
      </trkpt>
      <trkpt lat="42.85021" lon="-0.48065">
        <ele>1765</ele>
        <time>2021-08-09 13:24:26</time>
      </trkpt>
      <trkpt lat="42.85021" lon="-0.48066">
        <ele>1765.2</ele>
        <time>2021-08-09 13:24:27</time>
      </trkpt>
      <trkpt lat="42.8502" lon="-0.48067">
        <ele>1765</ele>
        <time>2021-08-09 13:24:28</time>
      </trkpt>
      <trkpt lat="42.8502" lon="-0.48068">
        <ele>1765.2</ele>
        <time>2021-08-09 13:24:29</time>
      </trkpt>
      <trkpt lat="42.8502" lon="-0.48069">
        <ele>1765.6</ele>
        <time>2021-08-09 13:24:30</time>
      </trkpt>
      <trkpt lat="42.85019" lon="-0.4807">
        <ele>1765.8</ele>
        <time>2021-08-09 13:24:31</time>
      </trkpt>
      <trkpt lat="42.85019" lon="-0.4807">
        <ele>1765.8</ele>
        <time>2021-08-09 13:24:32</time>
      </trkpt>
      <trkpt lat="42.85019" lon="-0.48071">
        <ele>1765.6</ele>
        <time>2021-08-09 13:24:33</time>
      </trkpt>
      <trkpt lat="42.85018" lon="-0.48072">
        <ele>1766</ele>
        <time>2021-08-09 13:24:34</time>
      </trkpt>
      <trkpt lat="42.85018" lon="-0.48073">
        <ele>1766.4</ele>
        <time>2021-08-09 13:24:35</time>
      </trkpt>
      <trkpt lat="42.85018" lon="-0.48074">
        <ele>1766.8</ele>
        <time>2021-08-09 13:24:36</time>
      </trkpt>
      <trkpt lat="42.85018" lon="-0.48074">
        <ele>1767</ele>
        <time>2021-08-09 13:24:37</time>
      </trkpt>
      <trkpt lat="42.85018" lon="-0.48075">
        <ele>1767.2</ele>
        <time>2021-08-09 13:24:38</time>
      </trkpt>
      <trkpt lat="42.85018" lon="-0.48076">
        <ele>1767</ele>
        <time>2021-08-09 13:24:39</time>
      </trkpt>
      <trkpt lat="42.85018" lon="-0.48076">
        <ele>1767.2</ele>
        <time>2021-08-09 13:24:40</time>
      </trkpt>
      <trkpt lat="42.85018" lon="-0.48077">
        <ele>1767.2</ele>
        <time>2021-08-09 13:24:41</time>
      </trkpt>
      <trkpt lat="42.85018" lon="-0.48077">
        <ele>1767.4</ele>
        <time>2021-08-09 13:24:42</time>
      </trkpt>
      <trkpt lat="42.85019" lon="-0.48077">
        <ele>1767.4</ele>
        <time>2021-08-09 13:24:43</time>
      </trkpt>
      <trkpt lat="42.85019" lon="-0.48078">
        <ele>1767.6</ele>
        <time>2021-08-09 13:24:44</time>
      </trkpt>
      <trkpt lat="42.85018" lon="-0.48078">
        <ele>1767.6</ele>
        <time>2021-08-09 13:24:45</time>
      </trkpt>
      <trkpt lat="42.85018" lon="-0.48079">
        <ele>1767.6</ele>
        <time>2021-08-09 13:24:46</time>
      </trkpt>
      <trkpt lat="42.85018" lon="-0.4808">
        <ele>1767.6</ele>
        <time>2021-08-09 13:24:47</time>
      </trkpt>
      <trkpt lat="42.85018" lon="-0.48081">
        <ele>1767.8</ele>
        <time>2021-08-09 13:24:48</time>
      </trkpt>
      <trkpt lat="42.85018" lon="-0.48082">
        <ele>1768</ele>
        <time>2021-08-09 13:24:49</time>
      </trkpt>
      <trkpt lat="42.85018" lon="-0.48082">
        <ele>1768.2</ele>
        <time>2021-08-09 13:24:50</time>
      </trkpt>
      <trkpt lat="42.85018" lon="-0.48082">
        <ele>1768.2</ele>
        <time>2021-08-09 13:24:51</time>
      </trkpt>
      <trkpt lat="42.85018" lon="-0.48083">
        <ele>1768.4</ele>
        <time>2021-08-09 13:24:54</time>
      </trkpt>
      <trkpt lat="42.85018" lon="-0.48083">
        <ele>1768.6</ele>
        <time>2021-08-09 13:24:55</time>
      </trkpt>
      <trkpt lat="42.85018" lon="-0.48084">
        <ele>1768.8</ele>
        <time>2021-08-09 13:24:56</time>
      </trkpt>
      <trkpt lat="42.85018" lon="-0.48084">
        <ele>1768.8</ele>
        <time>2021-08-09 13:24:57</time>
      </trkpt>
      <trkpt lat="42.85017" lon="-0.48085">
        <ele>1769</ele>
        <time>2021-08-09 13:24:58</time>
      </trkpt>
      <trkpt lat="42.85017" lon="-0.48085">
        <ele>1769</ele>
        <time>2021-08-09 13:24:59</time>
      </trkpt>
      <trkpt lat="42.85017" lon="-0.48086">
        <ele>1769</ele>
        <time>2021-08-09 13:25:00</time>
      </trkpt>
      <trkpt lat="42.85016" lon="-0.48086">
        <ele>1769.4</ele>
        <time>2021-08-09 13:25:01</time>
      </trkpt>
      <trkpt lat="42.85015" lon="-0.48086">
        <ele>1769.4</ele>
        <time>2021-08-09 13:25:02</time>
      </trkpt>
      <trkpt lat="42.85015" lon="-0.48087">
        <ele>1769.4</ele>
        <time>2021-08-09 13:25:03</time>
      </trkpt>
      <trkpt lat="42.85015" lon="-0.48087">
        <ele>1769.4</ele>
        <time>2021-08-09 13:25:04</time>
      </trkpt>
      <trkpt lat="42.85015" lon="-0.48087">
        <ele>1769.6</ele>
        <time>2021-08-09 13:25:05</time>
      </trkpt>
      <trkpt lat="42.85015" lon="-0.48087">
        <ele>1769.8</ele>
        <time>2021-08-09 13:25:06</time>
      </trkpt>
      <trkpt lat="42.85014" lon="-0.48088">
        <ele>1770</ele>
        <time>2021-08-09 13:25:07</time>
      </trkpt>
      <trkpt lat="42.85014" lon="-0.48088">
        <ele>1769.8</ele>
        <time>2021-08-09 13:25:08</time>
      </trkpt>
      <trkpt lat="42.85014" lon="-0.48088">
        <ele>1769.8</ele>
        <time>2021-08-09 13:25:09</time>
      </trkpt>
      <trkpt lat="42.85015" lon="-0.48088">
        <ele>1769.6</ele>
        <time>2021-08-09 13:25:10</time>
      </trkpt>
      <trkpt lat="42.85015" lon="-0.48088">
        <ele>1769.8</ele>
        <time>2021-08-09 13:25:11</time>
      </trkpt>
      <trkpt lat="42.85015" lon="-0.48088">
        <ele>1769.8</ele>
        <time>2021-08-09 13:25:12</time>
      </trkpt>
      <trkpt lat="42.85016" lon="-0.48088">
        <ele>1770</ele>
        <time>2021-08-09 13:25:13</time>
      </trkpt>
      <trkpt lat="42.85016" lon="-0.48088">
        <ele>1770.4</ele>
        <time>2021-08-09 13:25:14</time>
      </trkpt>
      <trkpt lat="42.85017" lon="-0.48089">
        <ele>1770.4</ele>
        <time>2021-08-09 13:25:15</time>
      </trkpt>
      <trkpt lat="42.85017" lon="-0.48089">
        <ele>1770.6</ele>
        <time>2021-08-09 13:25:16</time>
      </trkpt>
      <trkpt lat="42.85017" lon="-0.4809">
        <ele>1770.8</ele>
        <time>2021-08-09 13:25:17</time>
      </trkpt>
      <trkpt lat="42.85017" lon="-0.4809">
        <ele>1771</ele>
        <time>2021-08-09 13:25:18</time>
      </trkpt>
      <trkpt lat="42.85016" lon="-0.4809">
        <ele>1771.2</ele>
        <time>2021-08-09 13:25:19</time>
      </trkpt>
      <trkpt lat="42.85016" lon="-0.48091">
        <ele>1771.4</ele>
        <time>2021-08-09 13:25:20</time>
      </trkpt>
      <trkpt lat="42.85015" lon="-0.48091">
        <ele>1771.6</ele>
        <time>2021-08-09 13:25:21</time>
      </trkpt>
      <trkpt lat="42.85015" lon="-0.48092">
        <ele>1771.6</ele>
        <time>2021-08-09 13:25:22</time>
      </trkpt>
      <trkpt lat="42.85014" lon="-0.48093">
        <ele>1771.8</ele>
        <time>2021-08-09 13:25:23</time>
      </trkpt>
      <trkpt lat="42.85014" lon="-0.48093">
        <ele>1771.8</ele>
        <time>2021-08-09 13:25:24</time>
      </trkpt>
      <trkpt lat="42.85014" lon="-0.48094">
        <ele>1772.2</ele>
        <time>2021-08-09 13:25:25</time>
      </trkpt>
      <trkpt lat="42.85013" lon="-0.48094">
        <ele>1772.4</ele>
        <time>2021-08-09 13:25:26</time>
      </trkpt>
      <trkpt lat="42.85014" lon="-0.48094">
        <ele>1772.8</ele>
        <time>2021-08-09 13:25:27</time>
      </trkpt>
      <trkpt lat="42.85014" lon="-0.48094">
        <ele>1772.8</ele>
        <time>2021-08-09 13:25:28</time>
      </trkpt>
      <trkpt lat="42.85013" lon="-0.48095">
        <ele>1772.8</ele>
        <time>2021-08-09 13:25:29</time>
      </trkpt>
      <trkpt lat="42.85014" lon="-0.48096">
        <ele>1772.8</ele>
        <time>2021-08-09 13:25:30</time>
      </trkpt>
      <trkpt lat="42.85014" lon="-0.48097">
        <ele>1773</ele>
        <time>2021-08-09 13:25:31</time>
      </trkpt>
      <trkpt lat="42.85014" lon="-0.48097">
        <ele>1773.2</ele>
        <time>2021-08-09 13:25:32</time>
      </trkpt>
      <trkpt lat="42.85014" lon="-0.48097">
        <ele>1773.4</ele>
        <time>2021-08-09 13:25:33</time>
      </trkpt>
      <trkpt lat="42.85014" lon="-0.48097">
        <ele>1773.6</ele>
        <time>2021-08-09 13:25:34</time>
      </trkpt>
      <trkpt lat="42.85014" lon="-0.48097">
        <ele>1773.6</ele>
        <time>2021-08-09 13:25:35</time>
      </trkpt>
      <trkpt lat="42.85014" lon="-0.48098">
        <ele>1773.8</ele>
        <time>2021-08-09 13:25:36</time>
      </trkpt>
      <trkpt lat="42.85015" lon="-0.48098">
        <ele>1773.8</ele>
        <time>2021-08-09 13:25:37</time>
      </trkpt>
      <trkpt lat="42.85015" lon="-0.48099">
        <ele>1774</ele>
        <time>2021-08-09 13:25:38</time>
      </trkpt>
      <trkpt lat="42.85015" lon="-0.48099">
        <ele>1774.4</ele>
        <time>2021-08-09 13:25:39</time>
      </trkpt>
      <trkpt lat="42.85016" lon="-0.481">
        <ele>1774.2</ele>
        <time>2021-08-09 13:25:40</time>
      </trkpt>
      <trkpt lat="42.85016" lon="-0.481">
        <ele>1774.2</ele>
        <time>2021-08-09 13:25:41</time>
      </trkpt>
      <trkpt lat="42.85016" lon="-0.481">
        <ele>1774.4</ele>
        <time>2021-08-09 13:25:42</time>
      </trkpt>
      <trkpt lat="42.85017" lon="-0.48101">
        <ele>1774.6</ele>
        <time>2021-08-09 13:25:43</time>
      </trkpt>
      <trkpt lat="42.85017" lon="-0.48102">
        <ele>1774.6</ele>
        <time>2021-08-09 13:25:44</time>
      </trkpt>
      <trkpt lat="42.85016" lon="-0.48103">
        <ele>1775</ele>
        <time>2021-08-09 13:25:45</time>
      </trkpt>
      <trkpt lat="42.85016" lon="-0.48105">
        <ele>1775.2</ele>
        <time>2021-08-09 13:25:46</time>
      </trkpt>
      <trkpt lat="42.85016" lon="-0.48106">
        <ele>1775.2</ele>
        <time>2021-08-09 13:25:47</time>
      </trkpt>
      <trkpt lat="42.85016" lon="-0.48106">
        <ele>1775.4</ele>
        <time>2021-08-09 13:25:48</time>
      </trkpt>
      <trkpt lat="42.85015" lon="-0.48106">
        <ele>1775.6</ele>
        <time>2021-08-09 13:25:49</time>
      </trkpt>
      <trkpt lat="42.85015" lon="-0.48105">
        <ele>1775.8</ele>
        <time>2021-08-09 13:25:50</time>
      </trkpt>
      <trkpt lat="42.85014" lon="-0.48105">
        <ele>1776</ele>
        <time>2021-08-09 13:25:51</time>
      </trkpt>
      <trkpt lat="42.85013" lon="-0.48104">
        <ele>1776.2</ele>
        <time>2021-08-09 13:25:52</time>
      </trkpt>
      <trkpt lat="42.85012" lon="-0.48104">
        <ele>1776.2</ele>
        <time>2021-08-09 13:25:53</time>
      </trkpt>
      <trkpt lat="42.85012" lon="-0.48103">
        <ele>1776.4</ele>
        <time>2021-08-09 13:25:54</time>
      </trkpt>
      <trkpt lat="42.85011" lon="-0.48103">
        <ele>1776.4</ele>
        <time>2021-08-09 13:25:55</time>
      </trkpt>
      <trkpt lat="42.85011" lon="-0.48102">
        <ele>1776.4</ele>
        <time>2021-08-09 13:25:56</time>
      </trkpt>
      <trkpt lat="42.8501" lon="-0.48102">
        <ele>1776.4</ele>
        <time>2021-08-09 13:25:57</time>
      </trkpt>
      <trkpt lat="42.85009" lon="-0.48103">
        <ele>1776.4</ele>
        <time>2021-08-09 13:25:58</time>
      </trkpt>
      <trkpt lat="42.85009" lon="-0.48103">
        <ele>1776.6</ele>
        <time>2021-08-09 13:25:59</time>
      </trkpt>
      <trkpt lat="42.85009" lon="-0.48104">
        <ele>1776.8</ele>
        <time>2021-08-09 13:26:00</time>
      </trkpt>
      <trkpt lat="42.85008" lon="-0.48104">
        <ele>1777</ele>
        <time>2021-08-09 13:26:01</time>
      </trkpt>
      <trkpt lat="42.85008" lon="-0.48105">
        <ele>1777.2</ele>
        <time>2021-08-09 13:26:03</time>
      </trkpt>
      <trkpt lat="42.85008" lon="-0.48105">
        <ele>1777.6</ele>
        <time>2021-08-09 13:26:04</time>
      </trkpt>
      <trkpt lat="42.85008" lon="-0.48106">
        <ele>1777.8</ele>
        <time>2021-08-09 13:26:05</time>
      </trkpt>
      <trkpt lat="42.85008" lon="-0.48107">
        <ele>1778</ele>
        <time>2021-08-09 13:26:06</time>
      </trkpt>
      <trkpt lat="42.85007" lon="-0.48107">
        <ele>1778</ele>
        <time>2021-08-09 13:26:07</time>
      </trkpt>
      <trkpt lat="42.85007" lon="-0.48107">
        <ele>1778</ele>
        <time>2021-08-09 13:26:19</time>
      </trkpt>
      <trkpt lat="42.85006" lon="-0.48109">
        <ele>1778.2</ele>
        <time>2021-08-09 13:26:20</time>
      </trkpt>
      <trkpt lat="42.85006" lon="-0.48109">
        <ele>1778.6</ele>
        <time>2021-08-09 13:26:21</time>
      </trkpt>
      <trkpt lat="42.85005" lon="-0.48109">
        <ele>1779</ele>
        <time>2021-08-09 13:26:22</time>
      </trkpt>
      <trkpt lat="42.85005" lon="-0.4811">
        <ele>1779.2</ele>
        <time>2021-08-09 13:26:23</time>
      </trkpt>
      <trkpt lat="42.85005" lon="-0.4811">
        <ele>1779.4</ele>
        <time>2021-08-09 13:26:24</time>
      </trkpt>
      <trkpt lat="42.85005" lon="-0.4811">
        <ele>1779.4</ele>
        <time>2021-08-09 13:26:25</time>
      </trkpt>
      <trkpt lat="42.85003" lon="-0.4811">
        <ele>1779.8</ele>
        <time>2021-08-09 13:26:26</time>
      </trkpt>
      <trkpt lat="42.85003" lon="-0.4811">
        <ele>1780</ele>
        <time>2021-08-09 13:26:27</time>
      </trkpt>
      <trkpt lat="42.85002" lon="-0.48109">
        <ele>1779.8</ele>
        <time>2021-08-09 13:26:28</time>
      </trkpt>
      <trkpt lat="42.85002" lon="-0.4811">
        <ele>1780</ele>
        <time>2021-08-09 13:26:29</time>
      </trkpt>
      <trkpt lat="42.85001" lon="-0.48111">
        <ele>1780</ele>
        <time>2021-08-09 13:26:30</time>
      </trkpt>
      <trkpt lat="42.85001" lon="-0.48112">
        <ele>1780</ele>
        <time>2021-08-09 13:26:31</time>
      </trkpt>
      <trkpt lat="42.85001" lon="-0.48113">
        <ele>1780</ele>
        <time>2021-08-09 13:26:32</time>
      </trkpt>
      <trkpt lat="42.85001" lon="-0.48114">
        <ele>1780.4</ele>
        <time>2021-08-09 13:26:33</time>
      </trkpt>
      <trkpt lat="42.85001" lon="-0.48115">
        <ele>1780.6</ele>
        <time>2021-08-09 13:26:34</time>
      </trkpt>
      <trkpt lat="42.85" lon="-0.48115">
        <ele>1780.8</ele>
        <time>2021-08-09 13:26:35</time>
      </trkpt>
      <trkpt lat="42.85" lon="-0.48116">
        <ele>1781</ele>
        <time>2021-08-09 13:26:36</time>
      </trkpt>
      <trkpt lat="42.85" lon="-0.48117">
        <ele>1780.8</ele>
        <time>2021-08-09 13:26:37</time>
      </trkpt>
      <trkpt lat="42.84999" lon="-0.48119">
        <ele>1781.2</ele>
        <time>2021-08-09 13:26:38</time>
      </trkpt>
      <trkpt lat="42.84999" lon="-0.4812">
        <ele>1781.6</ele>
        <time>2021-08-09 13:26:39</time>
      </trkpt>
      <trkpt lat="42.84999" lon="-0.4812">
        <ele>1781.4</ele>
        <time>2021-08-09 13:26:40</time>
      </trkpt>
      <trkpt lat="42.84999" lon="-0.48121">
        <ele>1781.8</ele>
        <time>2021-08-09 13:26:41</time>
      </trkpt>
      <trkpt lat="42.84999" lon="-0.48122">
        <ele>1781.6</ele>
        <time>2021-08-09 13:26:42</time>
      </trkpt>
      <trkpt lat="42.84999" lon="-0.48123">
        <ele>1782</ele>
        <time>2021-08-09 13:26:43</time>
      </trkpt>
      <trkpt lat="42.84999" lon="-0.48123">
        <ele>1782.2</ele>
        <time>2021-08-09 13:26:44</time>
      </trkpt>
      <trkpt lat="42.84999" lon="-0.48124">
        <ele>1782.4</ele>
        <time>2021-08-09 13:26:45</time>
      </trkpt>
      <trkpt lat="42.84999" lon="-0.48125">
        <ele>1782.6</ele>
        <time>2021-08-09 13:26:46</time>
      </trkpt>
      <trkpt lat="42.84999" lon="-0.48125">
        <ele>1782.6</ele>
        <time>2021-08-09 13:26:49</time>
      </trkpt>
      <trkpt lat="42.84999" lon="-0.48125">
        <ele>1782.6</ele>
        <time>2021-08-09 13:26:50</time>
      </trkpt>
      <trkpt lat="42.84999" lon="-0.48126">
        <ele>1782.8</ele>
        <time>2021-08-09 13:26:51</time>
      </trkpt>
      <trkpt lat="42.85" lon="-0.48126">
        <ele>1783</ele>
        <time>2021-08-09 13:26:52</time>
      </trkpt>
      <trkpt lat="42.85" lon="-0.48127">
        <ele>1783.2</ele>
        <time>2021-08-09 13:26:53</time>
      </trkpt>
      <trkpt lat="42.85" lon="-0.48128">
        <ele>1783.2</ele>
        <time>2021-08-09 13:26:54</time>
      </trkpt>
      <trkpt lat="42.85" lon="-0.48128">
        <ele>1783.4</ele>
        <time>2021-08-09 13:26:55</time>
      </trkpt>
      <trkpt lat="42.85" lon="-0.48129">
        <ele>1783.6</ele>
        <time>2021-08-09 13:26:56</time>
      </trkpt>
      <trkpt lat="42.85" lon="-0.4813">
        <ele>1783.6</ele>
        <time>2021-08-09 13:26:57</time>
      </trkpt>
      <trkpt lat="42.85" lon="-0.4813">
        <ele>1784</ele>
        <time>2021-08-09 13:26:58</time>
      </trkpt>
      <trkpt lat="42.85001" lon="-0.4813">
        <ele>1784</ele>
        <time>2021-08-09 13:26:59</time>
      </trkpt>
      <trkpt lat="42.85001" lon="-0.48131">
        <ele>1784</ele>
      </trkpt>
      <trkpt lat="42.85002" lon="-0.48131">
        <ele>1784.2</ele>
        <time>2021-08-09 13:27:01</time>
      </trkpt>
      <trkpt lat="42.85002" lon="-0.48132">
        <ele>1784.2</ele>
        <time>2021-08-09 13:27:02</time>
      </trkpt>
      <trkpt lat="42.85002" lon="-0.48133">
        <ele>1784.2</ele>
        <time>2021-08-09 13:27:03</time>
      </trkpt>
      <trkpt lat="42.85002" lon="-0.48133">
        <ele>1784.6</ele>
        <time>2021-08-09 13:27:04</time>
      </trkpt>
      <trkpt lat="42.85002" lon="-0.48134">
        <ele>1784.8</ele>
        <time>2021-08-09 13:27:05</time>
      </trkpt>
      <trkpt lat="42.85003" lon="-0.48133">
        <ele>1784.8</ele>
        <time>2021-08-09 13:27:06</time>
      </trkpt>
      <trkpt lat="42.85002" lon="-0.48133">
        <ele>1784.8</ele>
        <time>2021-08-09 13:27:07</time>
      </trkpt>
      <trkpt lat="42.85002" lon="-0.48133">
        <ele>1784.8</ele>
        <time>2021-08-09 13:27:08</time>
      </trkpt>
      <trkpt lat="42.85002" lon="-0.48133">
        <ele>1784.8</ele>
        <time>2021-08-09 13:27:09</time>
      </trkpt>
      <trkpt lat="42.85001" lon="-0.48132">
        <ele>1784.6</ele>
        <time>2021-08-09 13:27:10</time>
      </trkpt>
      <trkpt lat="42.85001" lon="-0.48132">
        <ele>1784.8</ele>
        <time>2021-08-09 13:27:11</time>
      </trkpt>
      <trkpt lat="42.85001" lon="-0.48132">
        <ele>1784.6</ele>
        <time>2021-08-09 13:27:12</time>
      </trkpt>
      <trkpt lat="42.85002" lon="-0.48133">
        <ele>1784.6</ele>
        <time>2021-08-09 13:27:13</time>
      </trkpt>
      <trkpt lat="42.85002" lon="-0.48133">
        <ele>1784.6</ele>
        <time>2021-08-09 13:27:14</time>
      </trkpt>
      <trkpt lat="42.85001" lon="-0.48134">
        <ele>1784.4</ele>
        <time>2021-08-09 13:27:15</time>
      </trkpt>
      <trkpt lat="42.85" lon="-0.48134">
        <ele>1784.6</ele>
        <time>2021-08-09 13:27:16</time>
      </trkpt>
      <trkpt lat="42.85" lon="-0.48135">
        <ele>1784.4</ele>
        <time>2021-08-09 13:27:17</time>
      </trkpt>
      <trkpt lat="42.85" lon="-0.48135">
        <ele>1784.4</ele>
        <time>2021-08-09 13:27:18</time>
      </trkpt>
      <trkpt lat="42.85001" lon="-0.48134">
        <ele>1784.4</ele>
        <time>2021-08-09 13:27:19</time>
      </trkpt>
      <trkpt lat="42.85001" lon="-0.48135">
        <ele>1784.4</ele>
        <time>2021-08-09 13:27:20</time>
      </trkpt>
      <trkpt lat="42.85001" lon="-0.48135">
        <ele>1784.6</ele>
        <time>2021-08-09 13:27:21</time>
      </trkpt>
      <trkpt lat="42.85001" lon="-0.48135">
        <ele>1784.6</ele>
        <time>2021-08-09 13:27:22</time>
      </trkpt>
      <trkpt lat="42.85001" lon="-0.48135">
        <ele>1784.6</ele>
        <time>2021-08-09 13:27:23</time>
      </trkpt>
      <trkpt lat="42.85002" lon="-0.48136">
        <ele>1784.8</ele>
        <time>2021-08-09 13:27:24</time>
      </trkpt>
      <trkpt lat="42.85002" lon="-0.48137">
        <ele>1784.8</ele>
        <time>2021-08-09 13:27:25</time>
      </trkpt>
      <trkpt lat="42.85002" lon="-0.48138">
        <ele>1784.8</ele>
        <time>2021-08-09 13:27:26</time>
      </trkpt>
      <trkpt lat="42.85002" lon="-0.48138">
        <ele>1785.2</ele>
        <time>2021-08-09 13:27:27</time>
      </trkpt>
      <trkpt lat="42.85002" lon="-0.48139">
        <ele>1785.2</ele>
        <time>2021-08-09 13:27:28</time>
      </trkpt>
      <trkpt lat="42.85002" lon="-0.4814">
        <ele>1785.4</ele>
        <time>2021-08-09 13:27:29</time>
      </trkpt>
      <trkpt lat="42.85003" lon="-0.4814">
        <ele>1785.4</ele>
        <time>2021-08-09 13:27:30</time>
      </trkpt>
      <trkpt lat="42.85003" lon="-0.48141">
        <ele>1785.4</ele>
        <time>2021-08-09 13:27:31</time>
      </trkpt>
      <trkpt lat="42.85004" lon="-0.48141">
        <ele>1785.6</ele>
      </trkpt>
      <trkpt lat="42.85004" lon="-0.48142">
        <ele>1785.6</ele>
        <time>2021-08-09 13:27:32</time>
      </trkpt>
      <trkpt lat="42.85005" lon="-0.48143">
        <ele>1785.8</ele>
        <time>2021-08-09 13:27:33</time>
      </trkpt>
      <trkpt lat="42.85005" lon="-0.48143">
        <ele>1785.8</ele>
        <time>2021-08-09 13:27:34</time>
      </trkpt>
      <trkpt lat="42.85005" lon="-0.48144">
        <ele>1786</ele>
        <time>2021-08-09 13:27:35</time>
      </trkpt>
      <trkpt lat="42.85006" lon="-0.48145">
        <ele>1786</ele>
        <time>2021-08-09 13:27:36</time>
      </trkpt>
      <trkpt lat="42.85006" lon="-0.48146">
        <ele>1786.2</ele>
        <time>2021-08-09 13:27:37</time>
      </trkpt>
      <trkpt lat="42.85008" lon="-0.48146">
        <ele>1786.2</ele>
        <time>2021-08-09 13:27:38</time>
      </trkpt>
      <trkpt lat="42.85008" lon="-0.48147">
        <ele>1786.4</ele>
        <time>2021-08-09 13:27:39</time>
      </trkpt>
      <trkpt lat="42.85009" lon="-0.48147">
        <ele>1786.6</ele>
        <time>2021-08-09 13:27:40</time>
      </trkpt>
      <trkpt lat="42.8501" lon="-0.48148">
        <ele>1786.8</ele>
        <time>2021-08-09 13:27:42</time>
      </trkpt>
      <trkpt lat="42.8501" lon="-0.48149">
        <ele>1786.8</ele>
      </trkpt>
      <trkpt lat="42.85011" lon="-0.4815">
        <ele>1786.8</ele>
        <time>2021-08-09 13:27:43</time>
      </trkpt>
      <trkpt lat="42.85011" lon="-0.48151">
        <ele>1787</ele>
        <time>2021-08-09 13:27:44</time>
      </trkpt>
      <trkpt lat="42.85012" lon="-0.48151">
        <ele>1787</ele>
        <time>2021-08-09 13:27:45</time>
      </trkpt>
      <trkpt lat="42.85012" lon="-0.48152">
        <ele>1787</ele>
        <time>2021-08-09 13:27:46</time>
      </trkpt>
      <trkpt lat="42.85013" lon="-0.48153">
        <ele>1787</ele>
        <time>2021-08-09 13:27:47</time>
      </trkpt>
      <trkpt lat="42.85014" lon="-0.48153">
        <ele>1787.2</ele>
        <time>2021-08-09 13:27:48</time>
      </trkpt>
      <trkpt lat="42.85014" lon="-0.48154">
        <ele>1787.4</ele>
        <time>2021-08-09 13:27:49</time>
      </trkpt>
      <trkpt lat="42.85015" lon="-0.48155">
        <ele>1787.4</ele>
        <time>2021-08-09 13:27:50</time>
      </trkpt>
      <trkpt lat="42.85016" lon="-0.48155">
        <ele>1787.6</ele>
        <time>2021-08-09 13:27:51</time>
      </trkpt>
      <trkpt lat="42.85017" lon="-0.48156">
        <ele>1787.6</ele>
        <time>2021-08-09 13:27:52</time>
      </trkpt>
      <trkpt lat="42.85017" lon="-0.48157">
        <ele>1787.6</ele>
        <time>2021-08-09 13:27:53</time>
      </trkpt>
      <trkpt lat="42.85018" lon="-0.48157">
        <ele>1787.8</ele>
        <time>2021-08-09 13:27:54</time>
      </trkpt>
      <trkpt lat="42.85019" lon="-0.48158">
        <ele>1788</ele>
        <time>2021-08-09 13:27:55</time>
      </trkpt>
      <trkpt lat="42.85019" lon="-0.48159">
        <ele>1788.2</ele>
        <time>2021-08-09 13:27:56</time>
      </trkpt>
      <trkpt lat="42.85019" lon="-0.4816">
        <ele>1788.4</ele>
        <time>2021-08-09 13:27:57</time>
      </trkpt>
      <trkpt lat="42.8502" lon="-0.48162">
        <ele>1788.6</ele>
        <time>2021-08-09 13:27:58</time>
      </trkpt>
      <trkpt lat="42.85021" lon="-0.48163">
        <ele>1788.8</ele>
        <time>2021-08-09 13:27:59</time>
      </trkpt>
      <trkpt lat="42.85021" lon="-0.48163">
        <ele>1789</ele>
        <time>2021-08-09 13:28:01</time>
      </trkpt>
      <trkpt lat="42.85022" lon="-0.48164">
        <ele>1789</ele>
      </trkpt>
      <trkpt lat="42.85022" lon="-0.48165">
        <ele>1789.2</ele>
        <time>2021-08-09 13:28:02</time>
      </trkpt>
      <trkpt lat="42.85022" lon="-0.48166">
        <ele>1789.4</ele>
        <time>2021-08-09 13:28:03</time>
      </trkpt>
      <trkpt lat="42.85023" lon="-0.48167">
        <ele>1789.4</ele>
        <time>2021-08-09 13:28:04</time>
      </trkpt>
      <trkpt lat="42.85023" lon="-0.48168">
        <ele>1789.4</ele>
        <time>2021-08-09 13:28:05</time>
      </trkpt>
      <trkpt lat="42.85023" lon="-0.48169">
        <ele>1789.6</ele>
        <time>2021-08-09 13:28:06</time>
      </trkpt>
      <trkpt lat="42.85024" lon="-0.4817">
        <ele>1789.6</ele>
        <time>2021-08-09 13:28:07</time>
      </trkpt>
      <trkpt lat="42.85024" lon="-0.48171">
        <ele>1790</ele>
        <time>2021-08-09 13:28:08</time>
      </trkpt>
      <trkpt lat="42.85024" lon="-0.48171">
        <ele>1790.2</ele>
        <time>2021-08-09 13:28:09</time>
      </trkpt>
      <trkpt lat="42.85024" lon="-0.48172">
        <ele>1790.2</ele>
        <time>2021-08-09 13:28:10</time>
      </trkpt>
      <trkpt lat="42.85024" lon="-0.48173">
        <ele>1790.2</ele>
        <time>2021-08-09 13:28:11</time>
      </trkpt>
      <trkpt lat="42.85024" lon="-0.48174">
        <ele>1790.4</ele>
        <time>2021-08-09 13:28:12</time>
      </trkpt>
      <trkpt lat="42.85025" lon="-0.48175">
        <ele>1790.6</ele>
        <time>2021-08-09 13:28:13</time>
      </trkpt>
      <trkpt lat="42.85025" lon="-0.48176">
        <ele>1790.4</ele>
        <time>2021-08-09 13:28:14</time>
      </trkpt>
      <trkpt lat="42.85026" lon="-0.48177">
        <ele>1790.6</ele>
        <time>2021-08-09 13:28:15</time>
      </trkpt>
      <trkpt lat="42.85026" lon="-0.48177">
        <ele>1790.8</ele>
        <time>2021-08-09 13:28:16</time>
      </trkpt>
      <trkpt lat="42.85026" lon="-0.48179">
        <ele>1791</ele>
        <time>2021-08-09 13:28:17</time>
      </trkpt>
      <trkpt lat="42.85027" lon="-0.4818">
        <ele>1790.8</ele>
        <time>2021-08-09 13:28:18</time>
      </trkpt>
      <trkpt lat="42.85027" lon="-0.48181">
        <ele>1790.6</ele>
        <time>2021-08-09 13:28:19</time>
      </trkpt>
      <trkpt lat="42.85027" lon="-0.48182">
        <ele>1791</ele>
        <time>2021-08-09 13:28:20</time>
      </trkpt>
      <trkpt lat="42.85028" lon="-0.48182">
        <ele>1791.6</ele>
        <time>2021-08-09 13:28:21</time>
      </trkpt>
      <trkpt lat="42.85028" lon="-0.48183">
        <ele>1792</ele>
        <time>2021-08-09 13:28:22</time>
      </trkpt>
      <trkpt lat="42.85029" lon="-0.48184">
        <ele>1792.4</ele>
        <time>2021-08-09 13:28:23</time>
      </trkpt>
      <trkpt lat="42.8503" lon="-0.48185">
        <ele>1792.4</ele>
        <time>2021-08-09 13:28:24</time>
      </trkpt>
      <trkpt lat="42.8503" lon="-0.48186">
        <ele>1792.4</ele>
        <time>2021-08-09 13:28:25</time>
      </trkpt>
      <trkpt lat="42.85031" lon="-0.48187">
        <ele>1792.2</ele>
        <time>2021-08-09 13:28:26</time>
      </trkpt>
      <trkpt lat="42.85031" lon="-0.48188">
        <ele>1792</ele>
        <time>2021-08-09 13:28:27</time>
      </trkpt>
      <trkpt lat="42.85031" lon="-0.48189">
        <ele>1792.2</ele>
        <time>2021-08-09 13:28:28</time>
      </trkpt>
      <trkpt lat="42.85031" lon="-0.48189">
        <ele>1792.6</ele>
        <time>2021-08-09 13:28:29</time>
      </trkpt>
      <trkpt lat="42.85032" lon="-0.4819">
        <ele>1792.6</ele>
        <time>2021-08-09 13:28:30</time>
      </trkpt>
      <trkpt lat="42.85033" lon="-0.4819">
        <ele>1792.6</ele>
        <time>2021-08-09 13:28:31</time>
      </trkpt>
      <trkpt lat="42.85033" lon="-0.48191">
        <ele>1792.8</ele>
        <time>2021-08-09 13:28:32</time>
      </trkpt>
      <trkpt lat="42.85034" lon="-0.48191">
        <ele>1792.8</ele>
        <time>2021-08-09 13:28:33</time>
      </trkpt>
      <trkpt lat="42.85035" lon="-0.48191">
        <ele>1792.8</ele>
        <time>2021-08-09 13:28:34</time>
      </trkpt>
      <trkpt lat="42.85035" lon="-0.48192">
        <ele>1792.8</ele>
        <time>2021-08-09 13:28:35</time>
      </trkpt>
      <trkpt lat="42.85036" lon="-0.48193">
        <ele>1793</ele>
        <time>2021-08-09 13:28:36</time>
      </trkpt>
      <trkpt lat="42.85037" lon="-0.48194">
        <ele>1792.8</ele>
        <time>2021-08-09 13:28:37</time>
      </trkpt>
      <trkpt lat="42.85037" lon="-0.48196">
        <ele>1792.8</ele>
        <time>2021-08-09 13:28:38</time>
      </trkpt>
      <trkpt lat="42.85038" lon="-0.48197">
        <ele>1792.8</ele>
        <time>2021-08-09 13:28:39</time>
      </trkpt>
      <trkpt lat="42.85038" lon="-0.48198">
        <ele>1793</ele>
        <time>2021-08-09 13:28:40</time>
      </trkpt>
      <trkpt lat="42.85039" lon="-0.48199">
        <ele>1793</ele>
        <time>2021-08-09 13:28:41</time>
      </trkpt>
      <trkpt lat="42.85039" lon="-0.482">
        <ele>1793.4</ele>
        <time>2021-08-09 13:28:42</time>
      </trkpt>
      <trkpt lat="42.8504" lon="-0.48201">
        <ele>1793.2</ele>
        <time>2021-08-09 13:28:43</time>
      </trkpt>
      <trkpt lat="42.8504" lon="-0.48202">
        <ele>1793.4</ele>
        <time>2021-08-09 13:28:44</time>
      </trkpt>
      <trkpt lat="42.85041" lon="-0.48203">
        <ele>1793.4</ele>
        <time>2021-08-09 13:28:45</time>
      </trkpt>
      <trkpt lat="42.85041" lon="-0.48204">
        <ele>1793.2</ele>
        <time>2021-08-09 13:28:46</time>
      </trkpt>
      <trkpt lat="42.85042" lon="-0.48205">
        <ele>1793.2</ele>
        <time>2021-08-09 13:28:47</time>
      </trkpt>
      <trkpt lat="42.85042" lon="-0.48205">
        <ele>1793</ele>
        <time>2021-08-09 13:28:48</time>
      </trkpt>
      <trkpt lat="42.85043" lon="-0.48206">
        <ele>1793.2</ele>
        <time>2021-08-09 13:28:49</time>
      </trkpt>
      <trkpt lat="42.85044" lon="-0.48207">
        <ele>1793.2</ele>
        <time>2021-08-09 13:28:50</time>
      </trkpt>
      <trkpt lat="42.85045" lon="-0.48208">
        <ele>1793.2</ele>
        <time>2021-08-09 13:28:51</time>
      </trkpt>
      <trkpt lat="42.85045" lon="-0.48209">
        <ele>1793.4</ele>
        <time>2021-08-09 13:28:52</time>
      </trkpt>
      <trkpt lat="42.85046" lon="-0.4821">
        <ele>1793.6</ele>
        <time>2021-08-09 13:28:53</time>
      </trkpt>
      <trkpt lat="42.85046" lon="-0.48211">
        <ele>1793.8</ele>
        <time>2021-08-09 13:28:54</time>
      </trkpt>
      <trkpt lat="42.85046" lon="-0.48212">
        <ele>1793.8</ele>
        <time>2021-08-09 13:28:55</time>
      </trkpt>
      <trkpt lat="42.85047" lon="-0.48212">
        <ele>1794</ele>
        <time>2021-08-09 13:28:56</time>
      </trkpt>
      <trkpt lat="42.85047" lon="-0.48213">
        <ele>1794</ele>
        <time>2021-08-09 13:28:57</time>
      </trkpt>
      <trkpt lat="42.85048" lon="-0.48214">
        <ele>1794</ele>
        <time>2021-08-09 13:28:58</time>
      </trkpt>
      <trkpt lat="42.85049" lon="-0.48215">
        <ele>1794</ele>
        <time>2021-08-09 13:28:59</time>
      </trkpt>
      <trkpt lat="42.85049" lon="-0.48217">
        <ele>1794</ele>
        <time>2021-08-09 13:29:00</time>
      </trkpt>
      <trkpt lat="42.8505" lon="-0.48218">
        <ele>1794.2</ele>
        <time>2021-08-09 13:29:01</time>
      </trkpt>
      <trkpt lat="42.85049" lon="-0.48219">
        <ele>1794.4</ele>
        <time>2021-08-09 13:29:02</time>
      </trkpt>
      <trkpt lat="42.8505" lon="-0.4822">
        <ele>1794.6</ele>
        <time>2021-08-09 13:29:03</time>
      </trkpt>
      <trkpt lat="42.8505" lon="-0.48221">
        <ele>1794.4</ele>
        <time>2021-08-09 13:29:04</time>
      </trkpt>
      <trkpt lat="42.85051" lon="-0.48222">
        <ele>1794.4</ele>
        <time>2021-08-09 13:29:05</time>
      </trkpt>
      <trkpt lat="42.85052" lon="-0.48223">
        <ele>1794.4</ele>
        <time>2021-08-09 13:29:06</time>
      </trkpt>
      <trkpt lat="42.85052" lon="-0.48224">
        <ele>1794.6</ele>
        <time>2021-08-09 13:29:07</time>
      </trkpt>
      <trkpt lat="42.85053" lon="-0.48224">
        <ele>1794.6</ele>
        <time>2021-08-09 13:29:08</time>
      </trkpt>
      <trkpt lat="42.85053" lon="-0.48225">
        <ele>1795</ele>
        <time>2021-08-09 13:29:09</time>
      </trkpt>
      <trkpt lat="42.85054" lon="-0.48226">
        <ele>1795</ele>
        <time>2021-08-09 13:29:10</time>
      </trkpt>
      <trkpt lat="42.85055" lon="-0.48227">
        <ele>1794.8</ele>
        <time>2021-08-09 13:29:11</time>
      </trkpt>
      <trkpt lat="42.85054" lon="-0.48227">
        <ele>1795</ele>
        <time>2021-08-09 13:29:12</time>
      </trkpt>
      <trkpt lat="42.85055" lon="-0.48228">
        <ele>1794.8</ele>
        <time>2021-08-09 13:29:13</time>
      </trkpt>
      <trkpt lat="42.85055" lon="-0.48229">
        <ele>1795.2</ele>
        <time>2021-08-09 13:29:14</time>
      </trkpt>
      <trkpt lat="42.85056" lon="-0.4823">
        <ele>1795</ele>
        <time>2021-08-09 13:29:15</time>
      </trkpt>
      <trkpt lat="42.85057" lon="-0.48231">
        <ele>1795.4</ele>
        <time>2021-08-09 13:29:16</time>
      </trkpt>
      <trkpt lat="42.85058" lon="-0.48232">
        <ele>1795.4</ele>
        <time>2021-08-09 13:29:17</time>
      </trkpt>
      <trkpt lat="42.85058" lon="-0.48234">
        <ele>1795.6</ele>
        <time>2021-08-09 13:29:18</time>
      </trkpt>
      <trkpt lat="42.85058" lon="-0.48235">
        <ele>1795.6</ele>
        <time>2021-08-09 13:29:19</time>
      </trkpt>
      <trkpt lat="42.85059" lon="-0.48236">
        <ele>1795.6</ele>
        <time>2021-08-09 13:29:20</time>
      </trkpt>
      <trkpt lat="42.85059" lon="-0.48237">
        <ele>1795.8</ele>
        <time>2021-08-09 13:29:21</time>
      </trkpt>
      <trkpt lat="42.85059" lon="-0.48238">
        <ele>1796.2</ele>
        <time>2021-08-09 13:29:22</time>
      </trkpt>
      <trkpt lat="42.85059" lon="-0.48239">
        <ele>1796</ele>
        <time>2021-08-09 13:29:23</time>
      </trkpt>
      <trkpt lat="42.85059" lon="-0.48241">
        <ele>1796.2</ele>
        <time>2021-08-09 13:29:24</time>
      </trkpt>
      <trkpt lat="42.85059" lon="-0.48242">
        <ele>1796.2</ele>
        <time>2021-08-09 13:29:25</time>
      </trkpt>
      <trkpt lat="42.85059" lon="-0.48243">
        <ele>1796.4</ele>
        <time>2021-08-09 13:29:26</time>
      </trkpt>
      <trkpt lat="42.85059" lon="-0.48244">
        <ele>1796.4</ele>
        <time>2021-08-09 13:29:27</time>
      </trkpt>
      <trkpt lat="42.85058" lon="-0.48245">
        <ele>1796.6</ele>
        <time>2021-08-09 13:29:28</time>
      </trkpt>
      <trkpt lat="42.85058" lon="-0.48246">
        <ele>1796.4</ele>
        <time>2021-08-09 13:29:29</time>
      </trkpt>
      <trkpt lat="42.85057" lon="-0.48247">
        <ele>1796.4</ele>
        <time>2021-08-09 13:29:30</time>
      </trkpt>
      <trkpt lat="42.85057" lon="-0.48248">
        <ele>1796.6</ele>
        <time>2021-08-09 13:29:31</time>
      </trkpt>
      <trkpt lat="42.85056" lon="-0.4825">
        <ele>1796.4</ele>
        <time>2021-08-09 13:29:32</time>
      </trkpt>
      <trkpt lat="42.85056" lon="-0.48251">
        <ele>1796.6</ele>
        <time>2021-08-09 13:29:33</time>
      </trkpt>
      <trkpt lat="42.85056" lon="-0.48253">
        <ele>1796.8</ele>
        <time>2021-08-09 13:29:34</time>
      </trkpt>
      <trkpt lat="42.85055" lon="-0.48254">
        <ele>1797.2</ele>
        <time>2021-08-09 13:29:35</time>
      </trkpt>
      <trkpt lat="42.85054" lon="-0.48254">
        <ele>1797.2</ele>
        <time>2021-08-09 13:29:36</time>
      </trkpt>
      <trkpt lat="42.85053" lon="-0.48255">
        <ele>1797.2</ele>
        <time>2021-08-09 13:29:37</time>
      </trkpt>
      <trkpt lat="42.85053" lon="-0.48255">
        <ele>1797</ele>
        <time>2021-08-09 13:29:38</time>
      </trkpt>
      <trkpt lat="42.85052" lon="-0.48256">
        <ele>1797.2</ele>
        <time>2021-08-09 13:29:39</time>
      </trkpt>
      <trkpt lat="42.85052" lon="-0.48256">
        <ele>1797.6</ele>
        <time>2021-08-09 13:29:40</time>
      </trkpt>
      <trkpt lat="42.85052" lon="-0.48258">
        <ele>1798</ele>
        <time>2021-08-09 13:29:41</time>
      </trkpt>
      <trkpt lat="42.85052" lon="-0.48258">
        <ele>1798.2</ele>
        <time>2021-08-09 13:29:42</time>
      </trkpt>
      <trkpt lat="42.85051" lon="-0.48259">
        <ele>1798.4</ele>
        <time>2021-08-09 13:29:43</time>
      </trkpt>
      <trkpt lat="42.85051" lon="-0.4826">
        <ele>1798.4</ele>
        <time>2021-08-09 13:29:44</time>
      </trkpt>
      <trkpt lat="42.85051" lon="-0.48262">
        <ele>1798.4</ele>
        <time>2021-08-09 13:29:45</time>
      </trkpt>
      <trkpt lat="42.8505" lon="-0.48262">
        <ele>1798.4</ele>
        <time>2021-08-09 13:29:46</time>
      </trkpt>
      <trkpt lat="42.8505" lon="-0.48263">
        <ele>1798.4</ele>
        <time>2021-08-09 13:29:47</time>
      </trkpt>
      <trkpt lat="42.8505" lon="-0.48264">
        <ele>1798.4</ele>
        <time>2021-08-09 13:29:48</time>
      </trkpt>
      <trkpt lat="42.8505" lon="-0.48265">
        <ele>1798.6</ele>
        <time>2021-08-09 13:29:49</time>
      </trkpt>
      <trkpt lat="42.85049" lon="-0.48266">
        <ele>1798.8</ele>
        <time>2021-08-09 13:29:50</time>
      </trkpt>
      <trkpt lat="42.85049" lon="-0.48267">
        <ele>1799</ele>
        <time>2021-08-09 13:29:51</time>
      </trkpt>
      <trkpt lat="42.85049" lon="-0.48268">
        <ele>1799</ele>
        <time>2021-08-09 13:29:52</time>
      </trkpt>
      <trkpt lat="42.85049" lon="-0.48269">
        <ele>1799.2</ele>
        <time>2021-08-09 13:29:53</time>
      </trkpt>
      <trkpt lat="42.85048" lon="-0.48271">
        <ele>1799.2</ele>
        <time>2021-08-09 13:29:54</time>
      </trkpt>
      <trkpt lat="42.85048" lon="-0.48272">
        <ele>1799</ele>
        <time>2021-08-09 13:29:55</time>
      </trkpt>
      <trkpt lat="42.85048" lon="-0.48273">
        <ele>1798.8</ele>
        <time>2021-08-09 13:29:56</time>
      </trkpt>
      <trkpt lat="42.85048" lon="-0.48275">
        <ele>1799.2</ele>
        <time>2021-08-09 13:29:57</time>
      </trkpt>
      <trkpt lat="42.85048" lon="-0.48276">
        <ele>1799.2</ele>
        <time>2021-08-09 13:29:58</time>
      </trkpt>
      <trkpt lat="42.85048" lon="-0.48277">
        <ele>1799.2</ele>
        <time>2021-08-09 13:29:59</time>
      </trkpt>
      <trkpt lat="42.85048" lon="-0.48279">
        <ele>1799.2</ele>
        <time>2021-08-09 13:30:00</time>
      </trkpt>
      <trkpt lat="42.85048" lon="-0.4828">
        <ele>1799.4</ele>
        <time>2021-08-09 13:30:01</time>
      </trkpt>
      <trkpt lat="42.85048" lon="-0.48281">
        <ele>1801.6</ele>
        <time>2021-08-09 13:30:02</time>
      </trkpt>
      <trkpt lat="42.85047" lon="-0.48281">
        <ele>1800.4</ele>
        <time>2021-08-09 13:30:03</time>
      </trkpt>
      <trkpt lat="42.85047" lon="-0.48282">
        <ele>1800.4</ele>
        <time>2021-08-09 13:30:04</time>
      </trkpt>
      <trkpt lat="42.85047" lon="-0.48283">
        <ele>1799.6</ele>
        <time>2021-08-09 13:30:05</time>
      </trkpt>
      <trkpt lat="42.85046" lon="-0.48284">
        <ele>1799.6</ele>
        <time>2021-08-09 13:30:06</time>
      </trkpt>
      <trkpt lat="42.85046" lon="-0.48285">
        <ele>1799.6</ele>
        <time>2021-08-09 13:30:07</time>
      </trkpt>
      <trkpt lat="42.85045" lon="-0.48286">
        <ele>1799.6</ele>
        <time>2021-08-09 13:30:08</time>
      </trkpt>
      <trkpt lat="42.85045" lon="-0.48288">
        <ele>1799.8</ele>
        <time>2021-08-09 13:30:09</time>
      </trkpt>
      <trkpt lat="42.85045" lon="-0.48288">
        <ele>1799.8</ele>
        <time>2021-08-09 13:30:10</time>
      </trkpt>
      <trkpt lat="42.85044" lon="-0.48289">
        <ele>1799.8</ele>
        <time>2021-08-09 13:30:11</time>
      </trkpt>
      <trkpt lat="42.85044" lon="-0.4829">
        <ele>1799.6</ele>
        <time>2021-08-09 13:30:12</time>
      </trkpt>
      <trkpt lat="42.85043" lon="-0.48292">
        <ele>1799.4</ele>
        <time>2021-08-09 13:30:13</time>
      </trkpt>
      <trkpt lat="42.85043" lon="-0.48293">
        <ele>1799.6</ele>
        <time>2021-08-09 13:30:14</time>
      </trkpt>
      <trkpt lat="42.85042" lon="-0.48295">
        <ele>1799.6</ele>
        <time>2021-08-09 13:30:15</time>
      </trkpt>
      <trkpt lat="42.85041" lon="-0.48296">
        <ele>1799.6</ele>
        <time>2021-08-09 13:30:16</time>
      </trkpt>
      <trkpt lat="42.85041" lon="-0.48297">
        <ele>1800</ele>
        <time>2021-08-09 13:30:17</time>
      </trkpt>
      <trkpt lat="42.85041" lon="-0.48299">
        <ele>1800.2</ele>
        <time>2021-08-09 13:30:18</time>
      </trkpt>
      <trkpt lat="42.85041" lon="-0.48301">
        <ele>1800.2</ele>
        <time>2021-08-09 13:30:19</time>
      </trkpt>
      <trkpt lat="42.85041" lon="-0.48302">
        <ele>1799.8</ele>
        <time>2021-08-09 13:30:20</time>
      </trkpt>
      <trkpt lat="42.85041" lon="-0.48304">
        <ele>1799.8</ele>
        <time>2021-08-09 13:30:21</time>
      </trkpt>
      <trkpt lat="42.85041" lon="-0.48305">
        <ele>1799.6</ele>
        <time>2021-08-09 13:30:22</time>
      </trkpt>
      <trkpt lat="42.85041" lon="-0.48307">
        <ele>1799.4</ele>
        <time>2021-08-09 13:30:23</time>
      </trkpt>
      <trkpt lat="42.8504" lon="-0.48308">
        <ele>1799.6</ele>
        <time>2021-08-09 13:30:24</time>
      </trkpt>
      <trkpt lat="42.8504" lon="-0.48309">
        <ele>1799.6</ele>
        <time>2021-08-09 13:30:25</time>
      </trkpt>
      <trkpt lat="42.85039" lon="-0.48311">
        <ele>1799.6</ele>
        <time>2021-08-09 13:30:26</time>
      </trkpt>
      <trkpt lat="42.85039" lon="-0.48313">
        <ele>1799.6</ele>
        <time>2021-08-09 13:30:27</time>
      </trkpt>
      <trkpt lat="42.85039" lon="-0.48314">
        <ele>1799.6</ele>
        <time>2021-08-09 13:30:28</time>
      </trkpt>
      <trkpt lat="42.85039" lon="-0.48316">
        <ele>1800</ele>
        <time>2021-08-09 13:30:29</time>
      </trkpt>
      <trkpt lat="42.85039" lon="-0.48317">
        <ele>1800</ele>
        <time>2021-08-09 13:30:30</time>
      </trkpt>
      <trkpt lat="42.85039" lon="-0.48318">
        <ele>1800</ele>
        <time>2021-08-09 13:30:31</time>
      </trkpt>
      <trkpt lat="42.85039" lon="-0.4832">
        <ele>1800.2</ele>
        <time>2021-08-09 13:30:32</time>
      </trkpt>
      <trkpt lat="42.85039" lon="-0.48321">
        <ele>1800.4</ele>
        <time>2021-08-09 13:30:33</time>
      </trkpt>
      <trkpt lat="42.85039" lon="-0.48323">
        <ele>1800.4</ele>
        <time>2021-08-09 13:30:34</time>
      </trkpt>
      <trkpt lat="42.85038" lon="-0.48325">
        <ele>1800.2</ele>
        <time>2021-08-09 13:30:35</time>
      </trkpt>
      <trkpt lat="42.85039" lon="-0.48327">
        <ele>1800.4</ele>
        <time>2021-08-09 13:30:36</time>
      </trkpt>
      <trkpt lat="42.85039" lon="-0.48329">
        <ele>1800.4</ele>
        <time>2021-08-09 13:30:37</time>
      </trkpt>
      <trkpt lat="42.85038" lon="-0.4833">
        <ele>1800.4</ele>
        <time>2021-08-09 13:30:38</time>
      </trkpt>
      <trkpt lat="42.85038" lon="-0.48332">
        <ele>1800.4</ele>
        <time>2021-08-09 13:30:39</time>
      </trkpt>
      <trkpt lat="42.85038" lon="-0.48333">
        <ele>1800.4</ele>
        <time>2021-08-09 13:30:40</time>
      </trkpt>
      <trkpt lat="42.85038" lon="-0.48335">
        <ele>1800.2</ele>
        <time>2021-08-09 13:30:41</time>
      </trkpt>
      <trkpt lat="42.85037" lon="-0.48337">
        <ele>1800.2</ele>
        <time>2021-08-09 13:30:42</time>
      </trkpt>
      <trkpt lat="42.85036" lon="-0.48337">
        <ele>1800</ele>
        <time>2021-08-09 13:30:43</time>
      </trkpt>
      <trkpt lat="42.85036" lon="-0.48339">
        <ele>1800</ele>
        <time>2021-08-09 13:30:44</time>
      </trkpt>
      <trkpt lat="42.85035" lon="-0.4834">
        <ele>1800.2</ele>
        <time>2021-08-09 13:30:45</time>
      </trkpt>
      <trkpt lat="42.85034" lon="-0.48341">
        <ele>1800.4</ele>
        <time>2021-08-09 13:30:46</time>
      </trkpt>
      <trkpt lat="42.85034" lon="-0.48342">
        <ele>1800.4</ele>
        <time>2021-08-09 13:30:47</time>
      </trkpt>
      <trkpt lat="42.85033" lon="-0.48344">
        <ele>1800.4</ele>
        <time>2021-08-09 13:30:48</time>
      </trkpt>
      <trkpt lat="42.85033" lon="-0.48345">
        <ele>1800.8</ele>
        <time>2021-08-09 13:30:49</time>
      </trkpt>
      <trkpt lat="42.85032" lon="-0.48346">
        <ele>1800.8</ele>
        <time>2021-08-09 13:30:50</time>
      </trkpt>
      <trkpt lat="42.85032" lon="-0.48348">
        <ele>1801</ele>
        <time>2021-08-09 13:30:51</time>
      </trkpt>
      <trkpt lat="42.85031" lon="-0.48349">
        <ele>1801</ele>
        <time>2021-08-09 13:30:52</time>
      </trkpt>
      <trkpt lat="42.85031" lon="-0.48351">
        <ele>1801</ele>
        <time>2021-08-09 13:30:53</time>
      </trkpt>
      <trkpt lat="42.85031" lon="-0.48352">
        <ele>1801.2</ele>
        <time>2021-08-09 13:30:54</time>
      </trkpt>
      <trkpt lat="42.8503" lon="-0.48353">
        <ele>1801.4</ele>
        <time>2021-08-09 13:30:55</time>
      </trkpt>
      <trkpt lat="42.8503" lon="-0.48354">
        <ele>1801.4</ele>
        <time>2021-08-09 13:30:56</time>
      </trkpt>
      <trkpt lat="42.8503" lon="-0.48356">
        <ele>1801.6</ele>
        <time>2021-08-09 13:30:57</time>
      </trkpt>
      <trkpt lat="42.85029" lon="-0.48357">
        <ele>1801.6</ele>
        <time>2021-08-09 13:30:58</time>
      </trkpt>
      <trkpt lat="42.85028" lon="-0.48358">
        <ele>1801.8</ele>
        <time>2021-08-09 13:30:59</time>
      </trkpt>
      <trkpt lat="42.85027" lon="-0.48359">
        <ele>1802.2</ele>
        <time>2021-08-09 13:31:00</time>
      </trkpt>
      <trkpt lat="42.85026" lon="-0.4836">
        <ele>1802.4</ele>
        <time>2021-08-09 13:31:01</time>
      </trkpt>
      <trkpt lat="42.85025" lon="-0.4836">
        <ele>1802.4</ele>
        <time>2021-08-09 13:31:02</time>
      </trkpt>
      <trkpt lat="42.85024" lon="-0.48361">
        <ele>1802.4</ele>
        <time>2021-08-09 13:31:03</time>
      </trkpt>
      <trkpt lat="42.85023" lon="-0.48362">
        <ele>1802.4</ele>
        <time>2021-08-09 13:31:04</time>
      </trkpt>
      <trkpt lat="42.85022" lon="-0.48362">
        <ele>1802.6</ele>
        <time>2021-08-09 13:31:05</time>
      </trkpt>
      <trkpt lat="42.85022" lon="-0.48364">
        <ele>1802.8</ele>
        <time>2021-08-09 13:31:06</time>
      </trkpt>
      <trkpt lat="42.85021" lon="-0.48365">
        <ele>1803</ele>
        <time>2021-08-09 13:31:07</time>
      </trkpt>
      <trkpt lat="42.85021" lon="-0.48365">
        <ele>1803</ele>
        <time>2021-08-09 13:31:08</time>
      </trkpt>
      <trkpt lat="42.8502" lon="-0.48366">
        <ele>1803.2</ele>
        <time>2021-08-09 13:31:09</time>
      </trkpt>
      <trkpt lat="42.85019" lon="-0.48366">
        <ele>1803.4</ele>
        <time>2021-08-09 13:31:10</time>
      </trkpt>
      <trkpt lat="42.85018" lon="-0.48367">
        <ele>1803.6</ele>
        <time>2021-08-09 13:31:11</time>
      </trkpt>
      <trkpt lat="42.85018" lon="-0.48368">
        <ele>1803.8</ele>
        <time>2021-08-09 13:31:12</time>
      </trkpt>
      <trkpt lat="42.85017" lon="-0.48368">
        <ele>1803.4</ele>
        <time>2021-08-09 13:31:13</time>
      </trkpt>
      <trkpt lat="42.85017" lon="-0.48369">
        <ele>1803.4</ele>
        <time>2021-08-09 13:31:14</time>
      </trkpt>
      <trkpt lat="42.85017" lon="-0.4837">
        <ele>1803.4</ele>
        <time>2021-08-09 13:31:15</time>
      </trkpt>
      <trkpt lat="42.85017" lon="-0.48372">
        <ele>1803.6</ele>
        <time>2021-08-09 13:31:16</time>
      </trkpt>
      <trkpt lat="42.85016" lon="-0.48373">
        <ele>1803.6</ele>
        <time>2021-08-09 13:31:17</time>
      </trkpt>
      <trkpt lat="42.85016" lon="-0.48374">
        <ele>1803.6</ele>
        <time>2021-08-09 13:31:18</time>
      </trkpt>
      <trkpt lat="42.85016" lon="-0.48375">
        <ele>1803.6</ele>
        <time>2021-08-09 13:31:19</time>
      </trkpt>
      <trkpt lat="42.85016" lon="-0.48376">
        <ele>1803.6</ele>
        <time>2021-08-09 13:31:20</time>
      </trkpt>
      <trkpt lat="42.85016" lon="-0.48377">
        <ele>1803.8</ele>
        <time>2021-08-09 13:31:21</time>
      </trkpt>
      <trkpt lat="42.85016" lon="-0.48378">
        <ele>1804</ele>
        <time>2021-08-09 13:31:22</time>
      </trkpt>
      <trkpt lat="42.85016" lon="-0.4838">
        <ele>1804.6</ele>
        <time>2021-08-09 13:31:23</time>
      </trkpt>
      <trkpt lat="42.85016" lon="-0.48381">
        <ele>1805</ele>
        <time>2021-08-09 13:31:24</time>
      </trkpt>
      <trkpt lat="42.85016" lon="-0.48382">
        <ele>1805</ele>
        <time>2021-08-09 13:31:25</time>
      </trkpt>
      <trkpt lat="42.85016" lon="-0.48383">
        <ele>1805.2</ele>
        <time>2021-08-09 13:31:26</time>
      </trkpt>
      <trkpt lat="42.85016" lon="-0.48383">
        <ele>1805</ele>
        <time>2021-08-09 13:31:27</time>
      </trkpt>
      <trkpt lat="42.85016" lon="-0.48384">
        <ele>1805</ele>
        <time>2021-08-09 13:31:28</time>
      </trkpt>
      <trkpt lat="42.85017" lon="-0.48386">
        <ele>1805</ele>
        <time>2021-08-09 13:31:29</time>
      </trkpt>
      <trkpt lat="42.85017" lon="-0.48387">
        <ele>1805</ele>
        <time>2021-08-09 13:31:30</time>
      </trkpt>
      <trkpt lat="42.85018" lon="-0.48388">
        <ele>1804.8</ele>
        <time>2021-08-09 13:31:31</time>
      </trkpt>
      <trkpt lat="42.85019" lon="-0.4839">
        <ele>1804.8</ele>
        <time>2021-08-09 13:31:32</time>
      </trkpt>
      <trkpt lat="42.85019" lon="-0.48391">
        <ele>1804.2</ele>
        <time>2021-08-09 13:31:33</time>
      </trkpt>
      <trkpt lat="42.85019" lon="-0.48392">
        <ele>1803.4</ele>
        <time>2021-08-09 13:31:34</time>
      </trkpt>
      <trkpt lat="42.85019" lon="-0.48393">
        <ele>1803.4</ele>
        <time>2021-08-09 13:31:35</time>
      </trkpt>
      <trkpt lat="42.85019" lon="-0.48393">
        <ele>1803.8</ele>
        <time>2021-08-09 13:31:36</time>
      </trkpt>
      <trkpt lat="42.85019" lon="-0.48395">
        <ele>1804.2</ele>
        <time>2021-08-09 13:31:37</time>
      </trkpt>
      <trkpt lat="42.85019" lon="-0.48395">
        <ele>1803.6</ele>
        <time>2021-08-09 13:31:38</time>
      </trkpt>
      <trkpt lat="42.85019" lon="-0.48396">
        <ele>1803.6</ele>
        <time>2021-08-09 13:31:39</time>
      </trkpt>
      <trkpt lat="42.8502" lon="-0.48396">
        <ele>1803.6</ele>
        <time>2021-08-09 13:31:40</time>
      </trkpt>
      <trkpt lat="42.8502" lon="-0.48396">
        <ele>1803.8</ele>
        <time>2021-08-09 13:31:41</time>
      </trkpt>
      <trkpt lat="42.8502" lon="-0.48397">
        <ele>1803.8</ele>
        <time>2021-08-09 13:31:42</time>
      </trkpt>
      <trkpt lat="42.85021" lon="-0.48399">
        <ele>1804</ele>
        <time>2021-08-09 13:31:43</time>
      </trkpt>
      <trkpt lat="42.85021" lon="-0.484">
        <ele>1803.8</ele>
        <time>2021-08-09 13:31:44</time>
      </trkpt>
      <trkpt lat="42.85021" lon="-0.48401">
        <ele>1803.8</ele>
        <time>2021-08-09 13:31:45</time>
      </trkpt>
      <trkpt lat="42.85022" lon="-0.48402">
        <ele>1803.8</ele>
        <time>2021-08-09 13:31:46</time>
      </trkpt>
      <trkpt lat="42.85022" lon="-0.48403">
        <ele>1804</ele>
        <time>2021-08-09 13:31:47</time>
      </trkpt>
      <trkpt lat="42.85021" lon="-0.48404">
        <ele>1804.2</ele>
        <time>2021-08-09 13:31:48</time>
      </trkpt>
      <trkpt lat="42.85021" lon="-0.48405">
        <ele>1804.2</ele>
        <time>2021-08-09 13:31:49</time>
      </trkpt>
      <trkpt lat="42.85021" lon="-0.48406">
        <ele>1804</ele>
        <time>2021-08-09 13:31:50</time>
      </trkpt>
      <trkpt lat="42.85021" lon="-0.48408">
        <ele>1804.2</ele>
        <time>2021-08-09 13:31:51</time>
      </trkpt>
      <trkpt lat="42.85021" lon="-0.48409">
        <ele>1804.2</ele>
        <time>2021-08-09 13:31:52</time>
      </trkpt>
      <trkpt lat="42.8502" lon="-0.4841">
        <ele>1804.8</ele>
        <time>2021-08-09 13:31:53</time>
      </trkpt>
      <trkpt lat="42.8502" lon="-0.48411">
        <ele>1804.8</ele>
        <time>2021-08-09 13:31:54</time>
      </trkpt>
      <trkpt lat="42.8502" lon="-0.48412">
        <ele>1804.4</ele>
        <time>2021-08-09 13:31:55</time>
      </trkpt>
      <trkpt lat="42.8502" lon="-0.48413">
        <ele>1804.8</ele>
        <time>2021-08-09 13:31:56</time>
      </trkpt>
      <trkpt lat="42.8502" lon="-0.48414">
        <ele>1804.8</ele>
        <time>2021-08-09 13:31:57</time>
      </trkpt>
      <trkpt lat="42.85019" lon="-0.48415">
        <ele>1805</ele>
        <time>2021-08-09 13:31:58</time>
      </trkpt>
      <trkpt lat="42.85019" lon="-0.48416">
        <ele>1806</ele>
        <time>2021-08-09 13:31:59</time>
      </trkpt>
      <trkpt lat="42.85019" lon="-0.48418">
        <ele>1806</ele>
        <time>2021-08-09 13:32:00</time>
      </trkpt>
      <trkpt lat="42.85018" lon="-0.48419">
        <ele>1806.2</ele>
        <time>2021-08-09 13:32:01</time>
      </trkpt>
      <trkpt lat="42.85018" lon="-0.4842">
        <ele>1805.2</ele>
        <time>2021-08-09 13:32:02</time>
      </trkpt>
      <trkpt lat="42.85017" lon="-0.48421">
        <ele>1805.4</ele>
        <time>2021-08-09 13:32:03</time>
      </trkpt>
      <trkpt lat="42.85017" lon="-0.48423">
        <ele>1805.6</ele>
        <time>2021-08-09 13:32:04</time>
      </trkpt>
      <trkpt lat="42.85016" lon="-0.48424">
        <ele>1805.8</ele>
        <time>2021-08-09 13:32:05</time>
      </trkpt>
      <trkpt lat="42.85016" lon="-0.48425">
        <ele>1806</ele>
        <time>2021-08-09 13:32:06</time>
      </trkpt>
      <trkpt lat="42.85015" lon="-0.48427">
        <ele>1806.8</ele>
        <time>2021-08-09 13:32:07</time>
      </trkpt>
      <trkpt lat="42.85015" lon="-0.48428">
        <ele>1807.6</ele>
        <time>2021-08-09 13:32:08</time>
      </trkpt>
      <trkpt lat="42.85015" lon="-0.4843">
        <ele>1806.2</ele>
        <time>2021-08-09 13:32:09</time>
      </trkpt>
      <trkpt lat="42.85015" lon="-0.48431">
        <ele>1806.4</ele>
        <time>2021-08-09 13:32:10</time>
      </trkpt>
      <trkpt lat="42.85015" lon="-0.48432">
        <ele>1806</ele>
        <time>2021-08-09 13:32:11</time>
      </trkpt>
      <trkpt lat="42.85015" lon="-0.48433">
        <ele>1807.2</ele>
        <time>2021-08-09 13:32:12</time>
      </trkpt>
      <trkpt lat="42.85015" lon="-0.48435">
        <ele>1807.2</ele>
        <time>2021-08-09 13:32:13</time>
      </trkpt>
      <trkpt lat="42.85015" lon="-0.48436">
        <ele>1807.4</ele>
        <time>2021-08-09 13:32:14</time>
      </trkpt>
      <trkpt lat="42.85014" lon="-0.48437">
        <ele>1807.4</ele>
        <time>2021-08-09 13:32:15</time>
      </trkpt>
      <trkpt lat="42.85014" lon="-0.48439">
        <ele>1807.4</ele>
        <time>2021-08-09 13:32:16</time>
      </trkpt>
      <trkpt lat="42.85014" lon="-0.4844">
        <ele>1807.6</ele>
        <time>2021-08-09 13:32:17</time>
      </trkpt>
      <trkpt lat="42.85014" lon="-0.48442">
        <ele>1807.8</ele>
        <time>2021-08-09 13:32:18</time>
      </trkpt>
      <trkpt lat="42.85014" lon="-0.48443">
        <ele>1808</ele>
        <time>2021-08-09 13:32:19</time>
      </trkpt>
      <trkpt lat="42.85015" lon="-0.48445">
        <ele>1808.2</ele>
        <time>2021-08-09 13:32:20</time>
      </trkpt>
      <trkpt lat="42.85015" lon="-0.48446">
        <ele>1808.2</ele>
        <time>2021-08-09 13:32:21</time>
      </trkpt>
      <trkpt lat="42.85015" lon="-0.48448">
        <ele>1808.2</ele>
        <time>2021-08-09 13:32:22</time>
      </trkpt>
      <trkpt lat="42.85016" lon="-0.48449">
        <ele>1808.4</ele>
        <time>2021-08-09 13:32:23</time>
      </trkpt>
      <trkpt lat="42.85016" lon="-0.4845">
        <ele>1808.6</ele>
        <time>2021-08-09 13:32:24</time>
      </trkpt>
      <trkpt lat="42.85016" lon="-0.48452">
        <ele>1809</ele>
        <time>2021-08-09 13:32:25</time>
      </trkpt>
      <trkpt lat="42.85017" lon="-0.48453">
        <ele>1809.2</ele>
        <time>2021-08-09 13:32:26</time>
      </trkpt>
      <trkpt lat="42.85017" lon="-0.48454">
        <ele>1809.2</ele>
        <time>2021-08-09 13:32:27</time>
      </trkpt>
      <trkpt lat="42.85017" lon="-0.48455">
        <ele>1809.4</ele>
        <time>2021-08-09 13:32:28</time>
      </trkpt>
      <trkpt lat="42.85016" lon="-0.48456">
        <ele>1809.6</ele>
        <time>2021-08-09 13:32:29</time>
      </trkpt>
      <trkpt lat="42.85017" lon="-0.48458">
        <ele>1809.8</ele>
        <time>2021-08-09 13:32:30</time>
      </trkpt>
      <trkpt lat="42.85016" lon="-0.48459">
        <ele>1810</ele>
        <time>2021-08-09 13:32:31</time>
      </trkpt>
      <trkpt lat="42.85016" lon="-0.4846">
        <ele>1810.2</ele>
        <time>2021-08-09 13:32:32</time>
      </trkpt>
      <trkpt lat="42.85016" lon="-0.48461">
        <ele>1809.8</ele>
        <time>2021-08-09 13:32:33</time>
      </trkpt>
      <trkpt lat="42.85016" lon="-0.48462">
        <ele>1810</ele>
        <time>2021-08-09 13:32:34</time>
      </trkpt>
      <trkpt lat="42.85015" lon="-0.48462">
        <ele>1810.2</ele>
        <time>2021-08-09 13:32:35</time>
      </trkpt>
      <trkpt lat="42.85016" lon="-0.48464">
        <ele>1810.4</ele>
        <time>2021-08-09 13:32:36</time>
      </trkpt>
      <trkpt lat="42.85015" lon="-0.48464">
        <ele>1810.6</ele>
        <time>2021-08-09 13:32:37</time>
      </trkpt>
      <trkpt lat="42.85015" lon="-0.48464">
        <ele>1810.6</ele>
        <time>2021-08-09 13:32:38</time>
      </trkpt>
      <trkpt lat="42.85015" lon="-0.48466">
        <ele>1810.6</ele>
        <time>2021-08-09 13:32:39</time>
      </trkpt>
      <trkpt lat="42.85016" lon="-0.48467">
        <ele>1810.6</ele>
        <time>2021-08-09 13:32:40</time>
      </trkpt>
      <trkpt lat="42.85015" lon="-0.48467">
        <ele>1810.8</ele>
        <time>2021-08-09 13:32:41</time>
      </trkpt>
      <trkpt lat="42.85015" lon="-0.48468">
        <ele>1810.8</ele>
        <time>2021-08-09 13:32:42</time>
      </trkpt>
      <trkpt lat="42.85014" lon="-0.48469">
        <ele>1811</ele>
        <time>2021-08-09 13:32:43</time>
      </trkpt>
      <trkpt lat="42.85014" lon="-0.4847">
        <ele>1811.2</ele>
        <time>2021-08-09 13:32:47</time>
      </trkpt>
      <trkpt lat="42.85014" lon="-0.48471">
        <ele>1811.2</ele>
        <time>2021-08-09 13:32:48</time>
      </trkpt>
      <trkpt lat="42.85014" lon="-0.48473">
        <ele>1811</ele>
        <time>2021-08-09 13:32:49</time>
      </trkpt>
      <trkpt lat="42.85015" lon="-0.48474">
        <ele>1811</ele>
        <time>2021-08-09 13:32:50</time>
      </trkpt>
      <trkpt lat="42.85015" lon="-0.48475">
        <ele>1811</ele>
        <time>2021-08-09 13:32:51</time>
      </trkpt>
      <trkpt lat="42.85016" lon="-0.48477">
        <ele>1811.2</ele>
        <time>2021-08-09 13:32:52</time>
      </trkpt>
      <trkpt lat="42.85017" lon="-0.48479">
        <ele>1811</ele>
        <time>2021-08-09 13:32:53</time>
      </trkpt>
      <trkpt lat="42.85017" lon="-0.4848">
        <ele>1811.2</ele>
        <time>2021-08-09 13:32:54</time>
      </trkpt>
      <trkpt lat="42.85017" lon="-0.4848">
        <ele>1811.2</ele>
        <time>2021-08-09 13:32:55</time>
      </trkpt>
      <trkpt lat="42.85018" lon="-0.48481">
        <ele>1811.2</ele>
        <time>2021-08-09 13:32:56</time>
      </trkpt>
      <trkpt lat="42.85018" lon="-0.48483">
        <ele>1811.2</ele>
        <time>2021-08-09 13:32:57</time>
      </trkpt>
      <trkpt lat="42.85018" lon="-0.48484">
        <ele>1811.2</ele>
        <time>2021-08-09 13:32:58</time>
      </trkpt>
      <trkpt lat="42.85019" lon="-0.48485">
        <ele>1811</ele>
        <time>2021-08-09 13:32:59</time>
      </trkpt>
      <trkpt lat="42.85019" lon="-0.48486">
        <ele>1810.8</ele>
        <time>2021-08-09 13:33:00</time>
      </trkpt>
      <trkpt lat="42.85019" lon="-0.48487">
        <ele>1810.6</ele>
        <time>2021-08-09 13:33:01</time>
      </trkpt>
      <trkpt lat="42.8502" lon="-0.48488">
        <ele>1810.6</ele>
        <time>2021-08-09 13:33:02</time>
      </trkpt>
      <trkpt lat="42.8502" lon="-0.48489">
        <ele>1810.6</ele>
        <time>2021-08-09 13:33:03</time>
      </trkpt>
      <trkpt lat="42.85021" lon="-0.48491">
        <ele>1810.4</ele>
        <time>2021-08-09 13:33:04</time>
      </trkpt>
      <trkpt lat="42.85021" lon="-0.48492">
        <ele>1810.4</ele>
        <time>2021-08-09 13:33:05</time>
      </trkpt>
      <trkpt lat="42.85022" lon="-0.48493">
        <ele>1810.4</ele>
        <time>2021-08-09 13:33:06</time>
      </trkpt>
      <trkpt lat="42.85022" lon="-0.48495">
        <ele>1810.2</ele>
        <time>2021-08-09 13:33:07</time>
      </trkpt>
      <trkpt lat="42.85022" lon="-0.48496">
        <ele>1810.4</ele>
        <time>2021-08-09 13:33:08</time>
      </trkpt>
      <trkpt lat="42.85022" lon="-0.48498">
        <ele>1810.2</ele>
        <time>2021-08-09 13:33:09</time>
      </trkpt>
      <trkpt lat="42.85023" lon="-0.48499">
        <ele>1810.4</ele>
        <time>2021-08-09 13:33:10</time>
      </trkpt>
      <trkpt lat="42.85024" lon="-0.48501">
        <ele>1810.2</ele>
        <time>2021-08-09 13:33:11</time>
      </trkpt>
      <trkpt lat="42.85025" lon="-0.48502">
        <ele>1810.4</ele>
        <time>2021-08-09 13:33:12</time>
      </trkpt>
      <trkpt lat="42.85025" lon="-0.48503">
        <ele>1810.4</ele>
        <time>2021-08-09 13:33:13</time>
      </trkpt>
      <trkpt lat="42.85025" lon="-0.48503">
        <ele>1810.4</ele>
        <time>2021-08-09 13:33:14</time>
      </trkpt>
      <trkpt lat="42.85026" lon="-0.48504">
        <ele>1810.2</ele>
        <time>2021-08-09 13:33:15</time>
      </trkpt>
      <trkpt lat="42.85026" lon="-0.48505">
        <ele>1809.8</ele>
        <time>2021-08-09 13:33:16</time>
      </trkpt>
      <trkpt lat="42.85027" lon="-0.48506">
        <ele>1809.8</ele>
        <time>2021-08-09 13:33:17</time>
      </trkpt>
      <trkpt lat="42.85028" lon="-0.48507">
        <ele>1809.8</ele>
        <time>2021-08-09 13:33:18</time>
      </trkpt>
      <trkpt lat="42.85028" lon="-0.48509">
        <ele>1809.8</ele>
        <time>2021-08-09 13:33:19</time>
      </trkpt>
      <trkpt lat="42.85028" lon="-0.4851">
        <ele>1809.6</ele>
        <time>2021-08-09 13:33:20</time>
      </trkpt>
      <trkpt lat="42.85029" lon="-0.48512">
        <ele>1809.6</ele>
        <time>2021-08-09 13:33:21</time>
      </trkpt>
      <trkpt lat="42.8503" lon="-0.48513">
        <ele>1809.6</ele>
        <time>2021-08-09 13:33:22</time>
      </trkpt>
      <trkpt lat="42.8503" lon="-0.48515">
        <ele>1809.6</ele>
        <time>2021-08-09 13:33:23</time>
      </trkpt>
      <trkpt lat="42.8503" lon="-0.48516">
        <ele>1809.4</ele>
        <time>2021-08-09 13:33:24</time>
      </trkpt>
      <trkpt lat="42.85031" lon="-0.48516">
        <ele>1809.4</ele>
        <time>2021-08-09 13:33:25</time>
      </trkpt>
      <trkpt lat="42.85031" lon="-0.48517">
        <ele>1809.4</ele>
        <time>2021-08-09 13:33:26</time>
      </trkpt>
      <trkpt lat="42.85031" lon="-0.48518">
        <ele>1809.4</ele>
        <time>2021-08-09 13:33:27</time>
      </trkpt>
      <trkpt lat="42.85032" lon="-0.48519">
        <ele>1809.4</ele>
        <time>2021-08-09 13:33:28</time>
      </trkpt>
      <trkpt lat="42.85031" lon="-0.4852">
        <ele>1809.2</ele>
        <time>2021-08-09 13:33:29</time>
      </trkpt>
      <trkpt lat="42.85032" lon="-0.48521">
        <ele>1809</ele>
        <time>2021-08-09 13:33:30</time>
      </trkpt>
      <trkpt lat="42.85033" lon="-0.48521">
        <ele>1809.2</ele>
        <time>2021-08-09 13:33:31</time>
      </trkpt>
      <trkpt lat="42.85033" lon="-0.48522">
        <ele>1809.2</ele>
        <time>2021-08-09 13:33:32</time>
      </trkpt>
      <trkpt lat="42.85034" lon="-0.48523">
        <ele>1809.2</ele>
        <time>2021-08-09 13:33:33</time>
      </trkpt>
      <trkpt lat="42.85035" lon="-0.48523">
        <ele>1809</ele>
        <time>2021-08-09 13:33:34</time>
      </trkpt>
      <trkpt lat="42.85035" lon="-0.48523">
        <ele>1808.8</ele>
        <time>2021-08-09 13:33:35</time>
      </trkpt>
      <trkpt lat="42.85036" lon="-0.48524">
        <ele>1809</ele>
        <time>2021-08-09 13:33:36</time>
      </trkpt>
      <trkpt lat="42.85037" lon="-0.48525">
        <ele>1809</ele>
        <time>2021-08-09 13:33:37</time>
      </trkpt>
      <trkpt lat="42.85037" lon="-0.48525">
        <ele>1808.6</ele>
        <time>2021-08-09 13:33:38</time>
      </trkpt>
      <trkpt lat="42.85038" lon="-0.48526">
        <ele>1808.6</ele>
        <time>2021-08-09 13:33:39</time>
      </trkpt>
      <trkpt lat="42.85039" lon="-0.48527">
        <ele>1808.4</ele>
        <time>2021-08-09 13:33:40</time>
      </trkpt>
      <trkpt lat="42.8504" lon="-0.48528">
        <ele>1808.4</ele>
        <time>2021-08-09 13:33:41</time>
      </trkpt>
      <trkpt lat="42.85041" lon="-0.48528">
        <ele>1808.4</ele>
        <time>2021-08-09 13:33:42</time>
      </trkpt>
      <trkpt lat="42.85042" lon="-0.48529">
        <ele>1808.4</ele>
        <time>2021-08-09 13:33:43</time>
      </trkpt>
      <trkpt lat="42.85043" lon="-0.48529">
        <ele>1808</ele>
        <time>2021-08-09 13:33:44</time>
      </trkpt>
      <trkpt lat="42.85043" lon="-0.48529">
        <ele>1808</ele>
        <time>2021-08-09 13:33:45</time>
      </trkpt>
      <trkpt lat="42.85044" lon="-0.48529">
        <ele>1808</ele>
        <time>2021-08-09 13:33:46</time>
      </trkpt>
      <trkpt lat="42.85044" lon="-0.48529">
        <ele>1808</ele>
        <time>2021-08-09 13:33:47</time>
      </trkpt>
      <trkpt lat="42.85045" lon="-0.4853">
        <ele>1807.6</ele>
        <time>2021-08-09 13:33:48</time>
      </trkpt>
      <trkpt lat="42.85045" lon="-0.48531">
        <ele>1807</ele>
        <time>2021-08-09 13:33:49</time>
      </trkpt>
      <trkpt lat="42.85046" lon="-0.48531">
        <ele>1807.2</ele>
        <time>2021-08-09 13:33:50</time>
      </trkpt>
      <trkpt lat="42.85047" lon="-0.48533">
        <ele>1807</ele>
        <time>2021-08-09 13:33:51</time>
      </trkpt>
      <trkpt lat="42.85048" lon="-0.48534">
        <ele>1807</ele>
        <time>2021-08-09 13:33:52</time>
      </trkpt>
      <trkpt lat="42.85048" lon="-0.48534">
        <ele>1807</ele>
        <time>2021-08-09 13:33:53</time>
      </trkpt>
      <trkpt lat="42.85048" lon="-0.48535">
        <ele>1807</ele>
        <time>2021-08-09 13:33:54</time>
      </trkpt>
      <trkpt lat="42.85048" lon="-0.48536">
        <ele>1806.4</ele>
        <time>2021-08-09 13:33:55</time>
      </trkpt>
      <trkpt lat="42.85049" lon="-0.48537">
        <ele>1806.2</ele>
        <time>2021-08-09 13:33:56</time>
      </trkpt>
      <trkpt lat="42.85049" lon="-0.48538">
        <ele>1806</ele>
        <time>2021-08-09 13:33:57</time>
      </trkpt>
      <trkpt lat="42.8505" lon="-0.48539">
        <ele>1805.8</ele>
        <time>2021-08-09 13:33:58</time>
      </trkpt>
      <trkpt lat="42.85051" lon="-0.4854">
        <ele>1805.8</ele>
        <time>2021-08-09 13:33:59</time>
      </trkpt>
      <trkpt lat="42.85051" lon="-0.48541">
        <ele>1805.8</ele>
      </trkpt>
      <trkpt lat="42.85052" lon="-0.48542">
        <ele>1806</ele>
        <time>2021-08-09 13:34:01</time>
      </trkpt>
      <trkpt lat="42.85053" lon="-0.48544">
        <ele>1805.8</ele>
        <time>2021-08-09 13:34:02</time>
      </trkpt>
      <trkpt lat="42.85053" lon="-0.48546">
        <ele>1805.6</ele>
        <time>2021-08-09 13:34:03</time>
      </trkpt>
      <trkpt lat="42.85056" lon="-0.48548">
        <ele>1805.2</ele>
        <time>2021-08-09 13:34:04</time>
      </trkpt>
      <trkpt lat="42.85056" lon="-0.4855">
        <ele>1805.4</ele>
      </trkpt>
      <trkpt lat="42.85056" lon="-0.48552">
        <ele>1805.4</ele>
        <time>2021-08-09 13:34:05</time>
      </trkpt>
      <trkpt lat="42.85057" lon="-0.48553">
        <ele>1805.6</ele>
        <time>2021-08-09 13:34:06</time>
      </trkpt>
      <trkpt lat="42.85056" lon="-0.48555">
        <ele>1805.4</ele>
        <time>2021-08-09 13:34:07</time>
      </trkpt>
      <trkpt lat="42.85056" lon="-0.48556">
        <ele>1805.2</ele>
        <time>2021-08-09 13:34:08</time>
      </trkpt>
      <trkpt lat="42.85055" lon="-0.48557">
        <ele>1805.2</ele>
        <time>2021-08-09 13:34:09</time>
      </trkpt>
      <trkpt lat="42.85054" lon="-0.48557">
        <ele>1805.2</ele>
        <time>2021-08-09 13:34:10</time>
      </trkpt>
      <trkpt lat="42.85054" lon="-0.48559">
        <ele>1805.4</ele>
        <time>2021-08-09 13:34:11</time>
      </trkpt>
      <trkpt lat="42.85053" lon="-0.4856">
        <ele>1805.4</ele>
        <time>2021-08-09 13:34:12</time>
      </trkpt>
      <trkpt lat="42.85053" lon="-0.48561">
        <ele>1805.4</ele>
        <time>2021-08-09 13:34:13</time>
      </trkpt>
      <trkpt lat="42.85052" lon="-0.48564">
        <ele>1805.4</ele>
        <time>2021-08-09 13:34:14</time>
      </trkpt>
      <trkpt lat="42.85051" lon="-0.48565">
        <ele>1805.2</ele>
        <time>2021-08-09 13:34:15</time>
      </trkpt>
      <trkpt lat="42.8505" lon="-0.48567">
        <ele>1805.2</ele>
        <time>2021-08-09 13:34:17</time>
      </trkpt>
      <trkpt lat="42.85049" lon="-0.48568">
        <ele>1805.2</ele>
      </trkpt>
      <trkpt lat="42.85048" lon="-0.48569">
        <ele>1805.6</ele>
        <time>2021-08-09 13:34:18</time>
      </trkpt>
      <trkpt lat="42.85048" lon="-0.4857">
        <ele>1805.6</ele>
        <time>2021-08-09 13:34:19</time>
      </trkpt>
      <trkpt lat="42.85047" lon="-0.4857">
        <ele>1806</ele>
        <time>2021-08-09 13:34:20</time>
      </trkpt>
      <trkpt lat="42.85046" lon="-0.48572">
        <ele>1806.2</ele>
        <time>2021-08-09 13:34:21</time>
      </trkpt>
      <trkpt lat="42.85046" lon="-0.48573">
        <ele>1806.4</ele>
        <time>2021-08-09 13:34:22</time>
      </trkpt>
      <trkpt lat="42.85045" lon="-0.48574">
        <ele>1806.6</ele>
        <time>2021-08-09 13:34:23</time>
      </trkpt>
      <trkpt lat="42.85044" lon="-0.48575">
        <ele>1806.8</ele>
        <time>2021-08-09 13:34:24</time>
      </trkpt>
      <trkpt lat="42.85043" lon="-0.48575">
        <ele>1807</ele>
        <time>2021-08-09 13:34:25</time>
      </trkpt>
      <trkpt lat="42.85042" lon="-0.48577">
        <ele>1807</ele>
        <time>2021-08-09 13:34:26</time>
      </trkpt>
      <trkpt lat="42.85042" lon="-0.48578">
        <ele>1807</ele>
        <time>2021-08-09 13:34:27</time>
      </trkpt>
      <trkpt lat="42.85041" lon="-0.48579">
        <ele>1807.4</ele>
        <time>2021-08-09 13:34:28</time>
      </trkpt>
      <trkpt lat="42.85041" lon="-0.48581">
        <ele>1807.2</ele>
        <time>2021-08-09 13:34:29</time>
      </trkpt>
      <trkpt lat="42.85041" lon="-0.48582">
        <ele>1807.2</ele>
        <time>2021-08-09 13:34:30</time>
      </trkpt>
      <trkpt lat="42.85041" lon="-0.48583">
        <ele>1807.2</ele>
        <time>2021-08-09 13:34:31</time>
      </trkpt>
      <trkpt lat="42.8504" lon="-0.48586">
        <ele>1807.2</ele>
        <time>2021-08-09 13:34:32</time>
      </trkpt>
      <trkpt lat="42.8504" lon="-0.48587">
        <ele>1807.6</ele>
        <time>2021-08-09 13:34:33</time>
      </trkpt>
      <trkpt lat="42.85041" lon="-0.48588">
        <ele>1807.8</ele>
        <time>2021-08-09 13:34:34</time>
      </trkpt>
      <trkpt lat="42.85041" lon="-0.4859">
        <ele>1808</ele>
        <time>2021-08-09 13:34:35</time>
      </trkpt>
      <trkpt lat="42.85041" lon="-0.48591">
        <ele>1808</ele>
        <time>2021-08-09 13:34:37</time>
      </trkpt>
      <trkpt lat="42.85041" lon="-0.48593">
        <ele>1808.4</ele>
      </trkpt>
      <trkpt lat="42.85041" lon="-0.48594">
        <ele>1808.6</ele>
        <time>2021-08-09 13:34:38</time>
      </trkpt>
      <trkpt lat="42.85039" lon="-0.48594">
        <ele>1808.8</ele>
        <time>2021-08-09 13:34:39</time>
      </trkpt>
      <trkpt lat="42.85039" lon="-0.48595">
        <ele>1808.8</ele>
        <time>2021-08-09 13:34:40</time>
      </trkpt>
      <trkpt lat="42.85039" lon="-0.48597">
        <ele>1809</ele>
        <time>2021-08-09 13:34:41</time>
      </trkpt>
      <trkpt lat="42.85039" lon="-0.48598">
        <ele>1809.2</ele>
        <time>2021-08-09 13:34:42</time>
      </trkpt>
      <trkpt lat="42.85038" lon="-0.48599">
        <ele>1809.2</ele>
        <time>2021-08-09 13:34:43</time>
      </trkpt>
      <trkpt lat="42.85038" lon="-0.486">
        <ele>1809.6</ele>
        <time>2021-08-09 13:34:44</time>
      </trkpt>
      <trkpt lat="42.85038" lon="-0.48601">
        <ele>1809.6</ele>
        <time>2021-08-09 13:34:45</time>
      </trkpt>
      <trkpt lat="42.85038" lon="-0.48602">
        <ele>1809.8</ele>
        <time>2021-08-09 13:34:46</time>
      </trkpt>
      <trkpt lat="42.85037" lon="-0.48603">
        <ele>1810</ele>
        <time>2021-08-09 13:34:47</time>
      </trkpt>
      <trkpt lat="42.85037" lon="-0.48604">
        <ele>1810</ele>
        <time>2021-08-09 13:34:48</time>
      </trkpt>
      <trkpt lat="42.85037" lon="-0.48604">
        <ele>1810.2</ele>
        <time>2021-08-09 13:34:49</time>
      </trkpt>
      <trkpt lat="42.85036" lon="-0.48604">
        <ele>1810.2</ele>
        <time>2021-08-09 13:34:50</time>
      </trkpt>
      <trkpt lat="42.85036" lon="-0.48605">
        <ele>1810.6</ele>
        <time>2021-08-09 13:34:51</time>
      </trkpt>
      <trkpt lat="42.85035" lon="-0.48606">
        <ele>1810.6</ele>
        <time>2021-08-09 13:34:52</time>
      </trkpt>
      <trkpt lat="42.85035" lon="-0.48606">
        <ele>1811</ele>
        <time>2021-08-09 13:34:53</time>
      </trkpt>
      <trkpt lat="42.85035" lon="-0.48607">
        <ele>1811</ele>
        <time>2021-08-09 13:34:54</time>
      </trkpt>
      <trkpt lat="42.85034" lon="-0.48608">
        <ele>1811.4</ele>
        <time>2021-08-09 13:34:55</time>
      </trkpt>
      <trkpt lat="42.85034" lon="-0.48608">
        <ele>1811.6</ele>
        <time>2021-08-09 13:34:56</time>
      </trkpt>
      <trkpt lat="42.85033" lon="-0.48609">
        <ele>1811.8</ele>
        <time>2021-08-09 13:34:57</time>
      </trkpt>
      <trkpt lat="42.85033" lon="-0.48609">
        <ele>1812</ele>
        <time>2021-08-09 13:34:58</time>
      </trkpt>
      <trkpt lat="42.85033" lon="-0.4861">
        <ele>1811.8</ele>
        <time>2021-08-09 13:34:59</time>
      </trkpt>
      <trkpt lat="42.85032" lon="-0.48611">
        <ele>1812.2</ele>
        <time>2021-08-09 13:35:00</time>
      </trkpt>
      <trkpt lat="42.85032" lon="-0.48612">
        <ele>1812.6</ele>
        <time>2021-08-09 13:35:01</time>
      </trkpt>
      <trkpt lat="42.85032" lon="-0.48613">
        <ele>1812.8</ele>
        <time>2021-08-09 13:35:02</time>
      </trkpt>
      <trkpt lat="42.85031" lon="-0.48613">
        <ele>1813.2</ele>
        <time>2021-08-09 13:35:03</time>
      </trkpt>
      <trkpt lat="42.85031" lon="-0.48614">
        <ele>1813.4</ele>
        <time>2021-08-09 13:35:04</time>
      </trkpt>
      <trkpt lat="42.85031" lon="-0.48616">
        <ele>1813.6</ele>
        <time>2021-08-09 13:35:05</time>
      </trkpt>
      <trkpt lat="42.8503" lon="-0.48617">
        <ele>1813.6</ele>
        <time>2021-08-09 13:35:06</time>
      </trkpt>
      <trkpt lat="42.85029" lon="-0.48618">
        <ele>1813.8</ele>
        <time>2021-08-09 13:35:07</time>
      </trkpt>
      <trkpt lat="42.85029" lon="-0.48618">
        <ele>1813.8</ele>
        <time>2021-08-09 13:35:08</time>
      </trkpt>
      <trkpt lat="42.85029" lon="-0.48619">
        <ele>1813.6</ele>
        <time>2021-08-09 13:35:09</time>
      </trkpt>
      <trkpt lat="42.85028" lon="-0.4862">
        <ele>1814.8</ele>
        <time>2021-08-09 13:35:10</time>
      </trkpt>
      <trkpt lat="42.85028" lon="-0.48621">
        <ele>1814.6</ele>
        <time>2021-08-09 13:35:11</time>
      </trkpt>
      <trkpt lat="42.85028" lon="-0.48621">
        <ele>1814.8</ele>
        <time>2021-08-09 13:35:12</time>
      </trkpt>
      <trkpt lat="42.85028" lon="-0.48622">
        <ele>1814.8</ele>
        <time>2021-08-09 13:35:13</time>
      </trkpt>
      <trkpt lat="42.85027" lon="-0.48622">
        <ele>1815.2</ele>
        <time>2021-08-09 13:35:14</time>
      </trkpt>
      <trkpt lat="42.85027" lon="-0.48622">
        <ele>1815.2</ele>
        <time>2021-08-09 13:35:16</time>
      </trkpt>
      <trkpt lat="42.85027" lon="-0.48622">
        <ele>1815.4</ele>
      </trkpt>
      <trkpt lat="42.85027" lon="-0.48621">
        <ele>1815.4</ele>
        <time>2021-08-09 13:35:17</time>
      </trkpt>
      <trkpt lat="42.85026" lon="-0.48621">
        <ele>1815.4</ele>
        <time>2021-08-09 13:35:18</time>
      </trkpt>
      <trkpt lat="42.85026" lon="-0.48621">
        <ele>1815.6</ele>
        <time>2021-08-09 13:35:19</time>
      </trkpt>
      <trkpt lat="42.85025" lon="-0.48622">
        <ele>1815.8</ele>
        <time>2021-08-09 13:35:20</time>
      </trkpt>
      <trkpt lat="42.85025" lon="-0.48623">
        <ele>1815.8</ele>
        <time>2021-08-09 13:35:21</time>
      </trkpt>
      <trkpt lat="42.85025" lon="-0.48623">
        <ele>1816</ele>
        <time>2021-08-09 13:35:22</time>
      </trkpt>
      <trkpt lat="42.85025" lon="-0.48623">
        <ele>1816</ele>
        <time>2021-08-09 13:35:23</time>
      </trkpt>
      <trkpt lat="42.85024" lon="-0.48625">
        <ele>1816.2</ele>
        <time>2021-08-09 13:35:24</time>
      </trkpt>
      <trkpt lat="42.85024" lon="-0.48626">
        <ele>1816.2</ele>
        <time>2021-08-09 13:35:25</time>
      </trkpt>
      <trkpt lat="42.85023" lon="-0.48628">
        <ele>1816.4</ele>
        <time>2021-08-09 13:35:26</time>
      </trkpt>
      <trkpt lat="42.85022" lon="-0.48628">
        <ele>1816.4</ele>
        <time>2021-08-09 13:35:27</time>
      </trkpt>
      <trkpt lat="42.85022" lon="-0.48629">
        <ele>1816</ele>
        <time>2021-08-09 13:35:28</time>
      </trkpt>
      <trkpt lat="42.85021" lon="-0.48628">
        <ele>1816</ele>
        <time>2021-08-09 13:35:29</time>
      </trkpt>
      <trkpt lat="42.8502" lon="-0.48628">
        <ele>1816.8</ele>
        <time>2021-08-09 13:35:30</time>
      </trkpt>
      <trkpt lat="42.85019" lon="-0.48627">
        <ele>1816.8</ele>
        <time>2021-08-09 13:35:31</time>
      </trkpt>
      <trkpt lat="42.85018" lon="-0.48628">
        <ele>1816.8</ele>
        <time>2021-08-09 13:35:32</time>
      </trkpt>
      <trkpt lat="42.85017" lon="-0.48628">
        <ele>1817</ele>
        <time>2021-08-09 13:35:33</time>
      </trkpt>
      <trkpt lat="42.85017" lon="-0.48628">
        <ele>1817.2</ele>
        <time>2021-08-09 13:35:34</time>
      </trkpt>
      <trkpt lat="42.85017" lon="-0.48628">
        <ele>1817.4</ele>
        <time>2021-08-09 13:35:35</time>
      </trkpt>
      <trkpt lat="42.85017" lon="-0.48627">
        <ele>1817.8</ele>
        <time>2021-08-09 13:35:36</time>
      </trkpt>
      <trkpt lat="42.85016" lon="-0.48628">
        <ele>1817.8</ele>
        <time>2021-08-09 13:35:37</time>
      </trkpt>
      <trkpt lat="42.85016" lon="-0.48628">
        <ele>1817.6</ele>
        <time>2021-08-09 13:35:38</time>
      </trkpt>
      <trkpt lat="42.85015" lon="-0.48628">
        <ele>1817.8</ele>
        <time>2021-08-09 13:35:39</time>
      </trkpt>
      <trkpt lat="42.85014" lon="-0.48629">
        <ele>1817.8</ele>
        <time>2021-08-09 13:35:40</time>
      </trkpt>
      <trkpt lat="42.85014" lon="-0.48629">
        <ele>1817.8</ele>
        <time>2021-08-09 13:35:41</time>
      </trkpt>
      <trkpt lat="42.85013" lon="-0.4863">
        <ele>1818</ele>
        <time>2021-08-09 13:35:42</time>
      </trkpt>
      <trkpt lat="42.85013" lon="-0.4863">
        <ele>1818</ele>
        <time>2021-08-09 13:35:43</time>
      </trkpt>
      <trkpt lat="42.85012" lon="-0.48631">
        <ele>1818.2</ele>
        <time>2021-08-09 13:35:44</time>
      </trkpt>
      <trkpt lat="42.85012" lon="-0.48631">
        <ele>1818.2</ele>
        <time>2021-08-09 13:35:45</time>
      </trkpt>
      <trkpt lat="42.85011" lon="-0.48632">
        <ele>1818.2</ele>
        <time>2021-08-09 13:35:46</time>
      </trkpt>
      <trkpt lat="42.85011" lon="-0.48632">
        <ele>1818.2</ele>
        <time>2021-08-09 13:35:47</time>
      </trkpt>
      <trkpt lat="42.85011" lon="-0.48633">
        <ele>1818.4</ele>
        <time>2021-08-09 13:35:48</time>
      </trkpt>
      <trkpt lat="42.8501" lon="-0.48633">
        <ele>1818.2</ele>
        <time>2021-08-09 13:35:49</time>
      </trkpt>
      <trkpt lat="42.8501" lon="-0.48634">
        <ele>1818.4</ele>
        <time>2021-08-09 13:35:50</time>
      </trkpt>
      <trkpt lat="42.8501" lon="-0.48635">
        <ele>1818.2</ele>
        <time>2021-08-09 13:35:51</time>
      </trkpt>
      <trkpt lat="42.8501" lon="-0.48637">
        <ele>1818.4</ele>
        <time>2021-08-09 13:35:52</time>
      </trkpt>
      <trkpt lat="42.85009" lon="-0.48637">
        <ele>1818.4</ele>
        <time>2021-08-09 13:35:53</time>
      </trkpt>
      <trkpt lat="42.85009" lon="-0.48639">
        <ele>1818.6</ele>
        <time>2021-08-09 13:35:54</time>
      </trkpt>
      <trkpt lat="42.85008" lon="-0.48639">
        <ele>1818.6</ele>
        <time>2021-08-09 13:35:55</time>
      </trkpt>
      <trkpt lat="42.85007" lon="-0.4864">
        <ele>1818.6</ele>
        <time>2021-08-09 13:35:56</time>
      </trkpt>
      <trkpt lat="42.85007" lon="-0.4864">
        <ele>1818.4</ele>
        <time>2021-08-09 13:35:57</time>
      </trkpt>
      <trkpt lat="42.85007" lon="-0.4864">
        <ele>1818.6</ele>
        <time>2021-08-09 13:35:58</time>
      </trkpt>
      <trkpt lat="42.85007" lon="-0.4864">
        <ele>1819.4</ele>
        <time>2021-08-09 13:35:59</time>
      </trkpt>
      <trkpt lat="42.85007" lon="-0.4864">
        <ele>1819.4</ele>
        <time>2021-08-09 13:36:00</time>
      </trkpt>
      <trkpt lat="42.85007" lon="-0.48641">
        <ele>1819.2</ele>
        <time>2021-08-09 13:36:01</time>
      </trkpt>
      <trkpt lat="42.85006" lon="-0.48641">
        <ele>1819.2</ele>
        <time>2021-08-09 13:36:02</time>
      </trkpt>
      <trkpt lat="42.85006" lon="-0.48642">
        <ele>1818.8</ele>
        <time>2021-08-09 13:36:03</time>
      </trkpt>
      <trkpt lat="42.85005" lon="-0.48642">
        <ele>1819</ele>
        <time>2021-08-09 13:36:04</time>
      </trkpt>
      <trkpt lat="42.85006" lon="-0.48644">
        <ele>1818.6</ele>
        <time>2021-08-09 13:36:05</time>
      </trkpt>
      <trkpt lat="42.85005" lon="-0.48644">
        <ele>1818.6</ele>
        <time>2021-08-09 13:36:06</time>
      </trkpt>
      <trkpt lat="42.85005" lon="-0.48645">
        <ele>1818.6</ele>
        <time>2021-08-09 13:36:07</time>
      </trkpt>
      <trkpt lat="42.85005" lon="-0.48647">
        <ele>1818.8</ele>
        <time>2021-08-09 13:36:08</time>
      </trkpt>
      <trkpt lat="42.85005" lon="-0.48648">
        <ele>1818.8</ele>
        <time>2021-08-09 13:36:09</time>
      </trkpt>
      <trkpt lat="42.85005" lon="-0.48649">
        <ele>1818.8</ele>
        <time>2021-08-09 13:36:10</time>
      </trkpt>
      <trkpt lat="42.85005" lon="-0.4865">
        <ele>1818.8</ele>
        <time>2021-08-09 13:36:11</time>
      </trkpt>
      <trkpt lat="42.85004" lon="-0.48651">
        <ele>1819</ele>
        <time>2021-08-09 13:36:12</time>
      </trkpt>
      <trkpt lat="42.85004" lon="-0.48652">
        <ele>1819.2</ele>
        <time>2021-08-09 13:36:13</time>
      </trkpt>
      <trkpt lat="42.85004" lon="-0.48654">
        <ele>1819.6</ele>
        <time>2021-08-09 13:36:14</time>
      </trkpt>
      <trkpt lat="42.85004" lon="-0.48655">
        <ele>1819.4</ele>
        <time>2021-08-09 13:36:15</time>
      </trkpt>
      <trkpt lat="42.85003" lon="-0.48656">
        <ele>1819.2</ele>
        <time>2021-08-09 13:36:16</time>
      </trkpt>
      <trkpt lat="42.85002" lon="-0.48657">
        <ele>1819.2</ele>
        <time>2021-08-09 13:36:17</time>
      </trkpt>
      <trkpt lat="42.85001" lon="-0.48658">
        <ele>1819</ele>
        <time>2021-08-09 13:36:18</time>
      </trkpt>
      <trkpt lat="42.85001" lon="-0.48659">
        <ele>1819.4</ele>
        <time>2021-08-09 13:36:19</time>
      </trkpt>
      <trkpt lat="42.85001" lon="-0.4866">
        <ele>1819.4</ele>
        <time>2021-08-09 13:36:20</time>
      </trkpt>
      <trkpt lat="42.85001" lon="-0.48661">
        <ele>1819.8</ele>
        <time>2021-08-09 13:36:21</time>
      </trkpt>
      <trkpt lat="42.85" lon="-0.48662">
        <ele>1819.6</ele>
        <time>2021-08-09 13:36:22</time>
      </trkpt>
      <trkpt lat="42.85" lon="-0.48663">
        <ele>1819.6</ele>
        <time>2021-08-09 13:36:23</time>
      </trkpt>
      <trkpt lat="42.84999" lon="-0.48665">
        <ele>1819.6</ele>
        <time>2021-08-09 13:36:24</time>
      </trkpt>
      <trkpt lat="42.84998" lon="-0.48666">
        <ele>1819.8</ele>
        <time>2021-08-09 13:36:25</time>
      </trkpt>
      <trkpt lat="42.84998" lon="-0.48667">
        <ele>1819.8</ele>
        <time>2021-08-09 13:36:26</time>
      </trkpt>
      <trkpt lat="42.84998" lon="-0.48668">
        <ele>1820.2</ele>
        <time>2021-08-09 13:36:27</time>
      </trkpt>
      <trkpt lat="42.84997" lon="-0.4867">
        <ele>1820.2</ele>
        <time>2021-08-09 13:36:28</time>
      </trkpt>
      <trkpt lat="42.84996" lon="-0.4867">
        <ele>1820.4</ele>
        <time>2021-08-09 13:36:29</time>
      </trkpt>
      <trkpt lat="42.84996" lon="-0.48671">
        <ele>1820.4</ele>
        <time>2021-08-09 13:36:30</time>
      </trkpt>
      <trkpt lat="42.84996" lon="-0.48672">
        <ele>1820.6</ele>
        <time>2021-08-09 13:36:31</time>
      </trkpt>
      <trkpt lat="42.84995" lon="-0.48672">
        <ele>1820.6</ele>
        <time>2021-08-09 13:36:32</time>
      </trkpt>
      <trkpt lat="42.84995" lon="-0.48673">
        <ele>1820.8</ele>
        <time>2021-08-09 13:36:33</time>
      </trkpt>
      <trkpt lat="42.84994" lon="-0.48675">
        <ele>1820.8</ele>
        <time>2021-08-09 13:36:34</time>
      </trkpt>
      <trkpt lat="42.84994" lon="-0.48676">
        <ele>1821</ele>
        <time>2021-08-09 13:36:35</time>
      </trkpt>
      <trkpt lat="42.84993" lon="-0.48677">
        <ele>1821.2</ele>
        <time>2021-08-09 13:36:36</time>
      </trkpt>
      <trkpt lat="42.84993" lon="-0.48678">
        <ele>1821.4</ele>
        <time>2021-08-09 13:36:37</time>
      </trkpt>
      <trkpt lat="42.84993" lon="-0.4868">
        <ele>1821.2</ele>
        <time>2021-08-09 13:36:38</time>
      </trkpt>
      <trkpt lat="42.84993" lon="-0.4868">
        <ele>1821.2</ele>
        <time>2021-08-09 13:36:39</time>
      </trkpt>
      <trkpt lat="42.84993" lon="-0.48681">
        <ele>1821.4</ele>
        <time>2021-08-09 13:36:40</time>
      </trkpt>
      <trkpt lat="42.84993" lon="-0.48683">
        <ele>1821.6</ele>
        <time>2021-08-09 13:36:41</time>
      </trkpt>
      <trkpt lat="42.84992" lon="-0.48683">
        <ele>1821.8</ele>
        <time>2021-08-09 13:36:42</time>
      </trkpt>
      <trkpt lat="42.84992" lon="-0.48684">
        <ele>1821.6</ele>
        <time>2021-08-09 13:36:43</time>
      </trkpt>
      <trkpt lat="42.84992" lon="-0.48685">
        <ele>1821.8</ele>
        <time>2021-08-09 13:36:44</time>
      </trkpt>
      <trkpt lat="42.84992" lon="-0.48686">
        <ele>1821.6</ele>
        <time>2021-08-09 13:36:45</time>
      </trkpt>
      <trkpt lat="42.84992" lon="-0.48686">
        <ele>1821.6</ele>
        <time>2021-08-09 13:36:46</time>
      </trkpt>
      <trkpt lat="42.84992" lon="-0.48687">
        <ele>1821.6</ele>
        <time>2021-08-09 13:36:47</time>
      </trkpt>
      <trkpt lat="42.84991" lon="-0.48687">
        <ele>1822.2</ele>
        <time>2021-08-09 13:36:48</time>
      </trkpt>
      <trkpt lat="42.8499" lon="-0.48688">
        <ele>1822.2</ele>
        <time>2021-08-09 13:36:49</time>
      </trkpt>
      <trkpt lat="42.8499" lon="-0.48689">
        <ele>1822</ele>
        <time>2021-08-09 13:36:50</time>
      </trkpt>
      <trkpt lat="42.8499" lon="-0.48689">
        <ele>1821.8</ele>
        <time>2021-08-09 13:36:51</time>
      </trkpt>
      <trkpt lat="42.8499" lon="-0.4869">
        <ele>1821.8</ele>
        <time>2021-08-09 13:36:52</time>
      </trkpt>
      <trkpt lat="42.84989" lon="-0.4869">
        <ele>1822</ele>
        <time>2021-08-09 13:36:53</time>
      </trkpt>
      <trkpt lat="42.84989" lon="-0.4869">
        <ele>1822</ele>
        <time>2021-08-09 13:36:54</time>
      </trkpt>
      <trkpt lat="42.84989" lon="-0.4869">
        <ele>1822</ele>
        <time>2021-08-09 13:36:55</time>
      </trkpt>
      <trkpt lat="42.84989" lon="-0.48689">
        <ele>1822</ele>
        <time>2021-08-09 13:36:56</time>
      </trkpt>
      <trkpt lat="42.84989" lon="-0.48689">
        <ele>1821.8</ele>
        <time>2021-08-09 13:36:57</time>
      </trkpt>
      <trkpt lat="42.84989" lon="-0.48689">
        <ele>1821.8</ele>
        <time>2021-08-09 13:36:58</time>
      </trkpt>
      <trkpt lat="42.84989" lon="-0.48689">
        <ele>1821.8</ele>
        <time>2021-08-09 13:36:59</time>
      </trkpt>
      <trkpt lat="42.84989" lon="-0.48689">
        <ele>1822</ele>
        <time>2021-08-09 13:37:00</time>
      </trkpt>
      <trkpt lat="42.84988" lon="-0.48689">
        <ele>1821.8</ele>
        <time>2021-08-09 13:37:01</time>
      </trkpt>
      <trkpt lat="42.84988" lon="-0.4869">
        <ele>1821.8</ele>
        <time>2021-08-09 13:37:02</time>
      </trkpt>
      <trkpt lat="42.84988" lon="-0.48691">
        <ele>1821.8</ele>
        <time>2021-08-09 13:37:03</time>
      </trkpt>
      <trkpt lat="42.84987" lon="-0.48691">
        <ele>1821.8</ele>
        <time>2021-08-09 13:37:04</time>
      </trkpt>
      <trkpt lat="42.84987" lon="-0.48692">
        <ele>1821.6</ele>
        <time>2021-08-09 13:37:05</time>
      </trkpt>
      <trkpt lat="42.84986" lon="-0.48693">
        <ele>1821.6</ele>
        <time>2021-08-09 13:37:06</time>
      </trkpt>
      <trkpt lat="42.84986" lon="-0.48694">
        <ele>1821.6</ele>
        <time>2021-08-09 13:37:07</time>
      </trkpt>
      <trkpt lat="42.84986" lon="-0.48695">
        <ele>1821.6</ele>
        <time>2021-08-09 13:37:08</time>
      </trkpt>
      <trkpt lat="42.84986" lon="-0.48696">
        <ele>1821.6</ele>
        <time>2021-08-09 13:37:09</time>
      </trkpt>
      <trkpt lat="42.84987" lon="-0.48698">
        <ele>1821.6</ele>
        <time>2021-08-09 13:37:10</time>
      </trkpt>
      <trkpt lat="42.84987" lon="-0.48699">
        <ele>1821.6</ele>
        <time>2021-08-09 13:37:11</time>
      </trkpt>
      <trkpt lat="42.84987" lon="-0.487">
        <ele>1821.6</ele>
        <time>2021-08-09 13:37:12</time>
      </trkpt>
      <trkpt lat="42.84987" lon="-0.48701">
        <ele>1821.6</ele>
        <time>2021-08-09 13:37:13</time>
      </trkpt>
      <trkpt lat="42.84986" lon="-0.48701">
        <ele>1821.6</ele>
        <time>2021-08-09 13:37:14</time>
      </trkpt>
      <trkpt lat="42.84986" lon="-0.48702">
        <ele>1821.6</ele>
        <time>2021-08-09 13:37:15</time>
      </trkpt>
      <trkpt lat="42.84986" lon="-0.48704">
        <ele>1821.6</ele>
        <time>2021-08-09 13:37:16</time>
      </trkpt>
      <trkpt lat="42.84985" lon="-0.48705">
        <ele>1821.6</ele>
        <time>2021-08-09 13:37:17</time>
      </trkpt>
      <trkpt lat="42.84985" lon="-0.48706">
        <ele>1821.8</ele>
        <time>2021-08-09 13:37:18</time>
      </trkpt>
      <trkpt lat="42.84984" lon="-0.48706">
        <ele>1821.8</ele>
        <time>2021-08-09 13:37:19</time>
      </trkpt>
      <trkpt lat="42.84984" lon="-0.48707">
        <ele>1821.4</ele>
        <time>2021-08-09 13:37:20</time>
      </trkpt>
      <trkpt lat="42.84983" lon="-0.48708">
        <ele>1821.4</ele>
        <time>2021-08-09 13:37:21</time>
      </trkpt>
      <trkpt lat="42.84984" lon="-0.48709">
        <ele>1821</ele>
        <time>2021-08-09 13:37:22</time>
      </trkpt>
      <trkpt lat="42.84984" lon="-0.48711">
        <ele>1821</ele>
        <time>2021-08-09 13:37:23</time>
      </trkpt>
      <trkpt lat="42.84984" lon="-0.48712">
        <ele>1821</ele>
        <time>2021-08-09 13:37:24</time>
      </trkpt>
      <trkpt lat="42.84984" lon="-0.48714">
        <ele>1821.2</ele>
        <time>2021-08-09 13:37:25</time>
      </trkpt>
      <trkpt lat="42.84984" lon="-0.48716">
        <ele>1821.2</ele>
        <time>2021-08-09 13:37:26</time>
      </trkpt>
      <trkpt lat="42.84984" lon="-0.48717">
        <ele>1821.2</ele>
        <time>2021-08-09 13:37:27</time>
      </trkpt>
      <trkpt lat="42.84984" lon="-0.48719">
        <ele>1821.4</ele>
        <time>2021-08-09 13:37:28</time>
      </trkpt>
      <trkpt lat="42.84985" lon="-0.4872">
        <ele>1821.4</ele>
        <time>2021-08-09 13:37:29</time>
      </trkpt>
      <trkpt lat="42.84984" lon="-0.48721">
        <ele>1821.4</ele>
        <time>2021-08-09 13:37:30</time>
      </trkpt>
      <trkpt lat="42.84984" lon="-0.48722">
        <ele>1821.4</ele>
        <time>2021-08-09 13:37:31</time>
      </trkpt>
      <trkpt lat="42.84984" lon="-0.48723">
        <ele>1821.6</ele>
        <time>2021-08-09 13:37:32</time>
      </trkpt>
      <trkpt lat="42.84984" lon="-0.48725">
        <ele>1821.6</ele>
        <time>2021-08-09 13:37:33</time>
      </trkpt>
      <trkpt lat="42.84984" lon="-0.48726">
        <ele>1821.6</ele>
        <time>2021-08-09 13:37:34</time>
      </trkpt>
      <trkpt lat="42.84985" lon="-0.48727">
        <ele>1822</ele>
        <time>2021-08-09 13:37:35</time>
      </trkpt>
      <trkpt lat="42.84985" lon="-0.48728">
        <ele>1822</ele>
        <time>2021-08-09 13:37:36</time>
      </trkpt>
      <trkpt lat="42.84986" lon="-0.48728">
        <ele>1822.4</ele>
        <time>2021-08-09 13:37:37</time>
      </trkpt>
      <trkpt lat="42.84986" lon="-0.48729">
        <ele>1822.2</ele>
        <time>2021-08-09 13:37:38</time>
      </trkpt>
      <trkpt lat="42.84986" lon="-0.4873">
        <ele>1822</ele>
        <time>2021-08-09 13:37:39</time>
      </trkpt>
      <trkpt lat="42.84986" lon="-0.48731">
        <ele>1821.8</ele>
        <time>2021-08-09 13:37:40</time>
      </trkpt>
      <trkpt lat="42.84986" lon="-0.48733">
        <ele>1821.6</ele>
        <time>2021-08-09 13:37:41</time>
      </trkpt>
      <trkpt lat="42.84985" lon="-0.48734">
        <ele>1821.8</ele>
        <time>2021-08-09 13:37:42</time>
      </trkpt>
      <trkpt lat="42.84985" lon="-0.48736">
        <ele>1822</ele>
        <time>2021-08-09 13:37:43</time>
      </trkpt>
      <trkpt lat="42.84985" lon="-0.48737">
        <ele>1821.8</ele>
        <time>2021-08-09 13:37:44</time>
      </trkpt>
      <trkpt lat="42.84985" lon="-0.48738">
        <ele>1821.8</ele>
        <time>2021-08-09 13:37:45</time>
      </trkpt>
      <trkpt lat="42.84984" lon="-0.4874">
        <ele>1821.6</ele>
        <time>2021-08-09 13:37:46</time>
      </trkpt>
      <trkpt lat="42.84983" lon="-0.48741">
        <ele>1821.4</ele>
        <time>2021-08-09 13:37:47</time>
      </trkpt>
      <trkpt lat="42.84983" lon="-0.48742">
        <ele>1821</ele>
        <time>2021-08-09 13:37:48</time>
      </trkpt>
      <trkpt lat="42.84983" lon="-0.48743">
        <ele>1820.8</ele>
        <time>2021-08-09 13:37:49</time>
      </trkpt>
      <trkpt lat="42.84983" lon="-0.48746">
        <ele>1820.6</ele>
        <time>2021-08-09 13:37:50</time>
      </trkpt>
      <trkpt lat="42.84982" lon="-0.48747">
        <ele>1820.4</ele>
        <time>2021-08-09 13:37:51</time>
      </trkpt>
      <trkpt lat="42.84982" lon="-0.48749">
        <ele>1820.2</ele>
        <time>2021-08-09 13:37:52</time>
      </trkpt>
      <trkpt lat="42.84981" lon="-0.4875">
        <ele>1820</ele>
        <time>2021-08-09 13:37:53</time>
      </trkpt>
      <trkpt lat="42.84981" lon="-0.48751">
        <ele>1820</ele>
        <time>2021-08-09 13:37:54</time>
      </trkpt>
      <trkpt lat="42.84981" lon="-0.48753">
        <ele>1820</ele>
        <time>2021-08-09 13:37:55</time>
      </trkpt>
      <trkpt lat="42.8498" lon="-0.48754">
        <ele>1819.8</ele>
        <time>2021-08-09 13:37:56</time>
      </trkpt>
      <trkpt lat="42.8498" lon="-0.48756">
        <ele>1819.6</ele>
        <time>2021-08-09 13:37:57</time>
      </trkpt>
      <trkpt lat="42.8498" lon="-0.48757">
        <ele>1819.4</ele>
        <time>2021-08-09 13:37:58</time>
      </trkpt>
      <trkpt lat="42.8498" lon="-0.48759">
        <ele>1819.2</ele>
        <time>2021-08-09 13:37:59</time>
      </trkpt>
      <trkpt lat="42.84979" lon="-0.4876">
        <ele>1819.2</ele>
        <time>2021-08-09 13:38:00</time>
      </trkpt>
      <trkpt lat="42.84978" lon="-0.48762">
        <ele>1819.6</ele>
        <time>2021-08-09 13:38:01</time>
      </trkpt>
      <trkpt lat="42.84977" lon="-0.48764">
        <ele>1819.6</ele>
        <time>2021-08-09 13:38:02</time>
      </trkpt>
      <trkpt lat="42.84976" lon="-0.48765">
        <ele>1819.8</ele>
        <time>2021-08-09 13:38:03</time>
      </trkpt>
      <trkpt lat="42.84976" lon="-0.48766">
        <ele>1819.4</ele>
        <time>2021-08-09 13:38:04</time>
      </trkpt>
      <trkpt lat="42.84975" lon="-0.48767">
        <ele>1819.4</ele>
        <time>2021-08-09 13:38:10</time>
      </trkpt>
      <trkpt lat="42.84974" lon="-0.48768">
        <ele>1819.2</ele>
        <time>2021-08-09 13:38:11</time>
      </trkpt>
      <trkpt lat="42.84973" lon="-0.48769">
        <ele>1819</ele>
        <time>2021-08-09 13:38:12</time>
      </trkpt>
      <trkpt lat="42.84973" lon="-0.48769">
        <ele>1819</ele>
        <time>2021-08-09 13:38:13</time>
      </trkpt>
      <trkpt lat="42.84972" lon="-0.4877">
        <ele>1818.6</ele>
        <time>2021-08-09 13:38:14</time>
      </trkpt>
      <trkpt lat="42.84972" lon="-0.48772">
        <ele>1818.4</ele>
        <time>2021-08-09 13:38:15</time>
      </trkpt>
      <trkpt lat="42.84971" lon="-0.48772">
        <ele>1818.4</ele>
        <time>2021-08-09 13:38:16</time>
      </trkpt>
      <trkpt lat="42.84971" lon="-0.48773">
        <ele>1818.2</ele>
        <time>2021-08-09 13:38:17</time>
      </trkpt>
      <trkpt lat="42.8497" lon="-0.48774">
        <ele>1817.6</ele>
        <time>2021-08-09 13:38:18</time>
      </trkpt>
      <trkpt lat="42.8497" lon="-0.48775">
        <ele>1818</ele>
        <time>2021-08-09 13:38:19</time>
      </trkpt>
      <trkpt lat="42.8497" lon="-0.48777">
        <ele>1818.6</ele>
        <time>2021-08-09 13:38:20</time>
      </trkpt>
      <trkpt lat="42.8497" lon="-0.48779">
        <ele>1819</ele>
        <time>2021-08-09 13:38:21</time>
      </trkpt>
      <trkpt lat="42.8497" lon="-0.4878">
        <ele>1818.6</ele>
        <time>2021-08-09 13:38:22</time>
      </trkpt>
      <trkpt lat="42.8497" lon="-0.48782">
        <ele>1818.2</ele>
        <time>2021-08-09 13:38:23</time>
      </trkpt>
      <trkpt lat="42.8497" lon="-0.48783">
        <ele>1818.4</ele>
        <time>2021-08-09 13:38:24</time>
      </trkpt>
      <trkpt lat="42.84969" lon="-0.48784">
        <ele>1818.2</ele>
        <time>2021-08-09 13:38:25</time>
      </trkpt>
      <trkpt lat="42.84968" lon="-0.48786">
        <ele>1818.4</ele>
        <time>2021-08-09 13:38:26</time>
      </trkpt>
      <trkpt lat="42.84968" lon="-0.48788">
        <ele>1818.6</ele>
        <time>2021-08-09 13:38:27</time>
      </trkpt>
      <trkpt lat="42.84968" lon="-0.48789">
        <ele>1818.4</ele>
        <time>2021-08-09 13:38:28</time>
      </trkpt>
      <trkpt lat="42.84968" lon="-0.4879">
        <ele>1818.8</ele>
        <time>2021-08-09 13:38:29</time>
      </trkpt>
      <trkpt lat="42.84968" lon="-0.48791">
        <ele>1819</ele>
        <time>2021-08-09 13:38:30</time>
      </trkpt>
      <trkpt lat="42.84968" lon="-0.48792">
        <ele>1819.2</ele>
        <time>2021-08-09 13:38:31</time>
      </trkpt>
      <trkpt lat="42.84968" lon="-0.48792">
        <ele>1819.4</ele>
        <time>2021-08-09 13:38:32</time>
      </trkpt>
      <trkpt lat="42.84968" lon="-0.48793">
        <ele>1819.6</ele>
        <time>2021-08-09 13:38:33</time>
      </trkpt>
      <trkpt lat="42.84969" lon="-0.48794">
        <ele>1819.6</ele>
        <time>2021-08-09 13:38:34</time>
      </trkpt>
      <trkpt lat="42.84969" lon="-0.48794">
        <ele>1819.6</ele>
        <time>2021-08-09 13:38:35</time>
      </trkpt>
      <trkpt lat="42.8497" lon="-0.48795">
        <ele>1819.8</ele>
        <time>2021-08-09 13:38:36</time>
      </trkpt>
      <trkpt lat="42.84971" lon="-0.48796">
        <ele>1820</ele>
        <time>2021-08-09 13:38:37</time>
      </trkpt>
      <trkpt lat="42.84971" lon="-0.48797">
        <ele>1820.2</ele>
        <time>2021-08-09 13:38:38</time>
      </trkpt>
      <trkpt lat="42.84971" lon="-0.48798">
        <ele>1820.2</ele>
        <time>2021-08-09 13:38:39</time>
      </trkpt>
      <trkpt lat="42.84971" lon="-0.48799">
        <ele>1820.4</ele>
        <time>2021-08-09 13:38:40</time>
      </trkpt>
      <trkpt lat="42.84971" lon="-0.48801">
        <ele>1820.4</ele>
        <time>2021-08-09 13:38:41</time>
      </trkpt>
      <trkpt lat="42.84971" lon="-0.48802">
        <ele>1820.4</ele>
        <time>2021-08-09 13:38:42</time>
      </trkpt>
      <trkpt lat="42.84971" lon="-0.48802">
        <ele>1820.2</ele>
        <time>2021-08-09 13:38:43</time>
      </trkpt>
      <trkpt lat="42.84971" lon="-0.48802">
        <ele>1820</ele>
        <time>2021-08-09 13:38:44</time>
      </trkpt>
      <trkpt lat="42.84971" lon="-0.48802">
        <ele>1820.4</ele>
        <time>2021-08-09 13:38:45</time>
      </trkpt>
      <trkpt lat="42.84971" lon="-0.48802">
        <ele>1820.2</ele>
        <time>2021-08-09 13:38:46</time>
      </trkpt>
      <trkpt lat="42.84971" lon="-0.48803">
        <ele>1820.2</ele>
        <time>2021-08-09 13:38:47</time>
      </trkpt>
      <trkpt lat="42.84972" lon="-0.48803">
        <ele>1820.4</ele>
        <time>2021-08-09 13:38:48</time>
      </trkpt>
      <trkpt lat="42.84972" lon="-0.48804">
        <ele>1819.2</ele>
        <time>2021-08-09 13:38:49</time>
      </trkpt>
      <trkpt lat="42.84971" lon="-0.48804">
        <ele>1819.2</ele>
        <time>2021-08-09 13:38:50</time>
      </trkpt>
      <trkpt lat="42.8497" lon="-0.48805">
        <ele>1820.4</ele>
        <time>2021-08-09 13:38:51</time>
      </trkpt>
      <trkpt lat="42.84969" lon="-0.48805">
        <ele>1820</ele>
        <time>2021-08-09 13:38:52</time>
      </trkpt>
      <trkpt lat="42.84969" lon="-0.48806">
        <ele>1820</ele>
        <time>2021-08-09 13:38:53</time>
      </trkpt>
      <trkpt lat="42.84969" lon="-0.48807">
        <ele>1819.6</ele>
        <time>2021-08-09 13:38:54</time>
      </trkpt>
      <trkpt lat="42.84969" lon="-0.48808">
        <ele>1819.6</ele>
        <time>2021-08-09 13:38:55</time>
      </trkpt>
      <trkpt lat="42.84969" lon="-0.48808">
        <ele>1819.8</ele>
        <time>2021-08-09 13:38:56</time>
      </trkpt>
      <trkpt lat="42.84968" lon="-0.48809">
        <ele>1820</ele>
        <time>2021-08-09 13:38:57</time>
      </trkpt>
      <trkpt lat="42.84969" lon="-0.4881">
        <ele>1819.8</ele>
        <time>2021-08-09 13:38:58</time>
      </trkpt>
      <trkpt lat="42.84968" lon="-0.48811">
        <ele>1819.8</ele>
        <time>2021-08-09 13:38:59</time>
      </trkpt>
      <trkpt lat="42.84969" lon="-0.48812">
        <ele>1820.4</ele>
        <time>2021-08-09 13:39:00</time>
      </trkpt>
      <trkpt lat="42.84968" lon="-0.48813">
        <ele>1820.2</ele>
        <time>2021-08-09 13:39:01</time>
      </trkpt>
      <trkpt lat="42.84968" lon="-0.48814">
        <ele>1820.2</ele>
        <time>2021-08-09 13:39:02</time>
      </trkpt>
      <trkpt lat="42.84968" lon="-0.48815">
        <ele>1818.8</ele>
        <time>2021-08-09 13:39:03</time>
      </trkpt>
      <trkpt lat="42.84968" lon="-0.48816">
        <ele>1818.8</ele>
        <time>2021-08-09 13:39:04</time>
      </trkpt>
      <trkpt lat="42.84968" lon="-0.48818">
        <ele>1819.8</ele>
        <time>2021-08-09 13:39:05</time>
      </trkpt>
      <trkpt lat="42.84968" lon="-0.48819">
        <ele>1819.8</ele>
        <time>2021-08-09 13:39:06</time>
      </trkpt>
      <trkpt lat="42.84969" lon="-0.4882">
        <ele>1820</ele>
        <time>2021-08-09 13:39:07</time>
      </trkpt>
      <trkpt lat="42.84969" lon="-0.48821">
        <ele>1819.8</ele>
        <time>2021-08-09 13:39:08</time>
      </trkpt>
      <trkpt lat="42.84969" lon="-0.48822">
        <ele>1819.8</ele>
        <time>2021-08-09 13:39:09</time>
      </trkpt>
      <trkpt lat="42.84968" lon="-0.48823">
        <ele>1819</ele>
        <time>2021-08-09 13:39:10</time>
      </trkpt>
      <trkpt lat="42.84968" lon="-0.48824">
        <ele>1818.8</ele>
        <time>2021-08-09 13:39:11</time>
      </trkpt>
      <trkpt lat="42.84968" lon="-0.48825">
        <ele>1818.6</ele>
        <time>2021-08-09 13:39:12</time>
      </trkpt>
      <trkpt lat="42.84967" lon="-0.48826">
        <ele>1818.4</ele>
        <time>2021-08-09 13:39:13</time>
      </trkpt>
      <trkpt lat="42.84966" lon="-0.48827">
        <ele>1818.4</ele>
        <time>2021-08-09 13:39:14</time>
      </trkpt>
      <trkpt lat="42.84966" lon="-0.48828">
        <ele>1818.2</ele>
        <time>2021-08-09 13:39:15</time>
      </trkpt>
      <trkpt lat="42.84966" lon="-0.48829">
        <ele>1818</ele>
        <time>2021-08-09 13:39:16</time>
      </trkpt>
      <trkpt lat="42.84966" lon="-0.4883">
        <ele>1818.4</ele>
        <time>2021-08-09 13:39:17</time>
      </trkpt>
      <trkpt lat="42.84966" lon="-0.4883">
        <ele>1818</ele>
        <time>2021-08-09 13:39:18</time>
      </trkpt>
      <trkpt lat="42.84966" lon="-0.48832">
        <ele>1818</ele>
        <time>2021-08-09 13:39:19</time>
      </trkpt>
      <trkpt lat="42.84965" lon="-0.48833">
        <ele>1817.8</ele>
        <time>2021-08-09 13:39:20</time>
      </trkpt>
      <trkpt lat="42.84965" lon="-0.48834">
        <ele>1818</ele>
        <time>2021-08-09 13:39:21</time>
      </trkpt>
      <trkpt lat="42.84965" lon="-0.48834">
        <ele>1817</ele>
        <time>2021-08-09 13:39:22</time>
      </trkpt>
      <trkpt lat="42.84964" lon="-0.48835">
        <ele>1817.2</ele>
        <time>2021-08-09 13:39:23</time>
      </trkpt>
      <trkpt lat="42.84963" lon="-0.48836">
        <ele>1817.2</ele>
        <time>2021-08-09 13:39:24</time>
      </trkpt>
      <trkpt lat="42.84961" lon="-0.48838">
        <ele>1817.2</ele>
        <time>2021-08-09 13:39:25</time>
      </trkpt>
      <trkpt lat="42.8496" lon="-0.48839">
        <ele>1817</ele>
        <time>2021-08-09 13:39:26</time>
      </trkpt>
      <trkpt lat="42.84959" lon="-0.4884">
        <ele>1817</ele>
        <time>2021-08-09 13:39:27</time>
      </trkpt>
      <trkpt lat="42.84958" lon="-0.48841">
        <ele>1817.2</ele>
        <time>2021-08-09 13:39:28</time>
      </trkpt>
      <trkpt lat="42.84958" lon="-0.48841">
        <ele>1817</ele>
        <time>2021-08-09 13:39:29</time>
      </trkpt>
      <trkpt lat="42.84957" lon="-0.48842">
        <ele>1817.2</ele>
        <time>2021-08-09 13:39:30</time>
      </trkpt>
      <trkpt lat="42.84957" lon="-0.48843">
        <ele>1817.2</ele>
        <time>2021-08-09 13:39:31</time>
      </trkpt>
      <trkpt lat="42.84956" lon="-0.48844">
        <ele>1817.6</ele>
        <time>2021-08-09 13:39:32</time>
      </trkpt>
      <trkpt lat="42.84956" lon="-0.48845">
        <ele>1817.6</ele>
        <time>2021-08-09 13:39:33</time>
      </trkpt>
      <trkpt lat="42.84955" lon="-0.48846">
        <ele>1817.6</ele>
        <time>2021-08-09 13:39:34</time>
      </trkpt>
      <trkpt lat="42.84955" lon="-0.48847">
        <ele>1817.8</ele>
        <time>2021-08-09 13:39:35</time>
      </trkpt>
      <trkpt lat="42.84954" lon="-0.48847">
        <ele>1818</ele>
        <time>2021-08-09 13:39:36</time>
      </trkpt>
      <trkpt lat="42.84954" lon="-0.48848">
        <ele>1818</ele>
        <time>2021-08-09 13:39:37</time>
      </trkpt>
      <trkpt lat="42.84953" lon="-0.48849">
        <ele>1817.8</ele>
        <time>2021-08-09 13:39:38</time>
      </trkpt>
      <trkpt lat="42.84953" lon="-0.48851">
        <ele>1817.8</ele>
        <time>2021-08-09 13:39:39</time>
      </trkpt>
      <trkpt lat="42.84952" lon="-0.48852">
        <ele>1817.4</ele>
        <time>2021-08-09 13:39:40</time>
      </trkpt>
      <trkpt lat="42.84952" lon="-0.48853">
        <ele>1817.4</ele>
        <time>2021-08-09 13:39:41</time>
      </trkpt>
      <trkpt lat="42.84951" lon="-0.48854">
        <ele>1817.4</ele>
        <time>2021-08-09 13:39:42</time>
      </trkpt>
      <trkpt lat="42.84951" lon="-0.48856">
        <ele>1817.4</ele>
        <time>2021-08-09 13:39:43</time>
      </trkpt>
      <trkpt lat="42.8495" lon="-0.48856">
        <ele>1817.4</ele>
        <time>2021-08-09 13:39:44</time>
      </trkpt>
      <trkpt lat="42.84949" lon="-0.48857">
        <ele>1817.2</ele>
        <time>2021-08-09 13:39:45</time>
      </trkpt>
      <trkpt lat="42.84949" lon="-0.48858">
        <ele>1817</ele>
        <time>2021-08-09 13:39:46</time>
      </trkpt>
      <trkpt lat="42.84948" lon="-0.48859">
        <ele>1817</ele>
        <time>2021-08-09 13:39:47</time>
      </trkpt>
      <trkpt lat="42.84948" lon="-0.48859">
        <ele>1816.8</ele>
        <time>2021-08-09 13:39:48</time>
      </trkpt>
      <trkpt lat="42.84947" lon="-0.4886">
        <ele>1816.8</ele>
        <time>2021-08-09 13:39:49</time>
      </trkpt>
      <trkpt lat="42.84947" lon="-0.4886">
        <ele>1816.6</ele>
        <time>2021-08-09 13:39:50</time>
      </trkpt>
      <trkpt lat="42.84946" lon="-0.48863">
        <ele>1817.6</ele>
        <time>2021-08-09 13:39:51</time>
      </trkpt>
      <trkpt lat="42.84946" lon="-0.48863">
        <ele>1817.6</ele>
        <time>2021-08-09 13:39:52</time>
      </trkpt>
      <trkpt lat="42.84945" lon="-0.48864">
        <ele>1817.8</ele>
        <time>2021-08-09 13:39:53</time>
      </trkpt>
      <trkpt lat="42.84944" lon="-0.48864">
        <ele>1818</ele>
        <time>2021-08-09 13:39:54</time>
      </trkpt>
      <trkpt lat="42.84944" lon="-0.48864">
        <ele>1818</ele>
        <time>2021-08-09 13:39:56</time>
      </trkpt>
      <trkpt lat="42.84943" lon="-0.48865">
        <ele>1818</ele>
        <time>2021-08-09 13:39:57</time>
      </trkpt>
      <trkpt lat="42.84943" lon="-0.48865">
        <ele>1818.2</ele>
        <time>2021-08-09 13:39:58</time>
      </trkpt>
      <trkpt lat="42.84942" lon="-0.48866">
        <ele>1818.2</ele>
        <time>2021-08-09 13:39:59</time>
      </trkpt>
      <trkpt lat="42.84942" lon="-0.48865">
        <ele>1817.6</ele>
      </trkpt>
      <trkpt lat="42.84941" lon="-0.48865">
        <ele>1817.4</ele>
        <time>2021-08-09 13:40:01</time>
      </trkpt>
      <trkpt lat="42.84941" lon="-0.48865">
        <ele>1817</ele>
        <time>2021-08-09 13:40:02</time>
      </trkpt>
      <trkpt lat="42.84941" lon="-0.48866">
        <ele>1817</ele>
        <time>2021-08-09 13:40:03</time>
      </trkpt>
      <trkpt lat="42.84941" lon="-0.48867">
        <ele>1817.2</ele>
        <time>2021-08-09 13:40:04</time>
      </trkpt>
      <trkpt lat="42.84941" lon="-0.48867">
        <ele>1817.4</ele>
        <time>2021-08-09 13:40:05</time>
      </trkpt>
      <trkpt lat="42.84941" lon="-0.48867">
        <ele>1817.4</ele>
        <time>2021-08-09 13:40:06</time>
      </trkpt>
      <trkpt lat="42.84941" lon="-0.48867">
        <ele>1816.8</ele>
        <time>2021-08-09 13:40:07</time>
      </trkpt>
      <trkpt lat="42.84941" lon="-0.48866">
        <ele>1816.8</ele>
        <time>2021-08-09 13:40:08</time>
      </trkpt>
      <trkpt lat="42.84941" lon="-0.48866">
        <ele>1817</ele>
        <time>2021-08-09 13:40:09</time>
      </trkpt>
      <trkpt lat="42.84941" lon="-0.48866">
        <ele>1816.8</ele>
        <time>2021-08-09 13:40:10</time>
      </trkpt>
      <trkpt lat="42.84941" lon="-0.48867">
        <ele>1816.8</ele>
        <time>2021-08-09 13:40:11</time>
      </trkpt>
      <trkpt lat="42.84941" lon="-0.48868">
        <ele>1816.8</ele>
        <time>2021-08-09 13:40:12</time>
      </trkpt>
      <trkpt lat="42.84941" lon="-0.48869">
        <ele>1817</ele>
        <time>2021-08-09 13:40:13</time>
      </trkpt>
      <trkpt lat="42.84941" lon="-0.4887">
        <ele>1817</ele>
        <time>2021-08-09 13:40:14</time>
      </trkpt>
      <trkpt lat="42.84941" lon="-0.48871">
        <ele>1817</ele>
        <time>2021-08-09 13:40:15</time>
      </trkpt>
      <trkpt lat="42.84942" lon="-0.48872">
        <ele>1817.2</ele>
        <time>2021-08-09 13:40:16</time>
      </trkpt>
      <trkpt lat="42.84942" lon="-0.48874">
        <ele>1817</ele>
        <time>2021-08-09 13:40:17</time>
      </trkpt>
      <trkpt lat="42.84942" lon="-0.48875">
        <ele>1817.2</ele>
        <time>2021-08-09 13:40:18</time>
      </trkpt>
      <trkpt lat="42.84942" lon="-0.48876">
        <ele>1817.4</ele>
        <time>2021-08-09 13:40:19</time>
      </trkpt>
      <trkpt lat="42.84942" lon="-0.48877">
        <ele>1817.4</ele>
        <time>2021-08-09 13:40:20</time>
      </trkpt>
      <trkpt lat="42.84942" lon="-0.48878">
        <ele>1817.4</ele>
        <time>2021-08-09 13:40:21</time>
      </trkpt>
      <trkpt lat="42.84942" lon="-0.48879">
        <ele>1817.4</ele>
        <time>2021-08-09 13:40:22</time>
      </trkpt>
      <trkpt lat="42.84942" lon="-0.4888">
        <ele>1817.4</ele>
        <time>2021-08-09 13:40:23</time>
      </trkpt>
      <trkpt lat="42.84943" lon="-0.48881">
        <ele>1817.6</ele>
        <time>2021-08-09 13:40:24</time>
      </trkpt>
      <trkpt lat="42.84943" lon="-0.48882">
        <ele>1817.8</ele>
        <time>2021-08-09 13:40:25</time>
      </trkpt>
      <trkpt lat="42.84943" lon="-0.48883">
        <ele>1817.8</ele>
        <time>2021-08-09 13:40:26</time>
      </trkpt>
      <trkpt lat="42.84942" lon="-0.48884">
        <ele>1818</ele>
        <time>2021-08-09 13:40:27</time>
      </trkpt>
      <trkpt lat="42.84942" lon="-0.48885">
        <ele>1818</ele>
        <time>2021-08-09 13:40:28</time>
      </trkpt>
      <trkpt lat="42.84942" lon="-0.48886">
        <ele>1818.2</ele>
        <time>2021-08-09 13:40:29</time>
      </trkpt>
      <trkpt lat="42.84942" lon="-0.48887">
        <ele>1818.2</ele>
        <time>2021-08-09 13:40:30</time>
      </trkpt>
      <trkpt lat="42.84942" lon="-0.48888">
        <ele>1818.2</ele>
        <time>2021-08-09 13:40:31</time>
      </trkpt>
      <trkpt lat="42.84942" lon="-0.48889">
        <ele>1818.2</ele>
        <time>2021-08-09 13:40:32</time>
      </trkpt>
      <trkpt lat="42.84943" lon="-0.4889">
        <ele>1818.2</ele>
        <time>2021-08-09 13:40:33</time>
      </trkpt>
      <trkpt lat="42.84943" lon="-0.48891">
        <ele>1818.4</ele>
        <time>2021-08-09 13:40:34</time>
      </trkpt>
      <trkpt lat="42.84943" lon="-0.48892">
        <ele>1818.6</ele>
        <time>2021-08-09 13:40:35</time>
      </trkpt>
      <trkpt lat="42.84943" lon="-0.48893">
        <ele>1818.8</ele>
      </trkpt>
      <trkpt lat="42.84944" lon="-0.48894">
        <ele>1818.8</ele>
        <time>2021-08-09 13:40:37</time>
      </trkpt>
      <trkpt lat="42.84944" lon="-0.48895">
        <ele>1818.8</ele>
      </trkpt>
      <trkpt lat="42.84944" lon="-0.48895">
        <ele>1818.8</ele>
        <time>2021-08-09 13:40:38</time>
      </trkpt>
      <trkpt lat="42.84945" lon="-0.48896">
        <ele>1819</ele>
        <time>2021-08-09 13:40:39</time>
      </trkpt>
      <trkpt lat="42.84945" lon="-0.48897">
        <ele>1819.2</ele>
        <time>2021-08-09 13:40:40</time>
      </trkpt>
      <trkpt lat="42.84945" lon="-0.48898">
        <ele>1819.2</ele>
        <time>2021-08-09 13:40:41</time>
      </trkpt>
      <trkpt lat="42.84946" lon="-0.48899">
        <ele>1819.2</ele>
        <time>2021-08-09 13:40:42</time>
      </trkpt>
      <trkpt lat="42.84946" lon="-0.489">
        <ele>1819.4</ele>
        <time>2021-08-09 13:40:43</time>
      </trkpt>
      <trkpt lat="42.84946" lon="-0.48901">
        <ele>1819.6</ele>
        <time>2021-08-09 13:40:44</time>
      </trkpt>
      <trkpt lat="42.84946" lon="-0.48903">
        <ele>1819.6</ele>
        <time>2021-08-09 13:40:45</time>
      </trkpt>
      <trkpt lat="42.84946" lon="-0.48904">
        <ele>1819.4</ele>
        <time>2021-08-09 13:40:46</time>
      </trkpt>
      <trkpt lat="42.84947" lon="-0.48905">
        <ele>1819.6</ele>
        <time>2021-08-09 13:40:47</time>
      </trkpt>
      <trkpt lat="42.84947" lon="-0.48905">
        <ele>1819.6</ele>
        <time>2021-08-09 13:40:48</time>
      </trkpt>
      <trkpt lat="42.84947" lon="-0.48906">
        <ele>1819.8</ele>
        <time>2021-08-09 13:40:49</time>
      </trkpt>
      <trkpt lat="42.84946" lon="-0.48907">
        <ele>1819.8</ele>
        <time>2021-08-09 13:40:50</time>
      </trkpt>
      <trkpt lat="42.84946" lon="-0.48908">
        <ele>1819.6</ele>
        <time>2021-08-09 13:40:51</time>
      </trkpt>
      <trkpt lat="42.84946" lon="-0.48909">
        <ele>1819.6</ele>
        <time>2021-08-09 13:40:52</time>
      </trkpt>
      <trkpt lat="42.84946" lon="-0.48911">
        <ele>1819.6</ele>
        <time>2021-08-09 13:40:53</time>
      </trkpt>
      <trkpt lat="42.84946" lon="-0.48912">
        <ele>1819.4</ele>
        <time>2021-08-09 13:40:54</time>
      </trkpt>
      <trkpt lat="42.84946" lon="-0.48913">
        <ele>1819.6</ele>
        <time>2021-08-09 13:40:56</time>
      </trkpt>
      <trkpt lat="42.84946" lon="-0.48914">
        <ele>1819.8</ele>
      </trkpt>
      <trkpt lat="42.84946" lon="-0.48915">
        <ele>1819.8</ele>
        <time>2021-08-09 13:40:57</time>
      </trkpt>
      <trkpt lat="42.84947" lon="-0.48916">
        <ele>1819.8</ele>
        <time>2021-08-09 13:40:58</time>
      </trkpt>
      <trkpt lat="42.84947" lon="-0.48917">
        <ele>1819.8</ele>
        <time>2021-08-09 13:40:59</time>
      </trkpt>
      <trkpt lat="42.84947" lon="-0.48919">
        <ele>1820</ele>
        <time>2021-08-09 13:41:00</time>
      </trkpt>
      <trkpt lat="42.84946" lon="-0.4892">
        <ele>1820</ele>
        <time>2021-08-09 13:41:01</time>
      </trkpt>
      <trkpt lat="42.84946" lon="-0.48921">
        <ele>1820.4</ele>
        <time>2021-08-09 13:41:02</time>
      </trkpt>
      <trkpt lat="42.84946" lon="-0.48922">
        <ele>1820.6</ele>
        <time>2021-08-09 13:41:03</time>
      </trkpt>
      <trkpt lat="42.84946" lon="-0.48923">
        <ele>1820.6</ele>
        <time>2021-08-09 13:41:17</time>
      </trkpt>
      <trkpt lat="42.84946" lon="-0.48924">
        <ele>1820.4</ele>
        <time>2021-08-09 13:41:18</time>
      </trkpt>
      <trkpt lat="42.84946" lon="-0.48924">
        <ele>1820.2</ele>
        <time>2021-08-09 13:41:19</time>
      </trkpt>
      <trkpt lat="42.84947" lon="-0.48924">
        <ele>1820.6</ele>
        <time>2021-08-09 13:41:20</time>
      </trkpt>
      <trkpt lat="42.84948" lon="-0.48924">
        <ele>1821</ele>
        <time>2021-08-09 13:41:21</time>
      </trkpt>
      <trkpt lat="42.84949" lon="-0.48924">
        <ele>1821.4</ele>
        <time>2021-08-09 13:41:22</time>
      </trkpt>
      <trkpt lat="42.8495" lon="-0.48924">
        <ele>1821.6</ele>
        <time>2021-08-09 13:41:23</time>
      </trkpt>
      <trkpt lat="42.8495" lon="-0.48924">
        <ele>1821.4</ele>
        <time>2021-08-09 13:41:24</time>
      </trkpt>
      <trkpt lat="42.8495" lon="-0.48923">
        <ele>1821.6</ele>
        <time>2021-08-09 13:41:25</time>
      </trkpt>
      <trkpt lat="42.8495" lon="-0.48923">
        <ele>1821.6</ele>
        <time>2021-08-09 13:41:26</time>
      </trkpt>
      <trkpt lat="42.8495" lon="-0.48923">
        <ele>1821.8</ele>
        <time>2021-08-09 13:41:27</time>
      </trkpt>
      <trkpt lat="42.84949" lon="-0.48924">
        <ele>1821.6</ele>
        <time>2021-08-09 13:41:31</time>
      </trkpt>
      <trkpt lat="42.84949" lon="-0.48924">
        <ele>1821.6</ele>
        <time>2021-08-09 13:41:32</time>
      </trkpt>
      <trkpt lat="42.8495" lon="-0.48924">
        <ele>1821.8</ele>
        <time>2021-08-09 13:41:33</time>
      </trkpt>
      <trkpt lat="42.8495" lon="-0.48924">
        <ele>1821.8</ele>
        <time>2021-08-09 13:41:34</time>
      </trkpt>
      <trkpt lat="42.84951" lon="-0.48924">
        <ele>1822</ele>
        <time>2021-08-09 13:41:36</time>
      </trkpt>
      <trkpt lat="42.84951" lon="-0.48925">
        <ele>1821.8</ele>
        <time>2021-08-09 13:41:37</time>
      </trkpt>
      <trkpt lat="42.84951" lon="-0.48925">
        <ele>1822.2</ele>
        <time>2021-08-09 13:41:38</time>
      </trkpt>
      <trkpt lat="42.84951" lon="-0.48926">
        <ele>1822.4</ele>
        <time>2021-08-09 13:41:39</time>
      </trkpt>
      <trkpt lat="42.84951" lon="-0.48925">
        <ele>1822.4</ele>
        <time>2021-08-09 13:41:40</time>
      </trkpt>
      <trkpt lat="42.84949" lon="-0.48926">
        <ele>1822</ele>
        <time>2021-08-09 13:41:41</time>
      </trkpt>
      <trkpt lat="42.8495" lon="-0.48926">
        <ele>1822</ele>
        <time>2021-08-09 13:41:42</time>
      </trkpt>
      <trkpt lat="42.84951" lon="-0.48927">
        <ele>1822</ele>
        <time>2021-08-09 13:41:43</time>
      </trkpt>
      <trkpt lat="42.84951" lon="-0.48929">
        <ele>1821.8</ele>
        <time>2021-08-09 13:41:44</time>
      </trkpt>
      <trkpt lat="42.84951" lon="-0.4893">
        <ele>1821.6</ele>
        <time>2021-08-09 13:41:45</time>
      </trkpt>
      <trkpt lat="42.84951" lon="-0.48931">
        <ele>1821.4</ele>
        <time>2021-08-09 13:41:46</time>
      </trkpt>
      <trkpt lat="42.84951" lon="-0.48932">
        <ele>1821.4</ele>
        <time>2021-08-09 13:41:47</time>
      </trkpt>
      <trkpt lat="42.84951" lon="-0.48934">
        <ele>1821.6</ele>
        <time>2021-08-09 13:41:48</time>
      </trkpt>
      <trkpt lat="42.84951" lon="-0.48935">
        <ele>1821.6</ele>
        <time>2021-08-09 13:41:49</time>
      </trkpt>
      <trkpt lat="42.84951" lon="-0.48936">
        <ele>1821.6</ele>
        <time>2021-08-09 13:41:50</time>
      </trkpt>
      <trkpt lat="42.84951" lon="-0.48937">
        <ele>1821.6</ele>
        <time>2021-08-09 13:41:51</time>
      </trkpt>
      <trkpt lat="42.84951" lon="-0.48939">
        <ele>1821.6</ele>
        <time>2021-08-09 13:41:52</time>
      </trkpt>
      <trkpt lat="42.84951" lon="-0.4894">
        <ele>1821.6</ele>
        <time>2021-08-09 13:41:53</time>
      </trkpt>
      <trkpt lat="42.8495" lon="-0.48942">
        <ele>1821.8</ele>
        <time>2021-08-09 13:41:54</time>
      </trkpt>
      <trkpt lat="42.8495" lon="-0.48943">
        <ele>1822</ele>
        <time>2021-08-09 13:41:55</time>
      </trkpt>
      <trkpt lat="42.84949" lon="-0.48944">
        <ele>1821.8</ele>
        <time>2021-08-09 13:41:56</time>
      </trkpt>
      <trkpt lat="42.84949" lon="-0.48945">
        <ele>1821.8</ele>
        <time>2021-08-09 13:41:57</time>
      </trkpt>
      <trkpt lat="42.84948" lon="-0.48946">
        <ele>1821.8</ele>
        <time>2021-08-09 13:41:58</time>
      </trkpt>
      <trkpt lat="42.84948" lon="-0.48948">
        <ele>1821.8</ele>
        <time>2021-08-09 13:41:59</time>
      </trkpt>
      <trkpt lat="42.84947" lon="-0.48949">
        <ele>1822</ele>
        <time>2021-08-09 13:42:00</time>
      </trkpt>
      <trkpt lat="42.84946" lon="-0.4895">
        <ele>1822.2</ele>
        <time>2021-08-09 13:42:01</time>
      </trkpt>
      <trkpt lat="42.84946" lon="-0.48952">
        <ele>1822.2</ele>
        <time>2021-08-09 13:42:02</time>
      </trkpt>
      <trkpt lat="42.84946" lon="-0.48953">
        <ele>1822.4</ele>
        <time>2021-08-09 13:42:03</time>
      </trkpt>
      <trkpt lat="42.84945" lon="-0.48954">
        <ele>1822.8</ele>
        <time>2021-08-09 13:42:04</time>
      </trkpt>
      <trkpt lat="42.84945" lon="-0.48955">
        <ele>1823</ele>
        <time>2021-08-09 13:42:05</time>
      </trkpt>
      <trkpt lat="42.84945" lon="-0.48956">
        <ele>1822.8</ele>
        <time>2021-08-09 13:42:06</time>
      </trkpt>
      <trkpt lat="42.84944" lon="-0.48957">
        <ele>1822.8</ele>
        <time>2021-08-09 13:42:07</time>
      </trkpt>
      <trkpt lat="42.84944" lon="-0.48958">
        <ele>1822.6</ele>
        <time>2021-08-09 13:42:08</time>
      </trkpt>
      <trkpt lat="42.84943" lon="-0.48959">
        <ele>1822.4</ele>
        <time>2021-08-09 13:42:09</time>
      </trkpt>
      <trkpt lat="42.84943" lon="-0.48961">
        <ele>1822.4</ele>
        <time>2021-08-09 13:42:10</time>
      </trkpt>
      <trkpt lat="42.84943" lon="-0.48962">
        <ele>1822.6</ele>
        <time>2021-08-09 13:42:11</time>
      </trkpt>
      <trkpt lat="42.84943" lon="-0.48962">
        <ele>1822.6</ele>
        <time>2021-08-09 13:42:12</time>
      </trkpt>
      <trkpt lat="42.84943" lon="-0.48963">
        <ele>1822.6</ele>
        <time>2021-08-09 13:42:13</time>
      </trkpt>
      <trkpt lat="42.84942" lon="-0.48964">
        <ele>1822.8</ele>
        <time>2021-08-09 13:42:14</time>
      </trkpt>
      <trkpt lat="42.84942" lon="-0.48965">
        <ele>1822.8</ele>
        <time>2021-08-09 13:42:15</time>
      </trkpt>
      <trkpt lat="42.84942" lon="-0.48966">
        <ele>1822.8</ele>
        <time>2021-08-09 13:42:16</time>
      </trkpt>
      <trkpt lat="42.84942" lon="-0.48967">
        <ele>1822.8</ele>
        <time>2021-08-09 13:42:17</time>
      </trkpt>
      <trkpt lat="42.84942" lon="-0.48968">
        <ele>1822.8</ele>
        <time>2021-08-09 13:42:18</time>
      </trkpt>
      <trkpt lat="42.84942" lon="-0.48969">
        <ele>1822.8</ele>
        <time>2021-08-09 13:42:19</time>
      </trkpt>
      <trkpt lat="42.84942" lon="-0.4897">
        <ele>1822.8</ele>
        <time>2021-08-09 13:42:20</time>
      </trkpt>
      <trkpt lat="42.84941" lon="-0.48971">
        <ele>1823</ele>
        <time>2021-08-09 13:42:21</time>
      </trkpt>
      <trkpt lat="42.84941" lon="-0.48972">
        <ele>1823</ele>
        <time>2021-08-09 13:42:22</time>
      </trkpt>
      <trkpt lat="42.8494" lon="-0.48973">
        <ele>1823</ele>
        <time>2021-08-09 13:42:23</time>
      </trkpt>
      <trkpt lat="42.84939" lon="-0.48974">
        <ele>1823.2</ele>
        <time>2021-08-09 13:42:24</time>
      </trkpt>
      <trkpt lat="42.84939" lon="-0.48975">
        <ele>1823.2</ele>
        <time>2021-08-09 13:42:25</time>
      </trkpt>
      <trkpt lat="42.84939" lon="-0.48976">
        <ele>1823.2</ele>
        <time>2021-08-09 13:42:26</time>
      </trkpt>
      <trkpt lat="42.84939" lon="-0.48977">
        <ele>1823.2</ele>
        <time>2021-08-09 13:42:27</time>
      </trkpt>
      <trkpt lat="42.84939" lon="-0.48978">
        <ele>1823.2</ele>
        <time>2021-08-09 13:42:28</time>
      </trkpt>
      <trkpt lat="42.8494" lon="-0.48979">
        <ele>1823.2</ele>
        <time>2021-08-09 13:42:29</time>
      </trkpt>
      <trkpt lat="42.8494" lon="-0.4898">
        <ele>1823.2</ele>
        <time>2021-08-09 13:42:30</time>
      </trkpt>
      <trkpt lat="42.84941" lon="-0.48981">
        <ele>1823.4</ele>
        <time>2021-08-09 13:42:31</time>
      </trkpt>
      <trkpt lat="42.84942" lon="-0.48982">
        <ele>1823.4</ele>
        <time>2021-08-09 13:42:32</time>
      </trkpt>
      <trkpt lat="42.84943" lon="-0.48982">
        <ele>1823.8</ele>
        <time>2021-08-09 13:42:33</time>
      </trkpt>
      <trkpt lat="42.84944" lon="-0.48982">
        <ele>1823.8</ele>
        <time>2021-08-09 13:42:34</time>
      </trkpt>
      <trkpt lat="42.84945" lon="-0.48982">
        <ele>1824</ele>
        <time>2021-08-09 13:42:35</time>
      </trkpt>
      <trkpt lat="42.84945" lon="-0.48983">
        <ele>1824</ele>
        <time>2021-08-09 13:42:36</time>
      </trkpt>
      <trkpt lat="42.84946" lon="-0.48984">
        <ele>1824.4</ele>
        <time>2021-08-09 13:42:37</time>
      </trkpt>
      <trkpt lat="42.84946" lon="-0.48985">
        <ele>1824.6</ele>
        <time>2021-08-09 13:42:38</time>
      </trkpt>
      <trkpt lat="42.84947" lon="-0.48985">
        <ele>1825</ele>
        <time>2021-08-09 13:42:39</time>
      </trkpt>
      <trkpt lat="42.84947" lon="-0.48986">
        <ele>1825</ele>
        <time>2021-08-09 13:42:40</time>
      </trkpt>
      <trkpt lat="42.84948" lon="-0.48987">
        <ele>1825.4</ele>
        <time>2021-08-09 13:42:41</time>
      </trkpt>
      <trkpt lat="42.84948" lon="-0.48988">
        <ele>1825.2</ele>
        <time>2021-08-09 13:42:42</time>
      </trkpt>
      <trkpt lat="42.84949" lon="-0.48988">
        <ele>1825.4</ele>
        <time>2021-08-09 13:42:43</time>
      </trkpt>
      <trkpt lat="42.8495" lon="-0.48989">
        <ele>1825.4</ele>
        <time>2021-08-09 13:42:44</time>
      </trkpt>
      <trkpt lat="42.8495" lon="-0.4899">
        <ele>1825</ele>
        <time>2021-08-09 13:42:48</time>
      </trkpt>
      <trkpt lat="42.8495" lon="-0.4899">
        <ele>1825.2</ele>
        <time>2021-08-09 13:42:49</time>
      </trkpt>
      <trkpt lat="42.84951" lon="-0.48992">
        <ele>1825.6</ele>
        <time>2021-08-09 13:42:50</time>
      </trkpt>
      <trkpt lat="42.84951" lon="-0.48992">
        <ele>1826</ele>
        <time>2021-08-09 13:42:57</time>
      </trkpt>
      <trkpt lat="42.84952" lon="-0.48993">
        <ele>1826.4</ele>
        <time>2021-08-09 13:42:58</time>
      </trkpt>
      <trkpt lat="42.84953" lon="-0.48993">
        <ele>1826.4</ele>
        <time>2021-08-09 13:42:59</time>
      </trkpt>
      <trkpt lat="42.84954" lon="-0.48994">
        <ele>1826.8</ele>
        <time>2021-08-09 13:43:00</time>
      </trkpt>
      <trkpt lat="42.84954" lon="-0.48995">
        <ele>1826.6</ele>
        <time>2021-08-09 13:43:01</time>
      </trkpt>
      <trkpt lat="42.84955" lon="-0.48995">
        <ele>1826.8</ele>
        <time>2021-08-09 13:43:02</time>
      </trkpt>
      <trkpt lat="42.84956" lon="-0.48996">
        <ele>1827</ele>
        <time>2021-08-09 13:43:04</time>
      </trkpt>
      <trkpt lat="42.84956" lon="-0.48996">
        <ele>1827.2</ele>
        <time>2021-08-09 13:43:05</time>
      </trkpt>
      <trkpt lat="42.84957" lon="-0.48997">
        <ele>1827.6</ele>
        <time>2021-08-09 13:43:06</time>
      </trkpt>
      <trkpt lat="42.84958" lon="-0.48997">
        <ele>1827.8</ele>
        <time>2021-08-09 13:43:07</time>
      </trkpt>
      <trkpt lat="42.84958" lon="-0.48998">
        <ele>1827.8</ele>
        <time>2021-08-09 13:43:08</time>
      </trkpt>
      <trkpt lat="42.84958" lon="-0.48998">
        <ele>1828</ele>
        <time>2021-08-09 13:43:09</time>
      </trkpt>
      <trkpt lat="42.84959" lon="-0.48998">
        <ele>1828</ele>
        <time>2021-08-09 13:43:10</time>
      </trkpt>
      <trkpt lat="42.8496" lon="-0.48999">
        <ele>1828.2</ele>
        <time>2021-08-09 13:43:11</time>
      </trkpt>
      <trkpt lat="42.8496" lon="-0.49">
        <ele>1828.2</ele>
        <time>2021-08-09 13:43:12</time>
      </trkpt>
      <trkpt lat="42.84961" lon="-0.49">
        <ele>1828.4</ele>
        <time>2021-08-09 13:43:13</time>
      </trkpt>
      <trkpt lat="42.84961" lon="-0.49001">
        <ele>1828.6</ele>
        <time>2021-08-09 13:43:14</time>
      </trkpt>
      <trkpt lat="42.84962" lon="-0.49001">
        <ele>1829</ele>
        <time>2021-08-09 13:43:15</time>
      </trkpt>
      <trkpt lat="42.84962" lon="-0.49001">
        <ele>1829.6</ele>
        <time>2021-08-09 13:43:16</time>
      </trkpt>
      <trkpt lat="42.84963" lon="-0.49002">
        <ele>1829.4</ele>
        <time>2021-08-09 13:43:17</time>
      </trkpt>
      <trkpt lat="42.84963" lon="-0.49003">
        <ele>1829.4</ele>
        <time>2021-08-09 13:43:18</time>
      </trkpt>
      <trkpt lat="42.84964" lon="-0.49003">
        <ele>1829.6</ele>
        <time>2021-08-09 13:43:19</time>
      </trkpt>
      <trkpt lat="42.84964" lon="-0.49004">
        <ele>1829.6</ele>
        <time>2021-08-09 13:43:20</time>
      </trkpt>
      <trkpt lat="42.84965" lon="-0.49005">
        <ele>1829.6</ele>
        <time>2021-08-09 13:43:21</time>
      </trkpt>
      <trkpt lat="42.84965" lon="-0.49006">
        <ele>1829.8</ele>
        <time>2021-08-09 13:43:22</time>
      </trkpt>
      <trkpt lat="42.84966" lon="-0.49006">
        <ele>1829.8</ele>
        <time>2021-08-09 13:43:23</time>
      </trkpt>
      <trkpt lat="42.84966" lon="-0.49006">
        <ele>1829.6</ele>
        <time>2021-08-09 13:43:24</time>
      </trkpt>
      <trkpt lat="42.84967" lon="-0.49007">
        <ele>1829.6</ele>
        <time>2021-08-09 13:43:25</time>
      </trkpt>
      <trkpt lat="42.84968" lon="-0.49008">
        <ele>1829.6</ele>
        <time>2021-08-09 13:43:26</time>
      </trkpt>
      <trkpt lat="42.84969" lon="-0.49009">
        <ele>1829.8</ele>
        <time>2021-08-09 13:43:27</time>
      </trkpt>
      <trkpt lat="42.84969" lon="-0.4901">
        <ele>1829.8</ele>
        <time>2021-08-09 13:43:28</time>
      </trkpt>
      <trkpt lat="42.8497" lon="-0.49011">
        <ele>1830</ele>
        <time>2021-08-09 13:43:29</time>
      </trkpt>
      <trkpt lat="42.8497" lon="-0.49012">
        <ele>1830.2</ele>
        <time>2021-08-09 13:43:30</time>
      </trkpt>
      <trkpt lat="42.84971" lon="-0.49013">
        <ele>1830.4</ele>
        <time>2021-08-09 13:43:31</time>
      </trkpt>
      <trkpt lat="42.84971" lon="-0.49014">
        <ele>1830.4</ele>
        <time>2021-08-09 13:43:32</time>
      </trkpt>
      <trkpt lat="42.84972" lon="-0.49015">
        <ele>1830.4</ele>
        <time>2021-08-09 13:43:33</time>
      </trkpt>
      <trkpt lat="42.84972" lon="-0.49016">
        <ele>1830.4</ele>
        <time>2021-08-09 13:43:34</time>
      </trkpt>
      <trkpt lat="42.84973" lon="-0.49017">
        <ele>1830.4</ele>
        <time>2021-08-09 13:43:35</time>
      </trkpt>
      <trkpt lat="42.84973" lon="-0.49018">
        <ele>1830.6</ele>
        <time>2021-08-09 13:43:36</time>
      </trkpt>
      <trkpt lat="42.84974" lon="-0.49019">
        <ele>1830.8</ele>
        <time>2021-08-09 13:43:37</time>
      </trkpt>
      <trkpt lat="42.84975" lon="-0.49021">
        <ele>1831.2</ele>
        <time>2021-08-09 13:43:38</time>
      </trkpt>
      <trkpt lat="42.84974" lon="-0.49022">
        <ele>1830.8</ele>
        <time>2021-08-09 13:43:39</time>
      </trkpt>
      <trkpt lat="42.84975" lon="-0.49023">
        <ele>1831</ele>
        <time>2021-08-09 13:43:40</time>
      </trkpt>
      <trkpt lat="42.84975" lon="-0.49024">
        <ele>1830.8</ele>
        <time>2021-08-09 13:43:41</time>
      </trkpt>
      <trkpt lat="42.84975" lon="-0.49026">
        <ele>1830.4</ele>
        <time>2021-08-09 13:43:42</time>
      </trkpt>
      <trkpt lat="42.84975" lon="-0.49027">
        <ele>1830.4</ele>
        <time>2021-08-09 13:43:43</time>
      </trkpt>
      <trkpt lat="42.84975" lon="-0.49028">
        <ele>1830.4</ele>
        <time>2021-08-09 13:43:44</time>
      </trkpt>
      <trkpt lat="42.84975" lon="-0.49029">
        <ele>1830.4</ele>
        <time>2021-08-09 13:43:45</time>
      </trkpt>
      <trkpt lat="42.84975" lon="-0.4903">
        <ele>1830.4</ele>
        <time>2021-08-09 13:43:46</time>
      </trkpt>
      <trkpt lat="42.84974" lon="-0.49031">
        <ele>1830.2</ele>
        <time>2021-08-09 13:43:47</time>
      </trkpt>
      <trkpt lat="42.84974" lon="-0.49032">
        <ele>1830.2</ele>
        <time>2021-08-09 13:43:48</time>
      </trkpt>
      <trkpt lat="42.84975" lon="-0.49034">
        <ele>1830</ele>
        <time>2021-08-09 13:43:49</time>
      </trkpt>
      <trkpt lat="42.84975" lon="-0.49035">
        <ele>1830.2</ele>
        <time>2021-08-09 13:43:50</time>
      </trkpt>
      <trkpt lat="42.84975" lon="-0.49036">
        <ele>1830.4</ele>
        <time>2021-08-09 13:43:51</time>
      </trkpt>
      <trkpt lat="42.84975" lon="-0.49038">
        <ele>1830.2</ele>
        <time>2021-08-09 13:43:52</time>
      </trkpt>
      <trkpt lat="42.84975" lon="-0.49039">
        <ele>1830.2</ele>
        <time>2021-08-09 13:43:53</time>
      </trkpt>
      <trkpt lat="42.84975" lon="-0.49041">
        <ele>1830.2</ele>
        <time>2021-08-09 13:43:54</time>
      </trkpt>
      <trkpt lat="42.84974" lon="-0.49043">
        <ele>1830</ele>
        <time>2021-08-09 13:43:55</time>
      </trkpt>
      <trkpt lat="42.84974" lon="-0.49044">
        <ele>1829.8</ele>
        <time>2021-08-09 13:43:56</time>
      </trkpt>
      <trkpt lat="42.84974" lon="-0.49045">
        <ele>1829.6</ele>
        <time>2021-08-09 13:43:57</time>
      </trkpt>
      <trkpt lat="42.84972" lon="-0.49045">
        <ele>1829.6</ele>
        <time>2021-08-09 13:43:58</time>
      </trkpt>
      <trkpt lat="42.84972" lon="-0.49045">
        <ele>1829.6</ele>
        <time>2021-08-09 13:43:59</time>
      </trkpt>
      <trkpt lat="42.84973" lon="-0.49046">
        <ele>1829.4</ele>
        <time>2021-08-09 13:44:00</time>
      </trkpt>
      <trkpt lat="42.84973" lon="-0.49046">
        <ele>1829.4</ele>
        <time>2021-08-09 13:44:01</time>
      </trkpt>
      <trkpt lat="42.84973" lon="-0.49046">
        <ele>1829.6</ele>
        <time>2021-08-09 13:44:02</time>
      </trkpt>
      <trkpt lat="42.84972" lon="-0.49047">
        <ele>1829.2</ele>
        <time>2021-08-09 13:44:03</time>
      </trkpt>
      <trkpt lat="42.84972" lon="-0.49047">
        <ele>1829</ele>
        <time>2021-08-09 13:44:04</time>
      </trkpt>
      <trkpt lat="42.84972" lon="-0.49047">
        <ele>1829</ele>
        <time>2021-08-09 13:44:05</time>
      </trkpt>
      <trkpt lat="42.84972" lon="-0.49047">
        <ele>1829</ele>
        <time>2021-08-09 13:44:06</time>
      </trkpt>
      <trkpt lat="42.84972" lon="-0.49047">
        <ele>1829</ele>
        <time>2021-08-09 13:44:07</time>
      </trkpt>
      <trkpt lat="42.84972" lon="-0.49047">
        <ele>1829</ele>
        <time>2021-08-09 13:44:08</time>
      </trkpt>
      <trkpt lat="42.84971" lon="-0.49047">
        <ele>1829</ele>
        <time>2021-08-09 13:44:09</time>
      </trkpt>
      <trkpt lat="42.8497" lon="-0.49047">
        <ele>1828.8</ele>
        <time>2021-08-09 13:44:10</time>
      </trkpt>
      <trkpt lat="42.84969" lon="-0.49048">
        <ele>1828.8</ele>
        <time>2021-08-09 13:44:11</time>
      </trkpt>
      <trkpt lat="42.84968" lon="-0.49048">
        <ele>1829</ele>
        <time>2021-08-09 13:44:12</time>
      </trkpt>
      <trkpt lat="42.84967" lon="-0.49047">
        <ele>1829.2</ele>
        <time>2021-08-09 13:44:13</time>
      </trkpt>
      <trkpt lat="42.84967" lon="-0.49047">
        <ele>1829.4</ele>
        <time>2021-08-09 13:44:14</time>
      </trkpt>
      <trkpt lat="42.84966" lon="-0.49046">
        <ele>1829.6</ele>
        <time>2021-08-09 13:44:15</time>
      </trkpt>
      <trkpt lat="42.84965" lon="-0.49046">
        <ele>1829.6</ele>
        <time>2021-08-09 13:44:16</time>
      </trkpt>
      <trkpt lat="42.84964" lon="-0.49046">
        <ele>1829.8</ele>
        <time>2021-08-09 13:44:17</time>
      </trkpt>
      <trkpt lat="42.84963" lon="-0.49047">
        <ele>1829.6</ele>
        <time>2021-08-09 13:44:18</time>
      </trkpt>
      <trkpt lat="42.84962" lon="-0.49047">
        <ele>1829.6</ele>
        <time>2021-08-09 13:44:19</time>
      </trkpt>
      <trkpt lat="42.84961" lon="-0.49048">
        <ele>1829.4</ele>
        <time>2021-08-09 13:44:20</time>
      </trkpt>
      <trkpt lat="42.8496" lon="-0.49048">
        <ele>1829.6</ele>
        <time>2021-08-09 13:44:21</time>
      </trkpt>
      <trkpt lat="42.84958" lon="-0.49048">
        <ele>1830</ele>
        <time>2021-08-09 13:44:22</time>
      </trkpt>
      <trkpt lat="42.84958" lon="-0.49049">
        <ele>1830</ele>
        <time>2021-08-09 13:44:23</time>
      </trkpt>
      <trkpt lat="42.84957" lon="-0.49049">
        <ele>1829.8</ele>
        <time>2021-08-09 13:44:24</time>
      </trkpt>
      <trkpt lat="42.84956" lon="-0.4905">
        <ele>1829.6</ele>
        <time>2021-08-09 13:44:25</time>
      </trkpt>
      <trkpt lat="42.84955" lon="-0.4905">
        <ele>1829.8</ele>
        <time>2021-08-09 13:44:26</time>
      </trkpt>
      <trkpt lat="42.84954" lon="-0.49051">
        <ele>1829.8</ele>
        <time>2021-08-09 13:44:27</time>
      </trkpt>
      <trkpt lat="42.84954" lon="-0.49051">
        <ele>1830</ele>
        <time>2021-08-09 13:44:28</time>
      </trkpt>
      <trkpt lat="42.84953" lon="-0.49053">
        <ele>1830</ele>
        <time>2021-08-09 13:44:29</time>
      </trkpt>
      <trkpt lat="42.84953" lon="-0.49054">
        <ele>1830.4</ele>
        <time>2021-08-09 13:44:30</time>
      </trkpt>
      <trkpt lat="42.84952" lon="-0.49055">
        <ele>1830.4</ele>
        <time>2021-08-09 13:44:31</time>
      </trkpt>
      <trkpt lat="42.84952" lon="-0.49056">
        <ele>1830.6</ele>
        <time>2021-08-09 13:44:32</time>
      </trkpt>
      <trkpt lat="42.84952" lon="-0.49057">
        <ele>1830.4</ele>
        <time>2021-08-09 13:44:33</time>
      </trkpt>
      <trkpt lat="42.84951" lon="-0.49058">
        <ele>1830.4</ele>
        <time>2021-08-09 13:44:34</time>
      </trkpt>
      <trkpt lat="42.8495" lon="-0.49059">
        <ele>1830.4</ele>
        <time>2021-08-09 13:44:35</time>
      </trkpt>
      <trkpt lat="42.84949" lon="-0.4906">
        <ele>1830.4</ele>
        <time>2021-08-09 13:44:36</time>
      </trkpt>
      <trkpt lat="42.84949" lon="-0.49061">
        <ele>1830.4</ele>
        <time>2021-08-09 13:44:37</time>
      </trkpt>
      <trkpt lat="42.84949" lon="-0.49062">
        <ele>1830.4</ele>
        <time>2021-08-09 13:44:38</time>
      </trkpt>
      <trkpt lat="42.84948" lon="-0.49064">
        <ele>1830.2</ele>
        <time>2021-08-09 13:44:39</time>
      </trkpt>
      <trkpt lat="42.84948" lon="-0.49065">
        <ele>1830</ele>
        <time>2021-08-09 13:44:40</time>
      </trkpt>
      <trkpt lat="42.84948" lon="-0.49066">
        <ele>1829.8</ele>
        <time>2021-08-09 13:44:41</time>
      </trkpt>
      <trkpt lat="42.84947" lon="-0.49068">
        <ele>1829.6</ele>
        <time>2021-08-09 13:44:42</time>
      </trkpt>
      <trkpt lat="42.84948" lon="-0.4907">
        <ele>1829.6</ele>
        <time>2021-08-09 13:44:43</time>
      </trkpt>
      <trkpt lat="42.84948" lon="-0.49071">
        <ele>1829.6</ele>
        <time>2021-08-09 13:44:44</time>
      </trkpt>
      <trkpt lat="42.84949" lon="-0.49073">
        <ele>1829.4</ele>
        <time>2021-08-09 13:44:45</time>
      </trkpt>
      <trkpt lat="42.84949" lon="-0.49075">
        <ele>1829.4</ele>
        <time>2021-08-09 13:44:46</time>
      </trkpt>
      <trkpt lat="42.84949" lon="-0.49076">
        <ele>1829.2</ele>
        <time>2021-08-09 13:44:47</time>
      </trkpt>
      <trkpt lat="42.84949" lon="-0.49078">
        <ele>1829.2</ele>
        <time>2021-08-09 13:44:48</time>
      </trkpt>
      <trkpt lat="42.84949" lon="-0.49079">
        <ele>1829.2</ele>
        <time>2021-08-09 13:44:49</time>
      </trkpt>
      <trkpt lat="42.84949" lon="-0.4908">
        <ele>1829.4</ele>
        <time>2021-08-09 13:44:50</time>
      </trkpt>
      <trkpt lat="42.84949" lon="-0.49082">
        <ele>1829.4</ele>
        <time>2021-08-09 13:44:51</time>
      </trkpt>
      <trkpt lat="42.8495" lon="-0.49083">
        <ele>1829.4</ele>
        <time>2021-08-09 13:44:52</time>
      </trkpt>
      <trkpt lat="42.8495" lon="-0.49084">
        <ele>1829.4</ele>
        <time>2021-08-09 13:44:53</time>
      </trkpt>
      <trkpt lat="42.8495" lon="-0.49085">
        <ele>1829.4</ele>
        <time>2021-08-09 13:44:54</time>
      </trkpt>
      <trkpt lat="42.84949" lon="-0.49086">
        <ele>1829.2</ele>
        <time>2021-08-09 13:44:55</time>
      </trkpt>
      <trkpt lat="42.84949" lon="-0.49088">
        <ele>1829.2</ele>
        <time>2021-08-09 13:44:56</time>
      </trkpt>
      <trkpt lat="42.8495" lon="-0.49089">
        <ele>1829</ele>
        <time>2021-08-09 13:44:57</time>
      </trkpt>
      <trkpt lat="42.8495" lon="-0.4909">
        <ele>1828.8</ele>
        <time>2021-08-09 13:44:58</time>
      </trkpt>
      <trkpt lat="42.8495" lon="-0.49091">
        <ele>1829</ele>
        <time>2021-08-09 13:44:59</time>
      </trkpt>
      <trkpt lat="42.8495" lon="-0.49092">
        <ele>1829</ele>
        <time>2021-08-09 13:45:00</time>
      </trkpt>
      <trkpt lat="42.8495" lon="-0.49093">
        <ele>1829</ele>
        <time>2021-08-09 13:45:01</time>
      </trkpt>
      <trkpt lat="42.8495" lon="-0.49094">
        <ele>1829.2</ele>
        <time>2021-08-09 13:45:02</time>
      </trkpt>
      <trkpt lat="42.84951" lon="-0.49096">
        <ele>1829.6</ele>
        <time>2021-08-09 13:45:03</time>
      </trkpt>
      <trkpt lat="42.8495" lon="-0.49097">
        <ele>1829.6</ele>
        <time>2021-08-09 13:45:04</time>
      </trkpt>
      <trkpt lat="42.8495" lon="-0.49097">
        <ele>1829.8</ele>
        <time>2021-08-09 13:45:05</time>
      </trkpt>
      <trkpt lat="42.8495" lon="-0.49098">
        <ele>1830</ele>
        <time>2021-08-09 13:45:06</time>
      </trkpt>
      <trkpt lat="42.84949" lon="-0.49099">
        <ele>1830.2</ele>
        <time>2021-08-09 13:45:07</time>
      </trkpt>
      <trkpt lat="42.84949" lon="-0.491">
        <ele>1830.2</ele>
        <time>2021-08-09 13:45:08</time>
      </trkpt>
      <trkpt lat="42.84949" lon="-0.49101">
        <ele>1830.2</ele>
        <time>2021-08-09 13:45:09</time>
      </trkpt>
      <trkpt lat="42.84948" lon="-0.49102">
        <ele>1830.2</ele>
        <time>2021-08-09 13:45:10</time>
      </trkpt>
      <trkpt lat="42.84948" lon="-0.49103">
        <ele>1830.2</ele>
        <time>2021-08-09 13:45:11</time>
      </trkpt>
      <trkpt lat="42.84948" lon="-0.49105">
        <ele>1830.2</ele>
        <time>2021-08-09 13:45:12</time>
      </trkpt>
      <trkpt lat="42.84947" lon="-0.49105">
        <ele>1830</ele>
        <time>2021-08-09 13:45:13</time>
      </trkpt>
      <trkpt lat="42.84946" lon="-0.49106">
        <ele>1830</ele>
        <time>2021-08-09 13:45:14</time>
      </trkpt>
      <trkpt lat="42.84945" lon="-0.49108">
        <ele>1830.4</ele>
        <time>2021-08-09 13:45:15</time>
      </trkpt>
      <trkpt lat="42.84944" lon="-0.49109">
        <ele>1830.6</ele>
        <time>2021-08-09 13:45:30</time>
      </trkpt>
      <trkpt lat="42.84943" lon="-0.4911">
        <ele>1830.4</ele>
        <time>2021-08-09 13:45:31</time>
      </trkpt>
      <trkpt lat="42.84943" lon="-0.49111">
        <ele>1830.4</ele>
        <time>2021-08-09 13:45:32</time>
      </trkpt>
      <trkpt lat="42.84942" lon="-0.49112">
        <ele>1830.6</ele>
        <time>2021-08-09 13:45:33</time>
      </trkpt>
      <trkpt lat="42.84941" lon="-0.49113">
        <ele>1830.8</ele>
        <time>2021-08-09 13:45:34</time>
      </trkpt>
      <trkpt lat="42.8494" lon="-0.49114">
        <ele>1831</ele>
        <time>2021-08-09 13:45:35</time>
      </trkpt>
      <trkpt lat="42.84939" lon="-0.49114">
        <ele>1831</ele>
        <time>2021-08-09 13:45:36</time>
      </trkpt>
      <trkpt lat="42.84938" lon="-0.49115">
        <ele>1830.8</ele>
        <time>2021-08-09 13:45:37</time>
      </trkpt>
      <trkpt lat="42.84937" lon="-0.49115">
        <ele>1830.8</ele>
        <time>2021-08-09 13:45:38</time>
      </trkpt>
      <trkpt lat="42.84936" lon="-0.49116">
        <ele>1831</ele>
        <time>2021-08-09 13:45:39</time>
      </trkpt>
      <trkpt lat="42.84935" lon="-0.49116">
        <ele>1831</ele>
        <time>2021-08-09 13:45:40</time>
      </trkpt>
      <trkpt lat="42.84935" lon="-0.49116">
        <ele>1831.2</ele>
        <time>2021-08-09 13:45:41</time>
      </trkpt>
      <trkpt lat="42.84934" lon="-0.49116">
        <ele>1831.2</ele>
        <time>2021-08-09 13:45:42</time>
      </trkpt>
      <trkpt lat="42.84933" lon="-0.49117">
        <ele>1831.2</ele>
        <time>2021-08-09 13:45:43</time>
      </trkpt>
      <trkpt lat="42.84932" lon="-0.49117">
        <ele>1831.2</ele>
        <time>2021-08-09 13:45:44</time>
      </trkpt>
      <trkpt lat="42.84931" lon="-0.49118">
        <ele>1831.4</ele>
        <time>2021-08-09 13:45:45</time>
      </trkpt>
      <trkpt lat="42.8493" lon="-0.49119">
        <ele>1831.8</ele>
        <time>2021-08-09 13:45:46</time>
      </trkpt>
      <trkpt lat="42.84929" lon="-0.49119">
        <ele>1831.8</ele>
        <time>2021-08-09 13:45:47</time>
      </trkpt>
      <trkpt lat="42.84928" lon="-0.49119">
        <ele>1831.8</ele>
        <time>2021-08-09 13:45:48</time>
      </trkpt>
      <trkpt lat="42.84927" lon="-0.4912">
        <ele>1831.8</ele>
        <time>2021-08-09 13:45:49</time>
      </trkpt>
      <trkpt lat="42.84927" lon="-0.4912">
        <ele>1831.8</ele>
        <time>2021-08-09 13:45:50</time>
      </trkpt>
      <trkpt lat="42.84926" lon="-0.4912">
        <ele>1832</ele>
        <time>2021-08-09 13:45:51</time>
      </trkpt>
      <trkpt lat="42.84926" lon="-0.49121">
        <ele>1832</ele>
        <time>2021-08-09 13:45:52</time>
      </trkpt>
      <trkpt lat="42.84925" lon="-0.4912">
        <ele>1832</ele>
        <time>2021-08-09 13:45:53</time>
      </trkpt>
      <trkpt lat="42.84923" lon="-0.4912">
        <ele>1832.2</ele>
        <time>2021-08-09 13:45:54</time>
      </trkpt>
      <trkpt lat="42.84922" lon="-0.4912">
        <ele>1832.2</ele>
        <time>2021-08-09 13:45:55</time>
      </trkpt>
      <trkpt lat="42.84921" lon="-0.4912">
        <ele>1832.6</ele>
        <time>2021-08-09 13:45:56</time>
      </trkpt>
      <trkpt lat="42.84921" lon="-0.4912">
        <ele>1832.4</ele>
        <time>2021-08-09 13:45:57</time>
      </trkpt>
      <trkpt lat="42.84921" lon="-0.4912">
        <ele>1832.6</ele>
        <time>2021-08-09 13:45:58</time>
      </trkpt>
      <trkpt lat="42.8492" lon="-0.4912">
        <ele>1832.8</ele>
        <time>2021-08-09 13:45:59</time>
      </trkpt>
      <trkpt lat="42.84919" lon="-0.4912">
        <ele>1833</ele>
        <time>2021-08-09 13:46:00</time>
      </trkpt>
      <trkpt lat="42.84918" lon="-0.4912">
        <ele>1833.2</ele>
        <time>2021-08-09 13:46:01</time>
      </trkpt>
      <trkpt lat="42.84917" lon="-0.4912">
        <ele>1833.2</ele>
        <time>2021-08-09 13:46:02</time>
      </trkpt>
      <trkpt lat="42.84916" lon="-0.4912">
        <ele>1833.4</ele>
        <time>2021-08-09 13:46:03</time>
      </trkpt>
      <trkpt lat="42.84915" lon="-0.4912">
        <ele>1833.4</ele>
        <time>2021-08-09 13:46:04</time>
      </trkpt>
      <trkpt lat="42.84913" lon="-0.49119">
        <ele>1833.6</ele>
        <time>2021-08-09 13:46:05</time>
      </trkpt>
      <trkpt lat="42.84912" lon="-0.49119">
        <ele>1833.6</ele>
        <time>2021-08-09 13:46:06</time>
      </trkpt>
      <trkpt lat="42.84911" lon="-0.49119">
        <ele>1833.8</ele>
        <time>2021-08-09 13:46:07</time>
      </trkpt>
      <trkpt lat="42.8491" lon="-0.49118">
        <ele>1833.8</ele>
        <time>2021-08-09 13:46:08</time>
      </trkpt>
      <trkpt lat="42.84909" lon="-0.49118">
        <ele>1833.8</ele>
        <time>2021-08-09 13:46:09</time>
      </trkpt>
      <trkpt lat="42.84909" lon="-0.49118">
        <ele>1834.2</ele>
        <time>2021-08-09 13:46:10</time>
      </trkpt>
      <trkpt lat="42.84908" lon="-0.49118">
        <ele>1834.4</ele>
        <time>2021-08-09 13:46:11</time>
      </trkpt>
      <trkpt lat="42.84907" lon="-0.49118">
        <ele>1834.6</ele>
        <time>2021-08-09 13:46:12</time>
      </trkpt>
      <trkpt lat="42.84907" lon="-0.49117">
        <ele>1834.6</ele>
        <time>2021-08-09 13:46:13</time>
      </trkpt>
      <trkpt lat="42.84906" lon="-0.49117">
        <ele>1834.8</ele>
        <time>2021-08-09 13:46:14</time>
      </trkpt>
      <trkpt lat="42.84905" lon="-0.49117">
        <ele>1834.8</ele>
        <time>2021-08-09 13:46:15</time>
      </trkpt>
      <trkpt lat="42.84904" lon="-0.49116">
        <ele>1835</ele>
        <time>2021-08-09 13:46:16</time>
      </trkpt>
      <trkpt lat="42.84903" lon="-0.49116">
        <ele>1835</ele>
        <time>2021-08-09 13:46:17</time>
      </trkpt>
      <trkpt lat="42.84902" lon="-0.49116">
        <ele>1835.2</ele>
        <time>2021-08-09 13:46:18</time>
      </trkpt>
      <trkpt lat="42.849" lon="-0.49116">
        <ele>1835.4</ele>
        <time>2021-08-09 13:46:19</time>
      </trkpt>
      <trkpt lat="42.84899" lon="-0.49116">
        <ele>1835.6</ele>
        <time>2021-08-09 13:46:20</time>
      </trkpt>
      <trkpt lat="42.84898" lon="-0.49116">
        <ele>1835.6</ele>
        <time>2021-08-09 13:46:21</time>
      </trkpt>
      <trkpt lat="42.84897" lon="-0.49116">
        <ele>1835.6</ele>
        <time>2021-08-09 13:46:22</time>
      </trkpt>
      <trkpt lat="42.84897" lon="-0.49116">
        <ele>1835.6</ele>
        <time>2021-08-09 13:46:23</time>
      </trkpt>
      <trkpt lat="42.84896" lon="-0.49116">
        <ele>1835.6</ele>
        <time>2021-08-09 13:46:24</time>
      </trkpt>
      <trkpt lat="42.84895" lon="-0.49116">
        <ele>1835.8</ele>
        <time>2021-08-09 13:46:25</time>
      </trkpt>
      <trkpt lat="42.84894" lon="-0.49115">
        <ele>1835.8</ele>
        <time>2021-08-09 13:46:26</time>
      </trkpt>
      <trkpt lat="42.84894" lon="-0.49115">
        <ele>1835.6</ele>
        <time>2021-08-09 13:46:27</time>
      </trkpt>
      <trkpt lat="42.84893" lon="-0.49115">
        <ele>1835.6</ele>
        <time>2021-08-09 13:46:28</time>
      </trkpt>
      <trkpt lat="42.84893" lon="-0.49114">
        <ele>1835.4</ele>
        <time>2021-08-09 13:46:29</time>
      </trkpt>
      <trkpt lat="42.84892" lon="-0.49114">
        <ele>1835.4</ele>
        <time>2021-08-09 13:46:30</time>
      </trkpt>
      <trkpt lat="42.84892" lon="-0.49114">
        <ele>1835.4</ele>
        <time>2021-08-09 13:46:31</time>
      </trkpt>
      <trkpt lat="42.84891" lon="-0.49114">
        <ele>1835.4</ele>
        <time>2021-08-09 13:46:32</time>
      </trkpt>
      <trkpt lat="42.8489" lon="-0.49114">
        <ele>1835.4</ele>
        <time>2021-08-09 13:46:33</time>
      </trkpt>
      <trkpt lat="42.84889" lon="-0.49115">
        <ele>1835.8</ele>
        <time>2021-08-09 13:46:34</time>
      </trkpt>
      <trkpt lat="42.84888" lon="-0.49116">
        <ele>1836</ele>
        <time>2021-08-09 13:46:35</time>
      </trkpt>
      <trkpt lat="42.84887" lon="-0.49116">
        <ele>1836.2</ele>
        <time>2021-08-09 13:46:36</time>
      </trkpt>
      <trkpt lat="42.84887" lon="-0.49116">
        <ele>1836.4</ele>
        <time>2021-08-09 13:46:37</time>
      </trkpt>
      <trkpt lat="42.84886" lon="-0.49117">
        <ele>1836.2</ele>
        <time>2021-08-09 13:46:38</time>
      </trkpt>
      <trkpt lat="42.84886" lon="-0.49118">
        <ele>1836.6</ele>
        <time>2021-08-09 13:46:39</time>
      </trkpt>
      <trkpt lat="42.84886" lon="-0.49119">
        <ele>1836.6</ele>
        <time>2021-08-09 13:46:40</time>
      </trkpt>
      <trkpt lat="42.84885" lon="-0.49119">
        <ele>1837</ele>
        <time>2021-08-09 13:46:41</time>
      </trkpt>
      <trkpt lat="42.84884" lon="-0.4912">
        <ele>1837.2</ele>
        <time>2021-08-09 13:46:42</time>
      </trkpt>
      <trkpt lat="42.84884" lon="-0.4912">
        <ele>1837.4</ele>
        <time>2021-08-09 13:46:43</time>
      </trkpt>
      <trkpt lat="42.84884" lon="-0.49121">
        <ele>1837.6</ele>
        <time>2021-08-09 13:46:44</time>
      </trkpt>
      <trkpt lat="42.84883" lon="-0.49122">
        <ele>1837.6</ele>
        <time>2021-08-09 13:46:45</time>
      </trkpt>
      <trkpt lat="42.84882" lon="-0.49122">
        <ele>1837.6</ele>
        <time>2021-08-09 13:46:46</time>
      </trkpt>
      <trkpt lat="42.84881" lon="-0.49122">
        <ele>1837.6</ele>
        <time>2021-08-09 13:46:47</time>
      </trkpt>
      <trkpt lat="42.84881" lon="-0.49123">
        <ele>1837.8</ele>
        <time>2021-08-09 13:46:48</time>
      </trkpt>
      <trkpt lat="42.8488" lon="-0.49123">
        <ele>1838</ele>
        <time>2021-08-09 13:46:49</time>
      </trkpt>
      <trkpt lat="42.8488" lon="-0.49123">
        <ele>1837.6</ele>
        <time>2021-08-09 13:46:50</time>
      </trkpt>
      <trkpt lat="42.84879" lon="-0.49124">
        <ele>1838</ele>
        <time>2021-08-09 13:46:51</time>
      </trkpt>
      <trkpt lat="42.84878" lon="-0.49124">
        <ele>1837.6</ele>
        <time>2021-08-09 13:46:52</time>
      </trkpt>
      <trkpt lat="42.84877" lon="-0.49125">
        <ele>1838.6</ele>
        <time>2021-08-09 13:46:53</time>
      </trkpt>
      <trkpt lat="42.84876" lon="-0.49125">
        <ele>1838.6</ele>
        <time>2021-08-09 13:46:54</time>
      </trkpt>
      <trkpt lat="42.84875" lon="-0.49125">
        <ele>1838.4</ele>
        <time>2021-08-09 13:46:55</time>
      </trkpt>
      <trkpt lat="42.84874" lon="-0.49125">
        <ele>1838</ele>
        <time>2021-08-09 13:46:56</time>
      </trkpt>
      <trkpt lat="42.84873" lon="-0.49124">
        <ele>1837.8</ele>
        <time>2021-08-09 13:46:57</time>
      </trkpt>
      <trkpt lat="42.84873" lon="-0.49123">
        <ele>1838</ele>
        <time>2021-08-09 13:46:58</time>
      </trkpt>
      <trkpt lat="42.84872" lon="-0.49123">
        <ele>1838.4</ele>
        <time>2021-08-09 13:46:59</time>
      </trkpt>
      <trkpt lat="42.8487" lon="-0.49123">
        <ele>1839.2</ele>
      </trkpt>
      <trkpt lat="42.8487" lon="-0.49123">
        <ele>1839</ele>
        <time>2021-08-09 13:47:01</time>
      </trkpt>
      <trkpt lat="42.84868" lon="-0.49122">
        <ele>1839</ele>
        <time>2021-08-09 13:47:02</time>
      </trkpt>
      <trkpt lat="42.84868" lon="-0.49122">
        <ele>1839.2</ele>
        <time>2021-08-09 13:47:03</time>
      </trkpt>
      <trkpt lat="42.84867" lon="-0.49121">
        <ele>1839.6</ele>
        <time>2021-08-09 13:47:04</time>
      </trkpt>
      <trkpt lat="42.84866" lon="-0.4912">
        <ele>1839.4</ele>
        <time>2021-08-09 13:47:05</time>
      </trkpt>
      <trkpt lat="42.84865" lon="-0.4912">
        <ele>1839.6</ele>
        <time>2021-08-09 13:47:06</time>
      </trkpt>
      <trkpt lat="42.84865" lon="-0.49119">
        <ele>1839.6</ele>
        <time>2021-08-09 13:47:07</time>
      </trkpt>
      <trkpt lat="42.84864" lon="-0.49119">
        <ele>1839.8</ele>
        <time>2021-08-09 13:47:08</time>
      </trkpt>
      <trkpt lat="42.84863" lon="-0.49118">
        <ele>1839.4</ele>
        <time>2021-08-09 13:47:09</time>
      </trkpt>
      <trkpt lat="42.84863" lon="-0.49117">
        <ele>1839.8</ele>
        <time>2021-08-09 13:47:10</time>
      </trkpt>
      <trkpt lat="42.84863" lon="-0.49117">
        <ele>1840.2</ele>
        <time>2021-08-09 13:47:11</time>
      </trkpt>
      <trkpt lat="42.84862" lon="-0.49117">
        <ele>1840.4</ele>
        <time>2021-08-09 13:47:12</time>
      </trkpt>
      <trkpt lat="42.84862" lon="-0.49117">
        <ele>1840.2</ele>
        <time>2021-08-09 13:47:13</time>
      </trkpt>
      <trkpt lat="42.84863" lon="-0.49116">
        <ele>1840.2</ele>
        <time>2021-08-09 13:47:14</time>
      </trkpt>
      <trkpt lat="42.84864" lon="-0.49117">
        <ele>1840</ele>
        <time>2021-08-09 13:47:15</time>
      </trkpt>
      <trkpt lat="42.84864" lon="-0.49117">
        <ele>1840.6</ele>
        <time>2021-08-09 13:47:16</time>
      </trkpt>
      <trkpt lat="42.84865" lon="-0.49119">
        <ele>1840.2</ele>
      </trkpt>
      <trkpt lat="42.84865" lon="-0.4912">
        <ele>1840.6</ele>
        <time>2021-08-09 13:47:17</time>
      </trkpt>
      <trkpt lat="42.84865" lon="-0.49121">
        <ele>1840.8</ele>
        <time>2021-08-09 13:47:18</time>
      </trkpt>
      <trkpt lat="42.84865" lon="-0.49122">
        <ele>1841.2</ele>
        <time>2021-08-09 13:47:19</time>
      </trkpt>
      <trkpt lat="42.84865" lon="-0.49123">
        <ele>1840.8</ele>
        <time>2021-08-09 13:47:20</time>
      </trkpt>
      <trkpt lat="42.84865" lon="-0.49124">
        <ele>1841</ele>
        <time>2021-08-09 13:47:21</time>
      </trkpt>
      <trkpt lat="42.84865" lon="-0.49125">
        <ele>1841</ele>
        <time>2021-08-09 13:47:22</time>
      </trkpt>
      <trkpt lat="42.84865" lon="-0.49127">
        <ele>1841</ele>
        <time>2021-08-09 13:47:23</time>
      </trkpt>
      <trkpt lat="42.84866" lon="-0.49128">
        <ele>1840.6</ele>
        <time>2021-08-09 13:47:24</time>
      </trkpt>
      <trkpt lat="42.84866" lon="-0.49129">
        <ele>1841.2</ele>
        <time>2021-08-09 13:47:25</time>
      </trkpt>
      <trkpt lat="42.84866" lon="-0.4913">
        <ele>1841.2</ele>
        <time>2021-08-09 13:47:26</time>
      </trkpt>
      <trkpt lat="42.84866" lon="-0.49132">
        <ele>1841</ele>
        <time>2021-08-09 13:47:27</time>
      </trkpt>
      <trkpt lat="42.84866" lon="-0.49133">
        <ele>1841</ele>
        <time>2021-08-09 13:47:28</time>
      </trkpt>
      <trkpt lat="42.84866" lon="-0.49134">
        <ele>1840.6</ele>
        <time>2021-08-09 13:47:29</time>
      </trkpt>
      <trkpt lat="42.84866" lon="-0.49135">
        <ele>1841</ele>
        <time>2021-08-09 13:47:31</time>
      </trkpt>
      <trkpt lat="42.84866" lon="-0.49137">
        <ele>1841</ele>
      </trkpt>
      <trkpt lat="42.84867" lon="-0.49139">
        <ele>1841.2</ele>
        <time>2021-08-09 13:47:32</time>
      </trkpt>
      <trkpt lat="42.84866" lon="-0.4914">
        <ele>1841</ele>
        <time>2021-08-09 13:47:33</time>
      </trkpt>
      <trkpt lat="42.84866" lon="-0.49141">
        <ele>1840.4</ele>
        <time>2021-08-09 13:47:34</time>
      </trkpt>
      <trkpt lat="42.84866" lon="-0.49143">
        <ele>1840.2</ele>
        <time>2021-08-09 13:47:35</time>
      </trkpt>
      <trkpt lat="42.84866" lon="-0.49144">
        <ele>1840.4</ele>
        <time>2021-08-09 13:47:36</time>
      </trkpt>
      <trkpt lat="42.84865" lon="-0.49145">
        <ele>1840.6</ele>
        <time>2021-08-09 13:47:37</time>
      </trkpt>
      <trkpt lat="42.84865" lon="-0.49147">
        <ele>1840.6</ele>
        <time>2021-08-09 13:47:38</time>
      </trkpt>
      <trkpt lat="42.84864" lon="-0.49148">
        <ele>1840.8</ele>
        <time>2021-08-09 13:47:39</time>
      </trkpt>
      <trkpt lat="42.84864" lon="-0.49148">
        <ele>1840.8</ele>
        <time>2021-08-09 13:47:40</time>
      </trkpt>
      <trkpt lat="42.84863" lon="-0.49148">
        <ele>1841</ele>
        <time>2021-08-09 13:47:41</time>
      </trkpt>
      <trkpt lat="42.84864" lon="-0.49148">
        <ele>1841.4</ele>
        <time>2021-08-09 13:47:42</time>
      </trkpt>
      <trkpt lat="42.84863" lon="-0.49148">
        <ele>1841.8</ele>
        <time>2021-08-09 13:47:43</time>
      </trkpt>
      <trkpt lat="42.84863" lon="-0.49148">
        <ele>1841.4</ele>
        <time>2021-08-09 13:47:44</time>
      </trkpt>
      <trkpt lat="42.84863" lon="-0.49148">
        <ele>1841.2</ele>
        <time>2021-08-09 13:47:45</time>
      </trkpt>
      <trkpt lat="42.84864" lon="-0.49149">
        <ele>1841</ele>
        <time>2021-08-09 13:47:46</time>
      </trkpt>
      <trkpt lat="42.84864" lon="-0.4915">
        <ele>1840.8</ele>
        <time>2021-08-09 13:47:47</time>
      </trkpt>
      <trkpt lat="42.84864" lon="-0.4915">
        <ele>1841</ele>
        <time>2021-08-09 13:47:48</time>
      </trkpt>
      <trkpt lat="42.84863" lon="-0.49151">
        <ele>1841.2</ele>
        <time>2021-08-09 13:47:50</time>
      </trkpt>
      <trkpt lat="42.84863" lon="-0.49152">
        <ele>1840.6</ele>
      </trkpt>
      <trkpt lat="42.84862" lon="-0.49153">
        <ele>1841.2</ele>
        <time>2021-08-09 13:47:51</time>
      </trkpt>
      <trkpt lat="42.84862" lon="-0.49154">
        <ele>1841.2</ele>
        <time>2021-08-09 13:47:52</time>
      </trkpt>
      <trkpt lat="42.8486" lon="-0.49155">
        <ele>1841.4</ele>
        <time>2021-08-09 13:47:53</time>
      </trkpt>
      <trkpt lat="42.84859" lon="-0.49155">
        <ele>1841.4</ele>
        <time>2021-08-09 13:47:54</time>
      </trkpt>
      <trkpt lat="42.84859" lon="-0.49156">
        <ele>1841.4</ele>
        <time>2021-08-09 13:47:55</time>
      </trkpt>
      <trkpt lat="42.84858" lon="-0.49157">
        <ele>1841.4</ele>
        <time>2021-08-09 13:47:56</time>
      </trkpt>
      <trkpt lat="42.84858" lon="-0.49158">
        <ele>1841.2</ele>
        <time>2021-08-09 13:47:57</time>
      </trkpt>
      <trkpt lat="42.84857" lon="-0.49158">
        <ele>1841.2</ele>
        <time>2021-08-09 13:47:58</time>
      </trkpt>
      <trkpt lat="42.84857" lon="-0.49159">
        <ele>1841.4</ele>
        <time>2021-08-09 13:47:59</time>
      </trkpt>
      <trkpt lat="42.84856" lon="-0.49159">
        <ele>1841.4</ele>
        <time>2021-08-09 13:48:00</time>
      </trkpt>
      <trkpt lat="42.84855" lon="-0.4916">
        <ele>1841.2</ele>
        <time>2021-08-09 13:48:01</time>
      </trkpt>
      <trkpt lat="42.84854" lon="-0.4916">
        <ele>1840.8</ele>
        <time>2021-08-09 13:48:02</time>
      </trkpt>
      <trkpt lat="42.84853" lon="-0.49161">
        <ele>1841</ele>
        <time>2021-08-09 13:48:03</time>
      </trkpt>
      <trkpt lat="42.84853" lon="-0.49162">
        <ele>1841</ele>
        <time>2021-08-09 13:48:04</time>
      </trkpt>
      <trkpt lat="42.84851" lon="-0.49164">
        <ele>1841</ele>
        <time>2021-08-09 13:48:05</time>
      </trkpt>
      <trkpt lat="42.8485" lon="-0.49165">
        <ele>1841</ele>
        <time>2021-08-09 13:48:06</time>
      </trkpt>
      <trkpt lat="42.84849" lon="-0.49165">
        <ele>1841.2</ele>
        <time>2021-08-09 13:48:07</time>
      </trkpt>
      <trkpt lat="42.84848" lon="-0.49165">
        <ele>1841</ele>
        <time>2021-08-09 13:48:08</time>
      </trkpt>
      <trkpt lat="42.84847" lon="-0.49165">
        <ele>1841</ele>
        <time>2021-08-09 13:48:09</time>
      </trkpt>
      <trkpt lat="42.84846" lon="-0.49166">
        <ele>1841.2</ele>
        <time>2021-08-09 13:48:10</time>
      </trkpt>
      <trkpt lat="42.84845" lon="-0.49167">
        <ele>1841.4</ele>
        <time>2021-08-09 13:48:11</time>
      </trkpt>
      <trkpt lat="42.84844" lon="-0.49167">
        <ele>1841.2</ele>
        <time>2021-08-09 13:48:12</time>
      </trkpt>
      <trkpt lat="42.84843" lon="-0.49167">
        <ele>1841.4</ele>
        <time>2021-08-09 13:48:13</time>
      </trkpt>
      <trkpt lat="42.84843" lon="-0.49167">
        <ele>1841.8</ele>
        <time>2021-08-09 13:48:14</time>
      </trkpt>
      <trkpt lat="42.84841" lon="-0.49167">
        <ele>1842</ele>
        <time>2021-08-09 13:48:15</time>
      </trkpt>
      <trkpt lat="42.8484" lon="-0.49166">
        <ele>1842.2</ele>
        <time>2021-08-09 13:48:16</time>
      </trkpt>
      <trkpt lat="42.84839" lon="-0.49166">
        <ele>1842.6</ele>
        <time>2021-08-09 13:48:17</time>
      </trkpt>
      <trkpt lat="42.84838" lon="-0.49165">
        <ele>1842.6</ele>
        <time>2021-08-09 13:48:18</time>
      </trkpt>
      <trkpt lat="42.84837" lon="-0.49165">
        <ele>1842.8</ele>
        <time>2021-08-09 13:48:19</time>
      </trkpt>
      <trkpt lat="42.84837" lon="-0.49165">
        <ele>1842.8</ele>
        <time>2021-08-09 13:48:20</time>
      </trkpt>
      <trkpt lat="42.84835" lon="-0.49165">
        <ele>1842.8</ele>
        <time>2021-08-09 13:48:21</time>
      </trkpt>
      <trkpt lat="42.84835" lon="-0.49164">
        <ele>1842.8</ele>
        <time>2021-08-09 13:48:22</time>
      </trkpt>
      <trkpt lat="42.84834" lon="-0.49163">
        <ele>1843</ele>
        <time>2021-08-09 13:48:23</time>
      </trkpt>
      <trkpt lat="42.84834" lon="-0.49163">
        <ele>1843</ele>
        <time>2021-08-09 13:48:24</time>
      </trkpt>
      <trkpt lat="42.84833" lon="-0.49162">
        <ele>1843.2</ele>
        <time>2021-08-09 13:48:25</time>
      </trkpt>
      <trkpt lat="42.84832" lon="-0.49162">
        <ele>1843</ele>
        <time>2021-08-09 13:48:26</time>
      </trkpt>
      <trkpt lat="42.84831" lon="-0.49161">
        <ele>1843</ele>
        <time>2021-08-09 13:48:27</time>
      </trkpt>
      <trkpt lat="42.84831" lon="-0.49161">
        <ele>1843.4</ele>
        <time>2021-08-09 13:48:28</time>
      </trkpt>
      <trkpt lat="42.8483" lon="-0.4916">
        <ele>1843.6</ele>
        <time>2021-08-09 13:48:29</time>
      </trkpt>
      <trkpt lat="42.84829" lon="-0.49159">
        <ele>1843.8</ele>
        <time>2021-08-09 13:48:30</time>
      </trkpt>
      <trkpt lat="42.84829" lon="-0.49159">
        <ele>1844</ele>
        <time>2021-08-09 13:48:31</time>
      </trkpt>
      <trkpt lat="42.84828" lon="-0.49158">
        <ele>1844.2</ele>
        <time>2021-08-09 13:48:32</time>
      </trkpt>
      <trkpt lat="42.84828" lon="-0.49158">
        <ele>1844.4</ele>
        <time>2021-08-09 13:48:33</time>
      </trkpt>
      <trkpt lat="42.84827" lon="-0.49157">
        <ele>1844.6</ele>
        <time>2021-08-09 13:48:34</time>
      </trkpt>
      <trkpt lat="42.84827" lon="-0.49156">
        <ele>1844.8</ele>
        <time>2021-08-09 13:48:35</time>
      </trkpt>
      <trkpt lat="42.84826" lon="-0.49156">
        <ele>1845</ele>
        <time>2021-08-09 13:48:36</time>
      </trkpt>
      <trkpt lat="42.84825" lon="-0.49155">
        <ele>1845.2</ele>
        <time>2021-08-09 13:48:37</time>
      </trkpt>
      <trkpt lat="42.84825" lon="-0.49155">
        <ele>1845.2</ele>
        <time>2021-08-09 13:48:38</time>
      </trkpt>
      <trkpt lat="42.84824" lon="-0.49154">
        <ele>1845.2</ele>
        <time>2021-08-09 13:48:39</time>
      </trkpt>
      <trkpt lat="42.84824" lon="-0.49153">
        <ele>1845.2</ele>
        <time>2021-08-09 13:48:40</time>
      </trkpt>
      <trkpt lat="42.84823" lon="-0.49151">
        <ele>1844.8</ele>
        <time>2021-08-09 13:48:41</time>
      </trkpt>
      <trkpt lat="42.84823" lon="-0.4915">
        <ele>1845</ele>
        <time>2021-08-09 13:48:42</time>
      </trkpt>
      <trkpt lat="42.84822" lon="-0.49149">
        <ele>1844.8</ele>
        <time>2021-08-09 13:48:43</time>
      </trkpt>
      <trkpt lat="42.84822" lon="-0.49148">
        <ele>1845</ele>
        <time>2021-08-09 13:48:44</time>
      </trkpt>
      <trkpt lat="42.84822" lon="-0.49147">
        <ele>1845.2</ele>
        <time>2021-08-09 13:48:45</time>
      </trkpt>
      <trkpt lat="42.84821" lon="-0.49146">
        <ele>1845.6</ele>
        <time>2021-08-09 13:48:46</time>
      </trkpt>
      <trkpt lat="42.84821" lon="-0.49146">
        <ele>1846</ele>
        <time>2021-08-09 13:48:47</time>
      </trkpt>
      <trkpt lat="42.84821" lon="-0.49145">
        <ele>1845.6</ele>
        <time>2021-08-09 13:48:48</time>
      </trkpt>
      <trkpt lat="42.84821" lon="-0.49144">
        <ele>1845.2</ele>
        <time>2021-08-09 13:48:49</time>
      </trkpt>
      <trkpt lat="42.84821" lon="-0.49143">
        <ele>1845</ele>
        <time>2021-08-09 13:48:50</time>
      </trkpt>
      <trkpt lat="42.84821" lon="-0.49142">
        <ele>1845</ele>
        <time>2021-08-09 13:48:51</time>
      </trkpt>
      <trkpt lat="42.84821" lon="-0.49141">
        <ele>1845</ele>
        <time>2021-08-09 13:48:52</time>
      </trkpt>
      <trkpt lat="42.84821" lon="-0.4914">
        <ele>1844.8</ele>
        <time>2021-08-09 13:48:53</time>
      </trkpt>
      <trkpt lat="42.8482" lon="-0.49139">
        <ele>1844.8</ele>
        <time>2021-08-09 13:48:54</time>
      </trkpt>
      <trkpt lat="42.8482" lon="-0.49138">
        <ele>1845</ele>
        <time>2021-08-09 13:48:55</time>
      </trkpt>
      <trkpt lat="42.84821" lon="-0.49137">
        <ele>1845.4</ele>
        <time>2021-08-09 13:48:56</time>
      </trkpt>
      <trkpt lat="42.84821" lon="-0.49136">
        <ele>1845.6</ele>
        <time>2021-08-09 13:48:57</time>
      </trkpt>
      <trkpt lat="42.84821" lon="-0.49135">
        <ele>1845.4</ele>
        <time>2021-08-09 13:48:58</time>
      </trkpt>
      <trkpt lat="42.84821" lon="-0.49135">
        <ele>1845.2</ele>
        <time>2021-08-09 13:48:59</time>
      </trkpt>
      <trkpt lat="42.84821" lon="-0.49134">
        <ele>1845</ele>
        <time>2021-08-09 13:49:01</time>
      </trkpt>
      <trkpt lat="42.84821" lon="-0.49132">
        <ele>1844.8</ele>
        <time>2021-08-09 13:49:02</time>
      </trkpt>
      <trkpt lat="42.84822" lon="-0.49132">
        <ele>1844.2</ele>
        <time>2021-08-09 13:49:03</time>
      </trkpt>
      <trkpt lat="42.84822" lon="-0.49131">
        <ele>1843.8</ele>
        <time>2021-08-09 13:49:04</time>
      </trkpt>
      <trkpt lat="42.84822" lon="-0.4913">
        <ele>1844.2</ele>
        <time>2021-08-09 13:49:05</time>
      </trkpt>
      <trkpt lat="42.84823" lon="-0.49129">
        <ele>1844.2</ele>
        <time>2021-08-09 13:49:06</time>
      </trkpt>
      <trkpt lat="42.84823" lon="-0.49129">
        <ele>1844.6</ele>
        <time>2021-08-09 13:49:07</time>
      </trkpt>
      <trkpt lat="42.84823" lon="-0.49129">
        <ele>1844.8</ele>
        <time>2021-08-09 13:49:08</time>
      </trkpt>
      <trkpt lat="42.84823" lon="-0.49128">
        <ele>1844.8</ele>
        <time>2021-08-09 13:49:09</time>
      </trkpt>
      <trkpt lat="42.84824" lon="-0.49128">
        <ele>1844.8</ele>
        <time>2021-08-09 13:49:10</time>
      </trkpt>
      <trkpt lat="42.84824" lon="-0.49127">
        <ele>1844.8</ele>
        <time>2021-08-09 13:49:11</time>
      </trkpt>
      <trkpt lat="42.84824" lon="-0.49127">
        <ele>1844.8</ele>
        <time>2021-08-09 13:49:12</time>
      </trkpt>
      <trkpt lat="42.84824" lon="-0.49125">
        <ele>1845</ele>
        <time>2021-08-09 13:49:13</time>
      </trkpt>
      <trkpt lat="42.84824" lon="-0.49125">
        <ele>1845</ele>
        <time>2021-08-09 13:49:14</time>
      </trkpt>
      <trkpt lat="42.84824" lon="-0.49124">
        <ele>1844.8</ele>
        <time>2021-08-09 13:49:15</time>
      </trkpt>
      <trkpt lat="42.84825" lon="-0.49124">
        <ele>1844.6</ele>
        <time>2021-08-09 13:49:16</time>
      </trkpt>
      <trkpt lat="42.84825" lon="-0.49124">
        <ele>1844.8</ele>
        <time>2021-08-09 13:49:17</time>
      </trkpt>
      <trkpt lat="42.84825" lon="-0.49123">
        <ele>1844.8</ele>
        <time>2021-08-09 13:49:18</time>
      </trkpt>
      <trkpt lat="42.84825" lon="-0.49123">
        <ele>1844.8</ele>
        <time>2021-08-09 13:49:19</time>
      </trkpt>
      <trkpt lat="42.84824" lon="-0.49122">
        <ele>1844.6</ele>
        <time>2021-08-09 13:49:20</time>
      </trkpt>
      <trkpt lat="42.84824" lon="-0.49122">
        <ele>1844.8</ele>
        <time>2021-08-09 13:49:21</time>
      </trkpt>
      <trkpt lat="42.84824" lon="-0.49121">
        <ele>1844.8</ele>
        <time>2021-08-09 13:49:22</time>
      </trkpt>
      <trkpt lat="42.84824" lon="-0.49121">
        <ele>1844.6</ele>
        <time>2021-08-09 13:49:23</time>
      </trkpt>
      <trkpt lat="42.84825" lon="-0.49121">
        <ele>1844.8</ele>
        <time>2021-08-09 13:49:24</time>
      </trkpt>
      <trkpt lat="42.84825" lon="-0.4912">
        <ele>1845</ele>
        <time>2021-08-09 13:49:25</time>
      </trkpt>
      <trkpt lat="42.84825" lon="-0.4912">
        <ele>1845.2</ele>
        <time>2021-08-09 13:49:26</time>
      </trkpt>
      <trkpt lat="42.84825" lon="-0.49119">
        <ele>1845.2</ele>
        <time>2021-08-09 13:49:27</time>
      </trkpt>
      <trkpt lat="42.84825" lon="-0.49119">
        <ele>1845</ele>
        <time>2021-08-09 13:49:28</time>
      </trkpt>
      <trkpt lat="42.84825" lon="-0.49119">
        <ele>1845</ele>
        <time>2021-08-09 13:49:29</time>
      </trkpt>
      <trkpt lat="42.84825" lon="-0.49119">
        <ele>1845.2</ele>
        <time>2021-08-09 13:49:30</time>
      </trkpt>
      <trkpt lat="42.84825" lon="-0.49119">
        <ele>1845</ele>
        <time>2021-08-09 13:49:31</time>
      </trkpt>
      <trkpt lat="42.84825" lon="-0.49119">
        <ele>1845</ele>
        <time>2021-08-09 13:49:32</time>
      </trkpt>
      <trkpt lat="42.84825" lon="-0.49118">
        <ele>1845.2</ele>
        <time>2021-08-09 13:49:33</time>
      </trkpt>
      <trkpt lat="42.84825" lon="-0.49118">
        <ele>1845.4</ele>
        <time>2021-08-09 13:49:34</time>
      </trkpt>
      <trkpt lat="42.84825" lon="-0.49118">
        <ele>1845.4</ele>
        <time>2021-08-09 13:49:35</time>
      </trkpt>
      <trkpt lat="42.84825" lon="-0.49119">
        <ele>1845.4</ele>
        <time>2021-08-09 13:49:36</time>
      </trkpt>
      <trkpt lat="42.84825" lon="-0.4912">
        <ele>1845.2</ele>
        <time>2021-08-09 13:49:37</time>
      </trkpt>
      <trkpt lat="42.84826" lon="-0.49119">
        <ele>1844.6</ele>
        <time>2021-08-09 13:49:38</time>
      </trkpt>
      <trkpt lat="42.84826" lon="-0.49119">
        <ele>1844.4</ele>
        <time>2021-08-09 13:49:39</time>
      </trkpt>
      <trkpt lat="42.84826" lon="-0.49119">
        <ele>1844.4</ele>
        <time>2021-08-09 13:49:40</time>
      </trkpt>
      <trkpt lat="42.84831" lon="-0.49116">
        <ele>1844.8</ele>
        <time>2021-08-09 13:49:41</time>
      </trkpt>
      <trkpt lat="42.84831" lon="-0.49116">
        <ele>1844.8</ele>
        <time>2021-08-09 13:49:42</time>
      </trkpt>
      <trkpt lat="42.84831" lon="-0.49116">
        <ele>1844.8</ele>
        <time>2021-08-09 13:49:43</time>
      </trkpt>
      <trkpt lat="42.84831" lon="-0.49116">
        <ele>1844.8</ele>
        <time>2021-08-09 13:49:44</time>
      </trkpt>
      <trkpt lat="42.84831" lon="-0.49116">
        <ele>1844.8</ele>
        <time>2021-08-09 13:49:45</time>
      </trkpt>
      <trkpt lat="42.84832" lon="-0.49115">
        <ele>1844.8</ele>
        <time>2021-08-09 13:49:46</time>
      </trkpt>
      <trkpt lat="42.84832" lon="-0.49115">
        <ele>1844.8</ele>
        <time>2021-08-09 13:49:47</time>
      </trkpt>
      <trkpt lat="42.84832" lon="-0.49115">
        <ele>1845.2</ele>
        <time>2021-08-09 13:49:48</time>
      </trkpt>
      <trkpt lat="42.84831" lon="-0.49116">
        <ele>1845.4</ele>
        <time>2021-08-09 13:49:49</time>
      </trkpt>
      <trkpt lat="42.84832" lon="-0.49116">
        <ele>1845.6</ele>
        <time>2021-08-09 13:49:50</time>
      </trkpt>
      <trkpt lat="42.84831" lon="-0.49115">
        <ele>1845.4</ele>
        <time>2021-08-09 13:49:51</time>
      </trkpt>
      <trkpt lat="42.84831" lon="-0.49114">
        <ele>1845.2</ele>
        <time>2021-08-09 13:49:52</time>
      </trkpt>
      <trkpt lat="42.84831" lon="-0.49113">
        <ele>1845</ele>
        <time>2021-08-09 13:49:53</time>
      </trkpt>
      <trkpt lat="42.84831" lon="-0.49112">
        <ele>1845</ele>
        <time>2021-08-09 13:49:54</time>
      </trkpt>
      <trkpt lat="42.8483" lon="-0.49111">
        <ele>1844.8</ele>
        <time>2021-08-09 13:49:55</time>
      </trkpt>
      <trkpt lat="42.84829" lon="-0.49111">
        <ele>1844.4</ele>
        <time>2021-08-09 13:49:56</time>
      </trkpt>
      <trkpt lat="42.84829" lon="-0.49111">
        <ele>1844</ele>
        <time>2021-08-09 13:49:57</time>
      </trkpt>
      <trkpt lat="42.84828" lon="-0.4911">
        <ele>1844</ele>
        <time>2021-08-09 13:49:58</time>
      </trkpt>
      <trkpt lat="42.84827" lon="-0.4911">
        <ele>1843.8</ele>
        <time>2021-08-09 13:49:59</time>
      </trkpt>
      <trkpt lat="42.84827" lon="-0.4911">
        <ele>1843.8</ele>
        <time>2021-08-09 13:50:00</time>
      </trkpt>
      <trkpt lat="42.84824" lon="-0.49115">
        <ele>1844.8</ele>
        <time>2021-08-09 13:50:01</time>
      </trkpt>
      <trkpt lat="42.84824" lon="-0.49115">
        <ele>1844.8</ele>
        <time>2021-08-09 13:50:02</time>
      </trkpt>
      <trkpt lat="42.84824" lon="-0.49115">
        <ele>1845.2</ele>
        <time>2021-08-09 13:50:03</time>
      </trkpt>
      <trkpt lat="42.84824" lon="-0.49115">
        <ele>1844.4</ele>
        <time>2021-08-09 13:50:04</time>
      </trkpt>
      <trkpt lat="42.84824" lon="-0.49115">
        <ele>1844.4</ele>
        <time>2021-08-09 13:50:05</time>
      </trkpt>
      <trkpt lat="42.84824" lon="-0.49115">
        <ele>1845</ele>
        <time>2021-08-09 13:50:06</time>
      </trkpt>
      <trkpt lat="42.84824" lon="-0.49114">
        <ele>1845</ele>
        <time>2021-08-09 13:50:07</time>
      </trkpt>
      <trkpt lat="42.84824" lon="-0.49114">
        <ele>1845.2</ele>
        <time>2021-08-09 13:50:08</time>
      </trkpt>
      <trkpt lat="42.84824" lon="-0.49114">
        <ele>1845</ele>
        <time>2021-08-09 13:50:09</time>
      </trkpt>
      <trkpt lat="42.84824" lon="-0.49114">
        <ele>1844.8</ele>
        <time>2021-08-09 13:50:10</time>
      </trkpt>
      <trkpt lat="42.84825" lon="-0.49113">
        <ele>1844.8</ele>
        <time>2021-08-09 13:50:11</time>
      </trkpt>
      <trkpt lat="42.84825" lon="-0.49112">
        <ele>1845</ele>
        <time>2021-08-09 13:50:12</time>
      </trkpt>
      <trkpt lat="42.84824" lon="-0.49112">
        <ele>1845.2</ele>
        <time>2021-08-09 13:50:13</time>
      </trkpt>
      <trkpt lat="42.84824" lon="-0.49112">
        <ele>1845.2</ele>
        <time>2021-08-09 13:50:14</time>
      </trkpt>
      <trkpt lat="42.84824" lon="-0.49114">
        <ele>1845.2</ele>
        <time>2021-08-09 13:50:15</time>
      </trkpt>
      <trkpt lat="42.84834" lon="-0.49143">
        <ele>1847.2</ele>
        <time>2021-08-09 13:50:16</time>
      </trkpt>
      <trkpt lat="42.84834" lon="-0.49142">
        <ele>1847.4</ele>
        <time>2021-08-09 13:50:17</time>
      </trkpt>
      <trkpt lat="42.84833" lon="-0.49142">
        <ele>1847.4</ele>
        <time>2021-08-09 13:50:18</time>
      </trkpt>
      <trkpt lat="42.84833" lon="-0.49142">
        <ele>1847.4</ele>
        <time>2021-08-09 13:50:19</time>
      </trkpt>
      <trkpt lat="42.84832" lon="-0.49142">
        <ele>1847.2</ele>
        <time>2021-08-09 13:50:20</time>
      </trkpt>
      <trkpt lat="42.84832" lon="-0.49142">
        <ele>1847.4</ele>
        <time>2021-08-09 13:50:21</time>
      </trkpt>
      <trkpt lat="42.84832" lon="-0.49142">
        <ele>1847.4</ele>
        <time>2021-08-09 13:50:22</time>
      </trkpt>
      <trkpt lat="42.84831" lon="-0.49142">
        <ele>1847.4</ele>
        <time>2021-08-09 13:50:23</time>
      </trkpt>
      <trkpt lat="42.84832" lon="-0.49142">
        <ele>1847.6</ele>
        <time>2021-08-09 13:50:24</time>
      </trkpt>
      <trkpt lat="42.84831" lon="-0.49141">
        <ele>1847.4</ele>
        <time>2021-08-09 13:50:25</time>
      </trkpt>
      <trkpt lat="42.84831" lon="-0.4914">
        <ele>1847.4</ele>
        <time>2021-08-09 13:50:26</time>
      </trkpt>
      <trkpt lat="42.84831" lon="-0.4914">
        <ele>1847.4</ele>
        <time>2021-08-09 13:50:27</time>
      </trkpt>
      <trkpt lat="42.84831" lon="-0.49139">
        <ele>1847.4</ele>
        <time>2021-08-09 13:50:28</time>
      </trkpt>
      <trkpt lat="42.84831" lon="-0.49139">
        <ele>1847.4</ele>
        <time>2021-08-09 13:50:29</time>
      </trkpt>
      <trkpt lat="42.84831" lon="-0.49139">
        <ele>1847.4</ele>
        <time>2021-08-09 13:50:34</time>
      </trkpt>
      <trkpt lat="42.84831" lon="-0.49137">
        <ele>1847.4</ele>
        <time>2021-08-09 13:50:35</time>
      </trkpt>
      <trkpt lat="42.8483" lon="-0.49137">
        <ele>1847.6</ele>
        <time>2021-08-09 13:50:36</time>
      </trkpt>
      <trkpt lat="42.8483" lon="-0.49136">
        <ele>1847.4</ele>
        <time>2021-08-09 13:50:37</time>
      </trkpt>
      <trkpt lat="42.8483" lon="-0.49134">
        <ele>1847.4</ele>
        <time>2021-08-09 13:50:38</time>
      </trkpt>
      <trkpt lat="42.8483" lon="-0.49133">
        <ele>1847.6</ele>
        <time>2021-08-09 13:50:39</time>
      </trkpt>
      <trkpt lat="42.8483" lon="-0.49132">
        <ele>1847.6</ele>
        <time>2021-08-09 13:50:40</time>
      </trkpt>
      <trkpt lat="42.84829" lon="-0.49132">
        <ele>1847.6</ele>
        <time>2021-08-09 13:50:41</time>
      </trkpt>
      <trkpt lat="42.84829" lon="-0.49132">
        <ele>1847.6</ele>
        <time>2021-08-09 13:50:42</time>
      </trkpt>
      <trkpt lat="42.84829" lon="-0.49132">
        <ele>1847.6</ele>
        <time>2021-08-09 13:50:43</time>
      </trkpt>
      <trkpt lat="42.84829" lon="-0.49133">
        <ele>1847.6</ele>
        <time>2021-08-09 13:50:44</time>
      </trkpt>
      <trkpt lat="42.84828" lon="-0.49133">
        <ele>1847.8</ele>
        <time>2021-08-09 13:50:45</time>
      </trkpt>
      <trkpt lat="42.84828" lon="-0.49134">
        <ele>1848</ele>
        <time>2021-08-09 13:50:46</time>
      </trkpt>
      <trkpt lat="42.84827" lon="-0.49137">
        <ele>1848</ele>
        <time>2021-08-09 13:50:47</time>
      </trkpt>
      <trkpt lat="42.84827" lon="-0.49138">
        <ele>1847.8</ele>
        <time>2021-08-09 13:50:52</time>
      </trkpt>
      <trkpt lat="42.84826" lon="-0.4914">
        <ele>1848</ele>
        <time>2021-08-09 13:50:53</time>
      </trkpt>
      <trkpt lat="42.84825" lon="-0.49141">
        <ele>1847.8</ele>
        <time>2021-08-09 13:50:54</time>
      </trkpt>
      <trkpt lat="42.84824" lon="-0.49142">
        <ele>1848</ele>
        <time>2021-08-09 13:50:56</time>
      </trkpt>
      <trkpt lat="42.84823" lon="-0.49142">
        <ele>1848.2</ele>
        <time>2021-08-09 13:50:57</time>
      </trkpt>
      <trkpt lat="42.84823" lon="-0.49142">
        <ele>1848.2</ele>
        <time>2021-08-09 13:50:58</time>
      </trkpt>
      <trkpt lat="42.84822" lon="-0.49143">
        <ele>1848</ele>
        <time>2021-08-09 13:51:20</time>
      </trkpt>
      <trkpt lat="42.84821" lon="-0.49143">
        <ele>1848</ele>
        <time>2021-08-09 13:51:21</time>
      </trkpt>
      <trkpt lat="42.8482" lon="-0.49142">
        <ele>1848</ele>
        <time>2021-08-09 13:51:22</time>
      </trkpt>
      <trkpt lat="42.8482" lon="-0.49142">
        <ele>1848</ele>
        <time>2021-08-09 13:51:23</time>
      </trkpt>
      <trkpt lat="42.84819" lon="-0.49141">
        <ele>1848</ele>
        <time>2021-08-09 13:51:24</time>
      </trkpt>
      <trkpt lat="42.84818" lon="-0.49141">
        <ele>1848</ele>
        <time>2021-08-09 13:51:30</time>
      </trkpt>
      <trkpt lat="42.84818" lon="-0.49141">
        <ele>1848</ele>
        <time>2021-08-09 13:51:31</time>
      </trkpt>
      <trkpt lat="42.84817" lon="-0.49141">
        <ele>1848</ele>
        <time>2021-08-09 13:51:32</time>
      </trkpt>
      <trkpt lat="42.84816" lon="-0.4914">
        <ele>1848</ele>
        <time>2021-08-09 13:52:47</time>
      </trkpt>
      <trkpt lat="42.84815" lon="-0.4914">
        <ele>1848.2</ele>
        <time>2021-08-09 13:52:48</time>
      </trkpt>
      <trkpt lat="42.84815" lon="-0.49139">
        <ele>1848</ele>
        <time>2021-08-09 13:52:49</time>
      </trkpt>
      <trkpt lat="42.84814" lon="-0.49139">
        <ele>1848</ele>
        <time>2021-08-09 13:52:50</time>
      </trkpt>
      <trkpt lat="42.84813" lon="-0.49139">
        <ele>1848</ele>
        <time>2021-08-09 13:52:51</time>
      </trkpt>
      <trkpt lat="42.84812" lon="-0.4914">
        <ele>1848</ele>
        <time>2021-08-09 13:53:29</time>
      </trkpt>
      <trkpt lat="42.84811" lon="-0.4914">
        <ele>1848</ele>
        <time>2021-08-09 13:53:30</time>
      </trkpt>
      <trkpt lat="42.8481" lon="-0.4914">
        <ele>1848.2</ele>
        <time>2021-08-09 13:53:31</time>
      </trkpt>
      <trkpt lat="42.84809" lon="-0.4914">
        <ele>1848.2</ele>
        <time>2021-08-09 13:53:47</time>
      </trkpt>
      <trkpt lat="42.84809" lon="-0.49141">
        <ele>1848.2</ele>
        <time>2021-08-09 13:53:48</time>
      </trkpt>
      <trkpt lat="42.84808" lon="-0.49142">
        <ele>1848</ele>
      </trkpt>
      <trkpt lat="42.84807" lon="-0.49142">
        <ele>1848</ele>
        <time>2021-08-09 13:53:49</time>
      </trkpt>
      <trkpt lat="42.84806" lon="-0.49143">
        <ele>1847.8</ele>
        <time>2021-08-09 13:53:50</time>
      </trkpt>
      <trkpt lat="42.84806" lon="-0.49144">
        <ele>1847.6</ele>
        <time>2021-08-09 13:53:51</time>
      </trkpt>
      <trkpt lat="42.84805" lon="-0.49144">
        <ele>1847.6</ele>
        <time>2021-08-09 13:53:52</time>
      </trkpt>
      <trkpt lat="42.84805" lon="-0.49146">
        <ele>1847.2</ele>
        <time>2021-08-09 13:53:53</time>
      </trkpt>
      <trkpt lat="42.84805" lon="-0.49147">
        <ele>1847</ele>
        <time>2021-08-09 13:53:54</time>
      </trkpt>
      <trkpt lat="42.84805" lon="-0.49147">
        <ele>1847.2</ele>
        <time>2021-08-09 13:53:55</time>
      </trkpt>
      <trkpt lat="42.84805" lon="-0.49147">
        <ele>1847</ele>
        <time>2021-08-09 13:53:56</time>
      </trkpt>
      <trkpt lat="42.84805" lon="-0.49148">
        <ele>1846.8</ele>
        <time>2021-08-09 13:53:57</time>
      </trkpt>
      <trkpt lat="42.84805" lon="-0.49149">
        <ele>1846.6</ele>
        <time>2021-08-09 13:53:58</time>
      </trkpt>
      <trkpt lat="42.84805" lon="-0.4915">
        <ele>1846.4</ele>
        <time>2021-08-09 13:57:40</time>
      </trkpt>
      <trkpt lat="42.84804" lon="-0.49151">
        <ele>1846.2</ele>
        <time>2021-08-09 13:57:41</time>
      </trkpt>
      <trkpt lat="42.84804" lon="-0.49152">
        <ele>1846</ele>
        <time>2021-08-09 13:57:42</time>
      </trkpt>
      <trkpt lat="42.84803" lon="-0.49153">
        <ele>1845.8</ele>
        <time>2021-08-09 13:57:43</time>
      </trkpt>
      <trkpt lat="42.84803" lon="-0.49154">
        <ele>1845.8</ele>
        <time>2021-08-09 13:57:44</time>
      </trkpt>
      <trkpt lat="42.84803" lon="-0.49155">
        <ele>1845.8</ele>
        <time>2021-08-09 13:57:47</time>
      </trkpt>
      <trkpt lat="42.84802" lon="-0.49156">
        <ele>1845.6</ele>
        <time>2021-08-09 13:57:48</time>
      </trkpt>
      <trkpt lat="42.84801" lon="-0.49157">
        <ele>1845.6</ele>
        <time>2021-08-09 13:57:49</time>
      </trkpt>
      <trkpt lat="42.848" lon="-0.49157">
        <ele>1845.8</ele>
        <time>2021-08-09 13:57:52</time>
      </trkpt>
      <trkpt lat="42.848" lon="-0.49158">
        <ele>1845.4</ele>
        <time>2021-08-09 13:57:53</time>
      </trkpt>
      <trkpt lat="42.84799" lon="-0.4916">
        <ele>1845.6</ele>
        <time>2021-08-09 13:57:54</time>
      </trkpt>
      <trkpt lat="42.84797" lon="-0.4916">
        <ele>1845.6</ele>
        <time>2021-08-09 13:59:40</time>
      </trkpt>
      <trkpt lat="42.84796" lon="-0.4916">
        <ele>1845.8</ele>
        <time>2021-08-09 13:59:41</time>
      </trkpt>
      <trkpt lat="42.84795" lon="-0.49161">
        <ele>1846</ele>
        <time>2021-08-09 13:59:42</time>
      </trkpt>
      <trkpt lat="42.84795" lon="-0.49161">
        <ele>1846.2</ele>
        <time>2021-08-09 14:00:17</time>
      </trkpt>
      <trkpt lat="42.84794" lon="-0.49161">
        <ele>1846.4</ele>
        <time>2021-08-09 15:17:54</time>
      </trkpt>
      <trkpt lat="42.84793" lon="-0.49161">
        <ele>1846.6</ele>
        <time>2021-08-09 15:17:55</time>
      </trkpt>
      <trkpt lat="42.84793" lon="-0.49161">
        <ele>1846.8</ele>
        <time>2021-08-09 15:17:56</time>
      </trkpt>
      <trkpt lat="42.84792" lon="-0.49162">
        <ele>1846.6</ele>
        <time>2021-08-09 15:17:57</time>
      </trkpt>
      <trkpt lat="42.84792" lon="-0.49161">
        <ele>1846.4</ele>
        <time>2021-08-09 15:17:58</time>
      </trkpt>
      <trkpt lat="42.84792" lon="-0.49162">
        <ele>1846.4</ele>
        <time>2021-08-09 15:17:59</time>
      </trkpt>
      <trkpt lat="42.84792" lon="-0.49162">
        <ele>1846.6</ele>
        <time>2021-08-09 15:18:00</time>
      </trkpt>
      <trkpt lat="42.84792" lon="-0.49163">
        <ele>1846.6</ele>
        <time>2021-08-09 15:18:01</time>
      </trkpt>
      <trkpt lat="42.84791" lon="-0.49162">
        <ele>1846.6</ele>
        <time>2021-08-09 15:18:02</time>
      </trkpt>
      <trkpt lat="42.8479" lon="-0.49162">
        <ele>1846.4</ele>
        <time>2021-08-09 15:18:03</time>
      </trkpt>
      <trkpt lat="42.8479" lon="-0.49163">
        <ele>1846.6</ele>
        <time>2021-08-09 15:18:04</time>
      </trkpt>
      <trkpt lat="42.8479" lon="-0.49163">
        <ele>1846.6</ele>
        <time>2021-08-09 15:18:05</time>
      </trkpt>
      <trkpt lat="42.84791" lon="-0.49163">
        <ele>1846.6</ele>
        <time>2021-08-09 15:18:06</time>
      </trkpt>
      <trkpt lat="42.84791" lon="-0.49164">
        <ele>1846</ele>
        <time>2021-08-09 15:18:07</time>
      </trkpt>
      <trkpt lat="42.84792" lon="-0.49165">
        <ele>1845.8</ele>
        <time>2021-08-09 15:18:08</time>
      </trkpt>
      <trkpt lat="42.84792" lon="-0.49165">
        <ele>1845.4</ele>
        <time>2021-08-09 15:18:10</time>
      </trkpt>
      <trkpt lat="42.84792" lon="-0.49166">
        <ele>1845.4</ele>
        <time>2021-08-09 15:18:11</time>
      </trkpt>
      <trkpt lat="42.84793" lon="-0.49165">
        <ele>1845.8</ele>
        <time>2021-08-09 15:18:12</time>
      </trkpt>
      <trkpt lat="42.84793" lon="-0.49166">
        <ele>1845.8</ele>
        <time>2021-08-09 15:18:13</time>
      </trkpt>
      <trkpt lat="42.84793" lon="-0.49165">
        <ele>1845.8</ele>
        <time>2021-08-09 15:18:14</time>
      </trkpt>
      <trkpt lat="42.84792" lon="-0.49165">
        <ele>1845.6</ele>
        <time>2021-08-09 15:18:15</time>
      </trkpt>
      <trkpt lat="42.84793" lon="-0.49165">
        <ele>1845.8</ele>
        <time>2021-08-09 15:18:16</time>
      </trkpt>
      <trkpt lat="42.84793" lon="-0.49165">
        <ele>1845.8</ele>
        <time>2021-08-09 15:18:17</time>
      </trkpt>
      <trkpt lat="42.84793" lon="-0.49166">
        <ele>1845.8</ele>
        <time>2021-08-09 15:18:18</time>
      </trkpt>
      <trkpt lat="42.84793" lon="-0.49165">
        <ele>1845.6</ele>
        <time>2021-08-09 15:18:19</time>
      </trkpt>
      <trkpt lat="42.84794" lon="-0.49166">
        <ele>1845.8</ele>
        <time>2021-08-09 15:18:20</time>
      </trkpt>
      <trkpt lat="42.84795" lon="-0.49167">
        <ele>1845.8</ele>
        <time>2021-08-09 15:18:21</time>
      </trkpt>
      <trkpt lat="42.84794" lon="-0.49167">
        <ele>1846</ele>
        <time>2021-08-09 15:18:22</time>
      </trkpt>
      <trkpt lat="42.84793" lon="-0.49166">
        <ele>1845.8</ele>
        <time>2021-08-09 15:18:23</time>
      </trkpt>
      <trkpt lat="42.84793" lon="-0.49165">
        <ele>1845.6</ele>
        <time>2021-08-09 15:18:24</time>
      </trkpt>
      <trkpt lat="42.84793" lon="-0.49165">
        <ele>1845.4</ele>
        <time>2021-08-09 15:18:25</time>
      </trkpt>
      <trkpt lat="42.84792" lon="-0.49164">
        <ele>1845</ele>
        <time>2021-08-09 15:18:26</time>
      </trkpt>
      <trkpt lat="42.84792" lon="-0.49164">
        <ele>1844.8</ele>
        <time>2021-08-09 15:18:27</time>
      </trkpt>
      <trkpt lat="42.84791" lon="-0.49163">
        <ele>1844.8</ele>
        <time>2021-08-09 15:18:28</time>
      </trkpt>
      <trkpt lat="42.8479" lon="-0.49162">
        <ele>1844.8</ele>
        <time>2021-08-09 15:18:29</time>
      </trkpt>
      <trkpt lat="42.8479" lon="-0.49162">
        <ele>1844.6</ele>
        <time>2021-08-09 15:18:30</time>
      </trkpt>
      <trkpt lat="42.84789" lon="-0.49161">
        <ele>1844.2</ele>
        <time>2021-08-09 15:18:31</time>
      </trkpt>
      <trkpt lat="42.84789" lon="-0.49162">
        <ele>1843.8</ele>
        <time>2021-08-09 15:18:32</time>
      </trkpt>
      <trkpt lat="42.84789" lon="-0.49162">
        <ele>1843.8</ele>
        <time>2021-08-09 15:18:33</time>
      </trkpt>
      <trkpt lat="42.84789" lon="-0.49162">
        <ele>1843.6</ele>
        <time>2021-08-09 15:18:34</time>
      </trkpt>
      <trkpt lat="42.84788" lon="-0.49161">
        <ele>1843.6</ele>
        <time>2021-08-09 15:18:35</time>
      </trkpt>
      <trkpt lat="42.84788" lon="-0.49161">
        <ele>1843.4</ele>
        <time>2021-08-09 15:18:36</time>
      </trkpt>
      <trkpt lat="42.84787" lon="-0.49162">
        <ele>1843.2</ele>
        <time>2021-08-09 15:18:37</time>
      </trkpt>
      <trkpt lat="42.84787" lon="-0.49162">
        <ele>1843.2</ele>
        <time>2021-08-09 15:18:38</time>
      </trkpt>
      <trkpt lat="42.84786" lon="-0.49162">
        <ele>1842.8</ele>
        <time>2021-08-09 15:18:39</time>
      </trkpt>
      <trkpt lat="42.84786" lon="-0.49162">
        <ele>1842.4</ele>
        <time>2021-08-09 15:18:40</time>
      </trkpt>
      <trkpt lat="42.84785" lon="-0.49162">
        <ele>1842.2</ele>
        <time>2021-08-09 15:18:41</time>
      </trkpt>
      <trkpt lat="42.84784" lon="-0.49163">
        <ele>1841.8</ele>
        <time>2021-08-09 15:18:42</time>
      </trkpt>
      <trkpt lat="42.84784" lon="-0.49162">
        <ele>1841.4</ele>
        <time>2021-08-09 15:18:43</time>
      </trkpt>
      <trkpt lat="42.84784" lon="-0.49161">
        <ele>1841</ele>
        <time>2021-08-09 15:18:44</time>
      </trkpt>
      <trkpt lat="42.84784" lon="-0.49161">
        <ele>1840.6</ele>
        <time>2021-08-09 15:18:45</time>
      </trkpt>
      <trkpt lat="42.84784" lon="-0.4916">
        <ele>1840.8</ele>
        <time>2021-08-09 15:18:46</time>
      </trkpt>
      <trkpt lat="42.84784" lon="-0.4916">
        <ele>1840.6</ele>
        <time>2021-08-09 15:18:47</time>
      </trkpt>
      <trkpt lat="42.84784" lon="-0.4916">
        <ele>1841</ele>
        <time>2021-08-09 15:18:48</time>
      </trkpt>
      <trkpt lat="42.84784" lon="-0.49159">
        <ele>1841</ele>
        <time>2021-08-09 15:18:49</time>
      </trkpt>
      <trkpt lat="42.84784" lon="-0.49158">
        <ele>1840.4</ele>
        <time>2021-08-09 15:18:50</time>
      </trkpt>
      <trkpt lat="42.84784" lon="-0.49157">
        <ele>1839.2</ele>
        <time>2021-08-09 15:18:51</time>
      </trkpt>
      <trkpt lat="42.84783" lon="-0.49157">
        <ele>1840</ele>
        <time>2021-08-09 15:18:52</time>
      </trkpt>
      <trkpt lat="42.84783" lon="-0.49156">
        <ele>1840</ele>
        <time>2021-08-09 15:18:53</time>
      </trkpt>
      <trkpt lat="42.84782" lon="-0.49155">
        <ele>1840.2</ele>
        <time>2021-08-09 15:18:54</time>
      </trkpt>
      <trkpt lat="42.84782" lon="-0.49155">
        <ele>1840</ele>
        <time>2021-08-09 15:18:55</time>
      </trkpt>
      <trkpt lat="42.84782" lon="-0.49154">
        <ele>1840.2</ele>
        <time>2021-08-09 15:18:56</time>
      </trkpt>
      <trkpt lat="42.84781" lon="-0.49154">
        <ele>1840.6</ele>
        <time>2021-08-09 15:18:57</time>
      </trkpt>
      <trkpt lat="42.84781" lon="-0.49153">
        <ele>1840</ele>
        <time>2021-08-09 15:18:58</time>
      </trkpt>
      <trkpt lat="42.84781" lon="-0.49152">
        <ele>1839.2</ele>
        <time>2021-08-09 15:18:59</time>
      </trkpt>
      <trkpt lat="42.84781" lon="-0.49151">
        <ele>1838.4</ele>
        <time>2021-08-09 15:19:00</time>
      </trkpt>
      <trkpt lat="42.84781" lon="-0.49149">
        <ele>1838.2</ele>
        <time>2021-08-09 15:19:01</time>
      </trkpt>
      <trkpt lat="42.84781" lon="-0.49148">
        <ele>1838</ele>
        <time>2021-08-09 15:19:02</time>
      </trkpt>
      <trkpt lat="42.84781" lon="-0.49147">
        <ele>1838</ele>
        <time>2021-08-09 15:19:03</time>
      </trkpt>
      <trkpt lat="42.84781" lon="-0.49146">
        <ele>1837.8</ele>
        <time>2021-08-09 15:19:04</time>
      </trkpt>
      <trkpt lat="42.84781" lon="-0.49145">
        <ele>1837.6</ele>
        <time>2021-08-09 15:19:05</time>
      </trkpt>
      <trkpt lat="42.8478" lon="-0.49144">
        <ele>1837.4</ele>
        <time>2021-08-09 15:19:06</time>
      </trkpt>
      <trkpt lat="42.8478" lon="-0.49143">
        <ele>1837.6</ele>
        <time>2021-08-09 15:19:07</time>
      </trkpt>
      <trkpt lat="42.84779" lon="-0.49142">
        <ele>1837.6</ele>
        <time>2021-08-09 15:19:08</time>
      </trkpt>
      <trkpt lat="42.84778" lon="-0.49141">
        <ele>1837.6</ele>
        <time>2021-08-09 15:19:09</time>
      </trkpt>
      <trkpt lat="42.84777" lon="-0.49141">
        <ele>1837.8</ele>
        <time>2021-08-09 15:19:10</time>
      </trkpt>
      <trkpt lat="42.84776" lon="-0.4914">
        <ele>1837.8</ele>
        <time>2021-08-09 15:19:11</time>
      </trkpt>
      <trkpt lat="42.84776" lon="-0.49141">
        <ele>1837.4</ele>
        <time>2021-08-09 15:19:12</time>
      </trkpt>
      <trkpt lat="42.84775" lon="-0.49141">
        <ele>1837.2</ele>
        <time>2021-08-09 15:19:13</time>
      </trkpt>
      <trkpt lat="42.84774" lon="-0.49142">
        <ele>1837</ele>
        <time>2021-08-09 15:19:14</time>
      </trkpt>
      <trkpt lat="42.84774" lon="-0.49143">
        <ele>1837</ele>
        <time>2021-08-09 15:19:15</time>
      </trkpt>
      <trkpt lat="42.84774" lon="-0.49143">
        <ele>1837.4</ele>
        <time>2021-08-09 15:19:16</time>
      </trkpt>
      <trkpt lat="42.84773" lon="-0.49144">
        <ele>1837.6</ele>
        <time>2021-08-09 15:19:17</time>
      </trkpt>
      <trkpt lat="42.84772" lon="-0.49144">
        <ele>1837.2</ele>
        <time>2021-08-09 15:19:18</time>
      </trkpt>
      <trkpt lat="42.84771" lon="-0.49144">
        <ele>1837.4</ele>
        <time>2021-08-09 15:19:19</time>
      </trkpt>
      <trkpt lat="42.84771" lon="-0.49144">
        <ele>1837.2</ele>
        <time>2021-08-09 15:19:20</time>
      </trkpt>
      <trkpt lat="42.8477" lon="-0.49145">
        <ele>1837.4</ele>
        <time>2021-08-09 15:19:22</time>
      </trkpt>
      <trkpt lat="42.84769" lon="-0.49146">
        <ele>1837.4</ele>
        <time>2021-08-09 15:19:23</time>
      </trkpt>
      <trkpt lat="42.84769" lon="-0.49147">
        <ele>1837.6</ele>
        <time>2021-08-09 15:19:24</time>
      </trkpt>
      <trkpt lat="42.84769" lon="-0.49148">
        <ele>1837.6</ele>
        <time>2021-08-09 15:19:25</time>
      </trkpt>
      <trkpt lat="42.84768" lon="-0.49149">
        <ele>1838</ele>
        <time>2021-08-09 15:19:26</time>
      </trkpt>
      <trkpt lat="42.84768" lon="-0.4915">
        <ele>1838</ele>
        <time>2021-08-09 15:19:27</time>
      </trkpt>
      <trkpt lat="42.84766" lon="-0.4915">
        <ele>1838.2</ele>
        <time>2021-08-09 15:19:28</time>
      </trkpt>
      <trkpt lat="42.84766" lon="-0.4915">
        <ele>1838.4</ele>
        <time>2021-08-09 15:19:29</time>
      </trkpt>
      <trkpt lat="42.84765" lon="-0.4915">
        <ele>1838.6</ele>
        <time>2021-08-09 15:19:30</time>
      </trkpt>
      <trkpt lat="42.84765" lon="-0.4915">
        <ele>1838.8</ele>
        <time>2021-08-09 15:19:53</time>
      </trkpt>
      <trkpt lat="42.84765" lon="-0.4915">
        <ele>1839.2</ele>
        <time>2021-08-09 15:19:54</time>
      </trkpt>
      <trkpt lat="42.84764" lon="-0.4915">
        <ele>1839.4</ele>
        <time>2021-08-09 15:19:55</time>
      </trkpt>
      <trkpt lat="42.84763" lon="-0.4915">
        <ele>1839.4</ele>
        <time>2021-08-09 15:19:56</time>
      </trkpt>
      <trkpt lat="42.84762" lon="-0.4915">
        <ele>1839.4</ele>
        <time>2021-08-09 15:19:57</time>
      </trkpt>
      <trkpt lat="42.84762" lon="-0.49148">
        <ele>1839.8</ele>
        <time>2021-08-09 15:19:58</time>
      </trkpt>
      <trkpt lat="42.8476" lon="-0.49148">
        <ele>1839.8</ele>
        <time>2021-08-09 15:19:59</time>
      </trkpt>
      <trkpt lat="42.8476" lon="-0.49149">
        <ele>1839.8</ele>
        <time>2021-08-09 15:20:00</time>
      </trkpt>
      <trkpt lat="42.84759" lon="-0.49149">
        <ele>1839.6</ele>
        <time>2021-08-09 15:20:01</time>
      </trkpt>
      <trkpt lat="42.84758" lon="-0.4915">
        <ele>1839.6</ele>
        <time>2021-08-09 15:20:16</time>
      </trkpt>
      <trkpt lat="42.84757" lon="-0.4915">
        <ele>1839.6</ele>
        <time>2021-08-09 15:20:17</time>
      </trkpt>
      <trkpt lat="42.84756" lon="-0.49151">
        <ele>1839.6</ele>
        <time>2021-08-09 15:20:18</time>
      </trkpt>
      <trkpt lat="42.84756" lon="-0.49152">
        <ele>1839.6</ele>
        <time>2021-08-09 15:20:19</time>
      </trkpt>
      <trkpt lat="42.84755" lon="-0.49153">
        <ele>1839.6</ele>
        <time>2021-08-09 15:20:20</time>
      </trkpt>
      <trkpt lat="42.84754" lon="-0.49154">
        <ele>1839.4</ele>
        <time>2021-08-09 15:20:21</time>
      </trkpt>
      <trkpt lat="42.84754" lon="-0.49154">
        <ele>1839.4</ele>
        <time>2021-08-09 15:20:22</time>
      </trkpt>
      <trkpt lat="42.84753" lon="-0.49154">
        <ele>1839.4</ele>
        <time>2021-08-09 15:20:23</time>
      </trkpt>
      <trkpt lat="42.84752" lon="-0.49155">
        <ele>1839.4</ele>
        <time>2021-08-09 15:20:24</time>
      </trkpt>
      <trkpt lat="42.8475" lon="-0.49156">
        <ele>1839.2</ele>
        <time>2021-08-09 15:20:25</time>
      </trkpt>
      <trkpt lat="42.8475" lon="-0.49157">
        <ele>1839</ele>
        <time>2021-08-09 15:20:26</time>
      </trkpt>
      <trkpt lat="42.84749" lon="-0.49158">
        <ele>1839</ele>
        <time>2021-08-09 15:20:27</time>
      </trkpt>
      <trkpt lat="42.84748" lon="-0.49159">
        <ele>1839.2</ele>
        <time>2021-08-09 15:20:28</time>
      </trkpt>
      <trkpt lat="42.84747" lon="-0.49159">
        <ele>1839.2</ele>
        <time>2021-08-09 15:20:29</time>
      </trkpt>
      <trkpt lat="42.84746" lon="-0.49161">
        <ele>1839.2</ele>
        <time>2021-08-09 15:20:30</time>
      </trkpt>
      <trkpt lat="42.84745" lon="-0.49162">
        <ele>1839.2</ele>
        <time>2021-08-09 15:20:31</time>
      </trkpt>
      <trkpt lat="42.84744" lon="-0.49162">
        <ele>1838.8</ele>
        <time>2021-08-09 15:20:32</time>
      </trkpt>
      <trkpt lat="42.84744" lon="-0.49162">
        <ele>1838.8</ele>
        <time>2021-08-09 15:20:33</time>
      </trkpt>
      <trkpt lat="42.84743" lon="-0.49164">
        <ele>1838.8</ele>
        <time>2021-08-09 15:20:34</time>
      </trkpt>
      <trkpt lat="42.84742" lon="-0.49164">
        <ele>1839</ele>
        <time>2021-08-09 15:20:35</time>
      </trkpt>
      <trkpt lat="42.84741" lon="-0.49164">
        <ele>1839.4</ele>
        <time>2021-08-09 15:20:36</time>
      </trkpt>
      <trkpt lat="42.8474" lon="-0.49165">
        <ele>1839.2</ele>
        <time>2021-08-09 15:20:37</time>
      </trkpt>
      <trkpt lat="42.8474" lon="-0.49164">
        <ele>1839.4</ele>
        <time>2021-08-09 15:20:38</time>
      </trkpt>
      <trkpt lat="42.84739" lon="-0.49165">
        <ele>1839.2</ele>
        <time>2021-08-09 15:20:39</time>
      </trkpt>
      <trkpt lat="42.84738" lon="-0.49166">
        <ele>1839.2</ele>
        <time>2021-08-09 15:20:40</time>
      </trkpt>
      <trkpt lat="42.84738" lon="-0.49166">
        <ele>1839.6</ele>
        <time>2021-08-09 15:20:41</time>
      </trkpt>
      <trkpt lat="42.84737" lon="-0.49166">
        <ele>1840</ele>
        <time>2021-08-09 15:20:42</time>
      </trkpt>
      <trkpt lat="42.84736" lon="-0.49167">
        <ele>1840</ele>
        <time>2021-08-09 15:20:43</time>
      </trkpt>
      <trkpt lat="42.84736" lon="-0.49166">
        <ele>1840.2</ele>
        <time>2021-08-09 15:20:44</time>
      </trkpt>
      <trkpt lat="42.84736" lon="-0.49166">
        <ele>1840.4</ele>
        <time>2021-08-09 15:20:45</time>
      </trkpt>
      <trkpt lat="42.84735" lon="-0.49167">
        <ele>1840.6</ele>
        <time>2021-08-09 15:20:46</time>
      </trkpt>
      <trkpt lat="42.84734" lon="-0.49168">
        <ele>1840.6</ele>
        <time>2021-08-09 15:20:47</time>
      </trkpt>
      <trkpt lat="42.84733" lon="-0.4917">
        <ele>1840.4</ele>
        <time>2021-08-09 15:20:48</time>
      </trkpt>
      <trkpt lat="42.84732" lon="-0.49172">
        <ele>1840.4</ele>
        <time>2021-08-09 15:20:49</time>
      </trkpt>
      <trkpt lat="42.84731" lon="-0.49175">
        <ele>1839.4</ele>
        <time>2021-08-09 15:20:50</time>
      </trkpt>
      <trkpt lat="42.8473" lon="-0.49176">
        <ele>1839.6</ele>
        <time>2021-08-09 15:20:51</time>
      </trkpt>
      <trkpt lat="42.84729" lon="-0.49177">
        <ele>1840.6</ele>
        <time>2021-08-09 15:20:52</time>
      </trkpt>
      <trkpt lat="42.84729" lon="-0.49178">
        <ele>1840.8</ele>
        <time>2021-08-09 15:20:53</time>
      </trkpt>
      <trkpt lat="42.84728" lon="-0.49178">
        <ele>1840.8</ele>
        <time>2021-08-09 15:20:54</time>
      </trkpt>
      <trkpt lat="42.84728" lon="-0.4918">
        <ele>1840.8</ele>
        <time>2021-08-09 15:20:55</time>
      </trkpt>
      <trkpt lat="42.84727" lon="-0.49181">
        <ele>1840.8</ele>
        <time>2021-08-09 15:20:56</time>
      </trkpt>
      <trkpt lat="42.84726" lon="-0.49182">
        <ele>1840.8</ele>
        <time>2021-08-09 15:20:57</time>
      </trkpt>
      <trkpt lat="42.84725" lon="-0.49184">
        <ele>1841</ele>
        <time>2021-08-09 15:20:58</time>
      </trkpt>
      <trkpt lat="42.84725" lon="-0.49186">
        <ele>1841</ele>
        <time>2021-08-09 15:20:59</time>
      </trkpt>
      <trkpt lat="42.84725" lon="-0.49187">
        <ele>1841.2</ele>
        <time>2021-08-09 15:21:00</time>
      </trkpt>
      <trkpt lat="42.84724" lon="-0.49188">
        <ele>1841.2</ele>
        <time>2021-08-09 15:21:01</time>
      </trkpt>
      <trkpt lat="42.84724" lon="-0.4919">
        <ele>1841.4</ele>
        <time>2021-08-09 15:21:02</time>
      </trkpt>
      <trkpt lat="42.84724" lon="-0.49191">
        <ele>1841.4</ele>
        <time>2021-08-09 15:21:03</time>
      </trkpt>
      <trkpt lat="42.84723" lon="-0.49193">
        <ele>1841.6</ele>
        <time>2021-08-09 15:21:04</time>
      </trkpt>
      <trkpt lat="42.84723" lon="-0.49194">
        <ele>1841.6</ele>
        <time>2021-08-09 15:21:05</time>
      </trkpt>
      <trkpt lat="42.84722" lon="-0.49196">
        <ele>1842</ele>
        <time>2021-08-09 15:21:06</time>
      </trkpt>
      <trkpt lat="42.84722" lon="-0.49197">
        <ele>1842.2</ele>
        <time>2021-08-09 15:21:07</time>
      </trkpt>
      <trkpt lat="42.84722" lon="-0.49197">
        <ele>1842.2</ele>
        <time>2021-08-09 15:21:08</time>
      </trkpt>
      <trkpt lat="42.84722" lon="-0.49198">
        <ele>1842.4</ele>
        <time>2021-08-09 15:21:09</time>
      </trkpt>
      <trkpt lat="42.84722" lon="-0.49199">
        <ele>1842.4</ele>
        <time>2021-08-09 15:21:10</time>
      </trkpt>
      <trkpt lat="42.84721" lon="-0.49199">
        <ele>1842.8</ele>
        <time>2021-08-09 15:21:11</time>
      </trkpt>
      <trkpt lat="42.84721" lon="-0.492">
        <ele>1843</ele>
        <time>2021-08-09 15:21:12</time>
      </trkpt>
      <trkpt lat="42.84721" lon="-0.49201">
        <ele>1843.2</ele>
        <time>2021-08-09 15:21:13</time>
      </trkpt>
      <trkpt lat="42.8472" lon="-0.49202">
        <ele>1843.6</ele>
        <time>2021-08-09 15:21:14</time>
      </trkpt>
      <trkpt lat="42.8472" lon="-0.49203">
        <ele>1843.8</ele>
        <time>2021-08-09 15:21:15</time>
      </trkpt>
      <trkpt lat="42.8472" lon="-0.49203">
        <ele>1844</ele>
        <time>2021-08-09 15:21:16</time>
      </trkpt>
      <trkpt lat="42.8472" lon="-0.49204">
        <ele>1844</ele>
        <time>2021-08-09 15:21:17</time>
      </trkpt>
      <trkpt lat="42.8472" lon="-0.49203">
        <ele>1844</ele>
        <time>2021-08-09 15:21:18</time>
      </trkpt>
      <trkpt lat="42.8472" lon="-0.49204">
        <ele>1844.2</ele>
        <time>2021-08-09 15:21:19</time>
      </trkpt>
      <trkpt lat="42.8472" lon="-0.49204">
        <ele>1844.2</ele>
        <time>2021-08-09 15:21:20</time>
      </trkpt>
      <trkpt lat="42.8472" lon="-0.49206">
        <ele>1844.8</ele>
        <time>2021-08-09 15:21:21</time>
      </trkpt>
      <trkpt lat="42.8472" lon="-0.49207">
        <ele>1844.8</ele>
        <time>2021-08-09 15:21:22</time>
      </trkpt>
      <trkpt lat="42.8472" lon="-0.49207">
        <ele>1844.8</ele>
        <time>2021-08-09 15:21:23</time>
      </trkpt>
      <trkpt lat="42.8472" lon="-0.49207">
        <ele>1845.2</ele>
        <time>2021-08-09 15:21:24</time>
      </trkpt>
      <trkpt lat="42.84719" lon="-0.49207">
        <ele>1845.4</ele>
        <time>2021-08-09 15:21:25</time>
      </trkpt>
      <trkpt lat="42.84719" lon="-0.49208">
        <ele>1845.2</ele>
        <time>2021-08-09 15:21:26</time>
      </trkpt>
      <trkpt lat="42.84719" lon="-0.49209">
        <ele>1845.2</ele>
        <time>2021-08-09 15:21:27</time>
      </trkpt>
      <trkpt lat="42.84718" lon="-0.49213">
        <ele>1845</ele>
        <time>2021-08-09 15:21:28</time>
      </trkpt>
      <trkpt lat="42.84717" lon="-0.49215">
        <ele>1845</ele>
        <time>2021-08-09 15:21:29</time>
      </trkpt>
      <trkpt lat="42.84716" lon="-0.49216">
        <ele>1845.2</ele>
        <time>2021-08-09 15:21:30</time>
      </trkpt>
      <trkpt lat="42.84715" lon="-0.49218">
        <ele>1845.2</ele>
        <time>2021-08-09 15:21:31</time>
      </trkpt>
      <trkpt lat="42.84715" lon="-0.49218">
        <ele>1845.8</ele>
        <time>2021-08-09 15:21:32</time>
      </trkpt>
      <trkpt lat="42.84715" lon="-0.49219">
        <ele>1845.8</ele>
        <time>2021-08-09 15:21:33</time>
      </trkpt>
      <trkpt lat="42.84715" lon="-0.4922">
        <ele>1845.6</ele>
        <time>2021-08-09 15:21:34</time>
      </trkpt>
      <trkpt lat="42.84714" lon="-0.49222">
        <ele>1845.8</ele>
        <time>2021-08-09 15:21:35</time>
      </trkpt>
      <trkpt lat="42.84713" lon="-0.49223">
        <ele>1846</ele>
        <time>2021-08-09 15:21:36</time>
      </trkpt>
      <trkpt lat="42.84713" lon="-0.49224">
        <ele>1846.2</ele>
        <time>2021-08-09 15:21:37</time>
      </trkpt>
      <trkpt lat="42.84713" lon="-0.49225">
        <ele>1846</ele>
        <time>2021-08-09 15:21:38</time>
      </trkpt>
      <trkpt lat="42.84713" lon="-0.49226">
        <ele>1846.2</ele>
        <time>2021-08-09 15:21:39</time>
      </trkpt>
      <trkpt lat="42.84712" lon="-0.49228">
        <ele>1846</ele>
        <time>2021-08-09 15:21:40</time>
      </trkpt>
      <trkpt lat="42.84712" lon="-0.49229">
        <ele>1846.4</ele>
        <time>2021-08-09 15:21:41</time>
      </trkpt>
      <trkpt lat="42.84712" lon="-0.49229">
        <ele>1846.4</ele>
        <time>2021-08-09 15:21:42</time>
      </trkpt>
      <trkpt lat="42.84711" lon="-0.49229">
        <ele>1846.2</ele>
        <time>2021-08-09 15:21:43</time>
      </trkpt>
      <trkpt lat="42.8471" lon="-0.4923">
        <ele>1846.2</ele>
        <time>2021-08-09 15:21:44</time>
      </trkpt>
      <trkpt lat="42.8471" lon="-0.49231">
        <ele>1846.4</ele>
        <time>2021-08-09 15:21:45</time>
      </trkpt>
      <trkpt lat="42.84709" lon="-0.49233">
        <ele>1846.6</ele>
        <time>2021-08-09 15:21:46</time>
      </trkpt>
      <trkpt lat="42.84708" lon="-0.49236">
        <ele>1846.6</ele>
        <time>2021-08-09 15:21:47</time>
      </trkpt>
      <trkpt lat="42.84708" lon="-0.49237">
        <ele>1846.6</ele>
        <time>2021-08-09 15:21:48</time>
      </trkpt>
      <trkpt lat="42.84707" lon="-0.49238">
        <ele>1846.8</ele>
        <time>2021-08-09 15:21:49</time>
      </trkpt>
      <trkpt lat="42.84707" lon="-0.49239">
        <ele>1846.6</ele>
        <time>2021-08-09 15:21:50</time>
      </trkpt>
      <trkpt lat="42.84706" lon="-0.4924">
        <ele>1847</ele>
        <time>2021-08-09 15:21:51</time>
      </trkpt>
      <trkpt lat="42.84705" lon="-0.49241">
        <ele>1847</ele>
        <time>2021-08-09 15:21:52</time>
      </trkpt>
      <trkpt lat="42.84705" lon="-0.49242">
        <ele>1847.4</ele>
        <time>2021-08-09 15:21:53</time>
      </trkpt>
      <trkpt lat="42.84704" lon="-0.49243">
        <ele>1847.2</ele>
        <time>2021-08-09 15:21:54</time>
      </trkpt>
      <trkpt lat="42.84703" lon="-0.49244">
        <ele>1847.2</ele>
        <time>2021-08-09 15:21:55</time>
      </trkpt>
      <trkpt lat="42.84703" lon="-0.49245">
        <ele>1847.2</ele>
        <time>2021-08-09 15:21:56</time>
      </trkpt>
      <trkpt lat="42.84702" lon="-0.49245">
        <ele>1847.2</ele>
        <time>2021-08-09 15:21:57</time>
      </trkpt>
      <trkpt lat="42.84701" lon="-0.49247">
        <ele>1847.2</ele>
        <time>2021-08-09 15:21:58</time>
      </trkpt>
      <trkpt lat="42.847" lon="-0.49248">
        <ele>1847.4</ele>
        <time>2021-08-09 15:21:59</time>
      </trkpt>
      <trkpt lat="42.847" lon="-0.49249">
        <ele>1847.6</ele>
        <time>2021-08-09 15:22:00</time>
      </trkpt>
      <trkpt lat="42.84699" lon="-0.4925">
        <ele>1847.6</ele>
        <time>2021-08-09 15:22:01</time>
      </trkpt>
      <trkpt lat="42.84698" lon="-0.4925">
        <ele>1847.6</ele>
        <time>2021-08-09 15:22:02</time>
      </trkpt>
      <trkpt lat="42.84698" lon="-0.49251">
        <ele>1847.6</ele>
        <time>2021-08-09 15:22:03</time>
      </trkpt>
      <trkpt lat="42.84697" lon="-0.49251">
        <ele>1847.8</ele>
        <time>2021-08-09 15:22:04</time>
      </trkpt>
      <trkpt lat="42.84696" lon="-0.49252">
        <ele>1848</ele>
        <time>2021-08-09 15:22:05</time>
      </trkpt>
      <trkpt lat="42.84696" lon="-0.49252">
        <ele>1848</ele>
        <time>2021-08-09 15:22:06</time>
      </trkpt>
      <trkpt lat="42.84695" lon="-0.49252">
        <ele>1848.2</ele>
        <time>2021-08-09 15:22:07</time>
      </trkpt>
      <trkpt lat="42.84694" lon="-0.49252">
        <ele>1848.2</ele>
        <time>2021-08-09 15:22:08</time>
      </trkpt>
      <trkpt lat="42.84694" lon="-0.49252">
        <ele>1848.2</ele>
        <time>2021-08-09 15:22:09</time>
      </trkpt>
      <trkpt lat="42.84694" lon="-0.49252">
        <ele>1848.4</ele>
        <time>2021-08-09 15:22:10</time>
      </trkpt>
      <trkpt lat="42.84693" lon="-0.49252">
        <ele>1847.6</ele>
        <time>2021-08-09 15:22:11</time>
      </trkpt>
      <trkpt lat="42.84693" lon="-0.49252">
        <ele>1848.2</ele>
        <time>2021-08-09 15:22:12</time>
      </trkpt>
      <trkpt lat="42.84692" lon="-0.49253">
        <ele>1848.2</ele>
        <time>2021-08-09 15:22:13</time>
      </trkpt>
      <trkpt lat="42.84691" lon="-0.49254">
        <ele>1848.4</ele>
        <time>2021-08-09 15:22:14</time>
      </trkpt>
      <trkpt lat="42.8469" lon="-0.49256">
        <ele>1848.6</ele>
        <time>2021-08-09 15:22:15</time>
      </trkpt>
      <trkpt lat="42.8469" lon="-0.49256">
        <ele>1849</ele>
        <time>2021-08-09 15:22:16</time>
      </trkpt>
      <trkpt lat="42.84689" lon="-0.49258">
        <ele>1849.6</ele>
        <time>2021-08-09 15:22:17</time>
      </trkpt>
      <trkpt lat="42.84689" lon="-0.4926">
        <ele>1849</ele>
        <time>2021-08-09 15:22:18</time>
      </trkpt>
      <trkpt lat="42.84688" lon="-0.49261">
        <ele>1848.8</ele>
        <time>2021-08-09 15:22:19</time>
      </trkpt>
      <trkpt lat="42.84687" lon="-0.4926">
        <ele>1848.8</ele>
        <time>2021-08-09 15:22:20</time>
      </trkpt>
      <trkpt lat="42.84686" lon="-0.4926">
        <ele>1849</ele>
        <time>2021-08-09 15:22:21</time>
      </trkpt>
      <trkpt lat="42.84685" lon="-0.4926">
        <ele>1849.2</ele>
        <time>2021-08-09 15:22:22</time>
      </trkpt>
      <trkpt lat="42.84683" lon="-0.49261">
        <ele>1849.4</ele>
        <time>2021-08-09 15:22:23</time>
      </trkpt>
      <trkpt lat="42.84682" lon="-0.49261">
        <ele>1849.4</ele>
        <time>2021-08-09 15:22:24</time>
      </trkpt>
      <trkpt lat="42.84681" lon="-0.4926">
        <ele>1849.6</ele>
        <time>2021-08-09 15:22:25</time>
      </trkpt>
      <trkpt lat="42.84681" lon="-0.4926">
        <ele>1849.8</ele>
        <time>2021-08-09 15:22:26</time>
      </trkpt>
      <trkpt lat="42.84679" lon="-0.4926">
        <ele>1850</ele>
        <time>2021-08-09 15:22:27</time>
      </trkpt>
      <trkpt lat="42.84679" lon="-0.4926">
        <ele>1849.8</ele>
        <time>2021-08-09 15:22:28</time>
      </trkpt>
      <trkpt lat="42.84678" lon="-0.4926">
        <ele>1849.6</ele>
        <time>2021-08-09 15:22:29</time>
      </trkpt>
      <trkpt lat="42.84677" lon="-0.4926">
        <ele>1849.8</ele>
        <time>2021-08-09 15:22:30</time>
      </trkpt>
      <trkpt lat="42.84676" lon="-0.4926">
        <ele>1850</ele>
        <time>2021-08-09 15:22:31</time>
      </trkpt>
      <trkpt lat="42.84676" lon="-0.49259">
        <ele>1850.2</ele>
        <time>2021-08-09 15:22:32</time>
      </trkpt>
      <trkpt lat="42.84675" lon="-0.49259">
        <ele>1850.4</ele>
        <time>2021-08-09 15:22:33</time>
      </trkpt>
      <trkpt lat="42.84673" lon="-0.4926">
        <ele>1851.4</ele>
        <time>2021-08-09 15:22:34</time>
      </trkpt>
      <trkpt lat="42.84672" lon="-0.49261">
        <ele>1850.2</ele>
        <time>2021-08-09 15:22:35</time>
      </trkpt>
      <trkpt lat="42.8467" lon="-0.49261">
        <ele>1850.4</ele>
        <time>2021-08-09 15:22:36</time>
      </trkpt>
      <trkpt lat="42.8467" lon="-0.49262">
        <ele>1850.2</ele>
        <time>2021-08-09 15:22:37</time>
      </trkpt>
      <trkpt lat="42.84669" lon="-0.49263">
        <ele>1851</ele>
        <time>2021-08-09 15:22:38</time>
      </trkpt>
      <trkpt lat="42.84668" lon="-0.49264">
        <ele>1850.8</ele>
        <time>2021-08-09 15:22:39</time>
      </trkpt>
      <trkpt lat="42.84668" lon="-0.49264">
        <ele>1851.2</ele>
      </trkpt>
      <trkpt lat="42.84667" lon="-0.49265">
        <ele>1851</ele>
        <time>2021-08-09 15:22:40</time>
      </trkpt>
      <trkpt lat="42.84666" lon="-0.49266">
        <ele>1851.2</ele>
        <time>2021-08-09 15:22:41</time>
      </trkpt>
      <trkpt lat="42.84665" lon="-0.49268">
        <ele>1851.2</ele>
        <time>2021-08-09 15:22:42</time>
      </trkpt>
      <trkpt lat="42.84665" lon="-0.49268">
        <ele>1851.4</ele>
        <time>2021-08-09 15:22:43</time>
      </trkpt>
      <trkpt lat="42.84664" lon="-0.49269">
        <ele>1851.6</ele>
        <time>2021-08-09 15:22:44</time>
      </trkpt>
      <trkpt lat="42.84663" lon="-0.4927">
        <ele>1851.8</ele>
        <time>2021-08-09 15:22:45</time>
      </trkpt>
      <trkpt lat="42.84662" lon="-0.49271">
        <ele>1851.8</ele>
        <time>2021-08-09 15:22:47</time>
      </trkpt>
      <trkpt lat="42.84661" lon="-0.49272">
        <ele>1852.2</ele>
      </trkpt>
      <trkpt lat="42.84661" lon="-0.49272">
        <ele>1852.2</ele>
        <time>2021-08-09 15:22:48</time>
      </trkpt>
      <trkpt lat="42.8466" lon="-0.49273">
        <ele>1852.2</ele>
        <time>2021-08-09 15:22:49</time>
      </trkpt>
      <trkpt lat="42.8466" lon="-0.49274">
        <ele>1852.2</ele>
        <time>2021-08-09 15:22:50</time>
      </trkpt>
      <trkpt lat="42.84659" lon="-0.49275">
        <ele>1852.6</ele>
        <time>2021-08-09 15:22:51</time>
      </trkpt>
      <trkpt lat="42.84658" lon="-0.49276">
        <ele>1852.6</ele>
        <time>2021-08-09 15:22:52</time>
      </trkpt>
      <trkpt lat="42.84658" lon="-0.49276">
        <ele>1852.8</ele>
        <time>2021-08-09 15:22:53</time>
      </trkpt>
      <trkpt lat="42.84657" lon="-0.49277">
        <ele>1853.2</ele>
        <time>2021-08-09 15:22:54</time>
      </trkpt>
      <trkpt lat="42.84657" lon="-0.49278">
        <ele>1853.4</ele>
        <time>2021-08-09 15:22:55</time>
      </trkpt>
      <trkpt lat="42.84657" lon="-0.49278">
        <ele>1853.6</ele>
        <time>2021-08-09 15:22:56</time>
      </trkpt>
      <trkpt lat="42.84656" lon="-0.49279">
        <ele>1853.6</ele>
        <time>2021-08-09 15:22:57</time>
      </trkpt>
      <trkpt lat="42.84656" lon="-0.49279">
        <ele>1853.8</ele>
        <time>2021-08-09 15:22:58</time>
      </trkpt>
      <trkpt lat="42.84655" lon="-0.4928">
        <ele>1854</ele>
        <time>2021-08-09 15:22:59</time>
      </trkpt>
      <trkpt lat="42.84655" lon="-0.49281">
        <ele>1854</ele>
        <time>2021-08-09 15:23:00</time>
      </trkpt>
      <trkpt lat="42.84654" lon="-0.49281">
        <ele>1854.4</ele>
        <time>2021-08-09 15:23:01</time>
      </trkpt>
      <trkpt lat="42.84654" lon="-0.49282">
        <ele>1854.4</ele>
        <time>2021-08-09 15:23:02</time>
      </trkpt>
      <trkpt lat="42.84654" lon="-0.49283">
        <ele>1854.6</ele>
        <time>2021-08-09 15:23:03</time>
      </trkpt>
      <trkpt lat="42.84653" lon="-0.49284">
        <ele>1854.6</ele>
        <time>2021-08-09 15:23:04</time>
      </trkpt>
      <trkpt lat="42.84653" lon="-0.49284">
        <ele>1854.6</ele>
        <time>2021-08-09 15:23:05</time>
      </trkpt>
      <trkpt lat="42.84652" lon="-0.49285">
        <ele>1854.8</ele>
        <time>2021-08-09 15:23:07</time>
      </trkpt>
      <trkpt lat="42.84652" lon="-0.49284">
        <ele>1855</ele>
      </trkpt>
      <trkpt lat="42.84652" lon="-0.49284">
        <ele>1855.2</ele>
        <time>2021-08-09 15:23:08</time>
      </trkpt>
      <trkpt lat="42.84652" lon="-0.49285">
        <ele>1855.4</ele>
        <time>2021-08-09 15:23:09</time>
      </trkpt>
      <trkpt lat="42.84652" lon="-0.49285">
        <ele>1855.4</ele>
        <time>2021-08-09 15:23:10</time>
      </trkpt>
      <trkpt lat="42.84651" lon="-0.49285">
        <ele>1855.4</ele>
        <time>2021-08-09 15:23:11</time>
      </trkpt>
      <trkpt lat="42.84651" lon="-0.49286">
        <ele>1855.6</ele>
        <time>2021-08-09 15:23:12</time>
      </trkpt>
      <trkpt lat="42.84651" lon="-0.49286">
        <ele>1855.8</ele>
        <time>2021-08-09 15:23:13</time>
      </trkpt>
      <trkpt lat="42.8465" lon="-0.49286">
        <ele>1855.8</ele>
        <time>2021-08-09 15:23:14</time>
      </trkpt>
      <trkpt lat="42.84649" lon="-0.49287">
        <ele>1856.2</ele>
        <time>2021-08-09 15:23:15</time>
      </trkpt>
      <trkpt lat="42.84649" lon="-0.49287">
        <ele>1856.2</ele>
        <time>2021-08-09 15:23:16</time>
      </trkpt>
      <trkpt lat="42.84648" lon="-0.49288">
        <ele>1856.4</ele>
        <time>2021-08-09 15:23:17</time>
      </trkpt>
      <trkpt lat="42.84648" lon="-0.49289">
        <ele>1856.8</ele>
        <time>2021-08-09 15:23:18</time>
      </trkpt>
      <trkpt lat="42.84647" lon="-0.4929">
        <ele>1857</ele>
        <time>2021-08-09 15:23:19</time>
      </trkpt>
      <trkpt lat="42.84646" lon="-0.4929">
        <ele>1857.2</ele>
        <time>2021-08-09 15:23:20</time>
      </trkpt>
      <trkpt lat="42.84645" lon="-0.49291">
        <ele>1857.4</ele>
        <time>2021-08-09 15:23:21</time>
      </trkpt>
      <trkpt lat="42.84645" lon="-0.49292">
        <ele>1857.6</ele>
        <time>2021-08-09 15:23:22</time>
      </trkpt>
      <trkpt lat="42.84644" lon="-0.49293">
        <ele>1857.6</ele>
        <time>2021-08-09 15:23:23</time>
      </trkpt>
      <trkpt lat="42.84644" lon="-0.49293">
        <ele>1857.6</ele>
        <time>2021-08-09 15:23:24</time>
      </trkpt>
      <trkpt lat="42.84644" lon="-0.49293">
        <ele>1857.8</ele>
        <time>2021-08-09 15:23:25</time>
      </trkpt>
      <trkpt lat="42.84643" lon="-0.49294">
        <ele>1857.8</ele>
        <time>2021-08-09 15:23:26</time>
      </trkpt>
      <trkpt lat="42.84643" lon="-0.49294">
        <ele>1858</ele>
        <time>2021-08-09 15:23:27</time>
      </trkpt>
      <trkpt lat="42.84643" lon="-0.49295">
        <ele>1858.2</ele>
        <time>2021-08-09 15:23:28</time>
      </trkpt>
      <trkpt lat="42.84643" lon="-0.49295">
        <ele>1858.4</ele>
        <time>2021-08-09 15:23:29</time>
      </trkpt>
      <trkpt lat="42.84643" lon="-0.49296">
        <ele>1858.6</ele>
        <time>2021-08-09 15:23:30</time>
      </trkpt>
      <trkpt lat="42.84642" lon="-0.49296">
        <ele>1858.8</ele>
        <time>2021-08-09 15:23:31</time>
      </trkpt>
      <trkpt lat="42.84642" lon="-0.49297">
        <ele>1858.8</ele>
        <time>2021-08-09 15:23:32</time>
      </trkpt>
      <trkpt lat="42.84642" lon="-0.49298">
        <ele>1859</ele>
        <time>2021-08-09 15:23:33</time>
      </trkpt>
      <trkpt lat="42.84641" lon="-0.49299">
        <ele>1859</ele>
        <time>2021-08-09 15:23:34</time>
      </trkpt>
      <trkpt lat="42.84641" lon="-0.493">
        <ele>1859.2</ele>
        <time>2021-08-09 15:23:35</time>
      </trkpt>
      <trkpt lat="42.8464" lon="-0.493">
        <ele>1859.4</ele>
        <time>2021-08-09 15:23:36</time>
      </trkpt>
      <trkpt lat="42.8464" lon="-0.493">
        <ele>1859.4</ele>
        <time>2021-08-09 15:23:37</time>
      </trkpt>
      <trkpt lat="42.8464" lon="-0.49301">
        <ele>1859.6</ele>
        <time>2021-08-09 15:23:38</time>
      </trkpt>
      <trkpt lat="42.84639" lon="-0.49302">
        <ele>1859.4</ele>
        <time>2021-08-09 15:23:39</time>
      </trkpt>
      <trkpt lat="42.84638" lon="-0.49303">
        <ele>1859.6</ele>
        <time>2021-08-09 15:23:40</time>
      </trkpt>
      <trkpt lat="42.84638" lon="-0.49304">
        <ele>1859.8</ele>
        <time>2021-08-09 15:23:41</time>
      </trkpt>
      <trkpt lat="42.84638" lon="-0.49305">
        <ele>1860</ele>
        <time>2021-08-09 15:23:42</time>
      </trkpt>
      <trkpt lat="42.84637" lon="-0.49305">
        <ele>1860.2</ele>
        <time>2021-08-09 15:23:43</time>
      </trkpt>
      <trkpt lat="42.84637" lon="-0.49306">
        <ele>1860.2</ele>
        <time>2021-08-09 15:23:44</time>
      </trkpt>
      <trkpt lat="42.84637" lon="-0.49307">
        <ele>1860.6</ele>
        <time>2021-08-09 15:23:45</time>
      </trkpt>
      <trkpt lat="42.84636" lon="-0.49308">
        <ele>1860.6</ele>
        <time>2021-08-09 15:23:46</time>
      </trkpt>
      <trkpt lat="42.84636" lon="-0.49309">
        <ele>1860.6</ele>
        <time>2021-08-09 15:23:47</time>
      </trkpt>
      <trkpt lat="42.84636" lon="-0.4931">
        <ele>1860.8</ele>
        <time>2021-08-09 15:23:48</time>
      </trkpt>
      <trkpt lat="42.84636" lon="-0.49312">
        <ele>1861.2</ele>
        <time>2021-08-09 15:23:49</time>
      </trkpt>
      <trkpt lat="42.84635" lon="-0.49313">
        <ele>1861.2</ele>
        <time>2021-08-09 15:23:50</time>
      </trkpt>
      <trkpt lat="42.84635" lon="-0.49313">
        <ele>1861.2</ele>
        <time>2021-08-09 15:23:51</time>
      </trkpt>
      <trkpt lat="42.84635" lon="-0.49314">
        <ele>1861.6</ele>
        <time>2021-08-09 15:23:52</time>
      </trkpt>
      <trkpt lat="42.84635" lon="-0.49316">
        <ele>1861.6</ele>
        <time>2021-08-09 15:23:53</time>
      </trkpt>
      <trkpt lat="42.84635" lon="-0.49316">
        <ele>1862</ele>
        <time>2021-08-09 15:23:54</time>
      </trkpt>
      <trkpt lat="42.84635" lon="-0.49317">
        <ele>1862.2</ele>
        <time>2021-08-09 15:23:55</time>
      </trkpt>
      <trkpt lat="42.84635" lon="-0.49319">
        <ele>1862.2</ele>
        <time>2021-08-09 15:23:56</time>
      </trkpt>
      <trkpt lat="42.84634" lon="-0.4932">
        <ele>1862.4</ele>
        <time>2021-08-09 15:23:57</time>
      </trkpt>
      <trkpt lat="42.84633" lon="-0.49321">
        <ele>1862.6</ele>
        <time>2021-08-09 15:23:58</time>
      </trkpt>
      <trkpt lat="42.84632" lon="-0.4932">
        <ele>1862.6</ele>
        <time>2021-08-09 15:23:59</time>
      </trkpt>
      <trkpt lat="42.84632" lon="-0.4932">
        <ele>1862.8</ele>
        <time>2021-08-09 15:24:00</time>
      </trkpt>
      <trkpt lat="42.84631" lon="-0.49319">
        <ele>1862.8</ele>
        <time>2021-08-09 15:24:01</time>
      </trkpt>
      <trkpt lat="42.8463" lon="-0.49318">
        <ele>1863.2</ele>
        <time>2021-08-09 15:24:02</time>
      </trkpt>
      <trkpt lat="42.84629" lon="-0.49317">
        <ele>1863.2</ele>
        <time>2021-08-09 15:24:03</time>
      </trkpt>
      <trkpt lat="42.84629" lon="-0.49316">
        <ele>1863.2</ele>
        <time>2021-08-09 15:24:04</time>
      </trkpt>
      <trkpt lat="42.84629" lon="-0.49315">
        <ele>1863.2</ele>
        <time>2021-08-09 15:24:05</time>
      </trkpt>
      <trkpt lat="42.84629" lon="-0.49313">
        <ele>1863.4</ele>
        <time>2021-08-09 15:24:06</time>
      </trkpt>
      <trkpt lat="42.84629" lon="-0.49312">
        <ele>1863.6</ele>
        <time>2021-08-09 15:24:07</time>
      </trkpt>
      <trkpt lat="42.84629" lon="-0.49311">
        <ele>1863.6</ele>
        <time>2021-08-09 15:24:08</time>
      </trkpt>
      <trkpt lat="42.84628" lon="-0.49309">
        <ele>1863.6</ele>
        <time>2021-08-09 15:24:09</time>
      </trkpt>
      <trkpt lat="42.84628" lon="-0.49309">
        <ele>1863.6</ele>
        <time>2021-08-09 15:24:10</time>
      </trkpt>
      <trkpt lat="42.84627" lon="-0.49307">
        <ele>1864</ele>
        <time>2021-08-09 15:24:11</time>
      </trkpt>
      <trkpt lat="42.84627" lon="-0.49306">
        <ele>1864</ele>
        <time>2021-08-09 15:24:12</time>
      </trkpt>
      <trkpt lat="42.84627" lon="-0.49305">
        <ele>1863.4</ele>
        <time>2021-08-09 15:24:13</time>
      </trkpt>
      <trkpt lat="42.84627" lon="-0.49304">
        <ele>1863.8</ele>
        <time>2021-08-09 15:24:14</time>
      </trkpt>
      <trkpt lat="42.84627" lon="-0.49303">
        <ele>1863.8</ele>
        <time>2021-08-09 15:24:15</time>
      </trkpt>
      <trkpt lat="42.84627" lon="-0.49302">
        <ele>1864.4</ele>
        <time>2021-08-09 15:24:16</time>
      </trkpt>
      <trkpt lat="42.84627" lon="-0.49301">
        <ele>1864.2</ele>
        <time>2021-08-09 15:24:17</time>
      </trkpt>
      <trkpt lat="42.84626" lon="-0.493">
        <ele>1864.4</ele>
        <time>2021-08-09 15:24:18</time>
      </trkpt>
      <trkpt lat="42.84626" lon="-0.49298">
        <ele>1864</ele>
        <time>2021-08-09 15:24:19</time>
      </trkpt>
      <trkpt lat="42.84626" lon="-0.49298">
        <ele>1864.6</ele>
        <time>2021-08-09 15:24:20</time>
      </trkpt>
      <trkpt lat="42.84626" lon="-0.49297">
        <ele>1864.8</ele>
        <time>2021-08-09 15:24:21</time>
      </trkpt>
      <trkpt lat="42.84626" lon="-0.49297">
        <ele>1864.8</ele>
        <time>2021-08-09 15:24:22</time>
      </trkpt>
      <trkpt lat="42.84626" lon="-0.49296">
        <ele>1865</ele>
        <time>2021-08-09 15:24:23</time>
      </trkpt>
      <trkpt lat="42.84626" lon="-0.49295">
        <ele>1865.4</ele>
        <time>2021-08-09 15:24:24</time>
      </trkpt>
      <trkpt lat="42.84626" lon="-0.49295">
        <ele>1864.8</ele>
        <time>2021-08-09 15:24:25</time>
      </trkpt>
      <trkpt lat="42.84625" lon="-0.49294">
        <ele>1866.6</ele>
        <time>2021-08-09 15:24:26</time>
      </trkpt>
      <trkpt lat="42.84625" lon="-0.49293">
        <ele>1866.2</ele>
        <time>2021-08-09 15:24:27</time>
      </trkpt>
      <trkpt lat="42.84625" lon="-0.49295">
        <ele>1867</ele>
        <time>2021-08-09 15:24:28</time>
      </trkpt>
      <trkpt lat="42.84624" lon="-0.49295">
        <ele>1865.6</ele>
        <time>2021-08-09 15:24:29</time>
      </trkpt>
      <trkpt lat="42.84624" lon="-0.49295">
        <ele>1866.2</ele>
        <time>2021-08-09 15:24:30</time>
      </trkpt>
      <trkpt lat="42.84623" lon="-0.49297">
        <ele>1866</ele>
        <time>2021-08-09 15:24:31</time>
      </trkpt>
      <trkpt lat="42.84622" lon="-0.49298">
        <ele>1866.2</ele>
        <time>2021-08-09 15:24:32</time>
      </trkpt>
      <trkpt lat="42.84623" lon="-0.49298">
        <ele>1865.8</ele>
        <time>2021-08-09 15:24:33</time>
      </trkpt>
      <trkpt lat="42.84622" lon="-0.49299">
        <ele>1866.4</ele>
        <time>2021-08-09 15:24:34</time>
      </trkpt>
      <trkpt lat="42.84623" lon="-0.49299">
        <ele>1866.6</ele>
        <time>2021-08-09 15:24:35</time>
      </trkpt>
      <trkpt lat="42.84623" lon="-0.493">
        <ele>1866.6</ele>
        <time>2021-08-09 15:24:36</time>
      </trkpt>
      <trkpt lat="42.84624" lon="-0.49301">
        <ele>1867</ele>
        <time>2021-08-09 15:24:37</time>
      </trkpt>
      <trkpt lat="42.84623" lon="-0.49302">
        <ele>1867</ele>
        <time>2021-08-09 15:24:38</time>
      </trkpt>
      <trkpt lat="42.84623" lon="-0.49303">
        <ele>1866.8</ele>
        <time>2021-08-09 15:24:39</time>
      </trkpt>
      <trkpt lat="42.84623" lon="-0.49304">
        <ele>1866.8</ele>
        <time>2021-08-09 15:24:40</time>
      </trkpt>
      <trkpt lat="42.84623" lon="-0.49305">
        <ele>1867.8</ele>
        <time>2021-08-09 15:24:41</time>
      </trkpt>
      <trkpt lat="42.84623" lon="-0.49306">
        <ele>1867.4</ele>
        <time>2021-08-09 15:24:42</time>
      </trkpt>
      <trkpt lat="42.84622" lon="-0.49307">
        <ele>1867.6</ele>
        <time>2021-08-09 15:24:43</time>
      </trkpt>
      <trkpt lat="42.84622" lon="-0.49308">
        <ele>1867.4</ele>
        <time>2021-08-09 15:24:44</time>
      </trkpt>
      <trkpt lat="42.84622" lon="-0.49309">
        <ele>1867.4</ele>
        <time>2021-08-09 15:24:45</time>
      </trkpt>
      <trkpt lat="42.84622" lon="-0.4931">
        <ele>1867.8</ele>
        <time>2021-08-09 15:24:46</time>
      </trkpt>
      <trkpt lat="42.84622" lon="-0.49311">
        <ele>1868.4</ele>
        <time>2021-08-09 15:24:47</time>
      </trkpt>
      <trkpt lat="42.84621" lon="-0.49312">
        <ele>1868.4</ele>
        <time>2021-08-09 15:24:48</time>
      </trkpt>
      <trkpt lat="42.8462" lon="-0.49313">
        <ele>1868.4</ele>
        <time>2021-08-09 15:24:49</time>
      </trkpt>
      <trkpt lat="42.8462" lon="-0.49314">
        <ele>1868.4</ele>
        <time>2021-08-09 15:24:50</time>
      </trkpt>
      <trkpt lat="42.84619" lon="-0.49316">
        <ele>1868.6</ele>
        <time>2021-08-09 15:24:51</time>
      </trkpt>
      <trkpt lat="42.84619" lon="-0.49316">
        <ele>1868.8</ele>
        <time>2021-08-09 15:24:52</time>
      </trkpt>
      <trkpt lat="42.84619" lon="-0.49318">
        <ele>1868.6</ele>
        <time>2021-08-09 15:24:53</time>
      </trkpt>
      <trkpt lat="42.84619" lon="-0.49319">
        <ele>1868.8</ele>
        <time>2021-08-09 15:24:54</time>
      </trkpt>
      <trkpt lat="42.84619" lon="-0.4932">
        <ele>1868.8</ele>
        <time>2021-08-09 15:24:55</time>
      </trkpt>
      <trkpt lat="42.84619" lon="-0.49321">
        <ele>1869.4</ele>
        <time>2021-08-09 15:24:56</time>
      </trkpt>
      <trkpt lat="42.84619" lon="-0.49322">
        <ele>1869.6</ele>
        <time>2021-08-09 15:24:57</time>
      </trkpt>
      <trkpt lat="42.84619" lon="-0.49323">
        <ele>1869.6</ele>
        <time>2021-08-09 15:24:58</time>
      </trkpt>
      <trkpt lat="42.84619" lon="-0.49323">
        <ele>1869.8</ele>
        <time>2021-08-09 15:24:59</time>
      </trkpt>
      <trkpt lat="42.84619" lon="-0.49323">
        <ele>1870</ele>
        <time>2021-08-09 15:25:00</time>
      </trkpt>
      <trkpt lat="42.84618" lon="-0.49323">
        <ele>1869.4</ele>
        <time>2021-08-09 15:25:01</time>
      </trkpt>
      <trkpt lat="42.84617" lon="-0.49322">
        <ele>1869.8</ele>
        <time>2021-08-09 15:25:02</time>
      </trkpt>
      <trkpt lat="42.84616" lon="-0.49321">
        <ele>1870</ele>
        <time>2021-08-09 15:25:03</time>
      </trkpt>
      <trkpt lat="42.84616" lon="-0.4932">
        <ele>1870.6</ele>
        <time>2021-08-09 15:25:04</time>
      </trkpt>
      <trkpt lat="42.84616" lon="-0.49319">
        <ele>1870.8</ele>
        <time>2021-08-09 15:25:05</time>
      </trkpt>
      <trkpt lat="42.84616" lon="-0.49318">
        <ele>1871.2</ele>
        <time>2021-08-09 15:25:06</time>
      </trkpt>
      <trkpt lat="42.84616" lon="-0.49317">
        <ele>1871</ele>
        <time>2021-08-09 15:25:07</time>
      </trkpt>
      <trkpt lat="42.84615" lon="-0.49315">
        <ele>1871</ele>
        <time>2021-08-09 15:25:08</time>
      </trkpt>
      <trkpt lat="42.84615" lon="-0.49315">
        <ele>1871.2</ele>
        <time>2021-08-09 15:25:09</time>
      </trkpt>
      <trkpt lat="42.84615" lon="-0.49314">
        <ele>1871.4</ele>
        <time>2021-08-09 15:25:10</time>
      </trkpt>
      <trkpt lat="42.84615" lon="-0.49313">
        <ele>1871.4</ele>
        <time>2021-08-09 15:25:11</time>
      </trkpt>
      <trkpt lat="42.84615" lon="-0.49312">
        <ele>1871.4</ele>
        <time>2021-08-09 15:25:12</time>
      </trkpt>
      <trkpt lat="42.84615" lon="-0.49311">
        <ele>1871.6</ele>
        <time>2021-08-09 15:25:13</time>
      </trkpt>
      <trkpt lat="42.84614" lon="-0.4931">
        <ele>1871.6</ele>
        <time>2021-08-09 15:25:14</time>
      </trkpt>
      <trkpt lat="42.84614" lon="-0.49309">
        <ele>1871.8</ele>
        <time>2021-08-09 15:25:15</time>
      </trkpt>
      <trkpt lat="42.84614" lon="-0.49308">
        <ele>1871.8</ele>
        <time>2021-08-09 15:25:16</time>
      </trkpt>
      <trkpt lat="42.84614" lon="-0.49307">
        <ele>1872</ele>
        <time>2021-08-09 15:25:17</time>
      </trkpt>
      <trkpt lat="42.84613" lon="-0.49306">
        <ele>1872.2</ele>
        <time>2021-08-09 15:25:18</time>
      </trkpt>
      <trkpt lat="42.84613" lon="-0.49305">
        <ele>1872.4</ele>
        <time>2021-08-09 15:25:19</time>
      </trkpt>
      <trkpt lat="42.84613" lon="-0.49304">
        <ele>1872.6</ele>
        <time>2021-08-09 15:25:20</time>
      </trkpt>
      <trkpt lat="42.84613" lon="-0.49304">
        <ele>1872.6</ele>
        <time>2021-08-09 15:25:21</time>
      </trkpt>
      <trkpt lat="42.84612" lon="-0.49303">
        <ele>1872.6</ele>
        <time>2021-08-09 15:25:22</time>
      </trkpt>
      <trkpt lat="42.84612" lon="-0.49302">
        <ele>1873</ele>
        <time>2021-08-09 15:25:23</time>
      </trkpt>
      <trkpt lat="42.84612" lon="-0.49301">
        <ele>1873.2</ele>
        <time>2021-08-09 15:25:24</time>
      </trkpt>
      <trkpt lat="42.84611" lon="-0.493">
        <ele>1873.4</ele>
        <time>2021-08-09 15:25:25</time>
      </trkpt>
      <trkpt lat="42.84611" lon="-0.493">
        <ele>1873.4</ele>
        <time>2021-08-09 15:25:26</time>
      </trkpt>
      <trkpt lat="42.84611" lon="-0.493">
        <ele>1873.6</ele>
        <time>2021-08-09 15:25:27</time>
      </trkpt>
      <trkpt lat="42.8461" lon="-0.493">
        <ele>1873.8</ele>
        <time>2021-08-09 15:25:28</time>
      </trkpt>
      <trkpt lat="42.8461" lon="-0.493">
        <ele>1873.8</ele>
        <time>2021-08-09 15:25:29</time>
      </trkpt>
      <trkpt lat="42.84609" lon="-0.493">
        <ele>1874</ele>
        <time>2021-08-09 15:25:30</time>
      </trkpt>
      <trkpt lat="42.8461" lon="-0.49301">
        <ele>1874</ele>
        <time>2021-08-09 15:25:31</time>
      </trkpt>
      <trkpt lat="42.84609" lon="-0.49302">
        <ele>1874.4</ele>
        <time>2021-08-09 15:25:32</time>
      </trkpt>
      <trkpt lat="42.84609" lon="-0.49302">
        <ele>1874.6</ele>
        <time>2021-08-09 15:25:33</time>
      </trkpt>
      <trkpt lat="42.84608" lon="-0.49303">
        <ele>1873.8</ele>
        <time>2021-08-09 15:25:34</time>
      </trkpt>
      <trkpt lat="42.84608" lon="-0.49304">
        <ele>1874.4</ele>
        <time>2021-08-09 15:25:35</time>
      </trkpt>
      <trkpt lat="42.84608" lon="-0.49305">
        <ele>1874.4</ele>
        <time>2021-08-09 15:25:36</time>
      </trkpt>
      <trkpt lat="42.84607" lon="-0.49305">
        <ele>1874.6</ele>
        <time>2021-08-09 15:25:37</time>
      </trkpt>
      <trkpt lat="42.84607" lon="-0.49306">
        <ele>1875.4</ele>
        <time>2021-08-09 15:25:38</time>
      </trkpt>
      <trkpt lat="42.84607" lon="-0.49307">
        <ele>1875.6</ele>
        <time>2021-08-09 15:25:39</time>
      </trkpt>
      <trkpt lat="42.84607" lon="-0.49308">
        <ele>1875.6</ele>
        <time>2021-08-09 15:25:40</time>
      </trkpt>
      <trkpt lat="42.84607" lon="-0.49308">
        <ele>1875.8</ele>
        <time>2021-08-09 15:25:41</time>
      </trkpt>
      <trkpt lat="42.84607" lon="-0.49309">
        <ele>1875.8</ele>
        <time>2021-08-09 15:25:42</time>
      </trkpt>
      <trkpt lat="42.84607" lon="-0.49309">
        <ele>1876</ele>
        <time>2021-08-09 15:25:43</time>
      </trkpt>
      <trkpt lat="42.84607" lon="-0.49309">
        <ele>1876</ele>
        <time>2021-08-09 15:25:44</time>
      </trkpt>
      <trkpt lat="42.84606" lon="-0.49309">
        <ele>1876.2</ele>
        <time>2021-08-09 15:25:45</time>
      </trkpt>
      <trkpt lat="42.84606" lon="-0.4931">
        <ele>1876.2</ele>
        <time>2021-08-09 15:25:46</time>
      </trkpt>
      <trkpt lat="42.84606" lon="-0.49311">
        <ele>1876.4</ele>
        <time>2021-08-09 15:25:47</time>
      </trkpt>
      <trkpt lat="42.84607" lon="-0.49311">
        <ele>1876.6</ele>
        <time>2021-08-09 15:25:48</time>
      </trkpt>
      <trkpt lat="42.84606" lon="-0.49312">
        <ele>1876.6</ele>
        <time>2021-08-09 15:25:49</time>
      </trkpt>
      <trkpt lat="42.84606" lon="-0.49313">
        <ele>1876.8</ele>
        <time>2021-08-09 15:25:50</time>
      </trkpt>
      <trkpt lat="42.84605" lon="-0.49314">
        <ele>1876.4</ele>
        <time>2021-08-09 15:25:51</time>
      </trkpt>
      <trkpt lat="42.84605" lon="-0.49315">
        <ele>1876.6</ele>
        <time>2021-08-09 15:25:52</time>
      </trkpt>
      <trkpt lat="42.84605" lon="-0.49316">
        <ele>1877.4</ele>
        <time>2021-08-09 15:25:53</time>
      </trkpt>
      <trkpt lat="42.84605" lon="-0.49316">
        <ele>1877.8</ele>
        <time>2021-08-09 15:25:54</time>
      </trkpt>
      <trkpt lat="42.84605" lon="-0.49317">
        <ele>1879</ele>
        <time>2021-08-09 15:25:55</time>
      </trkpt>
      <trkpt lat="42.84604" lon="-0.49318">
        <ele>1878.2</ele>
        <time>2021-08-09 15:25:56</time>
      </trkpt>
      <trkpt lat="42.84604" lon="-0.4932">
        <ele>1878.6</ele>
        <time>2021-08-09 15:25:57</time>
      </trkpt>
      <trkpt lat="42.84604" lon="-0.4932">
        <ele>1878.2</ele>
        <time>2021-08-09 15:25:58</time>
      </trkpt>
      <trkpt lat="42.84604" lon="-0.4932">
        <ele>1878.2</ele>
        <time>2021-08-09 15:25:59</time>
      </trkpt>
      <trkpt lat="42.84604" lon="-0.49322">
        <ele>1878.2</ele>
        <time>2021-08-09 15:26:00</time>
      </trkpt>
      <trkpt lat="42.84604" lon="-0.49323">
        <ele>1878.6</ele>
        <time>2021-08-09 15:26:01</time>
      </trkpt>
      <trkpt lat="42.84604" lon="-0.49324">
        <ele>1878.4</ele>
        <time>2021-08-09 15:26:02</time>
      </trkpt>
      <trkpt lat="42.84603" lon="-0.49326">
        <ele>1878.6</ele>
        <time>2021-08-09 15:26:03</time>
      </trkpt>
      <trkpt lat="42.84603" lon="-0.49327">
        <ele>1878.6</ele>
        <time>2021-08-09 15:26:04</time>
      </trkpt>
      <trkpt lat="42.84603" lon="-0.49328">
        <ele>1878.8</ele>
        <time>2021-08-09 15:26:05</time>
      </trkpt>
      <trkpt lat="42.84602" lon="-0.49329">
        <ele>1879</ele>
        <time>2021-08-09 15:26:06</time>
      </trkpt>
      <trkpt lat="42.84602" lon="-0.49329">
        <ele>1879.4</ele>
        <time>2021-08-09 15:26:07</time>
      </trkpt>
      <trkpt lat="42.84602" lon="-0.4933">
        <ele>1879.4</ele>
        <time>2021-08-09 15:26:08</time>
      </trkpt>
      <trkpt lat="42.84601" lon="-0.49331">
        <ele>1879.6</ele>
        <time>2021-08-09 15:26:09</time>
      </trkpt>
      <trkpt lat="42.846" lon="-0.49332">
        <ele>1880.4</ele>
        <time>2021-08-09 15:26:10</time>
      </trkpt>
      <trkpt lat="42.846" lon="-0.49333">
        <ele>1880.2</ele>
        <time>2021-08-09 15:26:11</time>
      </trkpt>
      <trkpt lat="42.84599" lon="-0.49334">
        <ele>1879.2</ele>
        <time>2021-08-09 15:26:12</time>
      </trkpt>
      <trkpt lat="42.84599" lon="-0.49335">
        <ele>1879.8</ele>
        <time>2021-08-09 15:26:13</time>
      </trkpt>
      <trkpt lat="42.846" lon="-0.49336">
        <ele>1879.8</ele>
        <time>2021-08-09 15:26:14</time>
      </trkpt>
      <trkpt lat="42.846" lon="-0.49336">
        <ele>1880</ele>
        <time>2021-08-09 15:26:15</time>
      </trkpt>
      <trkpt lat="42.84599" lon="-0.49337">
        <ele>1880.2</ele>
        <time>2021-08-09 15:26:16</time>
      </trkpt>
      <trkpt lat="42.84599" lon="-0.49338">
        <ele>1880.4</ele>
        <time>2021-08-09 15:26:17</time>
      </trkpt>
      <trkpt lat="42.84599" lon="-0.49339">
        <ele>1880.4</ele>
        <time>2021-08-09 15:26:18</time>
      </trkpt>
      <trkpt lat="42.84598" lon="-0.49341">
        <ele>1880.2</ele>
        <time>2021-08-09 15:26:19</time>
      </trkpt>
      <trkpt lat="42.84598" lon="-0.49342">
        <ele>1880.8</ele>
        <time>2021-08-09 15:26:20</time>
      </trkpt>
      <trkpt lat="42.84598" lon="-0.49343">
        <ele>1881</ele>
        <time>2021-08-09 15:26:21</time>
      </trkpt>
      <trkpt lat="42.84597" lon="-0.49344">
        <ele>1881.4</ele>
        <time>2021-08-09 15:26:22</time>
      </trkpt>
      <trkpt lat="42.84597" lon="-0.49344">
        <ele>1881.4</ele>
        <time>2021-08-09 15:26:23</time>
      </trkpt>
      <trkpt lat="42.84596" lon="-0.49345">
        <ele>1882.2</ele>
        <time>2021-08-09 15:26:24</time>
      </trkpt>
      <trkpt lat="42.84596" lon="-0.49346">
        <ele>1881.8</ele>
        <time>2021-08-09 15:26:25</time>
      </trkpt>
      <trkpt lat="42.84596" lon="-0.49347">
        <ele>1882.6</ele>
        <time>2021-08-09 15:26:26</time>
      </trkpt>
      <trkpt lat="42.84596" lon="-0.49348">
        <ele>1882.8</ele>
        <time>2021-08-09 15:26:27</time>
      </trkpt>
      <trkpt lat="42.84595" lon="-0.49349">
        <ele>1882.6</ele>
        <time>2021-08-09 15:26:28</time>
      </trkpt>
      <trkpt lat="42.84595" lon="-0.49349">
        <ele>1882</ele>
        <time>2021-08-09 15:26:29</time>
      </trkpt>
      <trkpt lat="42.84594" lon="-0.49349">
        <ele>1883</ele>
        <time>2021-08-09 15:26:30</time>
      </trkpt>
      <trkpt lat="42.84594" lon="-0.4935">
        <ele>1883</ele>
        <time>2021-08-09 15:26:31</time>
      </trkpt>
      <trkpt lat="42.84593" lon="-0.4935">
        <ele>1883.2</ele>
        <time>2021-08-09 15:26:32</time>
      </trkpt>
      <trkpt lat="42.84594" lon="-0.49351">
        <ele>1884.4</ele>
        <time>2021-08-09 15:26:33</time>
      </trkpt>
      <trkpt lat="42.84593" lon="-0.49352">
        <ele>1884.6</ele>
        <time>2021-08-09 15:26:34</time>
      </trkpt>
      <trkpt lat="42.84593" lon="-0.49353">
        <ele>1883.8</ele>
        <time>2021-08-09 15:26:35</time>
      </trkpt>
      <trkpt lat="42.84593" lon="-0.49354">
        <ele>1883.4</ele>
        <time>2021-08-09 15:26:36</time>
      </trkpt>
      <trkpt lat="42.84593" lon="-0.49354">
        <ele>1883.2</ele>
        <time>2021-08-09 15:26:37</time>
      </trkpt>
      <trkpt lat="42.84592" lon="-0.49355">
        <ele>1883.8</ele>
        <time>2021-08-09 15:26:38</time>
      </trkpt>
      <trkpt lat="42.84591" lon="-0.49356">
        <ele>1883.6</ele>
        <time>2021-08-09 15:26:39</time>
      </trkpt>
      <trkpt lat="42.84589" lon="-0.49358">
        <ele>1883.4</ele>
        <time>2021-08-09 15:26:40</time>
      </trkpt>
      <trkpt lat="42.8459" lon="-0.49359">
        <ele>1884.6</ele>
        <time>2021-08-09 15:26:41</time>
      </trkpt>
      <trkpt lat="42.8459" lon="-0.4936">
        <ele>1884.6</ele>
        <time>2021-08-09 15:26:42</time>
      </trkpt>
      <trkpt lat="42.8459" lon="-0.4936">
        <ele>1884.8</ele>
        <time>2021-08-09 15:26:43</time>
      </trkpt>
      <trkpt lat="42.8459" lon="-0.49362">
        <ele>1884.8</ele>
        <time>2021-08-09 15:26:44</time>
      </trkpt>
      <trkpt lat="42.84589" lon="-0.49363">
        <ele>1885</ele>
        <time>2021-08-09 15:26:45</time>
      </trkpt>
      <trkpt lat="42.84588" lon="-0.49364">
        <ele>1885</ele>
        <time>2021-08-09 15:26:46</time>
      </trkpt>
      <trkpt lat="42.84588" lon="-0.49364">
        <ele>1885</ele>
        <time>2021-08-09 15:26:47</time>
      </trkpt>
      <trkpt lat="42.84588" lon="-0.49364">
        <ele>1885.4</ele>
        <time>2021-08-09 15:26:48</time>
      </trkpt>
      <trkpt lat="42.84587" lon="-0.49364">
        <ele>1885.4</ele>
        <time>2021-08-09 15:26:49</time>
      </trkpt>
      <trkpt lat="42.84585" lon="-0.49363">
        <ele>1885.6</ele>
        <time>2021-08-09 15:26:50</time>
      </trkpt>
      <trkpt lat="42.84586" lon="-0.49362">
        <ele>1885.8</ele>
        <time>2021-08-09 15:26:51</time>
      </trkpt>
      <trkpt lat="42.84586" lon="-0.49361">
        <ele>1886</ele>
        <time>2021-08-09 15:26:52</time>
      </trkpt>
      <trkpt lat="42.84587" lon="-0.4936">
        <ele>1886.4</ele>
        <time>2021-08-09 15:26:53</time>
      </trkpt>
      <trkpt lat="42.84587" lon="-0.4936">
        <ele>1886.6</ele>
        <time>2021-08-09 15:26:54</time>
      </trkpt>
      <trkpt lat="42.84587" lon="-0.49358">
        <ele>1886.8</ele>
        <time>2021-08-09 15:26:55</time>
      </trkpt>
      <trkpt lat="42.84586" lon="-0.49357">
        <ele>1886.8</ele>
        <time>2021-08-09 15:26:56</time>
      </trkpt>
      <trkpt lat="42.84586" lon="-0.49356">
        <ele>1887.2</ele>
        <time>2021-08-09 15:26:57</time>
      </trkpt>
      <trkpt lat="42.84585" lon="-0.49355">
        <ele>1886.4</ele>
        <time>2021-08-09 15:26:58</time>
      </trkpt>
      <trkpt lat="42.84585" lon="-0.49354">
        <ele>1887.2</ele>
        <time>2021-08-09 15:26:59</time>
      </trkpt>
      <trkpt lat="42.84585" lon="-0.49353">
        <ele>1887.2</ele>
        <time>2021-08-09 15:27:00</time>
      </trkpt>
      <trkpt lat="42.84586" lon="-0.49352">
        <ele>1886.8</ele>
        <time>2021-08-09 15:27:01</time>
      </trkpt>
      <trkpt lat="42.84586" lon="-0.49351">
        <ele>1886.6</ele>
        <time>2021-08-09 15:27:02</time>
      </trkpt>
      <trkpt lat="42.84586" lon="-0.4935">
        <ele>1886.8</ele>
        <time>2021-08-09 15:27:03</time>
      </trkpt>
      <trkpt lat="42.84586" lon="-0.49349">
        <ele>1887.6</ele>
        <time>2021-08-09 15:27:04</time>
      </trkpt>
      <trkpt lat="42.84586" lon="-0.49348">
        <ele>1887.8</ele>
        <time>2021-08-09 15:27:05</time>
      </trkpt>
      <trkpt lat="42.84585" lon="-0.49346">
        <ele>1887.8</ele>
        <time>2021-08-09 15:27:06</time>
      </trkpt>
      <trkpt lat="42.84585" lon="-0.49345">
        <ele>1887.8</ele>
        <time>2021-08-09 15:27:07</time>
      </trkpt>
      <trkpt lat="42.84585" lon="-0.49344">
        <ele>1888.4</ele>
        <time>2021-08-09 15:27:08</time>
      </trkpt>
      <trkpt lat="42.84585" lon="-0.49343">
        <ele>1888.8</ele>
        <time>2021-08-09 15:27:09</time>
      </trkpt>
      <trkpt lat="42.84585" lon="-0.49343">
        <ele>1889.2</ele>
        <time>2021-08-09 15:27:10</time>
      </trkpt>
      <trkpt lat="42.84585" lon="-0.49342">
        <ele>1889.2</ele>
        <time>2021-08-09 15:27:11</time>
      </trkpt>
      <trkpt lat="42.84585" lon="-0.49341">
        <ele>1889.2</ele>
        <time>2021-08-09 15:27:12</time>
      </trkpt>
      <trkpt lat="42.84584" lon="-0.4934">
        <ele>1889.2</ele>
        <time>2021-08-09 15:27:13</time>
      </trkpt>
      <trkpt lat="42.84584" lon="-0.49339">
        <ele>1889</ele>
        <time>2021-08-09 15:27:14</time>
      </trkpt>
      <trkpt lat="42.84584" lon="-0.49338">
        <ele>1888.8</ele>
        <time>2021-08-09 15:27:15</time>
      </trkpt>
      <trkpt lat="42.84584" lon="-0.49335">
        <ele>1889.2</ele>
        <time>2021-08-09 15:27:16</time>
      </trkpt>
      <trkpt lat="42.84584" lon="-0.49334">
        <ele>1889.2</ele>
        <time>2021-08-09 15:27:17</time>
      </trkpt>
      <trkpt lat="42.84583" lon="-0.49333">
        <ele>1888.8</ele>
        <time>2021-08-09 15:27:18</time>
      </trkpt>
      <trkpt lat="42.84583" lon="-0.49331">
        <ele>1889.6</ele>
        <time>2021-08-09 15:27:19</time>
      </trkpt>
      <trkpt lat="42.84583" lon="-0.4933">
        <ele>1889.8</ele>
        <time>2021-08-09 15:27:20</time>
      </trkpt>
      <trkpt lat="42.84582" lon="-0.49329">
        <ele>1890</ele>
        <time>2021-08-09 15:27:21</time>
      </trkpt>
      <trkpt lat="42.84582" lon="-0.49328">
        <ele>1889.8</ele>
        <time>2021-08-09 15:27:22</time>
      </trkpt>
      <trkpt lat="42.84582" lon="-0.49327">
        <ele>1890.4</ele>
        <time>2021-08-09 15:27:23</time>
      </trkpt>
      <trkpt lat="42.84582" lon="-0.49326">
        <ele>1890.4</ele>
        <time>2021-08-09 15:27:24</time>
      </trkpt>
      <trkpt lat="42.84582" lon="-0.49326">
        <ele>1890.2</ele>
        <time>2021-08-09 15:27:25</time>
      </trkpt>
      <trkpt lat="42.84581" lon="-0.49326">
        <ele>1890.2</ele>
        <time>2021-08-09 15:27:26</time>
      </trkpt>
      <trkpt lat="42.8458" lon="-0.49325">
        <ele>1890.4</ele>
        <time>2021-08-09 15:27:27</time>
      </trkpt>
      <trkpt lat="42.8458" lon="-0.49324">
        <ele>1890.2</ele>
        <time>2021-08-09 15:27:28</time>
      </trkpt>
      <trkpt lat="42.84579" lon="-0.49323">
        <ele>1890.2</ele>
        <time>2021-08-09 15:27:29</time>
      </trkpt>
      <trkpt lat="42.84579" lon="-0.49323">
        <ele>1890.4</ele>
        <time>2021-08-09 15:27:30</time>
      </trkpt>
      <trkpt lat="42.84578" lon="-0.49322">
        <ele>1890.6</ele>
        <time>2021-08-09 15:27:31</time>
      </trkpt>
      <trkpt lat="42.84577" lon="-0.49322">
        <ele>1891</ele>
        <time>2021-08-09 15:27:32</time>
      </trkpt>
      <trkpt lat="42.84577" lon="-0.49322">
        <ele>1891.2</ele>
        <time>2021-08-09 15:27:33</time>
      </trkpt>
      <trkpt lat="42.84576" lon="-0.49321">
        <ele>1891.4</ele>
        <time>2021-08-09 15:27:34</time>
      </trkpt>
      <trkpt lat="42.84575" lon="-0.49321">
        <ele>1891.4</ele>
        <time>2021-08-09 15:27:35</time>
      </trkpt>
      <trkpt lat="42.84576" lon="-0.4932">
        <ele>1891</ele>
        <time>2021-08-09 15:27:36</time>
      </trkpt>
      <trkpt lat="42.84575" lon="-0.49319">
        <ele>1890.4</ele>
        <time>2021-08-09 15:27:37</time>
      </trkpt>
      <trkpt lat="42.84574" lon="-0.49318">
        <ele>1891</ele>
        <time>2021-08-09 15:27:38</time>
      </trkpt>
      <trkpt lat="42.84573" lon="-0.49318">
        <ele>1891.8</ele>
        <time>2021-08-09 15:27:39</time>
      </trkpt>
      <trkpt lat="42.84572" lon="-0.49318">
        <ele>1892</ele>
        <time>2021-08-09 15:27:40</time>
      </trkpt>
      <trkpt lat="42.84572" lon="-0.49319">
        <ele>1892</ele>
        <time>2021-08-09 15:27:41</time>
      </trkpt>
      <trkpt lat="42.84571" lon="-0.49318">
        <ele>1891.8</ele>
        <time>2021-08-09 15:27:42</time>
      </trkpt>
      <trkpt lat="42.8457" lon="-0.49318">
        <ele>1892.2</ele>
        <time>2021-08-09 15:27:43</time>
      </trkpt>
      <trkpt lat="42.8457" lon="-0.49317">
        <ele>1892.4</ele>
        <time>2021-08-09 15:27:44</time>
      </trkpt>
      <trkpt lat="42.8457" lon="-0.49317">
        <ele>1892.4</ele>
        <time>2021-08-09 15:27:45</time>
      </trkpt>
      <trkpt lat="42.8457" lon="-0.49317">
        <ele>1892</ele>
        <time>2021-08-09 15:27:46</time>
      </trkpt>
      <trkpt lat="42.84569" lon="-0.49316">
        <ele>1891.8</ele>
        <time>2021-08-09 15:27:47</time>
      </trkpt>
      <trkpt lat="42.84569" lon="-0.49315">
        <ele>1891.6</ele>
        <time>2021-08-09 15:27:48</time>
      </trkpt>
      <trkpt lat="42.84569" lon="-0.49315">
        <ele>1892.4</ele>
        <time>2021-08-09 15:27:49</time>
      </trkpt>
      <trkpt lat="42.84568" lon="-0.49315">
        <ele>1891.8</ele>
        <time>2021-08-09 15:27:50</time>
      </trkpt>
      <trkpt lat="42.84567" lon="-0.49315">
        <ele>1892.2</ele>
        <time>2021-08-09 15:27:51</time>
      </trkpt>
      <trkpt lat="42.84567" lon="-0.49315">
        <ele>1892.6</ele>
        <time>2021-08-09 15:27:52</time>
      </trkpt>
      <trkpt lat="42.84566" lon="-0.49314">
        <ele>1892.8</ele>
        <time>2021-08-09 15:27:53</time>
      </trkpt>
      <trkpt lat="42.84566" lon="-0.49314">
        <ele>1892.8</ele>
        <time>2021-08-09 15:27:54</time>
      </trkpt>
      <trkpt lat="42.84565" lon="-0.49314">
        <ele>1893</ele>
        <time>2021-08-09 15:27:55</time>
      </trkpt>
      <trkpt lat="42.84565" lon="-0.49313">
        <ele>1893.4</ele>
        <time>2021-08-09 15:27:56</time>
      </trkpt>
      <trkpt lat="42.84564" lon="-0.49313">
        <ele>1893.4</ele>
        <time>2021-08-09 15:27:57</time>
      </trkpt>
      <trkpt lat="42.84564" lon="-0.49313">
        <ele>1893.8</ele>
        <time>2021-08-09 15:27:58</time>
      </trkpt>
      <trkpt lat="42.84563" lon="-0.49313">
        <ele>1893.6</ele>
        <time>2021-08-09 15:27:59</time>
      </trkpt>
      <trkpt lat="42.84562" lon="-0.49313">
        <ele>1893.8</ele>
        <time>2021-08-09 15:28:00</time>
      </trkpt>
      <trkpt lat="42.84562" lon="-0.49312">
        <ele>1894</ele>
        <time>2021-08-09 15:28:01</time>
      </trkpt>
      <trkpt lat="42.84561" lon="-0.49311">
        <ele>1894.2</ele>
        <time>2021-08-09 15:28:02</time>
      </trkpt>
      <trkpt lat="42.84561" lon="-0.49311">
        <ele>1894.6</ele>
        <time>2021-08-09 15:28:03</time>
      </trkpt>
      <trkpt lat="42.8456" lon="-0.49311">
        <ele>1894.8</ele>
        <time>2021-08-09 15:28:04</time>
      </trkpt>
      <trkpt lat="42.84559" lon="-0.49311">
        <ele>1895</ele>
        <time>2021-08-09 15:28:05</time>
      </trkpt>
      <trkpt lat="42.84558" lon="-0.49312">
        <ele>1895.2</ele>
        <time>2021-08-09 15:28:06</time>
      </trkpt>
      <trkpt lat="42.84557" lon="-0.49312">
        <ele>1895.4</ele>
        <time>2021-08-09 15:28:07</time>
      </trkpt>
      <trkpt lat="42.84557" lon="-0.49313">
        <ele>1895.4</ele>
        <time>2021-08-09 15:28:08</time>
      </trkpt>
      <trkpt lat="42.84556" lon="-0.49312">
        <ele>1895.6</ele>
        <time>2021-08-09 15:28:09</time>
      </trkpt>
      <trkpt lat="42.84556" lon="-0.49313">
        <ele>1895.8</ele>
        <time>2021-08-09 15:28:10</time>
      </trkpt>
      <trkpt lat="42.84555" lon="-0.49313">
        <ele>1895.8</ele>
        <time>2021-08-09 15:28:11</time>
      </trkpt>
      <trkpt lat="42.84555" lon="-0.49313">
        <ele>1896</ele>
        <time>2021-08-09 15:28:12</time>
      </trkpt>
      <trkpt lat="42.84555" lon="-0.49313">
        <ele>1896.2</ele>
        <time>2021-08-09 15:28:13</time>
      </trkpt>
      <trkpt lat="42.84554" lon="-0.49313">
        <ele>1896.2</ele>
        <time>2021-08-09 15:28:14</time>
      </trkpt>
      <trkpt lat="42.84554" lon="-0.49313">
        <ele>1896</ele>
        <time>2021-08-09 15:28:15</time>
      </trkpt>
      <trkpt lat="42.84554" lon="-0.49312">
        <ele>1896</ele>
        <time>2021-08-09 15:28:16</time>
      </trkpt>
      <trkpt lat="42.84554" lon="-0.49312">
        <ele>1896.2</ele>
        <time>2021-08-09 15:28:17</time>
      </trkpt>
      <trkpt lat="42.84553" lon="-0.49312">
        <ele>1896.6</ele>
        <time>2021-08-09 15:28:18</time>
      </trkpt>
      <trkpt lat="42.84553" lon="-0.49311">
        <ele>1896.6</ele>
        <time>2021-08-09 15:28:19</time>
      </trkpt>
      <trkpt lat="42.84553" lon="-0.49311">
        <ele>1897</ele>
        <time>2021-08-09 15:28:20</time>
      </trkpt>
      <trkpt lat="42.84552" lon="-0.49311">
        <ele>1897</ele>
        <time>2021-08-09 15:28:21</time>
      </trkpt>
      <trkpt lat="42.84552" lon="-0.49311">
        <ele>1897</ele>
        <time>2021-08-09 15:28:22</time>
      </trkpt>
      <trkpt lat="42.84551" lon="-0.49311">
        <ele>1897</ele>
        <time>2021-08-09 15:28:23</time>
      </trkpt>
      <trkpt lat="42.8455" lon="-0.49311">
        <ele>1897.2</ele>
        <time>2021-08-09 15:28:24</time>
      </trkpt>
      <trkpt lat="42.8455" lon="-0.49311">
        <ele>1897.4</ele>
        <time>2021-08-09 15:28:25</time>
      </trkpt>
      <trkpt lat="42.84549" lon="-0.49311">
        <ele>1897.8</ele>
        <time>2021-08-09 15:28:26</time>
      </trkpt>
      <trkpt lat="42.84548" lon="-0.4931">
        <ele>1898</ele>
        <time>2021-08-09 15:28:27</time>
      </trkpt>
      <trkpt lat="42.84547" lon="-0.49311">
        <ele>1898.4</ele>
        <time>2021-08-09 15:28:28</time>
      </trkpt>
      <trkpt lat="42.84546" lon="-0.4931">
        <ele>1898.4</ele>
        <time>2021-08-09 15:28:29</time>
      </trkpt>
      <trkpt lat="42.84545" lon="-0.4931">
        <ele>1898.8</ele>
        <time>2021-08-09 15:28:30</time>
      </trkpt>
      <trkpt lat="42.84545" lon="-0.49309">
        <ele>1899</ele>
        <time>2021-08-09 15:28:31</time>
      </trkpt>
      <trkpt lat="42.84544" lon="-0.49308">
        <ele>1899.2</ele>
        <time>2021-08-09 15:28:32</time>
      </trkpt>
      <trkpt lat="42.84543" lon="-0.49308">
        <ele>1899.2</ele>
        <time>2021-08-09 15:28:33</time>
      </trkpt>
      <trkpt lat="42.84543" lon="-0.49308">
        <ele>1899.2</ele>
        <time>2021-08-09 15:28:34</time>
      </trkpt>
      <trkpt lat="42.84542" lon="-0.49307">
        <ele>1899.4</ele>
        <time>2021-08-09 15:28:35</time>
      </trkpt>
      <trkpt lat="42.84541" lon="-0.49307">
        <ele>1899.4</ele>
        <time>2021-08-09 15:28:36</time>
      </trkpt>
      <trkpt lat="42.8454" lon="-0.49306">
        <ele>1899.4</ele>
        <time>2021-08-09 15:28:37</time>
      </trkpt>
      <trkpt lat="42.8454" lon="-0.49305">
        <ele>1899.4</ele>
      </trkpt>
      <trkpt lat="42.84539" lon="-0.49304">
        <ele>1899.4</ele>
        <time>2021-08-09 15:28:38</time>
      </trkpt>
      <trkpt lat="42.84538" lon="-0.49303">
        <ele>1899.4</ele>
        <time>2021-08-09 15:28:39</time>
      </trkpt>
      <trkpt lat="42.84537" lon="-0.49303">
        <ele>1899.4</ele>
        <time>2021-08-09 15:28:41</time>
      </trkpt>
      <trkpt lat="42.84536" lon="-0.49303">
        <ele>1899.8</ele>
      </trkpt>
      <trkpt lat="42.84536" lon="-0.49302">
        <ele>1899.8</ele>
        <time>2021-08-09 15:28:42</time>
      </trkpt>
      <trkpt lat="42.84535" lon="-0.493">
        <ele>1900</ele>
        <time>2021-08-09 15:28:43</time>
      </trkpt>
      <trkpt lat="42.84534" lon="-0.493">
        <ele>1900</ele>
        <time>2021-08-09 15:28:44</time>
      </trkpt>
      <trkpt lat="42.84533" lon="-0.493">
        <ele>1900.2</ele>
        <time>2021-08-09 15:28:45</time>
      </trkpt>
      <trkpt lat="42.84533" lon="-0.49299">
        <ele>1900.2</ele>
        <time>2021-08-09 15:28:46</time>
      </trkpt>
      <trkpt lat="42.84532" lon="-0.49299">
        <ele>1900.6</ele>
        <time>2021-08-09 15:28:47</time>
      </trkpt>
      <trkpt lat="42.84531" lon="-0.49298">
        <ele>1900.8</ele>
        <time>2021-08-09 15:28:48</time>
      </trkpt>
      <trkpt lat="42.8453" lon="-0.49296">
        <ele>1900.8</ele>
        <time>2021-08-09 15:28:49</time>
      </trkpt>
      <trkpt lat="42.84529" lon="-0.49295">
        <ele>1900.8</ele>
        <time>2021-08-09 15:28:50</time>
      </trkpt>
      <trkpt lat="42.84529" lon="-0.49295">
        <ele>1900.8</ele>
        <time>2021-08-09 15:28:51</time>
      </trkpt>
      <trkpt lat="42.84528" lon="-0.49294">
        <ele>1901</ele>
        <time>2021-08-09 15:28:52</time>
      </trkpt>
      <trkpt lat="42.84527" lon="-0.49293">
        <ele>1901.4</ele>
        <time>2021-08-09 15:28:53</time>
      </trkpt>
      <trkpt lat="42.84526" lon="-0.49292">
        <ele>1901.6</ele>
        <time>2021-08-09 15:28:54</time>
      </trkpt>
      <trkpt lat="42.84526" lon="-0.49292">
        <ele>1901.8</ele>
        <time>2021-08-09 15:28:55</time>
      </trkpt>
      <trkpt lat="42.84525" lon="-0.49291">
        <ele>1901.8</ele>
        <time>2021-08-09 15:28:56</time>
      </trkpt>
      <trkpt lat="42.84525" lon="-0.4929">
        <ele>1902</ele>
        <time>2021-08-09 15:28:57</time>
      </trkpt>
      <trkpt lat="42.84524" lon="-0.49289">
        <ele>1902.4</ele>
        <time>2021-08-09 15:28:58</time>
      </trkpt>
      <trkpt lat="42.84524" lon="-0.49288">
        <ele>1902.8</ele>
        <time>2021-08-09 15:28:59</time>
      </trkpt>
      <trkpt lat="42.84523" lon="-0.49288">
        <ele>1902.8</ele>
        <time>2021-08-09 15:29:01</time>
      </trkpt>
      <trkpt lat="42.84523" lon="-0.49288">
        <ele>1902.8</ele>
      </trkpt>
      <trkpt lat="42.84522" lon="-0.49288">
        <ele>1903</ele>
        <time>2021-08-09 15:29:02</time>
      </trkpt>
      <trkpt lat="42.84521" lon="-0.49289">
        <ele>1903.4</ele>
        <time>2021-08-09 15:29:03</time>
      </trkpt>
      <trkpt lat="42.8452" lon="-0.49289">
        <ele>1903.8</ele>
        <time>2021-08-09 15:29:04</time>
      </trkpt>
      <trkpt lat="42.8452" lon="-0.49289">
        <ele>1904</ele>
        <time>2021-08-09 15:29:05</time>
      </trkpt>
      <trkpt lat="42.84519" lon="-0.4929">
        <ele>1904.2</ele>
        <time>2021-08-09 15:29:06</time>
      </trkpt>
      <trkpt lat="42.84519" lon="-0.49291">
        <ele>1904.4</ele>
        <time>2021-08-09 15:29:07</time>
      </trkpt>
      <trkpt lat="42.84519" lon="-0.49291">
        <ele>1904.4</ele>
        <time>2021-08-09 15:29:08</time>
      </trkpt>
      <trkpt lat="42.84519" lon="-0.49292">
        <ele>1904.6</ele>
        <time>2021-08-09 15:29:09</time>
      </trkpt>
      <trkpt lat="42.84518" lon="-0.49292">
        <ele>1904.8</ele>
        <time>2021-08-09 15:29:10</time>
      </trkpt>
      <trkpt lat="42.84517" lon="-0.49293">
        <ele>1905</ele>
        <time>2021-08-09 15:29:11</time>
      </trkpt>
      <trkpt lat="42.84516" lon="-0.49293">
        <ele>1904.2</ele>
        <time>2021-08-09 15:29:12</time>
      </trkpt>
      <trkpt lat="42.84516" lon="-0.49293">
        <ele>1903.8</ele>
        <time>2021-08-09 15:29:13</time>
      </trkpt>
      <trkpt lat="42.84515" lon="-0.49293">
        <ele>1904.2</ele>
        <time>2021-08-09 15:29:14</time>
      </trkpt>
      <trkpt lat="42.84514" lon="-0.49293">
        <ele>1905.4</ele>
        <time>2021-08-09 15:29:15</time>
      </trkpt>
      <trkpt lat="42.84514" lon="-0.49293">
        <ele>1905.8</ele>
        <time>2021-08-09 15:29:16</time>
      </trkpt>
      <trkpt lat="42.84514" lon="-0.49292">
        <ele>1906</ele>
        <time>2021-08-09 15:29:17</time>
      </trkpt>
      <trkpt lat="42.84513" lon="-0.49292">
        <ele>1906.4</ele>
        <time>2021-08-09 15:29:18</time>
      </trkpt>
      <trkpt lat="42.84513" lon="-0.49291">
        <ele>1906.2</ele>
        <time>2021-08-09 15:29:19</time>
      </trkpt>
      <trkpt lat="42.84513" lon="-0.4929">
        <ele>1906.4</ele>
        <time>2021-08-09 15:29:20</time>
      </trkpt>
      <trkpt lat="42.84513" lon="-0.49287">
        <ele>1906.6</ele>
        <time>2021-08-09 15:29:21</time>
      </trkpt>
      <trkpt lat="42.84513" lon="-0.49286">
        <ele>1906.8</ele>
        <time>2021-08-09 15:29:22</time>
      </trkpt>
      <trkpt lat="42.84513" lon="-0.49285">
        <ele>1906.8</ele>
        <time>2021-08-09 15:29:23</time>
      </trkpt>
      <trkpt lat="42.84512" lon="-0.49284">
        <ele>1907</ele>
        <time>2021-08-09 15:29:24</time>
      </trkpt>
      <trkpt lat="42.84512" lon="-0.49283">
        <ele>1907.4</ele>
        <time>2021-08-09 15:29:25</time>
      </trkpt>
      <trkpt lat="42.84513" lon="-0.49282">
        <ele>1907.6</ele>
        <time>2021-08-09 15:29:26</time>
      </trkpt>
      <trkpt lat="42.84513" lon="-0.49281">
        <ele>1907.4</ele>
        <time>2021-08-09 15:29:27</time>
      </trkpt>
      <trkpt lat="42.84514" lon="-0.4928">
        <ele>1907.2</ele>
        <time>2021-08-09 15:29:28</time>
      </trkpt>
      <trkpt lat="42.84514" lon="-0.49279">
        <ele>1907.2</ele>
        <time>2021-08-09 15:29:29</time>
      </trkpt>
      <trkpt lat="42.84513" lon="-0.49278">
        <ele>1907.2</ele>
        <time>2021-08-09 15:29:30</time>
      </trkpt>
      <trkpt lat="42.84514" lon="-0.49277">
        <ele>1907.4</ele>
        <time>2021-08-09 15:29:31</time>
      </trkpt>
      <trkpt lat="42.84514" lon="-0.49276">
        <ele>1907.6</ele>
        <time>2021-08-09 15:29:32</time>
      </trkpt>
      <trkpt lat="42.84513" lon="-0.49275">
        <ele>1907.8</ele>
        <time>2021-08-09 15:29:33</time>
      </trkpt>
      <trkpt lat="42.84513" lon="-0.49274">
        <ele>1908</ele>
        <time>2021-08-09 15:29:34</time>
      </trkpt>
      <trkpt lat="42.84512" lon="-0.49274">
        <ele>1908</ele>
        <time>2021-08-09 15:29:35</time>
      </trkpt>
      <trkpt lat="42.84512" lon="-0.49273">
        <ele>1908</ele>
        <time>2021-08-09 15:29:36</time>
      </trkpt>
      <trkpt lat="42.84511" lon="-0.49274">
        <ele>1908.2</ele>
        <time>2021-08-09 15:29:37</time>
      </trkpt>
      <trkpt lat="42.84511" lon="-0.49273">
        <ele>1908</ele>
        <time>2021-08-09 15:29:38</time>
      </trkpt>
      <trkpt lat="42.8451" lon="-0.49272">
        <ele>1908.2</ele>
        <time>2021-08-09 15:29:39</time>
      </trkpt>
      <trkpt lat="42.8451" lon="-0.49271">
        <ele>1907.6</ele>
        <time>2021-08-09 15:29:40</time>
      </trkpt>
      <trkpt lat="42.84509" lon="-0.49271">
        <ele>1907.2</ele>
        <time>2021-08-09 15:29:45</time>
      </trkpt>
      <trkpt lat="42.84509" lon="-0.49271">
        <ele>1907.8</ele>
        <time>2021-08-09 15:29:46</time>
      </trkpt>
      <trkpt lat="42.84509" lon="-0.49271">
        <ele>1907.8</ele>
        <time>2021-08-09 15:29:47</time>
      </trkpt>
      <trkpt lat="42.84509" lon="-0.49271">
        <ele>1908.4</ele>
        <time>2021-08-09 15:29:48</time>
      </trkpt>
      <trkpt lat="42.84508" lon="-0.4927">
        <ele>1908.4</ele>
        <time>2021-08-09 15:29:49</time>
      </trkpt>
      <trkpt lat="42.84507" lon="-0.4927">
        <ele>1908.2</ele>
        <time>2021-08-09 15:29:50</time>
      </trkpt>
      <trkpt lat="42.84507" lon="-0.49271">
        <ele>1908.4</ele>
        <time>2021-08-09 15:29:51</time>
      </trkpt>
      <trkpt lat="42.84506" lon="-0.49271">
        <ele>1908.6</ele>
        <time>2021-08-09 15:29:52</time>
      </trkpt>
      <trkpt lat="42.84506" lon="-0.49272">
        <ele>1909</ele>
        <time>2021-08-09 15:29:53</time>
      </trkpt>
      <trkpt lat="42.84505" lon="-0.49272">
        <ele>1909</ele>
        <time>2021-08-09 15:29:54</time>
      </trkpt>
      <trkpt lat="42.84505" lon="-0.49272">
        <ele>1909.2</ele>
        <time>2021-08-09 15:29:55</time>
      </trkpt>
      <trkpt lat="42.84505" lon="-0.49272">
        <ele>1908.8</ele>
        <time>2021-08-09 15:29:56</time>
      </trkpt>
      <trkpt lat="42.84504" lon="-0.49271">
        <ele>1908.6</ele>
        <time>2021-08-09 15:29:57</time>
      </trkpt>
      <trkpt lat="42.84503" lon="-0.49271">
        <ele>1908.6</ele>
        <time>2021-08-09 15:29:58</time>
      </trkpt>
      <trkpt lat="42.84502" lon="-0.49271">
        <ele>1908.6</ele>
        <time>2021-08-09 15:29:59</time>
      </trkpt>
      <trkpt lat="42.84501" lon="-0.49271">
        <ele>1908.6</ele>
        <time>2021-08-09 15:30:00</time>
      </trkpt>
      <trkpt lat="42.845" lon="-0.49271">
        <ele>1908.6</ele>
        <time>2021-08-09 15:30:01</time>
      </trkpt>
      <trkpt lat="42.84499" lon="-0.49271">
        <ele>1908.8</ele>
        <time>2021-08-09 15:30:02</time>
      </trkpt>
      <trkpt lat="42.84498" lon="-0.49272">
        <ele>1909</ele>
        <time>2021-08-09 15:30:03</time>
      </trkpt>
      <trkpt lat="42.84497" lon="-0.49272">
        <ele>1909.2</ele>
        <time>2021-08-09 15:30:04</time>
      </trkpt>
      <trkpt lat="42.84497" lon="-0.49273">
        <ele>1909.2</ele>
        <time>2021-08-09 15:30:05</time>
      </trkpt>
      <trkpt lat="42.84497" lon="-0.49274">
        <ele>1909.2</ele>
        <time>2021-08-09 15:30:06</time>
      </trkpt>
      <trkpt lat="42.84496" lon="-0.49275">
        <ele>1909.2</ele>
        <time>2021-08-09 15:30:07</time>
      </trkpt>
      <trkpt lat="42.84496" lon="-0.49276">
        <ele>1909.2</ele>
        <time>2021-08-09 15:30:08</time>
      </trkpt>
      <trkpt lat="42.84495" lon="-0.49277">
        <ele>1909.4</ele>
        <time>2021-08-09 15:30:09</time>
      </trkpt>
      <trkpt lat="42.84494" lon="-0.49279">
        <ele>1909.4</ele>
        <time>2021-08-09 15:30:10</time>
      </trkpt>
      <trkpt lat="42.84494" lon="-0.4928">
        <ele>1909.2</ele>
        <time>2021-08-09 15:30:11</time>
      </trkpt>
      <trkpt lat="42.84493" lon="-0.49281">
        <ele>1909</ele>
        <time>2021-08-09 15:30:12</time>
      </trkpt>
      <trkpt lat="42.84492" lon="-0.49282">
        <ele>1909.2</ele>
        <time>2021-08-09 15:30:13</time>
      </trkpt>
      <trkpt lat="42.84492" lon="-0.49283">
        <ele>1909.2</ele>
        <time>2021-08-09 15:30:14</time>
      </trkpt>
      <trkpt lat="42.84491" lon="-0.49283">
        <ele>1909</ele>
        <time>2021-08-09 15:30:15</time>
      </trkpt>
      <trkpt lat="42.8449" lon="-0.49283">
        <ele>1909</ele>
        <time>2021-08-09 15:30:16</time>
      </trkpt>
      <trkpt lat="42.8449" lon="-0.49282">
        <ele>1909</ele>
        <time>2021-08-09 15:30:17</time>
      </trkpt>
      <trkpt lat="42.84489" lon="-0.49282">
        <ele>1909.2</ele>
        <time>2021-08-09 15:30:18</time>
      </trkpt>
      <trkpt lat="42.84489" lon="-0.49282">
        <ele>1909.2</ele>
        <time>2021-08-09 15:30:19</time>
      </trkpt>
      <trkpt lat="42.84488" lon="-0.49281">
        <ele>1909</ele>
        <time>2021-08-09 15:30:20</time>
      </trkpt>
      <trkpt lat="42.84488" lon="-0.49281">
        <ele>1909.2</ele>
        <time>2021-08-09 15:30:21</time>
      </trkpt>
      <trkpt lat="42.84487" lon="-0.49281">
        <ele>1909</ele>
        <time>2021-08-09 15:30:22</time>
      </trkpt>
      <trkpt lat="42.84486" lon="-0.49281">
        <ele>1908.8</ele>
        <time>2021-08-09 15:30:23</time>
      </trkpt>
      <trkpt lat="42.84484" lon="-0.49281">
        <ele>1908.6</ele>
        <time>2021-08-09 15:30:24</time>
      </trkpt>
      <trkpt lat="42.84483" lon="-0.49282">
        <ele>1908.4</ele>
        <time>2021-08-09 15:30:25</time>
      </trkpt>
      <trkpt lat="42.84482" lon="-0.49282">
        <ele>1908.4</ele>
        <time>2021-08-09 15:30:26</time>
      </trkpt>
      <trkpt lat="42.84481" lon="-0.49282">
        <ele>1908.6</ele>
        <time>2021-08-09 15:30:27</time>
      </trkpt>
      <trkpt lat="42.8448" lon="-0.49282">
        <ele>1909</ele>
        <time>2021-08-09 15:30:28</time>
      </trkpt>
      <trkpt lat="42.84479" lon="-0.49281">
        <ele>1909.4</ele>
        <time>2021-08-09 15:30:29</time>
      </trkpt>
      <trkpt lat="42.84478" lon="-0.49281">
        <ele>1908.2</ele>
        <time>2021-08-09 15:30:30</time>
      </trkpt>
      <trkpt lat="42.84477" lon="-0.49282">
        <ele>1908.8</ele>
        <time>2021-08-09 15:30:31</time>
      </trkpt>
      <trkpt lat="42.84476" lon="-0.49282">
        <ele>1909</ele>
        <time>2021-08-09 15:30:32</time>
      </trkpt>
      <trkpt lat="42.84475" lon="-0.49283">
        <ele>1909.8</ele>
        <time>2021-08-09 15:30:33</time>
      </trkpt>
      <trkpt lat="42.84473" lon="-0.49283">
        <ele>1909.6</ele>
        <time>2021-08-09 15:30:34</time>
      </trkpt>
      <trkpt lat="42.84473" lon="-0.49283">
        <ele>1909.6</ele>
        <time>2021-08-09 15:30:35</time>
      </trkpt>
      <trkpt lat="42.84472" lon="-0.49283">
        <ele>1909.6</ele>
        <time>2021-08-09 15:30:36</time>
      </trkpt>
      <trkpt lat="42.84471" lon="-0.49284">
        <ele>1909.8</ele>
        <time>2021-08-09 15:30:37</time>
      </trkpt>
      <trkpt lat="42.8447" lon="-0.49285">
        <ele>1910</ele>
        <time>2021-08-09 15:30:38</time>
      </trkpt>
      <trkpt lat="42.84469" lon="-0.49286">
        <ele>1910.2</ele>
        <time>2021-08-09 15:30:39</time>
      </trkpt>
      <trkpt lat="42.84468" lon="-0.49286">
        <ele>1910.2</ele>
        <time>2021-08-09 15:30:40</time>
      </trkpt>
      <trkpt lat="42.84468" lon="-0.49287">
        <ele>1910</ele>
        <time>2021-08-09 15:30:41</time>
      </trkpt>
      <trkpt lat="42.84467" lon="-0.49287">
        <ele>1910.2</ele>
        <time>2021-08-09 15:30:42</time>
      </trkpt>
      <trkpt lat="42.84467" lon="-0.49287">
        <ele>1910.4</ele>
        <time>2021-08-09 15:30:43</time>
      </trkpt>
      <trkpt lat="42.84466" lon="-0.49287">
        <ele>1910.6</ele>
        <time>2021-08-09 15:30:44</time>
      </trkpt>
      <trkpt lat="42.84465" lon="-0.49289">
        <ele>1910.6</ele>
        <time>2021-08-09 15:30:45</time>
      </trkpt>
      <trkpt lat="42.84463" lon="-0.49289">
        <ele>1910.4</ele>
        <time>2021-08-09 15:30:46</time>
      </trkpt>
      <trkpt lat="42.84462" lon="-0.49289">
        <ele>1910.4</ele>
        <time>2021-08-09 15:30:47</time>
      </trkpt>
      <trkpt lat="42.84461" lon="-0.49289">
        <ele>1910.6</ele>
        <time>2021-08-09 15:30:48</time>
      </trkpt>
      <trkpt lat="42.8446" lon="-0.49289">
        <ele>1910.8</ele>
        <time>2021-08-09 15:30:49</time>
      </trkpt>
      <trkpt lat="42.84459" lon="-0.49289">
        <ele>1910.8</ele>
        <time>2021-08-09 15:30:50</time>
      </trkpt>
      <trkpt lat="42.84458" lon="-0.49289">
        <ele>1910.8</ele>
        <time>2021-08-09 15:30:51</time>
      </trkpt>
      <trkpt lat="42.84457" lon="-0.49289">
        <ele>1910.8</ele>
        <time>2021-08-09 15:30:52</time>
      </trkpt>
      <trkpt lat="42.84456" lon="-0.49289">
        <ele>1910.8</ele>
        <time>2021-08-09 15:30:53</time>
      </trkpt>
      <trkpt lat="42.84455" lon="-0.4929">
        <ele>1910.6</ele>
        <time>2021-08-09 15:30:54</time>
      </trkpt>
      <trkpt lat="42.84453" lon="-0.4929">
        <ele>1911</ele>
        <time>2021-08-09 15:30:55</time>
      </trkpt>
      <trkpt lat="42.84452" lon="-0.49289">
        <ele>1911</ele>
        <time>2021-08-09 15:30:56</time>
      </trkpt>
      <trkpt lat="42.84451" lon="-0.49288">
        <ele>1911</ele>
        <time>2021-08-09 15:30:57</time>
      </trkpt>
      <trkpt lat="42.8445" lon="-0.49287">
        <ele>1911</ele>
        <time>2021-08-09 15:30:58</time>
      </trkpt>
      <trkpt lat="42.84449" lon="-0.49286">
        <ele>1911.2</ele>
        <time>2021-08-09 15:30:59</time>
      </trkpt>
      <trkpt lat="42.84449" lon="-0.49285">
        <ele>1911.2</ele>
        <time>2021-08-09 15:31:00</time>
      </trkpt>
      <trkpt lat="42.84449" lon="-0.49284">
        <ele>1911.2</ele>
        <time>2021-08-09 15:31:01</time>
      </trkpt>
      <trkpt lat="42.84448" lon="-0.49282">
        <ele>1911</ele>
        <time>2021-08-09 15:31:02</time>
      </trkpt>
      <trkpt lat="42.84447" lon="-0.49282">
        <ele>1911</ele>
        <time>2021-08-09 15:31:03</time>
      </trkpt>
      <trkpt lat="42.84445" lon="-0.49281">
        <ele>1911.2</ele>
        <time>2021-08-09 15:31:04</time>
      </trkpt>
      <trkpt lat="42.84444" lon="-0.4928">
        <ele>1911.4</ele>
        <time>2021-08-09 15:31:05</time>
      </trkpt>
      <trkpt lat="42.84443" lon="-0.49279">
        <ele>1911.2</ele>
        <time>2021-08-09 15:31:06</time>
      </trkpt>
      <trkpt lat="42.84442" lon="-0.49278">
        <ele>1911.2</ele>
        <time>2021-08-09 15:31:07</time>
      </trkpt>
      <trkpt lat="42.8444" lon="-0.49278">
        <ele>1911.2</ele>
        <time>2021-08-09 15:31:08</time>
      </trkpt>
      <trkpt lat="42.84439" lon="-0.49278">
        <ele>1911.2</ele>
        <time>2021-08-09 15:31:09</time>
      </trkpt>
      <trkpt lat="42.84439" lon="-0.49278">
        <ele>1911.2</ele>
        <time>2021-08-09 15:31:10</time>
      </trkpt>
      <trkpt lat="42.84438" lon="-0.49277">
        <ele>1911.2</ele>
        <time>2021-08-09 15:31:11</time>
      </trkpt>
      <trkpt lat="42.84437" lon="-0.49276">
        <ele>1911.6</ele>
        <time>2021-08-09 15:31:13</time>
      </trkpt>
      <trkpt lat="42.84436" lon="-0.49275">
        <ele>1911.4</ele>
        <time>2021-08-09 15:31:14</time>
      </trkpt>
      <trkpt lat="42.84435" lon="-0.49275">
        <ele>1910.8</ele>
        <time>2021-08-09 15:31:15</time>
      </trkpt>
      <trkpt lat="42.84434" lon="-0.49274">
        <ele>1910.2</ele>
        <time>2021-08-09 15:31:16</time>
      </trkpt>
      <trkpt lat="42.84433" lon="-0.49274">
        <ele>1910.8</ele>
        <time>2021-08-09 15:31:17</time>
      </trkpt>
      <trkpt lat="42.84432" lon="-0.49273">
        <ele>1911.6</ele>
        <time>2021-08-09 15:31:18</time>
      </trkpt>
      <trkpt lat="42.84431" lon="-0.49273">
        <ele>1912.2</ele>
        <time>2021-08-09 15:31:19</time>
      </trkpt>
      <trkpt lat="42.84431" lon="-0.49272">
        <ele>1912.2</ele>
        <time>2021-08-09 15:31:20</time>
      </trkpt>
      <trkpt lat="42.8443" lon="-0.49271">
        <ele>1912.4</ele>
        <time>2021-08-09 15:31:21</time>
      </trkpt>
      <trkpt lat="42.8443" lon="-0.4927">
        <ele>1912.6</ele>
        <time>2021-08-09 15:31:22</time>
      </trkpt>
      <trkpt lat="42.84429" lon="-0.4927">
        <ele>1912.8</ele>
        <time>2021-08-09 15:31:23</time>
      </trkpt>
      <trkpt lat="42.84428" lon="-0.4927">
        <ele>1913.2</ele>
        <time>2021-08-09 15:31:24</time>
      </trkpt>
      <trkpt lat="42.84427" lon="-0.4927">
        <ele>1913.6</ele>
        <time>2021-08-09 15:31:25</time>
      </trkpt>
      <trkpt lat="42.84426" lon="-0.4927">
        <ele>1913.8</ele>
        <time>2021-08-09 15:31:26</time>
      </trkpt>
      <trkpt lat="42.84425" lon="-0.4927">
        <ele>1913.8</ele>
        <time>2021-08-09 15:31:27</time>
      </trkpt>
      <trkpt lat="42.84425" lon="-0.4927">
        <ele>1913.8</ele>
        <time>2021-08-09 15:31:28</time>
      </trkpt>
      <trkpt lat="42.84424" lon="-0.49271">
        <ele>1913.6</ele>
        <time>2021-08-09 15:31:29</time>
      </trkpt>
      <trkpt lat="42.84423" lon="-0.49271">
        <ele>1913.6</ele>
        <time>2021-08-09 15:31:30</time>
      </trkpt>
      <trkpt lat="42.84423" lon="-0.4927">
        <ele>1914</ele>
        <time>2021-08-09 15:31:31</time>
      </trkpt>
      <trkpt lat="42.84422" lon="-0.49269">
        <ele>1914</ele>
        <time>2021-08-09 15:31:32</time>
      </trkpt>
      <trkpt lat="42.84422" lon="-0.49268">
        <ele>1913.8</ele>
        <time>2021-08-09 15:31:33</time>
      </trkpt>
      <trkpt lat="42.84421" lon="-0.49267">
        <ele>1914</ele>
        <time>2021-08-09 15:31:34</time>
      </trkpt>
      <trkpt lat="42.84421" lon="-0.49266">
        <ele>1914.2</ele>
        <time>2021-08-09 15:31:35</time>
      </trkpt>
      <trkpt lat="42.8442" lon="-0.49265">
        <ele>1914.6</ele>
        <time>2021-08-09 15:31:36</time>
      </trkpt>
      <trkpt lat="42.84419" lon="-0.49264">
        <ele>1914.4</ele>
        <time>2021-08-09 15:31:37</time>
      </trkpt>
      <trkpt lat="42.84419" lon="-0.49263">
        <ele>1914.4</ele>
        <time>2021-08-09 15:31:38</time>
      </trkpt>
      <trkpt lat="42.84418" lon="-0.49263">
        <ele>1914.2</ele>
        <time>2021-08-09 15:31:39</time>
      </trkpt>
      <trkpt lat="42.84417" lon="-0.49263">
        <ele>1914.6</ele>
        <time>2021-08-09 15:31:40</time>
      </trkpt>
      <trkpt lat="42.84416" lon="-0.49263">
        <ele>1914.8</ele>
        <time>2021-08-09 15:31:41</time>
      </trkpt>
      <trkpt lat="42.84416" lon="-0.49262">
        <ele>1915.2</ele>
        <time>2021-08-09 15:31:42</time>
      </trkpt>
      <trkpt lat="42.84416" lon="-0.49262">
        <ele>1915.2</ele>
        <time>2021-08-09 15:31:43</time>
      </trkpt>
      <trkpt lat="42.84415" lon="-0.49263">
        <ele>1915.8</ele>
        <time>2021-08-09 15:31:44</time>
      </trkpt>
      <trkpt lat="42.84415" lon="-0.49264">
        <ele>1915.8</ele>
        <time>2021-08-09 15:31:45</time>
      </trkpt>
      <trkpt lat="42.84414" lon="-0.49264">
        <ele>1915.4</ele>
        <time>2021-08-09 15:31:46</time>
      </trkpt>
      <trkpt lat="42.84414" lon="-0.49264">
        <ele>1915.6</ele>
        <time>2021-08-09 15:31:47</time>
      </trkpt>
      <trkpt lat="42.84413" lon="-0.49264">
        <ele>1915.8</ele>
        <time>2021-08-09 15:31:48</time>
      </trkpt>
      <trkpt lat="42.84413" lon="-0.49264">
        <ele>1915.8</ele>
        <time>2021-08-09 15:31:49</time>
      </trkpt>
      <trkpt lat="42.84412" lon="-0.49264">
        <ele>1916</ele>
        <time>2021-08-09 15:31:50</time>
      </trkpt>
      <trkpt lat="42.84412" lon="-0.49264">
        <ele>1916.2</ele>
        <time>2021-08-09 15:31:51</time>
      </trkpt>
      <trkpt lat="42.84411" lon="-0.49264">
        <ele>1916.6</ele>
        <time>2021-08-09 15:31:52</time>
      </trkpt>
      <trkpt lat="42.84409" lon="-0.49263">
        <ele>1916.6</ele>
        <time>2021-08-09 15:31:53</time>
      </trkpt>
      <trkpt lat="42.84408" lon="-0.49263">
        <ele>1916.8</ele>
        <time>2021-08-09 15:31:54</time>
      </trkpt>
      <trkpt lat="42.84408" lon="-0.49264">
        <ele>1917</ele>
        <time>2021-08-09 15:31:55</time>
      </trkpt>
      <trkpt lat="42.84407" lon="-0.49264">
        <ele>1917</ele>
        <time>2021-08-09 15:31:56</time>
      </trkpt>
      <trkpt lat="42.84407" lon="-0.49264">
        <ele>1917</ele>
        <time>2021-08-09 15:31:57</time>
      </trkpt>
      <trkpt lat="42.84407" lon="-0.49265">
        <ele>1917.2</ele>
        <time>2021-08-09 15:31:58</time>
      </trkpt>
      <trkpt lat="42.84406" lon="-0.49265">
        <ele>1917.6</ele>
        <time>2021-08-09 15:31:59</time>
      </trkpt>
      <trkpt lat="42.84406" lon="-0.49265">
        <ele>1917.8</ele>
        <time>2021-08-09 15:32:00</time>
      </trkpt>
      <trkpt lat="42.84405" lon="-0.49265">
        <ele>1918</ele>
        <time>2021-08-09 15:32:01</time>
      </trkpt>
      <trkpt lat="42.84404" lon="-0.49265">
        <ele>1918.2</ele>
        <time>2021-08-09 15:32:02</time>
      </trkpt>
      <trkpt lat="42.84404" lon="-0.49265">
        <ele>1918.8</ele>
        <time>2021-08-09 15:32:03</time>
      </trkpt>
      <trkpt lat="42.84403" lon="-0.49264">
        <ele>1919</ele>
        <time>2021-08-09 15:32:04</time>
      </trkpt>
      <trkpt lat="42.84402" lon="-0.49264">
        <ele>1919</ele>
        <time>2021-08-09 15:32:05</time>
      </trkpt>
      <trkpt lat="42.84402" lon="-0.49264">
        <ele>1918.8</ele>
        <time>2021-08-09 15:32:06</time>
      </trkpt>
      <trkpt lat="42.84401" lon="-0.49264">
        <ele>1919</ele>
        <time>2021-08-09 15:32:07</time>
      </trkpt>
      <trkpt lat="42.84401" lon="-0.49264">
        <ele>1918.4</ele>
        <time>2021-08-09 15:32:08</time>
      </trkpt>
      <trkpt lat="42.844" lon="-0.49263">
        <ele>1918.6</ele>
        <time>2021-08-09 15:32:09</time>
      </trkpt>
      <trkpt lat="42.84399" lon="-0.49263">
        <ele>1919.4</ele>
        <time>2021-08-09 15:32:10</time>
      </trkpt>
      <trkpt lat="42.84398" lon="-0.49263">
        <ele>1919.6</ele>
        <time>2021-08-09 15:32:11</time>
      </trkpt>
      <trkpt lat="42.84397" lon="-0.49262">
        <ele>1919.6</ele>
        <time>2021-08-09 15:32:12</time>
      </trkpt>
      <trkpt lat="42.84397" lon="-0.49261">
        <ele>1919.2</ele>
        <time>2021-08-09 15:32:13</time>
      </trkpt>
      <trkpt lat="42.84395" lon="-0.49261">
        <ele>1919</ele>
        <time>2021-08-09 15:32:14</time>
      </trkpt>
      <trkpt lat="42.84394" lon="-0.4926">
        <ele>1918.8</ele>
        <time>2021-08-09 15:32:15</time>
      </trkpt>
      <trkpt lat="42.84394" lon="-0.4926">
        <ele>1918.8</ele>
        <time>2021-08-09 15:32:16</time>
      </trkpt>
      <trkpt lat="42.84393" lon="-0.49259">
        <ele>1918.4</ele>
        <time>2021-08-09 15:32:17</time>
      </trkpt>
      <trkpt lat="42.84393" lon="-0.49258">
        <ele>1918.4</ele>
        <time>2021-08-09 15:32:18</time>
      </trkpt>
      <trkpt lat="42.84392" lon="-0.49257">
        <ele>1918.2</ele>
        <time>2021-08-09 15:32:19</time>
      </trkpt>
      <trkpt lat="42.84392" lon="-0.49256">
        <ele>1918.8</ele>
        <time>2021-08-09 15:32:20</time>
      </trkpt>
      <trkpt lat="42.84391" lon="-0.49255">
        <ele>1919.2</ele>
        <time>2021-08-09 15:32:21</time>
      </trkpt>
      <trkpt lat="42.84391" lon="-0.49255">
        <ele>1919.2</ele>
        <time>2021-08-09 15:32:22</time>
      </trkpt>
      <trkpt lat="42.8439" lon="-0.49255">
        <ele>1919.4</ele>
        <time>2021-08-09 15:32:23</time>
      </trkpt>
      <trkpt lat="42.8439" lon="-0.49255">
        <ele>1919.6</ele>
        <time>2021-08-09 15:32:24</time>
      </trkpt>
      <trkpt lat="42.8439" lon="-0.49256">
        <ele>1919.4</ele>
        <time>2021-08-09 15:32:25</time>
      </trkpt>
      <trkpt lat="42.84389" lon="-0.49256">
        <ele>1919.4</ele>
        <time>2021-08-09 15:32:26</time>
      </trkpt>
      <trkpt lat="42.84388" lon="-0.49257">
        <ele>1919.6</ele>
        <time>2021-08-09 15:32:27</time>
      </trkpt>
      <trkpt lat="42.84388" lon="-0.49257">
        <ele>1919.8</ele>
        <time>2021-08-09 15:32:28</time>
      </trkpt>
      <trkpt lat="42.84387" lon="-0.49257">
        <ele>1919.8</ele>
        <time>2021-08-09 15:32:29</time>
      </trkpt>
      <trkpt lat="42.84387" lon="-0.49257">
        <ele>1920.4</ele>
        <time>2021-08-09 15:32:30</time>
      </trkpt>
      <trkpt lat="42.84387" lon="-0.49255">
        <ele>1920.2</ele>
        <time>2021-08-09 15:32:31</time>
      </trkpt>
      <trkpt lat="42.84387" lon="-0.49254">
        <ele>1920</ele>
        <time>2021-08-09 15:32:32</time>
      </trkpt>
      <trkpt lat="42.84388" lon="-0.49254">
        <ele>1919.8</ele>
        <time>2021-08-09 15:32:33</time>
      </trkpt>
      <trkpt lat="42.84388" lon="-0.49253">
        <ele>1919.8</ele>
        <time>2021-08-09 15:32:34</time>
      </trkpt>
      <trkpt lat="42.84388" lon="-0.49252">
        <ele>1919.8</ele>
        <time>2021-08-09 15:32:35</time>
      </trkpt>
      <trkpt lat="42.84388" lon="-0.49252">
        <ele>1919.8</ele>
        <time>2021-08-09 15:32:36</time>
      </trkpt>
      <trkpt lat="42.84388" lon="-0.49251">
        <ele>1920</ele>
        <time>2021-08-09 15:32:37</time>
      </trkpt>
      <trkpt lat="42.84388" lon="-0.49251">
        <ele>1919.8</ele>
        <time>2021-08-09 15:32:38</time>
      </trkpt>
      <trkpt lat="42.84388" lon="-0.49249">
        <ele>1919.6</ele>
        <time>2021-08-09 15:32:39</time>
      </trkpt>
      <trkpt lat="42.84388" lon="-0.49249">
        <ele>1919.6</ele>
        <time>2021-08-09 15:32:40</time>
      </trkpt>
      <trkpt lat="42.84388" lon="-0.49248">
        <ele>1919.4</ele>
        <time>2021-08-09 15:32:41</time>
      </trkpt>
      <trkpt lat="42.84387" lon="-0.49248">
        <ele>1919.8</ele>
        <time>2021-08-09 15:32:42</time>
      </trkpt>
      <trkpt lat="42.84386" lon="-0.49248">
        <ele>1919.8</ele>
        <time>2021-08-09 15:32:43</time>
      </trkpt>
      <trkpt lat="42.84385" lon="-0.49248">
        <ele>1920</ele>
        <time>2021-08-09 15:32:44</time>
      </trkpt>
      <trkpt lat="42.84384" lon="-0.49248">
        <ele>1920</ele>
        <time>2021-08-09 15:32:45</time>
      </trkpt>
      <trkpt lat="42.84383" lon="-0.49248">
        <ele>1920.2</ele>
        <time>2021-08-09 15:32:46</time>
      </trkpt>
      <trkpt lat="42.84382" lon="-0.49247">
        <ele>1920.2</ele>
        <time>2021-08-09 15:32:47</time>
      </trkpt>
      <trkpt lat="42.8438" lon="-0.49247">
        <ele>1920.2</ele>
        <time>2021-08-09 15:32:48</time>
      </trkpt>
      <trkpt lat="42.84379" lon="-0.49247">
        <ele>1920</ele>
        <time>2021-08-09 15:32:49</time>
      </trkpt>
      <trkpt lat="42.84378" lon="-0.49247">
        <ele>1920.2</ele>
        <time>2021-08-09 15:32:50</time>
      </trkpt>
      <trkpt lat="42.84376" lon="-0.49247">
        <ele>1920.2</ele>
        <time>2021-08-09 15:32:51</time>
      </trkpt>
      <trkpt lat="42.84375" lon="-0.49247">
        <ele>1920.4</ele>
        <time>2021-08-09 15:32:52</time>
      </trkpt>
      <trkpt lat="42.84374" lon="-0.49247">
        <ele>1920.4</ele>
        <time>2021-08-09 15:32:53</time>
      </trkpt>
      <trkpt lat="42.84374" lon="-0.49247">
        <ele>1920.4</ele>
        <time>2021-08-09 15:32:54</time>
      </trkpt>
      <trkpt lat="42.84374" lon="-0.49246">
        <ele>1920.4</ele>
        <time>2021-08-09 15:32:55</time>
      </trkpt>
      <trkpt lat="42.84373" lon="-0.49246">
        <ele>1920.4</ele>
        <time>2021-08-09 15:32:56</time>
      </trkpt>
      <trkpt lat="42.84373" lon="-0.49247">
        <ele>1920.6</ele>
        <time>2021-08-09 15:32:57</time>
      </trkpt>
      <trkpt lat="42.84373" lon="-0.49247">
        <ele>1920.4</ele>
        <time>2021-08-09 15:32:58</time>
      </trkpt>
      <trkpt lat="42.84373" lon="-0.49247">
        <ele>1920.4</ele>
        <time>2021-08-09 15:32:59</time>
      </trkpt>
      <trkpt lat="42.84373" lon="-0.49247">
        <ele>1920.2</ele>
        <time>2021-08-09 15:33:00</time>
      </trkpt>
      <trkpt lat="42.84372" lon="-0.49248">
        <ele>1920.4</ele>
        <time>2021-08-09 15:33:01</time>
      </trkpt>
      <trkpt lat="42.84371" lon="-0.49249">
        <ele>1918.2</ele>
        <time>2021-08-09 15:33:02</time>
      </trkpt>
      <trkpt lat="42.84371" lon="-0.49249">
        <ele>1919.4</ele>
        <time>2021-08-09 15:33:03</time>
      </trkpt>
      <trkpt lat="42.8437" lon="-0.49248">
        <ele>1918.8</ele>
        <time>2021-08-09 15:33:04</time>
      </trkpt>
      <trkpt lat="42.84369" lon="-0.49248">
        <ele>1919.8</ele>
        <time>2021-08-09 15:33:05</time>
      </trkpt>
      <trkpt lat="42.84369" lon="-0.49247">
        <ele>1920.4</ele>
        <time>2021-08-09 15:33:06</time>
      </trkpt>
      <trkpt lat="42.84368" lon="-0.49249">
        <ele>1920.6</ele>
        <time>2021-08-09 15:33:07</time>
      </trkpt>
      <trkpt lat="42.84367" lon="-0.49248">
        <ele>1920.4</ele>
        <time>2021-08-09 15:33:08</time>
      </trkpt>
      <trkpt lat="42.84367" lon="-0.49248">
        <ele>1920.2</ele>
        <time>2021-08-09 15:33:09</time>
      </trkpt>
      <trkpt lat="42.84366" lon="-0.49248">
        <ele>1920.4</ele>
        <time>2021-08-09 15:33:10</time>
      </trkpt>
      <trkpt lat="42.84365" lon="-0.49249">
        <ele>1920</ele>
        <time>2021-08-09 15:33:11</time>
      </trkpt>
      <trkpt lat="42.84364" lon="-0.49249">
        <ele>1919.8</ele>
        <time>2021-08-09 15:33:12</time>
      </trkpt>
      <trkpt lat="42.84362" lon="-0.49249">
        <ele>1920.2</ele>
        <time>2021-08-09 15:33:13</time>
      </trkpt>
      <trkpt lat="42.84362" lon="-0.49249">
        <ele>1920.4</ele>
        <time>2021-08-09 15:33:14</time>
      </trkpt>
      <trkpt lat="42.84361" lon="-0.49249">
        <ele>1920.4</ele>
        <time>2021-08-09 15:33:15</time>
      </trkpt>
      <trkpt lat="42.8436" lon="-0.49249">
        <ele>1920.4</ele>
        <time>2021-08-09 15:33:16</time>
      </trkpt>
      <trkpt lat="42.84359" lon="-0.49249">
        <ele>1920.8</ele>
        <time>2021-08-09 15:33:17</time>
      </trkpt>
      <trkpt lat="42.84358" lon="-0.49249">
        <ele>1920.8</ele>
        <time>2021-08-09 15:33:18</time>
      </trkpt>
      <trkpt lat="42.84357" lon="-0.49249">
        <ele>1921</ele>
        <time>2021-08-09 15:33:19</time>
      </trkpt>
      <trkpt lat="42.84356" lon="-0.49249">
        <ele>1921</ele>
        <time>2021-08-09 15:33:20</time>
      </trkpt>
      <trkpt lat="42.84356" lon="-0.49249">
        <ele>1921</ele>
        <time>2021-08-09 15:33:21</time>
      </trkpt>
      <trkpt lat="42.84354" lon="-0.49249">
        <ele>1920.8</ele>
        <time>2021-08-09 15:33:22</time>
      </trkpt>
      <trkpt lat="42.84353" lon="-0.4925">
        <ele>1920.8</ele>
        <time>2021-08-09 15:33:23</time>
      </trkpt>
      <trkpt lat="42.84353" lon="-0.49249">
        <ele>1921</ele>
        <time>2021-08-09 15:33:24</time>
      </trkpt>
      <trkpt lat="42.84352" lon="-0.49249">
        <ele>1921</ele>
        <time>2021-08-09 15:33:25</time>
      </trkpt>
      <trkpt lat="42.84352" lon="-0.49249">
        <ele>1921</ele>
        <time>2021-08-09 15:33:26</time>
      </trkpt>
      <trkpt lat="42.8435" lon="-0.4925">
        <ele>1921</ele>
        <time>2021-08-09 15:33:27</time>
      </trkpt>
      <trkpt lat="42.84349" lon="-0.49249">
        <ele>1921</ele>
        <time>2021-08-09 15:33:28</time>
      </trkpt>
      <trkpt lat="42.84348" lon="-0.49249">
        <ele>1921</ele>
        <time>2021-08-09 15:33:29</time>
      </trkpt>
      <trkpt lat="42.84347" lon="-0.49248">
        <ele>1921.8</ele>
        <time>2021-08-09 15:33:30</time>
      </trkpt>
      <trkpt lat="42.84346" lon="-0.49248">
        <ele>1921</ele>
        <time>2021-08-09 15:33:31</time>
      </trkpt>
      <trkpt lat="42.84346" lon="-0.49247">
        <ele>1921</ele>
        <time>2021-08-09 15:33:32</time>
      </trkpt>
      <trkpt lat="42.84344" lon="-0.49247">
        <ele>1920.8</ele>
        <time>2021-08-09 15:33:33</time>
      </trkpt>
      <trkpt lat="42.84343" lon="-0.49247">
        <ele>1920.6</ele>
        <time>2021-08-09 15:33:34</time>
      </trkpt>
      <trkpt lat="42.84342" lon="-0.49246">
        <ele>1920.6</ele>
        <time>2021-08-09 15:33:35</time>
      </trkpt>
      <trkpt lat="42.84342" lon="-0.49246">
        <ele>1920.8</ele>
        <time>2021-08-09 15:33:36</time>
      </trkpt>
      <trkpt lat="42.8434" lon="-0.49245">
        <ele>1920.6</ele>
        <time>2021-08-09 15:33:37</time>
      </trkpt>
      <trkpt lat="42.84339" lon="-0.49245">
        <ele>1920.2</ele>
        <time>2021-08-09 15:33:38</time>
      </trkpt>
      <trkpt lat="42.84339" lon="-0.49245">
        <ele>1920</ele>
        <time>2021-08-09 15:33:39</time>
      </trkpt>
      <trkpt lat="42.84338" lon="-0.49245">
        <ele>1919.8</ele>
        <time>2021-08-09 15:33:40</time>
      </trkpt>
      <trkpt lat="42.84336" lon="-0.49245">
        <ele>1919.6</ele>
        <time>2021-08-09 15:33:41</time>
      </trkpt>
      <trkpt lat="42.84335" lon="-0.49245">
        <ele>1919.8</ele>
        <time>2021-08-09 15:33:42</time>
      </trkpt>
      <trkpt lat="42.84334" lon="-0.49245">
        <ele>1920</ele>
        <time>2021-08-09 15:33:43</time>
      </trkpt>
      <trkpt lat="42.84333" lon="-0.49246">
        <ele>1920</ele>
        <time>2021-08-09 15:33:44</time>
      </trkpt>
      <trkpt lat="42.84332" lon="-0.49246">
        <ele>1919.4</ele>
        <time>2021-08-09 15:33:45</time>
      </trkpt>
      <trkpt lat="42.84331" lon="-0.49247">
        <ele>1919.4</ele>
        <time>2021-08-09 15:33:46</time>
      </trkpt>
      <trkpt lat="42.8433" lon="-0.49247">
        <ele>1919.4</ele>
        <time>2021-08-09 15:33:47</time>
      </trkpt>
      <trkpt lat="42.84329" lon="-0.49248">
        <ele>1919.8</ele>
        <time>2021-08-09 15:33:48</time>
      </trkpt>
      <trkpt lat="42.84328" lon="-0.49249">
        <ele>1920.2</ele>
        <time>2021-08-09 15:33:49</time>
      </trkpt>
      <trkpt lat="42.84327" lon="-0.49249">
        <ele>1920.4</ele>
        <time>2021-08-09 15:33:50</time>
      </trkpt>
      <trkpt lat="42.84327" lon="-0.4925">
        <ele>1920.4</ele>
        <time>2021-08-09 15:33:51</time>
      </trkpt>
      <trkpt lat="42.84326" lon="-0.4925">
        <ele>1920.6</ele>
        <time>2021-08-09 15:33:52</time>
      </trkpt>
      <trkpt lat="42.84325" lon="-0.49251">
        <ele>1920.6</ele>
        <time>2021-08-09 15:33:53</time>
      </trkpt>
      <trkpt lat="42.84324" lon="-0.49253">
        <ele>1920.6</ele>
        <time>2021-08-09 15:33:54</time>
      </trkpt>
      <trkpt lat="42.84323" lon="-0.49256">
        <ele>1920.4</ele>
        <time>2021-08-09 15:33:59</time>
      </trkpt>
      <trkpt lat="42.84321" lon="-0.49257">
        <ele>1920.8</ele>
      </trkpt>
      <trkpt lat="42.84321" lon="-0.49254">
        <ele>1920.6</ele>
        <time>2021-08-09 15:34:01</time>
      </trkpt>
      <trkpt lat="42.8432" lon="-0.49255">
        <ele>1920.4</ele>
        <time>2021-08-09 15:34:02</time>
      </trkpt>
      <trkpt lat="42.84319" lon="-0.49255">
        <ele>1920.8</ele>
        <time>2021-08-09 15:34:03</time>
      </trkpt>
      <trkpt lat="42.84319" lon="-0.49254">
        <ele>1921.4</ele>
        <time>2021-08-09 15:34:04</time>
      </trkpt>
      <trkpt lat="42.84319" lon="-0.49253">
        <ele>1921.4</ele>
        <time>2021-08-09 15:34:05</time>
      </trkpt>
      <trkpt lat="42.84318" lon="-0.49253">
        <ele>1921.6</ele>
        <time>2021-08-09 15:34:07</time>
      </trkpt>
      <trkpt lat="42.84317" lon="-0.49253">
        <ele>1921.6</ele>
        <time>2021-08-09 15:34:08</time>
      </trkpt>
      <trkpt lat="42.84316" lon="-0.49254">
        <ele>1922</ele>
        <time>2021-08-09 15:34:09</time>
      </trkpt>
      <trkpt lat="42.84316" lon="-0.49253">
        <ele>1922.2</ele>
        <time>2021-08-09 15:34:10</time>
      </trkpt>
      <trkpt lat="42.84315" lon="-0.49253">
        <ele>1922.2</ele>
        <time>2021-08-09 15:34:11</time>
      </trkpt>
      <trkpt lat="42.84314" lon="-0.49251">
        <ele>1922.4</ele>
        <time>2021-08-09 15:34:12</time>
      </trkpt>
      <trkpt lat="42.84313" lon="-0.49252">
        <ele>1922.4</ele>
        <time>2021-08-09 15:34:13</time>
      </trkpt>
      <trkpt lat="42.84312" lon="-0.49252">
        <ele>1922.4</ele>
        <time>2021-08-09 15:34:14</time>
      </trkpt>
      <trkpt lat="42.84311" lon="-0.49251">
        <ele>1922.2</ele>
        <time>2021-08-09 15:34:15</time>
      </trkpt>
      <trkpt lat="42.8431" lon="-0.49252">
        <ele>1922.2</ele>
        <time>2021-08-09 15:34:16</time>
      </trkpt>
      <trkpt lat="42.84309" lon="-0.49253">
        <ele>1922.2</ele>
        <time>2021-08-09 15:34:17</time>
      </trkpt>
      <trkpt lat="42.84308" lon="-0.49254">
        <ele>1922.4</ele>
        <time>2021-08-09 15:34:18</time>
      </trkpt>
      <trkpt lat="42.84307" lon="-0.49255">
        <ele>1922.6</ele>
        <time>2021-08-09 15:34:19</time>
      </trkpt>
      <trkpt lat="42.84306" lon="-0.49255">
        <ele>1923.2</ele>
        <time>2021-08-09 15:34:20</time>
      </trkpt>
      <trkpt lat="42.84305" lon="-0.49255">
        <ele>1923.6</ele>
        <time>2021-08-09 15:34:21</time>
      </trkpt>
      <trkpt lat="42.84304" lon="-0.49256">
        <ele>1923.8</ele>
        <time>2021-08-09 15:34:22</time>
      </trkpt>
      <trkpt lat="42.84304" lon="-0.49256">
        <ele>1923.6</ele>
        <time>2021-08-09 15:34:23</time>
      </trkpt>
      <trkpt lat="42.84303" lon="-0.49256">
        <ele>1923.8</ele>
        <time>2021-08-09 15:34:24</time>
      </trkpt>
      <trkpt lat="42.84303" lon="-0.49256">
        <ele>1924</ele>
        <time>2021-08-09 15:34:25</time>
      </trkpt>
      <trkpt lat="42.84302" lon="-0.49256">
        <ele>1924.2</ele>
        <time>2021-08-09 15:34:26</time>
      </trkpt>
      <trkpt lat="42.84301" lon="-0.49256">
        <ele>1924.4</ele>
        <time>2021-08-09 15:34:27</time>
      </trkpt>
      <trkpt lat="42.843" lon="-0.49256">
        <ele>1925</ele>
        <time>2021-08-09 15:34:30</time>
      </trkpt>
      <trkpt lat="42.843" lon="-0.49255">
        <ele>1925.4</ele>
        <time>2021-08-09 15:34:31</time>
      </trkpt>
      <trkpt lat="42.843" lon="-0.49255">
        <ele>1925.4</ele>
        <time>2021-08-09 15:34:32</time>
      </trkpt>
      <trkpt lat="42.84299" lon="-0.49256">
        <ele>1925.4</ele>
      </trkpt>
      <trkpt lat="42.84298" lon="-0.49256">
        <ele>1925.6</ele>
        <time>2021-08-09 15:34:37</time>
      </trkpt>
      <trkpt lat="42.84298" lon="-0.49257">
        <ele>1925.8</ele>
        <time>2021-08-09 15:34:38</time>
      </trkpt>
      <trkpt lat="42.84297" lon="-0.49257">
        <ele>1926.2</ele>
        <time>2021-08-09 15:34:39</time>
      </trkpt>
      <trkpt lat="42.84296" lon="-0.49258">
        <ele>1926.4</ele>
        <time>2021-08-09 15:34:40</time>
      </trkpt>
      <trkpt lat="42.84295" lon="-0.49258">
        <ele>1926.6</ele>
        <time>2021-08-09 15:34:41</time>
      </trkpt>
      <trkpt lat="42.84294" lon="-0.49258">
        <ele>1926.2</ele>
        <time>2021-08-09 15:34:42</time>
      </trkpt>
      <trkpt lat="42.84293" lon="-0.49259">
        <ele>1926.2</ele>
        <time>2021-08-09 15:34:43</time>
      </trkpt>
      <trkpt lat="42.84293" lon="-0.49259">
        <ele>1926.6</ele>
        <time>2021-08-09 15:34:44</time>
      </trkpt>
      <trkpt lat="42.84293" lon="-0.49259">
        <ele>1926.6</ele>
        <time>2021-08-09 15:34:45</time>
      </trkpt>
      <trkpt lat="42.84292" lon="-0.49259">
        <ele>1926.6</ele>
        <time>2021-08-09 15:34:46</time>
      </trkpt>
      <trkpt lat="42.84291" lon="-0.49259">
        <ele>1926.8</ele>
        <time>2021-08-09 15:34:47</time>
      </trkpt>
      <trkpt lat="42.8429" lon="-0.49258">
        <ele>1926.4</ele>
        <time>2021-08-09 15:34:48</time>
      </trkpt>
      <trkpt lat="42.84289" lon="-0.49258">
        <ele>1926.8</ele>
        <time>2021-08-09 15:34:50</time>
      </trkpt>
      <trkpt lat="42.84288" lon="-0.49258">
        <ele>1927.2</ele>
      </trkpt>
      <trkpt lat="42.84287" lon="-0.49258">
        <ele>1927.4</ele>
        <time>2021-08-09 15:34:51</time>
      </trkpt>
      <trkpt lat="42.84286" lon="-0.49257">
        <ele>1927.4</ele>
        <time>2021-08-09 15:34:52</time>
      </trkpt>
      <trkpt lat="42.84286" lon="-0.49256">
        <ele>1927.4</ele>
        <time>2021-08-09 15:34:53</time>
      </trkpt>
      <trkpt lat="42.84285" lon="-0.49255">
        <ele>1927.4</ele>
        <time>2021-08-09 15:34:54</time>
      </trkpt>
      <trkpt lat="42.84283" lon="-0.49255">
        <ele>1927.2</ele>
        <time>2021-08-09 15:34:55</time>
      </trkpt>
      <trkpt lat="42.84283" lon="-0.49254">
        <ele>1927.2</ele>
        <time>2021-08-09 15:34:56</time>
      </trkpt>
      <trkpt lat="42.84282" lon="-0.49253">
        <ele>1927.6</ele>
        <time>2021-08-09 15:34:57</time>
      </trkpt>
      <trkpt lat="42.84281" lon="-0.49252">
        <ele>1927.8</ele>
        <time>2021-08-09 15:34:58</time>
      </trkpt>
      <trkpt lat="42.84281" lon="-0.49252">
        <ele>1928.2</ele>
        <time>2021-08-09 15:34:59</time>
      </trkpt>
      <trkpt lat="42.8428" lon="-0.49251">
        <ele>1928.2</ele>
        <time>2021-08-09 15:35:00</time>
      </trkpt>
      <trkpt lat="42.84279" lon="-0.49251">
        <ele>1928.2</ele>
        <time>2021-08-09 15:35:01</time>
      </trkpt>
      <trkpt lat="42.84278" lon="-0.4925">
        <ele>1928.4</ele>
        <time>2021-08-09 15:35:02</time>
      </trkpt>
      <trkpt lat="42.84277" lon="-0.49248">
        <ele>1928.4</ele>
        <time>2021-08-09 15:35:03</time>
      </trkpt>
      <trkpt lat="42.84277" lon="-0.49247">
        <ele>1928.6</ele>
        <time>2021-08-09 15:35:04</time>
      </trkpt>
      <trkpt lat="42.84276" lon="-0.49246">
        <ele>1928.6</ele>
        <time>2021-08-09 15:35:05</time>
      </trkpt>
      <trkpt lat="42.84276" lon="-0.49245">
        <ele>1928.8</ele>
        <time>2021-08-09 15:35:06</time>
      </trkpt>
      <trkpt lat="42.84275" lon="-0.49244">
        <ele>1928.8</ele>
        <time>2021-08-09 15:35:07</time>
      </trkpt>
      <trkpt lat="42.84275" lon="-0.49243">
        <ele>1929.2</ele>
        <time>2021-08-09 15:35:08</time>
      </trkpt>
      <trkpt lat="42.84274" lon="-0.49244">
        <ele>1929.2</ele>
        <time>2021-08-09 15:35:09</time>
      </trkpt>
      <trkpt lat="42.84273" lon="-0.49244">
        <ele>1929.6</ele>
        <time>2021-08-09 15:35:10</time>
      </trkpt>
      <trkpt lat="42.84272" lon="-0.49244">
        <ele>1929.6</ele>
        <time>2021-08-09 15:35:11</time>
      </trkpt>
      <trkpt lat="42.84272" lon="-0.49244">
        <ele>1930</ele>
        <time>2021-08-09 15:35:12</time>
      </trkpt>
      <trkpt lat="42.84272" lon="-0.49244">
        <ele>1930.4</ele>
        <time>2021-08-09 15:35:13</time>
      </trkpt>
      <trkpt lat="42.84272" lon="-0.49243">
        <ele>1930.4</ele>
        <time>2021-08-09 15:35:14</time>
      </trkpt>
      <trkpt lat="42.84272" lon="-0.49243">
        <ele>1930.6</ele>
        <time>2021-08-09 15:35:15</time>
      </trkpt>
      <trkpt lat="42.84271" lon="-0.49242">
        <ele>1930.6</ele>
        <time>2021-08-09 15:35:16</time>
      </trkpt>
      <trkpt lat="42.8427" lon="-0.49242">
        <ele>1930.2</ele>
        <time>2021-08-09 15:35:17</time>
      </trkpt>
      <trkpt lat="42.8427" lon="-0.49243">
        <ele>1930.4</ele>
        <time>2021-08-09 15:35:18</time>
      </trkpt>
      <trkpt lat="42.84269" lon="-0.49243">
        <ele>1930.8</ele>
        <time>2021-08-09 15:35:19</time>
      </trkpt>
      <trkpt lat="42.84269" lon="-0.49242">
        <ele>1930.8</ele>
        <time>2021-08-09 15:35:20</time>
      </trkpt>
      <trkpt lat="42.84268" lon="-0.49242">
        <ele>1930.6</ele>
        <time>2021-08-09 15:35:21</time>
      </trkpt>
      <trkpt lat="42.84267" lon="-0.49242">
        <ele>1930.6</ele>
        <time>2021-08-09 15:35:22</time>
      </trkpt>
      <trkpt lat="42.84266" lon="-0.49242">
        <ele>1930.8</ele>
        <time>2021-08-09 15:35:23</time>
      </trkpt>
      <trkpt lat="42.84266" lon="-0.49243">
        <ele>1931</ele>
        <time>2021-08-09 15:35:24</time>
      </trkpt>
      <trkpt lat="42.84265" lon="-0.49243">
        <ele>1931.2</ele>
        <time>2021-08-09 15:35:25</time>
      </trkpt>
      <trkpt lat="42.84264" lon="-0.49243">
        <ele>1931.2</ele>
        <time>2021-08-09 15:35:26</time>
      </trkpt>
      <trkpt lat="42.84264" lon="-0.49243">
        <ele>1931.4</ele>
        <time>2021-08-09 15:35:27</time>
      </trkpt>
      <trkpt lat="42.84263" lon="-0.49243">
        <ele>1931.6</ele>
        <time>2021-08-09 15:35:28</time>
      </trkpt>
      <trkpt lat="42.84262" lon="-0.49243">
        <ele>1931.6</ele>
        <time>2021-08-09 15:35:29</time>
      </trkpt>
      <trkpt lat="42.84262" lon="-0.49243">
        <ele>1931.6</ele>
        <time>2021-08-09 15:35:30</time>
      </trkpt>
      <trkpt lat="42.84261" lon="-0.49244">
        <ele>1931.6</ele>
        <time>2021-08-09 15:35:31</time>
      </trkpt>
      <trkpt lat="42.8426" lon="-0.49244">
        <ele>1931.8</ele>
        <time>2021-08-09 15:35:32</time>
      </trkpt>
      <trkpt lat="42.8426" lon="-0.49244">
        <ele>1932</ele>
        <time>2021-08-09 15:35:33</time>
      </trkpt>
      <trkpt lat="42.84259" lon="-0.49245">
        <ele>1932</ele>
        <time>2021-08-09 15:35:34</time>
      </trkpt>
      <trkpt lat="42.84259" lon="-0.49245">
        <ele>1932</ele>
        <time>2021-08-09 15:35:35</time>
      </trkpt>
      <trkpt lat="42.84258" lon="-0.49246">
        <ele>1932</ele>
        <time>2021-08-09 15:35:36</time>
      </trkpt>
      <trkpt lat="42.84257" lon="-0.49247">
        <ele>1932</ele>
        <time>2021-08-09 15:35:37</time>
      </trkpt>
      <trkpt lat="42.84257" lon="-0.49248">
        <ele>1932</ele>
        <time>2021-08-09 15:35:38</time>
      </trkpt>
      <trkpt lat="42.84256" lon="-0.49249">
        <ele>1932.2</ele>
        <time>2021-08-09 15:35:39</time>
      </trkpt>
      <trkpt lat="42.84255" lon="-0.49249">
        <ele>1932.4</ele>
        <time>2021-08-09 15:35:40</time>
      </trkpt>
      <trkpt lat="42.84255" lon="-0.49249">
        <ele>1932.4</ele>
        <time>2021-08-09 15:35:41</time>
      </trkpt>
      <trkpt lat="42.84254" lon="-0.4925">
        <ele>1932.6</ele>
        <time>2021-08-09 15:35:42</time>
      </trkpt>
      <trkpt lat="42.84253" lon="-0.4925">
        <ele>1932.8</ele>
        <time>2021-08-09 15:35:43</time>
      </trkpt>
      <trkpt lat="42.84252" lon="-0.49251">
        <ele>1932.8</ele>
        <time>2021-08-09 15:35:44</time>
      </trkpt>
      <trkpt lat="42.84251" lon="-0.49251">
        <ele>1933</ele>
        <time>2021-08-09 15:35:45</time>
      </trkpt>
      <trkpt lat="42.84251" lon="-0.49252">
        <ele>1933</ele>
        <time>2021-08-09 15:35:46</time>
      </trkpt>
      <trkpt lat="42.8425" lon="-0.49253">
        <ele>1933.2</ele>
        <time>2021-08-09 15:35:47</time>
      </trkpt>
      <trkpt lat="42.84249" lon="-0.49254">
        <ele>1933.2</ele>
        <time>2021-08-09 15:35:48</time>
      </trkpt>
      <trkpt lat="42.84248" lon="-0.49254">
        <ele>1933.4</ele>
        <time>2021-08-09 15:35:49</time>
      </trkpt>
      <trkpt lat="42.84248" lon="-0.49255">
        <ele>1933.4</ele>
        <time>2021-08-09 15:35:50</time>
      </trkpt>
      <trkpt lat="42.84247" lon="-0.49255">
        <ele>1933.6</ele>
        <time>2021-08-09 15:35:51</time>
      </trkpt>
      <trkpt lat="42.84247" lon="-0.49256">
        <ele>1933.8</ele>
        <time>2021-08-09 15:35:52</time>
      </trkpt>
      <trkpt lat="42.84246" lon="-0.49256">
        <ele>1934</ele>
        <time>2021-08-09 15:35:53</time>
      </trkpt>
      <trkpt lat="42.84245" lon="-0.49257">
        <ele>1934</ele>
        <time>2021-08-09 15:35:54</time>
      </trkpt>
      <trkpt lat="42.84244" lon="-0.49258">
        <ele>1934</ele>
        <time>2021-08-09 15:35:55</time>
      </trkpt>
      <trkpt lat="42.84243" lon="-0.49259">
        <ele>1934.2</ele>
        <time>2021-08-09 15:35:56</time>
      </trkpt>
      <trkpt lat="42.84243" lon="-0.4926">
        <ele>1934.4</ele>
        <time>2021-08-09 15:35:57</time>
      </trkpt>
      <trkpt lat="42.84243" lon="-0.49262">
        <ele>1934.4</ele>
        <time>2021-08-09 15:35:58</time>
      </trkpt>
      <trkpt lat="42.84242" lon="-0.49262">
        <ele>1934.4</ele>
        <time>2021-08-09 15:35:59</time>
      </trkpt>
      <trkpt lat="42.84242" lon="-0.49263">
        <ele>1934.4</ele>
        <time>2021-08-09 15:36:00</time>
      </trkpt>
      <trkpt lat="42.84241" lon="-0.49264">
        <ele>1934.4</ele>
        <time>2021-08-09 15:36:01</time>
      </trkpt>
      <trkpt lat="42.84241" lon="-0.49264">
        <ele>1934.6</ele>
        <time>2021-08-09 15:36:02</time>
      </trkpt>
      <trkpt lat="42.8424" lon="-0.49264">
        <ele>1934.6</ele>
        <time>2021-08-09 15:36:03</time>
      </trkpt>
      <trkpt lat="42.8424" lon="-0.49265">
        <ele>1934.6</ele>
        <time>2021-08-09 15:36:04</time>
      </trkpt>
      <trkpt lat="42.84239" lon="-0.49266">
        <ele>1934.6</ele>
        <time>2021-08-09 15:36:05</time>
      </trkpt>
      <trkpt lat="42.84239" lon="-0.49266">
        <ele>1934.8</ele>
        <time>2021-08-09 15:36:06</time>
      </trkpt>
      <trkpt lat="42.84238" lon="-0.49267">
        <ele>1934.8</ele>
        <time>2021-08-09 15:36:07</time>
      </trkpt>
      <trkpt lat="42.84238" lon="-0.49267">
        <ele>1934.8</ele>
        <time>2021-08-09 15:36:08</time>
      </trkpt>
      <trkpt lat="42.84237" lon="-0.49267">
        <ele>1935</ele>
        <time>2021-08-09 15:36:09</time>
      </trkpt>
      <trkpt lat="42.84236" lon="-0.49267">
        <ele>1935</ele>
        <time>2021-08-09 15:36:10</time>
      </trkpt>
      <trkpt lat="42.84236" lon="-0.49267">
        <ele>1935.2</ele>
        <time>2021-08-09 15:36:11</time>
      </trkpt>
      <trkpt lat="42.84236" lon="-0.49267">
        <ele>1935.4</ele>
        <time>2021-08-09 15:36:12</time>
      </trkpt>
      <trkpt lat="42.84235" lon="-0.49267">
        <ele>1935.4</ele>
        <time>2021-08-09 15:36:13</time>
      </trkpt>
      <trkpt lat="42.84234" lon="-0.49266">
        <ele>1935.4</ele>
        <time>2021-08-09 15:36:14</time>
      </trkpt>
      <trkpt lat="42.84234" lon="-0.49266">
        <ele>1935.6</ele>
        <time>2021-08-09 15:36:15</time>
      </trkpt>
      <trkpt lat="42.84233" lon="-0.49266">
        <ele>1935.6</ele>
        <time>2021-08-09 15:36:16</time>
      </trkpt>
      <trkpt lat="42.84233" lon="-0.49266">
        <ele>1936</ele>
        <time>2021-08-09 15:36:17</time>
      </trkpt>
      <trkpt lat="42.84232" lon="-0.49267">
        <ele>1936.2</ele>
        <time>2021-08-09 15:36:18</time>
      </trkpt>
      <trkpt lat="42.84232" lon="-0.49267">
        <ele>1936.4</ele>
        <time>2021-08-09 15:36:19</time>
      </trkpt>
      <trkpt lat="42.84231" lon="-0.49268">
        <ele>1936.4</ele>
        <time>2021-08-09 15:36:20</time>
      </trkpt>
      <trkpt lat="42.84231" lon="-0.49268">
        <ele>1936.4</ele>
        <time>2021-08-09 15:36:21</time>
      </trkpt>
      <trkpt lat="42.8423" lon="-0.49269">
        <ele>1936.6</ele>
        <time>2021-08-09 15:36:22</time>
      </trkpt>
      <trkpt lat="42.84229" lon="-0.49269">
        <ele>1937.2</ele>
        <time>2021-08-09 15:36:23</time>
      </trkpt>
      <trkpt lat="42.84228" lon="-0.49269">
        <ele>1937.4</ele>
        <time>2021-08-09 15:36:24</time>
      </trkpt>
      <trkpt lat="42.84228" lon="-0.49269">
        <ele>1937.6</ele>
        <time>2021-08-09 15:36:25</time>
      </trkpt>
      <trkpt lat="42.84228" lon="-0.4927">
        <ele>1938</ele>
        <time>2021-08-09 15:36:26</time>
      </trkpt>
      <trkpt lat="42.84227" lon="-0.4927">
        <ele>1937.8</ele>
        <time>2021-08-09 15:36:27</time>
      </trkpt>
      <trkpt lat="42.84226" lon="-0.4927">
        <ele>1937.6</ele>
        <time>2021-08-09 15:36:28</time>
      </trkpt>
      <trkpt lat="42.84226" lon="-0.49271">
        <ele>1937.6</ele>
        <time>2021-08-09 15:36:29</time>
      </trkpt>
      <trkpt lat="42.84226" lon="-0.49272">
        <ele>1937.6</ele>
        <time>2021-08-09 15:36:30</time>
      </trkpt>
      <trkpt lat="42.84225" lon="-0.49273">
        <ele>1937.6</ele>
        <time>2021-08-09 15:36:31</time>
      </trkpt>
      <trkpt lat="42.84225" lon="-0.49275">
        <ele>1937.8</ele>
        <time>2021-08-09 15:36:32</time>
      </trkpt>
      <trkpt lat="42.84225" lon="-0.49275">
        <ele>1938.6</ele>
        <time>2021-08-09 15:36:33</time>
      </trkpt>
      <trkpt lat="42.84224" lon="-0.49277">
        <ele>1939.2</ele>
        <time>2021-08-09 15:36:34</time>
      </trkpt>
      <trkpt lat="42.84224" lon="-0.49278">
        <ele>1939.4</ele>
        <time>2021-08-09 15:36:35</time>
      </trkpt>
      <trkpt lat="42.84224" lon="-0.49279">
        <ele>1939</ele>
        <time>2021-08-09 15:36:36</time>
      </trkpt>
      <trkpt lat="42.84223" lon="-0.49279">
        <ele>1938.8</ele>
        <time>2021-08-09 15:36:37</time>
      </trkpt>
      <trkpt lat="42.84223" lon="-0.4928">
        <ele>1939</ele>
        <time>2021-08-09 15:36:38</time>
      </trkpt>
      <trkpt lat="42.84223" lon="-0.49281">
        <ele>1939</ele>
        <time>2021-08-09 15:36:39</time>
      </trkpt>
      <trkpt lat="42.84223" lon="-0.49282">
        <ele>1939</ele>
        <time>2021-08-09 15:36:40</time>
      </trkpt>
      <trkpt lat="42.84222" lon="-0.49283">
        <ele>1939.2</ele>
        <time>2021-08-09 15:36:41</time>
      </trkpt>
      <trkpt lat="42.84221" lon="-0.49284">
        <ele>1938.8</ele>
        <time>2021-08-09 15:36:42</time>
      </trkpt>
      <trkpt lat="42.84221" lon="-0.49285">
        <ele>1939.2</ele>
        <time>2021-08-09 15:36:43</time>
      </trkpt>
      <trkpt lat="42.8422" lon="-0.49287">
        <ele>1939.4</ele>
        <time>2021-08-09 15:36:44</time>
      </trkpt>
      <trkpt lat="42.84219" lon="-0.49287">
        <ele>1939.4</ele>
        <time>2021-08-09 15:36:45</time>
      </trkpt>
      <trkpt lat="42.84219" lon="-0.49286">
        <ele>1939.2</ele>
        <time>2021-08-09 15:36:46</time>
      </trkpt>
      <trkpt lat="42.84218" lon="-0.49285">
        <ele>1938.8</ele>
        <time>2021-08-09 15:36:47</time>
      </trkpt>
      <trkpt lat="42.84218" lon="-0.49284">
        <ele>1939.2</ele>
        <time>2021-08-09 15:36:48</time>
      </trkpt>
      <trkpt lat="42.84217" lon="-0.49283">
        <ele>1939</ele>
        <time>2021-08-09 15:36:49</time>
      </trkpt>
      <trkpt lat="42.84217" lon="-0.49283">
        <ele>1939.6</ele>
        <time>2021-08-09 15:36:50</time>
      </trkpt>
      <trkpt lat="42.84216" lon="-0.49284">
        <ele>1940</ele>
        <time>2021-08-09 15:36:51</time>
      </trkpt>
      <trkpt lat="42.84215" lon="-0.49285">
        <ele>1940.6</ele>
        <time>2021-08-09 15:36:52</time>
      </trkpt>
      <trkpt lat="42.84214" lon="-0.49286">
        <ele>1940.8</ele>
        <time>2021-08-09 15:36:53</time>
      </trkpt>
      <trkpt lat="42.84213" lon="-0.49287">
        <ele>1940.8</ele>
        <time>2021-08-09 15:36:54</time>
      </trkpt>
      <trkpt lat="42.84213" lon="-0.49287">
        <ele>1941</ele>
        <time>2021-08-09 15:36:55</time>
      </trkpt>
      <trkpt lat="42.84212" lon="-0.49288">
        <ele>1941.2</ele>
        <time>2021-08-09 15:36:56</time>
      </trkpt>
      <trkpt lat="42.84211" lon="-0.49288">
        <ele>1941.4</ele>
        <time>2021-08-09 15:36:57</time>
      </trkpt>
      <trkpt lat="42.84211" lon="-0.49287">
        <ele>1941.4</ele>
        <time>2021-08-09 15:36:58</time>
      </trkpt>
      <trkpt lat="42.8421" lon="-0.49287">
        <ele>1941.8</ele>
        <time>2021-08-09 15:36:59</time>
      </trkpt>
      <trkpt lat="42.84209" lon="-0.49287">
        <ele>1942</ele>
        <time>2021-08-09 15:37:00</time>
      </trkpt>
      <trkpt lat="42.84208" lon="-0.49287">
        <ele>1942.4</ele>
        <time>2021-08-09 15:37:01</time>
      </trkpt>
      <trkpt lat="42.84207" lon="-0.49286">
        <ele>1942.8</ele>
        <time>2021-08-09 15:37:02</time>
      </trkpt>
      <trkpt lat="42.84206" lon="-0.49286">
        <ele>1942.8</ele>
        <time>2021-08-09 15:37:03</time>
      </trkpt>
      <trkpt lat="42.84205" lon="-0.49286">
        <ele>1942.8</ele>
        <time>2021-08-09 15:37:04</time>
      </trkpt>
      <trkpt lat="42.84204" lon="-0.49286">
        <ele>1943.2</ele>
        <time>2021-08-09 15:37:05</time>
      </trkpt>
      <trkpt lat="42.84203" lon="-0.49286">
        <ele>1943.2</ele>
        <time>2021-08-09 15:37:06</time>
      </trkpt>
      <trkpt lat="42.84203" lon="-0.49285">
        <ele>1943</ele>
        <time>2021-08-09 15:37:07</time>
      </trkpt>
      <trkpt lat="42.84202" lon="-0.49286">
        <ele>1943.2</ele>
        <time>2021-08-09 15:37:08</time>
      </trkpt>
      <trkpt lat="42.84201" lon="-0.49286">
        <ele>1943.6</ele>
        <time>2021-08-09 15:37:09</time>
      </trkpt>
      <trkpt lat="42.84201" lon="-0.49285">
        <ele>1944</ele>
        <time>2021-08-09 15:37:10</time>
      </trkpt>
      <trkpt lat="42.842" lon="-0.49287">
        <ele>1944</ele>
        <time>2021-08-09 15:37:11</time>
      </trkpt>
      <trkpt lat="42.84199" lon="-0.49287">
        <ele>1944</ele>
        <time>2021-08-09 15:37:12</time>
      </trkpt>
      <trkpt lat="42.84198" lon="-0.49288">
        <ele>1944.2</ele>
        <time>2021-08-09 15:37:13</time>
      </trkpt>
      <trkpt lat="42.84198" lon="-0.49288">
        <ele>1944.2</ele>
        <time>2021-08-09 15:37:14</time>
      </trkpt>
      <trkpt lat="42.84197" lon="-0.49287">
        <ele>1944.2</ele>
        <time>2021-08-09 15:37:15</time>
      </trkpt>
      <trkpt lat="42.84196" lon="-0.49287">
        <ele>1943.8</ele>
        <time>2021-08-09 15:37:16</time>
      </trkpt>
      <trkpt lat="42.84195" lon="-0.49287">
        <ele>1943.4</ele>
        <time>2021-08-09 15:37:17</time>
      </trkpt>
      <trkpt lat="42.84194" lon="-0.49287">
        <ele>1943</ele>
        <time>2021-08-09 15:37:18</time>
      </trkpt>
      <trkpt lat="42.84194" lon="-0.49286">
        <ele>1943.4</ele>
        <time>2021-08-09 15:37:19</time>
      </trkpt>
      <trkpt lat="42.84192" lon="-0.49286">
        <ele>1943.8</ele>
        <time>2021-08-09 15:37:20</time>
      </trkpt>
      <trkpt lat="42.84191" lon="-0.49286">
        <ele>1944.2</ele>
        <time>2021-08-09 15:37:21</time>
      </trkpt>
      <trkpt lat="42.8419" lon="-0.49286">
        <ele>1944.2</ele>
        <time>2021-08-09 15:37:22</time>
      </trkpt>
      <trkpt lat="42.84189" lon="-0.49287">
        <ele>1944.8</ele>
        <time>2021-08-09 15:37:23</time>
      </trkpt>
      <trkpt lat="42.84189" lon="-0.49288">
        <ele>1944.8</ele>
        <time>2021-08-09 15:37:24</time>
      </trkpt>
      <trkpt lat="42.84188" lon="-0.49288">
        <ele>1945</ele>
        <time>2021-08-09 15:37:25</time>
      </trkpt>
      <trkpt lat="42.84187" lon="-0.49288">
        <ele>1945</ele>
        <time>2021-08-09 15:37:26</time>
      </trkpt>
      <trkpt lat="42.84186" lon="-0.49289">
        <ele>1945</ele>
        <time>2021-08-09 15:37:27</time>
      </trkpt>
      <trkpt lat="42.84186" lon="-0.4929">
        <ele>1945</ele>
        <time>2021-08-09 15:37:28</time>
      </trkpt>
      <trkpt lat="42.84185" lon="-0.49291">
        <ele>1945.4</ele>
        <time>2021-08-09 15:37:29</time>
      </trkpt>
      <trkpt lat="42.84184" lon="-0.49292">
        <ele>1946</ele>
        <time>2021-08-09 15:37:30</time>
      </trkpt>
      <trkpt lat="42.84184" lon="-0.49292">
        <ele>1946</ele>
        <time>2021-08-09 15:37:31</time>
      </trkpt>
      <trkpt lat="42.84183" lon="-0.49292">
        <ele>1946.2</ele>
        <time>2021-08-09 15:37:32</time>
      </trkpt>
      <trkpt lat="42.84183" lon="-0.49292">
        <ele>1946.2</ele>
        <time>2021-08-09 15:37:33</time>
      </trkpt>
      <trkpt lat="42.84182" lon="-0.49293">
        <ele>1946.2</ele>
        <time>2021-08-09 15:37:34</time>
      </trkpt>
      <trkpt lat="42.84182" lon="-0.49293">
        <ele>1946.2</ele>
        <time>2021-08-09 15:37:35</time>
      </trkpt>
      <trkpt lat="42.84182" lon="-0.49293">
        <ele>1946.6</ele>
        <time>2021-08-09 15:37:36</time>
      </trkpt>
      <trkpt lat="42.84181" lon="-0.49294">
        <ele>1947</ele>
        <time>2021-08-09 15:37:37</time>
      </trkpt>
      <trkpt lat="42.8418" lon="-0.49294">
        <ele>1947</ele>
        <time>2021-08-09 15:37:38</time>
      </trkpt>
      <trkpt lat="42.8418" lon="-0.49294">
        <ele>1947.2</ele>
        <time>2021-08-09 15:37:39</time>
      </trkpt>
      <trkpt lat="42.84179" lon="-0.49294">
        <ele>1947</ele>
        <time>2021-08-09 15:37:40</time>
      </trkpt>
      <trkpt lat="42.84178" lon="-0.49293">
        <ele>1947.2</ele>
        <time>2021-08-09 15:37:41</time>
      </trkpt>
      <trkpt lat="42.84178" lon="-0.49293">
        <ele>1947.4</ele>
        <time>2021-08-09 15:37:42</time>
      </trkpt>
      <trkpt lat="42.84177" lon="-0.49293">
        <ele>1947.6</ele>
        <time>2021-08-09 15:37:43</time>
      </trkpt>
      <trkpt lat="42.84176" lon="-0.49292">
        <ele>1947.6</ele>
        <time>2021-08-09 15:37:44</time>
      </trkpt>
      <trkpt lat="42.84176" lon="-0.49292">
        <ele>1947.8</ele>
        <time>2021-08-09 15:37:45</time>
      </trkpt>
      <trkpt lat="42.84175" lon="-0.49292">
        <ele>1948</ele>
        <time>2021-08-09 15:37:46</time>
      </trkpt>
      <trkpt lat="42.84175" lon="-0.49293">
        <ele>1949</ele>
        <time>2021-08-09 15:37:47</time>
      </trkpt>
      <trkpt lat="42.84174" lon="-0.49294">
        <ele>1949.2</ele>
        <time>2021-08-09 15:37:48</time>
      </trkpt>
      <trkpt lat="42.84174" lon="-0.49294">
        <ele>1949</ele>
        <time>2021-08-09 15:37:49</time>
      </trkpt>
      <trkpt lat="42.84173" lon="-0.49294">
        <ele>1948.6</ele>
        <time>2021-08-09 15:37:50</time>
      </trkpt>
      <trkpt lat="42.84172" lon="-0.49294">
        <ele>1948.2</ele>
        <time>2021-08-09 15:37:51</time>
      </trkpt>
      <trkpt lat="42.8417" lon="-0.49294">
        <ele>1948.2</ele>
        <time>2021-08-09 15:37:52</time>
      </trkpt>
      <trkpt lat="42.8417" lon="-0.49295">
        <ele>1948.8</ele>
        <time>2021-08-09 15:37:53</time>
      </trkpt>
      <trkpt lat="42.84169" lon="-0.49296">
        <ele>1949.2</ele>
        <time>2021-08-09 15:37:54</time>
      </trkpt>
      <trkpt lat="42.84169" lon="-0.49297">
        <ele>1949.2</ele>
        <time>2021-08-09 15:37:55</time>
      </trkpt>
      <trkpt lat="42.84168" lon="-0.49298">
        <ele>1948.6</ele>
        <time>2021-08-09 15:37:56</time>
      </trkpt>
      <trkpt lat="42.84167" lon="-0.49297">
        <ele>1948.4</ele>
        <time>2021-08-09 15:37:57</time>
      </trkpt>
      <trkpt lat="42.84166" lon="-0.49298">
        <ele>1948.4</ele>
        <time>2021-08-09 15:37:58</time>
      </trkpt>
      <trkpt lat="42.84165" lon="-0.49298">
        <ele>1949.2</ele>
        <time>2021-08-09 15:37:59</time>
      </trkpt>
      <trkpt lat="42.84164" lon="-0.49298">
        <ele>1949.2</ele>
        <time>2021-08-09 15:38:00</time>
      </trkpt>
      <trkpt lat="42.84163" lon="-0.49298">
        <ele>1949.4</ele>
        <time>2021-08-09 15:38:01</time>
      </trkpt>
      <trkpt lat="42.84162" lon="-0.49298">
        <ele>1949.2</ele>
        <time>2021-08-09 15:38:02</time>
      </trkpt>
      <trkpt lat="42.84161" lon="-0.49298">
        <ele>1948.8</ele>
        <time>2021-08-09 15:38:03</time>
      </trkpt>
      <trkpt lat="42.8416" lon="-0.49298">
        <ele>1948.4</ele>
        <time>2021-08-09 15:38:04</time>
      </trkpt>
      <trkpt lat="42.84159" lon="-0.49298">
        <ele>1948.8</ele>
        <time>2021-08-09 15:38:05</time>
      </trkpt>
      <trkpt lat="42.84158" lon="-0.49298">
        <ele>1948.8</ele>
        <time>2021-08-09 15:38:06</time>
      </trkpt>
      <trkpt lat="42.84157" lon="-0.49298">
        <ele>1948.8</ele>
        <time>2021-08-09 15:38:07</time>
      </trkpt>
      <trkpt lat="42.84155" lon="-0.49299">
        <ele>1948.2</ele>
        <time>2021-08-09 15:38:08</time>
      </trkpt>
      <trkpt lat="42.84154" lon="-0.49299">
        <ele>1948.2</ele>
        <time>2021-08-09 15:38:09</time>
      </trkpt>
      <trkpt lat="42.84153" lon="-0.49299">
        <ele>1948.2</ele>
        <time>2021-08-09 15:38:10</time>
      </trkpt>
      <trkpt lat="42.84152" lon="-0.49299">
        <ele>1948.4</ele>
        <time>2021-08-09 15:38:11</time>
      </trkpt>
      <trkpt lat="42.84151" lon="-0.49299">
        <ele>1948.8</ele>
        <time>2021-08-09 15:38:12</time>
      </trkpt>
      <trkpt lat="42.8415" lon="-0.493">
        <ele>1949</ele>
        <time>2021-08-09 15:38:13</time>
      </trkpt>
      <trkpt lat="42.84149" lon="-0.493">
        <ele>1949.2</ele>
        <time>2021-08-09 15:38:14</time>
      </trkpt>
      <trkpt lat="42.84148" lon="-0.493">
        <ele>1949.6</ele>
        <time>2021-08-09 15:38:15</time>
      </trkpt>
      <trkpt lat="42.84148" lon="-0.493">
        <ele>1949.6</ele>
        <time>2021-08-09 15:38:16</time>
      </trkpt>
      <trkpt lat="42.84146" lon="-0.49301">
        <ele>1949.8</ele>
        <time>2021-08-09 15:38:17</time>
      </trkpt>
      <trkpt lat="42.84145" lon="-0.49302">
        <ele>1949.8</ele>
        <time>2021-08-09 15:38:18</time>
      </trkpt>
      <trkpt lat="42.84145" lon="-0.49302">
        <ele>1950</ele>
        <time>2021-08-09 15:38:19</time>
      </trkpt>
      <trkpt lat="42.84144" lon="-0.49303">
        <ele>1949.8</ele>
        <time>2021-08-09 15:38:20</time>
      </trkpt>
      <trkpt lat="42.84142" lon="-0.49303">
        <ele>1949.8</ele>
        <time>2021-08-09 15:38:21</time>
      </trkpt>
      <trkpt lat="42.84141" lon="-0.49304">
        <ele>1949.6</ele>
        <time>2021-08-09 15:38:22</time>
      </trkpt>
      <trkpt lat="42.8414" lon="-0.49304">
        <ele>1949.2</ele>
        <time>2021-08-09 15:38:23</time>
      </trkpt>
      <trkpt lat="42.84139" lon="-0.49304">
        <ele>1949.8</ele>
        <time>2021-08-09 15:38:24</time>
      </trkpt>
      <trkpt lat="42.84138" lon="-0.49305">
        <ele>1950.4</ele>
        <time>2021-08-09 15:38:25</time>
      </trkpt>
      <trkpt lat="42.84138" lon="-0.49306">
        <ele>1951.2</ele>
        <time>2021-08-09 15:38:26</time>
      </trkpt>
      <trkpt lat="42.84137" lon="-0.49306">
        <ele>1951.2</ele>
        <time>2021-08-09 15:38:27</time>
      </trkpt>
      <trkpt lat="42.84136" lon="-0.49306">
        <ele>1950.6</ele>
        <time>2021-08-09 15:38:28</time>
      </trkpt>
      <trkpt lat="42.84135" lon="-0.49306">
        <ele>1951.2</ele>
        <time>2021-08-09 15:38:29</time>
      </trkpt>
      <trkpt lat="42.84135" lon="-0.49306">
        <ele>1950.2</ele>
        <time>2021-08-09 15:38:30</time>
      </trkpt>
      <trkpt lat="42.84134" lon="-0.49306">
        <ele>1949.4</ele>
        <time>2021-08-09 15:38:31</time>
      </trkpt>
      <trkpt lat="42.84133" lon="-0.49305">
        <ele>1947</ele>
        <time>2021-08-09 15:38:32</time>
      </trkpt>
      <trkpt lat="42.84133" lon="-0.49305">
        <ele>1947.6</ele>
        <time>2021-08-09 15:38:33</time>
      </trkpt>
      <trkpt lat="42.84134" lon="-0.49305">
        <ele>1949</ele>
        <time>2021-08-09 15:38:34</time>
      </trkpt>
      <trkpt lat="42.84134" lon="-0.49305">
        <ele>1949.8</ele>
        <time>2021-08-09 15:38:35</time>
      </trkpt>
      <trkpt lat="42.84134" lon="-0.49305">
        <ele>1948.8</ele>
        <time>2021-08-09 15:38:36</time>
      </trkpt>
      <trkpt lat="42.84134" lon="-0.49305">
        <ele>1948.2</ele>
        <time>2021-08-09 15:38:37</time>
      </trkpt>
      <trkpt lat="42.84134" lon="-0.49305">
        <ele>1948</ele>
        <time>2021-08-09 15:38:38</time>
      </trkpt>
      <trkpt lat="42.84136" lon="-0.49304">
        <ele>1948.4</ele>
        <time>2021-08-09 15:38:39</time>
      </trkpt>
      <trkpt lat="42.84136" lon="-0.49304">
        <ele>1948.6</ele>
        <time>2021-08-09 15:38:40</time>
      </trkpt>
      <trkpt lat="42.84136" lon="-0.49304">
        <ele>1949</ele>
        <time>2021-08-09 15:38:41</time>
      </trkpt>
      <trkpt lat="42.84135" lon="-0.49304">
        <ele>1949</ele>
        <time>2021-08-09 15:38:42</time>
      </trkpt>
      <trkpt lat="42.84135" lon="-0.49304">
        <ele>1948</ele>
        <time>2021-08-09 15:38:43</time>
      </trkpt>
      <trkpt lat="42.84134" lon="-0.49304">
        <ele>1948.6</ele>
        <time>2021-08-09 15:38:44</time>
      </trkpt>
      <trkpt lat="42.84133" lon="-0.49304">
        <ele>1949.2</ele>
        <time>2021-08-09 15:38:45</time>
      </trkpt>
      <trkpt lat="42.84132" lon="-0.49304">
        <ele>1949.2</ele>
        <time>2021-08-09 15:38:46</time>
      </trkpt>
      <trkpt lat="42.84132" lon="-0.49304">
        <ele>1948.6</ele>
        <time>2021-08-09 15:38:47</time>
      </trkpt>
      <trkpt lat="42.84131" lon="-0.49305">
        <ele>1948.6</ele>
        <time>2021-08-09 15:38:48</time>
      </trkpt>
      <trkpt lat="42.84131" lon="-0.49304">
        <ele>1948.6</ele>
        <time>2021-08-09 15:38:49</time>
      </trkpt>
      <trkpt lat="42.8413" lon="-0.49304">
        <ele>1948.2</ele>
        <time>2021-08-09 15:38:50</time>
      </trkpt>
      <trkpt lat="42.84129" lon="-0.49305">
        <ele>1947</ele>
        <time>2021-08-09 15:38:51</time>
      </trkpt>
      <trkpt lat="42.84129" lon="-0.49305">
        <ele>1947.2</ele>
        <time>2021-08-09 15:38:52</time>
      </trkpt>
      <trkpt lat="42.84128" lon="-0.49305">
        <ele>1947.2</ele>
        <time>2021-08-09 15:38:53</time>
      </trkpt>
      <trkpt lat="42.84127" lon="-0.49305">
        <ele>1947.2</ele>
        <time>2021-08-09 15:38:54</time>
      </trkpt>
      <trkpt lat="42.84126" lon="-0.49306">
        <ele>1947.8</ele>
        <time>2021-08-09 15:38:55</time>
      </trkpt>
      <trkpt lat="42.84126" lon="-0.49306">
        <ele>1947.4</ele>
        <time>2021-08-09 15:38:56</time>
      </trkpt>
      <trkpt lat="42.84126" lon="-0.49306">
        <ele>1947</ele>
        <time>2021-08-09 15:38:57</time>
      </trkpt>
      <trkpt lat="42.84125" lon="-0.49306">
        <ele>1946.6</ele>
        <time>2021-08-09 15:38:58</time>
      </trkpt>
      <trkpt lat="42.84125" lon="-0.49306">
        <ele>1946.8</ele>
        <time>2021-08-09 15:38:59</time>
      </trkpt>
      <trkpt lat="42.84125" lon="-0.49306">
        <ele>1946.4</ele>
        <time>2021-08-09 15:39:00</time>
      </trkpt>
      <trkpt lat="42.84124" lon="-0.49306">
        <ele>1946.2</ele>
        <time>2021-08-09 15:39:01</time>
      </trkpt>
      <trkpt lat="42.84124" lon="-0.49306">
        <ele>1945.6</ele>
        <time>2021-08-09 15:39:02</time>
      </trkpt>
      <trkpt lat="42.84124" lon="-0.49306">
        <ele>1945.6</ele>
        <time>2021-08-09 15:39:03</time>
      </trkpt>
      <trkpt lat="42.84124" lon="-0.49306">
        <ele>1945.2</ele>
        <time>2021-08-09 15:39:04</time>
      </trkpt>
      <trkpt lat="42.84124" lon="-0.49306">
        <ele>1945.4</ele>
        <time>2021-08-09 15:39:05</time>
      </trkpt>
      <trkpt lat="42.84124" lon="-0.49305">
        <ele>1945.4</ele>
        <time>2021-08-09 15:39:06</time>
      </trkpt>
      <trkpt lat="42.84124" lon="-0.49305">
        <ele>1945</ele>
        <time>2021-08-09 15:39:07</time>
      </trkpt>
      <trkpt lat="42.84123" lon="-0.49305">
        <ele>1945.2</ele>
        <time>2021-08-09 15:39:08</time>
      </trkpt>
      <trkpt lat="42.84123" lon="-0.49305">
        <ele>1945.2</ele>
        <time>2021-08-09 15:39:09</time>
      </trkpt>
      <trkpt lat="42.84122" lon="-0.49306">
        <ele>1945.2</ele>
        <time>2021-08-09 15:39:10</time>
      </trkpt>
      <trkpt lat="42.84121" lon="-0.49306">
        <ele>1945.2</ele>
        <time>2021-08-09 15:39:11</time>
      </trkpt>
      <trkpt lat="42.84121" lon="-0.49305">
        <ele>1945.2</ele>
        <time>2021-08-09 15:39:12</time>
      </trkpt>
      <trkpt lat="42.84121" lon="-0.49306">
        <ele>1945.4</ele>
        <time>2021-08-09 15:39:13</time>
      </trkpt>
      <trkpt lat="42.8412" lon="-0.49306">
        <ele>1945.8</ele>
        <time>2021-08-09 15:39:14</time>
      </trkpt>
      <trkpt lat="42.8412" lon="-0.49306">
        <ele>1945.8</ele>
        <time>2021-08-09 15:39:15</time>
      </trkpt>
      <trkpt lat="42.84121" lon="-0.49305">
        <ele>1945.8</ele>
        <time>2021-08-09 15:39:16</time>
      </trkpt>
      <trkpt lat="42.84121" lon="-0.49305">
        <ele>1945.8</ele>
        <time>2021-08-09 15:39:17</time>
      </trkpt>
      <trkpt lat="42.84121" lon="-0.49305">
        <ele>1945.6</ele>
        <time>2021-08-09 15:39:18</time>
      </trkpt>
      <trkpt lat="42.84121" lon="-0.49304">
        <ele>1945.6</ele>
        <time>2021-08-09 15:39:19</time>
      </trkpt>
      <trkpt lat="42.84121" lon="-0.49304">
        <ele>1945.6</ele>
        <time>2021-08-09 15:39:20</time>
      </trkpt>
      <trkpt lat="42.84121" lon="-0.49304">
        <ele>1945.6</ele>
        <time>2021-08-09 15:39:21</time>
      </trkpt>
      <trkpt lat="42.84122" lon="-0.49304">
        <ele>1945.6</ele>
        <time>2021-08-09 15:39:22</time>
      </trkpt>
      <trkpt lat="42.84121" lon="-0.49304">
        <ele>1946.2</ele>
        <time>2021-08-09 15:39:23</time>
      </trkpt>
      <trkpt lat="42.8412" lon="-0.49305">
        <ele>1946.2</ele>
        <time>2021-08-09 15:39:24</time>
      </trkpt>
      <trkpt lat="42.84119" lon="-0.49305">
        <ele>1946.2</ele>
        <time>2021-08-09 15:39:25</time>
      </trkpt>
      <trkpt lat="42.84119" lon="-0.49304">
        <ele>1946.4</ele>
        <time>2021-08-09 15:39:26</time>
      </trkpt>
      <trkpt lat="42.84118" lon="-0.49304">
        <ele>1946.6</ele>
        <time>2021-08-09 15:39:27</time>
      </trkpt>
      <trkpt lat="42.84117" lon="-0.49303">
        <ele>1947</ele>
        <time>2021-08-09 15:39:28</time>
      </trkpt>
      <trkpt lat="42.84117" lon="-0.49303">
        <ele>1947.2</ele>
        <time>2021-08-09 15:39:29</time>
      </trkpt>
      <trkpt lat="42.84116" lon="-0.49302">
        <ele>1947</ele>
        <time>2021-08-09 15:39:30</time>
      </trkpt>
      <trkpt lat="42.84116" lon="-0.49301">
        <ele>1947</ele>
        <time>2021-08-09 15:39:31</time>
      </trkpt>
      <trkpt lat="42.84116" lon="-0.493">
        <ele>1946.8</ele>
        <time>2021-08-09 15:39:32</time>
      </trkpt>
      <trkpt lat="42.84115" lon="-0.49299">
        <ele>1946.8</ele>
        <time>2021-08-09 15:39:33</time>
      </trkpt>
      <trkpt lat="42.84115" lon="-0.49298">
        <ele>1946.6</ele>
        <time>2021-08-09 15:39:34</time>
      </trkpt>
      <trkpt lat="42.84115" lon="-0.49298">
        <ele>1947</ele>
        <time>2021-08-09 15:39:35</time>
      </trkpt>
      <trkpt lat="42.84115" lon="-0.49297">
        <ele>1946.8</ele>
        <time>2021-08-09 15:39:36</time>
      </trkpt>
      <trkpt lat="42.84114" lon="-0.49296">
        <ele>1947.4</ele>
        <time>2021-08-09 15:39:37</time>
      </trkpt>
      <trkpt lat="42.84114" lon="-0.49296">
        <ele>1948.2</ele>
        <time>2021-08-09 15:39:38</time>
      </trkpt>
      <trkpt lat="42.84116" lon="-0.49296">
        <ele>1948</ele>
        <time>2021-08-09 15:39:39</time>
      </trkpt>
      <trkpt lat="42.84117" lon="-0.49296">
        <ele>1948</ele>
        <time>2021-08-09 15:39:40</time>
      </trkpt>
      <trkpt lat="42.84117" lon="-0.49297">
        <ele>1947.6</ele>
        <time>2021-08-09 15:39:41</time>
      </trkpt>
      <trkpt lat="42.84117" lon="-0.49297">
        <ele>1947.4</ele>
        <time>2021-08-09 15:39:42</time>
      </trkpt>
      <trkpt lat="42.84117" lon="-0.49297">
        <ele>1947.4</ele>
        <time>2021-08-09 15:39:43</time>
      </trkpt>
      <trkpt lat="42.84118" lon="-0.49298">
        <ele>1946.8</ele>
        <time>2021-08-09 15:39:44</time>
      </trkpt>
      <trkpt lat="42.84119" lon="-0.49298">
        <ele>1947.4</ele>
        <time>2021-08-09 15:39:45</time>
      </trkpt>
      <trkpt lat="42.84119" lon="-0.49298">
        <ele>1947.6</ele>
        <time>2021-08-09 15:39:46</time>
      </trkpt>
      <trkpt lat="42.84119" lon="-0.49298">
        <ele>1948</ele>
        <time>2021-08-09 15:39:47</time>
      </trkpt>
      <trkpt lat="42.84119" lon="-0.49298">
        <ele>1947.8</ele>
        <time>2021-08-09 15:39:48</time>
      </trkpt>
      <trkpt lat="42.84122" lon="-0.49294">
        <ele>1948.2</ele>
        <time>2021-08-09 15:39:49</time>
      </trkpt>
      <trkpt lat="42.84122" lon="-0.49293">
        <ele>1948.4</ele>
        <time>2021-08-09 15:39:50</time>
      </trkpt>
      <trkpt lat="42.84122" lon="-0.49292">
        <ele>1948.4</ele>
        <time>2021-08-09 15:39:51</time>
      </trkpt>
      <trkpt lat="42.84123" lon="-0.49291">
        <ele>1947.6</ele>
        <time>2021-08-09 15:39:52</time>
      </trkpt>
      <trkpt lat="42.84122" lon="-0.49291">
        <ele>1947.6</ele>
        <time>2021-08-09 15:39:53</time>
      </trkpt>
      <trkpt lat="42.84122" lon="-0.49291">
        <ele>1947.8</ele>
        <time>2021-08-09 15:39:54</time>
      </trkpt>
      <trkpt lat="42.84122" lon="-0.49289">
        <ele>1947.6</ele>
        <time>2021-08-09 15:39:55</time>
      </trkpt>
      <trkpt lat="42.84122" lon="-0.49288">
        <ele>1947.4</ele>
        <time>2021-08-09 15:39:56</time>
      </trkpt>
      <trkpt lat="42.84122" lon="-0.49287">
        <ele>1947.4</ele>
        <time>2021-08-09 15:39:57</time>
      </trkpt>
      <trkpt lat="42.84122" lon="-0.49286">
        <ele>1947.4</ele>
        <time>2021-08-09 15:39:58</time>
      </trkpt>
      <trkpt lat="42.84122" lon="-0.49286">
        <ele>1947.2</ele>
        <time>2021-08-09 15:39:59</time>
      </trkpt>
      <trkpt lat="42.84122" lon="-0.49285">
        <ele>1947</ele>
      </trkpt>
      <trkpt lat="42.84122" lon="-0.49285">
        <ele>1946.8</ele>
        <time>2021-08-09 15:40:01</time>
      </trkpt>
      <trkpt lat="42.84121" lon="-0.49285">
        <ele>1946.6</ele>
        <time>2021-08-09 15:40:02</time>
      </trkpt>
      <trkpt lat="42.84119" lon="-0.49284">
        <ele>1946.4</ele>
        <time>2021-08-09 15:40:03</time>
      </trkpt>
      <trkpt lat="42.84116" lon="-0.49285">
        <ele>1946.2</ele>
        <time>2021-08-09 15:40:05</time>
      </trkpt>
      <trkpt lat="42.84115" lon="-0.49285">
        <ele>1946.2</ele>
        <time>2021-08-09 15:40:06</time>
      </trkpt>
      <trkpt lat="42.84114" lon="-0.49284">
        <ele>1946.2</ele>
        <time>2021-08-09 15:40:07</time>
      </trkpt>
      <trkpt lat="42.84114" lon="-0.49283">
        <ele>1946.6</ele>
        <time>2021-08-09 15:40:19</time>
      </trkpt>
      <trkpt lat="42.84114" lon="-0.49282">
        <ele>1946.6</ele>
        <time>2021-08-09 15:40:20</time>
      </trkpt>
      <trkpt lat="42.84113" lon="-0.49281">
        <ele>1947</ele>
        <time>2021-08-09 15:40:21</time>
      </trkpt>
      <trkpt lat="42.84113" lon="-0.4928">
        <ele>1947.2</ele>
        <time>2021-08-09 15:40:24</time>
      </trkpt>
      <trkpt lat="42.84112" lon="-0.49279">
        <ele>1947.6</ele>
        <time>2021-08-09 15:40:25</time>
      </trkpt>
      <trkpt lat="42.84112" lon="-0.49279">
        <ele>1947.4</ele>
        <time>2021-08-09 15:40:26</time>
      </trkpt>
      <trkpt lat="42.84111" lon="-0.49279">
        <ele>1947.8</ele>
      </trkpt>
      <trkpt lat="42.8411" lon="-0.49278">
        <ele>1947.8</ele>
        <time>2021-08-09 15:40:27</time>
      </trkpt>
      <trkpt lat="42.84109" lon="-0.49277">
        <ele>1948.2</ele>
        <time>2021-08-09 15:40:28</time>
      </trkpt>
      <trkpt lat="42.84108" lon="-0.49276">
        <ele>1948.2</ele>
        <time>2021-08-09 15:40:29</time>
      </trkpt>
      <trkpt lat="42.84107" lon="-0.49276">
        <ele>1948.2</ele>
        <time>2021-08-09 15:40:30</time>
      </trkpt>
      <trkpt lat="42.84106" lon="-0.49275">
        <ele>1948.2</ele>
        <time>2021-08-09 15:40:31</time>
      </trkpt>
      <trkpt lat="42.84105" lon="-0.49275">
        <ele>1948</ele>
        <time>2021-08-09 15:40:32</time>
      </trkpt>
      <trkpt lat="42.84103" lon="-0.49275">
        <ele>1947.8</ele>
        <time>2021-08-09 15:40:33</time>
      </trkpt>
      <trkpt lat="42.84103" lon="-0.49274">
        <ele>1947.8</ele>
        <time>2021-08-09 15:40:34</time>
      </trkpt>
      <trkpt lat="42.84102" lon="-0.49274">
        <ele>1947.8</ele>
        <time>2021-08-09 15:40:35</time>
      </trkpt>
      <trkpt lat="42.84101" lon="-0.49273">
        <ele>1947.8</ele>
        <time>2021-08-09 15:40:36</time>
      </trkpt>
      <trkpt lat="42.841" lon="-0.49271">
        <ele>1947.6</ele>
        <time>2021-08-09 15:40:38</time>
      </trkpt>
      <trkpt lat="42.84099" lon="-0.4927">
        <ele>1947.6</ele>
      </trkpt>
      <trkpt lat="42.84099" lon="-0.49269">
        <ele>1947.4</ele>
        <time>2021-08-09 15:40:39</time>
      </trkpt>
      <trkpt lat="42.84098" lon="-0.49268">
        <ele>1947.4</ele>
        <time>2021-08-09 15:40:40</time>
      </trkpt>
      <trkpt lat="42.84098" lon="-0.49268">
        <ele>1947.2</ele>
        <time>2021-08-09 15:40:41</time>
      </trkpt>
      <trkpt lat="42.84097" lon="-0.49267">
        <ele>1947</ele>
        <time>2021-08-09 15:40:42</time>
      </trkpt>
      <trkpt lat="42.84096" lon="-0.49265">
        <ele>1947</ele>
        <time>2021-08-09 15:40:43</time>
      </trkpt>
      <trkpt lat="42.84096" lon="-0.49264">
        <ele>1946.8</ele>
        <time>2021-08-09 15:40:44</time>
      </trkpt>
      <trkpt lat="42.84095" lon="-0.49263">
        <ele>1947</ele>
        <time>2021-08-09 15:40:45</time>
      </trkpt>
      <trkpt lat="42.84094" lon="-0.49262">
        <ele>1946.8</ele>
        <time>2021-08-09 15:40:46</time>
      </trkpt>
      <trkpt lat="42.84094" lon="-0.49262">
        <ele>1946.4</ele>
        <time>2021-08-09 15:40:47</time>
      </trkpt>
      <trkpt lat="42.84093" lon="-0.4926">
        <ele>1946.2</ele>
        <time>2021-08-09 15:40:48</time>
      </trkpt>
      <trkpt lat="42.84092" lon="-0.49259">
        <ele>1946</ele>
        <time>2021-08-09 15:40:49</time>
      </trkpt>
      <trkpt lat="42.84091" lon="-0.49259">
        <ele>1946</ele>
        <time>2021-08-09 15:40:50</time>
      </trkpt>
      <trkpt lat="42.8409" lon="-0.49257">
        <ele>1946.2</ele>
        <time>2021-08-09 15:40:54</time>
      </trkpt>
      <trkpt lat="42.84089" lon="-0.49256">
        <ele>1946.2</ele>
        <time>2021-08-09 15:40:55</time>
      </trkpt>
      <trkpt lat="42.84088" lon="-0.49255">
        <ele>1946.4</ele>
        <time>2021-08-09 15:40:56</time>
      </trkpt>
      <trkpt lat="42.84087" lon="-0.49254">
        <ele>1946.6</ele>
        <time>2021-08-09 15:40:57</time>
      </trkpt>
      <trkpt lat="42.84087" lon="-0.49253">
        <ele>1946.6</ele>
        <time>2021-08-09 15:40:58</time>
      </trkpt>
      <trkpt lat="42.84086" lon="-0.49253">
        <ele>1946.8</ele>
        <time>2021-08-09 15:40:59</time>
      </trkpt>
      <trkpt lat="42.84085" lon="-0.49251">
        <ele>1946.6</ele>
        <time>2021-08-09 15:41:01</time>
      </trkpt>
      <trkpt lat="42.84084" lon="-0.49251">
        <ele>1946.6</ele>
      </trkpt>
      <trkpt lat="42.84083" lon="-0.49251">
        <ele>1946.6</ele>
        <time>2021-08-09 15:41:02</time>
      </trkpt>
      <trkpt lat="42.84083" lon="-0.4925">
        <ele>1946.6</ele>
        <time>2021-08-09 15:41:03</time>
      </trkpt>
      <trkpt lat="42.84082" lon="-0.49249">
        <ele>1946.6</ele>
        <time>2021-08-09 15:41:04</time>
      </trkpt>
      <trkpt lat="42.84081" lon="-0.49249">
        <ele>1946.6</ele>
        <time>2021-08-09 15:41:05</time>
      </trkpt>
      <trkpt lat="42.8408" lon="-0.49248">
        <ele>1946.6</ele>
        <time>2021-08-09 15:41:07</time>
      </trkpt>
      <trkpt lat="42.84079" lon="-0.49248">
        <ele>1946.8</ele>
        <time>2021-08-09 15:41:08</time>
      </trkpt>
      <trkpt lat="42.84078" lon="-0.49248">
        <ele>1947</ele>
        <time>2021-08-09 15:41:09</time>
      </trkpt>
      <trkpt lat="42.84077" lon="-0.49247">
        <ele>1947</ele>
        <time>2021-08-09 15:41:10</time>
      </trkpt>
      <trkpt lat="42.84076" lon="-0.49248">
        <ele>1946.8</ele>
        <time>2021-08-09 15:41:14</time>
      </trkpt>
      <trkpt lat="42.84075" lon="-0.49247">
        <ele>1946.6</ele>
        <time>2021-08-09 15:41:15</time>
      </trkpt>
      <trkpt lat="42.84074" lon="-0.49247">
        <ele>1947</ele>
        <time>2021-08-09 15:41:16</time>
      </trkpt>
      <trkpt lat="42.84073" lon="-0.49247">
        <ele>1947.2</ele>
        <time>2021-08-09 15:41:17</time>
      </trkpt>
      <trkpt lat="42.84072" lon="-0.49247">
        <ele>1947.4</ele>
        <time>2021-08-09 15:41:18</time>
      </trkpt>
      <trkpt lat="42.84071" lon="-0.49246">
        <ele>1946.6</ele>
        <time>2021-08-09 15:41:19</time>
      </trkpt>
      <trkpt lat="42.84071" lon="-0.49246">
        <ele>1946.6</ele>
        <time>2021-08-09 15:41:20</time>
      </trkpt>
      <trkpt lat="42.8407" lon="-0.49245">
        <ele>1947.4</ele>
        <time>2021-08-09 15:41:21</time>
      </trkpt>
      <trkpt lat="42.8407" lon="-0.49244">
        <ele>1947</ele>
        <time>2021-08-09 15:41:22</time>
      </trkpt>
      <trkpt lat="42.84069" lon="-0.49244">
        <ele>1947</ele>
        <time>2021-08-09 15:41:23</time>
      </trkpt>
      <trkpt lat="42.84069" lon="-0.49244">
        <ele>1947.2</ele>
        <time>2021-08-09 15:41:24</time>
      </trkpt>
      <trkpt lat="42.84068" lon="-0.49243">
        <ele>1947</ele>
        <time>2021-08-09 15:41:25</time>
      </trkpt>
      <trkpt lat="42.84068" lon="-0.49241">
        <ele>1946.6</ele>
        <time>2021-08-09 15:41:26</time>
      </trkpt>
      <trkpt lat="42.84067" lon="-0.4924">
        <ele>1946.4</ele>
        <time>2021-08-09 15:41:27</time>
      </trkpt>
      <trkpt lat="42.84066" lon="-0.49238">
        <ele>1946.6</ele>
        <time>2021-08-09 15:41:28</time>
      </trkpt>
      <trkpt lat="42.84066" lon="-0.49237">
        <ele>1947</ele>
        <time>2021-08-09 15:41:29</time>
      </trkpt>
      <trkpt lat="42.84065" lon="-0.49237">
        <ele>1946.8</ele>
        <time>2021-08-09 15:41:30</time>
      </trkpt>
      <trkpt lat="42.84064" lon="-0.49236">
        <ele>1947</ele>
        <time>2021-08-09 15:41:31</time>
      </trkpt>
      <trkpt lat="42.84064" lon="-0.49235">
        <ele>1947</ele>
        <time>2021-08-09 15:41:32</time>
      </trkpt>
      <trkpt lat="42.84063" lon="-0.49234">
        <ele>1947.2</ele>
        <time>2021-08-09 15:41:33</time>
      </trkpt>
      <trkpt lat="42.84062" lon="-0.49233">
        <ele>1947.2</ele>
        <time>2021-08-09 15:41:34</time>
      </trkpt>
      <trkpt lat="42.84062" lon="-0.49233">
        <ele>1947.4</ele>
        <time>2021-08-09 15:41:40</time>
      </trkpt>
      <trkpt lat="42.84061" lon="-0.49231">
        <ele>1947.4</ele>
        <time>2021-08-09 15:41:41</time>
      </trkpt>
      <trkpt lat="42.8406" lon="-0.4923">
        <ele>1947.6</ele>
        <time>2021-08-09 15:41:42</time>
      </trkpt>
      <trkpt lat="42.8406" lon="-0.49228">
        <ele>1947.4</ele>
        <time>2021-08-09 15:41:43</time>
      </trkpt>
      <trkpt lat="42.8406" lon="-0.49227">
        <ele>1947.4</ele>
        <time>2021-08-09 15:41:44</time>
      </trkpt>
      <trkpt lat="42.84059" lon="-0.49227">
        <ele>1947.4</ele>
        <time>2021-08-09 15:41:47</time>
      </trkpt>
      <trkpt lat="42.84058" lon="-0.49226">
        <ele>1947.4</ele>
        <time>2021-08-09 15:41:48</time>
      </trkpt>
      <trkpt lat="42.84057" lon="-0.49226">
        <ele>1947.2</ele>
        <time>2021-08-09 15:41:49</time>
      </trkpt>
      <trkpt lat="42.84057" lon="-0.49225">
        <ele>1947.2</ele>
        <time>2021-08-09 15:41:51</time>
      </trkpt>
      <trkpt lat="42.84056" lon="-0.49223">
        <ele>1947.2</ele>
        <time>2021-08-09 15:41:52</time>
      </trkpt>
      <trkpt lat="42.84055" lon="-0.49223">
        <ele>1947.2</ele>
        <time>2021-08-09 15:41:53</time>
      </trkpt>
      <trkpt lat="42.84054" lon="-0.49222">
        <ele>1947.2</ele>
        <time>2021-08-09 15:41:54</time>
      </trkpt>
      <trkpt lat="42.84053" lon="-0.49221">
        <ele>1947.2</ele>
        <time>2021-08-09 15:41:55</time>
      </trkpt>
      <trkpt lat="42.84053" lon="-0.49219">
        <ele>1947</ele>
        <time>2021-08-09 15:41:56</time>
      </trkpt>
      <trkpt lat="42.84052" lon="-0.49219">
        <ele>1947</ele>
        <time>2021-08-09 15:41:57</time>
      </trkpt>
      <trkpt lat="42.84051" lon="-0.49218">
        <ele>1947</ele>
        <time>2021-08-09 15:41:58</time>
      </trkpt>
      <trkpt lat="42.8405" lon="-0.49217">
        <ele>1947</ele>
        <time>2021-08-09 15:41:59</time>
      </trkpt>
      <trkpt lat="42.84049" lon="-0.49217">
        <ele>1947</ele>
        <time>2021-08-09 15:42:00</time>
      </trkpt>
      <trkpt lat="42.84048" lon="-0.49217">
        <ele>1947.2</ele>
        <time>2021-08-09 15:42:01</time>
      </trkpt>
      <trkpt lat="42.84047" lon="-0.49216">
        <ele>1947</ele>
        <time>2021-08-09 15:42:02</time>
      </trkpt>
      <trkpt lat="42.84047" lon="-0.49214">
        <ele>1947.6</ele>
        <time>2021-08-09 15:42:03</time>
      </trkpt>
      <trkpt lat="42.84046" lon="-0.49213">
        <ele>1947.4</ele>
        <time>2021-08-09 15:42:04</time>
      </trkpt>
      <trkpt lat="42.84046" lon="-0.49212">
        <ele>1947.4</ele>
        <time>2021-08-09 15:42:05</time>
      </trkpt>
      <trkpt lat="42.84045" lon="-0.49211">
        <ele>1947</ele>
        <time>2021-08-09 15:42:06</time>
      </trkpt>
      <trkpt lat="42.84044" lon="-0.49211">
        <ele>1947.2</ele>
        <time>2021-08-09 15:42:07</time>
      </trkpt>
      <trkpt lat="42.84043" lon="-0.49211">
        <ele>1947.2</ele>
        <time>2021-08-09 15:42:08</time>
      </trkpt>
      <trkpt lat="42.84042" lon="-0.49211">
        <ele>1947</ele>
        <time>2021-08-09 15:42:09</time>
      </trkpt>
      <trkpt lat="42.84041" lon="-0.4921">
        <ele>1946.6</ele>
        <time>2021-08-09 15:42:10</time>
      </trkpt>
      <trkpt lat="42.8404" lon="-0.49211">
        <ele>1946.6</ele>
        <time>2021-08-09 15:42:11</time>
      </trkpt>
      <trkpt lat="42.84038" lon="-0.49211">
        <ele>1946.4</ele>
        <time>2021-08-09 15:42:12</time>
      </trkpt>
      <trkpt lat="42.84037" lon="-0.49211">
        <ele>1946.2</ele>
        <time>2021-08-09 15:42:13</time>
      </trkpt>
      <trkpt lat="42.84035" lon="-0.49211">
        <ele>1946</ele>
        <time>2021-08-09 15:42:14</time>
      </trkpt>
      <trkpt lat="42.84034" lon="-0.49211">
        <ele>1945.4</ele>
        <time>2021-08-09 15:42:15</time>
      </trkpt>
      <trkpt lat="42.84033" lon="-0.49212">
        <ele>1945.8</ele>
        <time>2021-08-09 15:42:16</time>
      </trkpt>
      <trkpt lat="42.84032" lon="-0.49211">
        <ele>1945.8</ele>
        <time>2021-08-09 15:42:17</time>
      </trkpt>
      <trkpt lat="42.84031" lon="-0.49212">
        <ele>1946</ele>
        <time>2021-08-09 15:42:18</time>
      </trkpt>
      <trkpt lat="42.8403" lon="-0.49212">
        <ele>1946</ele>
        <time>2021-08-09 15:42:19</time>
      </trkpt>
      <trkpt lat="42.8403" lon="-0.49213">
        <ele>1946</ele>
        <time>2021-08-09 15:42:20</time>
      </trkpt>
      <trkpt lat="42.84029" lon="-0.49213">
        <ele>1946</ele>
        <time>2021-08-09 15:42:21</time>
      </trkpt>
      <trkpt lat="42.84027" lon="-0.49214">
        <ele>1946.2</ele>
        <time>2021-08-09 15:42:22</time>
      </trkpt>
      <trkpt lat="42.84026" lon="-0.49215">
        <ele>1946.4</ele>
        <time>2021-08-09 15:42:23</time>
      </trkpt>
      <trkpt lat="42.84026" lon="-0.49216">
        <ele>1946.4</ele>
        <time>2021-08-09 15:42:24</time>
      </trkpt>
      <trkpt lat="42.84025" lon="-0.49217">
        <ele>1946.4</ele>
        <time>2021-08-09 15:42:25</time>
      </trkpt>
      <trkpt lat="42.84025" lon="-0.49218">
        <ele>1946</ele>
        <time>2021-08-09 15:42:26</time>
      </trkpt>
      <trkpt lat="42.84024" lon="-0.4922">
        <ele>1946.4</ele>
        <time>2021-08-09 15:42:27</time>
      </trkpt>
      <trkpt lat="42.84023" lon="-0.49221">
        <ele>1946.4</ele>
        <time>2021-08-09 15:42:28</time>
      </trkpt>
      <trkpt lat="42.84022" lon="-0.49223">
        <ele>1946.6</ele>
        <time>2021-08-09 15:42:29</time>
      </trkpt>
      <trkpt lat="42.84021" lon="-0.49224">
        <ele>1946.4</ele>
        <time>2021-08-09 15:42:30</time>
      </trkpt>
      <trkpt lat="42.84021" lon="-0.49225">
        <ele>1946.4</ele>
        <time>2021-08-09 15:42:31</time>
      </trkpt>
      <trkpt lat="42.8402" lon="-0.49226">
        <ele>1946.6</ele>
        <time>2021-08-09 15:42:32</time>
      </trkpt>
      <trkpt lat="42.8402" lon="-0.49227">
        <ele>1946.8</ele>
        <time>2021-08-09 15:42:33</time>
      </trkpt>
      <trkpt lat="42.84019" lon="-0.49228">
        <ele>1946.6</ele>
        <time>2021-08-09 15:42:34</time>
      </trkpt>
      <trkpt lat="42.84019" lon="-0.49229">
        <ele>1946.8</ele>
        <time>2021-08-09 15:42:35</time>
      </trkpt>
      <trkpt lat="42.84018" lon="-0.4923">
        <ele>1946.8</ele>
        <time>2021-08-09 15:42:36</time>
      </trkpt>
      <trkpt lat="42.84018" lon="-0.4923">
        <ele>1947</ele>
        <time>2021-08-09 15:42:37</time>
      </trkpt>
      <trkpt lat="42.84018" lon="-0.49231">
        <ele>1947.2</ele>
        <time>2021-08-09 15:42:38</time>
      </trkpt>
      <trkpt lat="42.84018" lon="-0.49232">
        <ele>1947.2</ele>
        <time>2021-08-09 15:42:39</time>
      </trkpt>
      <trkpt lat="42.84018" lon="-0.49233">
        <ele>1947.6</ele>
        <time>2021-08-09 15:42:40</time>
      </trkpt>
      <trkpt lat="42.84017" lon="-0.49234">
        <ele>1947.6</ele>
        <time>2021-08-09 15:42:41</time>
      </trkpt>
      <trkpt lat="42.84017" lon="-0.49235">
        <ele>1949</ele>
        <time>2021-08-09 15:42:42</time>
      </trkpt>
      <trkpt lat="42.84017" lon="-0.49237">
        <ele>1948.4</ele>
        <time>2021-08-09 15:42:43</time>
      </trkpt>
      <trkpt lat="42.84017" lon="-0.49238">
        <ele>1948.4</ele>
        <time>2021-08-09 15:42:44</time>
      </trkpt>
      <trkpt lat="42.84016" lon="-0.49238">
        <ele>1948</ele>
        <time>2021-08-09 15:42:45</time>
      </trkpt>
      <trkpt lat="42.84016" lon="-0.49239">
        <ele>1948</ele>
        <time>2021-08-09 15:42:46</time>
      </trkpt>
      <trkpt lat="42.84015" lon="-0.4924">
        <ele>1948</ele>
        <time>2021-08-09 15:42:47</time>
      </trkpt>
      <trkpt lat="42.84015" lon="-0.4924">
        <ele>1948</ele>
        <time>2021-08-09 15:42:48</time>
      </trkpt>
      <trkpt lat="42.84015" lon="-0.49241">
        <ele>1947.8</ele>
        <time>2021-08-09 15:42:49</time>
      </trkpt>
      <trkpt lat="42.84014" lon="-0.49242">
        <ele>1947.6</ele>
        <time>2021-08-09 15:42:50</time>
      </trkpt>
      <trkpt lat="42.84014" lon="-0.49243">
        <ele>1947.8</ele>
        <time>2021-08-09 15:42:51</time>
      </trkpt>
      <trkpt lat="42.84014" lon="-0.49243">
        <ele>1948</ele>
        <time>2021-08-09 15:42:52</time>
      </trkpt>
      <trkpt lat="42.84013" lon="-0.49244">
        <ele>1948</ele>
        <time>2021-08-09 15:42:53</time>
      </trkpt>
      <trkpt lat="42.84013" lon="-0.49244">
        <ele>1947.8</ele>
        <time>2021-08-09 15:42:54</time>
      </trkpt>
      <trkpt lat="42.84012" lon="-0.49245">
        <ele>1947.8</ele>
        <time>2021-08-09 15:42:55</time>
      </trkpt>
      <trkpt lat="42.84011" lon="-0.49247">
        <ele>1947.8</ele>
        <time>2021-08-09 15:42:56</time>
      </trkpt>
      <trkpt lat="42.8401" lon="-0.49247">
        <ele>1948</ele>
        <time>2021-08-09 15:42:57</time>
      </trkpt>
      <trkpt lat="42.8401" lon="-0.49247">
        <ele>1948.2</ele>
        <time>2021-08-09 15:42:58</time>
      </trkpt>
      <trkpt lat="42.84009" lon="-0.49248">
        <ele>1948.2</ele>
        <time>2021-08-09 15:42:59</time>
      </trkpt>
      <trkpt lat="42.84009" lon="-0.49248">
        <ele>1948.6</ele>
        <time>2021-08-09 15:43:00</time>
      </trkpt>
      <trkpt lat="42.84009" lon="-0.49248">
        <ele>1948.6</ele>
        <time>2021-08-09 15:43:01</time>
      </trkpt>
      <trkpt lat="42.84008" lon="-0.49249">
        <ele>1948.8</ele>
        <time>2021-08-09 15:43:02</time>
      </trkpt>
      <trkpt lat="42.84008" lon="-0.49249">
        <ele>1949.2</ele>
        <time>2021-08-09 15:43:03</time>
      </trkpt>
      <trkpt lat="42.84007" lon="-0.49249">
        <ele>1949.2</ele>
        <time>2021-08-09 15:43:04</time>
      </trkpt>
      <trkpt lat="42.84007" lon="-0.49249">
        <ele>1949.2</ele>
        <time>2021-08-09 15:43:05</time>
      </trkpt>
      <trkpt lat="42.84007" lon="-0.49248">
        <ele>1949</ele>
        <time>2021-08-09 15:43:06</time>
      </trkpt>
      <trkpt lat="42.84007" lon="-0.49248">
        <ele>1949</ele>
        <time>2021-08-09 15:43:07</time>
      </trkpt>
      <trkpt lat="42.84006" lon="-0.49248">
        <ele>1948.6</ele>
        <time>2021-08-09 15:43:08</time>
      </trkpt>
      <trkpt lat="42.84006" lon="-0.49249">
        <ele>1948.6</ele>
        <time>2021-08-09 15:43:09</time>
      </trkpt>
      <trkpt lat="42.84006" lon="-0.49249">
        <ele>1948.6</ele>
        <time>2021-08-09 15:43:10</time>
      </trkpt>
      <trkpt lat="42.84006" lon="-0.49249">
        <ele>1948.4</ele>
        <time>2021-08-09 15:43:11</time>
      </trkpt>
      <trkpt lat="42.84006" lon="-0.49249">
        <ele>1948.6</ele>
        <time>2021-08-09 15:43:12</time>
      </trkpt>
      <trkpt lat="42.84006" lon="-0.49249">
        <ele>1948.4</ele>
        <time>2021-08-09 15:43:13</time>
      </trkpt>
      <trkpt lat="42.84006" lon="-0.49249">
        <ele>1948.4</ele>
        <time>2021-08-09 15:43:14</time>
      </trkpt>
      <trkpt lat="42.84006" lon="-0.49249">
        <ele>1948</ele>
        <time>2021-08-09 15:43:15</time>
      </trkpt>
      <trkpt lat="42.84005" lon="-0.4925">
        <ele>1948</ele>
        <time>2021-08-09 15:43:16</time>
      </trkpt>
      <trkpt lat="42.84005" lon="-0.4925">
        <ele>1947.8</ele>
        <time>2021-08-09 15:43:17</time>
      </trkpt>
      <trkpt lat="42.84004" lon="-0.49251">
        <ele>1947.8</ele>
        <time>2021-08-09 15:43:18</time>
      </trkpt>
      <trkpt lat="42.84004" lon="-0.49251">
        <ele>1947.6</ele>
        <time>2021-08-09 15:43:19</time>
      </trkpt>
      <trkpt lat="42.84003" lon="-0.49252">
        <ele>1947.8</ele>
        <time>2021-08-09 15:43:20</time>
      </trkpt>
      <trkpt lat="42.84003" lon="-0.49252">
        <ele>1948</ele>
        <time>2021-08-09 15:43:21</time>
      </trkpt>
      <trkpt lat="42.84002" lon="-0.49252">
        <ele>1947.8</ele>
        <time>2021-08-09 15:43:22</time>
      </trkpt>
      <trkpt lat="42.84002" lon="-0.49252">
        <ele>1947.6</ele>
        <time>2021-08-09 15:43:23</time>
      </trkpt>
      <trkpt lat="42.84002" lon="-0.49253">
        <ele>1947.4</ele>
        <time>2021-08-09 15:43:24</time>
      </trkpt>
      <trkpt lat="42.84002" lon="-0.49253">
        <ele>1947.8</ele>
        <time>2021-08-09 15:43:25</time>
      </trkpt>
      <trkpt lat="42.84002" lon="-0.49254">
        <ele>1947.8</ele>
        <time>2021-08-09 15:43:26</time>
      </trkpt>
      <trkpt lat="42.84001" lon="-0.49254">
        <ele>1947.8</ele>
        <time>2021-08-09 15:43:27</time>
      </trkpt>
      <trkpt lat="42.84001" lon="-0.49255">
        <ele>1948</ele>
        <time>2021-08-09 15:43:28</time>
      </trkpt>
      <trkpt lat="42.84001" lon="-0.49255">
        <ele>1948.2</ele>
        <time>2021-08-09 15:43:29</time>
      </trkpt>
      <trkpt lat="42.84" lon="-0.49256">
        <ele>1948.2</ele>
        <time>2021-08-09 15:43:30</time>
      </trkpt>
      <trkpt lat="42.84" lon="-0.49257">
        <ele>1948</ele>
        <time>2021-08-09 15:43:31</time>
      </trkpt>
      <trkpt lat="42.83999" lon="-0.49257">
        <ele>1948.2</ele>
        <time>2021-08-09 15:43:32</time>
      </trkpt>
      <trkpt lat="42.83998" lon="-0.49258">
        <ele>1948.4</ele>
        <time>2021-08-09 15:43:33</time>
      </trkpt>
      <trkpt lat="42.83998" lon="-0.49259">
        <ele>1948.6</ele>
        <time>2021-08-09 15:43:34</time>
      </trkpt>
      <trkpt lat="42.83998" lon="-0.49259">
        <ele>1948.8</ele>
        <time>2021-08-09 15:43:35</time>
      </trkpt>
      <trkpt lat="42.83998" lon="-0.49259">
        <ele>1948.8</ele>
        <time>2021-08-09 15:43:36</time>
      </trkpt>
      <trkpt lat="42.83997" lon="-0.49261">
        <ele>1948.8</ele>
        <time>2021-08-09 15:43:37</time>
      </trkpt>
      <trkpt lat="42.83997" lon="-0.49262">
        <ele>1948.6</ele>
        <time>2021-08-09 15:43:38</time>
      </trkpt>
      <trkpt lat="42.83996" lon="-0.49264">
        <ele>1948.6</ele>
        <time>2021-08-09 15:43:39</time>
      </trkpt>
      <trkpt lat="42.83996" lon="-0.49265">
        <ele>1948.6</ele>
        <time>2021-08-09 15:43:40</time>
      </trkpt>
      <trkpt lat="42.83996" lon="-0.49266">
        <ele>1948.4</ele>
        <time>2021-08-09 15:43:41</time>
      </trkpt>
      <trkpt lat="42.83996" lon="-0.49267">
        <ele>1948.4</ele>
        <time>2021-08-09 15:43:42</time>
      </trkpt>
      <trkpt lat="42.83995" lon="-0.49268">
        <ele>1948.4</ele>
        <time>2021-08-09 15:43:43</time>
      </trkpt>
      <trkpt lat="42.83995" lon="-0.49269">
        <ele>1948.2</ele>
        <time>2021-08-09 15:43:44</time>
      </trkpt>
      <trkpt lat="42.83994" lon="-0.49269">
        <ele>1948.8</ele>
        <time>2021-08-09 15:43:45</time>
      </trkpt>
      <trkpt lat="42.83994" lon="-0.4927">
        <ele>1949.2</ele>
        <time>2021-08-09 15:43:46</time>
      </trkpt>
      <trkpt lat="42.83994" lon="-0.4927">
        <ele>1949.4</ele>
        <time>2021-08-09 15:43:47</time>
      </trkpt>
      <trkpt lat="42.83994" lon="-0.49271">
        <ele>1948.6</ele>
        <time>2021-08-09 15:43:48</time>
      </trkpt>
      <trkpt lat="42.83993" lon="-0.49272">
        <ele>1948.4</ele>
        <time>2021-08-09 15:43:49</time>
      </trkpt>
      <trkpt lat="42.83993" lon="-0.49272">
        <ele>1948.4</ele>
        <time>2021-08-09 15:43:50</time>
      </trkpt>
      <trkpt lat="42.83992" lon="-0.49273">
        <ele>1948.4</ele>
        <time>2021-08-09 15:43:51</time>
      </trkpt>
      <trkpt lat="42.83991" lon="-0.49273">
        <ele>1948.2</ele>
        <time>2021-08-09 15:43:52</time>
      </trkpt>
      <trkpt lat="42.83991" lon="-0.49274">
        <ele>1948.2</ele>
        <time>2021-08-09 15:43:53</time>
      </trkpt>
      <trkpt lat="42.8399" lon="-0.49275">
        <ele>1948.2</ele>
        <time>2021-08-09 15:43:54</time>
      </trkpt>
      <trkpt lat="42.83989" lon="-0.49276">
        <ele>1948.4</ele>
        <time>2021-08-09 15:43:55</time>
      </trkpt>
      <trkpt lat="42.83989" lon="-0.49276">
        <ele>1947.4</ele>
        <time>2021-08-09 15:43:56</time>
      </trkpt>
      <trkpt lat="42.83989" lon="-0.49277">
        <ele>1947.2</ele>
        <time>2021-08-09 15:43:57</time>
      </trkpt>
      <trkpt lat="42.83989" lon="-0.49277">
        <ele>1946.6</ele>
        <time>2021-08-09 15:43:58</time>
      </trkpt>
      <trkpt lat="42.83989" lon="-0.49277">
        <ele>1947.8</ele>
        <time>2021-08-09 15:43:59</time>
      </trkpt>
      <trkpt lat="42.83989" lon="-0.49277">
        <ele>1948.4</ele>
        <time>2021-08-09 15:44:00</time>
      </trkpt>
      <trkpt lat="42.83989" lon="-0.49277">
        <ele>1948.8</ele>
        <time>2021-08-09 15:44:01</time>
      </trkpt>
      <trkpt lat="42.83989" lon="-0.49277">
        <ele>1951</ele>
        <time>2021-08-09 15:44:02</time>
      </trkpt>
      <trkpt lat="42.83988" lon="-0.49276">
        <ele>1951.2</ele>
        <time>2021-08-09 15:44:03</time>
      </trkpt>
      <trkpt lat="42.83988" lon="-0.49276">
        <ele>1948.6</ele>
        <time>2021-08-09 15:44:04</time>
      </trkpt>
      <trkpt lat="42.83988" lon="-0.49277">
        <ele>1949.2</ele>
        <time>2021-08-09 15:44:05</time>
      </trkpt>
      <trkpt lat="42.83988" lon="-0.49277">
        <ele>1948.6</ele>
        <time>2021-08-09 15:44:06</time>
      </trkpt>
      <trkpt lat="42.83988" lon="-0.49277">
        <ele>1948.6</ele>
        <time>2021-08-09 15:44:07</time>
      </trkpt>
      <trkpt lat="42.83988" lon="-0.49276">
        <ele>1948.6</ele>
        <time>2021-08-09 15:44:08</time>
      </trkpt>
      <trkpt lat="42.83988" lon="-0.49276">
        <ele>1949</ele>
        <time>2021-08-09 15:44:09</time>
      </trkpt>
      <trkpt lat="42.83988" lon="-0.49277">
        <ele>1949</ele>
        <time>2021-08-09 15:44:10</time>
      </trkpt>
      <trkpt lat="42.83988" lon="-0.49277">
        <ele>1949</ele>
        <time>2021-08-09 15:44:11</time>
      </trkpt>
      <trkpt lat="42.83988" lon="-0.49277">
        <ele>1949.2</ele>
        <time>2021-08-09 15:44:12</time>
      </trkpt>
      <trkpt lat="42.83989" lon="-0.49276">
        <ele>1948.8</ele>
        <time>2021-08-09 15:44:13</time>
      </trkpt>
      <trkpt lat="42.83989" lon="-0.49275">
        <ele>1949.2</ele>
        <time>2021-08-09 15:44:14</time>
      </trkpt>
      <trkpt lat="42.83989" lon="-0.49275">
        <ele>1949.2</ele>
        <time>2021-08-09 15:44:15</time>
      </trkpt>
      <trkpt lat="42.8399" lon="-0.49275">
        <ele>1949.6</ele>
        <time>2021-08-09 15:44:16</time>
      </trkpt>
      <trkpt lat="42.83991" lon="-0.49274">
        <ele>1949.6</ele>
        <time>2021-08-09 15:44:17</time>
      </trkpt>
      <trkpt lat="42.83991" lon="-0.49274">
        <ele>1949.2</ele>
        <time>2021-08-09 15:44:18</time>
      </trkpt>
      <trkpt lat="42.83992" lon="-0.49274">
        <ele>1948.8</ele>
        <time>2021-08-09 15:44:19</time>
      </trkpt>
      <trkpt lat="42.83992" lon="-0.49274">
        <ele>1948.8</ele>
        <time>2021-08-09 15:44:20</time>
      </trkpt>
      <trkpt lat="42.83992" lon="-0.49274">
        <ele>1948.8</ele>
        <time>2021-08-09 15:44:21</time>
      </trkpt>
      <trkpt lat="42.83992" lon="-0.49274">
        <ele>1949.2</ele>
        <time>2021-08-09 15:44:22</time>
      </trkpt>
      <trkpt lat="42.83993" lon="-0.49274">
        <ele>1949.6</ele>
        <time>2021-08-09 15:44:23</time>
      </trkpt>
      <trkpt lat="42.83993" lon="-0.49274">
        <ele>1949.6</ele>
        <time>2021-08-09 15:44:24</time>
      </trkpt>
      <trkpt lat="42.83993" lon="-0.49274">
        <ele>1949.4</ele>
        <time>2021-08-09 15:44:25</time>
      </trkpt>
      <trkpt lat="42.83993" lon="-0.49274">
        <ele>1949.4</ele>
        <time>2021-08-09 15:44:26</time>
      </trkpt>
      <trkpt lat="42.83993" lon="-0.49273">
        <ele>1951.4</ele>
        <time>2021-08-09 15:44:27</time>
      </trkpt>
      <trkpt lat="42.83993" lon="-0.49273">
        <ele>1951</ele>
        <time>2021-08-09 15:44:28</time>
      </trkpt>
      <trkpt lat="42.83993" lon="-0.49273">
        <ele>1950.8</ele>
        <time>2021-08-09 15:44:29</time>
      </trkpt>
      <trkpt lat="42.83994" lon="-0.49272">
        <ele>1951.2</ele>
        <time>2021-08-09 15:44:30</time>
      </trkpt>
      <trkpt lat="42.83994" lon="-0.49272">
        <ele>1951.4</ele>
        <time>2021-08-09 15:44:31</time>
      </trkpt>
      <trkpt lat="42.83994" lon="-0.49271">
        <ele>1951</ele>
        <time>2021-08-09 15:44:32</time>
      </trkpt>
      <trkpt lat="42.83994" lon="-0.49271">
        <ele>1950.6</ele>
        <time>2021-08-09 15:44:33</time>
      </trkpt>
      <trkpt lat="42.83994" lon="-0.49269">
        <ele>1950.2</ele>
        <time>2021-08-09 15:44:34</time>
      </trkpt>
      <trkpt lat="42.83995" lon="-0.49269">
        <ele>1949.6</ele>
        <time>2021-08-09 15:44:35</time>
      </trkpt>
      <trkpt lat="42.83995" lon="-0.49268">
        <ele>1949.2</ele>
        <time>2021-08-09 15:44:36</time>
      </trkpt>
      <trkpt lat="42.83995" lon="-0.49268">
        <ele>1949</ele>
        <time>2021-08-09 15:44:37</time>
      </trkpt>
      <trkpt lat="42.83995" lon="-0.49268">
        <ele>1948.8</ele>
        <time>2021-08-09 15:44:38</time>
      </trkpt>
      <trkpt lat="42.83995" lon="-0.49269">
        <ele>1948</ele>
        <time>2021-08-09 15:44:43</time>
      </trkpt>
      <trkpt lat="42.83996" lon="-0.49268">
        <ele>1948</ele>
        <time>2021-08-09 15:44:44</time>
      </trkpt>
      <trkpt lat="42.83996" lon="-0.49267">
        <ele>1948</ele>
        <time>2021-08-09 15:44:45</time>
      </trkpt>
      <trkpt lat="42.83996" lon="-0.49267">
        <ele>1947.8</ele>
        <time>2021-08-09 15:44:46</time>
      </trkpt>
      <trkpt lat="42.83996" lon="-0.49267">
        <ele>1948</ele>
        <time>2021-08-09 15:44:47</time>
      </trkpt>
      <trkpt lat="42.83996" lon="-0.49267">
        <ele>1947.4</ele>
        <time>2021-08-09 15:44:48</time>
      </trkpt>
      <trkpt lat="42.83997" lon="-0.49267">
        <ele>1947.6</ele>
        <time>2021-08-09 15:44:49</time>
      </trkpt>
      <trkpt lat="42.83997" lon="-0.49266">
        <ele>1947.4</ele>
        <time>2021-08-09 15:44:53</time>
      </trkpt>
      <trkpt lat="42.83997" lon="-0.49266">
        <ele>1947.4</ele>
        <time>2021-08-09 15:44:54</time>
      </trkpt>
      <trkpt lat="42.83997" lon="-0.49265">
        <ele>1947.2</ele>
        <time>2021-08-09 15:44:55</time>
      </trkpt>
      <trkpt lat="42.83998" lon="-0.49264">
        <ele>1947.2</ele>
        <time>2021-08-09 15:44:56</time>
      </trkpt>
      <trkpt lat="42.83998" lon="-0.49263">
        <ele>1947.2</ele>
        <time>2021-08-09 15:44:57</time>
      </trkpt>
      <trkpt lat="42.83999" lon="-0.49262">
        <ele>1947</ele>
        <time>2021-08-09 15:44:58</time>
      </trkpt>
      <trkpt lat="42.83999" lon="-0.49261">
        <ele>1946.8</ele>
        <time>2021-08-09 15:44:59</time>
      </trkpt>
      <trkpt lat="42.83999" lon="-0.49261">
        <ele>1947</ele>
        <time>2021-08-09 15:45:00</time>
      </trkpt>
      <trkpt lat="42.84" lon="-0.4926">
        <ele>1947</ele>
        <time>2021-08-09 15:45:01</time>
      </trkpt>
      <trkpt lat="42.84" lon="-0.49259">
        <ele>1947</ele>
        <time>2021-08-09 15:45:02</time>
      </trkpt>
      <trkpt lat="42.84001" lon="-0.49259">
        <ele>1947</ele>
        <time>2021-08-09 15:45:03</time>
      </trkpt>
      <trkpt lat="42.84001" lon="-0.49259">
        <ele>1947.2</ele>
        <time>2021-08-09 15:45:04</time>
      </trkpt>
      <trkpt lat="42.84002" lon="-0.49259">
        <ele>1947</ele>
        <time>2021-08-09 15:45:05</time>
      </trkpt>
      <trkpt lat="42.84003" lon="-0.49259">
        <ele>1946.6</ele>
        <time>2021-08-09 15:45:06</time>
      </trkpt>
      <trkpt lat="42.84003" lon="-0.4926">
        <ele>1946.4</ele>
        <time>2021-08-09 15:45:07</time>
      </trkpt>
      <trkpt lat="42.84004" lon="-0.49259">
        <ele>1946.4</ele>
        <time>2021-08-09 15:45:08</time>
      </trkpt>
      <trkpt lat="42.84004" lon="-0.49259">
        <ele>1946.4</ele>
        <time>2021-08-09 15:45:09</time>
      </trkpt>
      <trkpt lat="42.84005" lon="-0.49259">
        <ele>1946.2</ele>
        <time>2021-08-09 15:45:10</time>
      </trkpt>
      <trkpt lat="42.84006" lon="-0.49259">
        <ele>1946.2</ele>
        <time>2021-08-09 15:45:11</time>
      </trkpt>
      <trkpt lat="42.84006" lon="-0.49259">
        <ele>1945.8</ele>
        <time>2021-08-09 15:45:12</time>
      </trkpt>
      <trkpt lat="42.84007" lon="-0.49259">
        <ele>1945.6</ele>
        <time>2021-08-09 15:45:13</time>
      </trkpt>
      <trkpt lat="42.84008" lon="-0.4926">
        <ele>1945.6</ele>
        <time>2021-08-09 15:45:14</time>
      </trkpt>
      <trkpt lat="42.84009" lon="-0.4926">
        <ele>1945.6</ele>
        <time>2021-08-09 15:45:21</time>
      </trkpt>
      <trkpt lat="42.84009" lon="-0.4926">
        <ele>1945.4</ele>
        <time>2021-08-09 15:45:22</time>
      </trkpt>
      <trkpt lat="42.84009" lon="-0.4926">
        <ele>1945.4</ele>
        <time>2021-08-09 15:45:23</time>
      </trkpt>
      <trkpt lat="42.8401" lon="-0.4926">
        <ele>1944.6</ele>
        <time>2021-08-09 15:45:24</time>
      </trkpt>
      <trkpt lat="42.8401" lon="-0.49261">
        <ele>1944.6</ele>
        <time>2021-08-09 15:45:25</time>
      </trkpt>
      <trkpt lat="42.8401" lon="-0.49261">
        <ele>1945.2</ele>
        <time>2021-08-09 15:45:26</time>
      </trkpt>
      <trkpt lat="42.84009" lon="-0.49261">
        <ele>1945.2</ele>
        <time>2021-08-09 15:45:27</time>
      </trkpt>
      <trkpt lat="42.84009" lon="-0.49261">
        <ele>1945.2</ele>
        <time>2021-08-09 15:45:28</time>
      </trkpt>
      <trkpt lat="42.84009" lon="-0.49261">
        <ele>1945.2</ele>
        <time>2021-08-09 15:45:29</time>
      </trkpt>
      <trkpt lat="42.84027" lon="-0.49298">
        <ele>1940</ele>
        <time>2021-08-10 08:07:32</time>
      </trkpt>
      <trkpt lat="42.84026" lon="-0.49298">
        <ele>1940</ele>
      </trkpt>
      <trkpt lat="42.84026" lon="-0.49297">
        <ele>1940</ele>
        <time>2021-08-10 08:07:33</time>
      </trkpt>
      <trkpt lat="42.84026" lon="-0.49296">
        <ele>1940</ele>
        <time>2021-08-10 08:07:34</time>
      </trkpt>
      <trkpt lat="42.84026" lon="-0.49296">
        <ele>1940.2</ele>
        <time>2021-08-10 08:07:35</time>
      </trkpt>
      <trkpt lat="42.84026" lon="-0.49296">
        <ele>1940.2</ele>
        <time>2021-08-10 08:07:36</time>
      </trkpt>
      <trkpt lat="42.84026" lon="-0.49296">
        <ele>1940.2</ele>
        <time>2021-08-10 08:07:37</time>
      </trkpt>
      <trkpt lat="42.84026" lon="-0.49296">
        <ele>1940.2</ele>
        <time>2021-08-10 08:07:38</time>
      </trkpt>
      <trkpt lat="42.84027" lon="-0.49297">
        <ele>1940.2</ele>
        <time>2021-08-10 08:07:39</time>
      </trkpt>
      <trkpt lat="42.84027" lon="-0.49296">
        <ele>1940.2</ele>
        <time>2021-08-10 08:07:45</time>
      </trkpt>
      <trkpt lat="42.84027" lon="-0.49296">
        <ele>1940</ele>
      </trkpt>
      <trkpt lat="42.84029" lon="-0.49295">
        <ele>1940.2</ele>
        <time>2021-08-10 08:07:46</time>
      </trkpt>
      <trkpt lat="42.84028" lon="-0.49294">
        <ele>1940.2</ele>
        <time>2021-08-10 08:07:47</time>
      </trkpt>
      <trkpt lat="42.84028" lon="-0.49294">
        <ele>1940.2</ele>
        <time>2021-08-10 08:08:06</time>
      </trkpt>
      <trkpt lat="42.84028" lon="-0.49294">
        <ele>1940.4</ele>
        <time>2021-08-10 08:08:07</time>
      </trkpt>
      <trkpt lat="42.84028" lon="-0.49294">
        <ele>1940.4</ele>
        <time>2021-08-10 08:08:08</time>
      </trkpt>
      <trkpt lat="42.84028" lon="-0.49294">
        <ele>1940.6</ele>
        <time>2021-08-10 08:08:09</time>
      </trkpt>
      <trkpt lat="42.84028" lon="-0.49294">
        <ele>1940.4</ele>
        <time>2021-08-10 08:08:10</time>
      </trkpt>
      <trkpt lat="42.84027" lon="-0.49293">
        <ele>1940.4</ele>
        <time>2021-08-10 08:08:11</time>
      </trkpt>
      <trkpt lat="42.84027" lon="-0.49292">
        <ele>1940</ele>
        <time>2021-08-10 08:08:12</time>
      </trkpt>
      <trkpt lat="42.84026" lon="-0.49292">
        <ele>1940.2</ele>
        <time>2021-08-10 08:08:13</time>
      </trkpt>
      <trkpt lat="42.84025" lon="-0.49291">
        <ele>1940.2</ele>
        <time>2021-08-10 08:08:14</time>
      </trkpt>
      <trkpt lat="42.84025" lon="-0.49291">
        <ele>1940.4</ele>
        <time>2021-08-10 08:08:15</time>
      </trkpt>
      <trkpt lat="42.84025" lon="-0.4929">
        <ele>1940.2</ele>
        <time>2021-08-10 08:08:16</time>
      </trkpt>
      <trkpt lat="42.84024" lon="-0.4929">
        <ele>1940</ele>
        <time>2021-08-10 08:08:17</time>
      </trkpt>
      <trkpt lat="42.84024" lon="-0.49289">
        <ele>1940.2</ele>
        <time>2021-08-10 08:08:18</time>
      </trkpt>
      <trkpt lat="42.84023" lon="-0.49288">
        <ele>1940.2</ele>
        <time>2021-08-10 08:08:19</time>
      </trkpt>
      <trkpt lat="42.84023" lon="-0.49287">
        <ele>1940.2</ele>
        <time>2021-08-10 08:08:20</time>
      </trkpt>
      <trkpt lat="42.84022" lon="-0.49287">
        <ele>1940.2</ele>
        <time>2021-08-10 08:08:21</time>
      </trkpt>
      <trkpt lat="42.84022" lon="-0.49287">
        <ele>1940</ele>
        <time>2021-08-10 08:08:22</time>
      </trkpt>
      <trkpt lat="42.8402" lon="-0.49286">
        <ele>1939.8</ele>
        <time>2021-08-10 08:08:23</time>
      </trkpt>
      <trkpt lat="42.8402" lon="-0.49285">
        <ele>1939.8</ele>
        <time>2021-08-10 08:08:24</time>
      </trkpt>
      <trkpt lat="42.84019" lon="-0.49283">
        <ele>1939.8</ele>
        <time>2021-08-10 08:08:25</time>
      </trkpt>
      <trkpt lat="42.84018" lon="-0.49282">
        <ele>1939.6</ele>
        <time>2021-08-10 08:08:26</time>
      </trkpt>
      <trkpt lat="42.84017" lon="-0.49282">
        <ele>1939.8</ele>
        <time>2021-08-10 08:08:27</time>
      </trkpt>
      <trkpt lat="42.84017" lon="-0.49281">
        <ele>1940</ele>
        <time>2021-08-10 08:08:28</time>
      </trkpt>
      <trkpt lat="42.84016" lon="-0.4928">
        <ele>1939.8</ele>
        <time>2021-08-10 08:08:29</time>
      </trkpt>
      <trkpt lat="42.84015" lon="-0.49279">
        <ele>1939.8</ele>
        <time>2021-08-10 08:08:30</time>
      </trkpt>
      <trkpt lat="42.84014" lon="-0.49278">
        <ele>1939.4</ele>
        <time>2021-08-10 08:08:31</time>
      </trkpt>
      <trkpt lat="42.84013" lon="-0.49278">
        <ele>1939.6</ele>
        <time>2021-08-10 08:08:32</time>
      </trkpt>
      <trkpt lat="42.84013" lon="-0.49277">
        <ele>1939.6</ele>
        <time>2021-08-10 08:08:33</time>
      </trkpt>
      <trkpt lat="42.84012" lon="-0.49276">
        <ele>1939.6</ele>
        <time>2021-08-10 08:08:34</time>
      </trkpt>
      <trkpt lat="42.84011" lon="-0.49275">
        <ele>1939.6</ele>
        <time>2021-08-10 08:08:35</time>
      </trkpt>
      <trkpt lat="42.84011" lon="-0.49274">
        <ele>1939.6</ele>
        <time>2021-08-10 08:08:36</time>
      </trkpt>
      <trkpt lat="42.8401" lon="-0.49273">
        <ele>1939.8</ele>
        <time>2021-08-10 08:08:37</time>
      </trkpt>
      <trkpt lat="42.84009" lon="-0.49272">
        <ele>1940</ele>
        <time>2021-08-10 08:08:38</time>
      </trkpt>
      <trkpt lat="42.84008" lon="-0.4927">
        <ele>1940.2</ele>
        <time>2021-08-10 08:08:39</time>
      </trkpt>
      <trkpt lat="42.84008" lon="-0.49269">
        <ele>1940.4</ele>
        <time>2021-08-10 08:08:40</time>
      </trkpt>
      <trkpt lat="42.84008" lon="-0.49267">
        <ele>1940.4</ele>
        <time>2021-08-10 08:08:41</time>
      </trkpt>
      <trkpt lat="42.84008" lon="-0.49266">
        <ele>1940.6</ele>
        <time>2021-08-10 08:08:42</time>
      </trkpt>
      <trkpt lat="42.84007" lon="-0.49266">
        <ele>1941</ele>
        <time>2021-08-10 08:08:43</time>
      </trkpt>
      <trkpt lat="42.84006" lon="-0.49265">
        <ele>1941.2</ele>
        <time>2021-08-10 08:08:44</time>
      </trkpt>
      <trkpt lat="42.84005" lon="-0.49264">
        <ele>1941.2</ele>
        <time>2021-08-10 08:08:45</time>
      </trkpt>
      <trkpt lat="42.84004" lon="-0.49264">
        <ele>1941.4</ele>
        <time>2021-08-10 08:08:46</time>
      </trkpt>
      <trkpt lat="42.84004" lon="-0.49262">
        <ele>1941.6</ele>
        <time>2021-08-10 08:08:47</time>
      </trkpt>
      <trkpt lat="42.84003" lon="-0.49261">
        <ele>1942</ele>
        <time>2021-08-10 08:08:48</time>
      </trkpt>
      <trkpt lat="42.84002" lon="-0.4926">
        <ele>1942.2</ele>
        <time>2021-08-10 08:08:49</time>
      </trkpt>
      <trkpt lat="42.84002" lon="-0.4926">
        <ele>1942.2</ele>
        <time>2021-08-10 08:08:50</time>
      </trkpt>
      <trkpt lat="42.84002" lon="-0.4926">
        <ele>1942.4</ele>
        <time>2021-08-10 08:08:51</time>
      </trkpt>
      <trkpt lat="42.84002" lon="-0.49259">
        <ele>1942.6</ele>
        <time>2021-08-10 08:08:52</time>
      </trkpt>
      <trkpt lat="42.84001" lon="-0.49258">
        <ele>1942.8</ele>
        <time>2021-08-10 08:08:53</time>
      </trkpt>
      <trkpt lat="42.84" lon="-0.49256">
        <ele>1943</ele>
        <time>2021-08-10 08:08:54</time>
      </trkpt>
      <trkpt lat="42.84" lon="-0.49255">
        <ele>1943</ele>
        <time>2021-08-10 08:08:55</time>
      </trkpt>
      <trkpt lat="42.84" lon="-0.49254">
        <ele>1943</ele>
        <time>2021-08-10 08:08:56</time>
      </trkpt>
      <trkpt lat="42.84" lon="-0.49253">
        <ele>1942.8</ele>
        <time>2021-08-10 08:08:57</time>
      </trkpt>
      <trkpt lat="42.83999" lon="-0.49252">
        <ele>1943</ele>
        <time>2021-08-10 08:08:58</time>
      </trkpt>
      <trkpt lat="42.83998" lon="-0.49251">
        <ele>1943</ele>
        <time>2021-08-10 08:08:59</time>
      </trkpt>
      <trkpt lat="42.83998" lon="-0.4925">
        <ele>1943</ele>
        <time>2021-08-10 08:09:00</time>
      </trkpt>
      <trkpt lat="42.83997" lon="-0.49249">
        <ele>1943.2</ele>
        <time>2021-08-10 08:09:01</time>
      </trkpt>
      <trkpt lat="42.83996" lon="-0.49248">
        <ele>1943.2</ele>
        <time>2021-08-10 08:09:02</time>
      </trkpt>
      <trkpt lat="42.83995" lon="-0.49247">
        <ele>1943.4</ele>
        <time>2021-08-10 08:09:03</time>
      </trkpt>
      <trkpt lat="42.83995" lon="-0.49247">
        <ele>1943.6</ele>
        <time>2021-08-10 08:09:04</time>
      </trkpt>
      <trkpt lat="42.83994" lon="-0.49246">
        <ele>1943.8</ele>
        <time>2021-08-10 08:09:05</time>
      </trkpt>
      <trkpt lat="42.83993" lon="-0.49245">
        <ele>1944.4</ele>
        <time>2021-08-10 08:09:06</time>
      </trkpt>
      <trkpt lat="42.83993" lon="-0.49245">
        <ele>1944.6</ele>
        <time>2021-08-10 08:09:07</time>
      </trkpt>
      <trkpt lat="42.83992" lon="-0.49245">
        <ele>1944.8</ele>
        <time>2021-08-10 08:09:08</time>
      </trkpt>
      <trkpt lat="42.83991" lon="-0.49245">
        <ele>1944.8</ele>
        <time>2021-08-10 08:09:09</time>
      </trkpt>
      <trkpt lat="42.83991" lon="-0.49245">
        <ele>1944.8</ele>
        <time>2021-08-10 08:09:10</time>
      </trkpt>
      <trkpt lat="42.8399" lon="-0.49245">
        <ele>1944.8</ele>
        <time>2021-08-10 08:09:11</time>
      </trkpt>
      <trkpt lat="42.83989" lon="-0.49245">
        <ele>1944.6</ele>
        <time>2021-08-10 08:09:12</time>
      </trkpt>
      <trkpt lat="42.83989" lon="-0.49245">
        <ele>1944.8</ele>
        <time>2021-08-10 08:09:13</time>
      </trkpt>
      <trkpt lat="42.83988" lon="-0.49245">
        <ele>1944.8</ele>
        <time>2021-08-10 08:09:14</time>
      </trkpt>
      <trkpt lat="42.83987" lon="-0.49246">
        <ele>1945</ele>
        <time>2021-08-10 08:09:15</time>
      </trkpt>
      <trkpt lat="42.83987" lon="-0.49246">
        <ele>1945</ele>
        <time>2021-08-10 08:09:16</time>
      </trkpt>
      <trkpt lat="42.83986" lon="-0.49247">
        <ele>1945</ele>
        <time>2021-08-10 08:09:17</time>
      </trkpt>
      <trkpt lat="42.83985" lon="-0.49247">
        <ele>1945.6</ele>
        <time>2021-08-10 08:09:18</time>
      </trkpt>
      <trkpt lat="42.83984" lon="-0.49248">
        <ele>1945.6</ele>
        <time>2021-08-10 08:09:19</time>
      </trkpt>
      <trkpt lat="42.83983" lon="-0.49248">
        <ele>1946</ele>
        <time>2021-08-10 08:09:20</time>
      </trkpt>
      <trkpt lat="42.83983" lon="-0.49249">
        <ele>1945.8</ele>
        <time>2021-08-10 08:09:21</time>
      </trkpt>
      <trkpt lat="42.83982" lon="-0.4925">
        <ele>1945.8</ele>
        <time>2021-08-10 08:09:22</time>
      </trkpt>
      <trkpt lat="42.83981" lon="-0.4925">
        <ele>1946</ele>
        <time>2021-08-10 08:09:23</time>
      </trkpt>
      <trkpt lat="42.83981" lon="-0.49251">
        <ele>1946</ele>
        <time>2021-08-10 08:09:24</time>
      </trkpt>
      <trkpt lat="42.8398" lon="-0.49251">
        <ele>1945.8</ele>
        <time>2021-08-10 08:09:25</time>
      </trkpt>
      <trkpt lat="42.83979" lon="-0.49251">
        <ele>1945.6</ele>
        <time>2021-08-10 08:09:26</time>
      </trkpt>
      <trkpt lat="42.83978" lon="-0.49251">
        <ele>1945.8</ele>
        <time>2021-08-10 08:09:27</time>
      </trkpt>
      <trkpt lat="42.83976" lon="-0.49251">
        <ele>1945.8</ele>
        <time>2021-08-10 08:09:28</time>
      </trkpt>
      <trkpt lat="42.83976" lon="-0.49251">
        <ele>1945.6</ele>
        <time>2021-08-10 08:09:29</time>
      </trkpt>
      <trkpt lat="42.83975" lon="-0.49251">
        <ele>1945.4</ele>
        <time>2021-08-10 08:09:30</time>
      </trkpt>
      <trkpt lat="42.83974" lon="-0.49251">
        <ele>1945.4</ele>
        <time>2021-08-10 08:09:31</time>
      </trkpt>
      <trkpt lat="42.83974" lon="-0.4925">
        <ele>1945</ele>
        <time>2021-08-10 08:09:32</time>
      </trkpt>
      <trkpt lat="42.83973" lon="-0.4925">
        <ele>1945</ele>
        <time>2021-08-10 08:09:33</time>
      </trkpt>
      <trkpt lat="42.83972" lon="-0.4925">
        <ele>1944.6</ele>
        <time>2021-08-10 08:09:34</time>
      </trkpt>
      <trkpt lat="42.83971" lon="-0.49249">
        <ele>1944.2</ele>
        <time>2021-08-10 08:09:35</time>
      </trkpt>
      <trkpt lat="42.8397" lon="-0.49249">
        <ele>1944.2</ele>
        <time>2021-08-10 08:09:36</time>
      </trkpt>
      <trkpt lat="42.83969" lon="-0.49249">
        <ele>1944.2</ele>
        <time>2021-08-10 08:09:37</time>
      </trkpt>
      <trkpt lat="42.83969" lon="-0.49249">
        <ele>1944</ele>
        <time>2021-08-10 08:09:38</time>
      </trkpt>
      <trkpt lat="42.83968" lon="-0.49248">
        <ele>1943.8</ele>
        <time>2021-08-10 08:09:39</time>
      </trkpt>
      <trkpt lat="42.83967" lon="-0.49247">
        <ele>1943.8</ele>
        <time>2021-08-10 08:09:40</time>
      </trkpt>
      <trkpt lat="42.83966" lon="-0.49247">
        <ele>1943.6</ele>
        <time>2021-08-10 08:09:41</time>
      </trkpt>
      <trkpt lat="42.83965" lon="-0.49247">
        <ele>1943.6</ele>
        <time>2021-08-10 08:09:42</time>
      </trkpt>
      <trkpt lat="42.83964" lon="-0.49246">
        <ele>1943.6</ele>
        <time>2021-08-10 08:09:43</time>
      </trkpt>
      <trkpt lat="42.83963" lon="-0.49246">
        <ele>1943.6</ele>
        <time>2021-08-10 08:09:44</time>
      </trkpt>
      <trkpt lat="42.83961" lon="-0.49246">
        <ele>1943.6</ele>
        <time>2021-08-10 08:09:45</time>
      </trkpt>
      <trkpt lat="42.8396" lon="-0.49246">
        <ele>1943.8</ele>
        <time>2021-08-10 08:09:46</time>
      </trkpt>
      <trkpt lat="42.83959" lon="-0.49245">
        <ele>1943.6</ele>
        <time>2021-08-10 08:09:47</time>
      </trkpt>
      <trkpt lat="42.83957" lon="-0.49244">
        <ele>1943.6</ele>
        <time>2021-08-10 08:09:48</time>
      </trkpt>
      <trkpt lat="42.83956" lon="-0.49244">
        <ele>1943.6</ele>
        <time>2021-08-10 08:09:49</time>
      </trkpt>
      <trkpt lat="42.83955" lon="-0.49243">
        <ele>1943.6</ele>
        <time>2021-08-10 08:09:50</time>
      </trkpt>
      <trkpt lat="42.83954" lon="-0.49243">
        <ele>1943.6</ele>
        <time>2021-08-10 08:09:51</time>
      </trkpt>
      <trkpt lat="42.83953" lon="-0.49243">
        <ele>1943.6</ele>
        <time>2021-08-10 08:09:52</time>
      </trkpt>
      <trkpt lat="42.83952" lon="-0.49242">
        <ele>1943.6</ele>
        <time>2021-08-10 08:09:53</time>
      </trkpt>
      <trkpt lat="42.8395" lon="-0.49242">
        <ele>1943.8</ele>
        <time>2021-08-10 08:09:54</time>
      </trkpt>
      <trkpt lat="42.8395" lon="-0.49242">
        <ele>1943.8</ele>
        <time>2021-08-10 08:09:55</time>
      </trkpt>
      <trkpt lat="42.83949" lon="-0.49243">
        <ele>1943.8</ele>
        <time>2021-08-10 08:09:56</time>
      </trkpt>
      <trkpt lat="42.83949" lon="-0.49244">
        <ele>1943.6</ele>
        <time>2021-08-10 08:09:57</time>
      </trkpt>
      <trkpt lat="42.83948" lon="-0.49246">
        <ele>1943.6</ele>
        <time>2021-08-10 08:09:58</time>
      </trkpt>
      <trkpt lat="42.83948" lon="-0.49247">
        <ele>1943.6</ele>
        <time>2021-08-10 08:09:59</time>
      </trkpt>
      <trkpt lat="42.83946" lon="-0.49249">
        <ele>1943.6</ele>
        <time>2021-08-10 08:10:00</time>
      </trkpt>
      <trkpt lat="42.83946" lon="-0.4925">
        <ele>1943.6</ele>
        <time>2021-08-10 08:10:01</time>
      </trkpt>
      <trkpt lat="42.83945" lon="-0.49252">
        <ele>1943.4</ele>
        <time>2021-08-10 08:10:02</time>
      </trkpt>
      <trkpt lat="42.83945" lon="-0.49253">
        <ele>1943.6</ele>
        <time>2021-08-10 08:10:03</time>
      </trkpt>
      <trkpt lat="42.83944" lon="-0.49253">
        <ele>1943.2</ele>
        <time>2021-08-10 08:10:04</time>
      </trkpt>
      <trkpt lat="42.83944" lon="-0.49254">
        <ele>1943.2</ele>
        <time>2021-08-10 08:10:05</time>
      </trkpt>
      <trkpt lat="42.83942" lon="-0.49255">
        <ele>1943.4</ele>
        <time>2021-08-10 08:10:06</time>
      </trkpt>
      <trkpt lat="42.83941" lon="-0.49256">
        <ele>1943.4</ele>
        <time>2021-08-10 08:10:07</time>
      </trkpt>
      <trkpt lat="42.8394" lon="-0.49257">
        <ele>1943.6</ele>
        <time>2021-08-10 08:10:08</time>
      </trkpt>
      <trkpt lat="42.83939" lon="-0.49258">
        <ele>1943.6</ele>
        <time>2021-08-10 08:10:09</time>
      </trkpt>
      <trkpt lat="42.83938" lon="-0.49259">
        <ele>1943.6</ele>
        <time>2021-08-10 08:10:10</time>
      </trkpt>
      <trkpt lat="42.83936" lon="-0.49261">
        <ele>1943.8</ele>
        <time>2021-08-10 08:10:11</time>
      </trkpt>
      <trkpt lat="42.83935" lon="-0.49261">
        <ele>1944</ele>
        <time>2021-08-10 08:10:12</time>
      </trkpt>
      <trkpt lat="42.83934" lon="-0.49262">
        <ele>1944.2</ele>
        <time>2021-08-10 08:10:13</time>
      </trkpt>
      <trkpt lat="42.83934" lon="-0.49264">
        <ele>1944.4</ele>
        <time>2021-08-10 08:10:14</time>
      </trkpt>
      <trkpt lat="42.83933" lon="-0.49265">
        <ele>1944.2</ele>
        <time>2021-08-10 08:10:15</time>
      </trkpt>
      <trkpt lat="42.83933" lon="-0.49265">
        <ele>1944.2</ele>
        <time>2021-08-10 08:10:16</time>
      </trkpt>
      <trkpt lat="42.83932" lon="-0.49266">
        <ele>1944.4</ele>
        <time>2021-08-10 08:10:17</time>
      </trkpt>
      <trkpt lat="42.83932" lon="-0.49267">
        <ele>1944.6</ele>
        <time>2021-08-10 08:10:18</time>
      </trkpt>
      <trkpt lat="42.83932" lon="-0.4927">
        <ele>1944.6</ele>
        <time>2021-08-10 08:10:19</time>
      </trkpt>
      <trkpt lat="42.83931" lon="-0.49271">
        <ele>1944.6</ele>
        <time>2021-08-10 08:10:20</time>
      </trkpt>
      <trkpt lat="42.83931" lon="-0.49272">
        <ele>1944.4</ele>
        <time>2021-08-10 08:10:21</time>
      </trkpt>
      <trkpt lat="42.8393" lon="-0.49274">
        <ele>1944.4</ele>
        <time>2021-08-10 08:10:22</time>
      </trkpt>
      <trkpt lat="42.83929" lon="-0.49275">
        <ele>1944.6</ele>
        <time>2021-08-10 08:10:23</time>
      </trkpt>
      <trkpt lat="42.83927" lon="-0.49277">
        <ele>1944.8</ele>
        <time>2021-08-10 08:10:24</time>
      </trkpt>
      <trkpt lat="42.83926" lon="-0.49278">
        <ele>1944.8</ele>
        <time>2021-08-10 08:10:25</time>
      </trkpt>
      <trkpt lat="42.83925" lon="-0.49279">
        <ele>1945</ele>
        <time>2021-08-10 08:10:26</time>
      </trkpt>
      <trkpt lat="42.83924" lon="-0.4928">
        <ele>1945</ele>
        <time>2021-08-10 08:10:27</time>
      </trkpt>
      <trkpt lat="42.83924" lon="-0.49281">
        <ele>1945.2</ele>
        <time>2021-08-10 08:10:28</time>
      </trkpt>
      <trkpt lat="42.83924" lon="-0.49283">
        <ele>1945</ele>
        <time>2021-08-10 08:10:29</time>
      </trkpt>
      <trkpt lat="42.83924" lon="-0.49284">
        <ele>1945</ele>
        <time>2021-08-10 08:10:30</time>
      </trkpt>
      <trkpt lat="42.83923" lon="-0.49286">
        <ele>1945.2</ele>
        <time>2021-08-10 08:10:31</time>
      </trkpt>
      <trkpt lat="42.83922" lon="-0.49287">
        <ele>1945.4</ele>
        <time>2021-08-10 08:10:32</time>
      </trkpt>
      <trkpt lat="42.83922" lon="-0.49288">
        <ele>1945.8</ele>
        <time>2021-08-10 08:10:33</time>
      </trkpt>
      <trkpt lat="42.83921" lon="-0.4929">
        <ele>1946</ele>
        <time>2021-08-10 08:10:34</time>
      </trkpt>
      <trkpt lat="42.83921" lon="-0.49291">
        <ele>1946</ele>
        <time>2021-08-10 08:10:35</time>
      </trkpt>
      <trkpt lat="42.8392" lon="-0.49292">
        <ele>1946.2</ele>
        <time>2021-08-10 08:10:36</time>
      </trkpt>
      <trkpt lat="42.83919" lon="-0.49294">
        <ele>1946.2</ele>
        <time>2021-08-10 08:10:37</time>
      </trkpt>
      <trkpt lat="42.83919" lon="-0.49295">
        <ele>1946.2</ele>
        <time>2021-08-10 08:10:38</time>
      </trkpt>
      <trkpt lat="42.83918" lon="-0.49296">
        <ele>1946.4</ele>
        <time>2021-08-10 08:10:39</time>
      </trkpt>
      <trkpt lat="42.83918" lon="-0.49297">
        <ele>1946.6</ele>
        <time>2021-08-10 08:10:40</time>
      </trkpt>
      <trkpt lat="42.83917" lon="-0.49298">
        <ele>1946.6</ele>
        <time>2021-08-10 08:10:41</time>
      </trkpt>
      <trkpt lat="42.83917" lon="-0.49299">
        <ele>1946.8</ele>
        <time>2021-08-10 08:10:42</time>
      </trkpt>
      <trkpt lat="42.83917" lon="-0.493">
        <ele>1947.2</ele>
        <time>2021-08-10 08:10:43</time>
      </trkpt>
      <trkpt lat="42.83916" lon="-0.49301">
        <ele>1947.2</ele>
        <time>2021-08-10 08:10:44</time>
      </trkpt>
      <trkpt lat="42.83916" lon="-0.49302">
        <ele>1947.4</ele>
        <time>2021-08-10 08:10:45</time>
      </trkpt>
      <trkpt lat="42.83915" lon="-0.49303">
        <ele>1947.6</ele>
        <time>2021-08-10 08:10:46</time>
      </trkpt>
      <trkpt lat="42.83915" lon="-0.49303">
        <ele>1947.8</ele>
        <time>2021-08-10 08:10:47</time>
      </trkpt>
      <trkpt lat="42.83914" lon="-0.49303">
        <ele>1948.2</ele>
        <time>2021-08-10 08:10:48</time>
      </trkpt>
      <trkpt lat="42.83913" lon="-0.49302">
        <ele>1948.2</ele>
        <time>2021-08-10 08:10:49</time>
      </trkpt>
      <trkpt lat="42.83913" lon="-0.49302">
        <ele>1948.6</ele>
        <time>2021-08-10 08:10:50</time>
      </trkpt>
      <trkpt lat="42.83912" lon="-0.49302">
        <ele>1948.8</ele>
        <time>2021-08-10 08:10:51</time>
      </trkpt>
      <trkpt lat="42.83912" lon="-0.49303">
        <ele>1948.8</ele>
        <time>2021-08-10 08:10:52</time>
      </trkpt>
      <trkpt lat="42.83912" lon="-0.49304">
        <ele>1949</ele>
        <time>2021-08-10 08:10:53</time>
      </trkpt>
      <trkpt lat="42.83911" lon="-0.49303">
        <ele>1949</ele>
        <time>2021-08-10 08:10:54</time>
      </trkpt>
      <trkpt lat="42.8391" lon="-0.49303">
        <ele>1949.2</ele>
        <time>2021-08-10 08:10:55</time>
      </trkpt>
      <trkpt lat="42.83909" lon="-0.49302">
        <ele>1949.4</ele>
        <time>2021-08-10 08:10:56</time>
      </trkpt>
      <trkpt lat="42.83909" lon="-0.49302">
        <ele>1949.6</ele>
        <time>2021-08-10 08:10:57</time>
      </trkpt>
      <trkpt lat="42.83908" lon="-0.49302">
        <ele>1949.8</ele>
        <time>2021-08-10 08:10:58</time>
      </trkpt>
      <trkpt lat="42.83907" lon="-0.49302">
        <ele>1950</ele>
        <time>2021-08-10 08:10:59</time>
      </trkpt>
      <trkpt lat="42.83906" lon="-0.49302">
        <ele>1950.4</ele>
        <time>2021-08-10 08:11:00</time>
      </trkpt>
      <trkpt lat="42.83906" lon="-0.49302">
        <ele>1950.6</ele>
        <time>2021-08-10 08:11:01</time>
      </trkpt>
      <trkpt lat="42.83906" lon="-0.49303">
        <ele>1950.8</ele>
        <time>2021-08-10 08:11:02</time>
      </trkpt>
      <trkpt lat="42.83905" lon="-0.49304">
        <ele>1950.8</ele>
        <time>2021-08-10 08:11:03</time>
      </trkpt>
      <trkpt lat="42.83905" lon="-0.49304">
        <ele>1951</ele>
        <time>2021-08-10 08:11:04</time>
      </trkpt>
      <trkpt lat="42.83904" lon="-0.49305">
        <ele>1951</ele>
        <time>2021-08-10 08:11:05</time>
      </trkpt>
      <trkpt lat="42.83904" lon="-0.49306">
        <ele>1951.2</ele>
        <time>2021-08-10 08:11:06</time>
      </trkpt>
      <trkpt lat="42.83903" lon="-0.49307">
        <ele>1951.2</ele>
        <time>2021-08-10 08:11:07</time>
      </trkpt>
      <trkpt lat="42.83902" lon="-0.49308">
        <ele>1951.4</ele>
        <time>2021-08-10 08:11:08</time>
      </trkpt>
      <trkpt lat="42.83901" lon="-0.49309">
        <ele>1951.2</ele>
        <time>2021-08-10 08:11:09</time>
      </trkpt>
      <trkpt lat="42.83901" lon="-0.49309">
        <ele>1951.2</ele>
        <time>2021-08-10 08:11:10</time>
      </trkpt>
      <trkpt lat="42.83899" lon="-0.49309">
        <ele>1951.4</ele>
        <time>2021-08-10 08:11:11</time>
      </trkpt>
      <trkpt lat="42.83899" lon="-0.49309">
        <ele>1951.4</ele>
        <time>2021-08-10 08:11:12</time>
      </trkpt>
      <trkpt lat="42.83898" lon="-0.49309">
        <ele>1951.6</ele>
        <time>2021-08-10 08:11:13</time>
      </trkpt>
      <trkpt lat="42.83897" lon="-0.4931">
        <ele>1951.4</ele>
        <time>2021-08-10 08:11:14</time>
      </trkpt>
      <trkpt lat="42.83896" lon="-0.49309">
        <ele>1951.4</ele>
        <time>2021-08-10 08:11:15</time>
      </trkpt>
      <trkpt lat="42.83896" lon="-0.49309">
        <ele>1951.2</ele>
        <time>2021-08-10 08:11:16</time>
      </trkpt>
      <trkpt lat="42.83896" lon="-0.4931">
        <ele>1951.2</ele>
        <time>2021-08-10 08:11:17</time>
      </trkpt>
      <trkpt lat="42.83896" lon="-0.49309">
        <ele>1951.4</ele>
        <time>2021-08-10 08:11:18</time>
      </trkpt>
      <trkpt lat="42.83895" lon="-0.49309">
        <ele>1951.2</ele>
        <time>2021-08-10 08:11:19</time>
      </trkpt>
      <trkpt lat="42.83894" lon="-0.49309">
        <ele>1951</ele>
        <time>2021-08-10 08:11:27</time>
      </trkpt>
      <trkpt lat="42.83893" lon="-0.49309">
        <ele>1950.6</ele>
        <time>2021-08-10 08:11:28</time>
      </trkpt>
      <trkpt lat="42.83892" lon="-0.49309">
        <ele>1950.4</ele>
        <time>2021-08-10 08:11:29</time>
      </trkpt>
      <trkpt lat="42.83892" lon="-0.49309">
        <ele>1950.6</ele>
        <time>2021-08-10 08:11:30</time>
      </trkpt>
      <trkpt lat="42.83891" lon="-0.49309">
        <ele>1950.4</ele>
        <time>2021-08-10 08:11:31</time>
      </trkpt>
      <trkpt lat="42.83891" lon="-0.49309">
        <ele>1950.2</ele>
        <time>2021-08-10 08:11:32</time>
      </trkpt>
      <trkpt lat="42.8389" lon="-0.49308">
        <ele>1950.2</ele>
        <time>2021-08-10 08:11:33</time>
      </trkpt>
      <trkpt lat="42.83889" lon="-0.49309">
        <ele>1950</ele>
        <time>2021-08-10 08:11:34</time>
      </trkpt>
      <trkpt lat="42.83888" lon="-0.49308">
        <ele>1949.8</ele>
        <time>2021-08-10 08:11:35</time>
      </trkpt>
      <trkpt lat="42.83888" lon="-0.49306">
        <ele>1950</ele>
        <time>2021-08-10 08:11:36</time>
      </trkpt>
      <trkpt lat="42.83888" lon="-0.49308">
        <ele>1949.8</ele>
        <time>2021-08-10 08:11:37</time>
      </trkpt>
      <trkpt lat="42.83887" lon="-0.49308">
        <ele>1950</ele>
        <time>2021-08-10 08:11:38</time>
      </trkpt>
      <trkpt lat="42.83887" lon="-0.49306">
        <ele>1949.6</ele>
        <time>2021-08-10 08:11:39</time>
      </trkpt>
      <trkpt lat="42.83886" lon="-0.49305">
        <ele>1949.6</ele>
        <time>2021-08-10 08:11:40</time>
      </trkpt>
      <trkpt lat="42.83885" lon="-0.49304">
        <ele>1949.4</ele>
        <time>2021-08-10 08:11:41</time>
      </trkpt>
      <trkpt lat="42.83884" lon="-0.49303">
        <ele>1949.4</ele>
        <time>2021-08-10 08:11:42</time>
      </trkpt>
      <trkpt lat="42.83883" lon="-0.49302">
        <ele>1949.4</ele>
        <time>2021-08-10 08:11:43</time>
      </trkpt>
      <trkpt lat="42.83882" lon="-0.493">
        <ele>1949.2</ele>
        <time>2021-08-10 08:11:44</time>
      </trkpt>
      <trkpt lat="42.83881" lon="-0.493">
        <ele>1949.2</ele>
        <time>2021-08-10 08:11:45</time>
      </trkpt>
      <trkpt lat="42.83881" lon="-0.49299">
        <ele>1949.4</ele>
        <time>2021-08-10 08:11:46</time>
      </trkpt>
      <trkpt lat="42.8388" lon="-0.49298">
        <ele>1949.4</ele>
        <time>2021-08-10 08:11:47</time>
      </trkpt>
      <trkpt lat="42.8388" lon="-0.49297">
        <ele>1949.4</ele>
        <time>2021-08-10 08:11:48</time>
      </trkpt>
      <trkpt lat="42.83879" lon="-0.49297">
        <ele>1949.2</ele>
        <time>2021-08-10 08:11:49</time>
      </trkpt>
      <trkpt lat="42.83878" lon="-0.49296">
        <ele>1949</ele>
        <time>2021-08-10 08:11:50</time>
      </trkpt>
      <trkpt lat="42.83878" lon="-0.49295">
        <ele>1948.6</ele>
        <time>2021-08-10 08:11:51</time>
      </trkpt>
      <trkpt lat="42.83878" lon="-0.49293">
        <ele>1948.4</ele>
        <time>2021-08-10 08:11:52</time>
      </trkpt>
      <trkpt lat="42.83876" lon="-0.49294">
        <ele>1948</ele>
        <time>2021-08-10 08:11:53</time>
      </trkpt>
      <trkpt lat="42.83875" lon="-0.49295">
        <ele>1947.8</ele>
        <time>2021-08-10 08:11:54</time>
      </trkpt>
      <trkpt lat="42.83874" lon="-0.49295">
        <ele>1947.8</ele>
        <time>2021-08-10 08:11:55</time>
      </trkpt>
      <trkpt lat="42.83873" lon="-0.49293">
        <ele>1947.6</ele>
        <time>2021-08-10 08:11:56</time>
      </trkpt>
      <trkpt lat="42.83872" lon="-0.49292">
        <ele>1947.4</ele>
        <time>2021-08-10 08:11:57</time>
      </trkpt>
      <trkpt lat="42.83871" lon="-0.49291">
        <ele>1947.4</ele>
        <time>2021-08-10 08:11:58</time>
      </trkpt>
      <trkpt lat="42.8387" lon="-0.49289">
        <ele>1947</ele>
        <time>2021-08-10 08:11:59</time>
      </trkpt>
      <trkpt lat="42.83869" lon="-0.49289">
        <ele>1946.8</ele>
        <time>2021-08-10 08:12:00</time>
      </trkpt>
      <trkpt lat="42.83868" lon="-0.49287">
        <ele>1946.8</ele>
        <time>2021-08-10 08:12:01</time>
      </trkpt>
      <trkpt lat="42.83868" lon="-0.49287">
        <ele>1946.8</ele>
        <time>2021-08-10 08:12:02</time>
      </trkpt>
      <trkpt lat="42.83867" lon="-0.49284">
        <ele>1947</ele>
        <time>2021-08-10 08:12:03</time>
      </trkpt>
      <trkpt lat="42.83867" lon="-0.49284">
        <ele>1947</ele>
        <time>2021-08-10 08:12:04</time>
      </trkpt>
      <trkpt lat="42.83866" lon="-0.49284">
        <ele>1947.2</ele>
        <time>2021-08-10 08:12:05</time>
      </trkpt>
      <trkpt lat="42.83866" lon="-0.49283">
        <ele>1947.2</ele>
        <time>2021-08-10 08:12:06</time>
      </trkpt>
      <trkpt lat="42.83865" lon="-0.49283">
        <ele>1947.4</ele>
        <time>2021-08-10 08:12:07</time>
      </trkpt>
      <trkpt lat="42.83864" lon="-0.49283">
        <ele>1947.4</ele>
        <time>2021-08-10 08:12:08</time>
      </trkpt>
      <trkpt lat="42.83864" lon="-0.49282">
        <ele>1947.4</ele>
        <time>2021-08-10 08:12:09</time>
      </trkpt>
      <trkpt lat="42.83862" lon="-0.49284">
        <ele>1947.4</ele>
        <time>2021-08-10 08:12:10</time>
      </trkpt>
      <trkpt lat="42.83861" lon="-0.49284">
        <ele>1947.6</ele>
        <time>2021-08-10 08:12:11</time>
      </trkpt>
      <trkpt lat="42.8386" lon="-0.49284">
        <ele>1947.6</ele>
        <time>2021-08-10 08:12:12</time>
      </trkpt>
      <trkpt lat="42.83859" lon="-0.49282">
        <ele>1947.8</ele>
        <time>2021-08-10 08:12:13</time>
      </trkpt>
      <trkpt lat="42.83858" lon="-0.49283">
        <ele>1947.8</ele>
        <time>2021-08-10 08:12:14</time>
      </trkpt>
      <trkpt lat="42.83857" lon="-0.49282">
        <ele>1947.6</ele>
        <time>2021-08-10 08:12:15</time>
      </trkpt>
      <trkpt lat="42.83856" lon="-0.49283">
        <ele>1947.8</ele>
        <time>2021-08-10 08:12:16</time>
      </trkpt>
      <trkpt lat="42.83855" lon="-0.49283">
        <ele>1947.8</ele>
        <time>2021-08-10 08:12:17</time>
      </trkpt>
      <trkpt lat="42.83854" lon="-0.49283">
        <ele>1947.8</ele>
        <time>2021-08-10 08:12:18</time>
      </trkpt>
      <trkpt lat="42.83853" lon="-0.49282">
        <ele>1948</ele>
        <time>2021-08-10 08:12:19</time>
      </trkpt>
      <trkpt lat="42.83852" lon="-0.49282">
        <ele>1948.2</ele>
        <time>2021-08-10 08:12:20</time>
      </trkpt>
      <trkpt lat="42.83852" lon="-0.4928">
        <ele>1948</ele>
        <time>2021-08-10 08:12:21</time>
      </trkpt>
      <trkpt lat="42.83851" lon="-0.49281">
        <ele>1948</ele>
        <time>2021-08-10 08:12:22</time>
      </trkpt>
      <trkpt lat="42.8385" lon="-0.49281">
        <ele>1948.2</ele>
        <time>2021-08-10 08:12:23</time>
      </trkpt>
      <trkpt lat="42.8385" lon="-0.4928">
        <ele>1948.2</ele>
        <time>2021-08-10 08:12:24</time>
      </trkpt>
      <trkpt lat="42.83849" lon="-0.4928">
        <ele>1948.2</ele>
        <time>2021-08-10 08:12:25</time>
      </trkpt>
      <trkpt lat="42.83849" lon="-0.4928">
        <ele>1948</ele>
        <time>2021-08-10 08:12:26</time>
      </trkpt>
      <trkpt lat="42.83848" lon="-0.4928">
        <ele>1948.4</ele>
        <time>2021-08-10 08:12:27</time>
      </trkpt>
      <trkpt lat="42.83846" lon="-0.4928">
        <ele>1948.4</ele>
        <time>2021-08-10 08:12:28</time>
      </trkpt>
      <trkpt lat="42.83845" lon="-0.4928">
        <ele>1948.2</ele>
        <time>2021-08-10 08:12:29</time>
      </trkpt>
      <trkpt lat="42.83844" lon="-0.49279">
        <ele>1948.6</ele>
        <time>2021-08-10 08:12:30</time>
      </trkpt>
      <trkpt lat="42.83843" lon="-0.49278">
        <ele>1948.8</ele>
        <time>2021-08-10 08:12:31</time>
      </trkpt>
      <trkpt lat="42.83842" lon="-0.49277">
        <ele>1948.4</ele>
        <time>2021-08-10 08:12:32</time>
      </trkpt>
      <trkpt lat="42.83841" lon="-0.49277">
        <ele>1948</ele>
        <time>2021-08-10 08:12:33</time>
      </trkpt>
      <trkpt lat="42.83841" lon="-0.49277">
        <ele>1948.6</ele>
        <time>2021-08-10 08:12:34</time>
      </trkpt>
      <trkpt lat="42.83841" lon="-0.49276">
        <ele>1949.4</ele>
        <time>2021-08-10 08:12:35</time>
      </trkpt>
      <trkpt lat="42.83841" lon="-0.49276">
        <ele>1949.2</ele>
        <time>2021-08-10 08:12:36</time>
      </trkpt>
      <trkpt lat="42.8384" lon="-0.49276">
        <ele>1949</ele>
        <time>2021-08-10 08:12:37</time>
      </trkpt>
      <trkpt lat="42.83839" lon="-0.49276">
        <ele>1949</ele>
        <time>2021-08-10 08:12:38</time>
      </trkpt>
      <trkpt lat="42.83838" lon="-0.49276">
        <ele>1949.4</ele>
        <time>2021-08-10 08:12:40</time>
      </trkpt>
      <trkpt lat="42.83837" lon="-0.49276">
        <ele>1949.4</ele>
        <time>2021-08-10 08:12:41</time>
      </trkpt>
      <trkpt lat="42.83836" lon="-0.49276">
        <ele>1949.6</ele>
        <time>2021-08-10 08:12:42</time>
      </trkpt>
      <trkpt lat="42.83834" lon="-0.49276">
        <ele>1949.2</ele>
        <time>2021-08-10 08:12:43</time>
      </trkpt>
      <trkpt lat="42.83833" lon="-0.49276">
        <ele>1949</ele>
        <time>2021-08-10 08:12:44</time>
      </trkpt>
      <trkpt lat="42.83832" lon="-0.49276">
        <ele>1949</ele>
        <time>2021-08-10 08:12:45</time>
      </trkpt>
      <trkpt lat="42.83831" lon="-0.49276">
        <ele>1949.2</ele>
        <time>2021-08-10 08:12:46</time>
      </trkpt>
      <trkpt lat="42.8383" lon="-0.49277">
        <ele>1949.4</ele>
        <time>2021-08-10 08:12:47</time>
      </trkpt>
      <trkpt lat="42.83829" lon="-0.49276">
        <ele>1949.4</ele>
        <time>2021-08-10 08:12:48</time>
      </trkpt>
      <trkpt lat="42.83828" lon="-0.49277">
        <ele>1949.4</ele>
        <time>2021-08-10 08:12:49</time>
      </trkpt>
      <trkpt lat="42.83827" lon="-0.49277">
        <ele>1949.4</ele>
        <time>2021-08-10 08:12:50</time>
      </trkpt>
      <trkpt lat="42.83827" lon="-0.49277">
        <ele>1949.4</ele>
        <time>2021-08-10 08:12:51</time>
      </trkpt>
      <trkpt lat="42.83825" lon="-0.49277">
        <ele>1949.6</ele>
        <time>2021-08-10 08:12:52</time>
      </trkpt>
      <trkpt lat="42.83824" lon="-0.49279">
        <ele>1949.8</ele>
        <time>2021-08-10 08:12:53</time>
      </trkpt>
      <trkpt lat="42.83824" lon="-0.49281">
        <ele>1949.6</ele>
        <time>2021-08-10 08:12:54</time>
      </trkpt>
      <trkpt lat="42.83822" lon="-0.49283">
        <ele>1949.4</ele>
        <time>2021-08-10 08:12:55</time>
      </trkpt>
      <trkpt lat="42.83821" lon="-0.49285">
        <ele>1949.6</ele>
        <time>2021-08-10 08:12:56</time>
      </trkpt>
      <trkpt lat="42.8382" lon="-0.49286">
        <ele>1949.4</ele>
        <time>2021-08-10 08:12:57</time>
      </trkpt>
      <trkpt lat="42.83818" lon="-0.49286">
        <ele>1949.4</ele>
        <time>2021-08-10 08:12:58</time>
      </trkpt>
      <trkpt lat="42.83817" lon="-0.49286">
        <ele>1950</ele>
        <time>2021-08-10 08:12:59</time>
      </trkpt>
      <trkpt lat="42.83818" lon="-0.49288">
        <ele>1949.8</ele>
        <time>2021-08-10 08:13:00</time>
      </trkpt>
      <trkpt lat="42.83817" lon="-0.49289">
        <ele>1949.8</ele>
        <time>2021-08-10 08:13:01</time>
      </trkpt>
      <trkpt lat="42.83815" lon="-0.49289">
        <ele>1950</ele>
        <time>2021-08-10 08:13:02</time>
      </trkpt>
      <trkpt lat="42.83814" lon="-0.49288">
        <ele>1949.4</ele>
        <time>2021-08-10 08:13:03</time>
      </trkpt>
      <trkpt lat="42.83813" lon="-0.49288">
        <ele>1949.2</ele>
        <time>2021-08-10 08:13:04</time>
      </trkpt>
      <trkpt lat="42.83812" lon="-0.49288">
        <ele>1949.2</ele>
        <time>2021-08-10 08:13:05</time>
      </trkpt>
      <trkpt lat="42.83811" lon="-0.49288">
        <ele>1949.2</ele>
        <time>2021-08-10 08:13:06</time>
      </trkpt>
      <trkpt lat="42.83809" lon="-0.49287">
        <ele>1949</ele>
        <time>2021-08-10 08:13:07</time>
      </trkpt>
      <trkpt lat="42.83808" lon="-0.49287">
        <ele>1948.8</ele>
        <time>2021-08-10 08:13:08</time>
      </trkpt>
      <trkpt lat="42.83807" lon="-0.49286">
        <ele>1948.4</ele>
        <time>2021-08-10 08:13:09</time>
      </trkpt>
      <trkpt lat="42.83806" lon="-0.49285">
        <ele>1948.2</ele>
        <time>2021-08-10 08:13:10</time>
      </trkpt>
      <trkpt lat="42.83805" lon="-0.49285">
        <ele>1948.4</ele>
        <time>2021-08-10 08:13:11</time>
      </trkpt>
      <trkpt lat="42.83804" lon="-0.49285">
        <ele>1948.6</ele>
        <time>2021-08-10 08:13:12</time>
      </trkpt>
      <trkpt lat="42.83804" lon="-0.49284">
        <ele>1948.6</ele>
        <time>2021-08-10 08:13:13</time>
      </trkpt>
      <trkpt lat="42.83803" lon="-0.49283">
        <ele>1948.6</ele>
        <time>2021-08-10 08:13:14</time>
      </trkpt>
      <trkpt lat="42.83802" lon="-0.49283">
        <ele>1948.4</ele>
        <time>2021-08-10 08:13:15</time>
      </trkpt>
      <trkpt lat="42.83802" lon="-0.49282">
        <ele>1948.6</ele>
        <time>2021-08-10 08:13:16</time>
      </trkpt>
      <trkpt lat="42.83801" lon="-0.49282">
        <ele>1948.2</ele>
        <time>2021-08-10 08:13:17</time>
      </trkpt>
      <trkpt lat="42.838" lon="-0.49281">
        <ele>1948.4</ele>
        <time>2021-08-10 08:13:18</time>
      </trkpt>
      <trkpt lat="42.83801" lon="-0.4928">
        <ele>1948.2</ele>
        <time>2021-08-10 08:13:19</time>
      </trkpt>
      <trkpt lat="42.838" lon="-0.49279">
        <ele>1948.4</ele>
        <time>2021-08-10 08:13:20</time>
      </trkpt>
      <trkpt lat="42.83799" lon="-0.49279">
        <ele>1948.6</ele>
        <time>2021-08-10 08:13:21</time>
      </trkpt>
      <trkpt lat="42.83798" lon="-0.49278">
        <ele>1948.6</ele>
        <time>2021-08-10 08:13:22</time>
      </trkpt>
      <trkpt lat="42.83797" lon="-0.49277">
        <ele>1948.6</ele>
        <time>2021-08-10 08:13:23</time>
      </trkpt>
      <trkpt lat="42.83796" lon="-0.49277">
        <ele>1948.6</ele>
        <time>2021-08-10 08:13:24</time>
      </trkpt>
      <trkpt lat="42.83796" lon="-0.49277">
        <ele>1948.6</ele>
        <time>2021-08-10 08:13:25</time>
      </trkpt>
      <trkpt lat="42.83795" lon="-0.49277">
        <ele>1948.4</ele>
        <time>2021-08-10 08:13:26</time>
      </trkpt>
      <trkpt lat="42.83794" lon="-0.49277">
        <ele>1948.6</ele>
        <time>2021-08-10 08:13:27</time>
      </trkpt>
      <trkpt lat="42.83794" lon="-0.49277">
        <ele>1948.8</ele>
        <time>2021-08-10 08:13:28</time>
      </trkpt>
      <trkpt lat="42.83791" lon="-0.49276">
        <ele>1949</ele>
        <time>2021-08-10 08:13:29</time>
      </trkpt>
      <trkpt lat="42.8379" lon="-0.49275">
        <ele>1948.8</ele>
        <time>2021-08-10 08:13:30</time>
      </trkpt>
      <trkpt lat="42.8379" lon="-0.49275">
        <ele>1949</ele>
        <time>2021-08-10 08:13:31</time>
      </trkpt>
      <trkpt lat="42.83789" lon="-0.49274">
        <ele>1949.4</ele>
        <time>2021-08-10 08:13:32</time>
      </trkpt>
      <trkpt lat="42.83789" lon="-0.49274">
        <ele>1949.4</ele>
        <time>2021-08-10 08:13:33</time>
      </trkpt>
      <trkpt lat="42.83787" lon="-0.49274">
        <ele>1949.4</ele>
        <time>2021-08-10 08:13:34</time>
      </trkpt>
      <trkpt lat="42.83785" lon="-0.49272">
        <ele>1949.4</ele>
        <time>2021-08-10 08:13:35</time>
      </trkpt>
      <trkpt lat="42.83784" lon="-0.49272">
        <ele>1949.4</ele>
        <time>2021-08-10 08:13:36</time>
      </trkpt>
      <trkpt lat="42.83783" lon="-0.49271">
        <ele>1949.6</ele>
        <time>2021-08-10 08:13:37</time>
      </trkpt>
      <trkpt lat="42.83783" lon="-0.49271">
        <ele>1949.8</ele>
        <time>2021-08-10 08:13:38</time>
      </trkpt>
      <trkpt lat="42.83783" lon="-0.49271">
        <ele>1950.2</ele>
        <time>2021-08-10 08:13:39</time>
      </trkpt>
      <trkpt lat="42.83782" lon="-0.49271">
        <ele>1950.4</ele>
        <time>2021-08-10 08:13:40</time>
      </trkpt>
      <trkpt lat="42.8378" lon="-0.4927">
        <ele>1950.6</ele>
        <time>2021-08-10 08:13:41</time>
      </trkpt>
      <trkpt lat="42.83779" lon="-0.49269">
        <ele>1950.4</ele>
        <time>2021-08-10 08:13:42</time>
      </trkpt>
      <trkpt lat="42.83778" lon="-0.49268">
        <ele>1950.6</ele>
        <time>2021-08-10 08:13:43</time>
      </trkpt>
      <trkpt lat="42.83776" lon="-0.49268">
        <ele>1950.6</ele>
        <time>2021-08-10 08:13:44</time>
      </trkpt>
      <trkpt lat="42.83776" lon="-0.49268">
        <ele>1950.4</ele>
        <time>2021-08-10 08:13:45</time>
      </trkpt>
      <trkpt lat="42.83775" lon="-0.49267">
        <ele>1950.6</ele>
        <time>2021-08-10 08:13:46</time>
      </trkpt>
      <trkpt lat="42.83774" lon="-0.49266">
        <ele>1950.6</ele>
        <time>2021-08-10 08:13:47</time>
      </trkpt>
      <trkpt lat="42.83773" lon="-0.49258">
        <ele>1950.8</ele>
        <time>2021-08-10 08:13:48</time>
      </trkpt>
      <trkpt lat="42.83772" lon="-0.49257">
        <ele>1950.8</ele>
        <time>2021-08-10 08:13:49</time>
      </trkpt>
      <trkpt lat="42.83771" lon="-0.49256">
        <ele>1951</ele>
        <time>2021-08-10 08:13:50</time>
      </trkpt>
      <trkpt lat="42.83771" lon="-0.49255">
        <ele>1950.8</ele>
        <time>2021-08-10 08:13:51</time>
      </trkpt>
      <trkpt lat="42.8377" lon="-0.49254">
        <ele>1950.8</ele>
        <time>2021-08-10 08:13:52</time>
      </trkpt>
      <trkpt lat="42.83769" lon="-0.49252">
        <ele>1950.8</ele>
        <time>2021-08-10 08:13:53</time>
      </trkpt>
      <trkpt lat="42.83767" lon="-0.49251">
        <ele>1951</ele>
        <time>2021-08-10 08:13:54</time>
      </trkpt>
      <trkpt lat="42.83767" lon="-0.49249">
        <ele>1951</ele>
        <time>2021-08-10 08:13:55</time>
      </trkpt>
      <trkpt lat="42.83766" lon="-0.49248">
        <ele>1951.2</ele>
        <time>2021-08-10 08:13:56</time>
      </trkpt>
      <trkpt lat="42.83765" lon="-0.49247">
        <ele>1951.2</ele>
        <time>2021-08-10 08:13:57</time>
      </trkpt>
      <trkpt lat="42.83764" lon="-0.49245">
        <ele>1951.4</ele>
        <time>2021-08-10 08:13:58</time>
      </trkpt>
      <trkpt lat="42.83763" lon="-0.49244">
        <ele>1951.2</ele>
        <time>2021-08-10 08:13:59</time>
      </trkpt>
      <trkpt lat="42.83763" lon="-0.49243">
        <ele>1951.2</ele>
        <time>2021-08-10 08:14:00</time>
      </trkpt>
      <trkpt lat="42.83762" lon="-0.49242">
        <ele>1951</ele>
        <time>2021-08-10 08:14:01</time>
      </trkpt>
      <trkpt lat="42.83761" lon="-0.49241">
        <ele>1951</ele>
        <time>2021-08-10 08:14:02</time>
      </trkpt>
      <trkpt lat="42.83763" lon="-0.49238">
        <ele>1951</ele>
        <time>2021-08-10 08:14:03</time>
      </trkpt>
      <trkpt lat="42.83763" lon="-0.49236">
        <ele>1951.2</ele>
        <time>2021-08-10 08:14:04</time>
      </trkpt>
      <trkpt lat="42.83762" lon="-0.49235">
        <ele>1951.4</ele>
        <time>2021-08-10 08:14:05</time>
      </trkpt>
      <trkpt lat="42.83761" lon="-0.49235">
        <ele>1951.6</ele>
        <time>2021-08-10 08:14:06</time>
      </trkpt>
      <trkpt lat="42.83761" lon="-0.49234">
        <ele>1951.4</ele>
        <time>2021-08-10 08:14:07</time>
      </trkpt>
      <trkpt lat="42.8376" lon="-0.49234">
        <ele>1951.4</ele>
        <time>2021-08-10 08:14:08</time>
      </trkpt>
      <trkpt lat="42.83758" lon="-0.49233">
        <ele>1951.6</ele>
        <time>2021-08-10 08:14:09</time>
      </trkpt>
      <trkpt lat="42.83758" lon="-0.49232">
        <ele>1951.6</ele>
        <time>2021-08-10 08:14:10</time>
      </trkpt>
      <trkpt lat="42.83758" lon="-0.49231">
        <ele>1951.6</ele>
        <time>2021-08-10 08:14:11</time>
      </trkpt>
      <trkpt lat="42.83757" lon="-0.49229">
        <ele>1951.8</ele>
        <time>2021-08-10 08:14:12</time>
      </trkpt>
      <trkpt lat="42.83756" lon="-0.49228">
        <ele>1951.6</ele>
        <time>2021-08-10 08:14:13</time>
      </trkpt>
      <trkpt lat="42.83755" lon="-0.49227">
        <ele>1951.8</ele>
        <time>2021-08-10 08:14:14</time>
      </trkpt>
      <trkpt lat="42.83755" lon="-0.49227">
        <ele>1951.8</ele>
        <time>2021-08-10 08:14:15</time>
      </trkpt>
      <trkpt lat="42.83754" lon="-0.49227">
        <ele>1952</ele>
        <time>2021-08-10 08:14:16</time>
      </trkpt>
      <trkpt lat="42.83753" lon="-0.49227">
        <ele>1952</ele>
        <time>2021-08-10 08:14:17</time>
      </trkpt>
      <trkpt lat="42.83752" lon="-0.49226">
        <ele>1952</ele>
        <time>2021-08-10 08:14:18</time>
      </trkpt>
      <trkpt lat="42.83752" lon="-0.49225">
        <ele>1952</ele>
        <time>2021-08-10 08:14:19</time>
      </trkpt>
      <trkpt lat="42.83751" lon="-0.49224">
        <ele>1952.2</ele>
        <time>2021-08-10 08:14:20</time>
      </trkpt>
      <trkpt lat="42.83749" lon="-0.49223">
        <ele>1952.2</ele>
        <time>2021-08-10 08:14:21</time>
      </trkpt>
      <trkpt lat="42.83748" lon="-0.49222">
        <ele>1952.4</ele>
        <time>2021-08-10 08:14:22</time>
      </trkpt>
      <trkpt lat="42.83748" lon="-0.49221">
        <ele>1952.2</ele>
        <time>2021-08-10 08:14:23</time>
      </trkpt>
      <trkpt lat="42.83747" lon="-0.49221">
        <ele>1952.4</ele>
        <time>2021-08-10 08:14:24</time>
      </trkpt>
      <trkpt lat="42.83746" lon="-0.4922">
        <ele>1952.2</ele>
        <time>2021-08-10 08:14:25</time>
      </trkpt>
      <trkpt lat="42.83744" lon="-0.4922">
        <ele>1952.4</ele>
        <time>2021-08-10 08:14:26</time>
      </trkpt>
      <trkpt lat="42.83744" lon="-0.49219">
        <ele>1952.6</ele>
        <time>2021-08-10 08:14:27</time>
      </trkpt>
      <trkpt lat="42.83742" lon="-0.49218">
        <ele>1952.6</ele>
        <time>2021-08-10 08:14:28</time>
      </trkpt>
      <trkpt lat="42.83741" lon="-0.49218">
        <ele>1952.6</ele>
        <time>2021-08-10 08:14:29</time>
      </trkpt>
      <trkpt lat="42.8374" lon="-0.49217">
        <ele>1952.4</ele>
        <time>2021-08-10 08:14:30</time>
      </trkpt>
      <trkpt lat="42.83739" lon="-0.49216">
        <ele>1952.4</ele>
        <time>2021-08-10 08:14:31</time>
      </trkpt>
      <trkpt lat="42.83738" lon="-0.49215">
        <ele>1952.6</ele>
        <time>2021-08-10 08:14:32</time>
      </trkpt>
      <trkpt lat="42.83737" lon="-0.49215">
        <ele>1952.4</ele>
        <time>2021-08-10 08:14:33</time>
      </trkpt>
      <trkpt lat="42.83737" lon="-0.49213">
        <ele>1952.6</ele>
        <time>2021-08-10 08:14:34</time>
      </trkpt>
      <trkpt lat="42.83736" lon="-0.49213">
        <ele>1952.8</ele>
        <time>2021-08-10 08:14:35</time>
      </trkpt>
      <trkpt lat="42.83736" lon="-0.49212">
        <ele>1952.8</ele>
        <time>2021-08-10 08:14:36</time>
      </trkpt>
      <trkpt lat="42.83735" lon="-0.49212">
        <ele>1952.8</ele>
        <time>2021-08-10 08:14:37</time>
      </trkpt>
      <trkpt lat="42.83735" lon="-0.49211">
        <ele>1952.4</ele>
        <time>2021-08-10 08:14:38</time>
      </trkpt>
      <trkpt lat="42.83734" lon="-0.4921">
        <ele>1952.4</ele>
        <time>2021-08-10 08:14:39</time>
      </trkpt>
      <trkpt lat="42.83734" lon="-0.49209">
        <ele>1952.2</ele>
        <time>2021-08-10 08:14:40</time>
      </trkpt>
      <trkpt lat="42.83733" lon="-0.49208">
        <ele>1952.2</ele>
        <time>2021-08-10 08:14:41</time>
      </trkpt>
      <trkpt lat="42.83732" lon="-0.49207">
        <ele>1952.2</ele>
        <time>2021-08-10 08:14:42</time>
      </trkpt>
      <trkpt lat="42.83732" lon="-0.49206">
        <ele>1952.2</ele>
        <time>2021-08-10 08:14:43</time>
      </trkpt>
      <trkpt lat="42.83731" lon="-0.49204">
        <ele>1952.2</ele>
        <time>2021-08-10 08:14:44</time>
      </trkpt>
      <trkpt lat="42.83731" lon="-0.49202">
        <ele>1952.2</ele>
        <time>2021-08-10 08:14:45</time>
      </trkpt>
      <trkpt lat="42.8373" lon="-0.49201">
        <ele>1952</ele>
        <time>2021-08-10 08:14:46</time>
      </trkpt>
      <trkpt lat="42.83729" lon="-0.492">
        <ele>1951.8</ele>
        <time>2021-08-10 08:14:47</time>
      </trkpt>
      <trkpt lat="42.83728" lon="-0.49198">
        <ele>1951.8</ele>
        <time>2021-08-10 08:14:48</time>
      </trkpt>
      <trkpt lat="42.83728" lon="-0.49197">
        <ele>1951.8</ele>
        <time>2021-08-10 08:14:49</time>
      </trkpt>
      <trkpt lat="42.83726" lon="-0.49196">
        <ele>1951.8</ele>
        <time>2021-08-10 08:14:50</time>
      </trkpt>
      <trkpt lat="42.83725" lon="-0.49196">
        <ele>1951.8</ele>
        <time>2021-08-10 08:14:51</time>
      </trkpt>
      <trkpt lat="42.83725" lon="-0.49195">
        <ele>1950.4</ele>
        <time>2021-08-10 08:14:52</time>
      </trkpt>
      <trkpt lat="42.83724" lon="-0.49193">
        <ele>1950.4</ele>
        <time>2021-08-10 08:14:53</time>
      </trkpt>
      <trkpt lat="42.83723" lon="-0.49192">
        <ele>1950.4</ele>
        <time>2021-08-10 08:14:54</time>
      </trkpt>
      <trkpt lat="42.83722" lon="-0.49191">
        <ele>1951.8</ele>
        <time>2021-08-10 08:14:55</time>
      </trkpt>
      <trkpt lat="42.83721" lon="-0.4919">
        <ele>1951.6</ele>
        <time>2021-08-10 08:14:56</time>
      </trkpt>
      <trkpt lat="42.8372" lon="-0.49189">
        <ele>1951.6</ele>
        <time>2021-08-10 08:14:57</time>
      </trkpt>
      <trkpt lat="42.83719" lon="-0.49187">
        <ele>1951.6</ele>
        <time>2021-08-10 08:14:58</time>
      </trkpt>
      <trkpt lat="42.83717" lon="-0.49186">
        <ele>1951.6</ele>
        <time>2021-08-10 08:14:59</time>
      </trkpt>
      <trkpt lat="42.83716" lon="-0.49185">
        <ele>1951.6</ele>
        <time>2021-08-10 08:15:00</time>
      </trkpt>
      <trkpt lat="42.83715" lon="-0.49185">
        <ele>1951.4</ele>
        <time>2021-08-10 08:15:01</time>
      </trkpt>
      <trkpt lat="42.83714" lon="-0.49184">
        <ele>1951.6</ele>
        <time>2021-08-10 08:15:02</time>
      </trkpt>
      <trkpt lat="42.83713" lon="-0.49183">
        <ele>1951.4</ele>
        <time>2021-08-10 08:15:03</time>
      </trkpt>
      <trkpt lat="42.83712" lon="-0.49181">
        <ele>1951.6</ele>
        <time>2021-08-10 08:15:04</time>
      </trkpt>
      <trkpt lat="42.83711" lon="-0.49181">
        <ele>1951.6</ele>
        <time>2021-08-10 08:15:05</time>
      </trkpt>
      <trkpt lat="42.83709" lon="-0.4918">
        <ele>1951.6</ele>
        <time>2021-08-10 08:15:06</time>
      </trkpt>
      <trkpt lat="42.83707" lon="-0.4918">
        <ele>1951.6</ele>
        <time>2021-08-10 08:15:07</time>
      </trkpt>
      <trkpt lat="42.83706" lon="-0.49179">
        <ele>1951.8</ele>
        <time>2021-08-10 08:15:08</time>
      </trkpt>
      <trkpt lat="42.83705" lon="-0.49179">
        <ele>1951.8</ele>
        <time>2021-08-10 08:15:09</time>
      </trkpt>
      <trkpt lat="42.83704" lon="-0.49178">
        <ele>1951.8</ele>
        <time>2021-08-10 08:15:10</time>
      </trkpt>
      <trkpt lat="42.83703" lon="-0.49177">
        <ele>1951.8</ele>
        <time>2021-08-10 08:15:11</time>
      </trkpt>
      <trkpt lat="42.83702" lon="-0.49176">
        <ele>1951.8</ele>
        <time>2021-08-10 08:15:12</time>
      </trkpt>
      <trkpt lat="42.83701" lon="-0.49175">
        <ele>1952</ele>
        <time>2021-08-10 08:15:13</time>
      </trkpt>
      <trkpt lat="42.837" lon="-0.49174">
        <ele>1952.2</ele>
        <time>2021-08-10 08:15:14</time>
      </trkpt>
      <trkpt lat="42.83699" lon="-0.49173">
        <ele>1952.2</ele>
        <time>2021-08-10 08:15:15</time>
      </trkpt>
      <trkpt lat="42.83698" lon="-0.49172">
        <ele>1952.4</ele>
        <time>2021-08-10 08:15:16</time>
      </trkpt>
      <trkpt lat="42.83698" lon="-0.49171">
        <ele>1952.6</ele>
        <time>2021-08-10 08:15:17</time>
      </trkpt>
      <trkpt lat="42.83696" lon="-0.4917">
        <ele>1952.6</ele>
        <time>2021-08-10 08:15:18</time>
      </trkpt>
      <trkpt lat="42.83694" lon="-0.4917">
        <ele>1952.8</ele>
        <time>2021-08-10 08:15:19</time>
      </trkpt>
      <trkpt lat="42.83693" lon="-0.49169">
        <ele>1953</ele>
        <time>2021-08-10 08:15:20</time>
      </trkpt>
      <trkpt lat="42.83693" lon="-0.49167">
        <ele>1953</ele>
        <time>2021-08-10 08:15:21</time>
      </trkpt>
      <trkpt lat="42.83692" lon="-0.49167">
        <ele>1953.2</ele>
        <time>2021-08-10 08:15:22</time>
      </trkpt>
      <trkpt lat="42.83691" lon="-0.49166">
        <ele>1953.2</ele>
        <time>2021-08-10 08:15:23</time>
      </trkpt>
      <trkpt lat="42.83691" lon="-0.49165">
        <ele>1953.4</ele>
        <time>2021-08-10 08:15:24</time>
      </trkpt>
      <trkpt lat="42.8369" lon="-0.49164">
        <ele>1953.6</ele>
        <time>2021-08-10 08:15:25</time>
      </trkpt>
      <trkpt lat="42.83689" lon="-0.49164">
        <ele>1953.8</ele>
        <time>2021-08-10 08:15:26</time>
      </trkpt>
      <trkpt lat="42.83688" lon="-0.49163">
        <ele>1953.8</ele>
        <time>2021-08-10 08:15:27</time>
      </trkpt>
      <trkpt lat="42.83689" lon="-0.49162">
        <ele>1953.8</ele>
        <time>2021-08-10 08:15:28</time>
      </trkpt>
      <trkpt lat="42.83689" lon="-0.49161">
        <ele>1953.8</ele>
        <time>2021-08-10 08:15:29</time>
      </trkpt>
      <trkpt lat="42.83689" lon="-0.49161">
        <ele>1954</ele>
        <time>2021-08-10 08:15:30</time>
      </trkpt>
      <trkpt lat="42.83689" lon="-0.4916">
        <ele>1954</ele>
        <time>2021-08-10 08:15:31</time>
      </trkpt>
      <trkpt lat="42.83689" lon="-0.4916">
        <ele>1954</ele>
        <time>2021-08-10 08:15:32</time>
      </trkpt>
      <trkpt lat="42.83689" lon="-0.4916">
        <ele>1954</ele>
        <time>2021-08-10 08:15:33</time>
      </trkpt>
      <trkpt lat="42.83688" lon="-0.49161">
        <ele>1953.6</ele>
        <time>2021-08-10 08:15:34</time>
      </trkpt>
      <trkpt lat="42.83688" lon="-0.4916">
        <ele>1953.4</ele>
        <time>2021-08-10 08:15:35</time>
      </trkpt>
      <trkpt lat="42.83688" lon="-0.4916">
        <ele>1953.4</ele>
        <time>2021-08-10 08:16:09</time>
      </trkpt>
      <trkpt lat="42.83688" lon="-0.4916">
        <ele>1953.2</ele>
        <time>2021-08-10 08:16:11</time>
      </trkpt>
      <trkpt lat="42.83688" lon="-0.4916">
        <ele>1953.2</ele>
        <time>2021-08-10 08:16:12</time>
      </trkpt>
      <trkpt lat="42.83688" lon="-0.49159">
        <ele>1953</ele>
        <time>2021-08-10 08:16:19</time>
      </trkpt>
      <trkpt lat="42.83688" lon="-0.4916">
        <ele>1953</ele>
        <time>2021-08-10 08:16:20</time>
      </trkpt>
      <trkpt lat="42.83688" lon="-0.4916">
        <ele>1953</ele>
        <time>2021-08-10 08:16:21</time>
      </trkpt>
      <trkpt lat="42.83688" lon="-0.49159">
        <ele>1953</ele>
        <time>2021-08-10 08:16:22</time>
      </trkpt>
      <trkpt lat="42.83689" lon="-0.49159">
        <ele>1952.8</ele>
        <time>2021-08-10 08:16:23</time>
      </trkpt>
      <trkpt lat="42.83689" lon="-0.49158">
        <ele>1952.2</ele>
        <time>2021-08-10 08:16:28</time>
      </trkpt>
      <trkpt lat="42.8369" lon="-0.49157">
        <ele>1952.4</ele>
        <time>2021-08-10 08:16:29</time>
      </trkpt>
      <trkpt lat="42.8369" lon="-0.49157">
        <ele>1952.4</ele>
        <time>2021-08-10 08:16:30</time>
      </trkpt>
      <trkpt lat="42.8369" lon="-0.49157">
        <ele>1952</ele>
        <time>2021-08-10 08:16:31</time>
      </trkpt>
      <trkpt lat="42.8369" lon="-0.49156">
        <ele>1952.2</ele>
        <time>2021-08-10 08:16:32</time>
      </trkpt>
      <trkpt lat="42.8369" lon="-0.49155">
        <ele>1951.8</ele>
        <time>2021-08-10 08:16:33</time>
      </trkpt>
      <trkpt lat="42.8369" lon="-0.49155">
        <ele>1951.6</ele>
        <time>2021-08-10 08:16:34</time>
      </trkpt>
      <trkpt lat="42.8369" lon="-0.49155">
        <ele>1951.4</ele>
        <time>2021-08-10 08:16:35</time>
      </trkpt>
      <trkpt lat="42.8369" lon="-0.49154">
        <ele>1951.4</ele>
        <time>2021-08-10 08:16:36</time>
      </trkpt>
      <trkpt lat="42.83689" lon="-0.49153">
        <ele>1951.2</ele>
        <time>2021-08-10 08:16:37</time>
      </trkpt>
      <trkpt lat="42.83689" lon="-0.49152">
        <ele>1951</ele>
        <time>2021-08-10 08:16:38</time>
      </trkpt>
      <trkpt lat="42.83689" lon="-0.49152">
        <ele>1951.2</ele>
        <time>2021-08-10 08:16:39</time>
      </trkpt>
      <trkpt lat="42.83689" lon="-0.49152">
        <ele>1951.2</ele>
        <time>2021-08-10 08:16:40</time>
      </trkpt>
      <trkpt lat="42.83689" lon="-0.49151">
        <ele>1951.4</ele>
        <time>2021-08-10 08:16:41</time>
      </trkpt>
      <trkpt lat="42.8369" lon="-0.49151">
        <ele>1951.2</ele>
        <time>2021-08-10 08:16:42</time>
      </trkpt>
      <trkpt lat="42.83691" lon="-0.4915">
        <ele>1951</ele>
        <time>2021-08-10 08:16:47</time>
      </trkpt>
      <trkpt lat="42.83692" lon="-0.4915">
        <ele>1950.6</ele>
      </trkpt>
      <trkpt lat="42.83693" lon="-0.4915">
        <ele>1950.4</ele>
        <time>2021-08-10 08:16:48</time>
      </trkpt>
      <trkpt lat="42.83693" lon="-0.49149">
        <ele>1950.4</ele>
        <time>2021-08-10 08:16:50</time>
      </trkpt>
      <trkpt lat="42.83693" lon="-0.49149">
        <ele>1950.4</ele>
      </trkpt>
      <trkpt lat="42.83693" lon="-0.49148">
        <ele>1950.2</ele>
        <time>2021-08-10 08:16:51</time>
      </trkpt>
      <trkpt lat="42.83693" lon="-0.49148">
        <ele>1950</ele>
        <time>2021-08-10 08:16:52</time>
      </trkpt>
      <trkpt lat="42.83694" lon="-0.49147">
        <ele>1949.8</ele>
        <time>2021-08-10 08:16:53</time>
      </trkpt>
      <trkpt lat="42.83694" lon="-0.49147">
        <ele>1949.8</ele>
        <time>2021-08-10 08:16:54</time>
      </trkpt>
      <trkpt lat="42.83694" lon="-0.49146">
        <ele>1949.8</ele>
        <time>2021-08-10 08:16:55</time>
      </trkpt>
      <trkpt lat="42.83693" lon="-0.49146">
        <ele>1949.6</ele>
        <time>2021-08-10 08:16:56</time>
      </trkpt>
      <trkpt lat="42.83694" lon="-0.49146">
        <ele>1949.4</ele>
        <time>2021-08-10 08:16:57</time>
      </trkpt>
      <trkpt lat="42.83694" lon="-0.49146">
        <ele>1949.2</ele>
        <time>2021-08-10 08:16:58</time>
      </trkpt>
      <trkpt lat="42.83694" lon="-0.49146">
        <ele>1949.2</ele>
        <time>2021-08-10 08:16:59</time>
      </trkpt>
      <trkpt lat="42.83694" lon="-0.49145">
        <ele>1949</ele>
        <time>2021-08-10 08:17:00</time>
      </trkpt>
      <trkpt lat="42.83695" lon="-0.49145">
        <ele>1949</ele>
        <time>2021-08-10 08:17:01</time>
      </trkpt>
      <trkpt lat="42.83695" lon="-0.49144">
        <ele>1948.8</ele>
        <time>2021-08-10 08:17:02</time>
      </trkpt>
      <trkpt lat="42.83695" lon="-0.49144">
        <ele>1948.6</ele>
        <time>2021-08-10 08:17:03</time>
      </trkpt>
      <trkpt lat="42.83695" lon="-0.49144">
        <ele>1948.4</ele>
        <time>2021-08-10 08:17:04</time>
      </trkpt>
      <trkpt lat="42.83694" lon="-0.49144">
        <ele>1948.6</ele>
        <time>2021-08-10 08:17:05</time>
      </trkpt>
      <trkpt lat="42.83695" lon="-0.49144">
        <ele>1948.4</ele>
        <time>2021-08-10 08:17:06</time>
      </trkpt>
      <trkpt lat="42.83694" lon="-0.49144">
        <ele>1948.2</ele>
        <time>2021-08-10 08:17:07</time>
      </trkpt>
      <trkpt lat="42.83694" lon="-0.49143">
        <ele>1948</ele>
        <time>2021-08-10 08:17:08</time>
      </trkpt>
      <trkpt lat="42.83694" lon="-0.49143">
        <ele>1948</ele>
        <time>2021-08-10 08:17:10</time>
      </trkpt>
      <trkpt lat="42.83694" lon="-0.49143">
        <ele>1948</ele>
      </trkpt>
      <trkpt lat="42.83694" lon="-0.49143">
        <ele>1947.8</ele>
        <time>2021-08-10 08:17:11</time>
      </trkpt>
      <trkpt lat="42.83694" lon="-0.49143">
        <ele>1947.6</ele>
        <time>2021-08-10 08:17:12</time>
      </trkpt>
      <trkpt lat="42.83694" lon="-0.49143">
        <ele>1947.4</ele>
        <time>2021-08-10 08:17:13</time>
      </trkpt>
      <trkpt lat="42.83694" lon="-0.49142">
        <ele>1947.4</ele>
        <time>2021-08-10 08:17:14</time>
      </trkpt>
      <trkpt lat="42.83693" lon="-0.49142">
        <ele>1947.2</ele>
        <time>2021-08-10 08:17:15</time>
      </trkpt>
      <trkpt lat="42.83693" lon="-0.49142">
        <ele>1947.4</ele>
        <time>2021-08-10 08:17:16</time>
      </trkpt>
      <trkpt lat="42.83694" lon="-0.49142">
        <ele>1947.4</ele>
        <time>2021-08-10 08:17:17</time>
      </trkpt>
      <trkpt lat="42.83694" lon="-0.49142">
        <ele>1947.4</ele>
        <time>2021-08-10 08:17:18</time>
      </trkpt>
      <trkpt lat="42.83695" lon="-0.49142">
        <ele>1947.2</ele>
        <time>2021-08-10 08:17:19</time>
      </trkpt>
      <trkpt lat="42.83695" lon="-0.49142">
        <ele>1947.2</ele>
        <time>2021-08-10 08:17:20</time>
      </trkpt>
      <trkpt lat="42.83695" lon="-0.49142">
        <ele>1947.2</ele>
        <time>2021-08-10 08:17:21</time>
      </trkpt>
      <trkpt lat="42.83695" lon="-0.49143">
        <ele>1947</ele>
        <time>2021-08-10 08:17:22</time>
      </trkpt>
      <trkpt lat="42.83695" lon="-0.49142">
        <ele>1947</ele>
        <time>2021-08-10 08:17:23</time>
      </trkpt>
      <trkpt lat="42.83695" lon="-0.49142">
        <ele>1946.8</ele>
        <time>2021-08-10 08:17:24</time>
      </trkpt>
      <trkpt lat="42.83695" lon="-0.49141">
        <ele>1946.6</ele>
        <time>2021-08-10 08:17:25</time>
      </trkpt>
      <trkpt lat="42.83695" lon="-0.49141">
        <ele>1946.4</ele>
        <time>2021-08-10 08:17:26</time>
      </trkpt>
      <trkpt lat="42.83695" lon="-0.49141">
        <ele>1946.4</ele>
        <time>2021-08-10 08:17:27</time>
      </trkpt>
      <trkpt lat="42.83696" lon="-0.4914">
        <ele>1946.4</ele>
        <time>2021-08-10 08:17:28</time>
      </trkpt>
      <trkpt lat="42.83696" lon="-0.4914">
        <ele>1946</ele>
        <time>2021-08-10 08:17:32</time>
      </trkpt>
      <trkpt lat="42.83696" lon="-0.49139">
        <ele>1946</ele>
      </trkpt>
      <trkpt lat="42.83697" lon="-0.49139">
        <ele>1945.8</ele>
        <time>2021-08-10 08:17:33</time>
      </trkpt>
      <trkpt lat="42.83697" lon="-0.49138">
        <ele>1945.8</ele>
        <time>2021-08-10 08:17:34</time>
      </trkpt>
      <trkpt lat="42.83698" lon="-0.49137">
        <ele>1945.8</ele>
        <time>2021-08-10 08:17:35</time>
      </trkpt>
      <trkpt lat="42.83699" lon="-0.49137">
        <ele>1945.8</ele>
        <time>2021-08-10 08:17:36</time>
      </trkpt>
      <trkpt lat="42.83699" lon="-0.49137">
        <ele>1945.6</ele>
        <time>2021-08-10 08:17:37</time>
      </trkpt>
      <trkpt lat="42.837" lon="-0.49136">
        <ele>1945.6</ele>
        <time>2021-08-10 08:17:38</time>
      </trkpt>
      <trkpt lat="42.83701" lon="-0.49135">
        <ele>1945.6</ele>
        <time>2021-08-10 08:17:39</time>
      </trkpt>
      <trkpt lat="42.83701" lon="-0.49135">
        <ele>1945.4</ele>
        <time>2021-08-10 08:17:40</time>
      </trkpt>
      <trkpt lat="42.83701" lon="-0.49134">
        <ele>1945.4</ele>
        <time>2021-08-10 08:17:41</time>
      </trkpt>
      <trkpt lat="42.83701" lon="-0.49133">
        <ele>1945</ele>
        <time>2021-08-10 08:17:42</time>
      </trkpt>
      <trkpt lat="42.83701" lon="-0.49132">
        <ele>1945</ele>
        <time>2021-08-10 08:17:43</time>
      </trkpt>
      <trkpt lat="42.83702" lon="-0.49131">
        <ele>1944.8</ele>
        <time>2021-08-10 08:17:44</time>
      </trkpt>
      <trkpt lat="42.83702" lon="-0.4913">
        <ele>1944.6</ele>
        <time>2021-08-10 08:17:45</time>
      </trkpt>
      <trkpt lat="42.83703" lon="-0.49129">
        <ele>1944.4</ele>
        <time>2021-08-10 08:17:46</time>
      </trkpt>
      <trkpt lat="42.83703" lon="-0.49129">
        <ele>1944.4</ele>
        <time>2021-08-10 08:17:47</time>
      </trkpt>
      <trkpt lat="42.83704" lon="-0.49128">
        <ele>1944.4</ele>
        <time>2021-08-10 08:17:48</time>
      </trkpt>
      <trkpt lat="42.83705" lon="-0.49126">
        <ele>1944.4</ele>
        <time>2021-08-10 08:17:49</time>
      </trkpt>
      <trkpt lat="42.83705" lon="-0.49126">
        <ele>1944.4</ele>
        <time>2021-08-10 08:17:50</time>
      </trkpt>
      <trkpt lat="42.83706" lon="-0.49126">
        <ele>1944.2</ele>
        <time>2021-08-10 08:17:51</time>
      </trkpt>
      <trkpt lat="42.83706" lon="-0.49124">
        <ele>1944.4</ele>
        <time>2021-08-10 08:17:52</time>
      </trkpt>
      <trkpt lat="42.83707" lon="-0.49123">
        <ele>1944.2</ele>
        <time>2021-08-10 08:17:53</time>
      </trkpt>
      <trkpt lat="42.83707" lon="-0.49122">
        <ele>1944</ele>
        <time>2021-08-10 08:17:54</time>
      </trkpt>
      <trkpt lat="42.83707" lon="-0.49121">
        <ele>1944</ele>
        <time>2021-08-10 08:17:55</time>
      </trkpt>
      <trkpt lat="42.83708" lon="-0.4912">
        <ele>1944</ele>
        <time>2021-08-10 08:17:56</time>
      </trkpt>
      <trkpt lat="42.83709" lon="-0.4912">
        <ele>1944</ele>
        <time>2021-08-10 08:17:57</time>
      </trkpt>
      <trkpt lat="42.83709" lon="-0.49119">
        <ele>1944</ele>
        <time>2021-08-10 08:17:58</time>
      </trkpt>
      <trkpt lat="42.8371" lon="-0.49117">
        <ele>1944</ele>
        <time>2021-08-10 08:17:59</time>
      </trkpt>
      <trkpt lat="42.8371" lon="-0.49116">
        <ele>1944</ele>
        <time>2021-08-10 08:18:00</time>
      </trkpt>
      <trkpt lat="42.83711" lon="-0.49115">
        <ele>1944.2</ele>
        <time>2021-08-10 08:18:01</time>
      </trkpt>
      <trkpt lat="42.83711" lon="-0.49114">
        <ele>1944.4</ele>
        <time>2021-08-10 08:18:02</time>
      </trkpt>
      <trkpt lat="42.83711" lon="-0.49113">
        <ele>1944.4</ele>
        <time>2021-08-10 08:18:03</time>
      </trkpt>
      <trkpt lat="42.83712" lon="-0.49112">
        <ele>1944.4</ele>
        <time>2021-08-10 08:18:04</time>
      </trkpt>
      <trkpt lat="42.83712" lon="-0.49111">
        <ele>1944.4</ele>
        <time>2021-08-10 08:18:05</time>
      </trkpt>
      <trkpt lat="42.83713" lon="-0.4911">
        <ele>1944.4</ele>
        <time>2021-08-10 08:18:06</time>
      </trkpt>
      <trkpt lat="42.83714" lon="-0.49109">
        <ele>1944.2</ele>
        <time>2021-08-10 08:18:07</time>
      </trkpt>
      <trkpt lat="42.83714" lon="-0.49108">
        <ele>1944</ele>
        <time>2021-08-10 08:18:08</time>
      </trkpt>
      <trkpt lat="42.83714" lon="-0.49107">
        <ele>1944.2</ele>
        <time>2021-08-10 08:18:09</time>
      </trkpt>
      <trkpt lat="42.83715" lon="-0.49106">
        <ele>1944.2</ele>
        <time>2021-08-10 08:18:10</time>
      </trkpt>
      <trkpt lat="42.83715" lon="-0.49105">
        <ele>1944.2</ele>
        <time>2021-08-10 08:18:11</time>
      </trkpt>
      <trkpt lat="42.83715" lon="-0.49104">
        <ele>1944.2</ele>
        <time>2021-08-10 08:18:12</time>
      </trkpt>
      <trkpt lat="42.83716" lon="-0.49103">
        <ele>1944</ele>
        <time>2021-08-10 08:18:13</time>
      </trkpt>
      <trkpt lat="42.83716" lon="-0.49102">
        <ele>1944</ele>
        <time>2021-08-10 08:18:14</time>
      </trkpt>
      <trkpt lat="42.83716" lon="-0.49101">
        <ele>1943.8</ele>
        <time>2021-08-10 08:18:15</time>
      </trkpt>
      <trkpt lat="42.83717" lon="-0.491">
        <ele>1943.8</ele>
        <time>2021-08-10 08:18:16</time>
      </trkpt>
      <trkpt lat="42.83717" lon="-0.49099">
        <ele>1944.2</ele>
        <time>2021-08-10 08:18:17</time>
      </trkpt>
      <trkpt lat="42.83717" lon="-0.49098">
        <ele>1944</ele>
        <time>2021-08-10 08:18:18</time>
      </trkpt>
      <trkpt lat="42.83718" lon="-0.49097">
        <ele>1944</ele>
        <time>2021-08-10 08:18:19</time>
      </trkpt>
      <trkpt lat="42.83718" lon="-0.49095">
        <ele>1943.8</ele>
        <time>2021-08-10 08:18:20</time>
      </trkpt>
      <trkpt lat="42.83719" lon="-0.49094">
        <ele>1943.8</ele>
        <time>2021-08-10 08:18:21</time>
      </trkpt>
      <trkpt lat="42.83719" lon="-0.49093">
        <ele>1943.8</ele>
        <time>2021-08-10 08:18:22</time>
      </trkpt>
      <trkpt lat="42.83719" lon="-0.49091">
        <ele>1943.8</ele>
        <time>2021-08-10 08:18:23</time>
      </trkpt>
      <trkpt lat="42.8372" lon="-0.4909">
        <ele>1943.8</ele>
        <time>2021-08-10 08:18:24</time>
      </trkpt>
      <trkpt lat="42.83721" lon="-0.4909">
        <ele>1944</ele>
        <time>2021-08-10 08:18:25</time>
      </trkpt>
      <trkpt lat="42.83721" lon="-0.49088">
        <ele>1943.8</ele>
        <time>2021-08-10 08:18:26</time>
      </trkpt>
      <trkpt lat="42.83721" lon="-0.49087">
        <ele>1943.8</ele>
        <time>2021-08-10 08:18:27</time>
      </trkpt>
      <trkpt lat="42.83722" lon="-0.49085">
        <ele>1943.8</ele>
        <time>2021-08-10 08:18:28</time>
      </trkpt>
      <trkpt lat="42.83722" lon="-0.49084">
        <ele>1943.8</ele>
        <time>2021-08-10 08:18:29</time>
      </trkpt>
      <trkpt lat="42.83723" lon="-0.49083">
        <ele>1943.8</ele>
        <time>2021-08-10 08:18:30</time>
      </trkpt>
      <trkpt lat="42.83723" lon="-0.49081">
        <ele>1943.8</ele>
        <time>2021-08-10 08:18:31</time>
      </trkpt>
      <trkpt lat="42.83724" lon="-0.49081">
        <ele>1943.8</ele>
        <time>2021-08-10 08:18:32</time>
      </trkpt>
      <trkpt lat="42.83724" lon="-0.4908">
        <ele>1943.8</ele>
        <time>2021-08-10 08:18:33</time>
      </trkpt>
      <trkpt lat="42.83724" lon="-0.49079">
        <ele>1944</ele>
        <time>2021-08-10 08:18:34</time>
      </trkpt>
      <trkpt lat="42.83724" lon="-0.49078">
        <ele>1944.2</ele>
        <time>2021-08-10 08:18:35</time>
      </trkpt>
      <trkpt lat="42.83725" lon="-0.49077">
        <ele>1944</ele>
        <time>2021-08-10 08:18:36</time>
      </trkpt>
      <trkpt lat="42.83725" lon="-0.49076">
        <ele>1943.6</ele>
        <time>2021-08-10 08:18:37</time>
      </trkpt>
      <trkpt lat="42.83725" lon="-0.49075">
        <ele>1943.4</ele>
        <time>2021-08-10 08:18:38</time>
      </trkpt>
      <trkpt lat="42.83726" lon="-0.49074">
        <ele>1943.6</ele>
        <time>2021-08-10 08:18:39</time>
      </trkpt>
      <trkpt lat="42.83727" lon="-0.49073">
        <ele>1943.6</ele>
        <time>2021-08-10 08:18:40</time>
      </trkpt>
      <trkpt lat="42.83727" lon="-0.49073">
        <ele>1943.6</ele>
        <time>2021-08-10 08:18:41</time>
      </trkpt>
      <trkpt lat="42.83727" lon="-0.49071">
        <ele>1943.6</ele>
        <time>2021-08-10 08:18:42</time>
      </trkpt>
      <trkpt lat="42.83727" lon="-0.4907">
        <ele>1943.6</ele>
        <time>2021-08-10 08:18:43</time>
      </trkpt>
      <trkpt lat="42.83728" lon="-0.49069">
        <ele>1943.6</ele>
        <time>2021-08-10 08:18:44</time>
      </trkpt>
      <trkpt lat="42.83728" lon="-0.49068">
        <ele>1943.8</ele>
        <time>2021-08-10 08:18:45</time>
      </trkpt>
      <trkpt lat="42.83729" lon="-0.49068">
        <ele>1943.6</ele>
        <time>2021-08-10 08:18:46</time>
      </trkpt>
      <trkpt lat="42.83728" lon="-0.49066">
        <ele>1943.4</ele>
        <time>2021-08-10 08:18:47</time>
      </trkpt>
      <trkpt lat="42.83728" lon="-0.49064">
        <ele>1943</ele>
        <time>2021-08-10 08:18:48</time>
      </trkpt>
      <trkpt lat="42.83728" lon="-0.49064">
        <ele>1942.6</ele>
        <time>2021-08-10 08:18:49</time>
      </trkpt>
      <trkpt lat="42.83728" lon="-0.49063">
        <ele>1942.4</ele>
        <time>2021-08-10 08:18:50</time>
      </trkpt>
      <trkpt lat="42.83727" lon="-0.49063">
        <ele>1942.2</ele>
        <time>2021-08-10 08:18:51</time>
      </trkpt>
      <trkpt lat="42.83727" lon="-0.49063">
        <ele>1942.4</ele>
        <time>2021-08-10 08:18:52</time>
      </trkpt>
      <trkpt lat="42.83727" lon="-0.49062">
        <ele>1942.2</ele>
        <time>2021-08-10 08:18:53</time>
      </trkpt>
      <trkpt lat="42.83726" lon="-0.49062">
        <ele>1942.2</ele>
        <time>2021-08-10 08:18:54</time>
      </trkpt>
      <trkpt lat="42.83726" lon="-0.49062">
        <ele>1941.8</ele>
        <time>2021-08-10 08:18:55</time>
      </trkpt>
      <trkpt lat="42.83726" lon="-0.49063">
        <ele>1941.6</ele>
        <time>2021-08-10 08:18:56</time>
      </trkpt>
      <trkpt lat="42.83725" lon="-0.49063">
        <ele>1941.2</ele>
        <time>2021-08-10 08:18:57</time>
      </trkpt>
      <trkpt lat="42.83725" lon="-0.49064">
        <ele>1941.2</ele>
        <time>2021-08-10 08:18:58</time>
      </trkpt>
      <trkpt lat="42.83725" lon="-0.49064">
        <ele>1940.8</ele>
        <time>2021-08-10 08:18:59</time>
      </trkpt>
      <trkpt lat="42.83724" lon="-0.49064">
        <ele>1940.8</ele>
        <time>2021-08-10 08:19:00</time>
      </trkpt>
      <trkpt lat="42.83724" lon="-0.49064">
        <ele>1940.6</ele>
        <time>2021-08-10 08:19:01</time>
      </trkpt>
      <trkpt lat="42.83724" lon="-0.49064">
        <ele>1940.4</ele>
        <time>2021-08-10 08:19:02</time>
      </trkpt>
      <trkpt lat="42.83724" lon="-0.49063">
        <ele>1940.2</ele>
        <time>2021-08-10 08:19:03</time>
      </trkpt>
      <trkpt lat="42.83723" lon="-0.49063">
        <ele>1940</ele>
        <time>2021-08-10 08:19:04</time>
      </trkpt>
      <trkpt lat="42.83723" lon="-0.49062">
        <ele>1939.8</ele>
        <time>2021-08-10 08:19:05</time>
      </trkpt>
      <trkpt lat="42.83722" lon="-0.49062">
        <ele>1939.6</ele>
        <time>2021-08-10 08:19:06</time>
      </trkpt>
      <trkpt lat="42.83722" lon="-0.49063">
        <ele>1939.4</ele>
        <time>2021-08-10 08:19:07</time>
      </trkpt>
      <trkpt lat="42.83722" lon="-0.49062">
        <ele>1939.2</ele>
        <time>2021-08-10 08:19:08</time>
      </trkpt>
      <trkpt lat="42.83722" lon="-0.49062">
        <ele>1939.2</ele>
        <time>2021-08-10 08:19:09</time>
      </trkpt>
      <trkpt lat="42.83721" lon="-0.49062">
        <ele>1939</ele>
        <time>2021-08-10 08:19:10</time>
      </trkpt>
      <trkpt lat="42.83721" lon="-0.49062">
        <ele>1939.2</ele>
        <time>2021-08-10 08:19:11</time>
      </trkpt>
      <trkpt lat="42.83721" lon="-0.49062">
        <ele>1939</ele>
        <time>2021-08-10 08:19:12</time>
      </trkpt>
      <trkpt lat="42.83721" lon="-0.49062">
        <ele>1938.8</ele>
        <time>2021-08-10 08:19:13</time>
      </trkpt>
      <trkpt lat="42.83721" lon="-0.49062">
        <ele>1938.6</ele>
        <time>2021-08-10 08:19:14</time>
      </trkpt>
      <trkpt lat="42.8372" lon="-0.49062">
        <ele>1938.6</ele>
        <time>2021-08-10 08:19:15</time>
      </trkpt>
      <trkpt lat="42.83719" lon="-0.49062">
        <ele>1938.4</ele>
        <time>2021-08-10 08:19:16</time>
      </trkpt>
      <trkpt lat="42.83719" lon="-0.49062">
        <ele>1938.2</ele>
        <time>2021-08-10 08:19:17</time>
      </trkpt>
      <trkpt lat="42.83718" lon="-0.49062">
        <ele>1938</ele>
        <time>2021-08-10 08:19:18</time>
      </trkpt>
      <trkpt lat="42.83718" lon="-0.49062">
        <ele>1937.6</ele>
        <time>2021-08-10 08:19:27</time>
      </trkpt>
      <trkpt lat="42.83717" lon="-0.49062">
        <ele>1937.4</ele>
        <time>2021-08-10 08:19:28</time>
      </trkpt>
      <trkpt lat="42.83717" lon="-0.49062">
        <ele>1937.2</ele>
        <time>2021-08-10 08:19:29</time>
      </trkpt>
      <trkpt lat="42.83716" lon="-0.49062">
        <ele>1937</ele>
        <time>2021-08-10 08:19:30</time>
      </trkpt>
      <trkpt lat="42.83715" lon="-0.49062">
        <ele>1936.8</ele>
        <time>2021-08-10 08:19:31</time>
      </trkpt>
      <trkpt lat="42.83715" lon="-0.49062">
        <ele>1936.6</ele>
        <time>2021-08-10 08:19:32</time>
      </trkpt>
      <trkpt lat="42.83714" lon="-0.49063">
        <ele>1936.4</ele>
        <time>2021-08-10 08:19:33</time>
      </trkpt>
      <trkpt lat="42.83714" lon="-0.49063">
        <ele>1936.2</ele>
        <time>2021-08-10 08:19:34</time>
      </trkpt>
      <trkpt lat="42.83713" lon="-0.49064">
        <ele>1936</ele>
        <time>2021-08-10 08:19:35</time>
      </trkpt>
      <trkpt lat="42.83713" lon="-0.49064">
        <ele>1935.8</ele>
        <time>2021-08-10 08:19:36</time>
      </trkpt>
      <trkpt lat="42.83712" lon="-0.49064">
        <ele>1935.6</ele>
        <time>2021-08-10 08:19:37</time>
      </trkpt>
      <trkpt lat="42.83712" lon="-0.49064">
        <ele>1935.2</ele>
        <time>2021-08-10 08:19:38</time>
      </trkpt>
      <trkpt lat="42.83712" lon="-0.49064">
        <ele>1935.2</ele>
        <time>2021-08-10 08:19:39</time>
      </trkpt>
      <trkpt lat="42.83712" lon="-0.49065">
        <ele>1935</ele>
        <time>2021-08-10 08:19:40</time>
      </trkpt>
      <trkpt lat="42.83711" lon="-0.49065">
        <ele>1935</ele>
        <time>2021-08-10 08:19:41</time>
      </trkpt>
      <trkpt lat="42.83711" lon="-0.49066">
        <ele>1934.6</ele>
        <time>2021-08-10 08:19:42</time>
      </trkpt>
      <trkpt lat="42.8371" lon="-0.49068">
        <ele>1934.6</ele>
        <time>2021-08-10 08:19:43</time>
      </trkpt>
      <trkpt lat="42.83709" lon="-0.49068">
        <ele>1934.4</ele>
        <time>2021-08-10 08:19:44</time>
      </trkpt>
      <trkpt lat="42.83709" lon="-0.49069">
        <ele>1934</ele>
        <time>2021-08-10 08:19:45</time>
      </trkpt>
      <trkpt lat="42.83708" lon="-0.49069">
        <ele>1933.6</ele>
        <time>2021-08-10 08:19:46</time>
      </trkpt>
      <trkpt lat="42.83708" lon="-0.4907">
        <ele>1933.6</ele>
        <time>2021-08-10 08:19:47</time>
      </trkpt>
      <trkpt lat="42.83707" lon="-0.49071">
        <ele>1933.4</ele>
        <time>2021-08-10 08:19:48</time>
      </trkpt>
      <trkpt lat="42.83706" lon="-0.49071">
        <ele>1933.2</ele>
        <time>2021-08-10 08:19:49</time>
      </trkpt>
      <trkpt lat="42.83705" lon="-0.49073">
        <ele>1933</ele>
        <time>2021-08-10 08:19:50</time>
      </trkpt>
      <trkpt lat="42.83705" lon="-0.49074">
        <ele>1932.8</ele>
        <time>2021-08-10 08:19:51</time>
      </trkpt>
      <trkpt lat="42.83704" lon="-0.49075">
        <ele>1932.8</ele>
        <time>2021-08-10 08:19:52</time>
      </trkpt>
      <trkpt lat="42.83703" lon="-0.49076">
        <ele>1932.8</ele>
        <time>2021-08-10 08:19:53</time>
      </trkpt>
      <trkpt lat="42.83702" lon="-0.49077">
        <ele>1932.8</ele>
        <time>2021-08-10 08:19:54</time>
      </trkpt>
      <trkpt lat="42.83702" lon="-0.49078">
        <ele>1932.6</ele>
        <time>2021-08-10 08:19:55</time>
      </trkpt>
      <trkpt lat="42.83701" lon="-0.4908">
        <ele>1932.4</ele>
        <time>2021-08-10 08:19:56</time>
      </trkpt>
      <trkpt lat="42.83699" lon="-0.49081">
        <ele>1932.4</ele>
        <time>2021-08-10 08:19:57</time>
      </trkpt>
      <trkpt lat="42.83699" lon="-0.49082">
        <ele>1932.2</ele>
        <time>2021-08-10 08:19:58</time>
      </trkpt>
      <trkpt lat="42.83698" lon="-0.49082">
        <ele>1932.2</ele>
        <time>2021-08-10 08:19:59</time>
      </trkpt>
      <trkpt lat="42.83698" lon="-0.49083">
        <ele>1932</ele>
        <time>2021-08-10 08:20:00</time>
      </trkpt>
      <trkpt lat="42.83697" lon="-0.49084">
        <ele>1931.8</ele>
        <time>2021-08-10 08:20:01</time>
      </trkpt>
      <trkpt lat="42.83696" lon="-0.49085">
        <ele>1931.8</ele>
        <time>2021-08-10 08:20:02</time>
      </trkpt>
      <trkpt lat="42.83695" lon="-0.49085">
        <ele>1931.6</ele>
        <time>2021-08-10 08:20:03</time>
      </trkpt>
      <trkpt lat="42.83694" lon="-0.49085">
        <ele>1931.4</ele>
        <time>2021-08-10 08:20:04</time>
      </trkpt>
      <trkpt lat="42.83693" lon="-0.49086">
        <ele>1931.4</ele>
        <time>2021-08-10 08:20:05</time>
      </trkpt>
      <trkpt lat="42.83692" lon="-0.49086">
        <ele>1931</ele>
        <time>2021-08-10 08:20:06</time>
      </trkpt>
      <trkpt lat="42.83691" lon="-0.49087">
        <ele>1931</ele>
        <time>2021-08-10 08:20:07</time>
      </trkpt>
      <trkpt lat="42.8369" lon="-0.49087">
        <ele>1930.4</ele>
        <time>2021-08-10 08:20:08</time>
      </trkpt>
      <trkpt lat="42.83689" lon="-0.49087">
        <ele>1930.6</ele>
        <time>2021-08-10 08:20:09</time>
      </trkpt>
      <trkpt lat="42.83689" lon="-0.49086">
        <ele>1930.4</ele>
        <time>2021-08-10 08:20:10</time>
      </trkpt>
      <trkpt lat="42.83688" lon="-0.49085">
        <ele>1930.4</ele>
        <time>2021-08-10 08:20:11</time>
      </trkpt>
      <trkpt lat="42.83687" lon="-0.49085">
        <ele>1930.2</ele>
        <time>2021-08-10 08:20:12</time>
      </trkpt>
      <trkpt lat="42.83686" lon="-0.49085">
        <ele>1930</ele>
        <time>2021-08-10 08:20:13</time>
      </trkpt>
      <trkpt lat="42.83685" lon="-0.49085">
        <ele>1929.8</ele>
        <time>2021-08-10 08:20:14</time>
      </trkpt>
      <trkpt lat="42.83683" lon="-0.49085">
        <ele>1929.8</ele>
        <time>2021-08-10 08:20:15</time>
      </trkpt>
      <trkpt lat="42.83683" lon="-0.49085">
        <ele>1929.6</ele>
        <time>2021-08-10 08:20:16</time>
      </trkpt>
      <trkpt lat="42.83681" lon="-0.49086">
        <ele>1929.4</ele>
        <time>2021-08-10 08:20:17</time>
      </trkpt>
      <trkpt lat="42.83681" lon="-0.49086">
        <ele>1929.2</ele>
        <time>2021-08-10 08:20:18</time>
      </trkpt>
      <trkpt lat="42.8368" lon="-0.49086">
        <ele>1929</ele>
        <time>2021-08-10 08:20:19</time>
      </trkpt>
      <trkpt lat="42.83679" lon="-0.49086">
        <ele>1929</ele>
        <time>2021-08-10 08:20:20</time>
      </trkpt>
      <trkpt lat="42.83678" lon="-0.49087">
        <ele>1929</ele>
        <time>2021-08-10 08:20:21</time>
      </trkpt>
      <trkpt lat="42.83677" lon="-0.49087">
        <ele>1928.8</ele>
        <time>2021-08-10 08:20:22</time>
      </trkpt>
      <trkpt lat="42.83676" lon="-0.49088">
        <ele>1928.6</ele>
        <time>2021-08-10 08:20:23</time>
      </trkpt>
      <trkpt lat="42.83675" lon="-0.49089">
        <ele>1928.6</ele>
        <time>2021-08-10 08:20:24</time>
      </trkpt>
      <trkpt lat="42.83674" lon="-0.4909">
        <ele>1928.6</ele>
        <time>2021-08-10 08:20:25</time>
      </trkpt>
      <trkpt lat="42.83672" lon="-0.49091">
        <ele>1928.4</ele>
        <time>2021-08-10 08:20:26</time>
      </trkpt>
      <trkpt lat="42.83672" lon="-0.49091">
        <ele>1928.4</ele>
        <time>2021-08-10 08:20:27</time>
      </trkpt>
      <trkpt lat="42.83671" lon="-0.49092">
        <ele>1928.4</ele>
        <time>2021-08-10 08:20:28</time>
      </trkpt>
      <trkpt lat="42.8367" lon="-0.49092">
        <ele>1927.8</ele>
        <time>2021-08-10 08:20:29</time>
      </trkpt>
      <trkpt lat="42.83669" lon="-0.49092">
        <ele>1927.6</ele>
        <time>2021-08-10 08:20:30</time>
      </trkpt>
      <trkpt lat="42.83668" lon="-0.49092">
        <ele>1927.2</ele>
        <time>2021-08-10 08:20:31</time>
      </trkpt>
      <trkpt lat="42.83667" lon="-0.49092">
        <ele>1927.2</ele>
        <time>2021-08-10 08:20:32</time>
      </trkpt>
      <trkpt lat="42.83666" lon="-0.49092">
        <ele>1927.2</ele>
        <time>2021-08-10 08:20:33</time>
      </trkpt>
      <trkpt lat="42.83666" lon="-0.49091">
        <ele>1927</ele>
        <time>2021-08-10 08:20:34</time>
      </trkpt>
      <trkpt lat="42.83665" lon="-0.49091">
        <ele>1926.6</ele>
        <time>2021-08-10 08:20:35</time>
      </trkpt>
      <trkpt lat="42.83664" lon="-0.4909">
        <ele>1926.2</ele>
        <time>2021-08-10 08:20:36</time>
      </trkpt>
      <trkpt lat="42.83663" lon="-0.4909">
        <ele>1925.8</ele>
        <time>2021-08-10 08:20:37</time>
      </trkpt>
      <trkpt lat="42.83663" lon="-0.4909">
        <ele>1926</ele>
        <time>2021-08-10 08:20:38</time>
      </trkpt>
      <trkpt lat="42.83662" lon="-0.49091">
        <ele>1925.8</ele>
        <time>2021-08-10 08:20:39</time>
      </trkpt>
      <trkpt lat="42.83661" lon="-0.49092">
        <ele>1925.8</ele>
        <time>2021-08-10 08:20:40</time>
      </trkpt>
      <trkpt lat="42.8366" lon="-0.49092">
        <ele>1925.8</ele>
        <time>2021-08-10 08:20:41</time>
      </trkpt>
      <trkpt lat="42.83659" lon="-0.49093">
        <ele>1925.8</ele>
        <time>2021-08-10 08:20:42</time>
      </trkpt>
      <trkpt lat="42.83658" lon="-0.49094">
        <ele>1925.8</ele>
        <time>2021-08-10 08:20:43</time>
      </trkpt>
      <trkpt lat="42.83657" lon="-0.49095">
        <ele>1925.8</ele>
        <time>2021-08-10 08:20:44</time>
      </trkpt>
      <trkpt lat="42.83657" lon="-0.49095">
        <ele>1925.6</ele>
        <time>2021-08-10 08:20:45</time>
      </trkpt>
      <trkpt lat="42.83657" lon="-0.49096">
        <ele>1925.4</ele>
        <time>2021-08-10 08:20:46</time>
      </trkpt>
      <trkpt lat="42.83656" lon="-0.49096">
        <ele>1925.2</ele>
        <time>2021-08-10 08:20:47</time>
      </trkpt>
      <trkpt lat="42.83656" lon="-0.49097">
        <ele>1925</ele>
        <time>2021-08-10 08:20:48</time>
      </trkpt>
      <trkpt lat="42.83656" lon="-0.49098">
        <ele>1924.8</ele>
        <time>2021-08-10 08:20:49</time>
      </trkpt>
      <trkpt lat="42.83655" lon="-0.49099">
        <ele>1924.6</ele>
        <time>2021-08-10 08:20:50</time>
      </trkpt>
      <trkpt lat="42.83655" lon="-0.49099">
        <ele>1924.4</ele>
        <time>2021-08-10 08:20:51</time>
      </trkpt>
      <trkpt lat="42.83655" lon="-0.491">
        <ele>1924</ele>
        <time>2021-08-10 08:20:52</time>
      </trkpt>
      <trkpt lat="42.83654" lon="-0.49101">
        <ele>1923.8</ele>
        <time>2021-08-10 08:20:53</time>
      </trkpt>
      <trkpt lat="42.83653" lon="-0.49101">
        <ele>1923.6</ele>
        <time>2021-08-10 08:20:54</time>
      </trkpt>
      <trkpt lat="42.83653" lon="-0.49102">
        <ele>1923.4</ele>
        <time>2021-08-10 08:20:55</time>
      </trkpt>
      <trkpt lat="42.83652" lon="-0.49102">
        <ele>1923.2</ele>
        <time>2021-08-10 08:20:56</time>
      </trkpt>
      <trkpt lat="42.83652" lon="-0.49103">
        <ele>1923</ele>
        <time>2021-08-10 08:20:57</time>
      </trkpt>
      <trkpt lat="42.83651" lon="-0.49103">
        <ele>1923</ele>
        <time>2021-08-10 08:20:58</time>
      </trkpt>
      <trkpt lat="42.83651" lon="-0.49103">
        <ele>1922.6</ele>
        <time>2021-08-10 08:20:59</time>
      </trkpt>
      <trkpt lat="42.83651" lon="-0.49104">
        <ele>1922.4</ele>
        <time>2021-08-10 08:21:00</time>
      </trkpt>
      <trkpt lat="42.83651" lon="-0.49105">
        <ele>1922.4</ele>
        <time>2021-08-10 08:21:01</time>
      </trkpt>
      <trkpt lat="42.83651" lon="-0.49105">
        <ele>1922</ele>
        <time>2021-08-10 08:21:02</time>
      </trkpt>
      <trkpt lat="42.8365" lon="-0.49106">
        <ele>1921.8</ele>
        <time>2021-08-10 08:21:03</time>
      </trkpt>
      <trkpt lat="42.8365" lon="-0.49105">
        <ele>1921.6</ele>
        <time>2021-08-10 08:21:04</time>
      </trkpt>
      <trkpt lat="42.83649" lon="-0.49105">
        <ele>1921.4</ele>
        <time>2021-08-10 08:21:05</time>
      </trkpt>
      <trkpt lat="42.83649" lon="-0.49104">
        <ele>1921</ele>
        <time>2021-08-10 08:21:06</time>
      </trkpt>
      <trkpt lat="42.83648" lon="-0.49104">
        <ele>1920.8</ele>
        <time>2021-08-10 08:21:07</time>
      </trkpt>
      <trkpt lat="42.83648" lon="-0.49103">
        <ele>1920.6</ele>
        <time>2021-08-10 08:21:08</time>
      </trkpt>
      <trkpt lat="42.83647" lon="-0.49103">
        <ele>1920.4</ele>
        <time>2021-08-10 08:21:09</time>
      </trkpt>
      <trkpt lat="42.83647" lon="-0.49102">
        <ele>1920.2</ele>
        <time>2021-08-10 08:21:10</time>
      </trkpt>
      <trkpt lat="42.83646" lon="-0.49101">
        <ele>1920</ele>
        <time>2021-08-10 08:21:11</time>
      </trkpt>
      <trkpt lat="42.83646" lon="-0.49101">
        <ele>1920</ele>
        <time>2021-08-10 08:21:12</time>
      </trkpt>
      <trkpt lat="42.83645" lon="-0.491">
        <ele>1919.6</ele>
        <time>2021-08-10 08:21:13</time>
      </trkpt>
      <trkpt lat="42.83645" lon="-0.49099">
        <ele>1919.6</ele>
        <time>2021-08-10 08:21:14</time>
      </trkpt>
      <trkpt lat="42.83645" lon="-0.49098">
        <ele>1919.4</ele>
        <time>2021-08-10 08:21:15</time>
      </trkpt>
      <trkpt lat="42.83645" lon="-0.49098">
        <ele>1919.2</ele>
        <time>2021-08-10 08:21:16</time>
      </trkpt>
      <trkpt lat="42.83644" lon="-0.49098">
        <ele>1919.2</ele>
        <time>2021-08-10 08:21:17</time>
      </trkpt>
      <trkpt lat="42.83644" lon="-0.49097">
        <ele>1918.8</ele>
        <time>2021-08-10 08:21:18</time>
      </trkpt>
      <trkpt lat="42.83643" lon="-0.49096">
        <ele>1918.6</ele>
        <time>2021-08-10 08:21:19</time>
      </trkpt>
      <trkpt lat="42.83643" lon="-0.49096">
        <ele>1918.4</ele>
        <time>2021-08-10 08:21:20</time>
      </trkpt>
      <trkpt lat="42.83642" lon="-0.49096">
        <ele>1918.2</ele>
        <time>2021-08-10 08:21:21</time>
      </trkpt>
      <trkpt lat="42.83642" lon="-0.49096">
        <ele>1917.6</ele>
        <time>2021-08-10 08:21:22</time>
      </trkpt>
      <trkpt lat="42.83642" lon="-0.49095">
        <ele>1917.6</ele>
        <time>2021-08-10 08:21:23</time>
      </trkpt>
      <trkpt lat="42.83642" lon="-0.49095">
        <ele>1917.4</ele>
        <time>2021-08-10 08:21:24</time>
      </trkpt>
      <trkpt lat="42.83642" lon="-0.49095">
        <ele>1917.4</ele>
        <time>2021-08-10 08:21:25</time>
      </trkpt>
      <trkpt lat="42.83641" lon="-0.49095">
        <ele>1917.6</ele>
        <time>2021-08-10 08:21:26</time>
      </trkpt>
      <trkpt lat="42.83641" lon="-0.49095">
        <ele>1917.4</ele>
        <time>2021-08-10 08:21:27</time>
      </trkpt>
      <trkpt lat="42.83641" lon="-0.49094">
        <ele>1917.4</ele>
        <time>2021-08-10 08:21:28</time>
      </trkpt>
      <trkpt lat="42.8364" lon="-0.49094">
        <ele>1917.2</ele>
        <time>2021-08-10 08:21:29</time>
      </trkpt>
      <trkpt lat="42.8364" lon="-0.49094">
        <ele>1917</ele>
        <time>2021-08-10 08:21:30</time>
      </trkpt>
      <trkpt lat="42.8364" lon="-0.49093">
        <ele>1917</ele>
        <time>2021-08-10 08:21:31</time>
      </trkpt>
      <trkpt lat="42.83639" lon="-0.49093">
        <ele>1917</ele>
        <time>2021-08-10 08:21:32</time>
      </trkpt>
      <trkpt lat="42.83638" lon="-0.49093">
        <ele>1916.8</ele>
        <time>2021-08-10 08:21:33</time>
      </trkpt>
      <trkpt lat="42.83638" lon="-0.49093">
        <ele>1916.8</ele>
        <time>2021-08-10 08:21:34</time>
      </trkpt>
      <trkpt lat="42.83638" lon="-0.49093">
        <ele>1916.6</ele>
        <time>2021-08-10 08:21:35</time>
      </trkpt>
      <trkpt lat="42.83638" lon="-0.49093">
        <ele>1916.4</ele>
        <time>2021-08-10 08:21:36</time>
      </trkpt>
      <trkpt lat="42.83638" lon="-0.49092">
        <ele>1916.4</ele>
        <time>2021-08-10 08:21:37</time>
      </trkpt>
      <trkpt lat="42.83638" lon="-0.49092">
        <ele>1916.4</ele>
        <time>2021-08-10 08:21:38</time>
      </trkpt>
      <trkpt lat="42.83638" lon="-0.49092">
        <ele>1916</ele>
        <time>2021-08-10 08:21:39</time>
      </trkpt>
      <trkpt lat="42.83639" lon="-0.49091">
        <ele>1915.8</ele>
        <time>2021-08-10 08:21:40</time>
      </trkpt>
      <trkpt lat="42.83638" lon="-0.49091">
        <ele>1915.4</ele>
        <time>2021-08-10 08:21:41</time>
      </trkpt>
      <trkpt lat="42.83638" lon="-0.49091">
        <ele>1915.4</ele>
        <time>2021-08-10 08:21:42</time>
      </trkpt>
      <trkpt lat="42.83637" lon="-0.49092">
        <ele>1915.2</ele>
        <time>2021-08-10 08:21:43</time>
      </trkpt>
      <trkpt lat="42.83637" lon="-0.49092">
        <ele>1915.2</ele>
        <time>2021-08-10 08:21:44</time>
      </trkpt>
      <trkpt lat="42.83636" lon="-0.49093">
        <ele>1915</ele>
        <time>2021-08-10 08:21:45</time>
      </trkpt>
      <trkpt lat="42.83636" lon="-0.49094">
        <ele>1915.2</ele>
        <time>2021-08-10 08:21:46</time>
      </trkpt>
      <trkpt lat="42.83636" lon="-0.49095">
        <ele>1915.2</ele>
        <time>2021-08-10 08:21:47</time>
      </trkpt>
      <trkpt lat="42.83636" lon="-0.49096">
        <ele>1914.8</ele>
        <time>2021-08-10 08:21:48</time>
      </trkpt>
      <trkpt lat="42.83635" lon="-0.49096">
        <ele>1914.4</ele>
        <time>2021-08-10 08:21:49</time>
      </trkpt>
      <trkpt lat="42.83635" lon="-0.49097">
        <ele>1914</ele>
        <time>2021-08-10 08:21:50</time>
      </trkpt>
      <trkpt lat="42.83635" lon="-0.49097">
        <ele>1913.8</ele>
        <time>2021-08-10 08:21:51</time>
      </trkpt>
      <trkpt lat="42.83635" lon="-0.49097">
        <ele>1913.6</ele>
        <time>2021-08-10 08:21:52</time>
      </trkpt>
      <trkpt lat="42.83634" lon="-0.49098">
        <ele>1913.4</ele>
        <time>2021-08-10 08:21:53</time>
      </trkpt>
      <trkpt lat="42.83634" lon="-0.49098">
        <ele>1913.4</ele>
        <time>2021-08-10 08:21:54</time>
      </trkpt>
      <trkpt lat="42.83634" lon="-0.49098">
        <ele>1913.4</ele>
        <time>2021-08-10 08:21:55</time>
      </trkpt>
      <trkpt lat="42.83633" lon="-0.49099">
        <ele>1913.2</ele>
        <time>2021-08-10 08:21:56</time>
      </trkpt>
      <trkpt lat="42.83633" lon="-0.49099">
        <ele>1913</ele>
        <time>2021-08-10 08:21:57</time>
      </trkpt>
      <trkpt lat="42.83633" lon="-0.49099">
        <ele>1912.8</ele>
        <time>2021-08-10 08:21:58</time>
      </trkpt>
      <trkpt lat="42.83633" lon="-0.491">
        <ele>1912.8</ele>
        <time>2021-08-10 08:21:59</time>
      </trkpt>
      <trkpt lat="42.83632" lon="-0.491">
        <ele>1912.8</ele>
        <time>2021-08-10 08:22:00</time>
      </trkpt>
      <trkpt lat="42.83632" lon="-0.49101">
        <ele>1912.6</ele>
        <time>2021-08-10 08:22:01</time>
      </trkpt>
      <trkpt lat="42.83631" lon="-0.49102">
        <ele>1912.2</ele>
        <time>2021-08-10 08:22:02</time>
      </trkpt>
      <trkpt lat="42.83631" lon="-0.49102">
        <ele>1912</ele>
        <time>2021-08-10 08:22:03</time>
      </trkpt>
      <trkpt lat="42.8363" lon="-0.49103">
        <ele>1912</ele>
        <time>2021-08-10 08:22:04</time>
      </trkpt>
      <trkpt lat="42.8363" lon="-0.49104">
        <ele>1911.8</ele>
        <time>2021-08-10 08:22:05</time>
      </trkpt>
      <trkpt lat="42.8363" lon="-0.49105">
        <ele>1911.8</ele>
        <time>2021-08-10 08:22:06</time>
      </trkpt>
      <trkpt lat="42.83629" lon="-0.49106">
        <ele>1911.4</ele>
        <time>2021-08-10 08:22:07</time>
      </trkpt>
      <trkpt lat="42.83628" lon="-0.49106">
        <ele>1911.2</ele>
        <time>2021-08-10 08:22:08</time>
      </trkpt>
      <trkpt lat="42.83628" lon="-0.49107">
        <ele>1911</ele>
        <time>2021-08-10 08:22:09</time>
      </trkpt>
      <trkpt lat="42.83627" lon="-0.49108">
        <ele>1910.8</ele>
        <time>2021-08-10 08:22:10</time>
      </trkpt>
      <trkpt lat="42.83627" lon="-0.49109">
        <ele>1910.6</ele>
        <time>2021-08-10 08:22:11</time>
      </trkpt>
      <trkpt lat="42.83626" lon="-0.49109">
        <ele>1910.4</ele>
        <time>2021-08-10 08:22:12</time>
      </trkpt>
      <trkpt lat="42.83626" lon="-0.49111">
        <ele>1910</ele>
        <time>2021-08-10 08:22:13</time>
      </trkpt>
      <trkpt lat="42.83625" lon="-0.49111">
        <ele>1909.8</ele>
        <time>2021-08-10 08:22:14</time>
      </trkpt>
      <trkpt lat="42.83624" lon="-0.49112">
        <ele>1909.6</ele>
        <time>2021-08-10 08:22:15</time>
      </trkpt>
      <trkpt lat="42.83624" lon="-0.49111">
        <ele>1909.4</ele>
        <time>2021-08-10 08:22:16</time>
      </trkpt>
      <trkpt lat="42.83624" lon="-0.49111">
        <ele>1909.2</ele>
        <time>2021-08-10 08:22:17</time>
      </trkpt>
      <trkpt lat="42.83623" lon="-0.49111">
        <ele>1909</ele>
        <time>2021-08-10 08:22:18</time>
      </trkpt>
      <trkpt lat="42.83623" lon="-0.49111">
        <ele>1908.8</ele>
        <time>2021-08-10 08:22:19</time>
      </trkpt>
      <trkpt lat="42.83622" lon="-0.49111">
        <ele>1908.6</ele>
        <time>2021-08-10 08:22:20</time>
      </trkpt>
      <trkpt lat="42.83622" lon="-0.49111">
        <ele>1908.6</ele>
        <time>2021-08-10 08:22:21</time>
      </trkpt>
      <trkpt lat="42.83621" lon="-0.49111">
        <ele>1908.4</ele>
        <time>2021-08-10 08:22:22</time>
      </trkpt>
      <trkpt lat="42.83621" lon="-0.49112">
        <ele>1908.2</ele>
        <time>2021-08-10 08:22:23</time>
      </trkpt>
      <trkpt lat="42.8362" lon="-0.49112">
        <ele>1908</ele>
        <time>2021-08-10 08:22:24</time>
      </trkpt>
      <trkpt lat="42.8362" lon="-0.49112">
        <ele>1908</ele>
        <time>2021-08-10 08:22:25</time>
      </trkpt>
      <trkpt lat="42.83619" lon="-0.49112">
        <ele>1908</ele>
        <time>2021-08-10 08:22:26</time>
      </trkpt>
      <trkpt lat="42.83619" lon="-0.49111">
        <ele>1908</ele>
        <time>2021-08-10 08:22:27</time>
      </trkpt>
      <trkpt lat="42.83619" lon="-0.49111">
        <ele>1907.8</ele>
        <time>2021-08-10 08:22:28</time>
      </trkpt>
      <trkpt lat="42.83618" lon="-0.49111">
        <ele>1907.6</ele>
        <time>2021-08-10 08:22:29</time>
      </trkpt>
      <trkpt lat="42.83618" lon="-0.49111">
        <ele>1907.4</ele>
        <time>2021-08-10 08:22:30</time>
      </trkpt>
      <trkpt lat="42.83617" lon="-0.49112">
        <ele>1907.4</ele>
        <time>2021-08-10 08:22:31</time>
      </trkpt>
      <trkpt lat="42.83617" lon="-0.49112">
        <ele>1907.2</ele>
        <time>2021-08-10 08:22:32</time>
      </trkpt>
      <trkpt lat="42.83616" lon="-0.49112">
        <ele>1907</ele>
        <time>2021-08-10 08:22:33</time>
      </trkpt>
      <trkpt lat="42.83616" lon="-0.49112">
        <ele>1906.8</ele>
        <time>2021-08-10 08:22:34</time>
      </trkpt>
      <trkpt lat="42.83615" lon="-0.49113">
        <ele>1907</ele>
        <time>2021-08-10 08:22:35</time>
      </trkpt>
      <trkpt lat="42.83615" lon="-0.49113">
        <ele>1906.8</ele>
        <time>2021-08-10 08:22:36</time>
      </trkpt>
      <trkpt lat="42.83615" lon="-0.49113">
        <ele>1906.8</ele>
        <time>2021-08-10 08:22:37</time>
      </trkpt>
      <trkpt lat="42.83615" lon="-0.49113">
        <ele>1906.6</ele>
        <time>2021-08-10 08:22:38</time>
      </trkpt>
      <trkpt lat="42.83614" lon="-0.49113">
        <ele>1906.2</ele>
        <time>2021-08-10 08:22:39</time>
      </trkpt>
      <trkpt lat="42.83614" lon="-0.49113">
        <ele>1906</ele>
        <time>2021-08-10 08:22:40</time>
      </trkpt>
      <trkpt lat="42.83613" lon="-0.49113">
        <ele>1906</ele>
        <time>2021-08-10 08:22:41</time>
      </trkpt>
      <trkpt lat="42.83612" lon="-0.49113">
        <ele>1905.8</ele>
        <time>2021-08-10 08:22:42</time>
      </trkpt>
      <trkpt lat="42.83612" lon="-0.49112">
        <ele>1905.8</ele>
        <time>2021-08-10 08:22:43</time>
      </trkpt>
      <trkpt lat="42.83612" lon="-0.49111">
        <ele>1905.6</ele>
        <time>2021-08-10 08:22:44</time>
      </trkpt>
      <trkpt lat="42.83611" lon="-0.49111">
        <ele>1905.4</ele>
        <time>2021-08-10 08:22:45</time>
      </trkpt>
      <trkpt lat="42.83611" lon="-0.49111">
        <ele>1905</ele>
        <time>2021-08-10 08:22:46</time>
      </trkpt>
      <trkpt lat="42.83611" lon="-0.49111">
        <ele>1904.8</ele>
        <time>2021-08-10 08:22:47</time>
      </trkpt>
      <trkpt lat="42.8361" lon="-0.49112">
        <ele>1904.8</ele>
        <time>2021-08-10 08:22:48</time>
      </trkpt>
      <trkpt lat="42.8361" lon="-0.49112">
        <ele>1904.4</ele>
        <time>2021-08-10 08:22:49</time>
      </trkpt>
      <trkpt lat="42.83609" lon="-0.49112">
        <ele>1904.2</ele>
        <time>2021-08-10 08:22:50</time>
      </trkpt>
      <trkpt lat="42.83608" lon="-0.49112">
        <ele>1903.8</ele>
        <time>2021-08-10 08:22:51</time>
      </trkpt>
      <trkpt lat="42.83608" lon="-0.49112">
        <ele>1904</ele>
        <time>2021-08-10 08:22:52</time>
      </trkpt>
      <trkpt lat="42.83607" lon="-0.49112">
        <ele>1903.8</ele>
        <time>2021-08-10 08:22:53</time>
      </trkpt>
      <trkpt lat="42.83606" lon="-0.49112">
        <ele>1903.6</ele>
        <time>2021-08-10 08:22:54</time>
      </trkpt>
      <trkpt lat="42.83606" lon="-0.49112">
        <ele>1903.2</ele>
        <time>2021-08-10 08:22:55</time>
      </trkpt>
      <trkpt lat="42.83606" lon="-0.49113">
        <ele>1902.8</ele>
        <time>2021-08-10 08:22:56</time>
      </trkpt>
      <trkpt lat="42.83605" lon="-0.49113">
        <ele>1903</ele>
        <time>2021-08-10 08:22:57</time>
      </trkpt>
      <trkpt lat="42.83605" lon="-0.49114">
        <ele>1902.8</ele>
        <time>2021-08-10 08:22:58</time>
      </trkpt>
      <trkpt lat="42.83605" lon="-0.49114">
        <ele>1902.6</ele>
        <time>2021-08-10 08:22:59</time>
      </trkpt>
      <trkpt lat="42.83604" lon="-0.49114">
        <ele>1902.4</ele>
        <time>2021-08-10 08:23:00</time>
      </trkpt>
      <trkpt lat="42.83604" lon="-0.49114">
        <ele>1902.4</ele>
        <time>2021-08-10 08:23:01</time>
      </trkpt>
      <trkpt lat="42.83603" lon="-0.49115">
        <ele>1902.4</ele>
        <time>2021-08-10 08:23:02</time>
      </trkpt>
      <trkpt lat="42.83602" lon="-0.49114">
        <ele>1902.4</ele>
        <time>2021-08-10 08:23:03</time>
      </trkpt>
      <trkpt lat="42.83602" lon="-0.49113">
        <ele>1902.4</ele>
        <time>2021-08-10 08:23:04</time>
      </trkpt>
      <trkpt lat="42.83602" lon="-0.49113">
        <ele>1902.2</ele>
        <time>2021-08-10 08:23:05</time>
      </trkpt>
      <trkpt lat="42.83602" lon="-0.49113">
        <ele>1902.2</ele>
        <time>2021-08-10 08:23:06</time>
      </trkpt>
      <trkpt lat="42.83602" lon="-0.49112">
        <ele>1902</ele>
        <time>2021-08-10 08:23:07</time>
      </trkpt>
      <trkpt lat="42.83602" lon="-0.49112">
        <ele>1901.8</ele>
        <time>2021-08-10 08:23:08</time>
      </trkpt>
      <trkpt lat="42.83602" lon="-0.49111">
        <ele>1901.6</ele>
        <time>2021-08-10 08:23:09</time>
      </trkpt>
      <trkpt lat="42.83602" lon="-0.4911">
        <ele>1901.4</ele>
        <time>2021-08-10 08:23:10</time>
      </trkpt>
      <trkpt lat="42.83602" lon="-0.4911">
        <ele>1901.4</ele>
        <time>2021-08-10 08:23:11</time>
      </trkpt>
      <trkpt lat="42.83601" lon="-0.49111">
        <ele>1901.2</ele>
        <time>2021-08-10 08:23:12</time>
      </trkpt>
      <trkpt lat="42.83601" lon="-0.49111">
        <ele>1901</ele>
        <time>2021-08-10 08:23:13</time>
      </trkpt>
      <trkpt lat="42.836" lon="-0.49112">
        <ele>1900.8</ele>
        <time>2021-08-10 08:23:14</time>
      </trkpt>
      <trkpt lat="42.836" lon="-0.49112">
        <ele>1899.6</ele>
        <time>2021-08-10 08:23:15</time>
      </trkpt>
      <trkpt lat="42.83599" lon="-0.49112">
        <ele>1899.4</ele>
        <time>2021-08-10 08:23:16</time>
      </trkpt>
      <trkpt lat="42.83598" lon="-0.49113">
        <ele>1900.4</ele>
        <time>2021-08-10 08:23:17</time>
      </trkpt>
      <trkpt lat="42.83598" lon="-0.49113">
        <ele>1900.4</ele>
        <time>2021-08-10 08:23:18</time>
      </trkpt>
      <trkpt lat="42.83598" lon="-0.49114">
        <ele>1900.2</ele>
        <time>2021-08-10 08:23:19</time>
      </trkpt>
      <trkpt lat="42.83598" lon="-0.49115">
        <ele>1900.2</ele>
        <time>2021-08-10 08:23:20</time>
      </trkpt>
      <trkpt lat="42.83597" lon="-0.49116">
        <ele>1900.2</ele>
        <time>2021-08-10 08:23:21</time>
      </trkpt>
      <trkpt lat="42.83596" lon="-0.49117">
        <ele>1900</ele>
        <time>2021-08-10 08:23:22</time>
      </trkpt>
      <trkpt lat="42.83595" lon="-0.49118">
        <ele>1899.8</ele>
        <time>2021-08-10 08:23:23</time>
      </trkpt>
      <trkpt lat="42.83594" lon="-0.49119">
        <ele>1899.6</ele>
        <time>2021-08-10 08:23:24</time>
      </trkpt>
      <trkpt lat="42.83594" lon="-0.4912">
        <ele>1899.8</ele>
        <time>2021-08-10 08:23:25</time>
      </trkpt>
      <trkpt lat="42.83594" lon="-0.4912">
        <ele>1899.6</ele>
        <time>2021-08-10 08:23:26</time>
      </trkpt>
      <trkpt lat="42.83593" lon="-0.49121">
        <ele>1899.4</ele>
        <time>2021-08-10 08:23:27</time>
      </trkpt>
      <trkpt lat="42.83593" lon="-0.49122">
        <ele>1899.4</ele>
        <time>2021-08-10 08:23:28</time>
      </trkpt>
      <trkpt lat="42.83593" lon="-0.49122">
        <ele>1899.2</ele>
        <time>2021-08-10 08:23:29</time>
      </trkpt>
      <trkpt lat="42.83592" lon="-0.49122">
        <ele>1899.2</ele>
        <time>2021-08-10 08:23:30</time>
      </trkpt>
      <trkpt lat="42.83591" lon="-0.49122">
        <ele>1899.2</ele>
        <time>2021-08-10 08:23:31</time>
      </trkpt>
      <trkpt lat="42.8359" lon="-0.49122">
        <ele>1899</ele>
        <time>2021-08-10 08:23:32</time>
      </trkpt>
      <trkpt lat="42.83589" lon="-0.49123">
        <ele>1898.8</ele>
        <time>2021-08-10 08:23:33</time>
      </trkpt>
      <trkpt lat="42.83588" lon="-0.49124">
        <ele>1898.8</ele>
        <time>2021-08-10 08:23:34</time>
      </trkpt>
      <trkpt lat="42.83588" lon="-0.49125">
        <ele>1898.8</ele>
        <time>2021-08-10 08:23:35</time>
      </trkpt>
      <trkpt lat="42.83587" lon="-0.49126">
        <ele>1898.8</ele>
        <time>2021-08-10 08:23:36</time>
      </trkpt>
      <trkpt lat="42.83587" lon="-0.49126">
        <ele>1898.6</ele>
        <time>2021-08-10 08:23:37</time>
      </trkpt>
      <trkpt lat="42.83586" lon="-0.49127">
        <ele>1898.4</ele>
        <time>2021-08-10 08:23:38</time>
      </trkpt>
      <trkpt lat="42.83586" lon="-0.49127">
        <ele>1898.2</ele>
        <time>2021-08-10 08:23:39</time>
      </trkpt>
      <trkpt lat="42.83585" lon="-0.49127">
        <ele>1898</ele>
        <time>2021-08-10 08:23:40</time>
      </trkpt>
      <trkpt lat="42.83585" lon="-0.49127">
        <ele>1897.8</ele>
        <time>2021-08-10 08:23:41</time>
      </trkpt>
      <trkpt lat="42.83584" lon="-0.49128">
        <ele>1897.6</ele>
        <time>2021-08-10 08:23:42</time>
      </trkpt>
      <trkpt lat="42.83584" lon="-0.49127">
        <ele>1897.6</ele>
        <time>2021-08-10 08:23:43</time>
      </trkpt>
      <trkpt lat="42.83583" lon="-0.49128">
        <ele>1897.4</ele>
        <time>2021-08-10 08:23:44</time>
      </trkpt>
      <trkpt lat="42.83583" lon="-0.49128">
        <ele>1897.6</ele>
        <time>2021-08-10 08:23:45</time>
      </trkpt>
      <trkpt lat="42.83582" lon="-0.49128">
        <ele>1897.4</ele>
        <time>2021-08-10 08:23:46</time>
      </trkpt>
      <trkpt lat="42.83582" lon="-0.49129">
        <ele>1897.4</ele>
        <time>2021-08-10 08:23:47</time>
      </trkpt>
      <trkpt lat="42.83582" lon="-0.4913">
        <ele>1897.4</ele>
        <time>2021-08-10 08:23:48</time>
      </trkpt>
      <trkpt lat="42.83582" lon="-0.4913">
        <ele>1897.4</ele>
        <time>2021-08-10 08:23:49</time>
      </trkpt>
      <trkpt lat="42.83582" lon="-0.4913">
        <ele>1897.4</ele>
        <time>2021-08-10 08:23:50</time>
      </trkpt>
      <trkpt lat="42.83582" lon="-0.4913">
        <ele>1897.4</ele>
        <time>2021-08-10 08:23:51</time>
      </trkpt>
      <trkpt lat="42.83582" lon="-0.4913">
        <ele>1897.4</ele>
        <time>2021-08-10 08:23:52</time>
      </trkpt>
      <trkpt lat="42.83581" lon="-0.49131">
        <ele>1897</ele>
        <time>2021-08-10 08:23:53</time>
      </trkpt>
      <trkpt lat="42.83581" lon="-0.49131">
        <ele>1897</ele>
        <time>2021-08-10 08:23:57</time>
      </trkpt>
      <trkpt lat="42.83581" lon="-0.49131">
        <ele>1897</ele>
        <time>2021-08-10 08:23:58</time>
      </trkpt>
      <trkpt lat="42.8358" lon="-0.49132">
        <ele>1897.2</ele>
        <time>2021-08-10 08:23:59</time>
      </trkpt>
      <trkpt lat="42.83579" lon="-0.49133">
        <ele>1897.2</ele>
        <time>2021-08-10 08:24:00</time>
      </trkpt>
      <trkpt lat="42.83579" lon="-0.49133">
        <ele>1896.8</ele>
        <time>2021-08-10 08:24:01</time>
      </trkpt>
      <trkpt lat="42.83578" lon="-0.49133">
        <ele>1896.8</ele>
        <time>2021-08-10 08:24:02</time>
      </trkpt>
      <trkpt lat="42.83579" lon="-0.49133">
        <ele>1896.4</ele>
        <time>2021-08-10 08:24:03</time>
      </trkpt>
      <trkpt lat="42.83576" lon="-0.49137">
        <ele>1896.4</ele>
        <time>2021-08-10 08:24:04</time>
      </trkpt>
      <trkpt lat="42.83576" lon="-0.49136">
        <ele>1896.4</ele>
        <time>2021-08-10 08:24:05</time>
      </trkpt>
      <trkpt lat="42.83577" lon="-0.49134">
        <ele>1896</ele>
        <time>2021-08-10 08:24:06</time>
      </trkpt>
      <trkpt lat="42.83575" lon="-0.49136">
        <ele>1896</ele>
        <time>2021-08-10 08:24:07</time>
      </trkpt>
      <trkpt lat="42.83575" lon="-0.49135">
        <ele>1896</ele>
        <time>2021-08-10 08:24:08</time>
      </trkpt>
      <trkpt lat="42.83574" lon="-0.49136">
        <ele>1895.8</ele>
        <time>2021-08-10 08:24:09</time>
      </trkpt>
      <trkpt lat="42.83574" lon="-0.49136">
        <ele>1895.8</ele>
        <time>2021-08-10 08:24:10</time>
      </trkpt>
      <trkpt lat="42.83573" lon="-0.49136">
        <ele>1895.8</ele>
        <time>2021-08-10 08:24:11</time>
      </trkpt>
      <trkpt lat="42.83574" lon="-0.49136">
        <ele>1895.8</ele>
        <time>2021-08-10 08:24:14</time>
      </trkpt>
      <trkpt lat="42.83573" lon="-0.49137">
        <ele>1895.6</ele>
        <time>2021-08-10 08:24:15</time>
      </trkpt>
      <trkpt lat="42.83573" lon="-0.49138">
        <ele>1895.4</ele>
        <time>2021-08-10 08:24:16</time>
      </trkpt>
      <trkpt lat="42.83573" lon="-0.49138">
        <ele>1895.4</ele>
        <time>2021-08-10 08:24:17</time>
      </trkpt>
      <trkpt lat="42.83571" lon="-0.49139">
        <ele>1895.2</ele>
        <time>2021-08-10 08:24:18</time>
      </trkpt>
      <trkpt lat="42.83571" lon="-0.4914">
        <ele>1895</ele>
        <time>2021-08-10 08:24:19</time>
      </trkpt>
      <trkpt lat="42.8357" lon="-0.4914">
        <ele>1894.6</ele>
        <time>2021-08-10 08:24:20</time>
      </trkpt>
      <trkpt lat="42.83569" lon="-0.4914">
        <ele>1894.6</ele>
        <time>2021-08-10 08:24:21</time>
      </trkpt>
      <trkpt lat="42.83569" lon="-0.49141">
        <ele>1894.2</ele>
        <time>2021-08-10 08:24:22</time>
      </trkpt>
      <trkpt lat="42.83569" lon="-0.49141">
        <ele>1894.2</ele>
        <time>2021-08-10 08:24:23</time>
      </trkpt>
      <trkpt lat="42.83568" lon="-0.49142">
        <ele>1894.2</ele>
        <time>2021-08-10 08:24:24</time>
      </trkpt>
      <trkpt lat="42.83567" lon="-0.49142">
        <ele>1894</ele>
        <time>2021-08-10 08:24:25</time>
      </trkpt>
      <trkpt lat="42.83567" lon="-0.49143">
        <ele>1893.8</ele>
        <time>2021-08-10 08:24:26</time>
      </trkpt>
      <trkpt lat="42.83566" lon="-0.49143">
        <ele>1893.6</ele>
        <time>2021-08-10 08:24:27</time>
      </trkpt>
      <trkpt lat="42.83566" lon="-0.49144">
        <ele>1893.2</ele>
        <time>2021-08-10 08:24:28</time>
      </trkpt>
      <trkpt lat="42.83565" lon="-0.49144">
        <ele>1893.2</ele>
        <time>2021-08-10 08:24:29</time>
      </trkpt>
      <trkpt lat="42.83565" lon="-0.49143">
        <ele>1893</ele>
        <time>2021-08-10 08:24:30</time>
      </trkpt>
      <trkpt lat="42.83565" lon="-0.49143">
        <ele>1893</ele>
        <time>2021-08-10 08:24:31</time>
      </trkpt>
      <trkpt lat="42.83564" lon="-0.49142">
        <ele>1893</ele>
        <time>2021-08-10 08:24:32</time>
      </trkpt>
      <trkpt lat="42.83564" lon="-0.49142">
        <ele>1892.8</ele>
        <time>2021-08-10 08:24:33</time>
      </trkpt>
      <trkpt lat="42.83563" lon="-0.49142">
        <ele>1892.6</ele>
        <time>2021-08-10 08:24:34</time>
      </trkpt>
      <trkpt lat="42.83563" lon="-0.49142">
        <ele>1892.6</ele>
        <time>2021-08-10 08:24:35</time>
      </trkpt>
      <trkpt lat="42.83563" lon="-0.49143">
        <ele>1892.6</ele>
        <time>2021-08-10 08:24:36</time>
      </trkpt>
      <trkpt lat="42.83563" lon="-0.49143">
        <ele>1892.4</ele>
        <time>2021-08-10 08:24:37</time>
      </trkpt>
      <trkpt lat="42.83564" lon="-0.49143">
        <ele>1892.6</ele>
        <time>2021-08-10 08:24:38</time>
      </trkpt>
      <trkpt lat="42.83564" lon="-0.49143">
        <ele>1892.6</ele>
        <time>2021-08-10 08:24:39</time>
      </trkpt>
      <trkpt lat="42.83564" lon="-0.49143">
        <ele>1892.6</ele>
        <time>2021-08-10 08:24:40</time>
      </trkpt>
      <trkpt lat="42.83564" lon="-0.49143">
        <ele>1892.4</ele>
        <time>2021-08-10 08:24:41</time>
      </trkpt>
      <trkpt lat="42.83563" lon="-0.49143">
        <ele>1892.4</ele>
        <time>2021-08-10 08:24:42</time>
      </trkpt>
      <trkpt lat="42.83563" lon="-0.49144">
        <ele>1892.6</ele>
        <time>2021-08-10 08:24:43</time>
      </trkpt>
      <trkpt lat="42.83563" lon="-0.49143">
        <ele>1892.8</ele>
        <time>2021-08-10 08:24:49</time>
      </trkpt>
      <trkpt lat="42.83563" lon="-0.49143">
        <ele>1892.6</ele>
        <time>2021-08-10 08:24:50</time>
      </trkpt>
      <trkpt lat="42.83563" lon="-0.49143">
        <ele>1892.6</ele>
        <time>2021-08-10 08:24:51</time>
      </trkpt>
      <trkpt lat="42.83562" lon="-0.49143">
        <ele>1892.4</ele>
        <time>2021-08-10 08:24:52</time>
      </trkpt>
      <trkpt lat="42.83561" lon="-0.49144">
        <ele>1892.4</ele>
        <time>2021-08-10 08:24:53</time>
      </trkpt>
      <trkpt lat="42.83561" lon="-0.49144">
        <ele>1892.4</ele>
        <time>2021-08-10 08:24:54</time>
      </trkpt>
      <trkpt lat="42.83561" lon="-0.49144">
        <ele>1892.2</ele>
        <time>2021-08-10 08:24:55</time>
      </trkpt>
      <trkpt lat="42.83561" lon="-0.49144">
        <ele>1893</ele>
        <time>2021-08-10 08:24:56</time>
      </trkpt>
      <trkpt lat="42.83561" lon="-0.49144">
        <ele>1892.4</ele>
        <time>2021-08-10 08:24:57</time>
      </trkpt>
      <trkpt lat="42.8356" lon="-0.49144">
        <ele>1892.6</ele>
        <time>2021-08-10 08:24:58</time>
      </trkpt>
      <trkpt lat="42.8356" lon="-0.49145">
        <ele>1892.2</ele>
        <time>2021-08-10 08:24:59</time>
      </trkpt>
      <trkpt lat="42.8356" lon="-0.49145">
        <ele>1892.2</ele>
      </trkpt>
      <trkpt lat="42.8356" lon="-0.49145">
        <ele>1892.2</ele>
        <time>2021-08-10 08:25:01</time>
      </trkpt>
      <trkpt lat="42.8356" lon="-0.49144">
        <ele>1892.2</ele>
        <time>2021-08-10 08:25:02</time>
      </trkpt>
      <trkpt lat="42.8356" lon="-0.49145">
        <ele>1892</ele>
        <time>2021-08-10 08:25:03</time>
      </trkpt>
      <trkpt lat="42.83559" lon="-0.49146">
        <ele>1892</ele>
        <time>2021-08-10 08:25:04</time>
      </trkpt>
      <trkpt lat="42.8356" lon="-0.49146">
        <ele>1892</ele>
        <time>2021-08-10 08:25:05</time>
      </trkpt>
      <trkpt lat="42.83559" lon="-0.49146">
        <ele>1892.2</ele>
        <time>2021-08-10 08:25:06</time>
      </trkpt>
      <trkpt lat="42.83559" lon="-0.49146">
        <ele>1892</ele>
        <time>2021-08-10 08:25:07</time>
      </trkpt>
      <trkpt lat="42.83559" lon="-0.49146">
        <ele>1892</ele>
        <time>2021-08-10 08:25:08</time>
      </trkpt>
      <trkpt lat="42.83558" lon="-0.49147">
        <ele>1892</ele>
        <time>2021-08-10 08:25:09</time>
      </trkpt>
      <trkpt lat="42.83557" lon="-0.49148">
        <ele>1891.8</ele>
        <time>2021-08-10 08:25:12</time>
      </trkpt>
      <trkpt lat="42.83557" lon="-0.49147">
        <ele>1891.8</ele>
        <time>2021-08-10 08:25:13</time>
      </trkpt>
      <trkpt lat="42.83558" lon="-0.49147">
        <ele>1891.4</ele>
        <time>2021-08-10 08:25:14</time>
      </trkpt>
      <trkpt lat="42.83558" lon="-0.49147">
        <ele>1891.4</ele>
        <time>2021-08-10 08:25:15</time>
      </trkpt>
      <trkpt lat="42.83558" lon="-0.49147">
        <ele>1891.4</ele>
        <time>2021-08-10 08:25:16</time>
      </trkpt>
      <trkpt lat="42.83557" lon="-0.49146">
        <ele>1891.2</ele>
        <time>2021-08-10 08:25:17</time>
      </trkpt>
      <trkpt lat="42.83556" lon="-0.49145">
        <ele>1891.2</ele>
        <time>2021-08-10 08:25:18</time>
      </trkpt>
      <trkpt lat="42.83556" lon="-0.49146">
        <ele>1891.2</ele>
        <time>2021-08-10 08:25:19</time>
      </trkpt>
      <trkpt lat="42.83557" lon="-0.49145">
        <ele>1891.2</ele>
        <time>2021-08-10 08:25:20</time>
      </trkpt>
      <trkpt lat="42.83557" lon="-0.49145">
        <ele>1891.2</ele>
        <time>2021-08-10 08:25:21</time>
      </trkpt>
      <trkpt lat="42.83557" lon="-0.49145">
        <ele>1891.2</ele>
        <time>2021-08-10 08:25:22</time>
      </trkpt>
      <trkpt lat="42.83556" lon="-0.49146">
        <ele>1891.2</ele>
        <time>2021-08-10 08:25:23</time>
      </trkpt>
      <trkpt lat="42.83555" lon="-0.49147">
        <ele>1891.2</ele>
        <time>2021-08-10 08:25:24</time>
      </trkpt>
      <trkpt lat="42.83555" lon="-0.49147">
        <ele>1891</ele>
      </trkpt>
      <trkpt lat="42.83555" lon="-0.49147">
        <ele>1891</ele>
        <time>2021-08-10 08:25:25</time>
      </trkpt>
      <trkpt lat="42.83554" lon="-0.49147">
        <ele>1891</ele>
        <time>2021-08-10 08:25:26</time>
      </trkpt>
      <trkpt lat="42.83553" lon="-0.49148">
        <ele>1891</ele>
        <time>2021-08-10 08:25:27</time>
      </trkpt>
      <trkpt lat="42.83553" lon="-0.49149">
        <ele>1890.8</ele>
        <time>2021-08-10 08:25:28</time>
      </trkpt>
      <trkpt lat="42.83552" lon="-0.49149">
        <ele>1890.6</ele>
        <time>2021-08-10 08:25:29</time>
      </trkpt>
      <trkpt lat="42.83551" lon="-0.49149">
        <ele>1890.4</ele>
        <time>2021-08-10 08:25:30</time>
      </trkpt>
      <trkpt lat="42.83551" lon="-0.49149">
        <ele>1890.2</ele>
        <time>2021-08-10 08:25:34</time>
      </trkpt>
      <trkpt lat="42.8355" lon="-0.4915">
        <ele>1890.2</ele>
        <time>2021-08-10 08:25:35</time>
      </trkpt>
      <trkpt lat="42.83549" lon="-0.4915">
        <ele>1890</ele>
        <time>2021-08-10 08:25:36</time>
      </trkpt>
      <trkpt lat="42.83547" lon="-0.49151">
        <ele>1890</ele>
        <time>2021-08-10 08:25:37</time>
      </trkpt>
      <trkpt lat="42.83546" lon="-0.49151">
        <ele>1889.8</ele>
        <time>2021-08-10 08:25:38</time>
      </trkpt>
      <trkpt lat="42.83545" lon="-0.49151">
        <ele>1889.6</ele>
        <time>2021-08-10 08:25:39</time>
      </trkpt>
      <trkpt lat="42.83545" lon="-0.49152">
        <ele>1889.2</ele>
        <time>2021-08-10 08:25:40</time>
      </trkpt>
      <trkpt lat="42.83546" lon="-0.4915">
        <ele>1889.2</ele>
        <time>2021-08-10 08:25:41</time>
      </trkpt>
      <trkpt lat="42.83545" lon="-0.4915">
        <ele>1888.8</ele>
        <time>2021-08-10 08:25:42</time>
      </trkpt>
      <trkpt lat="42.83544" lon="-0.49151">
        <ele>1888.8</ele>
        <time>2021-08-10 08:25:43</time>
      </trkpt>
      <trkpt lat="42.83543" lon="-0.49151">
        <ele>1889</ele>
        <time>2021-08-10 08:25:44</time>
      </trkpt>
      <trkpt lat="42.83543" lon="-0.49151">
        <ele>1889</ele>
        <time>2021-08-10 08:25:46</time>
      </trkpt>
      <trkpt lat="42.83542" lon="-0.49151">
        <ele>1888.4</ele>
      </trkpt>
      <trkpt lat="42.83542" lon="-0.49151">
        <ele>1887.6</ele>
        <time>2021-08-10 08:25:47</time>
      </trkpt>
      <trkpt lat="42.83541" lon="-0.49151">
        <ele>1888</ele>
        <time>2021-08-10 08:25:48</time>
      </trkpt>
      <trkpt lat="42.83541" lon="-0.49151">
        <ele>1887.6</ele>
        <time>2021-08-10 08:25:49</time>
      </trkpt>
      <trkpt lat="42.83541" lon="-0.49151">
        <ele>1887.6</ele>
        <time>2021-08-10 08:25:50</time>
      </trkpt>
      <trkpt lat="42.8354" lon="-0.49151">
        <ele>1887.8</ele>
        <time>2021-08-10 08:25:51</time>
      </trkpt>
      <trkpt lat="42.83539" lon="-0.49152">
        <ele>1887.6</ele>
        <time>2021-08-10 08:25:52</time>
      </trkpt>
      <trkpt lat="42.83538" lon="-0.49152">
        <ele>1887.4</ele>
        <time>2021-08-10 08:25:53</time>
      </trkpt>
      <trkpt lat="42.83538" lon="-0.49152">
        <ele>1887.6</ele>
        <time>2021-08-10 08:25:54</time>
      </trkpt>
      <trkpt lat="42.83537" lon="-0.49153">
        <ele>1887.4</ele>
        <time>2021-08-10 08:25:55</time>
      </trkpt>
      <trkpt lat="42.83536" lon="-0.49152">
        <ele>1887.2</ele>
        <time>2021-08-10 08:25:56</time>
      </trkpt>
      <trkpt lat="42.83536" lon="-0.49152">
        <ele>1887.2</ele>
        <time>2021-08-10 08:25:57</time>
      </trkpt>
      <trkpt lat="42.83536" lon="-0.49152">
        <ele>1887.2</ele>
        <time>2021-08-10 08:25:58</time>
      </trkpt>
      <trkpt lat="42.83536" lon="-0.49153">
        <ele>1886.8</ele>
        <time>2021-08-10 08:25:59</time>
      </trkpt>
      <trkpt lat="42.83535" lon="-0.49154">
        <ele>1887</ele>
        <time>2021-08-10 08:26:00</time>
      </trkpt>
      <trkpt lat="42.83535" lon="-0.49153">
        <ele>1887</ele>
        <time>2021-08-10 08:26:01</time>
      </trkpt>
      <trkpt lat="42.83534" lon="-0.49154">
        <ele>1887</ele>
        <time>2021-08-10 08:26:02</time>
      </trkpt>
      <trkpt lat="42.83534" lon="-0.49154">
        <ele>1886.8</ele>
        <time>2021-08-10 08:26:03</time>
      </trkpt>
      <trkpt lat="42.83533" lon="-0.49155">
        <ele>1886.6</ele>
        <time>2021-08-10 08:26:04</time>
      </trkpt>
      <trkpt lat="42.83533" lon="-0.49156">
        <ele>1886.6</ele>
        <time>2021-08-10 08:26:06</time>
      </trkpt>
      <trkpt lat="42.83532" lon="-0.49156">
        <ele>1886.4</ele>
      </trkpt>
      <trkpt lat="42.83532" lon="-0.49156">
        <ele>1886</ele>
        <time>2021-08-10 08:26:07</time>
      </trkpt>
      <trkpt lat="42.83532" lon="-0.49156">
        <ele>1886.4</ele>
        <time>2021-08-10 08:26:08</time>
      </trkpt>
      <trkpt lat="42.83532" lon="-0.49156">
        <ele>1886.2</ele>
        <time>2021-08-10 08:26:13</time>
      </trkpt>
      <trkpt lat="42.83532" lon="-0.49156">
        <ele>1886.4</ele>
        <time>2021-08-10 08:26:14</time>
      </trkpt>
      <trkpt lat="42.83531" lon="-0.49156">
        <ele>1886.2</ele>
        <time>2021-08-10 08:26:15</time>
      </trkpt>
      <trkpt lat="42.83531" lon="-0.49156">
        <ele>1886</ele>
        <time>2021-08-10 08:26:16</time>
      </trkpt>
      <trkpt lat="42.8353" lon="-0.49157">
        <ele>1886</ele>
        <time>2021-08-10 08:26:17</time>
      </trkpt>
      <trkpt lat="42.8353" lon="-0.49157">
        <ele>1885.8</ele>
        <time>2021-08-10 08:26:18</time>
      </trkpt>
      <trkpt lat="42.8353" lon="-0.49157">
        <ele>1885.8</ele>
        <time>2021-08-10 08:26:19</time>
      </trkpt>
      <trkpt lat="42.83529" lon="-0.49158">
        <ele>1885.6</ele>
        <time>2021-08-10 08:26:20</time>
      </trkpt>
      <trkpt lat="42.83529" lon="-0.49158">
        <ele>1885.4</ele>
        <time>2021-08-10 08:26:21</time>
      </trkpt>
      <trkpt lat="42.83527" lon="-0.49159">
        <ele>1885.2</ele>
        <time>2021-08-10 08:26:22</time>
      </trkpt>
      <trkpt lat="42.83527" lon="-0.49159">
        <ele>1885.2</ele>
        <time>2021-08-10 08:26:23</time>
      </trkpt>
      <trkpt lat="42.83527" lon="-0.49159">
        <ele>1884.8</ele>
        <time>2021-08-10 08:26:25</time>
      </trkpt>
      <trkpt lat="42.83527" lon="-0.49159">
        <ele>1884.6</ele>
        <time>2021-08-10 08:26:26</time>
      </trkpt>
      <trkpt lat="42.83526" lon="-0.4916">
        <ele>1884.6</ele>
        <time>2021-08-10 08:26:27</time>
      </trkpt>
      <trkpt lat="42.83525" lon="-0.4916">
        <ele>1884.6</ele>
        <time>2021-08-10 08:26:28</time>
      </trkpt>
      <trkpt lat="42.83525" lon="-0.49161">
        <ele>1884.2</ele>
        <time>2021-08-10 08:26:29</time>
      </trkpt>
      <trkpt lat="42.83524" lon="-0.49162">
        <ele>1884.4</ele>
        <time>2021-08-10 08:26:30</time>
      </trkpt>
      <trkpt lat="42.83524" lon="-0.49162">
        <ele>1884.2</ele>
        <time>2021-08-10 08:26:31</time>
      </trkpt>
      <trkpt lat="42.83523" lon="-0.49162">
        <ele>1884</ele>
        <time>2021-08-10 08:26:32</time>
      </trkpt>
      <trkpt lat="42.83523" lon="-0.49162">
        <ele>1884</ele>
        <time>2021-08-10 08:26:33</time>
      </trkpt>
      <trkpt lat="42.83522" lon="-0.49162">
        <ele>1883.6</ele>
        <time>2021-08-10 08:26:34</time>
      </trkpt>
      <trkpt lat="42.83521" lon="-0.49162">
        <ele>1883.4</ele>
        <time>2021-08-10 08:26:35</time>
      </trkpt>
      <trkpt lat="42.83521" lon="-0.49162">
        <ele>1883.4</ele>
        <time>2021-08-10 08:26:36</time>
      </trkpt>
      <trkpt lat="42.83521" lon="-0.49162">
        <ele>1883.4</ele>
        <time>2021-08-10 08:26:37</time>
      </trkpt>
      <trkpt lat="42.83521" lon="-0.49162">
        <ele>1883.6</ele>
        <time>2021-08-10 08:26:38</time>
      </trkpt>
      <trkpt lat="42.8352" lon="-0.49162">
        <ele>1883.8</ele>
        <time>2021-08-10 08:26:39</time>
      </trkpt>
      <trkpt lat="42.8352" lon="-0.49162">
        <ele>1883.6</ele>
        <time>2021-08-10 08:26:40</time>
      </trkpt>
      <trkpt lat="42.8352" lon="-0.49162">
        <ele>1883.6</ele>
        <time>2021-08-10 08:26:41</time>
      </trkpt>
      <trkpt lat="42.8352" lon="-0.49162">
        <ele>1883.2</ele>
        <time>2021-08-10 08:26:42</time>
      </trkpt>
      <trkpt lat="42.83519" lon="-0.49163">
        <ele>1883.8</ele>
        <time>2021-08-10 08:26:43</time>
      </trkpt>
      <trkpt lat="42.83519" lon="-0.49163">
        <ele>1883.2</ele>
        <time>2021-08-10 08:26:44</time>
      </trkpt>
      <trkpt lat="42.83519" lon="-0.49163">
        <ele>1883.2</ele>
        <time>2021-08-10 08:26:45</time>
      </trkpt>
      <trkpt lat="42.83519" lon="-0.49163">
        <ele>1883.2</ele>
        <time>2021-08-10 08:26:46</time>
      </trkpt>
      <trkpt lat="42.83518" lon="-0.49163">
        <ele>1882.8</ele>
        <time>2021-08-10 08:26:47</time>
      </trkpt>
      <trkpt lat="42.83518" lon="-0.49163">
        <ele>1882.8</ele>
        <time>2021-08-10 08:26:48</time>
      </trkpt>
      <trkpt lat="42.83517" lon="-0.49165">
        <ele>1882.6</ele>
        <time>2021-08-10 08:26:49</time>
      </trkpt>
      <trkpt lat="42.83517" lon="-0.49165">
        <ele>1882.4</ele>
        <time>2021-08-10 08:26:50</time>
      </trkpt>
      <trkpt lat="42.83516" lon="-0.49165">
        <ele>1882.2</ele>
        <time>2021-08-10 08:26:51</time>
      </trkpt>
      <trkpt lat="42.83515" lon="-0.49166">
        <ele>1882.4</ele>
        <time>2021-08-10 08:26:52</time>
      </trkpt>
      <trkpt lat="42.83515" lon="-0.49167">
        <ele>1882.4</ele>
        <time>2021-08-10 08:26:53</time>
      </trkpt>
      <trkpt lat="42.83515" lon="-0.49168">
        <ele>1882.2</ele>
        <time>2021-08-10 08:26:54</time>
      </trkpt>
      <trkpt lat="42.83514" lon="-0.49169">
        <ele>1882.2</ele>
        <time>2021-08-10 08:26:55</time>
      </trkpt>
      <trkpt lat="42.83513" lon="-0.49169">
        <ele>1881.4</ele>
        <time>2021-08-10 08:26:56</time>
      </trkpt>
      <trkpt lat="42.83512" lon="-0.4917">
        <ele>1881.4</ele>
        <time>2021-08-10 08:26:57</time>
      </trkpt>
      <trkpt lat="42.83511" lon="-0.4917">
        <ele>1881.8</ele>
        <time>2021-08-10 08:26:58</time>
      </trkpt>
      <trkpt lat="42.8351" lon="-0.4917">
        <ele>1881.4</ele>
        <time>2021-08-10 08:26:59</time>
      </trkpt>
      <trkpt lat="42.83511" lon="-0.4917">
        <ele>1881.4</ele>
        <time>2021-08-10 08:27:00</time>
      </trkpt>
      <trkpt lat="42.8351" lon="-0.49171">
        <ele>1881.4</ele>
        <time>2021-08-10 08:27:01</time>
      </trkpt>
      <trkpt lat="42.8351" lon="-0.49172">
        <ele>1881.8</ele>
        <time>2021-08-10 08:27:02</time>
      </trkpt>
      <trkpt lat="42.83509" lon="-0.49172">
        <ele>1881.4</ele>
        <time>2021-08-10 08:27:03</time>
      </trkpt>
      <trkpt lat="42.83509" lon="-0.49173">
        <ele>1881.2</ele>
        <time>2021-08-10 08:27:04</time>
      </trkpt>
      <trkpt lat="42.83509" lon="-0.49173">
        <ele>1881.2</ele>
        <time>2021-08-10 08:27:05</time>
      </trkpt>
      <trkpt lat="42.83509" lon="-0.49174">
        <ele>1881.2</ele>
        <time>2021-08-10 08:27:06</time>
      </trkpt>
      <trkpt lat="42.83508" lon="-0.49175">
        <ele>1880.8</ele>
        <time>2021-08-10 08:27:07</time>
      </trkpt>
      <trkpt lat="42.83507" lon="-0.49176">
        <ele>1880.8</ele>
        <time>2021-08-10 08:27:08</time>
      </trkpt>
      <trkpt lat="42.83507" lon="-0.49177">
        <ele>1880.4</ele>
        <time>2021-08-10 08:27:09</time>
      </trkpt>
      <trkpt lat="42.83507" lon="-0.49178">
        <ele>1880.6</ele>
        <time>2021-08-10 08:27:10</time>
      </trkpt>
      <trkpt lat="42.83506" lon="-0.49179">
        <ele>1880.4</ele>
        <time>2021-08-10 08:27:11</time>
      </trkpt>
      <trkpt lat="42.83505" lon="-0.49179">
        <ele>1880.6</ele>
        <time>2021-08-10 08:27:13</time>
      </trkpt>
      <trkpt lat="42.83505" lon="-0.4918">
        <ele>1880.2</ele>
        <time>2021-08-10 08:27:14</time>
      </trkpt>
      <trkpt lat="42.83504" lon="-0.4918">
        <ele>1880.4</ele>
        <time>2021-08-10 08:27:15</time>
      </trkpt>
      <trkpt lat="42.83503" lon="-0.49181">
        <ele>1880</ele>
        <time>2021-08-10 08:27:16</time>
      </trkpt>
      <trkpt lat="42.83502" lon="-0.49181">
        <ele>1880</ele>
        <time>2021-08-10 08:27:17</time>
      </trkpt>
      <trkpt lat="42.83501" lon="-0.49181">
        <ele>1880</ele>
        <time>2021-08-10 08:27:18</time>
      </trkpt>
      <trkpt lat="42.83499" lon="-0.49181">
        <ele>1879.8</ele>
        <time>2021-08-10 08:27:19</time>
      </trkpt>
      <trkpt lat="42.83499" lon="-0.49181">
        <ele>1879.6</ele>
        <time>2021-08-10 08:27:20</time>
      </trkpt>
      <trkpt lat="42.83498" lon="-0.49181">
        <ele>1879.4</ele>
        <time>2021-08-10 08:27:21</time>
      </trkpt>
      <trkpt lat="42.83497" lon="-0.49181">
        <ele>1879.2</ele>
        <time>2021-08-10 08:27:22</time>
      </trkpt>
      <trkpt lat="42.83496" lon="-0.49182">
        <ele>1879</ele>
        <time>2021-08-10 08:27:23</time>
      </trkpt>
      <trkpt lat="42.83495" lon="-0.49183">
        <ele>1879</ele>
        <time>2021-08-10 08:27:24</time>
      </trkpt>
      <trkpt lat="42.83495" lon="-0.49183">
        <ele>1879</ele>
        <time>2021-08-10 08:27:25</time>
      </trkpt>
      <trkpt lat="42.83494" lon="-0.49183">
        <ele>1878.8</ele>
        <time>2021-08-10 08:27:26</time>
      </trkpt>
      <trkpt lat="42.83495" lon="-0.49184">
        <ele>1879</ele>
        <time>2021-08-10 08:27:27</time>
      </trkpt>
      <trkpt lat="42.83494" lon="-0.49185">
        <ele>1878.8</ele>
        <time>2021-08-10 08:27:28</time>
      </trkpt>
      <trkpt lat="42.83492" lon="-0.49184">
        <ele>1878.6</ele>
        <time>2021-08-10 08:27:29</time>
      </trkpt>
      <trkpt lat="42.83491" lon="-0.49185">
        <ele>1878.4</ele>
        <time>2021-08-10 08:27:30</time>
      </trkpt>
      <trkpt lat="42.83491" lon="-0.49185">
        <ele>1878.4</ele>
        <time>2021-08-10 08:27:31</time>
      </trkpt>
      <trkpt lat="42.8349" lon="-0.49186">
        <ele>1877.8</ele>
        <time>2021-08-10 08:27:32</time>
      </trkpt>
      <trkpt lat="42.8349" lon="-0.49187">
        <ele>1877.6</ele>
        <time>2021-08-10 08:27:33</time>
      </trkpt>
      <trkpt lat="42.83489" lon="-0.49187">
        <ele>1877.4</ele>
        <time>2021-08-10 08:27:34</time>
      </trkpt>
      <trkpt lat="42.83488" lon="-0.49187">
        <ele>1877.6</ele>
        <time>2021-08-10 08:27:35</time>
      </trkpt>
      <trkpt lat="42.83486" lon="-0.49186">
        <ele>1877.6</ele>
        <time>2021-08-10 08:27:36</time>
      </trkpt>
      <trkpt lat="42.83484" lon="-0.49186">
        <ele>1877.4</ele>
        <time>2021-08-10 08:27:37</time>
      </trkpt>
      <trkpt lat="42.83484" lon="-0.49187">
        <ele>1877.4</ele>
        <time>2021-08-10 08:27:38</time>
      </trkpt>
      <trkpt lat="42.83482" lon="-0.49187">
        <ele>1877.2</ele>
        <time>2021-08-10 08:27:39</time>
      </trkpt>
      <trkpt lat="42.83481" lon="-0.49188">
        <ele>1877.2</ele>
        <time>2021-08-10 08:27:40</time>
      </trkpt>
      <trkpt lat="42.8348" lon="-0.49188">
        <ele>1877</ele>
        <time>2021-08-10 08:27:41</time>
      </trkpt>
      <trkpt lat="42.83479" lon="-0.49189">
        <ele>1877</ele>
        <time>2021-08-10 08:27:42</time>
      </trkpt>
      <trkpt lat="42.83478" lon="-0.49189">
        <ele>1876.8</ele>
        <time>2021-08-10 08:27:43</time>
      </trkpt>
      <trkpt lat="42.83477" lon="-0.49189">
        <ele>1876.8</ele>
        <time>2021-08-10 08:27:44</time>
      </trkpt>
      <trkpt lat="42.83476" lon="-0.4919">
        <ele>1876.8</ele>
        <time>2021-08-10 08:27:45</time>
      </trkpt>
      <trkpt lat="42.83474" lon="-0.4919">
        <ele>1876.8</ele>
        <time>2021-08-10 08:27:46</time>
      </trkpt>
      <trkpt lat="42.83473" lon="-0.49191">
        <ele>1877</ele>
        <time>2021-08-10 08:27:47</time>
      </trkpt>
      <trkpt lat="42.83472" lon="-0.49192">
        <ele>1877</ele>
        <time>2021-08-10 08:27:48</time>
      </trkpt>
      <trkpt lat="42.83471" lon="-0.49191">
        <ele>1877.2</ele>
        <time>2021-08-10 08:27:49</time>
      </trkpt>
      <trkpt lat="42.83471" lon="-0.49192">
        <ele>1877.4</ele>
        <time>2021-08-10 08:27:50</time>
      </trkpt>
      <trkpt lat="42.8347" lon="-0.49193">
        <ele>1877.2</ele>
        <time>2021-08-10 08:27:51</time>
      </trkpt>
      <trkpt lat="42.83469" lon="-0.49193">
        <ele>1877.2</ele>
        <time>2021-08-10 08:27:52</time>
      </trkpt>
      <trkpt lat="42.83469" lon="-0.49193">
        <ele>1877.2</ele>
        <time>2021-08-10 08:27:53</time>
      </trkpt>
      <trkpt lat="42.83468" lon="-0.49193">
        <ele>1877.2</ele>
        <time>2021-08-10 08:27:54</time>
      </trkpt>
      <trkpt lat="42.83467" lon="-0.49193">
        <ele>1877.4</ele>
        <time>2021-08-10 08:27:55</time>
      </trkpt>
      <trkpt lat="42.83467" lon="-0.49193">
        <ele>1877.2</ele>
        <time>2021-08-10 08:27:56</time>
      </trkpt>
      <trkpt lat="42.83466" lon="-0.49193">
        <ele>1877.2</ele>
        <time>2021-08-10 08:27:57</time>
      </trkpt>
      <trkpt lat="42.83465" lon="-0.49193">
        <ele>1877.2</ele>
        <time>2021-08-10 08:27:58</time>
      </trkpt>
      <trkpt lat="42.83464" lon="-0.49192">
        <ele>1877</ele>
        <time>2021-08-10 08:27:59</time>
      </trkpt>
      <trkpt lat="42.83463" lon="-0.49192">
        <ele>1876.8</ele>
        <time>2021-08-10 08:28:00</time>
      </trkpt>
      <trkpt lat="42.83463" lon="-0.49192">
        <ele>1876.4</ele>
        <time>2021-08-10 08:28:01</time>
      </trkpt>
      <trkpt lat="42.83462" lon="-0.49191">
        <ele>1876.4</ele>
        <time>2021-08-10 08:28:02</time>
      </trkpt>
      <trkpt lat="42.83461" lon="-0.49191">
        <ele>1876.6</ele>
        <time>2021-08-10 08:28:03</time>
      </trkpt>
      <trkpt lat="42.8346" lon="-0.4919">
        <ele>1876.4</ele>
        <time>2021-08-10 08:28:04</time>
      </trkpt>
      <trkpt lat="42.8346" lon="-0.4919">
        <ele>1876.2</ele>
        <time>2021-08-10 08:28:05</time>
      </trkpt>
      <trkpt lat="42.8346" lon="-0.4919">
        <ele>1876</ele>
        <time>2021-08-10 08:28:06</time>
      </trkpt>
      <trkpt lat="42.8346" lon="-0.49189">
        <ele>1876.2</ele>
        <time>2021-08-10 08:28:07</time>
      </trkpt>
      <trkpt lat="42.83459" lon="-0.49189">
        <ele>1876</ele>
        <time>2021-08-10 08:28:08</time>
      </trkpt>
      <trkpt lat="42.83459" lon="-0.49189">
        <ele>1875.8</ele>
        <time>2021-08-10 08:28:09</time>
      </trkpt>
      <trkpt lat="42.83459" lon="-0.49188">
        <ele>1875.6</ele>
        <time>2021-08-10 08:28:10</time>
      </trkpt>
      <trkpt lat="42.83459" lon="-0.49187">
        <ele>1875</ele>
        <time>2021-08-10 08:28:11</time>
      </trkpt>
      <trkpt lat="42.83458" lon="-0.49186">
        <ele>1875</ele>
        <time>2021-08-10 08:28:12</time>
      </trkpt>
      <trkpt lat="42.83458" lon="-0.49185">
        <ele>1874.8</ele>
        <time>2021-08-10 08:28:13</time>
      </trkpt>
      <trkpt lat="42.83458" lon="-0.49185">
        <ele>1874.6</ele>
        <time>2021-08-10 08:28:14</time>
      </trkpt>
      <trkpt lat="42.83457" lon="-0.49184">
        <ele>1874.6</ele>
        <time>2021-08-10 08:28:15</time>
      </trkpt>
      <trkpt lat="42.83457" lon="-0.49183">
        <ele>1874.2</ele>
        <time>2021-08-10 08:28:16</time>
      </trkpt>
      <trkpt lat="42.83457" lon="-0.49183">
        <ele>1874</ele>
        <time>2021-08-10 08:28:17</time>
      </trkpt>
      <trkpt lat="42.83457" lon="-0.49182">
        <ele>1874</ele>
        <time>2021-08-10 08:28:18</time>
      </trkpt>
      <trkpt lat="42.83456" lon="-0.49183">
        <ele>1874</ele>
        <time>2021-08-10 08:28:19</time>
      </trkpt>
      <trkpt lat="42.83456" lon="-0.49182">
        <ele>1873.8</ele>
        <time>2021-08-10 08:28:20</time>
      </trkpt>
      <trkpt lat="42.83455" lon="-0.49182">
        <ele>1873.4</ele>
        <time>2021-08-10 08:28:21</time>
      </trkpt>
      <trkpt lat="42.83455" lon="-0.49181">
        <ele>1873</ele>
        <time>2021-08-10 08:28:22</time>
      </trkpt>
      <trkpt lat="42.83454" lon="-0.4918">
        <ele>1873.2</ele>
        <time>2021-08-10 08:28:23</time>
      </trkpt>
      <trkpt lat="42.83454" lon="-0.4918">
        <ele>1873.2</ele>
        <time>2021-08-10 08:28:24</time>
      </trkpt>
      <trkpt lat="42.83454" lon="-0.4918">
        <ele>1873</ele>
        <time>2021-08-10 08:28:25</time>
      </trkpt>
      <trkpt lat="42.83454" lon="-0.49179">
        <ele>1872.8</ele>
        <time>2021-08-10 08:28:26</time>
      </trkpt>
      <trkpt lat="42.83453" lon="-0.49179">
        <ele>1872.6</ele>
        <time>2021-08-10 08:28:27</time>
      </trkpt>
      <trkpt lat="42.83453" lon="-0.49178">
        <ele>1872.4</ele>
        <time>2021-08-10 08:28:28</time>
      </trkpt>
      <trkpt lat="42.83452" lon="-0.49178">
        <ele>1872.2</ele>
        <time>2021-08-10 08:28:29</time>
      </trkpt>
      <trkpt lat="42.83452" lon="-0.49177">
        <ele>1872.2</ele>
        <time>2021-08-10 08:28:30</time>
      </trkpt>
      <trkpt lat="42.83453" lon="-0.49177">
        <ele>1872</ele>
        <time>2021-08-10 08:28:31</time>
      </trkpt>
      <trkpt lat="42.83453" lon="-0.49177">
        <ele>1872</ele>
        <time>2021-08-10 08:28:32</time>
      </trkpt>
      <trkpt lat="42.83454" lon="-0.49176">
        <ele>1871.8</ele>
        <time>2021-08-10 08:28:33</time>
      </trkpt>
      <trkpt lat="42.83453" lon="-0.49176">
        <ele>1871.8</ele>
        <time>2021-08-10 08:28:34</time>
      </trkpt>
      <trkpt lat="42.83454" lon="-0.49176">
        <ele>1871.6</ele>
        <time>2021-08-10 08:28:35</time>
      </trkpt>
      <trkpt lat="42.83454" lon="-0.49175">
        <ele>1871.6</ele>
        <time>2021-08-10 08:28:36</time>
      </trkpt>
      <trkpt lat="42.83454" lon="-0.49175">
        <ele>1871.6</ele>
        <time>2021-08-10 08:28:37</time>
      </trkpt>
      <trkpt lat="42.83454" lon="-0.49174">
        <ele>1871.4</ele>
        <time>2021-08-10 08:28:38</time>
      </trkpt>
      <trkpt lat="42.83454" lon="-0.49174">
        <ele>1871.4</ele>
        <time>2021-08-10 08:28:39</time>
      </trkpt>
      <trkpt lat="42.83455" lon="-0.49173">
        <ele>1871.2</ele>
        <time>2021-08-10 08:28:40</time>
      </trkpt>
      <trkpt lat="42.83455" lon="-0.49172">
        <ele>1871.2</ele>
        <time>2021-08-10 08:28:41</time>
      </trkpt>
      <trkpt lat="42.83454" lon="-0.49172">
        <ele>1871</ele>
        <time>2021-08-10 08:28:42</time>
      </trkpt>
      <trkpt lat="42.83454" lon="-0.49172">
        <ele>1870.8</ele>
        <time>2021-08-10 08:28:43</time>
      </trkpt>
      <trkpt lat="42.83454" lon="-0.49172">
        <ele>1870.8</ele>
        <time>2021-08-10 08:28:44</time>
      </trkpt>
      <trkpt lat="42.83453" lon="-0.49172">
        <ele>1870.8</ele>
        <time>2021-08-10 08:28:45</time>
      </trkpt>
      <trkpt lat="42.83453" lon="-0.49172">
        <ele>1870.6</ele>
        <time>2021-08-10 08:28:46</time>
      </trkpt>
      <trkpt lat="42.83452" lon="-0.49171">
        <ele>1870.4</ele>
        <time>2021-08-10 08:28:47</time>
      </trkpt>
      <trkpt lat="42.83452" lon="-0.49171">
        <ele>1870</ele>
        <time>2021-08-10 08:28:48</time>
      </trkpt>
      <trkpt lat="42.83451" lon="-0.4917">
        <ele>1869.8</ele>
        <time>2021-08-10 08:28:49</time>
      </trkpt>
      <trkpt lat="42.83451" lon="-0.4917">
        <ele>1869.8</ele>
        <time>2021-08-10 08:28:50</time>
      </trkpt>
      <trkpt lat="42.8345" lon="-0.4917">
        <ele>1869.6</ele>
        <time>2021-08-10 08:28:51</time>
      </trkpt>
      <trkpt lat="42.8345" lon="-0.49169">
        <ele>1869.6</ele>
        <time>2021-08-10 08:28:52</time>
      </trkpt>
      <trkpt lat="42.83449" lon="-0.49169">
        <ele>1869.4</ele>
        <time>2021-08-10 08:28:53</time>
      </trkpt>
      <trkpt lat="42.83449" lon="-0.49168">
        <ele>1869.2</ele>
        <time>2021-08-10 08:28:54</time>
      </trkpt>
      <trkpt lat="42.83449" lon="-0.49167">
        <ele>1869</ele>
        <time>2021-08-10 08:28:55</time>
      </trkpt>
      <trkpt lat="42.83449" lon="-0.49166">
        <ele>1868.8</ele>
        <time>2021-08-10 08:28:56</time>
      </trkpt>
      <trkpt lat="42.83449" lon="-0.49166">
        <ele>1868.8</ele>
        <time>2021-08-10 08:28:57</time>
      </trkpt>
      <trkpt lat="42.83448" lon="-0.49164">
        <ele>1868.6</ele>
        <time>2021-08-10 08:28:58</time>
      </trkpt>
      <trkpt lat="42.83448" lon="-0.49164">
        <ele>1868.6</ele>
        <time>2021-08-10 08:28:59</time>
      </trkpt>
      <trkpt lat="42.83448" lon="-0.49164">
        <ele>1868.4</ele>
        <time>2021-08-10 08:29:00</time>
      </trkpt>
      <trkpt lat="42.83448" lon="-0.49163">
        <ele>1868.2</ele>
        <time>2021-08-10 08:29:01</time>
      </trkpt>
      <trkpt lat="42.83447" lon="-0.49163">
        <ele>1868</ele>
        <time>2021-08-10 08:29:02</time>
      </trkpt>
      <trkpt lat="42.83447" lon="-0.49162">
        <ele>1868</ele>
        <time>2021-08-10 08:29:03</time>
      </trkpt>
      <trkpt lat="42.83446" lon="-0.49163">
        <ele>1867.2</ele>
        <time>2021-08-10 08:29:04</time>
      </trkpt>
      <trkpt lat="42.83446" lon="-0.49162">
        <ele>1867.6</ele>
        <time>2021-08-10 08:29:05</time>
      </trkpt>
      <trkpt lat="42.83445" lon="-0.49163">
        <ele>1867.4</ele>
        <time>2021-08-10 08:29:06</time>
      </trkpt>
      <trkpt lat="42.83445" lon="-0.49162">
        <ele>1867.4</ele>
        <time>2021-08-10 08:29:07</time>
      </trkpt>
      <trkpt lat="42.83444" lon="-0.49161">
        <ele>1867.2</ele>
        <time>2021-08-10 08:29:08</time>
      </trkpt>
      <trkpt lat="42.83445" lon="-0.49161">
        <ele>1866.8</ele>
        <time>2021-08-10 08:29:09</time>
      </trkpt>
      <trkpt lat="42.83444" lon="-0.4916">
        <ele>1866.4</ele>
        <time>2021-08-10 08:29:10</time>
      </trkpt>
      <trkpt lat="42.83445" lon="-0.49159">
        <ele>1866.6</ele>
        <time>2021-08-10 08:29:11</time>
      </trkpt>
      <trkpt lat="42.83445" lon="-0.49159">
        <ele>1866.4</ele>
        <time>2021-08-10 08:29:12</time>
      </trkpt>
      <trkpt lat="42.83445" lon="-0.49159">
        <ele>1866.2</ele>
        <time>2021-08-10 08:29:13</time>
      </trkpt>
      <trkpt lat="42.83446" lon="-0.49158">
        <ele>1866.2</ele>
        <time>2021-08-10 08:29:14</time>
      </trkpt>
      <trkpt lat="42.83445" lon="-0.49158">
        <ele>1866.2</ele>
        <time>2021-08-10 08:29:15</time>
      </trkpt>
      <trkpt lat="42.83445" lon="-0.49157">
        <ele>1865.6</ele>
        <time>2021-08-10 08:29:16</time>
      </trkpt>
      <trkpt lat="42.83445" lon="-0.49157">
        <ele>1865.4</ele>
        <time>2021-08-10 08:29:17</time>
      </trkpt>
      <trkpt lat="42.83445" lon="-0.49156">
        <ele>1865.4</ele>
        <time>2021-08-10 08:29:18</time>
      </trkpt>
      <trkpt lat="42.83445" lon="-0.49156">
        <ele>1865.8</ele>
        <time>2021-08-10 08:29:19</time>
      </trkpt>
      <trkpt lat="42.83445" lon="-0.49156">
        <ele>1866</ele>
        <time>2021-08-10 08:29:20</time>
      </trkpt>
      <trkpt lat="42.83445" lon="-0.49156">
        <ele>1866</ele>
        <time>2021-08-10 08:29:21</time>
      </trkpt>
      <trkpt lat="42.83445" lon="-0.49157">
        <ele>1865.6</ele>
        <time>2021-08-10 08:29:22</time>
      </trkpt>
      <trkpt lat="42.83444" lon="-0.49156">
        <ele>1865.8</ele>
        <time>2021-08-10 08:29:23</time>
      </trkpt>
      <trkpt lat="42.83443" lon="-0.49156">
        <ele>1865.6</ele>
        <time>2021-08-10 08:29:24</time>
      </trkpt>
      <trkpt lat="42.83442" lon="-0.49155">
        <ele>1866.2</ele>
        <time>2021-08-10 08:29:25</time>
      </trkpt>
      <trkpt lat="42.83442" lon="-0.49155">
        <ele>1865.6</ele>
        <time>2021-08-10 08:29:26</time>
      </trkpt>
      <trkpt lat="42.83441" lon="-0.49154">
        <ele>1865.2</ele>
        <time>2021-08-10 08:29:27</time>
      </trkpt>
      <trkpt lat="42.83441" lon="-0.49153">
        <ele>1864.8</ele>
        <time>2021-08-10 08:29:28</time>
      </trkpt>
      <trkpt lat="42.83442" lon="-0.49153">
        <ele>1864.6</ele>
        <time>2021-08-10 08:29:29</time>
      </trkpt>
      <trkpt lat="42.83442" lon="-0.49152">
        <ele>1864.4</ele>
        <time>2021-08-10 08:29:30</time>
      </trkpt>
      <trkpt lat="42.83444" lon="-0.49152">
        <ele>1864.2</ele>
        <time>2021-08-10 08:29:31</time>
      </trkpt>
      <trkpt lat="42.83445" lon="-0.49152">
        <ele>1864.2</ele>
        <time>2021-08-10 08:29:34</time>
      </trkpt>
      <trkpt lat="42.83446" lon="-0.49152">
        <ele>1864.2</ele>
        <time>2021-08-10 08:29:35</time>
      </trkpt>
      <trkpt lat="42.83447" lon="-0.49152">
        <ele>1864</ele>
        <time>2021-08-10 08:29:36</time>
      </trkpt>
      <trkpt lat="42.83447" lon="-0.49151">
        <ele>1864</ele>
        <time>2021-08-10 08:29:37</time>
      </trkpt>
      <trkpt lat="42.83447" lon="-0.49151">
        <ele>1863.6</ele>
        <time>2021-08-10 08:29:38</time>
      </trkpt>
      <trkpt lat="42.83447" lon="-0.4915">
        <ele>1863.6</ele>
        <time>2021-08-10 08:29:39</time>
      </trkpt>
      <trkpt lat="42.83447" lon="-0.4915">
        <ele>1863.4</ele>
        <time>2021-08-10 08:29:40</time>
      </trkpt>
      <trkpt lat="42.83447" lon="-0.49151">
        <ele>1863.4</ele>
        <time>2021-08-10 08:29:41</time>
      </trkpt>
      <trkpt lat="42.83447" lon="-0.4915">
        <ele>1862.8</ele>
        <time>2021-08-10 08:29:42</time>
      </trkpt>
      <trkpt lat="42.83447" lon="-0.49149">
        <ele>1863</ele>
        <time>2021-08-10 08:29:43</time>
      </trkpt>
      <trkpt lat="42.83446" lon="-0.49148">
        <ele>1863</ele>
        <time>2021-08-10 08:29:44</time>
      </trkpt>
      <trkpt lat="42.83446" lon="-0.49148">
        <ele>1863</ele>
        <time>2021-08-10 08:29:45</time>
      </trkpt>
      <trkpt lat="42.83446" lon="-0.49148">
        <ele>1862.8</ele>
        <time>2021-08-10 08:29:46</time>
      </trkpt>
      <trkpt lat="42.83446" lon="-0.49148">
        <ele>1862.6</ele>
        <time>2021-08-10 08:29:47</time>
      </trkpt>
      <trkpt lat="42.83445" lon="-0.49146">
        <ele>1862.4</ele>
        <time>2021-08-10 08:29:48</time>
      </trkpt>
      <trkpt lat="42.83445" lon="-0.49146">
        <ele>1862</ele>
        <time>2021-08-10 08:29:49</time>
      </trkpt>
      <trkpt lat="42.83445" lon="-0.49145">
        <ele>1862.2</ele>
        <time>2021-08-10 08:29:50</time>
      </trkpt>
      <trkpt lat="42.83444" lon="-0.49145">
        <ele>1862</ele>
        <time>2021-08-10 08:29:51</time>
      </trkpt>
      <trkpt lat="42.83444" lon="-0.49144">
        <ele>1862</ele>
        <time>2021-08-10 08:29:52</time>
      </trkpt>
      <trkpt lat="42.83443" lon="-0.49143">
        <ele>1861.8</ele>
        <time>2021-08-10 08:29:53</time>
      </trkpt>
      <trkpt lat="42.83443" lon="-0.49142">
        <ele>1861.6</ele>
        <time>2021-08-10 08:29:54</time>
      </trkpt>
      <trkpt lat="42.83444" lon="-0.49142">
        <ele>1861.4</ele>
        <time>2021-08-10 08:29:55</time>
      </trkpt>
      <trkpt lat="42.83444" lon="-0.49141">
        <ele>1861.2</ele>
        <time>2021-08-10 08:29:56</time>
      </trkpt>
      <trkpt lat="42.83443" lon="-0.4914">
        <ele>1861.4</ele>
        <time>2021-08-10 08:29:57</time>
      </trkpt>
      <trkpt lat="42.83444" lon="-0.4914">
        <ele>1861.2</ele>
        <time>2021-08-10 08:29:58</time>
      </trkpt>
      <trkpt lat="42.83443" lon="-0.49139">
        <ele>1860.8</ele>
        <time>2021-08-10 08:29:59</time>
      </trkpt>
      <trkpt lat="42.83443" lon="-0.49138">
        <ele>1860.8</ele>
        <time>2021-08-10 08:30:00</time>
      </trkpt>
      <trkpt lat="42.83442" lon="-0.49138">
        <ele>1860.6</ele>
        <time>2021-08-10 08:30:01</time>
      </trkpt>
      <trkpt lat="42.83442" lon="-0.49137">
        <ele>1860.2</ele>
        <time>2021-08-10 08:30:02</time>
      </trkpt>
      <trkpt lat="42.83441" lon="-0.49137">
        <ele>1860.4</ele>
        <time>2021-08-10 08:30:03</time>
      </trkpt>
      <trkpt lat="42.8344" lon="-0.49136">
        <ele>1860.2</ele>
        <time>2021-08-10 08:30:04</time>
      </trkpt>
      <trkpt lat="42.8344" lon="-0.49136">
        <ele>1860.2</ele>
        <time>2021-08-10 08:30:05</time>
      </trkpt>
      <trkpt lat="42.83439" lon="-0.49135">
        <ele>1859.8</ele>
        <time>2021-08-10 08:30:06</time>
      </trkpt>
      <trkpt lat="42.83439" lon="-0.49134">
        <ele>1859.8</ele>
        <time>2021-08-10 08:30:07</time>
      </trkpt>
      <trkpt lat="42.83438" lon="-0.49132">
        <ele>1859.4</ele>
        <time>2021-08-10 08:30:08</time>
      </trkpt>
      <trkpt lat="42.83438" lon="-0.49131">
        <ele>1859.6</ele>
        <time>2021-08-10 08:30:09</time>
      </trkpt>
      <trkpt lat="42.83439" lon="-0.49131">
        <ele>1859.4</ele>
        <time>2021-08-10 08:30:10</time>
      </trkpt>
      <trkpt lat="42.8344" lon="-0.4913">
        <ele>1859.2</ele>
        <time>2021-08-10 08:30:11</time>
      </trkpt>
      <trkpt lat="42.8344" lon="-0.4913">
        <ele>1859.4</ele>
        <time>2021-08-10 08:30:12</time>
      </trkpt>
      <trkpt lat="42.8344" lon="-0.49129">
        <ele>1859.2</ele>
        <time>2021-08-10 08:30:13</time>
      </trkpt>
      <trkpt lat="42.8344" lon="-0.49128">
        <ele>1859</ele>
        <time>2021-08-10 08:30:14</time>
      </trkpt>
      <trkpt lat="42.83441" lon="-0.49128">
        <ele>1859</ele>
        <time>2021-08-10 08:30:15</time>
      </trkpt>
      <trkpt lat="42.8344" lon="-0.49127">
        <ele>1858.8</ele>
        <time>2021-08-10 08:30:16</time>
      </trkpt>
      <trkpt lat="42.8344" lon="-0.49126">
        <ele>1858.8</ele>
        <time>2021-08-10 08:30:17</time>
      </trkpt>
      <trkpt lat="42.8344" lon="-0.49126">
        <ele>1858.8</ele>
        <time>2021-08-10 08:30:18</time>
      </trkpt>
      <trkpt lat="42.8344" lon="-0.49126">
        <ele>1858.4</ele>
        <time>2021-08-10 08:30:19</time>
      </trkpt>
      <trkpt lat="42.8344" lon="-0.49125">
        <ele>1858.4</ele>
        <time>2021-08-10 08:30:20</time>
      </trkpt>
      <trkpt lat="42.83441" lon="-0.49125">
        <ele>1858.2</ele>
        <time>2021-08-10 08:30:21</time>
      </trkpt>
      <trkpt lat="42.83441" lon="-0.49124">
        <ele>1858.2</ele>
        <time>2021-08-10 08:30:22</time>
      </trkpt>
      <trkpt lat="42.83441" lon="-0.49123">
        <ele>1858</ele>
        <time>2021-08-10 08:30:23</time>
      </trkpt>
      <trkpt lat="42.83441" lon="-0.49122">
        <ele>1857.8</ele>
        <time>2021-08-10 08:30:24</time>
      </trkpt>
      <trkpt lat="42.83441" lon="-0.49121">
        <ele>1857.8</ele>
        <time>2021-08-10 08:30:25</time>
      </trkpt>
      <trkpt lat="42.8344" lon="-0.4912">
        <ele>1857.6</ele>
        <time>2021-08-10 08:30:26</time>
      </trkpt>
      <trkpt lat="42.8344" lon="-0.49119">
        <ele>1857.6</ele>
        <time>2021-08-10 08:30:27</time>
      </trkpt>
      <trkpt lat="42.8344" lon="-0.49118">
        <ele>1857.4</ele>
        <time>2021-08-10 08:30:28</time>
      </trkpt>
      <trkpt lat="42.8344" lon="-0.49117">
        <ele>1857.2</ele>
        <time>2021-08-10 08:30:29</time>
      </trkpt>
      <trkpt lat="42.8344" lon="-0.49116">
        <ele>1857.2</ele>
        <time>2021-08-10 08:30:30</time>
      </trkpt>
      <trkpt lat="42.8344" lon="-0.49114">
        <ele>1857.2</ele>
        <time>2021-08-10 08:30:31</time>
      </trkpt>
      <trkpt lat="42.8344" lon="-0.49112">
        <ele>1857</ele>
        <time>2021-08-10 08:30:32</time>
      </trkpt>
      <trkpt lat="42.8344" lon="-0.49111">
        <ele>1856.8</ele>
        <time>2021-08-10 08:30:33</time>
      </trkpt>
      <trkpt lat="42.8344" lon="-0.4911">
        <ele>1856.6</ele>
        <time>2021-08-10 08:30:34</time>
      </trkpt>
      <trkpt lat="42.8344" lon="-0.49109">
        <ele>1856.8</ele>
        <time>2021-08-10 08:30:35</time>
      </trkpt>
      <trkpt lat="42.8344" lon="-0.49108">
        <ele>1856.8</ele>
        <time>2021-08-10 08:30:36</time>
      </trkpt>
      <trkpt lat="42.8344" lon="-0.49106">
        <ele>1856.6</ele>
        <time>2021-08-10 08:30:37</time>
      </trkpt>
      <trkpt lat="42.8344" lon="-0.49105">
        <ele>1856.6</ele>
        <time>2021-08-10 08:30:38</time>
      </trkpt>
      <trkpt lat="42.8344" lon="-0.49104">
        <ele>1856.4</ele>
        <time>2021-08-10 08:30:39</time>
      </trkpt>
      <trkpt lat="42.8344" lon="-0.49103">
        <ele>1856.4</ele>
        <time>2021-08-10 08:30:40</time>
      </trkpt>
      <trkpt lat="42.8344" lon="-0.49103">
        <ele>1856.2</ele>
        <time>2021-08-10 08:30:41</time>
      </trkpt>
      <trkpt lat="42.8344" lon="-0.49103">
        <ele>1856.2</ele>
        <time>2021-08-10 08:30:42</time>
      </trkpt>
      <trkpt lat="42.83441" lon="-0.49102">
        <ele>1856.2</ele>
        <time>2021-08-10 08:30:43</time>
      </trkpt>
      <trkpt lat="42.83441" lon="-0.49101">
        <ele>1856.2</ele>
        <time>2021-08-10 08:30:44</time>
      </trkpt>
      <trkpt lat="42.83441" lon="-0.49101">
        <ele>1856.2</ele>
        <time>2021-08-10 08:30:45</time>
      </trkpt>
      <trkpt lat="42.83442" lon="-0.491">
        <ele>1856</ele>
        <time>2021-08-10 08:30:46</time>
      </trkpt>
      <trkpt lat="42.83442" lon="-0.49099">
        <ele>1856.2</ele>
        <time>2021-08-10 08:30:47</time>
      </trkpt>
      <trkpt lat="42.83441" lon="-0.49099">
        <ele>1855.8</ele>
        <time>2021-08-10 08:30:48</time>
      </trkpt>
      <trkpt lat="42.83441" lon="-0.49099">
        <ele>1855.8</ele>
        <time>2021-08-10 08:30:49</time>
      </trkpt>
      <trkpt lat="42.83441" lon="-0.49098">
        <ele>1855.6</ele>
        <time>2021-08-10 08:30:50</time>
      </trkpt>
      <trkpt lat="42.83441" lon="-0.49097">
        <ele>1855.6</ele>
        <time>2021-08-10 08:30:51</time>
      </trkpt>
      <trkpt lat="42.8344" lon="-0.49095">
        <ele>1855.6</ele>
        <time>2021-08-10 08:30:52</time>
      </trkpt>
      <trkpt lat="42.8344" lon="-0.49096">
        <ele>1855.8</ele>
        <time>2021-08-10 08:30:57</time>
      </trkpt>
      <trkpt lat="42.83441" lon="-0.49096">
        <ele>1855.8</ele>
        <time>2021-08-10 08:30:58</time>
      </trkpt>
      <trkpt lat="42.83442" lon="-0.49096">
        <ele>1855.6</ele>
        <time>2021-08-10 08:30:59</time>
      </trkpt>
      <trkpt lat="42.83443" lon="-0.49095">
        <ele>1855.4</ele>
        <time>2021-08-10 08:31:00</time>
      </trkpt>
      <trkpt lat="42.83443" lon="-0.49095">
        <ele>1855.4</ele>
        <time>2021-08-10 08:31:01</time>
      </trkpt>
      <trkpt lat="42.83443" lon="-0.49095">
        <ele>1855.2</ele>
        <time>2021-08-10 08:31:02</time>
      </trkpt>
      <trkpt lat="42.83443" lon="-0.49094">
        <ele>1855.4</ele>
        <time>2021-08-10 08:31:03</time>
      </trkpt>
      <trkpt lat="42.83442" lon="-0.49093">
        <ele>1855.2</ele>
        <time>2021-08-10 08:31:04</time>
      </trkpt>
      <trkpt lat="42.83442" lon="-0.49092">
        <ele>1855.2</ele>
        <time>2021-08-10 08:31:05</time>
      </trkpt>
      <trkpt lat="42.83442" lon="-0.49091">
        <ele>1854.8</ele>
        <time>2021-08-10 08:31:06</time>
      </trkpt>
      <trkpt lat="42.83442" lon="-0.4909">
        <ele>1855</ele>
        <time>2021-08-10 08:31:07</time>
      </trkpt>
      <trkpt lat="42.83442" lon="-0.49089">
        <ele>1854.8</ele>
        <time>2021-08-10 08:31:14</time>
      </trkpt>
      <trkpt lat="42.83442" lon="-0.49087">
        <ele>1854.8</ele>
        <time>2021-08-10 08:31:15</time>
      </trkpt>
      <trkpt lat="42.83441" lon="-0.49086">
        <ele>1854.6</ele>
        <time>2021-08-10 08:31:16</time>
      </trkpt>
      <trkpt lat="42.83441" lon="-0.49085">
        <ele>1854.4</ele>
        <time>2021-08-10 08:31:17</time>
      </trkpt>
      <trkpt lat="42.8344" lon="-0.49084">
        <ele>1854.4</ele>
        <time>2021-08-10 08:31:18</time>
      </trkpt>
      <trkpt lat="42.8344" lon="-0.49083">
        <ele>1854.4</ele>
        <time>2021-08-10 08:31:19</time>
      </trkpt>
      <trkpt lat="42.8344" lon="-0.49082">
        <ele>1854</ele>
        <time>2021-08-10 08:31:20</time>
      </trkpt>
      <trkpt lat="42.8344" lon="-0.49082">
        <ele>1854</ele>
        <time>2021-08-10 08:31:21</time>
      </trkpt>
      <trkpt lat="42.8344" lon="-0.49081">
        <ele>1854.2</ele>
        <time>2021-08-10 08:31:22</time>
      </trkpt>
      <trkpt lat="42.8344" lon="-0.49081">
        <ele>1854.2</ele>
        <time>2021-08-10 08:31:23</time>
      </trkpt>
      <trkpt lat="42.8344" lon="-0.49081">
        <ele>1854</ele>
        <time>2021-08-10 08:31:24</time>
      </trkpt>
      <trkpt lat="42.8344" lon="-0.4908">
        <ele>1853.8</ele>
        <time>2021-08-10 08:31:25</time>
      </trkpt>
      <trkpt lat="42.8344" lon="-0.49079">
        <ele>1853.6</ele>
        <time>2021-08-10 08:31:26</time>
      </trkpt>
      <trkpt lat="42.8344" lon="-0.49079">
        <ele>1853.6</ele>
        <time>2021-08-10 08:31:27</time>
      </trkpt>
      <trkpt lat="42.83439" lon="-0.49078">
        <ele>1853.6</ele>
        <time>2021-08-10 08:31:28</time>
      </trkpt>
      <trkpt lat="42.83439" lon="-0.49078">
        <ele>1853.8</ele>
        <time>2021-08-10 08:31:29</time>
      </trkpt>
      <trkpt lat="42.83439" lon="-0.49077">
        <ele>1853.6</ele>
        <time>2021-08-10 08:31:30</time>
      </trkpt>
      <trkpt lat="42.83439" lon="-0.49075">
        <ele>1853.6</ele>
        <time>2021-08-10 08:31:31</time>
      </trkpt>
      <trkpt lat="42.83438" lon="-0.49074">
        <ele>1853.6</ele>
        <time>2021-08-10 08:31:32</time>
      </trkpt>
      <trkpt lat="42.83438" lon="-0.49073">
        <ele>1853.4</ele>
        <time>2021-08-10 08:31:33</time>
      </trkpt>
      <trkpt lat="42.83438" lon="-0.49071">
        <ele>1853.2</ele>
        <time>2021-08-10 08:31:34</time>
      </trkpt>
      <trkpt lat="42.83438" lon="-0.4907">
        <ele>1853.2</ele>
        <time>2021-08-10 08:31:35</time>
      </trkpt>
      <trkpt lat="42.83438" lon="-0.4907">
        <ele>1853.2</ele>
        <time>2021-08-10 08:31:36</time>
      </trkpt>
      <trkpt lat="42.83439" lon="-0.4907">
        <ele>1853.2</ele>
        <time>2021-08-10 08:31:37</time>
      </trkpt>
      <trkpt lat="42.83439" lon="-0.49069">
        <ele>1853</ele>
        <time>2021-08-10 08:31:38</time>
      </trkpt>
      <trkpt lat="42.83439" lon="-0.49069">
        <ele>1852.8</ele>
        <time>2021-08-10 08:31:39</time>
      </trkpt>
      <trkpt lat="42.83439" lon="-0.49068">
        <ele>1852.8</ele>
        <time>2021-08-10 08:31:40</time>
      </trkpt>
      <trkpt lat="42.83439" lon="-0.49067">
        <ele>1852.6</ele>
        <time>2021-08-10 08:31:41</time>
      </trkpt>
      <trkpt lat="42.83439" lon="-0.49066">
        <ele>1852.4</ele>
        <time>2021-08-10 08:31:42</time>
      </trkpt>
      <trkpt lat="42.83439" lon="-0.49065">
        <ele>1852.4</ele>
        <time>2021-08-10 08:31:43</time>
      </trkpt>
      <trkpt lat="42.83439" lon="-0.49064">
        <ele>1852.2</ele>
        <time>2021-08-10 08:31:44</time>
      </trkpt>
      <trkpt lat="42.83439" lon="-0.49064">
        <ele>1852.2</ele>
        <time>2021-08-10 08:31:45</time>
      </trkpt>
      <trkpt lat="42.83439" lon="-0.49064">
        <ele>1852.2</ele>
        <time>2021-08-10 08:31:46</time>
      </trkpt>
      <trkpt lat="42.83439" lon="-0.49063">
        <ele>1852</ele>
        <time>2021-08-10 08:31:47</time>
      </trkpt>
      <trkpt lat="42.83439" lon="-0.49063">
        <ele>1851.8</ele>
        <time>2021-08-10 08:31:48</time>
      </trkpt>
      <trkpt lat="42.83439" lon="-0.49062">
        <ele>1851.8</ele>
        <time>2021-08-10 08:31:49</time>
      </trkpt>
      <trkpt lat="42.83439" lon="-0.49061">
        <ele>1851.8</ele>
        <time>2021-08-10 08:31:50</time>
      </trkpt>
      <trkpt lat="42.83439" lon="-0.4906">
        <ele>1851.6</ele>
        <time>2021-08-10 08:31:51</time>
      </trkpt>
      <trkpt lat="42.8344" lon="-0.49059">
        <ele>1851.4</ele>
        <time>2021-08-10 08:31:52</time>
      </trkpt>
      <trkpt lat="42.8344" lon="-0.49059">
        <ele>1851.4</ele>
        <time>2021-08-10 08:31:53</time>
      </trkpt>
      <trkpt lat="42.8344" lon="-0.49058">
        <ele>1851.4</ele>
        <time>2021-08-10 08:31:54</time>
      </trkpt>
      <trkpt lat="42.83439" lon="-0.49057">
        <ele>1851.2</ele>
        <time>2021-08-10 08:31:55</time>
      </trkpt>
      <trkpt lat="42.83439" lon="-0.49056">
        <ele>1851</ele>
        <time>2021-08-10 08:31:56</time>
      </trkpt>
      <trkpt lat="42.83439" lon="-0.49056">
        <ele>1850.8</ele>
        <time>2021-08-10 08:31:57</time>
      </trkpt>
      <trkpt lat="42.83439" lon="-0.49055">
        <ele>1850.8</ele>
        <time>2021-08-10 08:31:58</time>
      </trkpt>
      <trkpt lat="42.8344" lon="-0.49055">
        <ele>1850.8</ele>
        <time>2021-08-10 08:31:59</time>
      </trkpt>
      <trkpt lat="42.8344" lon="-0.49055">
        <ele>1850.8</ele>
        <time>2021-08-10 08:32:00</time>
      </trkpt>
      <trkpt lat="42.8344" lon="-0.49054">
        <ele>1850.6</ele>
        <time>2021-08-10 08:32:01</time>
      </trkpt>
      <trkpt lat="42.8344" lon="-0.49054">
        <ele>1850.4</ele>
        <time>2021-08-10 08:32:02</time>
      </trkpt>
      <trkpt lat="42.83441" lon="-0.49053">
        <ele>1850.2</ele>
        <time>2021-08-10 08:32:03</time>
      </trkpt>
      <trkpt lat="42.83441" lon="-0.49053">
        <ele>1850</ele>
        <time>2021-08-10 08:32:04</time>
      </trkpt>
      <trkpt lat="42.83441" lon="-0.49052">
        <ele>1850.2</ele>
        <time>2021-08-10 08:32:05</time>
      </trkpt>
      <trkpt lat="42.83442" lon="-0.49051">
        <ele>1850.2</ele>
        <time>2021-08-10 08:32:06</time>
      </trkpt>
      <trkpt lat="42.83442" lon="-0.49051">
        <ele>1850</ele>
        <time>2021-08-10 08:32:07</time>
      </trkpt>
      <trkpt lat="42.83441" lon="-0.4905">
        <ele>1850</ele>
        <time>2021-08-10 08:32:08</time>
      </trkpt>
      <trkpt lat="42.83441" lon="-0.49049">
        <ele>1849.8</ele>
        <time>2021-08-10 08:32:09</time>
      </trkpt>
      <trkpt lat="42.83442" lon="-0.49048">
        <ele>1849.8</ele>
        <time>2021-08-10 08:32:10</time>
      </trkpt>
      <trkpt lat="42.83442" lon="-0.49048">
        <ele>1849.4</ele>
        <time>2021-08-10 08:32:11</time>
      </trkpt>
      <trkpt lat="42.83443" lon="-0.49047">
        <ele>1849.2</ele>
        <time>2021-08-10 08:32:12</time>
      </trkpt>
      <trkpt lat="42.83443" lon="-0.49047">
        <ele>1849.2</ele>
        <time>2021-08-10 08:32:13</time>
      </trkpt>
      <trkpt lat="42.83444" lon="-0.49047">
        <ele>1849.2</ele>
        <time>2021-08-10 08:32:14</time>
      </trkpt>
      <trkpt lat="42.83444" lon="-0.49046">
        <ele>1849</ele>
        <time>2021-08-10 08:32:15</time>
      </trkpt>
      <trkpt lat="42.83444" lon="-0.49045">
        <ele>1848.8</ele>
        <time>2021-08-10 08:32:16</time>
      </trkpt>
      <trkpt lat="42.83444" lon="-0.49044">
        <ele>1848.6</ele>
        <time>2021-08-10 08:32:17</time>
      </trkpt>
      <trkpt lat="42.83444" lon="-0.49044">
        <ele>1848.4</ele>
        <time>2021-08-10 08:32:18</time>
      </trkpt>
      <trkpt lat="42.83444" lon="-0.49043">
        <ele>1848.6</ele>
        <time>2021-08-10 08:32:19</time>
      </trkpt>
      <trkpt lat="42.83444" lon="-0.49042">
        <ele>1848.6</ele>
        <time>2021-08-10 08:32:20</time>
      </trkpt>
      <trkpt lat="42.83445" lon="-0.49042">
        <ele>1848.2</ele>
        <time>2021-08-10 08:32:21</time>
      </trkpt>
      <trkpt lat="42.83445" lon="-0.49041">
        <ele>1848.2</ele>
        <time>2021-08-10 08:32:22</time>
      </trkpt>
      <trkpt lat="42.83445" lon="-0.4904">
        <ele>1848</ele>
        <time>2021-08-10 08:32:23</time>
      </trkpt>
      <trkpt lat="42.83446" lon="-0.4904">
        <ele>1848</ele>
        <time>2021-08-10 08:32:24</time>
      </trkpt>
      <trkpt lat="42.83446" lon="-0.49039">
        <ele>1848</ele>
        <time>2021-08-10 08:32:25</time>
      </trkpt>
      <trkpt lat="42.83446" lon="-0.49039">
        <ele>1848</ele>
        <time>2021-08-10 08:32:26</time>
      </trkpt>
      <trkpt lat="42.83447" lon="-0.49038">
        <ele>1848</ele>
        <time>2021-08-10 08:32:27</time>
      </trkpt>
      <trkpt lat="42.83446" lon="-0.49037">
        <ele>1847.6</ele>
        <time>2021-08-10 08:32:28</time>
      </trkpt>
      <trkpt lat="42.83447" lon="-0.49036">
        <ele>1847.6</ele>
        <time>2021-08-10 08:32:29</time>
      </trkpt>
      <trkpt lat="42.83448" lon="-0.49036">
        <ele>1847.2</ele>
        <time>2021-08-10 08:32:30</time>
      </trkpt>
      <trkpt lat="42.83448" lon="-0.49035">
        <ele>1847.2</ele>
        <time>2021-08-10 08:32:31</time>
      </trkpt>
      <trkpt lat="42.83449" lon="-0.49034">
        <ele>1847.2</ele>
        <time>2021-08-10 08:32:32</time>
      </trkpt>
      <trkpt lat="42.83449" lon="-0.49034">
        <ele>1847</ele>
        <time>2021-08-10 08:32:33</time>
      </trkpt>
      <trkpt lat="42.8345" lon="-0.49033">
        <ele>1846.6</ele>
        <time>2021-08-10 08:32:34</time>
      </trkpt>
      <trkpt lat="42.8345" lon="-0.49032">
        <ele>1846.2</ele>
        <time>2021-08-10 08:32:35</time>
      </trkpt>
      <trkpt lat="42.83451" lon="-0.49031">
        <ele>1846.2</ele>
        <time>2021-08-10 08:32:36</time>
      </trkpt>
      <trkpt lat="42.83451" lon="-0.49031">
        <ele>1846</ele>
        <time>2021-08-10 08:32:37</time>
      </trkpt>
      <trkpt lat="42.83452" lon="-0.4903">
        <ele>1845.8</ele>
        <time>2021-08-10 08:32:38</time>
      </trkpt>
      <trkpt lat="42.83452" lon="-0.4903">
        <ele>1845.4</ele>
        <time>2021-08-10 08:32:39</time>
      </trkpt>
      <trkpt lat="42.83453" lon="-0.49029">
        <ele>1845.4</ele>
        <time>2021-08-10 08:32:40</time>
      </trkpt>
      <trkpt lat="42.83453" lon="-0.49028">
        <ele>1845.2</ele>
        <time>2021-08-10 08:32:41</time>
      </trkpt>
      <trkpt lat="42.83453" lon="-0.49028">
        <ele>1845.2</ele>
        <time>2021-08-10 08:32:42</time>
      </trkpt>
      <trkpt lat="42.83453" lon="-0.49028">
        <ele>1844.8</ele>
        <time>2021-08-10 08:32:43</time>
      </trkpt>
      <trkpt lat="42.83453" lon="-0.49027">
        <ele>1844.8</ele>
        <time>2021-08-10 08:32:44</time>
      </trkpt>
      <trkpt lat="42.83454" lon="-0.49026">
        <ele>1844.6</ele>
        <time>2021-08-10 08:32:45</time>
      </trkpt>
      <trkpt lat="42.83454" lon="-0.49025">
        <ele>1844.6</ele>
        <time>2021-08-10 08:32:46</time>
      </trkpt>
      <trkpt lat="42.83455" lon="-0.49025">
        <ele>1844.2</ele>
        <time>2021-08-10 08:32:47</time>
      </trkpt>
      <trkpt lat="42.83454" lon="-0.49023">
        <ele>1844.2</ele>
        <time>2021-08-10 08:32:48</time>
      </trkpt>
      <trkpt lat="42.83455" lon="-0.49022">
        <ele>1844.2</ele>
        <time>2021-08-10 08:32:49</time>
      </trkpt>
      <trkpt lat="42.83456" lon="-0.49021">
        <ele>1844</ele>
        <time>2021-08-10 08:32:50</time>
      </trkpt>
      <trkpt lat="42.83456" lon="-0.49021">
        <ele>1843.8</ele>
        <time>2021-08-10 08:32:51</time>
      </trkpt>
      <trkpt lat="42.83456" lon="-0.4902">
        <ele>1843.6</ele>
        <time>2021-08-10 08:32:52</time>
      </trkpt>
      <trkpt lat="42.83457" lon="-0.49019">
        <ele>1843.4</ele>
        <time>2021-08-10 08:32:53</time>
      </trkpt>
      <trkpt lat="42.83457" lon="-0.49018">
        <ele>1843.4</ele>
        <time>2021-08-10 08:32:54</time>
      </trkpt>
      <trkpt lat="42.83457" lon="-0.49017">
        <ele>1843.4</ele>
        <time>2021-08-10 08:32:55</time>
      </trkpt>
      <trkpt lat="42.83458" lon="-0.49016">
        <ele>1843.2</ele>
        <time>2021-08-10 08:32:56</time>
      </trkpt>
      <trkpt lat="42.83458" lon="-0.49015">
        <ele>1843</ele>
        <time>2021-08-10 08:32:57</time>
      </trkpt>
      <trkpt lat="42.83458" lon="-0.49014">
        <ele>1842.8</ele>
        <time>2021-08-10 08:32:58</time>
      </trkpt>
      <trkpt lat="42.83458" lon="-0.49013">
        <ele>1842.6</ele>
        <time>2021-08-10 08:32:59</time>
      </trkpt>
      <trkpt lat="42.83458" lon="-0.49013">
        <ele>1842.6</ele>
      </trkpt>
      <trkpt lat="42.83459" lon="-0.49012">
        <ele>1842.6</ele>
        <time>2021-08-10 08:33:01</time>
      </trkpt>
      <trkpt lat="42.83459" lon="-0.49011">
        <ele>1842.4</ele>
        <time>2021-08-10 08:33:02</time>
      </trkpt>
      <trkpt lat="42.83459" lon="-0.49009">
        <ele>1842.2</ele>
        <time>2021-08-10 08:33:03</time>
      </trkpt>
      <trkpt lat="42.8346" lon="-0.49008">
        <ele>1842.2</ele>
        <time>2021-08-10 08:33:04</time>
      </trkpt>
      <trkpt lat="42.8346" lon="-0.49007">
        <ele>1842</ele>
        <time>2021-08-10 08:33:05</time>
      </trkpt>
      <trkpt lat="42.83459" lon="-0.49005">
        <ele>1842</ele>
        <time>2021-08-10 08:33:06</time>
      </trkpt>
      <trkpt lat="42.83459" lon="-0.49003">
        <ele>1841.6</ele>
        <time>2021-08-10 08:33:07</time>
      </trkpt>
      <trkpt lat="42.83459" lon="-0.49001">
        <ele>1841.4</ele>
        <time>2021-08-10 08:33:08</time>
      </trkpt>
      <trkpt lat="42.83459" lon="-0.49001">
        <ele>1841.6</ele>
        <time>2021-08-10 08:33:09</time>
      </trkpt>
      <trkpt lat="42.83459" lon="-0.48999">
        <ele>1841.6</ele>
        <time>2021-08-10 08:33:10</time>
      </trkpt>
      <trkpt lat="42.83459" lon="-0.48998">
        <ele>1841.4</ele>
        <time>2021-08-10 08:33:11</time>
      </trkpt>
      <trkpt lat="42.83459" lon="-0.48997">
        <ele>1841.2</ele>
        <time>2021-08-10 08:33:12</time>
      </trkpt>
      <trkpt lat="42.83459" lon="-0.48996">
        <ele>1841</ele>
        <time>2021-08-10 08:33:13</time>
      </trkpt>
      <trkpt lat="42.8346" lon="-0.48995">
        <ele>1840.8</ele>
        <time>2021-08-10 08:33:14</time>
      </trkpt>
      <trkpt lat="42.8346" lon="-0.48994">
        <ele>1840.8</ele>
        <time>2021-08-10 08:33:15</time>
      </trkpt>
      <trkpt lat="42.8346" lon="-0.48993">
        <ele>1840.6</ele>
        <time>2021-08-10 08:33:16</time>
      </trkpt>
      <trkpt lat="42.83461" lon="-0.48991">
        <ele>1840.4</ele>
        <time>2021-08-10 08:33:17</time>
      </trkpt>
      <trkpt lat="42.83461" lon="-0.4899">
        <ele>1840.4</ele>
        <time>2021-08-10 08:33:18</time>
      </trkpt>
      <trkpt lat="42.83461" lon="-0.48988">
        <ele>1840.2</ele>
        <time>2021-08-10 08:33:19</time>
      </trkpt>
      <trkpt lat="42.83461" lon="-0.48987">
        <ele>1840.2</ele>
        <time>2021-08-10 08:33:20</time>
      </trkpt>
      <trkpt lat="42.83461" lon="-0.48985">
        <ele>1840.2</ele>
        <time>2021-08-10 08:33:21</time>
      </trkpt>
      <trkpt lat="42.83461" lon="-0.48984">
        <ele>1840.2</ele>
        <time>2021-08-10 08:33:22</time>
      </trkpt>
      <trkpt lat="42.8346" lon="-0.48982">
        <ele>1840</ele>
        <time>2021-08-10 08:33:23</time>
      </trkpt>
      <trkpt lat="42.8346" lon="-0.48981">
        <ele>1839.8</ele>
        <time>2021-08-10 08:33:24</time>
      </trkpt>
      <trkpt lat="42.8346" lon="-0.4898">
        <ele>1839.8</ele>
        <time>2021-08-10 08:33:25</time>
      </trkpt>
      <trkpt lat="42.8346" lon="-0.48979">
        <ele>1839.6</ele>
        <time>2021-08-10 08:33:26</time>
      </trkpt>
      <trkpt lat="42.83461" lon="-0.48979">
        <ele>1839</ele>
        <time>2021-08-10 08:33:27</time>
      </trkpt>
      <trkpt lat="42.83461" lon="-0.48978">
        <ele>1839.2</ele>
        <time>2021-08-10 08:33:28</time>
      </trkpt>
      <trkpt lat="42.83461" lon="-0.48977">
        <ele>1838.8</ele>
        <time>2021-08-10 08:33:29</time>
      </trkpt>
      <trkpt lat="42.83461" lon="-0.48976">
        <ele>1838.8</ele>
        <time>2021-08-10 08:33:30</time>
      </trkpt>
      <trkpt lat="42.83461" lon="-0.48975">
        <ele>1838.8</ele>
        <time>2021-08-10 08:33:31</time>
      </trkpt>
      <trkpt lat="42.83461" lon="-0.48973">
        <ele>1838.4</ele>
        <time>2021-08-10 08:33:32</time>
      </trkpt>
      <trkpt lat="42.83463" lon="-0.48972">
        <ele>1838.2</ele>
        <time>2021-08-10 08:33:33</time>
      </trkpt>
      <trkpt lat="42.83464" lon="-0.48972">
        <ele>1838.6</ele>
        <time>2021-08-10 08:33:34</time>
      </trkpt>
      <trkpt lat="42.83464" lon="-0.48971">
        <ele>1838.2</ele>
        <time>2021-08-10 08:33:35</time>
      </trkpt>
      <trkpt lat="42.83464" lon="-0.48971">
        <ele>1838</ele>
        <time>2021-08-10 08:33:36</time>
      </trkpt>
      <trkpt lat="42.83464" lon="-0.4897">
        <ele>1838.4</ele>
        <time>2021-08-10 08:33:37</time>
      </trkpt>
      <trkpt lat="42.83465" lon="-0.48969">
        <ele>1838</ele>
        <time>2021-08-10 08:33:38</time>
      </trkpt>
      <trkpt lat="42.83465" lon="-0.48967">
        <ele>1838</ele>
        <time>2021-08-10 08:33:39</time>
      </trkpt>
      <trkpt lat="42.83466" lon="-0.48967">
        <ele>1837.8</ele>
        <time>2021-08-10 08:33:40</time>
      </trkpt>
      <trkpt lat="42.83467" lon="-0.48966">
        <ele>1837.8</ele>
        <time>2021-08-10 08:33:41</time>
      </trkpt>
      <trkpt lat="42.83467" lon="-0.48966">
        <ele>1837.6</ele>
        <time>2021-08-10 08:33:42</time>
      </trkpt>
      <trkpt lat="42.83468" lon="-0.48964">
        <ele>1837.4</ele>
        <time>2021-08-10 08:33:43</time>
      </trkpt>
      <trkpt lat="42.83469" lon="-0.48963">
        <ele>1837</ele>
      </trkpt>
      <trkpt lat="42.8347" lon="-0.48961">
        <ele>1836.8</ele>
        <time>2021-08-10 08:33:44</time>
      </trkpt>
      <trkpt lat="42.8347" lon="-0.48961">
        <ele>1836.8</ele>
        <time>2021-08-10 08:33:45</time>
      </trkpt>
      <trkpt lat="42.83471" lon="-0.4896">
        <ele>1836.8</ele>
        <time>2021-08-10 08:33:46</time>
      </trkpt>
      <trkpt lat="42.83472" lon="-0.4896">
        <ele>1836.6</ele>
        <time>2021-08-10 08:33:47</time>
      </trkpt>
      <trkpt lat="42.83473" lon="-0.4896">
        <ele>1836.6</ele>
        <time>2021-08-10 08:33:48</time>
      </trkpt>
      <trkpt lat="42.83473" lon="-0.48959">
        <ele>1836.6</ele>
        <time>2021-08-10 08:33:49</time>
      </trkpt>
      <trkpt lat="42.83474" lon="-0.48958">
        <ele>1836.6</ele>
        <time>2021-08-10 08:33:50</time>
      </trkpt>
      <trkpt lat="42.83474" lon="-0.48958">
        <ele>1836.6</ele>
        <time>2021-08-10 08:33:51</time>
      </trkpt>
      <trkpt lat="42.83474" lon="-0.48957">
        <ele>1836.4</ele>
        <time>2021-08-10 08:33:52</time>
      </trkpt>
      <trkpt lat="42.83475" lon="-0.48957">
        <ele>1836.4</ele>
        <time>2021-08-10 08:33:53</time>
      </trkpt>
      <trkpt lat="42.83475" lon="-0.48956">
        <ele>1836.4</ele>
        <time>2021-08-10 08:33:54</time>
      </trkpt>
      <trkpt lat="42.83475" lon="-0.48955">
        <ele>1836</ele>
        <time>2021-08-10 08:33:56</time>
      </trkpt>
      <trkpt lat="42.83476" lon="-0.48955">
        <ele>1836</ele>
      </trkpt>
      <trkpt lat="42.83476" lon="-0.48954">
        <ele>1835.8</ele>
        <time>2021-08-10 08:33:57</time>
      </trkpt>
      <trkpt lat="42.83476" lon="-0.48952">
        <ele>1835.8</ele>
        <time>2021-08-10 08:33:58</time>
      </trkpt>
      <trkpt lat="42.83476" lon="-0.48951">
        <ele>1835.6</ele>
        <time>2021-08-10 08:33:59</time>
      </trkpt>
      <trkpt lat="42.83476" lon="-0.4895">
        <ele>1835.4</ele>
        <time>2021-08-10 08:34:00</time>
      </trkpt>
      <trkpt lat="42.83476" lon="-0.48948">
        <ele>1835.2</ele>
        <time>2021-08-10 08:34:01</time>
      </trkpt>
      <trkpt lat="42.83477" lon="-0.48947">
        <ele>1835</ele>
        <time>2021-08-10 08:34:02</time>
      </trkpt>
      <trkpt lat="42.83478" lon="-0.48946">
        <ele>1835</ele>
        <time>2021-08-10 08:34:03</time>
      </trkpt>
      <trkpt lat="42.83478" lon="-0.48945">
        <ele>1835</ele>
        <time>2021-08-10 08:34:04</time>
      </trkpt>
      <trkpt lat="42.83478" lon="-0.48945">
        <ele>1834.8</ele>
        <time>2021-08-10 08:34:05</time>
      </trkpt>
      <trkpt lat="42.83478" lon="-0.48945">
        <ele>1834.6</ele>
        <time>2021-08-10 08:34:06</time>
      </trkpt>
      <trkpt lat="42.83479" lon="-0.48944">
        <ele>1834.4</ele>
        <time>2021-08-10 08:34:07</time>
      </trkpt>
      <trkpt lat="42.83479" lon="-0.48943">
        <ele>1834.4</ele>
        <time>2021-08-10 08:34:08</time>
      </trkpt>
      <trkpt lat="42.8348" lon="-0.48942">
        <ele>1834.2</ele>
        <time>2021-08-10 08:34:09</time>
      </trkpt>
      <trkpt lat="42.8348" lon="-0.48942">
        <ele>1834</ele>
        <time>2021-08-10 08:34:10</time>
      </trkpt>
      <trkpt lat="42.8348" lon="-0.48941">
        <ele>1834</ele>
        <time>2021-08-10 08:34:11</time>
      </trkpt>
      <trkpt lat="42.8348" lon="-0.4894">
        <ele>1833.8</ele>
        <time>2021-08-10 08:34:12</time>
      </trkpt>
      <trkpt lat="42.8348" lon="-0.48939">
        <ele>1833.8</ele>
        <time>2021-08-10 08:34:13</time>
      </trkpt>
      <trkpt lat="42.83481" lon="-0.48938">
        <ele>1833.4</ele>
        <time>2021-08-10 08:34:15</time>
      </trkpt>
      <trkpt lat="42.83481" lon="-0.48937">
        <ele>1833.4</ele>
      </trkpt>
      <trkpt lat="42.83481" lon="-0.48936">
        <ele>1833.2</ele>
        <time>2021-08-10 08:34:16</time>
      </trkpt>
      <trkpt lat="42.83482" lon="-0.48935">
        <ele>1833.4</ele>
        <time>2021-08-10 08:34:17</time>
      </trkpt>
      <trkpt lat="42.83482" lon="-0.48934">
        <ele>1833.2</ele>
        <time>2021-08-10 08:34:18</time>
      </trkpt>
      <trkpt lat="42.83482" lon="-0.48934">
        <ele>1833.2</ele>
        <time>2021-08-10 08:34:19</time>
      </trkpt>
      <trkpt lat="42.83482" lon="-0.48933">
        <ele>1833.4</ele>
        <time>2021-08-10 08:34:20</time>
      </trkpt>
      <trkpt lat="42.83483" lon="-0.48933">
        <ele>1833</ele>
        <time>2021-08-10 08:34:21</time>
      </trkpt>
      <trkpt lat="42.83483" lon="-0.48932">
        <ele>1833.2</ele>
        <time>2021-08-10 08:34:22</time>
      </trkpt>
      <trkpt lat="42.83484" lon="-0.48932">
        <ele>1833</ele>
        <time>2021-08-10 08:34:23</time>
      </trkpt>
      <trkpt lat="42.83484" lon="-0.48931">
        <ele>1833</ele>
        <time>2021-08-10 08:34:24</time>
      </trkpt>
      <trkpt lat="42.83484" lon="-0.4893">
        <ele>1832.8</ele>
        <time>2021-08-10 08:34:25</time>
      </trkpt>
      <trkpt lat="42.83485" lon="-0.48929">
        <ele>1832.8</ele>
        <time>2021-08-10 08:34:26</time>
      </trkpt>
      <trkpt lat="42.83485" lon="-0.48929">
        <ele>1832.8</ele>
        <time>2021-08-10 08:34:27</time>
      </trkpt>
      <trkpt lat="42.83485" lon="-0.48926">
        <ele>1832.8</ele>
        <time>2021-08-10 08:34:28</time>
      </trkpt>
      <trkpt lat="42.83485" lon="-0.48926">
        <ele>1832.6</ele>
        <time>2021-08-10 08:34:29</time>
      </trkpt>
      <trkpt lat="42.83486" lon="-0.48925">
        <ele>1832.6</ele>
        <time>2021-08-10 08:34:30</time>
      </trkpt>
      <trkpt lat="42.83486" lon="-0.48924">
        <ele>1832.6</ele>
        <time>2021-08-10 08:34:31</time>
      </trkpt>
      <trkpt lat="42.83487" lon="-0.48921">
        <ele>1832.4</ele>
        <time>2021-08-10 08:34:32</time>
      </trkpt>
      <trkpt lat="42.83487" lon="-0.4892">
        <ele>1832.2</ele>
        <time>2021-08-10 08:34:33</time>
      </trkpt>
      <trkpt lat="42.83487" lon="-0.48918">
        <ele>1832.2</ele>
        <time>2021-08-10 08:34:34</time>
      </trkpt>
      <trkpt lat="42.83488" lon="-0.48917">
        <ele>1832</ele>
        <time>2021-08-10 08:34:35</time>
      </trkpt>
      <trkpt lat="42.83488" lon="-0.48915">
        <ele>1832</ele>
        <time>2021-08-10 08:34:36</time>
      </trkpt>
      <trkpt lat="42.83488" lon="-0.48914">
        <ele>1831.8</ele>
        <time>2021-08-10 08:34:37</time>
      </trkpt>
      <trkpt lat="42.83488" lon="-0.48914">
        <ele>1831.8</ele>
        <time>2021-08-10 08:34:38</time>
      </trkpt>
      <trkpt lat="42.83489" lon="-0.48913">
        <ele>1831.8</ele>
        <time>2021-08-10 08:34:39</time>
      </trkpt>
      <trkpt lat="42.83489" lon="-0.48911">
        <ele>1831.8</ele>
        <time>2021-08-10 08:34:40</time>
      </trkpt>
      <trkpt lat="42.83489" lon="-0.4891">
        <ele>1831.8</ele>
        <time>2021-08-10 08:34:41</time>
      </trkpt>
      <trkpt lat="42.8349" lon="-0.48909">
        <ele>1831.6</ele>
        <time>2021-08-10 08:34:42</time>
      </trkpt>
      <trkpt lat="42.83491" lon="-0.48908">
        <ele>1831.6</ele>
        <time>2021-08-10 08:34:43</time>
      </trkpt>
      <trkpt lat="42.83491" lon="-0.48906">
        <ele>1831.6</ele>
        <time>2021-08-10 08:34:44</time>
      </trkpt>
      <trkpt lat="42.83491" lon="-0.48905">
        <ele>1831.4</ele>
        <time>2021-08-10 08:34:45</time>
      </trkpt>
      <trkpt lat="42.83492" lon="-0.48904">
        <ele>1831.6</ele>
        <time>2021-08-10 08:34:46</time>
      </trkpt>
      <trkpt lat="42.83492" lon="-0.48902">
        <ele>1831.4</ele>
        <time>2021-08-10 08:34:47</time>
      </trkpt>
      <trkpt lat="42.83492" lon="-0.48901">
        <ele>1831.4</ele>
        <time>2021-08-10 08:34:48</time>
      </trkpt>
      <trkpt lat="42.83493" lon="-0.489">
        <ele>1831.2</ele>
        <time>2021-08-10 08:34:49</time>
      </trkpt>
      <trkpt lat="42.83493" lon="-0.48899">
        <ele>1831.2</ele>
        <time>2021-08-10 08:34:50</time>
      </trkpt>
      <trkpt lat="42.83493" lon="-0.48898">
        <ele>1831</ele>
        <time>2021-08-10 08:34:51</time>
      </trkpt>
      <trkpt lat="42.83493" lon="-0.48896">
        <ele>1830.8</ele>
        <time>2021-08-10 08:34:52</time>
      </trkpt>
      <trkpt lat="42.83493" lon="-0.48895">
        <ele>1830.8</ele>
        <time>2021-08-10 08:34:53</time>
      </trkpt>
      <trkpt lat="42.83493" lon="-0.48894">
        <ele>1830.6</ele>
        <time>2021-08-10 08:34:54</time>
      </trkpt>
      <trkpt lat="42.83494" lon="-0.48892">
        <ele>1830.6</ele>
        <time>2021-08-10 08:34:55</time>
      </trkpt>
      <trkpt lat="42.83494" lon="-0.48891">
        <ele>1830.2</ele>
        <time>2021-08-10 08:34:56</time>
      </trkpt>
      <trkpt lat="42.83495" lon="-0.4889">
        <ele>1830.4</ele>
        <time>2021-08-10 08:34:57</time>
      </trkpt>
      <trkpt lat="42.83495" lon="-0.48888">
        <ele>1830.2</ele>
        <time>2021-08-10 08:34:58</time>
      </trkpt>
      <trkpt lat="42.83495" lon="-0.48887">
        <ele>1830.2</ele>
        <time>2021-08-10 08:34:59</time>
      </trkpt>
      <trkpt lat="42.83495" lon="-0.48885">
        <ele>1830.2</ele>
        <time>2021-08-10 08:35:00</time>
      </trkpt>
      <trkpt lat="42.83495" lon="-0.48884">
        <ele>1830</ele>
        <time>2021-08-10 08:35:01</time>
      </trkpt>
      <trkpt lat="42.83495" lon="-0.48882">
        <ele>1830</ele>
        <time>2021-08-10 08:35:02</time>
      </trkpt>
      <trkpt lat="42.83495" lon="-0.48881">
        <ele>1830</ele>
        <time>2021-08-10 08:35:03</time>
      </trkpt>
      <trkpt lat="42.83495" lon="-0.4888">
        <ele>1830</ele>
        <time>2021-08-10 08:35:04</time>
      </trkpt>
      <trkpt lat="42.83494" lon="-0.48878">
        <ele>1830</ele>
        <time>2021-08-10 08:35:05</time>
      </trkpt>
      <trkpt lat="42.83494" lon="-0.48876">
        <ele>1830</ele>
        <time>2021-08-10 08:35:06</time>
      </trkpt>
      <trkpt lat="42.83494" lon="-0.48875">
        <ele>1829.8</ele>
        <time>2021-08-10 08:35:07</time>
      </trkpt>
      <trkpt lat="42.83493" lon="-0.48873">
        <ele>1829.8</ele>
        <time>2021-08-10 08:35:08</time>
      </trkpt>
      <trkpt lat="42.83493" lon="-0.48872">
        <ele>1829.8</ele>
        <time>2021-08-10 08:35:09</time>
      </trkpt>
      <trkpt lat="42.83493" lon="-0.48871">
        <ele>1830</ele>
        <time>2021-08-10 08:35:10</time>
      </trkpt>
      <trkpt lat="42.83493" lon="-0.48869">
        <ele>1829.8</ele>
        <time>2021-08-10 08:35:11</time>
      </trkpt>
      <trkpt lat="42.83492" lon="-0.48868">
        <ele>1829.8</ele>
        <time>2021-08-10 08:35:12</time>
      </trkpt>
      <trkpt lat="42.83492" lon="-0.48867">
        <ele>1829.6</ele>
        <time>2021-08-10 08:35:13</time>
      </trkpt>
      <trkpt lat="42.83492" lon="-0.48866">
        <ele>1829.6</ele>
        <time>2021-08-10 08:35:14</time>
      </trkpt>
      <trkpt lat="42.83491" lon="-0.48865">
        <ele>1829.4</ele>
        <time>2021-08-10 08:35:15</time>
      </trkpt>
      <trkpt lat="42.83491" lon="-0.48865">
        <ele>1829.2</ele>
        <time>2021-08-10 08:35:16</time>
      </trkpt>
      <trkpt lat="42.83491" lon="-0.48864">
        <ele>1829.2</ele>
        <time>2021-08-10 08:35:17</time>
      </trkpt>
      <trkpt lat="42.8349" lon="-0.48862">
        <ele>1829.2</ele>
        <time>2021-08-10 08:35:18</time>
      </trkpt>
      <trkpt lat="42.8349" lon="-0.48861">
        <ele>1829</ele>
        <time>2021-08-10 08:35:19</time>
      </trkpt>
      <trkpt lat="42.8349" lon="-0.48859">
        <ele>1829</ele>
        <time>2021-08-10 08:35:20</time>
      </trkpt>
      <trkpt lat="42.8349" lon="-0.48858">
        <ele>1828.8</ele>
        <time>2021-08-10 08:35:21</time>
      </trkpt>
      <trkpt lat="42.8349" lon="-0.48857">
        <ele>1828.8</ele>
        <time>2021-08-10 08:35:22</time>
      </trkpt>
      <trkpt lat="42.83491" lon="-0.48856">
        <ele>1828.8</ele>
        <time>2021-08-10 08:35:23</time>
      </trkpt>
      <trkpt lat="42.83491" lon="-0.48855">
        <ele>1828.6</ele>
        <time>2021-08-10 08:35:24</time>
      </trkpt>
      <trkpt lat="42.83491" lon="-0.48855">
        <ele>1828.6</ele>
        <time>2021-08-10 08:35:25</time>
      </trkpt>
      <trkpt lat="42.83491" lon="-0.48854">
        <ele>1828.4</ele>
        <time>2021-08-10 08:35:26</time>
      </trkpt>
      <trkpt lat="42.83491" lon="-0.48853">
        <ele>1828.4</ele>
        <time>2021-08-10 08:35:27</time>
      </trkpt>
      <trkpt lat="42.8349" lon="-0.48851">
        <ele>1828.2</ele>
        <time>2021-08-10 08:35:28</time>
      </trkpt>
      <trkpt lat="42.8349" lon="-0.4885">
        <ele>1828</ele>
        <time>2021-08-10 08:35:29</time>
      </trkpt>
      <trkpt lat="42.8349" lon="-0.48848">
        <ele>1828</ele>
        <time>2021-08-10 08:35:30</time>
      </trkpt>
      <trkpt lat="42.83491" lon="-0.48847">
        <ele>1828</ele>
        <time>2021-08-10 08:35:31</time>
      </trkpt>
      <trkpt lat="42.83491" lon="-0.48845">
        <ele>1827.8</ele>
        <time>2021-08-10 08:35:32</time>
      </trkpt>
      <trkpt lat="42.83491" lon="-0.48845">
        <ele>1827.8</ele>
        <time>2021-08-10 08:35:33</time>
      </trkpt>
      <trkpt lat="42.83492" lon="-0.48844">
        <ele>1827.8</ele>
        <time>2021-08-10 08:35:34</time>
      </trkpt>
      <trkpt lat="42.83492" lon="-0.48843">
        <ele>1827.8</ele>
        <time>2021-08-10 08:35:35</time>
      </trkpt>
      <trkpt lat="42.83493" lon="-0.48843">
        <ele>1827.8</ele>
        <time>2021-08-10 08:35:36</time>
      </trkpt>
      <trkpt lat="42.83493" lon="-0.48842">
        <ele>1827.4</ele>
        <time>2021-08-10 08:35:37</time>
      </trkpt>
      <trkpt lat="42.83494" lon="-0.48842">
        <ele>1827.4</ele>
        <time>2021-08-10 08:35:38</time>
      </trkpt>
      <trkpt lat="42.83495" lon="-0.48841">
        <ele>1827.4</ele>
        <time>2021-08-10 08:35:39</time>
      </trkpt>
      <trkpt lat="42.83495" lon="-0.4884">
        <ele>1827.2</ele>
        <time>2021-08-10 08:35:40</time>
      </trkpt>
      <trkpt lat="42.83496" lon="-0.48839">
        <ele>1827</ele>
        <time>2021-08-10 08:35:41</time>
      </trkpt>
      <trkpt lat="42.83496" lon="-0.48838">
        <ele>1827</ele>
        <time>2021-08-10 08:35:42</time>
      </trkpt>
      <trkpt lat="42.83497" lon="-0.48837">
        <ele>1827</ele>
        <time>2021-08-10 08:35:43</time>
      </trkpt>
      <trkpt lat="42.83497" lon="-0.48836">
        <ele>1826.8</ele>
        <time>2021-08-10 08:35:44</time>
      </trkpt>
      <trkpt lat="42.83497" lon="-0.48835">
        <ele>1826.6</ele>
        <time>2021-08-10 08:35:45</time>
      </trkpt>
      <trkpt lat="42.83497" lon="-0.48834">
        <ele>1826.4</ele>
        <time>2021-08-10 08:35:46</time>
      </trkpt>
      <trkpt lat="42.83498" lon="-0.48833">
        <ele>1826</ele>
        <time>2021-08-10 08:35:47</time>
      </trkpt>
      <trkpt lat="42.83498" lon="-0.48832">
        <ele>1825.8</ele>
        <time>2021-08-10 08:35:48</time>
      </trkpt>
      <trkpt lat="42.83498" lon="-0.48831">
        <ele>1825.8</ele>
        <time>2021-08-10 08:35:49</time>
      </trkpt>
      <trkpt lat="42.83498" lon="-0.48829">
        <ele>1825.8</ele>
        <time>2021-08-10 08:35:50</time>
      </trkpt>
      <trkpt lat="42.83498" lon="-0.48828">
        <ele>1825.8</ele>
        <time>2021-08-10 08:35:51</time>
      </trkpt>
      <trkpt lat="42.83498" lon="-0.48827">
        <ele>1825.6</ele>
        <time>2021-08-10 08:35:52</time>
      </trkpt>
      <trkpt lat="42.83498" lon="-0.48825">
        <ele>1825.4</ele>
        <time>2021-08-10 08:35:53</time>
      </trkpt>
      <trkpt lat="42.83498" lon="-0.48824">
        <ele>1825.6</ele>
        <time>2021-08-10 08:35:54</time>
      </trkpt>
      <trkpt lat="42.83497" lon="-0.48823">
        <ele>1825.4</ele>
        <time>2021-08-10 08:35:55</time>
      </trkpt>
      <trkpt lat="42.83497" lon="-0.48821">
        <ele>1825.6</ele>
        <time>2021-08-10 08:35:56</time>
      </trkpt>
      <trkpt lat="42.83497" lon="-0.48819">
        <ele>1825.2</ele>
        <time>2021-08-10 08:35:57</time>
      </trkpt>
      <trkpt lat="42.83496" lon="-0.48818">
        <ele>1825.4</ele>
        <time>2021-08-10 08:35:58</time>
      </trkpt>
      <trkpt lat="42.83497" lon="-0.48817">
        <ele>1825.2</ele>
        <time>2021-08-10 08:35:59</time>
      </trkpt>
      <trkpt lat="42.83497" lon="-0.48816">
        <ele>1824.8</ele>
        <time>2021-08-10 08:36:00</time>
      </trkpt>
      <trkpt lat="42.83497" lon="-0.48815">
        <ele>1825</ele>
        <time>2021-08-10 08:36:01</time>
      </trkpt>
      <trkpt lat="42.83498" lon="-0.48815">
        <ele>1825</ele>
        <time>2021-08-10 08:36:02</time>
      </trkpt>
      <trkpt lat="42.83498" lon="-0.48815">
        <ele>1825.2</ele>
        <time>2021-08-10 08:36:03</time>
      </trkpt>
      <trkpt lat="42.83498" lon="-0.48814">
        <ele>1825</ele>
        <time>2021-08-10 08:36:04</time>
      </trkpt>
      <trkpt lat="42.83498" lon="-0.48814">
        <ele>1824.8</ele>
        <time>2021-08-10 08:36:05</time>
      </trkpt>
      <trkpt lat="42.83498" lon="-0.48814">
        <ele>1824.8</ele>
        <time>2021-08-10 08:36:06</time>
      </trkpt>
      <trkpt lat="42.83498" lon="-0.48813">
        <ele>1825</ele>
        <time>2021-08-10 08:36:07</time>
      </trkpt>
      <trkpt lat="42.83498" lon="-0.48812">
        <ele>1824.6</ele>
        <time>2021-08-10 08:36:08</time>
      </trkpt>
      <trkpt lat="42.83498" lon="-0.48811">
        <ele>1824.4</ele>
        <time>2021-08-10 08:36:09</time>
      </trkpt>
      <trkpt lat="42.83498" lon="-0.48811">
        <ele>1824</ele>
        <time>2021-08-10 08:36:10</time>
      </trkpt>
      <trkpt lat="42.83498" lon="-0.4881">
        <ele>1823.8</ele>
        <time>2021-08-10 08:36:11</time>
      </trkpt>
      <trkpt lat="42.83497" lon="-0.4881">
        <ele>1823.6</ele>
        <time>2021-08-10 08:36:12</time>
      </trkpt>
      <trkpt lat="42.83497" lon="-0.48809">
        <ele>1823.6</ele>
        <time>2021-08-10 08:36:13</time>
      </trkpt>
      <trkpt lat="42.83497" lon="-0.48808">
        <ele>1823.6</ele>
        <time>2021-08-10 08:36:14</time>
      </trkpt>
      <trkpt lat="42.83497" lon="-0.48808">
        <ele>1823.4</ele>
        <time>2021-08-10 08:36:15</time>
      </trkpt>
      <trkpt lat="42.83496" lon="-0.48807">
        <ele>1823.2</ele>
        <time>2021-08-10 08:36:16</time>
      </trkpt>
      <trkpt lat="42.83496" lon="-0.48807">
        <ele>1822.8</ele>
        <time>2021-08-10 08:36:17</time>
      </trkpt>
      <trkpt lat="42.83496" lon="-0.48807">
        <ele>1822.8</ele>
        <time>2021-08-10 08:36:18</time>
      </trkpt>
      <trkpt lat="42.83496" lon="-0.48806">
        <ele>1822.8</ele>
        <time>2021-08-10 08:36:19</time>
      </trkpt>
      <trkpt lat="42.83496" lon="-0.48806">
        <ele>1822.6</ele>
        <time>2021-08-10 08:36:20</time>
      </trkpt>
      <trkpt lat="42.83496" lon="-0.48806">
        <ele>1822.6</ele>
        <time>2021-08-10 08:36:21</time>
      </trkpt>
      <trkpt lat="42.83495" lon="-0.48805">
        <ele>1822.4</ele>
        <time>2021-08-10 08:36:22</time>
      </trkpt>
      <trkpt lat="42.83495" lon="-0.48805">
        <ele>1822.4</ele>
        <time>2021-08-10 08:36:23</time>
      </trkpt>
      <trkpt lat="42.83495" lon="-0.48804">
        <ele>1821.8</ele>
        <time>2021-08-10 08:36:24</time>
      </trkpt>
      <trkpt lat="42.83495" lon="-0.48803">
        <ele>1821.8</ele>
        <time>2021-08-10 08:36:25</time>
      </trkpt>
      <trkpt lat="42.83495" lon="-0.48802">
        <ele>1821.4</ele>
        <time>2021-08-10 08:36:26</time>
      </trkpt>
      <trkpt lat="42.83495" lon="-0.48802">
        <ele>1821.4</ele>
        <time>2021-08-10 08:36:27</time>
      </trkpt>
      <trkpt lat="42.83494" lon="-0.48801">
        <ele>1821.2</ele>
        <time>2021-08-10 08:36:28</time>
      </trkpt>
      <trkpt lat="42.83494" lon="-0.488">
        <ele>1821</ele>
        <time>2021-08-10 08:36:29</time>
      </trkpt>
      <trkpt lat="42.83493" lon="-0.48798">
        <ele>1821</ele>
        <time>2021-08-10 08:36:30</time>
      </trkpt>
      <trkpt lat="42.83493" lon="-0.48797">
        <ele>1820.8</ele>
        <time>2021-08-10 08:36:31</time>
      </trkpt>
      <trkpt lat="42.83493" lon="-0.48796">
        <ele>1820.8</ele>
        <time>2021-08-10 08:36:32</time>
      </trkpt>
      <trkpt lat="42.83492" lon="-0.48795">
        <ele>1820.8</ele>
        <time>2021-08-10 08:36:33</time>
      </trkpt>
      <trkpt lat="42.83492" lon="-0.48794">
        <ele>1820.8</ele>
        <time>2021-08-10 08:36:34</time>
      </trkpt>
      <trkpt lat="42.83492" lon="-0.48792">
        <ele>1820.8</ele>
        <time>2021-08-10 08:36:35</time>
      </trkpt>
      <trkpt lat="42.83491" lon="-0.48791">
        <ele>1820.8</ele>
        <time>2021-08-10 08:36:36</time>
      </trkpt>
      <trkpt lat="42.83491" lon="-0.48789">
        <ele>1820.8</ele>
        <time>2021-08-10 08:36:37</time>
      </trkpt>
      <trkpt lat="42.8349" lon="-0.48787">
        <ele>1821</ele>
        <time>2021-08-10 08:36:38</time>
      </trkpt>
      <trkpt lat="42.8349" lon="-0.48786">
        <ele>1821.2</ele>
        <time>2021-08-10 08:36:39</time>
      </trkpt>
      <trkpt lat="42.8349" lon="-0.48785">
        <ele>1821</ele>
        <time>2021-08-10 08:36:40</time>
      </trkpt>
      <trkpt lat="42.8349" lon="-0.48783">
        <ele>1821.2</ele>
        <time>2021-08-10 08:36:41</time>
      </trkpt>
      <trkpt lat="42.8349" lon="-0.48782">
        <ele>1821.2</ele>
        <time>2021-08-10 08:36:42</time>
      </trkpt>
      <trkpt lat="42.8349" lon="-0.4878">
        <ele>1821</ele>
        <time>2021-08-10 08:36:43</time>
      </trkpt>
      <trkpt lat="42.83489" lon="-0.48778">
        <ele>1820.8</ele>
        <time>2021-08-10 08:36:44</time>
      </trkpt>
      <trkpt lat="42.83489" lon="-0.48777">
        <ele>1820.6</ele>
        <time>2021-08-10 08:36:45</time>
      </trkpt>
      <trkpt lat="42.83489" lon="-0.48776">
        <ele>1820.8</ele>
        <time>2021-08-10 08:36:46</time>
      </trkpt>
      <trkpt lat="42.83489" lon="-0.48775">
        <ele>1820.6</ele>
        <time>2021-08-10 08:36:47</time>
      </trkpt>
      <trkpt lat="42.83488" lon="-0.48774">
        <ele>1820.6</ele>
        <time>2021-08-10 08:36:48</time>
      </trkpt>
      <trkpt lat="42.83488" lon="-0.48773">
        <ele>1820.8</ele>
        <time>2021-08-10 08:36:49</time>
      </trkpt>
      <trkpt lat="42.83487" lon="-0.48772">
        <ele>1820.6</ele>
        <time>2021-08-10 08:36:50</time>
      </trkpt>
      <trkpt lat="42.83487" lon="-0.48771">
        <ele>1820.8</ele>
        <time>2021-08-10 08:36:51</time>
      </trkpt>
      <trkpt lat="42.83487" lon="-0.4877">
        <ele>1820.6</ele>
        <time>2021-08-10 08:36:52</time>
      </trkpt>
      <trkpt lat="42.83487" lon="-0.48769">
        <ele>1820.4</ele>
        <time>2021-08-10 08:36:53</time>
      </trkpt>
      <trkpt lat="42.83487" lon="-0.48768">
        <ele>1820.4</ele>
        <time>2021-08-10 08:36:54</time>
      </trkpt>
      <trkpt lat="42.83487" lon="-0.48766">
        <ele>1820.2</ele>
        <time>2021-08-10 08:36:55</time>
      </trkpt>
      <trkpt lat="42.83486" lon="-0.48765">
        <ele>1820.2</ele>
        <time>2021-08-10 08:36:56</time>
      </trkpt>
      <trkpt lat="42.83486" lon="-0.48763">
        <ele>1820</ele>
        <time>2021-08-10 08:36:57</time>
      </trkpt>
      <trkpt lat="42.83486" lon="-0.48762">
        <ele>1819.8</ele>
        <time>2021-08-10 08:36:58</time>
      </trkpt>
      <trkpt lat="42.83486" lon="-0.48761">
        <ele>1819.8</ele>
        <time>2021-08-10 08:36:59</time>
      </trkpt>
      <trkpt lat="42.83485" lon="-0.48759">
        <ele>1819.8</ele>
        <time>2021-08-10 08:37:00</time>
      </trkpt>
      <trkpt lat="42.83485" lon="-0.48758">
        <ele>1819.8</ele>
        <time>2021-08-10 08:37:01</time>
      </trkpt>
      <trkpt lat="42.83485" lon="-0.48757">
        <ele>1819.6</ele>
        <time>2021-08-10 08:37:02</time>
      </trkpt>
      <trkpt lat="42.83484" lon="-0.48755">
        <ele>1819.6</ele>
        <time>2021-08-10 08:37:03</time>
      </trkpt>
      <trkpt lat="42.83484" lon="-0.48754">
        <ele>1819.6</ele>
        <time>2021-08-10 08:37:04</time>
      </trkpt>
      <trkpt lat="42.83484" lon="-0.48753">
        <ele>1819.4</ele>
        <time>2021-08-10 08:37:05</time>
      </trkpt>
      <trkpt lat="42.83484" lon="-0.48751">
        <ele>1819.6</ele>
        <time>2021-08-10 08:37:06</time>
      </trkpt>
      <trkpt lat="42.83484" lon="-0.4875">
        <ele>1819.4</ele>
        <time>2021-08-10 08:37:07</time>
      </trkpt>
      <trkpt lat="42.83484" lon="-0.48748">
        <ele>1819.4</ele>
        <time>2021-08-10 08:37:08</time>
      </trkpt>
      <trkpt lat="42.83483" lon="-0.48747">
        <ele>1819.2</ele>
        <time>2021-08-10 08:37:09</time>
      </trkpt>
      <trkpt lat="42.83483" lon="-0.48746">
        <ele>1819</ele>
        <time>2021-08-10 08:37:10</time>
      </trkpt>
      <trkpt lat="42.83482" lon="-0.48744">
        <ele>1818.6</ele>
        <time>2021-08-10 08:37:11</time>
      </trkpt>
      <trkpt lat="42.83482" lon="-0.48743">
        <ele>1818.8</ele>
        <time>2021-08-10 08:37:12</time>
      </trkpt>
      <trkpt lat="42.83482" lon="-0.48742">
        <ele>1818.6</ele>
        <time>2021-08-10 08:37:13</time>
      </trkpt>
      <trkpt lat="42.83482" lon="-0.48741">
        <ele>1818.6</ele>
        <time>2021-08-10 08:37:14</time>
      </trkpt>
      <trkpt lat="42.83482" lon="-0.48739">
        <ele>1818.6</ele>
        <time>2021-08-10 08:37:15</time>
      </trkpt>
      <trkpt lat="42.83482" lon="-0.48738">
        <ele>1818.2</ele>
        <time>2021-08-10 08:37:16</time>
      </trkpt>
      <trkpt lat="42.83481" lon="-0.48736">
        <ele>1818.4</ele>
        <time>2021-08-10 08:37:17</time>
      </trkpt>
      <trkpt lat="42.83481" lon="-0.48735">
        <ele>1818.2</ele>
        <time>2021-08-10 08:37:18</time>
      </trkpt>
      <trkpt lat="42.83481" lon="-0.48733">
        <ele>1818.2</ele>
        <time>2021-08-10 08:37:19</time>
      </trkpt>
      <trkpt lat="42.83481" lon="-0.48732">
        <ele>1818.2</ele>
        <time>2021-08-10 08:37:20</time>
      </trkpt>
      <trkpt lat="42.83481" lon="-0.48731">
        <ele>1818.2</ele>
        <time>2021-08-10 08:37:21</time>
      </trkpt>
      <trkpt lat="42.83481" lon="-0.4873">
        <ele>1818.2</ele>
        <time>2021-08-10 08:37:22</time>
      </trkpt>
      <trkpt lat="42.83481" lon="-0.48729">
        <ele>1818.2</ele>
        <time>2021-08-10 08:37:23</time>
      </trkpt>
      <trkpt lat="42.83481" lon="-0.48727">
        <ele>1818.2</ele>
        <time>2021-08-10 08:37:24</time>
      </trkpt>
      <trkpt lat="42.83482" lon="-0.48726">
        <ele>1818</ele>
        <time>2021-08-10 08:37:25</time>
      </trkpt>
      <trkpt lat="42.83483" lon="-0.48725">
        <ele>1818</ele>
        <time>2021-08-10 08:37:26</time>
      </trkpt>
      <trkpt lat="42.83483" lon="-0.48725">
        <ele>1817.2</ele>
        <time>2021-08-10 08:37:27</time>
      </trkpt>
      <trkpt lat="42.83484" lon="-0.48724">
        <ele>1817.8</ele>
        <time>2021-08-10 08:37:28</time>
      </trkpt>
      <trkpt lat="42.83484" lon="-0.48724">
        <ele>1818</ele>
        <time>2021-08-10 08:37:29</time>
      </trkpt>
      <trkpt lat="42.83484" lon="-0.48724">
        <ele>1818.2</ele>
        <time>2021-08-10 08:37:30</time>
      </trkpt>
      <trkpt lat="42.83484" lon="-0.48724">
        <ele>1818</ele>
        <time>2021-08-10 08:37:31</time>
      </trkpt>
      <trkpt lat="42.83484" lon="-0.48723">
        <ele>1817.8</ele>
        <time>2021-08-10 08:37:32</time>
      </trkpt>
      <trkpt lat="42.83483" lon="-0.48722">
        <ele>1817.8</ele>
        <time>2021-08-10 08:37:33</time>
      </trkpt>
      <trkpt lat="42.83483" lon="-0.48721">
        <ele>1817.8</ele>
        <time>2021-08-10 08:37:34</time>
      </trkpt>
      <trkpt lat="42.83483" lon="-0.48719">
        <ele>1817.6</ele>
        <time>2021-08-10 08:37:35</time>
      </trkpt>
      <trkpt lat="42.83483" lon="-0.48718">
        <ele>1817.8</ele>
        <time>2021-08-10 08:37:36</time>
      </trkpt>
      <trkpt lat="42.83483" lon="-0.48717">
        <ele>1817.6</ele>
        <time>2021-08-10 08:37:37</time>
      </trkpt>
      <trkpt lat="42.83483" lon="-0.48715">
        <ele>1817.6</ele>
        <time>2021-08-10 08:37:38</time>
      </trkpt>
      <trkpt lat="42.83483" lon="-0.48714">
        <ele>1817.4</ele>
        <time>2021-08-10 08:37:39</time>
      </trkpt>
      <trkpt lat="42.83483" lon="-0.48713">
        <ele>1817.4</ele>
        <time>2021-08-10 08:37:40</time>
      </trkpt>
      <trkpt lat="42.83483" lon="-0.48711">
        <ele>1817.2</ele>
        <time>2021-08-10 08:37:41</time>
      </trkpt>
      <trkpt lat="42.83482" lon="-0.4871">
        <ele>1817.2</ele>
        <time>2021-08-10 08:37:42</time>
      </trkpt>
      <trkpt lat="42.83482" lon="-0.48709">
        <ele>1817.2</ele>
        <time>2021-08-10 08:37:43</time>
      </trkpt>
      <trkpt lat="42.83482" lon="-0.48707">
        <ele>1817.2</ele>
        <time>2021-08-10 08:37:44</time>
      </trkpt>
      <trkpt lat="42.83482" lon="-0.48706">
        <ele>1817.2</ele>
        <time>2021-08-10 08:37:45</time>
      </trkpt>
      <trkpt lat="42.83482" lon="-0.48705">
        <ele>1817.4</ele>
        <time>2021-08-10 08:37:46</time>
      </trkpt>
      <trkpt lat="42.83482" lon="-0.48704">
        <ele>1817.2</ele>
        <time>2021-08-10 08:37:47</time>
      </trkpt>
      <trkpt lat="42.83482" lon="-0.48703">
        <ele>1817.2</ele>
        <time>2021-08-10 08:37:48</time>
      </trkpt>
      <trkpt lat="42.83482" lon="-0.48701">
        <ele>1817</ele>
        <time>2021-08-10 08:37:49</time>
      </trkpt>
      <trkpt lat="42.83481" lon="-0.487">
        <ele>1817</ele>
        <time>2021-08-10 08:37:50</time>
      </trkpt>
      <trkpt lat="42.83481" lon="-0.48699">
        <ele>1816.8</ele>
        <time>2021-08-10 08:37:51</time>
      </trkpt>
      <trkpt lat="42.83481" lon="-0.48698">
        <ele>1817</ele>
        <time>2021-08-10 08:37:52</time>
      </trkpt>
      <trkpt lat="42.83481" lon="-0.48696">
        <ele>1817</ele>
        <time>2021-08-10 08:37:53</time>
      </trkpt>
      <trkpt lat="42.83481" lon="-0.48695">
        <ele>1816.6</ele>
        <time>2021-08-10 08:37:54</time>
      </trkpt>
      <trkpt lat="42.8348" lon="-0.48694">
        <ele>1816.4</ele>
        <time>2021-08-10 08:37:55</time>
      </trkpt>
      <trkpt lat="42.8348" lon="-0.48692">
        <ele>1816.4</ele>
        <time>2021-08-10 08:37:56</time>
      </trkpt>
      <trkpt lat="42.8348" lon="-0.48691">
        <ele>1816.4</ele>
        <time>2021-08-10 08:37:57</time>
      </trkpt>
      <trkpt lat="42.8348" lon="-0.4869">
        <ele>1816.4</ele>
        <time>2021-08-10 08:37:58</time>
      </trkpt>
      <trkpt lat="42.8348" lon="-0.48689">
        <ele>1816.2</ele>
        <time>2021-08-10 08:37:59</time>
      </trkpt>
      <trkpt lat="42.8348" lon="-0.48688">
        <ele>1816</ele>
        <time>2021-08-10 08:38:00</time>
      </trkpt>
      <trkpt lat="42.83481" lon="-0.48686">
        <ele>1816.2</ele>
        <time>2021-08-10 08:38:01</time>
      </trkpt>
      <trkpt lat="42.83481" lon="-0.48685">
        <ele>1816.2</ele>
        <time>2021-08-10 08:38:02</time>
      </trkpt>
      <trkpt lat="42.8348" lon="-0.48684">
        <ele>1816.2</ele>
        <time>2021-08-10 08:38:03</time>
      </trkpt>
      <trkpt lat="42.8348" lon="-0.48682">
        <ele>1816.2</ele>
        <time>2021-08-10 08:38:04</time>
      </trkpt>
      <trkpt lat="42.8348" lon="-0.48681">
        <ele>1816.2</ele>
        <time>2021-08-10 08:38:05</time>
      </trkpt>
      <trkpt lat="42.83481" lon="-0.4868">
        <ele>1816</ele>
        <time>2021-08-10 08:38:06</time>
      </trkpt>
      <trkpt lat="42.8348" lon="-0.48678">
        <ele>1816</ele>
        <time>2021-08-10 08:38:07</time>
      </trkpt>
      <trkpt lat="42.8348" lon="-0.48677">
        <ele>1815.8</ele>
        <time>2021-08-10 08:38:08</time>
      </trkpt>
      <trkpt lat="42.83481" lon="-0.48676">
        <ele>1815.8</ele>
        <time>2021-08-10 08:38:09</time>
      </trkpt>
      <trkpt lat="42.83481" lon="-0.48674">
        <ele>1815.8</ele>
        <time>2021-08-10 08:38:10</time>
      </trkpt>
      <trkpt lat="42.83481" lon="-0.48673">
        <ele>1815.6</ele>
        <time>2021-08-10 08:38:11</time>
      </trkpt>
      <trkpt lat="42.83481" lon="-0.48671">
        <ele>1815.6</ele>
        <time>2021-08-10 08:38:12</time>
      </trkpt>
      <trkpt lat="42.83481" lon="-0.4867">
        <ele>1815.4</ele>
        <time>2021-08-10 08:38:13</time>
      </trkpt>
      <trkpt lat="42.83481" lon="-0.48668">
        <ele>1815.4</ele>
        <time>2021-08-10 08:38:14</time>
      </trkpt>
      <trkpt lat="42.83481" lon="-0.48667">
        <ele>1815.6</ele>
        <time>2021-08-10 08:38:15</time>
      </trkpt>
      <trkpt lat="42.83482" lon="-0.48666">
        <ele>1815.4</ele>
        <time>2021-08-10 08:38:16</time>
      </trkpt>
      <trkpt lat="42.83482" lon="-0.48665">
        <ele>1815.4</ele>
        <time>2021-08-10 08:38:17</time>
      </trkpt>
      <trkpt lat="42.83482" lon="-0.48663">
        <ele>1815.2</ele>
        <time>2021-08-10 08:38:18</time>
      </trkpt>
      <trkpt lat="42.83482" lon="-0.48662">
        <ele>1815.4</ele>
        <time>2021-08-10 08:38:19</time>
      </trkpt>
      <trkpt lat="42.83482" lon="-0.4866">
        <ele>1815.2</ele>
        <time>2021-08-10 08:38:20</time>
      </trkpt>
      <trkpt lat="42.83482" lon="-0.48658">
        <ele>1815.2</ele>
        <time>2021-08-10 08:38:21</time>
      </trkpt>
      <trkpt lat="42.83482" lon="-0.48657">
        <ele>1815.2</ele>
        <time>2021-08-10 08:38:22</time>
      </trkpt>
      <trkpt lat="42.83482" lon="-0.48656">
        <ele>1815</ele>
        <time>2021-08-10 08:38:23</time>
      </trkpt>
      <trkpt lat="42.83483" lon="-0.48655">
        <ele>1815.2</ele>
        <time>2021-08-10 08:38:24</time>
      </trkpt>
      <trkpt lat="42.83483" lon="-0.48653">
        <ele>1815.4</ele>
        <time>2021-08-10 08:38:25</time>
      </trkpt>
      <trkpt lat="42.83484" lon="-0.48652">
        <ele>1815.6</ele>
        <time>2021-08-10 08:38:26</time>
      </trkpt>
      <trkpt lat="42.83484" lon="-0.48651">
        <ele>1815.6</ele>
        <time>2021-08-10 08:38:27</time>
      </trkpt>
      <trkpt lat="42.83484" lon="-0.4865">
        <ele>1815.6</ele>
        <time>2021-08-10 08:38:28</time>
      </trkpt>
      <trkpt lat="42.83484" lon="-0.48649">
        <ele>1815.6</ele>
        <time>2021-08-10 08:38:29</time>
      </trkpt>
      <trkpt lat="42.83484" lon="-0.48648">
        <ele>1815.8</ele>
        <time>2021-08-10 08:38:30</time>
      </trkpt>
      <trkpt lat="42.83484" lon="-0.48647">
        <ele>1815.8</ele>
        <time>2021-08-10 08:38:31</time>
      </trkpt>
      <trkpt lat="42.83483" lon="-0.48647">
        <ele>1815.8</ele>
        <time>2021-08-10 08:38:32</time>
      </trkpt>
      <trkpt lat="42.83483" lon="-0.48645">
        <ele>1815.8</ele>
        <time>2021-08-10 08:38:33</time>
      </trkpt>
      <trkpt lat="42.83482" lon="-0.48644">
        <ele>1815.8</ele>
        <time>2021-08-10 08:38:34</time>
      </trkpt>
      <trkpt lat="42.83482" lon="-0.48644">
        <ele>1815.8</ele>
        <time>2021-08-10 08:38:35</time>
      </trkpt>
      <trkpt lat="42.83481" lon="-0.48643">
        <ele>1816</ele>
        <time>2021-08-10 08:38:36</time>
      </trkpt>
      <trkpt lat="42.83481" lon="-0.48642">
        <ele>1816</ele>
        <time>2021-08-10 08:38:37</time>
      </trkpt>
      <trkpt lat="42.83481" lon="-0.48641">
        <ele>1816</ele>
        <time>2021-08-10 08:38:38</time>
      </trkpt>
      <trkpt lat="42.83481" lon="-0.48639">
        <ele>1816</ele>
        <time>2021-08-10 08:38:39</time>
      </trkpt>
      <trkpt lat="42.83482" lon="-0.48639">
        <ele>1816</ele>
        <time>2021-08-10 08:38:40</time>
      </trkpt>
      <trkpt lat="42.83482" lon="-0.48638">
        <ele>1816</ele>
        <time>2021-08-10 08:38:41</time>
      </trkpt>
      <trkpt lat="42.83482" lon="-0.48637">
        <ele>1816</ele>
        <time>2021-08-10 08:38:42</time>
      </trkpt>
      <trkpt lat="42.83482" lon="-0.48636">
        <ele>1815.8</ele>
        <time>2021-08-10 08:38:43</time>
      </trkpt>
      <trkpt lat="42.83482" lon="-0.48636">
        <ele>1815.6</ele>
        <time>2021-08-10 08:38:44</time>
      </trkpt>
      <trkpt lat="42.83482" lon="-0.48635">
        <ele>1815.6</ele>
        <time>2021-08-10 08:38:45</time>
      </trkpt>
      <trkpt lat="42.83482" lon="-0.48634">
        <ele>1815.2</ele>
        <time>2021-08-10 08:38:46</time>
      </trkpt>
      <trkpt lat="42.83482" lon="-0.48633">
        <ele>1815.2</ele>
        <time>2021-08-10 08:38:47</time>
      </trkpt>
      <trkpt lat="42.83481" lon="-0.48632">
        <ele>1815.2</ele>
        <time>2021-08-10 08:38:48</time>
      </trkpt>
      <trkpt lat="42.83481" lon="-0.48631">
        <ele>1815.2</ele>
        <time>2021-08-10 08:38:49</time>
      </trkpt>
      <trkpt lat="42.83481" lon="-0.48631">
        <ele>1815</ele>
        <time>2021-08-10 08:38:50</time>
      </trkpt>
      <trkpt lat="42.83481" lon="-0.4863">
        <ele>1814.8</ele>
        <time>2021-08-10 08:38:51</time>
      </trkpt>
      <trkpt lat="42.83481" lon="-0.4863">
        <ele>1815</ele>
        <time>2021-08-10 08:38:52</time>
      </trkpt>
      <trkpt lat="42.83481" lon="-0.4863">
        <ele>1815</ele>
        <time>2021-08-10 08:38:53</time>
      </trkpt>
      <trkpt lat="42.8348" lon="-0.48629">
        <ele>1815</ele>
        <time>2021-08-10 08:38:54</time>
      </trkpt>
      <trkpt lat="42.8348" lon="-0.48629">
        <ele>1814.8</ele>
        <time>2021-08-10 08:38:55</time>
      </trkpt>
      <trkpt lat="42.8348" lon="-0.48628">
        <ele>1814.8</ele>
        <time>2021-08-10 08:38:56</time>
      </trkpt>
      <trkpt lat="42.8348" lon="-0.48627">
        <ele>1815</ele>
        <time>2021-08-10 08:38:57</time>
      </trkpt>
      <trkpt lat="42.8348" lon="-0.48627">
        <ele>1814.8</ele>
        <time>2021-08-10 08:38:58</time>
      </trkpt>
      <trkpt lat="42.83479" lon="-0.48626">
        <ele>1814</ele>
        <time>2021-08-10 08:38:59</time>
      </trkpt>
      <trkpt lat="42.83479" lon="-0.48625">
        <ele>1814</ele>
        <time>2021-08-10 08:39:00</time>
      </trkpt>
      <trkpt lat="42.83479" lon="-0.48624">
        <ele>1813.6</ele>
        <time>2021-08-10 08:39:01</time>
      </trkpt>
      <trkpt lat="42.83479" lon="-0.48623">
        <ele>1813.8</ele>
        <time>2021-08-10 08:39:02</time>
      </trkpt>
      <trkpt lat="42.83478" lon="-0.48622">
        <ele>1813.4</ele>
        <time>2021-08-10 08:39:03</time>
      </trkpt>
      <trkpt lat="42.83479" lon="-0.48621">
        <ele>1813.4</ele>
        <time>2021-08-10 08:39:04</time>
      </trkpt>
      <trkpt lat="42.83479" lon="-0.48621">
        <ele>1813.2</ele>
        <time>2021-08-10 08:39:05</time>
      </trkpt>
      <trkpt lat="42.8348" lon="-0.4862">
        <ele>1813</ele>
        <time>2021-08-10 08:39:06</time>
      </trkpt>
      <trkpt lat="42.8348" lon="-0.48619">
        <ele>1813</ele>
        <time>2021-08-10 08:39:07</time>
      </trkpt>
      <trkpt lat="42.8348" lon="-0.48619">
        <ele>1812.8</ele>
        <time>2021-08-10 08:39:08</time>
      </trkpt>
      <trkpt lat="42.8348" lon="-0.48619">
        <ele>1812.8</ele>
        <time>2021-08-10 08:39:09</time>
      </trkpt>
      <trkpt lat="42.8348" lon="-0.48619">
        <ele>1812.6</ele>
        <time>2021-08-10 08:39:10</time>
      </trkpt>
      <trkpt lat="42.83481" lon="-0.48618">
        <ele>1812.8</ele>
        <time>2021-08-10 08:39:11</time>
      </trkpt>
      <trkpt lat="42.83481" lon="-0.48618">
        <ele>1812.8</ele>
        <time>2021-08-10 08:39:12</time>
      </trkpt>
      <trkpt lat="42.83481" lon="-0.48619">
        <ele>1812.6</ele>
        <time>2021-08-10 08:39:13</time>
      </trkpt>
      <trkpt lat="42.83481" lon="-0.48619">
        <ele>1812.4</ele>
        <time>2021-08-10 08:39:14</time>
      </trkpt>
      <trkpt lat="42.83481" lon="-0.48619">
        <ele>1812.6</ele>
        <time>2021-08-10 08:39:15</time>
      </trkpt>
      <trkpt lat="42.83481" lon="-0.48619">
        <ele>1812.6</ele>
        <time>2021-08-10 08:39:16</time>
      </trkpt>
      <trkpt lat="42.83481" lon="-0.48619">
        <ele>1812.6</ele>
        <time>2021-08-10 08:39:17</time>
      </trkpt>
      <trkpt lat="42.83481" lon="-0.48619">
        <ele>1812.6</ele>
        <time>2021-08-10 08:39:18</time>
      </trkpt>
      <trkpt lat="42.83481" lon="-0.4862">
        <ele>1812.6</ele>
        <time>2021-08-10 08:39:19</time>
      </trkpt>
      <trkpt lat="42.83481" lon="-0.4862">
        <ele>1812.8</ele>
        <time>2021-08-10 08:39:20</time>
      </trkpt>
      <trkpt lat="42.83481" lon="-0.4862">
        <ele>1812.8</ele>
        <time>2021-08-10 08:39:21</time>
      </trkpt>
      <trkpt lat="42.83481" lon="-0.4862">
        <ele>1812.8</ele>
        <time>2021-08-10 08:39:22</time>
      </trkpt>
      <trkpt lat="42.8348" lon="-0.4862">
        <ele>1812.8</ele>
        <time>2021-08-10 08:39:23</time>
      </trkpt>
      <trkpt lat="42.8348" lon="-0.48619">
        <ele>1812.6</ele>
        <time>2021-08-10 08:39:24</time>
      </trkpt>
      <trkpt lat="42.8348" lon="-0.48618">
        <ele>1812.4</ele>
        <time>2021-08-10 08:39:37</time>
      </trkpt>
      <trkpt lat="42.8348" lon="-0.48618">
        <ele>1812.2</ele>
        <time>2021-08-10 08:39:38</time>
      </trkpt>
      <trkpt lat="42.83479" lon="-0.48617">
        <ele>1812.2</ele>
        <time>2021-08-10 08:39:39</time>
      </trkpt>
      <trkpt lat="42.83479" lon="-0.48616">
        <ele>1812.2</ele>
        <time>2021-08-10 08:39:40</time>
      </trkpt>
      <trkpt lat="42.83478" lon="-0.48616">
        <ele>1812.2</ele>
        <time>2021-08-10 08:39:41</time>
      </trkpt>
      <trkpt lat="42.83478" lon="-0.48615">
        <ele>1812.2</ele>
        <time>2021-08-10 08:39:49</time>
      </trkpt>
      <trkpt lat="42.83477" lon="-0.48615">
        <ele>1812.2</ele>
        <time>2021-08-10 08:39:50</time>
      </trkpt>
      <trkpt lat="42.83477" lon="-0.48614">
        <ele>1812.2</ele>
        <time>2021-08-10 08:39:51</time>
      </trkpt>
      <trkpt lat="42.83476" lon="-0.48613">
        <ele>1812.2</ele>
        <time>2021-08-10 08:39:53</time>
      </trkpt>
      <trkpt lat="42.83476" lon="-0.48612">
        <ele>1812</ele>
        <time>2021-08-10 08:39:54</time>
      </trkpt>
      <trkpt lat="42.83476" lon="-0.48612">
        <ele>1811.8</ele>
        <time>2021-08-10 08:39:55</time>
      </trkpt>
      <trkpt lat="42.83476" lon="-0.48611">
        <ele>1811.8</ele>
        <time>2021-08-10 08:39:58</time>
      </trkpt>
      <trkpt lat="42.83475" lon="-0.48611">
        <ele>1811.6</ele>
        <time>2021-08-10 08:39:59</time>
      </trkpt>
      <trkpt lat="42.83475" lon="-0.4861">
        <ele>1811.6</ele>
        <time>2021-08-10 08:40:00</time>
      </trkpt>
      <trkpt lat="42.83475" lon="-0.48609">
        <ele>1811.4</ele>
        <time>2021-08-10 08:40:01</time>
      </trkpt>
      <trkpt lat="42.83474" lon="-0.48608">
        <ele>1811.2</ele>
        <time>2021-08-10 08:40:02</time>
      </trkpt>
      <trkpt lat="42.83474" lon="-0.48607">
        <ele>1811</ele>
        <time>2021-08-10 08:40:03</time>
      </trkpt>
      <trkpt lat="42.83473" lon="-0.48606">
        <ele>1811</ele>
        <time>2021-08-10 08:40:04</time>
      </trkpt>
      <trkpt lat="42.83473" lon="-0.48605">
        <ele>1811</ele>
        <time>2021-08-10 08:40:05</time>
      </trkpt>
      <trkpt lat="42.83473" lon="-0.48604">
        <ele>1811</ele>
        <time>2021-08-10 08:40:06</time>
      </trkpt>
      <trkpt lat="42.83473" lon="-0.48604">
        <ele>1811</ele>
        <time>2021-08-10 08:40:07</time>
      </trkpt>
      <trkpt lat="42.83472" lon="-0.48603">
        <ele>1810.8</ele>
        <time>2021-08-10 08:40:08</time>
      </trkpt>
      <trkpt lat="42.83472" lon="-0.48602">
        <ele>1810.8</ele>
        <time>2021-08-10 08:40:09</time>
      </trkpt>
      <trkpt lat="42.83471" lon="-0.48601">
        <ele>1810.8</ele>
        <time>2021-08-10 08:40:10</time>
      </trkpt>
      <trkpt lat="42.83471" lon="-0.48601">
        <ele>1810.8</ele>
        <time>2021-08-10 08:40:11</time>
      </trkpt>
      <trkpt lat="42.8347" lon="-0.486">
        <ele>1810.8</ele>
        <time>2021-08-10 08:40:12</time>
      </trkpt>
      <trkpt lat="42.83469" lon="-0.48599">
        <ele>1810.6</ele>
        <time>2021-08-10 08:40:13</time>
      </trkpt>
      <trkpt lat="42.83469" lon="-0.48597">
        <ele>1810.6</ele>
        <time>2021-08-10 08:40:14</time>
      </trkpt>
      <trkpt lat="42.83468" lon="-0.48596">
        <ele>1810.2</ele>
        <time>2021-08-10 08:40:15</time>
      </trkpt>
      <trkpt lat="42.83467" lon="-0.48595">
        <ele>1810.4</ele>
        <time>2021-08-10 08:40:16</time>
      </trkpt>
      <trkpt lat="42.83467" lon="-0.48594">
        <ele>1810.4</ele>
        <time>2021-08-10 08:40:17</time>
      </trkpt>
      <trkpt lat="42.83466" lon="-0.48592">
        <ele>1810.4</ele>
        <time>2021-08-10 08:40:18</time>
      </trkpt>
      <trkpt lat="42.83466" lon="-0.48591">
        <ele>1810.4</ele>
        <time>2021-08-10 08:40:19</time>
      </trkpt>
      <trkpt lat="42.83466" lon="-0.4859">
        <ele>1810.2</ele>
        <time>2021-08-10 08:40:20</time>
      </trkpt>
      <trkpt lat="42.83465" lon="-0.48588">
        <ele>1810.4</ele>
        <time>2021-08-10 08:40:21</time>
      </trkpt>
      <trkpt lat="42.83464" lon="-0.48587">
        <ele>1810.2</ele>
        <time>2021-08-10 08:40:22</time>
      </trkpt>
      <trkpt lat="42.83464" lon="-0.48586">
        <ele>1810.4</ele>
        <time>2021-08-10 08:40:23</time>
      </trkpt>
      <trkpt lat="42.83463" lon="-0.48585">
        <ele>1810.2</ele>
        <time>2021-08-10 08:40:24</time>
      </trkpt>
      <trkpt lat="42.83463" lon="-0.48583">
        <ele>1810.2</ele>
        <time>2021-08-10 08:40:25</time>
      </trkpt>
      <trkpt lat="42.83462" lon="-0.48582">
        <ele>1810.2</ele>
        <time>2021-08-10 08:40:26</time>
      </trkpt>
      <trkpt lat="42.83462" lon="-0.48581">
        <ele>1810.2</ele>
        <time>2021-08-10 08:40:27</time>
      </trkpt>
      <trkpt lat="42.83461" lon="-0.4858">
        <ele>1810.2</ele>
        <time>2021-08-10 08:40:28</time>
      </trkpt>
      <trkpt lat="42.83461" lon="-0.48578">
        <ele>1810.2</ele>
        <time>2021-08-10 08:40:29</time>
      </trkpt>
      <trkpt lat="42.83461" lon="-0.48577">
        <ele>1810.2</ele>
        <time>2021-08-10 08:40:30</time>
      </trkpt>
      <trkpt lat="42.8346" lon="-0.48576">
        <ele>1810.4</ele>
        <time>2021-08-10 08:40:31</time>
      </trkpt>
      <trkpt lat="42.8346" lon="-0.48574">
        <ele>1810.2</ele>
        <time>2021-08-10 08:40:32</time>
      </trkpt>
      <trkpt lat="42.8346" lon="-0.48573">
        <ele>1810.2</ele>
        <time>2021-08-10 08:40:33</time>
      </trkpt>
      <trkpt lat="42.83459" lon="-0.48572">
        <ele>1810</ele>
        <time>2021-08-10 08:40:34</time>
      </trkpt>
      <trkpt lat="42.83459" lon="-0.4857">
        <ele>1810.2</ele>
        <time>2021-08-10 08:40:35</time>
      </trkpt>
      <trkpt lat="42.83459" lon="-0.48569">
        <ele>1810</ele>
        <time>2021-08-10 08:40:36</time>
      </trkpt>
      <trkpt lat="42.83458" lon="-0.48567">
        <ele>1810.2</ele>
        <time>2021-08-10 08:40:37</time>
      </trkpt>
      <trkpt lat="42.83458" lon="-0.48566">
        <ele>1810</ele>
        <time>2021-08-10 08:40:38</time>
      </trkpt>
      <trkpt lat="42.83457" lon="-0.48565">
        <ele>1810.2</ele>
        <time>2021-08-10 08:40:39</time>
      </trkpt>
      <trkpt lat="42.83457" lon="-0.48564">
        <ele>1810</ele>
        <time>2021-08-10 08:40:40</time>
      </trkpt>
      <trkpt lat="42.83456" lon="-0.48563">
        <ele>1810.2</ele>
        <time>2021-08-10 08:40:41</time>
      </trkpt>
      <trkpt lat="42.83456" lon="-0.48562">
        <ele>1810</ele>
        <time>2021-08-10 08:40:42</time>
      </trkpt>
      <trkpt lat="42.83455" lon="-0.48561">
        <ele>1810.2</ele>
        <time>2021-08-10 08:40:43</time>
      </trkpt>
      <trkpt lat="42.83455" lon="-0.48559">
        <ele>1810.2</ele>
        <time>2021-08-10 08:40:44</time>
      </trkpt>
      <trkpt lat="42.83454" lon="-0.48556">
        <ele>1810.2</ele>
        <time>2021-08-10 08:40:45</time>
      </trkpt>
      <trkpt lat="42.83454" lon="-0.48555">
        <ele>1810</ele>
        <time>2021-08-10 08:40:46</time>
      </trkpt>
      <trkpt lat="42.83454" lon="-0.48553">
        <ele>1810.2</ele>
        <time>2021-08-10 08:40:47</time>
      </trkpt>
      <trkpt lat="42.83454" lon="-0.48552">
        <ele>1809.8</ele>
        <time>2021-08-10 08:40:48</time>
      </trkpt>
      <trkpt lat="42.83454" lon="-0.4855">
        <ele>1810</ele>
        <time>2021-08-10 08:40:49</time>
      </trkpt>
      <trkpt lat="42.83454" lon="-0.48549">
        <ele>1810</ele>
        <time>2021-08-10 08:40:50</time>
      </trkpt>
      <trkpt lat="42.83453" lon="-0.48548">
        <ele>1810</ele>
        <time>2021-08-10 08:40:51</time>
      </trkpt>
      <trkpt lat="42.83454" lon="-0.48546">
        <ele>1810</ele>
        <time>2021-08-10 08:40:52</time>
      </trkpt>
      <trkpt lat="42.83453" lon="-0.48545">
        <ele>1810</ele>
        <time>2021-08-10 08:40:53</time>
      </trkpt>
      <trkpt lat="42.83453" lon="-0.48543">
        <ele>1810</ele>
        <time>2021-08-10 08:40:54</time>
      </trkpt>
      <trkpt lat="42.83453" lon="-0.4854">
        <ele>1809.8</ele>
        <time>2021-08-10 08:40:55</time>
      </trkpt>
      <trkpt lat="42.83453" lon="-0.48539">
        <ele>1809.8</ele>
        <time>2021-08-10 08:40:56</time>
      </trkpt>
      <trkpt lat="42.83453" lon="-0.48537">
        <ele>1809.8</ele>
        <time>2021-08-10 08:40:57</time>
      </trkpt>
      <trkpt lat="42.83453" lon="-0.48536">
        <ele>1809.8</ele>
        <time>2021-08-10 08:40:58</time>
      </trkpt>
      <trkpt lat="42.83453" lon="-0.48534">
        <ele>1809.6</ele>
        <time>2021-08-10 08:40:59</time>
      </trkpt>
      <trkpt lat="42.83453" lon="-0.48533">
        <ele>1809.6</ele>
      </trkpt>
      <trkpt lat="42.83453" lon="-0.48531">
        <ele>1809.6</ele>
        <time>2021-08-10 08:41:01</time>
      </trkpt>
      <trkpt lat="42.83453" lon="-0.4853">
        <ele>1809.8</ele>
        <time>2021-08-10 08:41:02</time>
      </trkpt>
      <trkpt lat="42.83453" lon="-0.48528">
        <ele>1809.6</ele>
        <time>2021-08-10 08:41:03</time>
      </trkpt>
      <trkpt lat="42.83453" lon="-0.48527">
        <ele>1809.6</ele>
        <time>2021-08-10 08:41:04</time>
      </trkpt>
      <trkpt lat="42.83453" lon="-0.48525">
        <ele>1809.6</ele>
        <time>2021-08-10 08:41:05</time>
      </trkpt>
      <trkpt lat="42.83454" lon="-0.48524">
        <ele>1809.6</ele>
        <time>2021-08-10 08:41:06</time>
      </trkpt>
      <trkpt lat="42.83454" lon="-0.48523">
        <ele>1809.6</ele>
        <time>2021-08-10 08:41:07</time>
      </trkpt>
      <trkpt lat="42.83454" lon="-0.48521">
        <ele>1809.6</ele>
        <time>2021-08-10 08:41:08</time>
      </trkpt>
      <trkpt lat="42.83454" lon="-0.4852">
        <ele>1809.6</ele>
        <time>2021-08-10 08:41:09</time>
      </trkpt>
      <trkpt lat="42.83454" lon="-0.48519">
        <ele>1809.6</ele>
        <time>2021-08-10 08:41:10</time>
      </trkpt>
      <trkpt lat="42.83454" lon="-0.48517">
        <ele>1809.6</ele>
      </trkpt>
      <trkpt lat="42.83455" lon="-0.48516">
        <ele>1809.6</ele>
        <time>2021-08-10 08:41:11</time>
      </trkpt>
      <trkpt lat="42.83455" lon="-0.48514">
        <ele>1809.4</ele>
        <time>2021-08-10 08:41:12</time>
      </trkpt>
      <trkpt lat="42.83454" lon="-0.48511">
        <ele>1809.4</ele>
        <time>2021-08-10 08:41:13</time>
      </trkpt>
      <trkpt lat="42.83454" lon="-0.4851">
        <ele>1809.4</ele>
        <time>2021-08-10 08:41:14</time>
      </trkpt>
      <trkpt lat="42.83454" lon="-0.48508">
        <ele>1809.4</ele>
        <time>2021-08-10 08:41:15</time>
      </trkpt>
      <trkpt lat="42.83454" lon="-0.48507">
        <ele>1809.4</ele>
        <time>2021-08-10 08:41:16</time>
      </trkpt>
      <trkpt lat="42.83455" lon="-0.48506">
        <ele>1809.4</ele>
        <time>2021-08-10 08:41:17</time>
      </trkpt>
      <trkpt lat="42.83455" lon="-0.48504">
        <ele>1809.2</ele>
        <time>2021-08-10 08:41:18</time>
      </trkpt>
      <trkpt lat="42.83456" lon="-0.48503">
        <ele>1809.4</ele>
        <time>2021-08-10 08:41:19</time>
      </trkpt>
      <trkpt lat="42.83456" lon="-0.48502">
        <ele>1809.4</ele>
        <time>2021-08-10 08:41:20</time>
      </trkpt>
      <trkpt lat="42.83457" lon="-0.48502">
        <ele>1809.4</ele>
        <time>2021-08-10 08:41:21</time>
      </trkpt>
      <trkpt lat="42.83458" lon="-0.48501">
        <ele>1809.4</ele>
        <time>2021-08-10 08:41:22</time>
      </trkpt>
      <trkpt lat="42.83458" lon="-0.485">
        <ele>1809.4</ele>
        <time>2021-08-10 08:41:23</time>
      </trkpt>
      <trkpt lat="42.83459" lon="-0.48499">
        <ele>1809.4</ele>
        <time>2021-08-10 08:41:24</time>
      </trkpt>
      <trkpt lat="42.83459" lon="-0.48498">
        <ele>1809.2</ele>
        <time>2021-08-10 08:41:25</time>
      </trkpt>
      <trkpt lat="42.8346" lon="-0.48497">
        <ele>1809.4</ele>
        <time>2021-08-10 08:41:26</time>
      </trkpt>
      <trkpt lat="42.8346" lon="-0.48496">
        <ele>1809.4</ele>
        <time>2021-08-10 08:41:27</time>
      </trkpt>
      <trkpt lat="42.83461" lon="-0.48494">
        <ele>1809.4</ele>
        <time>2021-08-10 08:41:28</time>
      </trkpt>
      <trkpt lat="42.83462" lon="-0.48493">
        <ele>1809.2</ele>
        <time>2021-08-10 08:41:30</time>
      </trkpt>
      <trkpt lat="42.83462" lon="-0.48493">
        <ele>1809.4</ele>
      </trkpt>
      <trkpt lat="42.83464" lon="-0.48493">
        <ele>1809.4</ele>
        <time>2021-08-10 08:41:31</time>
      </trkpt>
      <trkpt lat="42.83465" lon="-0.48493">
        <ele>1809.8</ele>
        <time>2021-08-10 08:41:32</time>
      </trkpt>
      <trkpt lat="42.83466" lon="-0.48492">
        <ele>1810</ele>
        <time>2021-08-10 08:41:33</time>
      </trkpt>
      <trkpt lat="42.83467" lon="-0.48491">
        <ele>1810.2</ele>
        <time>2021-08-10 08:41:34</time>
      </trkpt>
      <trkpt lat="42.83468" lon="-0.48491">
        <ele>1810.2</ele>
        <time>2021-08-10 08:41:35</time>
      </trkpt>
      <trkpt lat="42.83469" lon="-0.4849">
        <ele>1810.2</ele>
        <time>2021-08-10 08:41:36</time>
      </trkpt>
      <trkpt lat="42.83469" lon="-0.48489">
        <ele>1810.6</ele>
        <time>2021-08-10 08:41:37</time>
      </trkpt>
      <trkpt lat="42.8347" lon="-0.48489">
        <ele>1810.6</ele>
        <time>2021-08-10 08:41:38</time>
      </trkpt>
      <trkpt lat="42.8347" lon="-0.48488">
        <ele>1810.8</ele>
        <time>2021-08-10 08:41:39</time>
      </trkpt>
      <trkpt lat="42.83471" lon="-0.48487">
        <ele>1810.6</ele>
        <time>2021-08-10 08:41:40</time>
      </trkpt>
      <trkpt lat="42.83471" lon="-0.48486">
        <ele>1811</ele>
        <time>2021-08-10 08:41:41</time>
      </trkpt>
      <trkpt lat="42.83471" lon="-0.48485">
        <ele>1811</ele>
        <time>2021-08-10 08:41:42</time>
      </trkpt>
      <trkpt lat="42.83472" lon="-0.48484">
        <ele>1811.2</ele>
        <time>2021-08-10 08:41:43</time>
      </trkpt>
      <trkpt lat="42.83472" lon="-0.48483">
        <ele>1811.4</ele>
        <time>2021-08-10 08:41:44</time>
      </trkpt>
      <trkpt lat="42.83472" lon="-0.48482">
        <ele>1811.6</ele>
        <time>2021-08-10 08:41:45</time>
      </trkpt>
      <trkpt lat="42.83472" lon="-0.48482">
        <ele>1811.6</ele>
        <time>2021-08-10 08:41:46</time>
      </trkpt>
      <trkpt lat="42.83472" lon="-0.48481">
        <ele>1811.6</ele>
        <time>2021-08-10 08:41:47</time>
      </trkpt>
      <trkpt lat="42.83473" lon="-0.4848">
        <ele>1811.8</ele>
        <time>2021-08-10 08:41:48</time>
      </trkpt>
      <trkpt lat="42.83473" lon="-0.48479">
        <ele>1812</ele>
        <time>2021-08-10 08:41:50</time>
      </trkpt>
      <trkpt lat="42.83474" lon="-0.48478">
        <ele>1811.8</ele>
      </trkpt>
      <trkpt lat="42.83474" lon="-0.48476">
        <ele>1811.8</ele>
        <time>2021-08-10 08:41:51</time>
      </trkpt>
      <trkpt lat="42.83475" lon="-0.48476">
        <ele>1811.6</ele>
        <time>2021-08-10 08:41:52</time>
      </trkpt>
      <trkpt lat="42.83475" lon="-0.48475">
        <ele>1811.6</ele>
        <time>2021-08-10 08:41:53</time>
      </trkpt>
      <trkpt lat="42.83476" lon="-0.48473">
        <ele>1811.6</ele>
        <time>2021-08-10 08:41:54</time>
      </trkpt>
      <trkpt lat="42.83476" lon="-0.48473">
        <ele>1812</ele>
        <time>2021-08-10 08:41:55</time>
      </trkpt>
      <trkpt lat="42.83476" lon="-0.48473">
        <ele>1812</ele>
        <time>2021-08-10 08:41:56</time>
      </trkpt>
      <trkpt lat="42.83476" lon="-0.48473">
        <ele>1812</ele>
        <time>2021-08-10 08:41:57</time>
      </trkpt>
      <trkpt lat="42.83475" lon="-0.48471">
        <ele>1811.8</ele>
        <time>2021-08-10 08:41:58</time>
      </trkpt>
      <trkpt lat="42.83475" lon="-0.48471">
        <ele>1812</ele>
        <time>2021-08-10 08:41:59</time>
      </trkpt>
      <trkpt lat="42.83475" lon="-0.4847">
        <ele>1811.8</ele>
        <time>2021-08-10 08:42:00</time>
      </trkpt>
      <trkpt lat="42.83476" lon="-0.48469">
        <ele>1812</ele>
        <time>2021-08-10 08:42:01</time>
      </trkpt>
      <trkpt lat="42.83476" lon="-0.48467">
        <ele>1812.2</ele>
        <time>2021-08-10 08:42:02</time>
      </trkpt>
      <trkpt lat="42.83477" lon="-0.48467">
        <ele>1812.2</ele>
        <time>2021-08-10 08:42:03</time>
      </trkpt>
      <trkpt lat="42.83478" lon="-0.48466">
        <ele>1812.2</ele>
        <time>2021-08-10 08:42:04</time>
      </trkpt>
      <trkpt lat="42.83478" lon="-0.48465">
        <ele>1812.2</ele>
        <time>2021-08-10 08:42:05</time>
      </trkpt>
      <trkpt lat="42.83479" lon="-0.48464">
        <ele>1812</ele>
        <time>2021-08-10 08:42:06</time>
      </trkpt>
      <trkpt lat="42.83479" lon="-0.48462">
        <ele>1812.2</ele>
        <time>2021-08-10 08:42:07</time>
      </trkpt>
      <trkpt lat="42.8348" lon="-0.48461">
        <ele>1812.2</ele>
        <time>2021-08-10 08:42:08</time>
      </trkpt>
      <trkpt lat="42.8348" lon="-0.4846">
        <ele>1812.2</ele>
        <time>2021-08-10 08:42:09</time>
      </trkpt>
      <trkpt lat="42.83481" lon="-0.48459">
        <ele>1812.2</ele>
        <time>2021-08-10 08:42:10</time>
      </trkpt>
      <trkpt lat="42.83481" lon="-0.48458">
        <ele>1812</ele>
        <time>2021-08-10 08:42:11</time>
      </trkpt>
      <trkpt lat="42.83481" lon="-0.48457">
        <ele>1812.2</ele>
        <time>2021-08-10 08:42:12</time>
      </trkpt>
      <trkpt lat="42.83482" lon="-0.48455">
        <ele>1812</ele>
        <time>2021-08-10 08:42:13</time>
      </trkpt>
      <trkpt lat="42.83483" lon="-0.48455">
        <ele>1811.8</ele>
        <time>2021-08-10 08:42:14</time>
      </trkpt>
      <trkpt lat="42.83484" lon="-0.48454">
        <ele>1812</ele>
        <time>2021-08-10 08:42:15</time>
      </trkpt>
      <trkpt lat="42.83485" lon="-0.48453">
        <ele>1812</ele>
        <time>2021-08-10 08:42:34</time>
      </trkpt>
      <trkpt lat="42.83485" lon="-0.48451">
        <ele>1812.2</ele>
        <time>2021-08-10 08:42:35</time>
      </trkpt>
      <trkpt lat="42.83487" lon="-0.48451">
        <ele>1812.4</ele>
        <time>2021-08-10 08:42:36</time>
      </trkpt>
      <trkpt lat="42.83488" lon="-0.4845">
        <ele>1812.6</ele>
        <time>2021-08-10 08:42:37</time>
      </trkpt>
      <trkpt lat="42.83488" lon="-0.48449">
        <ele>1812.4</ele>
        <time>2021-08-10 08:42:38</time>
      </trkpt>
      <trkpt lat="42.83489" lon="-0.48448">
        <ele>1812.4</ele>
        <time>2021-08-10 08:42:39</time>
      </trkpt>
      <trkpt lat="42.8349" lon="-0.48447">
        <ele>1812.4</ele>
        <time>2021-08-10 08:42:40</time>
      </trkpt>
      <trkpt lat="42.8349" lon="-0.48446">
        <ele>1812.6</ele>
        <time>2021-08-10 08:42:41</time>
      </trkpt>
      <trkpt lat="42.83491" lon="-0.48445">
        <ele>1812.6</ele>
        <time>2021-08-10 08:42:42</time>
      </trkpt>
      <trkpt lat="42.83492" lon="-0.48444">
        <ele>1812.8</ele>
        <time>2021-08-10 08:42:43</time>
      </trkpt>
      <trkpt lat="42.83492" lon="-0.48443">
        <ele>1812.8</ele>
        <time>2021-08-10 08:42:44</time>
      </trkpt>
      <trkpt lat="42.83493" lon="-0.48442">
        <ele>1812.8</ele>
        <time>2021-08-10 08:42:45</time>
      </trkpt>
      <trkpt lat="42.83494" lon="-0.48441">
        <ele>1813</ele>
        <time>2021-08-10 08:42:46</time>
      </trkpt>
      <trkpt lat="42.83495" lon="-0.4844">
        <ele>1813</ele>
        <time>2021-08-10 08:42:47</time>
      </trkpt>
      <trkpt lat="42.83495" lon="-0.48439">
        <ele>1813</ele>
        <time>2021-08-10 08:42:48</time>
      </trkpt>
      <trkpt lat="42.83496" lon="-0.48438">
        <ele>1813</ele>
        <time>2021-08-10 08:42:49</time>
      </trkpt>
      <trkpt lat="42.83497" lon="-0.48437">
        <ele>1813</ele>
        <time>2021-08-10 08:42:50</time>
      </trkpt>
      <trkpt lat="42.83498" lon="-0.48436">
        <ele>1813.4</ele>
        <time>2021-08-10 08:42:51</time>
      </trkpt>
      <trkpt lat="42.83498" lon="-0.48435">
        <ele>1813.4</ele>
        <time>2021-08-10 08:42:52</time>
      </trkpt>
      <trkpt lat="42.83499" lon="-0.48434">
        <ele>1813.4</ele>
        <time>2021-08-10 08:42:53</time>
      </trkpt>
      <trkpt lat="42.835" lon="-0.48433">
        <ele>1813.4</ele>
        <time>2021-08-10 08:42:54</time>
      </trkpt>
      <trkpt lat="42.83501" lon="-0.48433">
        <ele>1813.4</ele>
        <time>2021-08-10 08:42:55</time>
      </trkpt>
      <trkpt lat="42.83502" lon="-0.48432">
        <ele>1813.6</ele>
        <time>2021-08-10 08:42:56</time>
      </trkpt>
      <trkpt lat="42.83503" lon="-0.48432">
        <ele>1813.8</ele>
        <time>2021-08-10 08:42:57</time>
      </trkpt>
      <trkpt lat="42.83503" lon="-0.48431">
        <ele>1814</ele>
        <time>2021-08-10 08:42:58</time>
      </trkpt>
      <trkpt lat="42.83503" lon="-0.4843">
        <ele>1814.2</ele>
        <time>2021-08-10 08:42:59</time>
      </trkpt>
      <trkpt lat="42.83504" lon="-0.48429">
        <ele>1814.4</ele>
        <time>2021-08-10 08:43:00</time>
      </trkpt>
      <trkpt lat="42.83505" lon="-0.48428">
        <ele>1814.4</ele>
        <time>2021-08-10 08:43:01</time>
      </trkpt>
      <trkpt lat="42.83505" lon="-0.48427">
        <ele>1814.6</ele>
        <time>2021-08-10 08:43:02</time>
      </trkpt>
      <trkpt lat="42.83506" lon="-0.48426">
        <ele>1814.8</ele>
        <time>2021-08-10 08:43:03</time>
      </trkpt>
      <trkpt lat="42.83507" lon="-0.48425">
        <ele>1814.8</ele>
        <time>2021-08-10 08:43:04</time>
      </trkpt>
      <trkpt lat="42.83507" lon="-0.48424">
        <ele>1815</ele>
        <time>2021-08-10 08:43:05</time>
      </trkpt>
      <trkpt lat="42.83508" lon="-0.48424">
        <ele>1815.2</ele>
        <time>2021-08-10 08:43:06</time>
      </trkpt>
      <trkpt lat="42.83509" lon="-0.48423">
        <ele>1815.4</ele>
        <time>2021-08-10 08:43:07</time>
      </trkpt>
      <trkpt lat="42.8351" lon="-0.48422">
        <ele>1815.4</ele>
        <time>2021-08-10 08:43:08</time>
      </trkpt>
      <trkpt lat="42.8351" lon="-0.48422">
        <ele>1815.4</ele>
        <time>2021-08-10 08:43:09</time>
      </trkpt>
      <trkpt lat="42.83511" lon="-0.48421">
        <ele>1815.6</ele>
        <time>2021-08-10 08:43:10</time>
      </trkpt>
      <trkpt lat="42.83512" lon="-0.4842">
        <ele>1816</ele>
        <time>2021-08-10 08:43:11</time>
      </trkpt>
      <trkpt lat="42.83512" lon="-0.48419">
        <ele>1816</ele>
        <time>2021-08-10 08:43:12</time>
      </trkpt>
      <trkpt lat="42.83512" lon="-0.48418">
        <ele>1816.2</ele>
        <time>2021-08-10 08:43:13</time>
      </trkpt>
      <trkpt lat="42.83513" lon="-0.48418">
        <ele>1816.4</ele>
        <time>2021-08-10 08:43:14</time>
      </trkpt>
      <trkpt lat="42.83513" lon="-0.48417">
        <ele>1816.8</ele>
        <time>2021-08-10 08:43:15</time>
      </trkpt>
      <trkpt lat="42.83513" lon="-0.48416">
        <ele>1817</ele>
        <time>2021-08-10 08:43:16</time>
      </trkpt>
      <trkpt lat="42.83514" lon="-0.48415">
        <ele>1817.2</ele>
        <time>2021-08-10 08:43:17</time>
      </trkpt>
      <trkpt lat="42.83514" lon="-0.48414">
        <ele>1817.2</ele>
        <time>2021-08-10 08:43:18</time>
      </trkpt>
      <trkpt lat="42.83515" lon="-0.48414">
        <ele>1817.2</ele>
        <time>2021-08-10 08:43:19</time>
      </trkpt>
      <trkpt lat="42.83516" lon="-0.48413">
        <ele>1817.2</ele>
        <time>2021-08-10 08:43:20</time>
      </trkpt>
      <trkpt lat="42.83516" lon="-0.48412">
        <ele>1817.4</ele>
        <time>2021-08-10 08:43:21</time>
      </trkpt>
      <trkpt lat="42.83517" lon="-0.48411">
        <ele>1817.6</ele>
        <time>2021-08-10 08:43:22</time>
      </trkpt>
      <trkpt lat="42.83517" lon="-0.4841">
        <ele>1817.6</ele>
        <time>2021-08-10 08:43:23</time>
      </trkpt>
      <trkpt lat="42.83518" lon="-0.48409">
        <ele>1818.2</ele>
        <time>2021-08-10 08:43:24</time>
      </trkpt>
      <trkpt lat="42.83518" lon="-0.48408">
        <ele>1818</ele>
        <time>2021-08-10 08:43:25</time>
      </trkpt>
      <trkpt lat="42.83519" lon="-0.48407">
        <ele>1818</ele>
        <time>2021-08-10 08:43:26</time>
      </trkpt>
      <trkpt lat="42.8352" lon="-0.48406">
        <ele>1817.8</ele>
        <time>2021-08-10 08:43:27</time>
      </trkpt>
      <trkpt lat="42.8352" lon="-0.48405">
        <ele>1817.8</ele>
        <time>2021-08-10 08:43:28</time>
      </trkpt>
      <trkpt lat="42.83521" lon="-0.48404">
        <ele>1818</ele>
        <time>2021-08-10 08:43:29</time>
      </trkpt>
      <trkpt lat="42.83522" lon="-0.48403">
        <ele>1818.2</ele>
        <time>2021-08-10 08:43:30</time>
      </trkpt>
      <trkpt lat="42.83523" lon="-0.48403">
        <ele>1818.2</ele>
        <time>2021-08-10 08:43:31</time>
      </trkpt>
      <trkpt lat="42.83524" lon="-0.48402">
        <ele>1818.4</ele>
        <time>2021-08-10 08:43:32</time>
      </trkpt>
      <trkpt lat="42.83525" lon="-0.48402">
        <ele>1818.2</ele>
        <time>2021-08-10 08:43:33</time>
      </trkpt>
      <trkpt lat="42.83526" lon="-0.48401">
        <ele>1818</ele>
        <time>2021-08-10 08:43:34</time>
      </trkpt>
      <trkpt lat="42.83526" lon="-0.48401">
        <ele>1818.2</ele>
        <time>2021-08-10 08:43:35</time>
      </trkpt>
      <trkpt lat="42.83528" lon="-0.484">
        <ele>1818.2</ele>
        <time>2021-08-10 08:43:36</time>
      </trkpt>
      <trkpt lat="42.83528" lon="-0.48399">
        <ele>1818.4</ele>
        <time>2021-08-10 08:43:37</time>
      </trkpt>
      <trkpt lat="42.83529" lon="-0.48398">
        <ele>1818.6</ele>
        <time>2021-08-10 08:43:38</time>
      </trkpt>
      <trkpt lat="42.83529" lon="-0.48397">
        <ele>1818.6</ele>
        <time>2021-08-10 08:43:39</time>
      </trkpt>
      <trkpt lat="42.83529" lon="-0.48396">
        <ele>1818.8</ele>
        <time>2021-08-10 08:43:40</time>
      </trkpt>
      <trkpt lat="42.8353" lon="-0.48395">
        <ele>1819</ele>
        <time>2021-08-10 08:43:41</time>
      </trkpt>
      <trkpt lat="42.83531" lon="-0.48395">
        <ele>1819.2</ele>
        <time>2021-08-10 08:43:42</time>
      </trkpt>
      <trkpt lat="42.83531" lon="-0.48394">
        <ele>1819.6</ele>
        <time>2021-08-10 08:43:43</time>
      </trkpt>
      <trkpt lat="42.83532" lon="-0.48393">
        <ele>1819.8</ele>
        <time>2021-08-10 08:43:44</time>
      </trkpt>
      <trkpt lat="42.83532" lon="-0.48393">
        <ele>1819.8</ele>
        <time>2021-08-10 08:43:45</time>
      </trkpt>
      <trkpt lat="42.83533" lon="-0.48392">
        <ele>1820</ele>
        <time>2021-08-10 08:43:46</time>
      </trkpt>
      <trkpt lat="42.83534" lon="-0.48392">
        <ele>1820</ele>
        <time>2021-08-10 08:43:47</time>
      </trkpt>
      <trkpt lat="42.83535" lon="-0.48392">
        <ele>1820.2</ele>
        <time>2021-08-10 08:43:48</time>
      </trkpt>
      <trkpt lat="42.83535" lon="-0.48392">
        <ele>1820.4</ele>
        <time>2021-08-10 08:43:49</time>
      </trkpt>
      <trkpt lat="42.83536" lon="-0.48391">
        <ele>1820.6</ele>
        <time>2021-08-10 08:43:50</time>
      </trkpt>
      <trkpt lat="42.83537" lon="-0.48391">
        <ele>1820.8</ele>
        <time>2021-08-10 08:43:51</time>
      </trkpt>
      <trkpt lat="42.83538" lon="-0.48391">
        <ele>1821</ele>
        <time>2021-08-10 08:43:52</time>
      </trkpt>
      <trkpt lat="42.83539" lon="-0.4839">
        <ele>1821</ele>
        <time>2021-08-10 08:43:53</time>
      </trkpt>
      <trkpt lat="42.83539" lon="-0.48389">
        <ele>1821.2</ele>
        <time>2021-08-10 08:43:54</time>
      </trkpt>
      <trkpt lat="42.8354" lon="-0.48388">
        <ele>1821.6</ele>
        <time>2021-08-10 08:43:55</time>
      </trkpt>
      <trkpt lat="42.83541" lon="-0.48388">
        <ele>1821.6</ele>
        <time>2021-08-10 08:43:56</time>
      </trkpt>
      <trkpt lat="42.83542" lon="-0.48388">
        <ele>1821.8</ele>
        <time>2021-08-10 08:43:57</time>
      </trkpt>
      <trkpt lat="42.83543" lon="-0.48388">
        <ele>1821.8</ele>
        <time>2021-08-10 08:43:58</time>
      </trkpt>
      <trkpt lat="42.83543" lon="-0.48388">
        <ele>1822.2</ele>
        <time>2021-08-10 08:43:59</time>
      </trkpt>
      <trkpt lat="42.83544" lon="-0.48388">
        <ele>1822.4</ele>
        <time>2021-08-10 08:44:00</time>
      </trkpt>
      <trkpt lat="42.83545" lon="-0.48387">
        <ele>1822.6</ele>
        <time>2021-08-10 08:44:01</time>
      </trkpt>
      <trkpt lat="42.83545" lon="-0.48386">
        <ele>1822.6</ele>
        <time>2021-08-10 08:44:02</time>
      </trkpt>
      <trkpt lat="42.83546" lon="-0.48385">
        <ele>1822.6</ele>
        <time>2021-08-10 08:44:03</time>
      </trkpt>
      <trkpt lat="42.83547" lon="-0.48384">
        <ele>1822.8</ele>
        <time>2021-08-10 08:44:04</time>
      </trkpt>
      <trkpt lat="42.83548" lon="-0.48384">
        <ele>1822.8</ele>
        <time>2021-08-10 08:44:05</time>
      </trkpt>
      <trkpt lat="42.83549" lon="-0.48383">
        <ele>1823</ele>
        <time>2021-08-10 08:44:06</time>
      </trkpt>
      <trkpt lat="42.8355" lon="-0.48382">
        <ele>1823</ele>
        <time>2021-08-10 08:44:07</time>
      </trkpt>
      <trkpt lat="42.8355" lon="-0.48382">
        <ele>1822.8</ele>
        <time>2021-08-10 08:44:08</time>
      </trkpt>
      <trkpt lat="42.83551" lon="-0.48381">
        <ele>1822.8</ele>
        <time>2021-08-10 08:44:09</time>
      </trkpt>
      <trkpt lat="42.83552" lon="-0.48381">
        <ele>1823.2</ele>
        <time>2021-08-10 08:44:10</time>
      </trkpt>
      <trkpt lat="42.83553" lon="-0.4838">
        <ele>1823</ele>
        <time>2021-08-10 08:44:11</time>
      </trkpt>
      <trkpt lat="42.83554" lon="-0.4838">
        <ele>1823.2</ele>
        <time>2021-08-10 08:44:12</time>
      </trkpt>
      <trkpt lat="42.83555" lon="-0.48379">
        <ele>1823.4</ele>
        <time>2021-08-10 08:44:13</time>
      </trkpt>
      <trkpt lat="42.83556" lon="-0.48378">
        <ele>1823.6</ele>
        <time>2021-08-10 08:44:14</time>
      </trkpt>
      <trkpt lat="42.83557" lon="-0.48378">
        <ele>1823.8</ele>
        <time>2021-08-10 08:44:15</time>
      </trkpt>
      <trkpt lat="42.83558" lon="-0.48377">
        <ele>1824</ele>
        <time>2021-08-10 08:44:16</time>
      </trkpt>
      <trkpt lat="42.83558" lon="-0.48377">
        <ele>1823.8</ele>
        <time>2021-08-10 08:44:17</time>
      </trkpt>
      <trkpt lat="42.83559" lon="-0.48376">
        <ele>1824</ele>
        <time>2021-08-10 08:44:18</time>
      </trkpt>
      <trkpt lat="42.8356" lon="-0.48376">
        <ele>1824.2</ele>
        <time>2021-08-10 08:44:19</time>
      </trkpt>
      <trkpt lat="42.83561" lon="-0.48375">
        <ele>1824.4</ele>
        <time>2021-08-10 08:44:20</time>
      </trkpt>
      <trkpt lat="42.83562" lon="-0.48375">
        <ele>1824.2</ele>
        <time>2021-08-10 08:44:21</time>
      </trkpt>
      <trkpt lat="42.83563" lon="-0.48374">
        <ele>1824.4</ele>
        <time>2021-08-10 08:44:22</time>
      </trkpt>
      <trkpt lat="42.83563" lon="-0.48373">
        <ele>1824.8</ele>
        <time>2021-08-10 08:44:23</time>
      </trkpt>
      <trkpt lat="42.83564" lon="-0.48372">
        <ele>1824.8</ele>
        <time>2021-08-10 08:44:24</time>
      </trkpt>
      <trkpt lat="42.83565" lon="-0.48371">
        <ele>1824.8</ele>
        <time>2021-08-10 08:44:25</time>
      </trkpt>
      <trkpt lat="42.83566" lon="-0.48371">
        <ele>1824.8</ele>
        <time>2021-08-10 08:44:26</time>
      </trkpt>
      <trkpt lat="42.83566" lon="-0.4837">
        <ele>1825</ele>
        <time>2021-08-10 08:44:27</time>
      </trkpt>
      <trkpt lat="42.83567" lon="-0.48369">
        <ele>1825</ele>
        <time>2021-08-10 08:44:28</time>
      </trkpt>
      <trkpt lat="42.83567" lon="-0.48368">
        <ele>1825</ele>
        <time>2021-08-10 08:44:29</time>
      </trkpt>
      <trkpt lat="42.83568" lon="-0.48368">
        <ele>1825</ele>
        <time>2021-08-10 08:44:30</time>
      </trkpt>
      <trkpt lat="42.83569" lon="-0.48367">
        <ele>1825</ele>
        <time>2021-08-10 08:44:31</time>
      </trkpt>
      <trkpt lat="42.83569" lon="-0.48366">
        <ele>1825</ele>
        <time>2021-08-10 08:44:32</time>
      </trkpt>
      <trkpt lat="42.83571" lon="-0.48365">
        <ele>1825</ele>
        <time>2021-08-10 08:44:33</time>
      </trkpt>
      <trkpt lat="42.83571" lon="-0.48365">
        <ele>1825</ele>
        <time>2021-08-10 08:44:34</time>
      </trkpt>
      <trkpt lat="42.83572" lon="-0.48364">
        <ele>1825</ele>
        <time>2021-08-10 08:44:35</time>
      </trkpt>
      <trkpt lat="42.83573" lon="-0.48363">
        <ele>1825</ele>
        <time>2021-08-10 08:44:36</time>
      </trkpt>
      <trkpt lat="42.83574" lon="-0.48363">
        <ele>1824.8</ele>
        <time>2021-08-10 08:44:37</time>
      </trkpt>
      <trkpt lat="42.83575" lon="-0.48362">
        <ele>1825</ele>
        <time>2021-08-10 08:44:38</time>
      </trkpt>
      <trkpt lat="42.83576" lon="-0.48361">
        <ele>1825</ele>
        <time>2021-08-10 08:44:39</time>
      </trkpt>
      <trkpt lat="42.83577" lon="-0.48361">
        <ele>1825</ele>
        <time>2021-08-10 08:44:40</time>
      </trkpt>
      <trkpt lat="42.83577" lon="-0.4836">
        <ele>1825.4</ele>
        <time>2021-08-10 08:44:41</time>
      </trkpt>
      <trkpt lat="42.83578" lon="-0.48359">
        <ele>1825.2</ele>
        <time>2021-08-10 08:44:42</time>
      </trkpt>
      <trkpt lat="42.83578" lon="-0.48357">
        <ele>1825.4</ele>
        <time>2021-08-10 08:44:43</time>
      </trkpt>
      <trkpt lat="42.83579" lon="-0.48357">
        <ele>1825.4</ele>
        <time>2021-08-10 08:44:44</time>
      </trkpt>
      <trkpt lat="42.83579" lon="-0.48356">
        <ele>1825.4</ele>
        <time>2021-08-10 08:44:45</time>
      </trkpt>
      <trkpt lat="42.8358" lon="-0.48355">
        <ele>1825.2</ele>
        <time>2021-08-10 08:44:46</time>
      </trkpt>
      <trkpt lat="42.8358" lon="-0.48354">
        <ele>1825</ele>
        <time>2021-08-10 08:44:47</time>
      </trkpt>
      <trkpt lat="42.83581" lon="-0.48353">
        <ele>1825</ele>
        <time>2021-08-10 08:44:48</time>
      </trkpt>
      <trkpt lat="42.83581" lon="-0.48352">
        <ele>1825</ele>
        <time>2021-08-10 08:44:49</time>
      </trkpt>
      <trkpt lat="42.83581" lon="-0.4835">
        <ele>1825</ele>
        <time>2021-08-10 08:44:50</time>
      </trkpt>
      <trkpt lat="42.83582" lon="-0.4835">
        <ele>1825</ele>
        <time>2021-08-10 08:44:51</time>
      </trkpt>
      <trkpt lat="42.83582" lon="-0.48349">
        <ele>1825</ele>
        <time>2021-08-10 08:44:52</time>
      </trkpt>
      <trkpt lat="42.83583" lon="-0.48348">
        <ele>1825.2</ele>
        <time>2021-08-10 08:44:53</time>
      </trkpt>
      <trkpt lat="42.83583" lon="-0.48348">
        <ele>1825</ele>
        <time>2021-08-10 08:44:54</time>
      </trkpt>
      <trkpt lat="42.83584" lon="-0.48347">
        <ele>1824.8</ele>
        <time>2021-08-10 08:44:55</time>
      </trkpt>
      <trkpt lat="42.83584" lon="-0.48346">
        <ele>1824.4</ele>
        <time>2021-08-10 08:44:56</time>
      </trkpt>
      <trkpt lat="42.83584" lon="-0.48345">
        <ele>1824.4</ele>
        <time>2021-08-10 08:44:57</time>
      </trkpt>
      <trkpt lat="42.83584" lon="-0.48345">
        <ele>1824.4</ele>
        <time>2021-08-10 08:44:58</time>
      </trkpt>
      <trkpt lat="42.83585" lon="-0.48344">
        <ele>1824.4</ele>
        <time>2021-08-10 08:44:59</time>
      </trkpt>
      <trkpt lat="42.83585" lon="-0.48343">
        <ele>1824.4</ele>
        <time>2021-08-10 08:45:00</time>
      </trkpt>
      <trkpt lat="42.83585" lon="-0.48342">
        <ele>1824</ele>
        <time>2021-08-10 08:45:01</time>
      </trkpt>
      <trkpt lat="42.83585" lon="-0.48341">
        <ele>1824</ele>
        <time>2021-08-10 08:45:02</time>
      </trkpt>
      <trkpt lat="42.83586" lon="-0.4834">
        <ele>1823.8</ele>
        <time>2021-08-10 08:45:03</time>
      </trkpt>
      <trkpt lat="42.83586" lon="-0.48339">
        <ele>1824</ele>
        <time>2021-08-10 08:45:04</time>
      </trkpt>
      <trkpt lat="42.83587" lon="-0.48339">
        <ele>1823.8</ele>
        <time>2021-08-10 08:45:05</time>
      </trkpt>
      <trkpt lat="42.83587" lon="-0.48339">
        <ele>1823.8</ele>
        <time>2021-08-10 08:45:06</time>
      </trkpt>
      <trkpt lat="42.83588" lon="-0.48338">
        <ele>1823.6</ele>
        <time>2021-08-10 08:45:07</time>
      </trkpt>
      <trkpt lat="42.83588" lon="-0.48337">
        <ele>1823.4</ele>
        <time>2021-08-10 08:45:08</time>
      </trkpt>
      <trkpt lat="42.83589" lon="-0.48337">
        <ele>1823.4</ele>
        <time>2021-08-10 08:45:09</time>
      </trkpt>
      <trkpt lat="42.83589" lon="-0.48336">
        <ele>1823</ele>
        <time>2021-08-10 08:45:10</time>
      </trkpt>
      <trkpt lat="42.8359" lon="-0.48336">
        <ele>1823</ele>
        <time>2021-08-10 08:45:11</time>
      </trkpt>
      <trkpt lat="42.83591" lon="-0.48335">
        <ele>1823</ele>
        <time>2021-08-10 08:45:12</time>
      </trkpt>
      <trkpt lat="42.83591" lon="-0.48335">
        <ele>1823</ele>
        <time>2021-08-10 08:45:13</time>
      </trkpt>
      <trkpt lat="42.83592" lon="-0.48334">
        <ele>1822.8</ele>
        <time>2021-08-10 08:45:14</time>
      </trkpt>
      <trkpt lat="42.83592" lon="-0.48334">
        <ele>1822.6</ele>
        <time>2021-08-10 08:45:15</time>
      </trkpt>
      <trkpt lat="42.83593" lon="-0.48333">
        <ele>1822.4</ele>
        <time>2021-08-10 08:45:16</time>
      </trkpt>
      <trkpt lat="42.83593" lon="-0.48333">
        <ele>1822.4</ele>
        <time>2021-08-10 08:45:17</time>
      </trkpt>
      <trkpt lat="42.83594" lon="-0.48333">
        <ele>1822.2</ele>
        <time>2021-08-10 08:45:18</time>
      </trkpt>
      <trkpt lat="42.83594" lon="-0.48333">
        <ele>1821.8</ele>
        <time>2021-08-10 08:45:19</time>
      </trkpt>
      <trkpt lat="42.83595" lon="-0.48332">
        <ele>1821.6</ele>
        <time>2021-08-10 08:45:20</time>
      </trkpt>
      <trkpt lat="42.83595" lon="-0.48332">
        <ele>1821.4</ele>
        <time>2021-08-10 08:45:21</time>
      </trkpt>
      <trkpt lat="42.83595" lon="-0.4833">
        <ele>1821.4</ele>
        <time>2021-08-10 08:45:22</time>
      </trkpt>
      <trkpt lat="42.83596" lon="-0.4833">
        <ele>1821.4</ele>
        <time>2021-08-10 08:45:23</time>
      </trkpt>
      <trkpt lat="42.83596" lon="-0.4833">
        <ele>1821.4</ele>
        <time>2021-08-10 08:45:24</time>
      </trkpt>
      <trkpt lat="42.83596" lon="-0.48329">
        <ele>1821.2</ele>
        <time>2021-08-10 08:45:25</time>
      </trkpt>
      <trkpt lat="42.83597" lon="-0.48329">
        <ele>1821.2</ele>
        <time>2021-08-10 08:45:26</time>
      </trkpt>
      <trkpt lat="42.83597" lon="-0.48328">
        <ele>1821</ele>
        <time>2021-08-10 08:45:27</time>
      </trkpt>
      <trkpt lat="42.83597" lon="-0.48329">
        <ele>1821.2</ele>
        <time>2021-08-10 08:45:28</time>
      </trkpt>
      <trkpt lat="42.83598" lon="-0.48328">
        <ele>1821.2</ele>
        <time>2021-08-10 08:45:29</time>
      </trkpt>
      <trkpt lat="42.83598" lon="-0.48328">
        <ele>1821</ele>
        <time>2021-08-10 08:45:30</time>
      </trkpt>
      <trkpt lat="42.83598" lon="-0.48327">
        <ele>1820.8</ele>
        <time>2021-08-10 08:45:31</time>
      </trkpt>
      <trkpt lat="42.83599" lon="-0.48327">
        <ele>1820.6</ele>
        <time>2021-08-10 08:45:32</time>
      </trkpt>
      <trkpt lat="42.83599" lon="-0.48326">
        <ele>1820.6</ele>
        <time>2021-08-10 08:45:33</time>
      </trkpt>
      <trkpt lat="42.83599" lon="-0.48326">
        <ele>1820.4</ele>
        <time>2021-08-10 08:45:34</time>
      </trkpt>
      <trkpt lat="42.83599" lon="-0.48326">
        <ele>1820.4</ele>
        <time>2021-08-10 08:45:35</time>
      </trkpt>
      <trkpt lat="42.83599" lon="-0.48326">
        <ele>1820.4</ele>
        <time>2021-08-10 08:45:36</time>
      </trkpt>
      <trkpt lat="42.836" lon="-0.48326">
        <ele>1820.2</ele>
        <time>2021-08-10 08:45:37</time>
      </trkpt>
      <trkpt lat="42.836" lon="-0.48326">
        <ele>1820.2</ele>
        <time>2021-08-10 08:45:38</time>
      </trkpt>
      <trkpt lat="42.836" lon="-0.48325">
        <ele>1820.2</ele>
        <time>2021-08-10 08:45:39</time>
      </trkpt>
      <trkpt lat="42.83601" lon="-0.48325">
        <ele>1820.2</ele>
        <time>2021-08-10 08:45:40</time>
      </trkpt>
      <trkpt lat="42.83601" lon="-0.48325">
        <ele>1820.2</ele>
        <time>2021-08-10 08:45:41</time>
      </trkpt>
      <trkpt lat="42.83601" lon="-0.48324">
        <ele>1820</ele>
        <time>2021-08-10 08:45:42</time>
      </trkpt>
      <trkpt lat="42.83602" lon="-0.48324">
        <ele>1820</ele>
        <time>2021-08-10 08:45:43</time>
      </trkpt>
      <trkpt lat="42.83603" lon="-0.48323">
        <ele>1819.8</ele>
        <time>2021-08-10 08:45:44</time>
      </trkpt>
      <trkpt lat="42.83603" lon="-0.48323">
        <ele>1819.8</ele>
        <time>2021-08-10 08:45:45</time>
      </trkpt>
      <trkpt lat="42.83604" lon="-0.48323">
        <ele>1819.8</ele>
        <time>2021-08-10 08:45:46</time>
      </trkpt>
      <trkpt lat="42.83604" lon="-0.48322">
        <ele>1819.8</ele>
        <time>2021-08-10 08:45:47</time>
      </trkpt>
      <trkpt lat="42.83605" lon="-0.48322">
        <ele>1819.6</ele>
        <time>2021-08-10 08:45:48</time>
      </trkpt>
      <trkpt lat="42.83605" lon="-0.48322">
        <ele>1819.6</ele>
        <time>2021-08-10 08:45:50</time>
      </trkpt>
      <trkpt lat="42.83606" lon="-0.48321">
        <ele>1819.4</ele>
        <time>2021-08-10 08:45:51</time>
      </trkpt>
      <trkpt lat="42.83606" lon="-0.48321">
        <ele>1819.2</ele>
        <time>2021-08-10 08:45:52</time>
      </trkpt>
      <trkpt lat="42.83606" lon="-0.4832">
        <ele>1819</ele>
        <time>2021-08-10 08:45:53</time>
      </trkpt>
      <trkpt lat="42.83607" lon="-0.4832">
        <ele>1819</ele>
        <time>2021-08-10 08:45:54</time>
      </trkpt>
      <trkpt lat="42.83607" lon="-0.48319">
        <ele>1819</ele>
        <time>2021-08-10 08:45:55</time>
      </trkpt>
      <trkpt lat="42.83607" lon="-0.48319">
        <ele>1818.8</ele>
        <time>2021-08-10 08:45:56</time>
      </trkpt>
      <trkpt lat="42.83607" lon="-0.48319">
        <ele>1818.6</ele>
        <time>2021-08-10 08:45:57</time>
      </trkpt>
      <trkpt lat="42.83607" lon="-0.48319">
        <ele>1818.8</ele>
        <time>2021-08-10 08:45:58</time>
      </trkpt>
      <trkpt lat="42.83608" lon="-0.48319">
        <ele>1818.8</ele>
        <time>2021-08-10 08:45:59</time>
      </trkpt>
      <trkpt lat="42.83608" lon="-0.48319">
        <ele>1818.6</ele>
        <time>2021-08-10 08:46:00</time>
      </trkpt>
      <trkpt lat="42.83608" lon="-0.48319">
        <ele>1818.4</ele>
        <time>2021-08-10 08:46:01</time>
      </trkpt>
      <trkpt lat="42.83609" lon="-0.48319">
        <ele>1818.2</ele>
        <time>2021-08-10 08:46:02</time>
      </trkpt>
      <trkpt lat="42.83609" lon="-0.48318">
        <ele>1818</ele>
        <time>2021-08-10 08:46:03</time>
      </trkpt>
      <trkpt lat="42.8361" lon="-0.48318">
        <ele>1818</ele>
        <time>2021-08-10 08:46:04</time>
      </trkpt>
      <trkpt lat="42.8361" lon="-0.48317">
        <ele>1817.8</ele>
        <time>2021-08-10 08:46:05</time>
      </trkpt>
      <trkpt lat="42.8361" lon="-0.48317">
        <ele>1817.8</ele>
        <time>2021-08-10 08:46:06</time>
      </trkpt>
      <trkpt lat="42.83611" lon="-0.48316">
        <ele>1817.6</ele>
        <time>2021-08-10 08:46:07</time>
      </trkpt>
      <trkpt lat="42.83611" lon="-0.48316">
        <ele>1817.6</ele>
        <time>2021-08-10 08:46:08</time>
      </trkpt>
      <trkpt lat="42.83611" lon="-0.48315">
        <ele>1817.4</ele>
        <time>2021-08-10 08:46:09</time>
      </trkpt>
      <trkpt lat="42.83611" lon="-0.48315">
        <ele>1817</ele>
        <time>2021-08-10 08:46:10</time>
      </trkpt>
      <trkpt lat="42.83611" lon="-0.48314">
        <ele>1816.8</ele>
        <time>2021-08-10 08:46:11</time>
      </trkpt>
      <trkpt lat="42.83611" lon="-0.48313">
        <ele>1816.8</ele>
        <time>2021-08-10 08:46:12</time>
      </trkpt>
      <trkpt lat="42.83611" lon="-0.48313">
        <ele>1816.6</ele>
        <time>2021-08-10 08:46:13</time>
      </trkpt>
      <trkpt lat="42.83611" lon="-0.48312">
        <ele>1816.4</ele>
        <time>2021-08-10 08:46:14</time>
      </trkpt>
      <trkpt lat="42.83611" lon="-0.48311">
        <ele>1816.4</ele>
        <time>2021-08-10 08:46:15</time>
      </trkpt>
      <trkpt lat="42.83611" lon="-0.48311">
        <ele>1816.2</ele>
        <time>2021-08-10 08:46:25</time>
      </trkpt>
      <trkpt lat="42.83611" lon="-0.4831">
        <ele>1816</ele>
        <time>2021-08-10 08:46:26</time>
      </trkpt>
      <trkpt lat="42.8361" lon="-0.48309">
        <ele>1815.8</ele>
        <time>2021-08-10 08:46:27</time>
      </trkpt>
      <trkpt lat="42.8361" lon="-0.48309">
        <ele>1815.6</ele>
        <time>2021-08-10 08:46:28</time>
      </trkpt>
      <trkpt lat="42.8361" lon="-0.48308">
        <ele>1815.6</ele>
        <time>2021-08-10 08:46:29</time>
      </trkpt>
      <trkpt lat="42.8361" lon="-0.48308">
        <ele>1815.4</ele>
        <time>2021-08-10 08:46:30</time>
      </trkpt>
      <trkpt lat="42.8361" lon="-0.48307">
        <ele>1815.2</ele>
        <time>2021-08-10 08:46:31</time>
      </trkpt>
      <trkpt lat="42.8361" lon="-0.48306">
        <ele>1815.2</ele>
        <time>2021-08-10 08:46:32</time>
      </trkpt>
      <trkpt lat="42.83609" lon="-0.48306">
        <ele>1814.8</ele>
        <time>2021-08-10 08:46:33</time>
      </trkpt>
      <trkpt lat="42.83609" lon="-0.48305">
        <ele>1814.8</ele>
        <time>2021-08-10 08:46:34</time>
      </trkpt>
      <trkpt lat="42.83609" lon="-0.48305">
        <ele>1814.8</ele>
        <time>2021-08-10 08:46:35</time>
      </trkpt>
      <trkpt lat="42.83609" lon="-0.48305">
        <ele>1814.8</ele>
        <time>2021-08-10 08:46:36</time>
      </trkpt>
      <trkpt lat="42.83608" lon="-0.48304">
        <ele>1814.8</ele>
        <time>2021-08-10 08:46:37</time>
      </trkpt>
      <trkpt lat="42.83608" lon="-0.48304">
        <ele>1814.4</ele>
        <time>2021-08-10 08:46:38</time>
      </trkpt>
      <trkpt lat="42.83608" lon="-0.48304">
        <ele>1814.4</ele>
        <time>2021-08-10 08:46:39</time>
      </trkpt>
      <trkpt lat="42.83608" lon="-0.48303">
        <ele>1814.2</ele>
        <time>2021-08-10 08:46:40</time>
      </trkpt>
      <trkpt lat="42.83607" lon="-0.48303">
        <ele>1814.2</ele>
        <time>2021-08-10 08:46:41</time>
      </trkpt>
      <trkpt lat="42.83607" lon="-0.48302">
        <ele>1814</ele>
        <time>2021-08-10 08:46:42</time>
      </trkpt>
      <trkpt lat="42.83607" lon="-0.48302">
        <ele>1813.8</ele>
        <time>2021-08-10 08:46:43</time>
      </trkpt>
      <trkpt lat="42.83607" lon="-0.48301">
        <ele>1813.6</ele>
        <time>2021-08-10 08:46:44</time>
      </trkpt>
      <trkpt lat="42.83608" lon="-0.48301">
        <ele>1813.6</ele>
        <time>2021-08-10 08:46:45</time>
      </trkpt>
      <trkpt lat="42.83608" lon="-0.48301">
        <ele>1813.6</ele>
        <time>2021-08-10 08:46:46</time>
      </trkpt>
      <trkpt lat="42.83608" lon="-0.483">
        <ele>1813.6</ele>
        <time>2021-08-10 08:46:47</time>
      </trkpt>
      <trkpt lat="42.83609" lon="-0.483">
        <ele>1813.4</ele>
        <time>2021-08-10 08:46:48</time>
      </trkpt>
      <trkpt lat="42.83608" lon="-0.483">
        <ele>1813.2</ele>
        <time>2021-08-10 08:46:49</time>
      </trkpt>
      <trkpt lat="42.83608" lon="-0.483">
        <ele>1813</ele>
        <time>2021-08-10 08:46:50</time>
      </trkpt>
      <trkpt lat="42.83608" lon="-0.48299">
        <ele>1812.6</ele>
        <time>2021-08-10 08:46:51</time>
      </trkpt>
      <trkpt lat="42.83608" lon="-0.48299">
        <ele>1812.6</ele>
        <time>2021-08-10 08:46:52</time>
      </trkpt>
      <trkpt lat="42.83607" lon="-0.48299">
        <ele>1812.6</ele>
        <time>2021-08-10 08:46:53</time>
      </trkpt>
      <trkpt lat="42.83607" lon="-0.48299">
        <ele>1812.6</ele>
        <time>2021-08-10 08:46:54</time>
      </trkpt>
      <trkpt lat="42.83607" lon="-0.48298">
        <ele>1812.6</ele>
        <time>2021-08-10 08:46:55</time>
      </trkpt>
      <trkpt lat="42.83607" lon="-0.48298">
        <ele>1812.2</ele>
        <time>2021-08-10 08:46:56</time>
      </trkpt>
      <trkpt lat="42.83607" lon="-0.48297">
        <ele>1812</ele>
        <time>2021-08-10 08:46:57</time>
      </trkpt>
      <trkpt lat="42.83606" lon="-0.48297">
        <ele>1812</ele>
        <time>2021-08-10 08:46:58</time>
      </trkpt>
      <trkpt lat="42.83606" lon="-0.48296">
        <ele>1812</ele>
        <time>2021-08-10 08:46:59</time>
      </trkpt>
      <trkpt lat="42.83605" lon="-0.48296">
        <ele>1812</ele>
        <time>2021-08-10 08:47:00</time>
      </trkpt>
      <trkpt lat="42.83605" lon="-0.48295">
        <ele>1812</ele>
        <time>2021-08-10 08:47:01</time>
      </trkpt>
      <trkpt lat="42.83605" lon="-0.48295">
        <ele>1811.8</ele>
        <time>2021-08-10 08:47:02</time>
      </trkpt>
      <trkpt lat="42.83605" lon="-0.48295">
        <ele>1811.8</ele>
        <time>2021-08-10 08:47:03</time>
      </trkpt>
      <trkpt lat="42.83605" lon="-0.48294">
        <ele>1811.6</ele>
        <time>2021-08-10 08:47:04</time>
      </trkpt>
      <trkpt lat="42.83605" lon="-0.48294">
        <ele>1811.8</ele>
        <time>2021-08-10 08:47:05</time>
      </trkpt>
      <trkpt lat="42.83604" lon="-0.48294">
        <ele>1811.8</ele>
        <time>2021-08-10 08:47:06</time>
      </trkpt>
      <trkpt lat="42.83604" lon="-0.48294">
        <ele>1811.8</ele>
        <time>2021-08-10 08:47:07</time>
      </trkpt>
      <trkpt lat="42.83604" lon="-0.48294">
        <ele>1811.6</ele>
        <time>2021-08-10 08:47:08</time>
      </trkpt>
      <trkpt lat="42.83604" lon="-0.48294">
        <ele>1811.8</ele>
        <time>2021-08-10 08:47:09</time>
      </trkpt>
      <trkpt lat="42.83604" lon="-0.48294">
        <ele>1811.8</ele>
        <time>2021-08-10 08:47:10</time>
      </trkpt>
      <trkpt lat="42.83604" lon="-0.48294">
        <ele>1812.2</ele>
        <time>2021-08-10 08:47:11</time>
      </trkpt>
      <trkpt lat="42.83605" lon="-0.48294">
        <ele>1812.2</ele>
        <time>2021-08-10 08:47:12</time>
      </trkpt>
      <trkpt lat="42.83605" lon="-0.48294">
        <ele>1812.2</ele>
        <time>2021-08-10 08:47:13</time>
      </trkpt>
      <trkpt lat="42.83605" lon="-0.48295">
        <ele>1811.8</ele>
        <time>2021-08-10 08:47:14</time>
      </trkpt>
      <trkpt lat="42.83606" lon="-0.48295">
        <ele>1811.8</ele>
        <time>2021-08-10 08:47:15</time>
      </trkpt>
      <trkpt lat="42.83605" lon="-0.48294">
        <ele>1811.8</ele>
        <time>2021-08-10 08:47:16</time>
      </trkpt>
      <trkpt lat="42.83605" lon="-0.48294">
        <ele>1811.8</ele>
        <time>2021-08-10 08:47:17</time>
      </trkpt>
      <trkpt lat="42.83604" lon="-0.48294">
        <ele>1811.8</ele>
        <time>2021-08-10 08:47:18</time>
      </trkpt>
      <trkpt lat="42.83604" lon="-0.48294">
        <ele>1811.6</ele>
        <time>2021-08-10 08:47:19</time>
      </trkpt>
      <trkpt lat="42.83604" lon="-0.48294">
        <ele>1811.6</ele>
        <time>2021-08-10 08:47:20</time>
      </trkpt>
      <trkpt lat="42.83604" lon="-0.48293">
        <ele>1811.4</ele>
        <time>2021-08-10 08:47:21</time>
      </trkpt>
      <trkpt lat="42.83603" lon="-0.48293">
        <ele>1811.6</ele>
        <time>2021-08-10 08:47:22</time>
      </trkpt>
      <trkpt lat="42.83602" lon="-0.48292">
        <ele>1811.4</ele>
        <time>2021-08-10 08:47:23</time>
      </trkpt>
      <trkpt lat="42.83602" lon="-0.48292">
        <ele>1811.4</ele>
        <time>2021-08-10 08:47:24</time>
      </trkpt>
      <trkpt lat="42.83602" lon="-0.48292">
        <ele>1811.6</ele>
        <time>2021-08-10 08:47:25</time>
      </trkpt>
      <trkpt lat="42.83602" lon="-0.48292">
        <ele>1811.4</ele>
        <time>2021-08-10 08:47:33</time>
      </trkpt>
      <trkpt lat="42.83602" lon="-0.48292">
        <ele>1811.4</ele>
        <time>2021-08-10 08:47:34</time>
      </trkpt>
      <trkpt lat="42.83601" lon="-0.48291">
        <ele>1811.6</ele>
        <time>2021-08-10 08:47:35</time>
      </trkpt>
      <trkpt lat="42.83601" lon="-0.4829">
        <ele>1811.2</ele>
        <time>2021-08-10 08:47:36</time>
      </trkpt>
      <trkpt lat="42.83601" lon="-0.4829">
        <ele>1811.2</ele>
        <time>2021-08-10 08:47:37</time>
      </trkpt>
      <trkpt lat="42.83601" lon="-0.48289">
        <ele>1811</ele>
        <time>2021-08-10 08:47:38</time>
      </trkpt>
      <trkpt lat="42.83601" lon="-0.48289">
        <ele>1811.2</ele>
        <time>2021-08-10 08:47:42</time>
      </trkpt>
      <trkpt lat="42.83601" lon="-0.48289">
        <ele>1811.2</ele>
        <time>2021-08-10 08:47:43</time>
      </trkpt>
      <trkpt lat="42.83602" lon="-0.48288">
        <ele>1810.8</ele>
        <time>2021-08-10 08:47:44</time>
      </trkpt>
      <trkpt lat="42.83602" lon="-0.48287">
        <ele>1811</ele>
        <time>2021-08-10 08:47:45</time>
      </trkpt>
      <trkpt lat="42.83602" lon="-0.48287">
        <ele>1811.2</ele>
        <time>2021-08-10 08:47:46</time>
      </trkpt>
      <trkpt lat="42.83602" lon="-0.48287">
        <ele>1811.2</ele>
        <time>2021-08-10 08:47:47</time>
      </trkpt>
      <trkpt lat="42.83602" lon="-0.48288">
        <ele>1811.2</ele>
        <time>2021-08-10 08:47:48</time>
      </trkpt>
      <trkpt lat="42.83602" lon="-0.48287">
        <ele>1811.2</ele>
        <time>2021-08-10 08:47:49</time>
      </trkpt>
      <trkpt lat="42.83601" lon="-0.48287">
        <ele>1811.2</ele>
        <time>2021-08-10 08:47:50</time>
      </trkpt>
      <trkpt lat="42.83601" lon="-0.48287">
        <ele>1811</ele>
        <time>2021-08-10 08:47:51</time>
      </trkpt>
      <trkpt lat="42.83602" lon="-0.48287">
        <ele>1810.8</ele>
        <time>2021-08-10 08:47:52</time>
      </trkpt>
      <trkpt lat="42.83602" lon="-0.48285">
        <ele>1810.6</ele>
        <time>2021-08-10 08:47:59</time>
      </trkpt>
      <trkpt lat="42.83602" lon="-0.48285">
        <ele>1810.6</ele>
        <time>2021-08-10 08:48:01</time>
      </trkpt>
      <trkpt lat="42.83602" lon="-0.48284">
        <ele>1810.6</ele>
        <time>2021-08-10 08:48:02</time>
      </trkpt>
      <trkpt lat="42.83602" lon="-0.48284">
        <ele>1810.4</ele>
        <time>2021-08-10 08:48:05</time>
      </trkpt>
      <trkpt lat="42.83602" lon="-0.48284">
        <ele>1810.2</ele>
      </trkpt>
      <trkpt lat="42.83601" lon="-0.48283">
        <ele>1810</ele>
        <time>2021-08-10 08:48:07</time>
      </trkpt>
      <trkpt lat="42.83601" lon="-0.48283">
        <ele>1810</ele>
      </trkpt>
      <trkpt lat="42.83601" lon="-0.48282">
        <ele>1810</ele>
        <time>2021-08-10 08:48:08</time>
      </trkpt>
      <trkpt lat="42.83601" lon="-0.48282">
        <ele>1809.8</ele>
        <time>2021-08-10 08:48:10</time>
      </trkpt>
      <trkpt lat="42.83601" lon="-0.48281">
        <ele>1809.6</ele>
      </trkpt>
      <trkpt lat="42.836" lon="-0.4828">
        <ele>1809.6</ele>
        <time>2021-08-10 08:48:11</time>
      </trkpt>
      <trkpt lat="42.836" lon="-0.4828">
        <ele>1809.4</ele>
        <time>2021-08-10 08:48:12</time>
      </trkpt>
      <trkpt lat="42.836" lon="-0.48279">
        <ele>1809.4</ele>
        <time>2021-08-10 08:48:19</time>
      </trkpt>
      <trkpt lat="42.83599" lon="-0.48279">
        <ele>1809.4</ele>
        <time>2021-08-10 08:48:20</time>
      </trkpt>
      <trkpt lat="42.83599" lon="-0.48279">
        <ele>1809.4</ele>
        <time>2021-08-10 08:48:21</time>
      </trkpt>
      <trkpt lat="42.83599" lon="-0.48278">
        <ele>1809.2</ele>
        <time>2021-08-10 08:48:22</time>
      </trkpt>
      <trkpt lat="42.83598" lon="-0.48277">
        <ele>1808.8</ele>
        <time>2021-08-10 08:48:37</time>
      </trkpt>
      <trkpt lat="42.83598" lon="-0.48277">
        <ele>1808.6</ele>
        <time>2021-08-10 08:48:38</time>
      </trkpt>
      <trkpt lat="42.83598" lon="-0.48276">
        <ele>1808.6</ele>
        <time>2021-08-10 08:48:39</time>
      </trkpt>
      <trkpt lat="42.83598" lon="-0.48276">
        <ele>1808.6</ele>
        <time>2021-08-10 08:48:40</time>
      </trkpt>
      <trkpt lat="42.83598" lon="-0.48276">
        <ele>1808.8</ele>
        <time>2021-08-10 08:48:57</time>
      </trkpt>
      <trkpt lat="42.83598" lon="-0.48276">
        <ele>1808.6</ele>
        <time>2021-08-10 08:48:58</time>
      </trkpt>
      <trkpt lat="42.83598" lon="-0.48276">
        <ele>1808.8</ele>
        <time>2021-08-10 08:48:59</time>
      </trkpt>
      <trkpt lat="42.83598" lon="-0.48276">
        <ele>1808.8</ele>
        <time>2021-08-10 08:49:00</time>
      </trkpt>
      <trkpt lat="42.83598" lon="-0.48276">
        <ele>1808.8</ele>
        <time>2021-08-10 08:49:01</time>
      </trkpt>
      <trkpt lat="42.83598" lon="-0.48276">
        <ele>1808.8</ele>
        <time>2021-08-10 08:49:02</time>
      </trkpt>
      <trkpt lat="42.83598" lon="-0.48276">
        <ele>1808.8</ele>
        <time>2021-08-10 08:49:03</time>
      </trkpt>
      <trkpt lat="42.83598" lon="-0.48276">
        <ele>1808.8</ele>
        <time>2021-08-10 08:49:04</time>
      </trkpt>
      <trkpt lat="42.83598" lon="-0.48276">
        <ele>1808.6</ele>
        <time>2021-08-10 08:49:05</time>
      </trkpt>
      <trkpt lat="42.83598" lon="-0.48275">
        <ele>1808.6</ele>
        <time>2021-08-10 08:49:06</time>
      </trkpt>
      <trkpt lat="42.83597" lon="-0.48274">
        <ele>1808.4</ele>
        <time>2021-08-10 08:49:07</time>
      </trkpt>
      <trkpt lat="42.83597" lon="-0.48274">
        <ele>1808.2</ele>
        <time>2021-08-10 08:49:08</time>
      </trkpt>
      <trkpt lat="42.83597" lon="-0.48273">
        <ele>1808.2</ele>
        <time>2021-08-10 08:49:09</time>
      </trkpt>
      <trkpt lat="42.83596" lon="-0.48272">
        <ele>1808</ele>
        <time>2021-08-10 08:49:10</time>
      </trkpt>
      <trkpt lat="42.83596" lon="-0.48272">
        <ele>1807.8</ele>
        <time>2021-08-10 08:49:11</time>
      </trkpt>
      <trkpt lat="42.83596" lon="-0.48271">
        <ele>1807.8</ele>
        <time>2021-08-10 08:49:12</time>
      </trkpt>
      <trkpt lat="42.83595" lon="-0.48271">
        <ele>1807.6</ele>
        <time>2021-08-10 08:49:13</time>
      </trkpt>
      <trkpt lat="42.83595" lon="-0.4827">
        <ele>1807.6</ele>
        <time>2021-08-10 08:49:14</time>
      </trkpt>
      <trkpt lat="42.83595" lon="-0.4827">
        <ele>1807.4</ele>
        <time>2021-08-10 08:49:15</time>
      </trkpt>
      <trkpt lat="42.83594" lon="-0.48269">
        <ele>1807.2</ele>
        <time>2021-08-10 08:49:16</time>
      </trkpt>
      <trkpt lat="42.83594" lon="-0.48269">
        <ele>1807.2</ele>
        <time>2021-08-10 08:49:17</time>
      </trkpt>
      <trkpt lat="42.83593" lon="-0.48269">
        <ele>1807.2</ele>
        <time>2021-08-10 08:49:18</time>
      </trkpt>
      <trkpt lat="42.83593" lon="-0.48268">
        <ele>1807.2</ele>
        <time>2021-08-10 08:49:23</time>
      </trkpt>
      <trkpt lat="42.83593" lon="-0.48268">
        <ele>1806.8</ele>
        <time>2021-08-10 08:49:24</time>
      </trkpt>
      <trkpt lat="42.83593" lon="-0.48267">
        <ele>1806.8</ele>
        <time>2021-08-10 08:49:25</time>
      </trkpt>
      <trkpt lat="42.83593" lon="-0.48266">
        <ele>1806.4</ele>
        <time>2021-08-10 08:49:26</time>
      </trkpt>
      <trkpt lat="42.83593" lon="-0.48265">
        <ele>1806.2</ele>
        <time>2021-08-10 08:49:27</time>
      </trkpt>
      <trkpt lat="42.83592" lon="-0.48265">
        <ele>1806</ele>
        <time>2021-08-10 08:49:28</time>
      </trkpt>
      <trkpt lat="42.83592" lon="-0.48264">
        <ele>1806</ele>
        <time>2021-08-10 08:49:50</time>
      </trkpt>
      <trkpt lat="42.83592" lon="-0.48263">
        <ele>1805.8</ele>
        <time>2021-08-10 08:49:51</time>
      </trkpt>
      <trkpt lat="42.83592" lon="-0.48263">
        <ele>1805.8</ele>
        <time>2021-08-10 08:49:52</time>
      </trkpt>
      <trkpt lat="42.83593" lon="-0.48263">
        <ele>1805.8</ele>
        <time>2021-08-10 08:49:53</time>
      </trkpt>
      <trkpt lat="42.83594" lon="-0.48263">
        <ele>1805.4</ele>
        <time>2021-08-10 08:49:54</time>
      </trkpt>
      <trkpt lat="42.83595" lon="-0.48262">
        <ele>1805.4</ele>
        <time>2021-08-10 08:49:55</time>
      </trkpt>
      <trkpt lat="42.83596" lon="-0.48263">
        <ele>1805.2</ele>
        <time>2021-08-10 08:49:56</time>
      </trkpt>
      <trkpt lat="42.83596" lon="-0.48263">
        <ele>1805.2</ele>
        <time>2021-08-10 08:49:57</time>
      </trkpt>
      <trkpt lat="42.83597" lon="-0.48263">
        <ele>1805</ele>
        <time>2021-08-10 08:49:58</time>
      </trkpt>
      <trkpt lat="42.83597" lon="-0.48264">
        <ele>1804.8</ele>
        <time>2021-08-10 08:49:59</time>
      </trkpt>
      <trkpt lat="42.83598" lon="-0.48264">
        <ele>1804.6</ele>
        <time>2021-08-10 08:50:00</time>
      </trkpt>
      <trkpt lat="42.83598" lon="-0.48265">
        <ele>1804.6</ele>
        <time>2021-08-10 08:50:01</time>
      </trkpt>
      <trkpt lat="42.83599" lon="-0.48265">
        <ele>1804.4</ele>
        <time>2021-08-10 08:50:02</time>
      </trkpt>
      <trkpt lat="42.83599" lon="-0.48265">
        <ele>1804.2</ele>
        <time>2021-08-10 08:50:03</time>
      </trkpt>
      <trkpt lat="42.836" lon="-0.48265">
        <ele>1804</ele>
        <time>2021-08-10 08:50:04</time>
      </trkpt>
      <trkpt lat="42.83601" lon="-0.48265">
        <ele>1804</ele>
        <time>2021-08-10 08:50:05</time>
      </trkpt>
      <trkpt lat="42.83601" lon="-0.48265">
        <ele>1803.8</ele>
        <time>2021-08-10 08:50:06</time>
      </trkpt>
      <trkpt lat="42.83602" lon="-0.48265">
        <ele>1803.6</ele>
        <time>2021-08-10 08:50:07</time>
      </trkpt>
      <trkpt lat="42.83603" lon="-0.48265">
        <ele>1803.4</ele>
        <time>2021-08-10 08:50:08</time>
      </trkpt>
      <trkpt lat="42.83604" lon="-0.48266">
        <ele>1803.2</ele>
        <time>2021-08-10 08:50:09</time>
      </trkpt>
      <trkpt lat="42.83604" lon="-0.48266">
        <ele>1803.2</ele>
        <time>2021-08-10 08:50:10</time>
      </trkpt>
      <trkpt lat="42.83605" lon="-0.48266">
        <ele>1803</ele>
        <time>2021-08-10 08:50:11</time>
      </trkpt>
      <trkpt lat="42.83605" lon="-0.48266">
        <ele>1802.8</ele>
        <time>2021-08-10 08:50:12</time>
      </trkpt>
      <trkpt lat="42.83606" lon="-0.48267">
        <ele>1802.6</ele>
        <time>2021-08-10 08:50:13</time>
      </trkpt>
      <trkpt lat="42.83607" lon="-0.48267">
        <ele>1802.6</ele>
        <time>2021-08-10 08:50:14</time>
      </trkpt>
      <trkpt lat="42.83608" lon="-0.48267">
        <ele>1802.4</ele>
        <time>2021-08-10 08:50:15</time>
      </trkpt>
      <trkpt lat="42.83609" lon="-0.48267">
        <ele>1802.2</ele>
        <time>2021-08-10 08:50:16</time>
      </trkpt>
      <trkpt lat="42.8361" lon="-0.48267">
        <ele>1801.8</ele>
        <time>2021-08-10 08:50:17</time>
      </trkpt>
      <trkpt lat="42.8361" lon="-0.48267">
        <ele>1801.6</ele>
        <time>2021-08-10 08:50:18</time>
      </trkpt>
      <trkpt lat="42.83611" lon="-0.48267">
        <ele>1801.6</ele>
        <time>2021-08-10 08:50:19</time>
      </trkpt>
      <trkpt lat="42.83612" lon="-0.48267">
        <ele>1801.4</ele>
        <time>2021-08-10 08:50:20</time>
      </trkpt>
      <trkpt lat="42.83612" lon="-0.48268">
        <ele>1801.2</ele>
        <time>2021-08-10 08:50:21</time>
      </trkpt>
      <trkpt lat="42.83613" lon="-0.48267">
        <ele>1801</ele>
        <time>2021-08-10 08:50:22</time>
      </trkpt>
      <trkpt lat="42.83614" lon="-0.48267">
        <ele>1801</ele>
        <time>2021-08-10 08:50:23</time>
      </trkpt>
      <trkpt lat="42.83614" lon="-0.48266">
        <ele>1800.8</ele>
        <time>2021-08-10 08:50:24</time>
      </trkpt>
      <trkpt lat="42.83615" lon="-0.48266">
        <ele>1800.8</ele>
        <time>2021-08-10 08:50:25</time>
      </trkpt>
      <trkpt lat="42.83615" lon="-0.48265">
        <ele>1800.8</ele>
        <time>2021-08-10 08:50:26</time>
      </trkpt>
      <trkpt lat="42.83616" lon="-0.48265">
        <ele>1800.6</ele>
        <time>2021-08-10 08:50:27</time>
      </trkpt>
      <trkpt lat="42.83617" lon="-0.48266">
        <ele>1800.4</ele>
        <time>2021-08-10 08:50:28</time>
      </trkpt>
      <trkpt lat="42.83617" lon="-0.48266">
        <ele>1800.2</ele>
        <time>2021-08-10 08:50:29</time>
      </trkpt>
      <trkpt lat="42.83618" lon="-0.48267">
        <ele>1800</ele>
        <time>2021-08-10 08:50:30</time>
      </trkpt>
      <trkpt lat="42.83618" lon="-0.48267">
        <ele>1799.8</ele>
        <time>2021-08-10 08:50:31</time>
      </trkpt>
      <trkpt lat="42.83618" lon="-0.48268">
        <ele>1799.8</ele>
        <time>2021-08-10 08:50:32</time>
      </trkpt>
      <trkpt lat="42.83619" lon="-0.48268">
        <ele>1799.8</ele>
        <time>2021-08-10 08:50:33</time>
      </trkpt>
      <trkpt lat="42.8362" lon="-0.48269">
        <ele>1799.8</ele>
        <time>2021-08-10 08:50:34</time>
      </trkpt>
      <trkpt lat="42.8362" lon="-0.48269">
        <ele>1799.6</ele>
        <time>2021-08-10 08:50:35</time>
      </trkpt>
      <trkpt lat="42.8362" lon="-0.4827">
        <ele>1799.6</ele>
        <time>2021-08-10 08:50:36</time>
      </trkpt>
      <trkpt lat="42.8362" lon="-0.4827">
        <ele>1799.2</ele>
        <time>2021-08-10 08:50:37</time>
      </trkpt>
      <trkpt lat="42.83621" lon="-0.48271">
        <ele>1799</ele>
        <time>2021-08-10 08:50:38</time>
      </trkpt>
      <trkpt lat="42.83622" lon="-0.48271">
        <ele>1798.8</ele>
        <time>2021-08-10 08:50:39</time>
      </trkpt>
      <trkpt lat="42.83622" lon="-0.48271">
        <ele>1798.8</ele>
        <time>2021-08-10 08:50:40</time>
      </trkpt>
      <trkpt lat="42.83623" lon="-0.48271">
        <ele>1798.6</ele>
        <time>2021-08-10 08:50:41</time>
      </trkpt>
      <trkpt lat="42.83624" lon="-0.48271">
        <ele>1798.2</ele>
        <time>2021-08-10 08:50:42</time>
      </trkpt>
      <trkpt lat="42.83624" lon="-0.48272">
        <ele>1798.2</ele>
        <time>2021-08-10 08:50:43</time>
      </trkpt>
      <trkpt lat="42.83625" lon="-0.48273">
        <ele>1797.8</ele>
        <time>2021-08-10 08:50:44</time>
      </trkpt>
      <trkpt lat="42.83625" lon="-0.48273">
        <ele>1797.8</ele>
        <time>2021-08-10 08:50:45</time>
      </trkpt>
      <trkpt lat="42.83626" lon="-0.48274">
        <ele>1797.6</ele>
        <time>2021-08-10 08:50:46</time>
      </trkpt>
      <trkpt lat="42.83626" lon="-0.48274">
        <ele>1797.6</ele>
        <time>2021-08-10 08:50:47</time>
      </trkpt>
      <trkpt lat="42.83627" lon="-0.48275">
        <ele>1797.2</ele>
        <time>2021-08-10 08:50:48</time>
      </trkpt>
      <trkpt lat="42.83628" lon="-0.48275">
        <ele>1797</ele>
        <time>2021-08-10 08:50:49</time>
      </trkpt>
      <trkpt lat="42.83629" lon="-0.48275">
        <ele>1796.8</ele>
        <time>2021-08-10 08:50:50</time>
      </trkpt>
      <trkpt lat="42.83629" lon="-0.48276">
        <ele>1796.8</ele>
        <time>2021-08-10 08:50:51</time>
      </trkpt>
      <trkpt lat="42.8363" lon="-0.48277">
        <ele>1796.6</ele>
        <time>2021-08-10 08:50:52</time>
      </trkpt>
      <trkpt lat="42.8363" lon="-0.48277">
        <ele>1796.4</ele>
        <time>2021-08-10 08:50:53</time>
      </trkpt>
      <trkpt lat="42.83631" lon="-0.48278">
        <ele>1796</ele>
        <time>2021-08-10 08:50:54</time>
      </trkpt>
      <trkpt lat="42.83632" lon="-0.48278">
        <ele>1796</ele>
        <time>2021-08-10 08:50:55</time>
      </trkpt>
      <trkpt lat="42.83633" lon="-0.48278">
        <ele>1796</ele>
        <time>2021-08-10 08:50:56</time>
      </trkpt>
      <trkpt lat="42.83633" lon="-0.48279">
        <ele>1796</ele>
        <time>2021-08-10 08:50:57</time>
      </trkpt>
      <trkpt lat="42.83634" lon="-0.48279">
        <ele>1795.8</ele>
        <time>2021-08-10 08:50:58</time>
      </trkpt>
      <trkpt lat="42.83635" lon="-0.4828">
        <ele>1795.4</ele>
        <time>2021-08-10 08:50:59</time>
      </trkpt>
      <trkpt lat="42.83636" lon="-0.4828">
        <ele>1793.4</ele>
        <time>2021-08-10 08:51:00</time>
      </trkpt>
      <trkpt lat="42.83637" lon="-0.48281">
        <ele>1793.4</ele>
        <time>2021-08-10 08:51:01</time>
      </trkpt>
      <trkpt lat="42.83637" lon="-0.48281">
        <ele>1793.4</ele>
        <time>2021-08-10 08:51:02</time>
      </trkpt>
      <trkpt lat="42.83638" lon="-0.48282">
        <ele>1795.2</ele>
        <time>2021-08-10 08:51:03</time>
      </trkpt>
      <trkpt lat="42.83638" lon="-0.48282">
        <ele>1795</ele>
        <time>2021-08-10 08:51:04</time>
      </trkpt>
      <trkpt lat="42.83639" lon="-0.48282">
        <ele>1794.8</ele>
        <time>2021-08-10 08:51:05</time>
      </trkpt>
      <trkpt lat="42.83638" lon="-0.48281">
        <ele>1794.4</ele>
        <time>2021-08-10 08:51:06</time>
      </trkpt>
      <trkpt lat="42.83639" lon="-0.48281">
        <ele>1794.2</ele>
        <time>2021-08-10 08:51:07</time>
      </trkpt>
      <trkpt lat="42.83639" lon="-0.48281">
        <ele>1794.2</ele>
        <time>2021-08-10 08:51:08</time>
      </trkpt>
      <trkpt lat="42.83639" lon="-0.48281">
        <ele>1793.8</ele>
        <time>2021-08-10 08:51:09</time>
      </trkpt>
      <trkpt lat="42.83639" lon="-0.4828">
        <ele>1793.8</ele>
        <time>2021-08-10 08:51:10</time>
      </trkpt>
      <trkpt lat="42.83639" lon="-0.4828">
        <ele>1793.8</ele>
        <time>2021-08-10 08:51:11</time>
      </trkpt>
      <trkpt lat="42.83639" lon="-0.48279">
        <ele>1793.4</ele>
        <time>2021-08-10 08:51:12</time>
      </trkpt>
      <trkpt lat="42.83639" lon="-0.48279">
        <ele>1793.4</ele>
        <time>2021-08-10 08:51:13</time>
      </trkpt>
      <trkpt lat="42.8364" lon="-0.48279">
        <ele>1793.2</ele>
        <time>2021-08-10 08:51:14</time>
      </trkpt>
      <trkpt lat="42.8364" lon="-0.48279">
        <ele>1793.2</ele>
        <time>2021-08-10 08:51:15</time>
      </trkpt>
      <trkpt lat="42.8364" lon="-0.48279">
        <ele>1793</ele>
        <time>2021-08-10 08:51:16</time>
      </trkpt>
      <trkpt lat="42.8364" lon="-0.48279">
        <ele>1793</ele>
        <time>2021-08-10 08:51:17</time>
      </trkpt>
      <trkpt lat="42.83641" lon="-0.48279">
        <ele>1792.8</ele>
        <time>2021-08-10 08:51:18</time>
      </trkpt>
      <trkpt lat="42.83642" lon="-0.48279">
        <ele>1792.6</ele>
        <time>2021-08-10 08:51:19</time>
      </trkpt>
      <trkpt lat="42.83642" lon="-0.48279">
        <ele>1792.4</ele>
        <time>2021-08-10 08:51:20</time>
      </trkpt>
      <trkpt lat="42.83642" lon="-0.4828">
        <ele>1792</ele>
        <time>2021-08-10 08:51:21</time>
      </trkpt>
      <trkpt lat="42.83643" lon="-0.48281">
        <ele>1792</ele>
        <time>2021-08-10 08:51:22</time>
      </trkpt>
      <trkpt lat="42.83643" lon="-0.48281">
        <ele>1792</ele>
        <time>2021-08-10 08:51:23</time>
      </trkpt>
      <trkpt lat="42.83643" lon="-0.48281">
        <ele>1791.8</ele>
        <time>2021-08-10 08:51:24</time>
      </trkpt>
      <trkpt lat="42.83644" lon="-0.48281">
        <ele>1791.6</ele>
        <time>2021-08-10 08:51:25</time>
      </trkpt>
      <trkpt lat="42.83644" lon="-0.48281">
        <ele>1791.4</ele>
        <time>2021-08-10 08:51:26</time>
      </trkpt>
      <trkpt lat="42.83645" lon="-0.48281">
        <ele>1791.2</ele>
        <time>2021-08-10 08:51:27</time>
      </trkpt>
      <trkpt lat="42.83645" lon="-0.48282">
        <ele>1791</ele>
        <time>2021-08-10 08:51:28</time>
      </trkpt>
      <trkpt lat="42.83646" lon="-0.48282">
        <ele>1790.8</ele>
        <time>2021-08-10 08:51:29</time>
      </trkpt>
      <trkpt lat="42.83646" lon="-0.48283">
        <ele>1790.6</ele>
        <time>2021-08-10 08:51:30</time>
      </trkpt>
      <trkpt lat="42.83647" lon="-0.48283">
        <ele>1790.6</ele>
        <time>2021-08-10 08:51:31</time>
      </trkpt>
      <trkpt lat="42.83648" lon="-0.48284">
        <ele>1790.6</ele>
        <time>2021-08-10 08:51:32</time>
      </trkpt>
      <trkpt lat="42.83648" lon="-0.48284">
        <ele>1790.6</ele>
        <time>2021-08-10 08:51:33</time>
      </trkpt>
      <trkpt lat="42.83649" lon="-0.48285">
        <ele>1790.2</ele>
        <time>2021-08-10 08:51:34</time>
      </trkpt>
      <trkpt lat="42.8365" lon="-0.48285">
        <ele>1790.4</ele>
        <time>2021-08-10 08:51:35</time>
      </trkpt>
      <trkpt lat="42.8365" lon="-0.48286">
        <ele>1790.6</ele>
        <time>2021-08-10 08:51:36</time>
      </trkpt>
      <trkpt lat="42.83651" lon="-0.48287">
        <ele>1790.6</ele>
        <time>2021-08-10 08:51:37</time>
      </trkpt>
      <trkpt lat="42.83651" lon="-0.48287">
        <ele>1790.6</ele>
        <time>2021-08-10 08:51:38</time>
      </trkpt>
      <trkpt lat="42.83652" lon="-0.48288">
        <ele>1790.4</ele>
        <time>2021-08-10 08:51:39</time>
      </trkpt>
      <trkpt lat="42.83653" lon="-0.48288">
        <ele>1790.2</ele>
        <time>2021-08-10 08:51:40</time>
      </trkpt>
      <trkpt lat="42.83654" lon="-0.48289">
        <ele>1790</ele>
        <time>2021-08-10 08:51:41</time>
      </trkpt>
      <trkpt lat="42.83655" lon="-0.4829">
        <ele>1790</ele>
        <time>2021-08-10 08:51:42</time>
      </trkpt>
      <trkpt lat="42.83655" lon="-0.4829">
        <ele>1790</ele>
        <time>2021-08-10 08:51:43</time>
      </trkpt>
      <trkpt lat="42.83655" lon="-0.48291">
        <ele>1790.2</ele>
        <time>2021-08-10 08:51:44</time>
      </trkpt>
      <trkpt lat="42.83656" lon="-0.48291">
        <ele>1790.4</ele>
        <time>2021-08-10 08:51:45</time>
      </trkpt>
      <trkpt lat="42.83656" lon="-0.48292">
        <ele>1790.4</ele>
        <time>2021-08-10 08:51:46</time>
      </trkpt>
      <trkpt lat="42.83656" lon="-0.48293">
        <ele>1790.4</ele>
        <time>2021-08-10 08:51:47</time>
      </trkpt>
      <trkpt lat="42.83656" lon="-0.48293">
        <ele>1790.4</ele>
        <time>2021-08-10 08:51:48</time>
      </trkpt>
      <trkpt lat="42.83657" lon="-0.48293">
        <ele>1790.4</ele>
        <time>2021-08-10 08:51:49</time>
      </trkpt>
      <trkpt lat="42.83658" lon="-0.48293">
        <ele>1790.6</ele>
        <time>2021-08-10 08:51:50</time>
      </trkpt>
      <trkpt lat="42.83658" lon="-0.48292">
        <ele>1790.2</ele>
        <time>2021-08-10 08:51:51</time>
      </trkpt>
      <trkpt lat="42.83658" lon="-0.48292">
        <ele>1790.2</ele>
        <time>2021-08-10 08:51:52</time>
      </trkpt>
      <trkpt lat="42.83658" lon="-0.48292">
        <ele>1790</ele>
        <time>2021-08-10 08:51:53</time>
      </trkpt>
      <trkpt lat="42.83659" lon="-0.48292">
        <ele>1790</ele>
        <time>2021-08-10 08:51:54</time>
      </trkpt>
      <trkpt lat="42.83659" lon="-0.48292">
        <ele>1789.8</ele>
        <time>2021-08-10 08:51:55</time>
      </trkpt>
      <trkpt lat="42.8366" lon="-0.48292">
        <ele>1789.8</ele>
        <time>2021-08-10 08:51:56</time>
      </trkpt>
      <trkpt lat="42.8366" lon="-0.48292">
        <ele>1789.8</ele>
        <time>2021-08-10 08:51:57</time>
      </trkpt>
      <trkpt lat="42.8366" lon="-0.48292">
        <ele>1789.6</ele>
        <time>2021-08-10 08:51:58</time>
      </trkpt>
      <trkpt lat="42.8366" lon="-0.48292">
        <ele>1789.4</ele>
        <time>2021-08-10 08:51:59</time>
      </trkpt>
      <trkpt lat="42.8366" lon="-0.48292">
        <ele>1789.2</ele>
        <time>2021-08-10 08:52:00</time>
      </trkpt>
      <trkpt lat="42.8366" lon="-0.48291">
        <ele>1789.2</ele>
        <time>2021-08-10 08:52:01</time>
      </trkpt>
      <trkpt lat="42.83661" lon="-0.48291">
        <ele>1789</ele>
        <time>2021-08-10 08:52:02</time>
      </trkpt>
      <trkpt lat="42.83662" lon="-0.48292">
        <ele>1788.8</ele>
        <time>2021-08-10 08:52:03</time>
      </trkpt>
      <trkpt lat="42.83662" lon="-0.48292">
        <ele>1788.8</ele>
        <time>2021-08-10 08:52:04</time>
      </trkpt>
      <trkpt lat="42.83663" lon="-0.48293">
        <ele>1788.6</ele>
        <time>2021-08-10 08:52:05</time>
      </trkpt>
      <trkpt lat="42.83663" lon="-0.48293">
        <ele>1788.4</ele>
        <time>2021-08-10 08:52:06</time>
      </trkpt>
      <trkpt lat="42.83664" lon="-0.48293">
        <ele>1788.2</ele>
        <time>2021-08-10 08:52:07</time>
      </trkpt>
      <trkpt lat="42.83664" lon="-0.48294">
        <ele>1788</ele>
        <time>2021-08-10 08:52:08</time>
      </trkpt>
      <trkpt lat="42.83664" lon="-0.48294">
        <ele>1787.8</ele>
        <time>2021-08-10 08:52:09</time>
      </trkpt>
      <trkpt lat="42.83665" lon="-0.48294">
        <ele>1787.6</ele>
        <time>2021-08-10 08:52:10</time>
      </trkpt>
      <trkpt lat="42.83665" lon="-0.48294">
        <ele>1787.6</ele>
        <time>2021-08-10 08:52:11</time>
      </trkpt>
      <trkpt lat="42.83665" lon="-0.48294">
        <ele>1787.6</ele>
        <time>2021-08-10 08:52:12</time>
      </trkpt>
      <trkpt lat="42.83665" lon="-0.48293">
        <ele>1787.4</ele>
        <time>2021-08-10 08:52:13</time>
      </trkpt>
      <trkpt lat="42.83666" lon="-0.48293">
        <ele>1787.2</ele>
        <time>2021-08-10 08:52:14</time>
      </trkpt>
      <trkpt lat="42.83666" lon="-0.48293">
        <ele>1787</ele>
        <time>2021-08-10 08:52:15</time>
      </trkpt>
      <trkpt lat="42.83667" lon="-0.48293">
        <ele>1786.8</ele>
        <time>2021-08-10 08:52:16</time>
      </trkpt>
      <trkpt lat="42.83667" lon="-0.48293">
        <ele>1786.6</ele>
        <time>2021-08-10 08:52:17</time>
      </trkpt>
      <trkpt lat="42.83668" lon="-0.48293">
        <ele>1786.6</ele>
        <time>2021-08-10 08:52:18</time>
      </trkpt>
      <trkpt lat="42.83668" lon="-0.48292">
        <ele>1786.4</ele>
        <time>2021-08-10 08:52:19</time>
      </trkpt>
      <trkpt lat="42.83668" lon="-0.48292">
        <ele>1786.2</ele>
        <time>2021-08-10 08:52:20</time>
      </trkpt>
      <trkpt lat="42.83669" lon="-0.48291">
        <ele>1785.8</ele>
        <time>2021-08-10 08:52:21</time>
      </trkpt>
      <trkpt lat="42.8367" lon="-0.48291">
        <ele>1785.4</ele>
        <time>2021-08-10 08:52:22</time>
      </trkpt>
      <trkpt lat="42.8367" lon="-0.48291">
        <ele>1785.4</ele>
        <time>2021-08-10 08:52:23</time>
      </trkpt>
      <trkpt lat="42.8367" lon="-0.48291">
        <ele>1785.6</ele>
        <time>2021-08-10 08:52:24</time>
      </trkpt>
      <trkpt lat="42.83672" lon="-0.48291">
        <ele>1786</ele>
        <time>2021-08-10 08:52:25</time>
      </trkpt>
      <trkpt lat="42.83672" lon="-0.4829">
        <ele>1786</ele>
        <time>2021-08-10 08:52:26</time>
      </trkpt>
      <trkpt lat="42.83672" lon="-0.4829">
        <ele>1786</ele>
        <time>2021-08-10 08:52:27</time>
      </trkpt>
      <trkpt lat="42.83673" lon="-0.4829">
        <ele>1785.8</ele>
        <time>2021-08-10 08:52:28</time>
      </trkpt>
      <trkpt lat="42.83674" lon="-0.4829">
        <ele>1785.8</ele>
        <time>2021-08-10 08:52:29</time>
      </trkpt>
      <trkpt lat="42.83674" lon="-0.4829">
        <ele>1785.6</ele>
        <time>2021-08-10 08:52:30</time>
      </trkpt>
      <trkpt lat="42.83675" lon="-0.48289">
        <ele>1785.6</ele>
        <time>2021-08-10 08:52:31</time>
      </trkpt>
      <trkpt lat="42.83675" lon="-0.48289">
        <ele>1785.2</ele>
        <time>2021-08-10 08:52:32</time>
      </trkpt>
      <trkpt lat="42.83676" lon="-0.48288">
        <ele>1785.2</ele>
        <time>2021-08-10 08:52:33</time>
      </trkpt>
      <trkpt lat="42.83676" lon="-0.48288">
        <ele>1785.2</ele>
        <time>2021-08-10 08:52:34</time>
      </trkpt>
      <trkpt lat="42.83677" lon="-0.48287">
        <ele>1785.2</ele>
        <time>2021-08-10 08:52:35</time>
      </trkpt>
      <trkpt lat="42.83678" lon="-0.48287">
        <ele>1785</ele>
        <time>2021-08-10 08:52:36</time>
      </trkpt>
      <trkpt lat="42.83679" lon="-0.48287">
        <ele>1784.8</ele>
        <time>2021-08-10 08:52:37</time>
      </trkpt>
      <trkpt lat="42.83679" lon="-0.48285">
        <ele>1784.6</ele>
        <time>2021-08-10 08:52:38</time>
      </trkpt>
      <trkpt lat="42.83681" lon="-0.48284">
        <ele>1784.4</ele>
        <time>2021-08-10 08:52:39</time>
      </trkpt>
      <trkpt lat="42.83682" lon="-0.48283">
        <ele>1784.2</ele>
        <time>2021-08-10 08:52:40</time>
      </trkpt>
      <trkpt lat="42.83683" lon="-0.48282">
        <ele>1784.2</ele>
        <time>2021-08-10 08:52:41</time>
      </trkpt>
      <trkpt lat="42.83684" lon="-0.48281">
        <ele>1784</ele>
        <time>2021-08-10 08:52:42</time>
      </trkpt>
      <trkpt lat="42.83685" lon="-0.48281">
        <ele>1783.8</ele>
        <time>2021-08-10 08:52:43</time>
      </trkpt>
      <trkpt lat="42.83685" lon="-0.4828">
        <ele>1783.8</ele>
        <time>2021-08-10 08:52:44</time>
      </trkpt>
      <trkpt lat="42.83685" lon="-0.4828">
        <ele>1783.4</ele>
        <time>2021-08-10 08:52:45</time>
      </trkpt>
      <trkpt lat="42.83685" lon="-0.48279">
        <ele>1783.4</ele>
        <time>2021-08-10 08:53:02</time>
      </trkpt>
      <trkpt lat="42.83685" lon="-0.48279">
        <ele>1783.4</ele>
        <time>2021-08-10 08:53:03</time>
      </trkpt>
      <trkpt lat="42.83686" lon="-0.48279">
        <ele>1783.4</ele>
        <time>2021-08-10 08:53:04</time>
      </trkpt>
      <trkpt lat="42.83686" lon="-0.48279">
        <ele>1783</ele>
        <time>2021-08-10 08:53:05</time>
      </trkpt>
      <trkpt lat="42.83686" lon="-0.48279">
        <ele>1782.8</ele>
        <time>2021-08-10 08:53:06</time>
      </trkpt>
      <trkpt lat="42.83686" lon="-0.48278">
        <ele>1782.6</ele>
        <time>2021-08-10 08:53:07</time>
      </trkpt>
      <trkpt lat="42.83686" lon="-0.48277">
        <ele>1782.4</ele>
        <time>2021-08-10 08:53:08</time>
      </trkpt>
      <trkpt lat="42.83686" lon="-0.48277">
        <ele>1782.4</ele>
        <time>2021-08-10 08:53:09</time>
      </trkpt>
      <trkpt lat="42.83686" lon="-0.48276">
        <ele>1782</ele>
        <time>2021-08-10 08:53:10</time>
      </trkpt>
      <trkpt lat="42.83687" lon="-0.48276">
        <ele>1781.8</ele>
        <time>2021-08-10 08:53:11</time>
      </trkpt>
      <trkpt lat="42.83687" lon="-0.48276">
        <ele>1781.6</ele>
        <time>2021-08-10 08:53:12</time>
      </trkpt>
      <trkpt lat="42.83687" lon="-0.48275">
        <ele>1781.6</ele>
        <time>2021-08-10 08:53:13</time>
      </trkpt>
      <trkpt lat="42.83687" lon="-0.48275">
        <ele>1781.4</ele>
        <time>2021-08-10 08:53:14</time>
      </trkpt>
      <trkpt lat="42.83686" lon="-0.48274">
        <ele>1781</ele>
        <time>2021-08-10 08:53:15</time>
      </trkpt>
      <trkpt lat="42.83686" lon="-0.48274">
        <ele>1781</ele>
        <time>2021-08-10 08:53:16</time>
      </trkpt>
      <trkpt lat="42.83686" lon="-0.48273">
        <ele>1780.8</ele>
        <time>2021-08-10 08:53:17</time>
      </trkpt>
      <trkpt lat="42.83687" lon="-0.48273">
        <ele>1780.6</ele>
        <time>2021-08-10 08:53:18</time>
      </trkpt>
      <trkpt lat="42.83687" lon="-0.48272">
        <ele>1780.4</ele>
        <time>2021-08-10 08:53:19</time>
      </trkpt>
      <trkpt lat="42.83687" lon="-0.48271">
        <ele>1780.4</ele>
        <time>2021-08-10 08:53:20</time>
      </trkpt>
      <trkpt lat="42.83688" lon="-0.48271">
        <ele>1780.2</ele>
        <time>2021-08-10 08:53:21</time>
      </trkpt>
      <trkpt lat="42.83688" lon="-0.4827">
        <ele>1780.2</ele>
        <time>2021-08-10 08:53:22</time>
      </trkpt>
      <trkpt lat="42.83688" lon="-0.48269">
        <ele>1780</ele>
        <time>2021-08-10 08:53:23</time>
      </trkpt>
      <trkpt lat="42.83689" lon="-0.48268">
        <ele>1780</ele>
        <time>2021-08-10 08:53:24</time>
      </trkpt>
      <trkpt lat="42.83689" lon="-0.48268">
        <ele>1779.8</ele>
        <time>2021-08-10 08:53:25</time>
      </trkpt>
      <trkpt lat="42.83689" lon="-0.48267">
        <ele>1779.4</ele>
        <time>2021-08-10 08:53:26</time>
      </trkpt>
      <trkpt lat="42.83689" lon="-0.48267">
        <ele>1779</ele>
        <time>2021-08-10 08:53:27</time>
      </trkpt>
      <trkpt lat="42.83689" lon="-0.48266">
        <ele>1779.2</ele>
        <time>2021-08-10 08:53:28</time>
      </trkpt>
      <trkpt lat="42.83689" lon="-0.48265">
        <ele>1779</ele>
        <time>2021-08-10 08:53:29</time>
      </trkpt>
      <trkpt lat="42.83689" lon="-0.48265">
        <ele>1779</ele>
        <time>2021-08-10 08:53:30</time>
      </trkpt>
      <trkpt lat="42.83689" lon="-0.48264">
        <ele>1778.2</ele>
        <time>2021-08-10 08:53:31</time>
      </trkpt>
      <trkpt lat="42.83688" lon="-0.48263">
        <ele>1778.4</ele>
        <time>2021-08-10 08:53:32</time>
      </trkpt>
      <trkpt lat="42.83688" lon="-0.48263">
        <ele>1778</ele>
        <time>2021-08-10 08:53:33</time>
      </trkpt>
      <trkpt lat="42.83688" lon="-0.48262">
        <ele>1778.2</ele>
        <time>2021-08-10 08:53:34</time>
      </trkpt>
      <trkpt lat="42.83687" lon="-0.4826">
        <ele>1778</ele>
        <time>2021-08-10 08:53:35</time>
      </trkpt>
      <trkpt lat="42.83687" lon="-0.48259">
        <ele>1778</ele>
        <time>2021-08-10 08:53:36</time>
      </trkpt>
      <trkpt lat="42.83687" lon="-0.48258">
        <ele>1777.8</ele>
        <time>2021-08-10 08:53:37</time>
      </trkpt>
      <trkpt lat="42.83687" lon="-0.48256">
        <ele>1777.6</ele>
        <time>2021-08-10 08:53:38</time>
      </trkpt>
      <trkpt lat="42.83686" lon="-0.48255">
        <ele>1777.4</ele>
        <time>2021-08-10 08:53:39</time>
      </trkpt>
      <trkpt lat="42.83686" lon="-0.48254">
        <ele>1777.4</ele>
        <time>2021-08-10 08:53:40</time>
      </trkpt>
      <trkpt lat="42.83687" lon="-0.48253">
        <ele>1777.2</ele>
        <time>2021-08-10 08:53:41</time>
      </trkpt>
      <trkpt lat="42.83687" lon="-0.48253">
        <ele>1777</ele>
        <time>2021-08-10 08:53:42</time>
      </trkpt>
      <trkpt lat="42.83686" lon="-0.48253">
        <ele>1776.6</ele>
        <time>2021-08-10 08:53:43</time>
      </trkpt>
      <trkpt lat="42.83686" lon="-0.48253">
        <ele>1776.4</ele>
        <time>2021-08-10 08:53:44</time>
      </trkpt>
      <trkpt lat="42.83685" lon="-0.48252">
        <ele>1776.4</ele>
        <time>2021-08-10 08:53:45</time>
      </trkpt>
      <trkpt lat="42.83685" lon="-0.48252">
        <ele>1776.4</ele>
        <time>2021-08-10 08:53:46</time>
      </trkpt>
      <trkpt lat="42.83684" lon="-0.48252">
        <ele>1776.2</ele>
        <time>2021-08-10 08:53:47</time>
      </trkpt>
      <trkpt lat="42.83684" lon="-0.48252">
        <ele>1776</ele>
        <time>2021-08-10 08:53:48</time>
      </trkpt>
      <trkpt lat="42.83684" lon="-0.48252">
        <ele>1775.6</ele>
        <time>2021-08-10 08:53:49</time>
      </trkpt>
      <trkpt lat="42.83683" lon="-0.48253">
        <ele>1775.4</ele>
        <time>2021-08-10 08:53:50</time>
      </trkpt>
      <trkpt lat="42.83683" lon="-0.48253">
        <ele>1775.2</ele>
        <time>2021-08-10 08:53:51</time>
      </trkpt>
      <trkpt lat="42.83683" lon="-0.48253">
        <ele>1775</ele>
        <time>2021-08-10 08:53:52</time>
      </trkpt>
      <trkpt lat="42.83682" lon="-0.48253">
        <ele>1775</ele>
        <time>2021-08-10 08:53:53</time>
      </trkpt>
      <trkpt lat="42.83682" lon="-0.48254">
        <ele>1775.2</ele>
        <time>2021-08-10 08:53:54</time>
      </trkpt>
      <trkpt lat="42.83682" lon="-0.48254">
        <ele>1774.8</ele>
        <time>2021-08-10 08:53:55</time>
      </trkpt>
      <trkpt lat="42.83681" lon="-0.48254">
        <ele>1774.6</ele>
        <time>2021-08-10 08:53:56</time>
      </trkpt>
      <trkpt lat="42.8368" lon="-0.48254">
        <ele>1774.4</ele>
        <time>2021-08-10 08:53:57</time>
      </trkpt>
      <trkpt lat="42.8368" lon="-0.48254">
        <ele>1774.2</ele>
        <time>2021-08-10 08:53:58</time>
      </trkpt>
      <trkpt lat="42.83679" lon="-0.48253">
        <ele>1774.2</ele>
        <time>2021-08-10 08:53:59</time>
      </trkpt>
      <trkpt lat="42.83679" lon="-0.48253">
        <ele>1774.2</ele>
      </trkpt>
      <trkpt lat="42.83678" lon="-0.48253">
        <ele>1774</ele>
        <time>2021-08-10 08:54:01</time>
      </trkpt>
      <trkpt lat="42.83677" lon="-0.48253">
        <ele>1773.8</ele>
        <time>2021-08-10 08:54:02</time>
      </trkpt>
      <trkpt lat="42.83677" lon="-0.48253">
        <ele>1773.8</ele>
        <time>2021-08-10 08:54:03</time>
      </trkpt>
      <trkpt lat="42.83676" lon="-0.48253">
        <ele>1773.6</ele>
        <time>2021-08-10 08:54:04</time>
      </trkpt>
      <trkpt lat="42.83676" lon="-0.48252">
        <ele>1773.6</ele>
        <time>2021-08-10 08:54:05</time>
      </trkpt>
      <trkpt lat="42.83675" lon="-0.48252">
        <ele>1773.6</ele>
        <time>2021-08-10 08:54:06</time>
      </trkpt>
      <trkpt lat="42.83675" lon="-0.48252">
        <ele>1773.2</ele>
        <time>2021-08-10 08:54:07</time>
      </trkpt>
      <trkpt lat="42.83675" lon="-0.48251">
        <ele>1773</ele>
        <time>2021-08-10 08:54:08</time>
      </trkpt>
      <trkpt lat="42.83675" lon="-0.48249">
        <ele>1772.8</ele>
        <time>2021-08-10 08:54:09</time>
      </trkpt>
      <trkpt lat="42.83675" lon="-0.48249">
        <ele>1772.8</ele>
        <time>2021-08-10 08:54:10</time>
      </trkpt>
      <trkpt lat="42.83675" lon="-0.48248">
        <ele>1772.6</ele>
        <time>2021-08-10 08:54:11</time>
      </trkpt>
      <trkpt lat="42.83676" lon="-0.48247">
        <ele>1772.6</ele>
        <time>2021-08-10 08:54:12</time>
      </trkpt>
      <trkpt lat="42.83676" lon="-0.48247">
        <ele>1772.6</ele>
        <time>2021-08-10 08:54:13</time>
      </trkpt>
      <trkpt lat="42.83677" lon="-0.48246">
        <ele>1772.2</ele>
        <time>2021-08-10 08:54:14</time>
      </trkpt>
      <trkpt lat="42.83677" lon="-0.48245">
        <ele>1772</ele>
        <time>2021-08-10 08:54:15</time>
      </trkpt>
      <trkpt lat="42.83678" lon="-0.48245">
        <ele>1771.8</ele>
        <time>2021-08-10 08:54:16</time>
      </trkpt>
      <trkpt lat="42.83678" lon="-0.48244">
        <ele>1771.8</ele>
        <time>2021-08-10 08:54:17</time>
      </trkpt>
      <trkpt lat="42.83678" lon="-0.48244">
        <ele>1771.8</ele>
        <time>2021-08-10 08:54:18</time>
      </trkpt>
      <trkpt lat="42.83679" lon="-0.48243">
        <ele>1771.6</ele>
        <time>2021-08-10 08:54:19</time>
      </trkpt>
      <trkpt lat="42.83679" lon="-0.48242">
        <ele>1771.6</ele>
        <time>2021-08-10 08:54:20</time>
      </trkpt>
      <trkpt lat="42.83679" lon="-0.48242">
        <ele>1771.2</ele>
        <time>2021-08-10 08:54:21</time>
      </trkpt>
      <trkpt lat="42.83679" lon="-0.48241">
        <ele>1771.4</ele>
        <time>2021-08-10 08:54:22</time>
      </trkpt>
      <trkpt lat="42.83678" lon="-0.48242">
        <ele>1770.8</ele>
        <time>2021-08-10 08:54:23</time>
      </trkpt>
      <trkpt lat="42.83678" lon="-0.48241">
        <ele>1770.6</ele>
        <time>2021-08-10 08:54:24</time>
      </trkpt>
      <trkpt lat="42.83678" lon="-0.48241">
        <ele>1770.4</ele>
        <time>2021-08-10 08:54:25</time>
      </trkpt>
      <trkpt lat="42.83678" lon="-0.4824">
        <ele>1770.6</ele>
        <time>2021-08-10 08:54:26</time>
      </trkpt>
      <trkpt lat="42.83678" lon="-0.48239">
        <ele>1770.4</ele>
        <time>2021-08-10 08:54:27</time>
      </trkpt>
      <trkpt lat="42.83678" lon="-0.48239">
        <ele>1770.2</ele>
        <time>2021-08-10 08:54:28</time>
      </trkpt>
      <trkpt lat="42.83678" lon="-0.48238">
        <ele>1770</ele>
        <time>2021-08-10 08:54:29</time>
      </trkpt>
      <trkpt lat="42.83678" lon="-0.48237">
        <ele>1769.8</ele>
        <time>2021-08-10 08:54:30</time>
      </trkpt>
      <trkpt lat="42.83677" lon="-0.48237">
        <ele>1769.6</ele>
        <time>2021-08-10 08:54:31</time>
      </trkpt>
      <trkpt lat="42.83677" lon="-0.48236">
        <ele>1769.6</ele>
      </trkpt>
      <trkpt lat="42.83676" lon="-0.48236">
        <ele>1769.4</ele>
        <time>2021-08-10 08:54:32</time>
      </trkpt>
      <trkpt lat="42.83676" lon="-0.48235">
        <ele>1769.2</ele>
        <time>2021-08-10 08:54:33</time>
      </trkpt>
      <trkpt lat="42.83677" lon="-0.48234">
        <ele>1769.2</ele>
        <time>2021-08-10 08:54:34</time>
      </trkpt>
      <trkpt lat="42.83677" lon="-0.48233">
        <ele>1769</ele>
        <time>2021-08-10 08:54:35</time>
      </trkpt>
      <trkpt lat="42.83677" lon="-0.48233">
        <ele>1769</ele>
        <time>2021-08-10 08:54:36</time>
      </trkpt>
      <trkpt lat="42.83676" lon="-0.48232">
        <ele>1768.8</ele>
        <time>2021-08-10 08:54:37</time>
      </trkpt>
      <trkpt lat="42.83676" lon="-0.48232">
        <ele>1768.2</ele>
        <time>2021-08-10 08:54:38</time>
      </trkpt>
      <trkpt lat="42.83676" lon="-0.48231">
        <ele>1768</ele>
        <time>2021-08-10 08:54:39</time>
      </trkpt>
      <trkpt lat="42.83676" lon="-0.4823">
        <ele>1767.8</ele>
        <time>2021-08-10 08:54:40</time>
      </trkpt>
      <trkpt lat="42.83675" lon="-0.48229">
        <ele>1767.8</ele>
        <time>2021-08-10 08:54:42</time>
      </trkpt>
      <trkpt lat="42.83675" lon="-0.48228">
        <ele>1767.8</ele>
      </trkpt>
      <trkpt lat="42.83675" lon="-0.48227">
        <ele>1767.8</ele>
        <time>2021-08-10 08:54:43</time>
      </trkpt>
      <trkpt lat="42.83676" lon="-0.48227">
        <ele>1767.6</ele>
        <time>2021-08-10 08:54:44</time>
      </trkpt>
      <trkpt lat="42.83675" lon="-0.48226">
        <ele>1767.4</ele>
        <time>2021-08-10 08:54:45</time>
      </trkpt>
      <trkpt lat="42.83675" lon="-0.48225">
        <ele>1767.2</ele>
        <time>2021-08-10 08:54:51</time>
      </trkpt>
      <trkpt lat="42.83675" lon="-0.48224">
        <ele>1767</ele>
        <time>2021-08-10 08:54:52</time>
      </trkpt>
      <trkpt lat="42.83675" lon="-0.48223">
        <ele>1766.8</ele>
        <time>2021-08-10 08:54:53</time>
      </trkpt>
      <trkpt lat="42.83675" lon="-0.48223">
        <ele>1766.6</ele>
        <time>2021-08-10 08:54:54</time>
      </trkpt>
      <trkpt lat="42.83676" lon="-0.48222">
        <ele>1766.6</ele>
        <time>2021-08-10 08:54:55</time>
      </trkpt>
      <trkpt lat="42.83676" lon="-0.48221">
        <ele>1766.4</ele>
        <time>2021-08-10 08:54:56</time>
      </trkpt>
      <trkpt lat="42.83675" lon="-0.48221">
        <ele>1766.4</ele>
        <time>2021-08-10 08:54:57</time>
      </trkpt>
      <trkpt lat="42.83675" lon="-0.48221">
        <ele>1766.2</ele>
        <time>2021-08-10 08:54:58</time>
      </trkpt>
      <trkpt lat="42.83674" lon="-0.4822">
        <ele>1765.8</ele>
        <time>2021-08-10 08:54:59</time>
      </trkpt>
      <trkpt lat="42.83674" lon="-0.48219">
        <ele>1765.8</ele>
        <time>2021-08-10 08:55:00</time>
      </trkpt>
      <trkpt lat="42.83674" lon="-0.48219">
        <ele>1765.4</ele>
        <time>2021-08-10 08:55:01</time>
      </trkpt>
      <trkpt lat="42.83674" lon="-0.48218">
        <ele>1765.4</ele>
        <time>2021-08-10 08:55:02</time>
      </trkpt>
      <trkpt lat="42.83674" lon="-0.48217">
        <ele>1765.4</ele>
        <time>2021-08-10 08:55:03</time>
      </trkpt>
      <trkpt lat="42.83675" lon="-0.48216">
        <ele>1765.2</ele>
        <time>2021-08-10 08:55:04</time>
      </trkpt>
      <trkpt lat="42.83675" lon="-0.48215">
        <ele>1765</ele>
        <time>2021-08-10 08:55:05</time>
      </trkpt>
      <trkpt lat="42.83675" lon="-0.48214">
        <ele>1764.8</ele>
        <time>2021-08-10 08:55:06</time>
      </trkpt>
      <trkpt lat="42.83675" lon="-0.48212">
        <ele>1764.4</ele>
        <time>2021-08-10 08:55:07</time>
      </trkpt>
      <trkpt lat="42.83675" lon="-0.48211">
        <ele>1764.4</ele>
        <time>2021-08-10 08:55:08</time>
      </trkpt>
      <trkpt lat="42.83675" lon="-0.4821">
        <ele>1764.4</ele>
        <time>2021-08-10 08:55:09</time>
      </trkpt>
      <trkpt lat="42.83675" lon="-0.48209">
        <ele>1764.2</ele>
        <time>2021-08-10 08:55:10</time>
      </trkpt>
      <trkpt lat="42.83675" lon="-0.48207">
        <ele>1764.2</ele>
        <time>2021-08-10 08:55:11</time>
      </trkpt>
      <trkpt lat="42.83676" lon="-0.48206">
        <ele>1764.2</ele>
        <time>2021-08-10 08:55:12</time>
      </trkpt>
      <trkpt lat="42.83676" lon="-0.48205">
        <ele>1764.4</ele>
        <time>2021-08-10 08:55:13</time>
      </trkpt>
      <trkpt lat="42.83676" lon="-0.48205">
        <ele>1764.2</ele>
        <time>2021-08-10 08:55:14</time>
      </trkpt>
      <trkpt lat="42.83677" lon="-0.48204">
        <ele>1763.8</ele>
        <time>2021-08-10 08:55:15</time>
      </trkpt>
      <trkpt lat="42.83677" lon="-0.48203">
        <ele>1763.6</ele>
        <time>2021-08-10 08:55:16</time>
      </trkpt>
      <trkpt lat="42.83677" lon="-0.48203">
        <ele>1763.2</ele>
        <time>2021-08-10 08:55:17</time>
      </trkpt>
      <trkpt lat="42.83677" lon="-0.48202">
        <ele>1763.2</ele>
        <time>2021-08-10 08:55:18</time>
      </trkpt>
      <trkpt lat="42.83676" lon="-0.48202">
        <ele>1762.8</ele>
        <time>2021-08-10 08:55:19</time>
      </trkpt>
      <trkpt lat="42.83675" lon="-0.48202">
        <ele>1762.6</ele>
        <time>2021-08-10 08:55:20</time>
      </trkpt>
      <trkpt lat="42.83675" lon="-0.48202">
        <ele>1762.6</ele>
        <time>2021-08-10 08:55:21</time>
      </trkpt>
      <trkpt lat="42.83674" lon="-0.48202">
        <ele>1762.4</ele>
        <time>2021-08-10 08:55:22</time>
      </trkpt>
      <trkpt lat="42.83674" lon="-0.48202">
        <ele>1762</ele>
        <time>2021-08-10 08:55:23</time>
      </trkpt>
      <trkpt lat="42.83674" lon="-0.48203">
        <ele>1762</ele>
        <time>2021-08-10 08:55:24</time>
      </trkpt>
      <trkpt lat="42.83673" lon="-0.48204">
        <ele>1761.8</ele>
        <time>2021-08-10 08:55:25</time>
      </trkpt>
      <trkpt lat="42.83673" lon="-0.48204">
        <ele>1761.8</ele>
        <time>2021-08-10 08:55:26</time>
      </trkpt>
      <trkpt lat="42.83672" lon="-0.48204">
        <ele>1761.8</ele>
        <time>2021-08-10 08:55:27</time>
      </trkpt>
      <trkpt lat="42.83672" lon="-0.48204">
        <ele>1761.8</ele>
        <time>2021-08-10 08:55:28</time>
      </trkpt>
      <trkpt lat="42.83671" lon="-0.48204">
        <ele>1761.8</ele>
        <time>2021-08-10 08:55:29</time>
      </trkpt>
      <trkpt lat="42.83671" lon="-0.48204">
        <ele>1761.8</ele>
        <time>2021-08-10 08:55:30</time>
      </trkpt>
      <trkpt lat="42.8367" lon="-0.48204">
        <ele>1761.8</ele>
        <time>2021-08-10 08:55:31</time>
      </trkpt>
      <trkpt lat="42.8367" lon="-0.48204">
        <ele>1761.4</ele>
        <time>2021-08-10 08:55:32</time>
      </trkpt>
      <trkpt lat="42.8367" lon="-0.48203">
        <ele>1761.2</ele>
        <time>2021-08-10 08:55:33</time>
      </trkpt>
      <trkpt lat="42.8367" lon="-0.48203">
        <ele>1761</ele>
        <time>2021-08-10 08:55:34</time>
      </trkpt>
      <trkpt lat="42.83669" lon="-0.48203">
        <ele>1761</ele>
        <time>2021-08-10 08:55:35</time>
      </trkpt>
      <trkpt lat="42.83669" lon="-0.48203">
        <ele>1760.8</ele>
        <time>2021-08-10 08:55:36</time>
      </trkpt>
      <trkpt lat="42.83668" lon="-0.48203">
        <ele>1760.6</ele>
        <time>2021-08-10 08:55:37</time>
      </trkpt>
      <trkpt lat="42.83667" lon="-0.48203">
        <ele>1760.4</ele>
        <time>2021-08-10 08:55:38</time>
      </trkpt>
      <trkpt lat="42.83666" lon="-0.48203">
        <ele>1760.4</ele>
        <time>2021-08-10 08:55:39</time>
      </trkpt>
      <trkpt lat="42.83665" lon="-0.48202">
        <ele>1760.4</ele>
        <time>2021-08-10 08:55:40</time>
      </trkpt>
      <trkpt lat="42.83665" lon="-0.48202">
        <ele>1760.2</ele>
        <time>2021-08-10 08:55:41</time>
      </trkpt>
      <trkpt lat="42.83664" lon="-0.48202">
        <ele>1759.8</ele>
        <time>2021-08-10 08:55:42</time>
      </trkpt>
      <trkpt lat="42.83662" lon="-0.48202">
        <ele>1759.6</ele>
        <time>2021-08-10 08:55:43</time>
      </trkpt>
      <trkpt lat="42.83662" lon="-0.48201">
        <ele>1759.4</ele>
        <time>2021-08-10 08:55:44</time>
      </trkpt>
      <trkpt lat="42.83661" lon="-0.482">
        <ele>1759.2</ele>
        <time>2021-08-10 08:55:45</time>
      </trkpt>
      <trkpt lat="42.83661" lon="-0.482">
        <ele>1759.2</ele>
        <time>2021-08-10 08:55:46</time>
      </trkpt>
      <trkpt lat="42.8366" lon="-0.48199">
        <ele>1759</ele>
        <time>2021-08-10 08:55:47</time>
      </trkpt>
      <trkpt lat="42.8366" lon="-0.48199">
        <ele>1759</ele>
        <time>2021-08-10 08:55:48</time>
      </trkpt>
      <trkpt lat="42.83659" lon="-0.48198">
        <ele>1758.8</ele>
        <time>2021-08-10 08:55:49</time>
      </trkpt>
      <trkpt lat="42.83659" lon="-0.48197">
        <ele>1758.2</ele>
        <time>2021-08-10 08:55:50</time>
      </trkpt>
      <trkpt lat="42.83659" lon="-0.48196">
        <ele>1758</ele>
        <time>2021-08-10 08:55:51</time>
      </trkpt>
      <trkpt lat="42.83659" lon="-0.48195">
        <ele>1757.8</ele>
        <time>2021-08-10 08:55:52</time>
      </trkpt>
      <trkpt lat="42.83659" lon="-0.48195">
        <ele>1757.6</ele>
        <time>2021-08-10 08:55:53</time>
      </trkpt>
      <trkpt lat="42.83658" lon="-0.48195">
        <ele>1757.4</ele>
        <time>2021-08-10 08:55:54</time>
      </trkpt>
      <trkpt lat="42.83658" lon="-0.48194">
        <ele>1757.2</ele>
        <time>2021-08-10 08:55:55</time>
      </trkpt>
      <trkpt lat="42.83658" lon="-0.48193">
        <ele>1757</ele>
        <time>2021-08-10 08:55:56</time>
      </trkpt>
      <trkpt lat="42.83659" lon="-0.48191">
        <ele>1756.8</ele>
        <time>2021-08-10 08:55:57</time>
      </trkpt>
      <trkpt lat="42.8366" lon="-0.4819">
        <ele>1756.6</ele>
        <time>2021-08-10 08:55:58</time>
      </trkpt>
      <trkpt lat="42.83661" lon="-0.48189">
        <ele>1756.4</ele>
        <time>2021-08-10 08:55:59</time>
      </trkpt>
      <trkpt lat="42.83662" lon="-0.48188">
        <ele>1756.4</ele>
        <time>2021-08-10 08:56:00</time>
      </trkpt>
      <trkpt lat="42.83662" lon="-0.48187">
        <ele>1756</ele>
        <time>2021-08-10 08:56:01</time>
      </trkpt>
      <trkpt lat="42.83662" lon="-0.48185">
        <ele>1756</ele>
        <time>2021-08-10 08:56:02</time>
      </trkpt>
      <trkpt lat="42.83662" lon="-0.48183">
        <ele>1755.6</ele>
        <time>2021-08-10 08:56:03</time>
      </trkpt>
      <trkpt lat="42.83662" lon="-0.48182">
        <ele>1755.6</ele>
        <time>2021-08-10 08:56:04</time>
      </trkpt>
      <trkpt lat="42.83661" lon="-0.48182">
        <ele>1755.4</ele>
        <time>2021-08-10 08:56:05</time>
      </trkpt>
      <trkpt lat="42.83661" lon="-0.48181">
        <ele>1755.2</ele>
        <time>2021-08-10 08:56:06</time>
      </trkpt>
      <trkpt lat="42.83661" lon="-0.4818">
        <ele>1755.2</ele>
        <time>2021-08-10 08:56:07</time>
      </trkpt>
      <trkpt lat="42.83662" lon="-0.4818">
        <ele>1755</ele>
        <time>2021-08-10 08:56:08</time>
      </trkpt>
      <trkpt lat="42.83662" lon="-0.48179">
        <ele>1754.8</ele>
        <time>2021-08-10 08:56:09</time>
      </trkpt>
      <trkpt lat="42.83662" lon="-0.48178">
        <ele>1754.6</ele>
        <time>2021-08-10 08:56:10</time>
      </trkpt>
      <trkpt lat="42.83663" lon="-0.48177">
        <ele>1754.6</ele>
        <time>2021-08-10 08:56:11</time>
      </trkpt>
      <trkpt lat="42.83663" lon="-0.48176">
        <ele>1754.6</ele>
        <time>2021-08-10 08:56:12</time>
      </trkpt>
      <trkpt lat="42.83663" lon="-0.48175">
        <ele>1754.6</ele>
        <time>2021-08-10 08:56:13</time>
      </trkpt>
      <trkpt lat="42.83664" lon="-0.48174">
        <ele>1754.4</ele>
        <time>2021-08-10 08:56:14</time>
      </trkpt>
      <trkpt lat="42.83665" lon="-0.48173">
        <ele>1754.2</ele>
        <time>2021-08-10 08:56:15</time>
      </trkpt>
      <trkpt lat="42.83665" lon="-0.48171">
        <ele>1753.8</ele>
        <time>2021-08-10 08:56:16</time>
      </trkpt>
      <trkpt lat="42.83666" lon="-0.4817">
        <ele>1753.6</ele>
        <time>2021-08-10 08:56:17</time>
      </trkpt>
      <trkpt lat="42.83666" lon="-0.48169">
        <ele>1753.4</ele>
        <time>2021-08-10 08:56:18</time>
      </trkpt>
      <trkpt lat="42.83666" lon="-0.48167">
        <ele>1753.4</ele>
        <time>2021-08-10 08:56:19</time>
      </trkpt>
      <trkpt lat="42.83666" lon="-0.48166">
        <ele>1753.4</ele>
        <time>2021-08-10 08:56:20</time>
      </trkpt>
      <trkpt lat="42.83666" lon="-0.48164">
        <ele>1753.2</ele>
        <time>2021-08-10 08:56:21</time>
      </trkpt>
      <trkpt lat="42.83667" lon="-0.48164">
        <ele>1752.8</ele>
        <time>2021-08-10 08:56:22</time>
      </trkpt>
      <trkpt lat="42.83668" lon="-0.48163">
        <ele>1752.6</ele>
        <time>2021-08-10 08:56:23</time>
      </trkpt>
      <trkpt lat="42.83668" lon="-0.48162">
        <ele>1752.6</ele>
        <time>2021-08-10 08:56:24</time>
      </trkpt>
      <trkpt lat="42.83669" lon="-0.48161">
        <ele>1752.8</ele>
        <time>2021-08-10 08:56:25</time>
      </trkpt>
      <trkpt lat="42.83669" lon="-0.4816">
        <ele>1752.6</ele>
        <time>2021-08-10 08:56:26</time>
      </trkpt>
      <trkpt lat="42.83669" lon="-0.4816">
        <ele>1752.4</ele>
        <time>2021-08-10 08:56:27</time>
      </trkpt>
      <trkpt lat="42.83669" lon="-0.4816">
        <ele>1752.4</ele>
        <time>2021-08-10 08:56:28</time>
      </trkpt>
      <trkpt lat="42.83669" lon="-0.48161">
        <ele>1752.2</ele>
        <time>2021-08-10 08:56:29</time>
      </trkpt>
      <trkpt lat="42.83669" lon="-0.4816">
        <ele>1752</ele>
        <time>2021-08-10 08:56:30</time>
      </trkpt>
      <trkpt lat="42.83669" lon="-0.4816">
        <ele>1751.8</ele>
        <time>2021-08-10 08:56:31</time>
      </trkpt>
      <trkpt lat="42.83669" lon="-0.48161">
        <ele>1751.6</ele>
        <time>2021-08-10 08:56:32</time>
      </trkpt>
      <trkpt lat="42.83668" lon="-0.48162">
        <ele>1751.6</ele>
        <time>2021-08-10 08:56:33</time>
      </trkpt>
      <trkpt lat="42.83668" lon="-0.48161">
        <ele>1751.4</ele>
        <time>2021-08-10 08:56:34</time>
      </trkpt>
      <trkpt lat="42.83668" lon="-0.48162">
        <ele>1751.2</ele>
        <time>2021-08-10 08:56:35</time>
      </trkpt>
      <trkpt lat="42.83667" lon="-0.48162">
        <ele>1750.8</ele>
        <time>2021-08-10 08:56:36</time>
      </trkpt>
      <trkpt lat="42.83667" lon="-0.48162">
        <ele>1751</ele>
        <time>2021-08-10 08:56:37</time>
      </trkpt>
      <trkpt lat="42.83666" lon="-0.48162">
        <ele>1750.8</ele>
        <time>2021-08-10 08:56:38</time>
      </trkpt>
      <trkpt lat="42.83665" lon="-0.48162">
        <ele>1750.6</ele>
        <time>2021-08-10 08:56:39</time>
      </trkpt>
      <trkpt lat="42.83665" lon="-0.48162">
        <ele>1750.6</ele>
        <time>2021-08-10 08:56:40</time>
      </trkpt>
      <trkpt lat="42.83664" lon="-0.48162">
        <ele>1750.4</ele>
        <time>2021-08-10 08:56:41</time>
      </trkpt>
      <trkpt lat="42.83663" lon="-0.48162">
        <ele>1750.4</ele>
        <time>2021-08-10 08:56:42</time>
      </trkpt>
      <trkpt lat="42.83663" lon="-0.48161">
        <ele>1750.2</ele>
        <time>2021-08-10 08:56:43</time>
      </trkpt>
      <trkpt lat="42.83662" lon="-0.48161">
        <ele>1750.2</ele>
        <time>2021-08-10 08:56:44</time>
      </trkpt>
      <trkpt lat="42.83661" lon="-0.48161">
        <ele>1750</ele>
        <time>2021-08-10 08:56:45</time>
      </trkpt>
      <trkpt lat="42.83661" lon="-0.48162">
        <ele>1749.6</ele>
        <time>2021-08-10 08:56:46</time>
      </trkpt>
      <trkpt lat="42.83661" lon="-0.48162">
        <ele>1749.4</ele>
        <time>2021-08-10 08:56:47</time>
      </trkpt>
      <trkpt lat="42.8366" lon="-0.48162">
        <ele>1749.2</ele>
        <time>2021-08-10 08:56:48</time>
      </trkpt>
      <trkpt lat="42.8366" lon="-0.48162">
        <ele>1749.4</ele>
        <time>2021-08-10 08:56:49</time>
      </trkpt>
      <trkpt lat="42.8366" lon="-0.48162">
        <ele>1749</ele>
        <time>2021-08-10 08:56:50</time>
      </trkpt>
      <trkpt lat="42.83659" lon="-0.48163">
        <ele>1748.8</ele>
        <time>2021-08-10 08:56:51</time>
      </trkpt>
      <trkpt lat="42.83659" lon="-0.48162">
        <ele>1748.4</ele>
        <time>2021-08-10 08:56:52</time>
      </trkpt>
      <trkpt lat="42.83659" lon="-0.48162">
        <ele>1748.2</ele>
        <time>2021-08-10 08:56:53</time>
      </trkpt>
      <trkpt lat="42.83659" lon="-0.48162">
        <ele>1748</ele>
        <time>2021-08-10 08:56:54</time>
      </trkpt>
      <trkpt lat="42.83658" lon="-0.48162">
        <ele>1748</ele>
        <time>2021-08-10 08:56:55</time>
      </trkpt>
      <trkpt lat="42.83658" lon="-0.48162">
        <ele>1748.2</ele>
        <time>2021-08-10 08:56:56</time>
      </trkpt>
      <trkpt lat="42.83658" lon="-0.48162">
        <ele>1748</ele>
        <time>2021-08-10 08:56:57</time>
      </trkpt>
      <trkpt lat="42.83657" lon="-0.48162">
        <ele>1748</ele>
        <time>2021-08-10 08:56:58</time>
      </trkpt>
      <trkpt lat="42.83657" lon="-0.48162">
        <ele>1747.8</ele>
        <time>2021-08-10 08:56:59</time>
      </trkpt>
      <trkpt lat="42.83657" lon="-0.48162">
        <ele>1747.8</ele>
        <time>2021-08-10 08:57:00</time>
      </trkpt>
      <trkpt lat="42.83656" lon="-0.48162">
        <ele>1747.6</ele>
        <time>2021-08-10 08:57:01</time>
      </trkpt>
      <trkpt lat="42.83656" lon="-0.48161">
        <ele>1747.8</ele>
        <time>2021-08-10 08:57:02</time>
      </trkpt>
      <trkpt lat="42.83656" lon="-0.48161">
        <ele>1747.6</ele>
        <time>2021-08-10 08:57:03</time>
      </trkpt>
      <trkpt lat="42.83655" lon="-0.48162">
        <ele>1747.4</ele>
        <time>2021-08-10 08:57:04</time>
      </trkpt>
      <trkpt lat="42.83655" lon="-0.48162">
        <ele>1747.4</ele>
        <time>2021-08-10 08:57:05</time>
      </trkpt>
      <trkpt lat="42.83655" lon="-0.48162">
        <ele>1747</ele>
        <time>2021-08-10 08:57:06</time>
      </trkpt>
      <trkpt lat="42.83655" lon="-0.48162">
        <ele>1746.8</ele>
        <time>2021-08-10 08:57:07</time>
      </trkpt>
      <trkpt lat="42.83655" lon="-0.48161">
        <ele>1746.6</ele>
        <time>2021-08-10 08:57:08</time>
      </trkpt>
      <trkpt lat="42.83654" lon="-0.48161">
        <ele>1746.4</ele>
        <time>2021-08-10 08:57:09</time>
      </trkpt>
      <trkpt lat="42.83654" lon="-0.48161">
        <ele>1746.2</ele>
        <time>2021-08-10 08:57:10</time>
      </trkpt>
      <trkpt lat="42.83653" lon="-0.48161">
        <ele>1746.2</ele>
        <time>2021-08-10 08:57:11</time>
      </trkpt>
      <trkpt lat="42.83653" lon="-0.48161">
        <ele>1745.8</ele>
        <time>2021-08-10 08:57:12</time>
      </trkpt>
      <trkpt lat="42.83652" lon="-0.48161">
        <ele>1745.8</ele>
        <time>2021-08-10 08:57:13</time>
      </trkpt>
      <trkpt lat="42.83651" lon="-0.48161">
        <ele>1745.6</ele>
        <time>2021-08-10 08:57:14</time>
      </trkpt>
      <trkpt lat="42.83651" lon="-0.4816">
        <ele>1745.4</ele>
        <time>2021-08-10 08:57:15</time>
      </trkpt>
      <trkpt lat="42.83651" lon="-0.4816">
        <ele>1745.2</ele>
        <time>2021-08-10 08:57:16</time>
      </trkpt>
      <trkpt lat="42.83651" lon="-0.4816">
        <ele>1745.2</ele>
        <time>2021-08-10 08:57:17</time>
      </trkpt>
      <trkpt lat="42.8365" lon="-0.48159">
        <ele>1745.4</ele>
        <time>2021-08-10 08:57:18</time>
      </trkpt>
      <trkpt lat="42.8365" lon="-0.48158">
        <ele>1745.2</ele>
        <time>2021-08-10 08:57:19</time>
      </trkpt>
      <trkpt lat="42.8365" lon="-0.48158">
        <ele>1744.6</ele>
        <time>2021-08-10 08:57:20</time>
      </trkpt>
      <trkpt lat="42.83649" lon="-0.48158">
        <ele>1744.4</ele>
        <time>2021-08-10 08:57:21</time>
      </trkpt>
      <trkpt lat="42.83649" lon="-0.48157">
        <ele>1744.4</ele>
        <time>2021-08-10 08:57:22</time>
      </trkpt>
      <trkpt lat="42.83649" lon="-0.48157">
        <ele>1744.2</ele>
        <time>2021-08-10 08:57:23</time>
      </trkpt>
      <trkpt lat="42.83648" lon="-0.48156">
        <ele>1744</ele>
        <time>2021-08-10 08:57:24</time>
      </trkpt>
      <trkpt lat="42.83648" lon="-0.48156">
        <ele>1744</ele>
        <time>2021-08-10 08:57:25</time>
      </trkpt>
      <trkpt lat="42.83648" lon="-0.48156">
        <ele>1744</ele>
        <time>2021-08-10 08:57:26</time>
      </trkpt>
      <trkpt lat="42.83648" lon="-0.48155">
        <ele>1743.8</ele>
        <time>2021-08-10 08:57:27</time>
      </trkpt>
      <trkpt lat="42.83648" lon="-0.48154">
        <ele>1743.8</ele>
        <time>2021-08-10 08:57:28</time>
      </trkpt>
      <trkpt lat="42.83648" lon="-0.48154">
        <ele>1743.6</ele>
        <time>2021-08-10 08:57:29</time>
      </trkpt>
      <trkpt lat="42.83648" lon="-0.48153">
        <ele>1743.6</ele>
        <time>2021-08-10 08:57:30</time>
      </trkpt>
      <trkpt lat="42.83648" lon="-0.48152">
        <ele>1743.2</ele>
        <time>2021-08-10 08:57:31</time>
      </trkpt>
      <trkpt lat="42.83647" lon="-0.48151">
        <ele>1743</ele>
        <time>2021-08-10 08:57:32</time>
      </trkpt>
      <trkpt lat="42.83647" lon="-0.48151">
        <ele>1742.8</ele>
        <time>2021-08-10 08:57:33</time>
      </trkpt>
      <trkpt lat="42.83647" lon="-0.4815">
        <ele>1744.2</ele>
        <time>2021-08-10 08:57:34</time>
      </trkpt>
      <trkpt lat="42.83646" lon="-0.48149">
        <ele>1743.2</ele>
        <time>2021-08-10 08:57:35</time>
      </trkpt>
      <trkpt lat="42.83646" lon="-0.48148">
        <ele>1743</ele>
        <time>2021-08-10 08:57:36</time>
      </trkpt>
      <trkpt lat="42.83647" lon="-0.48148">
        <ele>1742.2</ele>
        <time>2021-08-10 08:57:37</time>
      </trkpt>
      <trkpt lat="42.83646" lon="-0.48147">
        <ele>1742.2</ele>
        <time>2021-08-10 08:57:38</time>
      </trkpt>
      <trkpt lat="42.83646" lon="-0.48146">
        <ele>1742.2</ele>
        <time>2021-08-10 08:57:39</time>
      </trkpt>
      <trkpt lat="42.83645" lon="-0.48145">
        <ele>1742.2</ele>
        <time>2021-08-10 08:57:40</time>
      </trkpt>
      <trkpt lat="42.83645" lon="-0.48145">
        <ele>1742.2</ele>
        <time>2021-08-10 08:57:41</time>
      </trkpt>
      <trkpt lat="42.83644" lon="-0.48145">
        <ele>1742</ele>
        <time>2021-08-10 08:57:42</time>
      </trkpt>
      <trkpt lat="42.83644" lon="-0.48145">
        <ele>1741.4</ele>
        <time>2021-08-10 08:57:43</time>
      </trkpt>
      <trkpt lat="42.83643" lon="-0.48145">
        <ele>1741.2</ele>
        <time>2021-08-10 08:57:44</time>
      </trkpt>
      <trkpt lat="42.83644" lon="-0.48144">
        <ele>1741.6</ele>
        <time>2021-08-10 08:57:45</time>
      </trkpt>
      <trkpt lat="42.83644" lon="-0.48143">
        <ele>1741.4</ele>
        <time>2021-08-10 08:57:46</time>
      </trkpt>
      <trkpt lat="42.83644" lon="-0.48144">
        <ele>1741.4</ele>
        <time>2021-08-10 08:57:47</time>
      </trkpt>
      <trkpt lat="42.83645" lon="-0.48142">
        <ele>1741.4</ele>
        <time>2021-08-10 08:57:48</time>
      </trkpt>
      <trkpt lat="42.83646" lon="-0.48142">
        <ele>1741.4</ele>
        <time>2021-08-10 08:57:49</time>
      </trkpt>
      <trkpt lat="42.83646" lon="-0.48141">
        <ele>1741.2</ele>
        <time>2021-08-10 08:57:50</time>
      </trkpt>
      <trkpt lat="42.83646" lon="-0.4814">
        <ele>1741</ele>
        <time>2021-08-10 08:57:51</time>
      </trkpt>
      <trkpt lat="42.83646" lon="-0.48139">
        <ele>1740.8</ele>
        <time>2021-08-10 08:57:52</time>
      </trkpt>
      <trkpt lat="42.83647" lon="-0.48139">
        <ele>1740.4</ele>
        <time>2021-08-10 08:57:53</time>
      </trkpt>
      <trkpt lat="42.83647" lon="-0.48139">
        <ele>1740</ele>
        <time>2021-08-10 08:57:54</time>
      </trkpt>
      <trkpt lat="42.83647" lon="-0.48138">
        <ele>1739.6</ele>
        <time>2021-08-10 08:57:55</time>
      </trkpt>
      <trkpt lat="42.83647" lon="-0.48137">
        <ele>1739.6</ele>
        <time>2021-08-10 08:57:56</time>
      </trkpt>
      <trkpt lat="42.83647" lon="-0.48136">
        <ele>1739.4</ele>
        <time>2021-08-10 08:57:57</time>
      </trkpt>
      <trkpt lat="42.83647" lon="-0.48135">
        <ele>1739.4</ele>
        <time>2021-08-10 08:57:58</time>
      </trkpt>
      <trkpt lat="42.83648" lon="-0.48133">
        <ele>1739.2</ele>
        <time>2021-08-10 08:57:59</time>
      </trkpt>
      <trkpt lat="42.83647" lon="-0.48133">
        <ele>1738.8</ele>
        <time>2021-08-10 08:58:00</time>
      </trkpt>
      <trkpt lat="42.83647" lon="-0.48132">
        <ele>1738.6</ele>
        <time>2021-08-10 08:58:01</time>
      </trkpt>
      <trkpt lat="42.83647" lon="-0.48131">
        <ele>1738.6</ele>
        <time>2021-08-10 08:58:02</time>
      </trkpt>
      <trkpt lat="42.83648" lon="-0.48131">
        <ele>1738.2</ele>
        <time>2021-08-10 08:58:03</time>
      </trkpt>
      <trkpt lat="42.83648" lon="-0.4813">
        <ele>1738</ele>
        <time>2021-08-10 08:58:04</time>
      </trkpt>
      <trkpt lat="42.83649" lon="-0.4813">
        <ele>1737.8</ele>
        <time>2021-08-10 08:58:05</time>
      </trkpt>
      <trkpt lat="42.83649" lon="-0.4813">
        <ele>1737.4</ele>
        <time>2021-08-10 08:58:06</time>
      </trkpt>
      <trkpt lat="42.83649" lon="-0.4813">
        <ele>1737.2</ele>
        <time>2021-08-10 08:58:07</time>
      </trkpt>
      <trkpt lat="42.83649" lon="-0.4813">
        <ele>1737.2</ele>
        <time>2021-08-10 08:58:08</time>
      </trkpt>
      <trkpt lat="42.83649" lon="-0.48129">
        <ele>1736.8</ele>
        <time>2021-08-10 08:58:09</time>
      </trkpt>
      <trkpt lat="42.8365" lon="-0.48128">
        <ele>1736.8</ele>
        <time>2021-08-10 08:58:10</time>
      </trkpt>
      <trkpt lat="42.8365" lon="-0.48126">
        <ele>1736.4</ele>
        <time>2021-08-10 08:58:11</time>
      </trkpt>
      <trkpt lat="42.83649" lon="-0.48125">
        <ele>1736.4</ele>
        <time>2021-08-10 08:58:12</time>
      </trkpt>
      <trkpt lat="42.83649" lon="-0.48124">
        <ele>1736</ele>
        <time>2021-08-10 08:58:13</time>
      </trkpt>
      <trkpt lat="42.83649" lon="-0.48122">
        <ele>1735.8</ele>
        <time>2021-08-10 08:58:14</time>
      </trkpt>
      <trkpt lat="42.83649" lon="-0.48121">
        <ele>1735.8</ele>
        <time>2021-08-10 08:58:15</time>
      </trkpt>
      <trkpt lat="42.83649" lon="-0.4812">
        <ele>1735.6</ele>
        <time>2021-08-10 08:58:16</time>
      </trkpt>
      <trkpt lat="42.83649" lon="-0.48119">
        <ele>1735.4</ele>
        <time>2021-08-10 08:58:17</time>
      </trkpt>
      <trkpt lat="42.8365" lon="-0.48117">
        <ele>1735.2</ele>
        <time>2021-08-10 08:58:18</time>
      </trkpt>
      <trkpt lat="42.8365" lon="-0.48116">
        <ele>1734.8</ele>
        <time>2021-08-10 08:58:19</time>
      </trkpt>
      <trkpt lat="42.83649" lon="-0.48116">
        <ele>1734.6</ele>
        <time>2021-08-10 08:58:20</time>
      </trkpt>
      <trkpt lat="42.83649" lon="-0.48115">
        <ele>1734.6</ele>
        <time>2021-08-10 08:58:21</time>
      </trkpt>
      <trkpt lat="42.8365" lon="-0.48113">
        <ele>1734.4</ele>
        <time>2021-08-10 08:58:22</time>
      </trkpt>
      <trkpt lat="42.8365" lon="-0.48112">
        <ele>1734.2</ele>
        <time>2021-08-10 08:58:23</time>
      </trkpt>
      <trkpt lat="42.8365" lon="-0.48111">
        <ele>1734</ele>
        <time>2021-08-10 08:58:24</time>
      </trkpt>
      <trkpt lat="42.8365" lon="-0.4811">
        <ele>1733.8</ele>
        <time>2021-08-10 08:58:25</time>
      </trkpt>
      <trkpt lat="42.8365" lon="-0.48109">
        <ele>1733.6</ele>
        <time>2021-08-10 08:58:26</time>
      </trkpt>
      <trkpt lat="42.8365" lon="-0.48109">
        <ele>1733.4</ele>
        <time>2021-08-10 08:58:27</time>
      </trkpt>
      <trkpt lat="42.8365" lon="-0.48108">
        <ele>1733.2</ele>
        <time>2021-08-10 08:58:28</time>
      </trkpt>
      <trkpt lat="42.8365" lon="-0.48106">
        <ele>1733</ele>
        <time>2021-08-10 08:58:29</time>
      </trkpt>
      <trkpt lat="42.8365" lon="-0.48104">
        <ele>1732.6</ele>
        <time>2021-08-10 08:58:30</time>
      </trkpt>
      <trkpt lat="42.8365" lon="-0.48103">
        <ele>1732.6</ele>
        <time>2021-08-10 08:58:31</time>
      </trkpt>
      <trkpt lat="42.83649" lon="-0.48102">
        <ele>1732.2</ele>
        <time>2021-08-10 08:58:33</time>
      </trkpt>
      <trkpt lat="42.83649" lon="-0.48102">
        <ele>1732.2</ele>
        <time>2021-08-10 08:58:34</time>
      </trkpt>
      <trkpt lat="42.83649" lon="-0.48101">
        <ele>1731.8</ele>
        <time>2021-08-10 08:58:35</time>
      </trkpt>
      <trkpt lat="42.83649" lon="-0.481">
        <ele>1731.8</ele>
        <time>2021-08-10 08:58:36</time>
      </trkpt>
      <trkpt lat="42.83649" lon="-0.481">
        <ele>1731.8</ele>
        <time>2021-08-10 08:58:37</time>
      </trkpt>
      <trkpt lat="42.83649" lon="-0.481">
        <ele>1730</ele>
        <time>2021-08-10 08:58:38</time>
      </trkpt>
      <trkpt lat="42.83649" lon="-0.481">
        <ele>1729.4</ele>
        <time>2021-08-10 08:58:39</time>
      </trkpt>
      <trkpt lat="42.83648" lon="-0.481">
        <ele>1729.2</ele>
        <time>2021-08-10 08:58:40</time>
      </trkpt>
      <trkpt lat="42.83648" lon="-0.481">
        <ele>1730.6</ele>
        <time>2021-08-10 08:58:41</time>
      </trkpt>
      <trkpt lat="42.83648" lon="-0.48099">
        <ele>1730.8</ele>
        <time>2021-08-10 08:58:42</time>
      </trkpt>
      <trkpt lat="42.83648" lon="-0.48099">
        <ele>1730.8</ele>
        <time>2021-08-10 08:58:43</time>
      </trkpt>
      <trkpt lat="42.83649" lon="-0.48097">
        <ele>1730.6</ele>
        <time>2021-08-10 08:58:44</time>
      </trkpt>
      <trkpt lat="42.83649" lon="-0.48097">
        <ele>1730.4</ele>
        <time>2021-08-10 08:58:45</time>
      </trkpt>
      <trkpt lat="42.8365" lon="-0.48096">
        <ele>1730.2</ele>
        <time>2021-08-10 08:58:46</time>
      </trkpt>
      <trkpt lat="42.8365" lon="-0.48096">
        <ele>1730</ele>
        <time>2021-08-10 08:58:47</time>
      </trkpt>
      <trkpt lat="42.83651" lon="-0.48094">
        <ele>1729.8</ele>
        <time>2021-08-10 08:58:48</time>
      </trkpt>
      <trkpt lat="42.83651" lon="-0.48096">
        <ele>1729.8</ele>
        <time>2021-08-10 08:58:49</time>
      </trkpt>
      <trkpt lat="42.83652" lon="-0.48096">
        <ele>1729.6</ele>
        <time>2021-08-10 08:58:50</time>
      </trkpt>
      <trkpt lat="42.83652" lon="-0.48096">
        <ele>1729.4</ele>
        <time>2021-08-10 08:58:51</time>
      </trkpt>
      <trkpt lat="42.83652" lon="-0.48097">
        <ele>1729.2</ele>
        <time>2021-08-10 08:58:52</time>
      </trkpt>
      <trkpt lat="42.83652" lon="-0.48095">
        <ele>1728.8</ele>
        <time>2021-08-10 08:58:53</time>
      </trkpt>
      <trkpt lat="42.83653" lon="-0.48094">
        <ele>1729</ele>
        <time>2021-08-10 08:58:54</time>
      </trkpt>
      <trkpt lat="42.83654" lon="-0.48093">
        <ele>1728.8</ele>
        <time>2021-08-10 08:58:55</time>
      </trkpt>
      <trkpt lat="42.83654" lon="-0.48092">
        <ele>1728.6</ele>
        <time>2021-08-10 08:58:56</time>
      </trkpt>
      <trkpt lat="42.83655" lon="-0.4809">
        <ele>1729</ele>
        <time>2021-08-10 08:58:57</time>
      </trkpt>
      <trkpt lat="42.83656" lon="-0.48088">
        <ele>1728.8</ele>
        <time>2021-08-10 08:58:58</time>
      </trkpt>
      <trkpt lat="42.83656" lon="-0.48086">
        <ele>1728</ele>
        <time>2021-08-10 08:58:59</time>
      </trkpt>
      <trkpt lat="42.83657" lon="-0.48085">
        <ele>1728</ele>
        <time>2021-08-10 08:59:00</time>
      </trkpt>
      <trkpt lat="42.83658" lon="-0.48084">
        <ele>1727.8</ele>
        <time>2021-08-10 08:59:01</time>
      </trkpt>
      <trkpt lat="42.83659" lon="-0.48085">
        <ele>1727.6</ele>
        <time>2021-08-10 08:59:02</time>
      </trkpt>
      <trkpt lat="42.8366" lon="-0.48084">
        <ele>1727.6</ele>
        <time>2021-08-10 08:59:03</time>
      </trkpt>
      <trkpt lat="42.8366" lon="-0.48084">
        <ele>1727.4</ele>
        <time>2021-08-10 08:59:04</time>
      </trkpt>
      <trkpt lat="42.83661" lon="-0.48083">
        <ele>1727</ele>
        <time>2021-08-10 08:59:05</time>
      </trkpt>
      <trkpt lat="42.83662" lon="-0.48083">
        <ele>1726.8</ele>
        <time>2021-08-10 08:59:06</time>
      </trkpt>
      <trkpt lat="42.83663" lon="-0.48082">
        <ele>1726.6</ele>
        <time>2021-08-10 08:59:07</time>
      </trkpt>
      <trkpt lat="42.83664" lon="-0.48082">
        <ele>1726.4</ele>
        <time>2021-08-10 08:59:08</time>
      </trkpt>
      <trkpt lat="42.83665" lon="-0.48081">
        <ele>1726.4</ele>
        <time>2021-08-10 08:59:09</time>
      </trkpt>
      <trkpt lat="42.83667" lon="-0.48081">
        <ele>1726</ele>
        <time>2021-08-10 08:59:10</time>
      </trkpt>
      <trkpt lat="42.83668" lon="-0.48081">
        <ele>1726.2</ele>
        <time>2021-08-10 08:59:11</time>
      </trkpt>
      <trkpt lat="42.83668" lon="-0.48082">
        <ele>1726</ele>
        <time>2021-08-10 08:59:12</time>
      </trkpt>
      <trkpt lat="42.83669" lon="-0.48084">
        <ele>1726</ele>
        <time>2021-08-10 08:59:13</time>
      </trkpt>
      <trkpt lat="42.83669" lon="-0.48085">
        <ele>1725.8</ele>
        <time>2021-08-10 08:59:14</time>
      </trkpt>
      <trkpt lat="42.83669" lon="-0.48086">
        <ele>1725.6</ele>
        <time>2021-08-10 08:59:15</time>
      </trkpt>
      <trkpt lat="42.8367" lon="-0.48086">
        <ele>1725.4</ele>
        <time>2021-08-10 08:59:16</time>
      </trkpt>
      <trkpt lat="42.83671" lon="-0.48086">
        <ele>1725.2</ele>
        <time>2021-08-10 08:59:17</time>
      </trkpt>
      <trkpt lat="42.83672" lon="-0.48085">
        <ele>1725</ele>
        <time>2021-08-10 08:59:18</time>
      </trkpt>
      <trkpt lat="42.83673" lon="-0.48084">
        <ele>1724.8</ele>
        <time>2021-08-10 08:59:19</time>
      </trkpt>
      <trkpt lat="42.83674" lon="-0.48082">
        <ele>1724.4</ele>
        <time>2021-08-10 08:59:20</time>
      </trkpt>
      <trkpt lat="42.83675" lon="-0.48081">
        <ele>1724.2</ele>
        <time>2021-08-10 08:59:21</time>
      </trkpt>
      <trkpt lat="42.83675" lon="-0.48081">
        <ele>1724.2</ele>
        <time>2021-08-10 08:59:22</time>
      </trkpt>
      <trkpt lat="42.83676" lon="-0.4808">
        <ele>1724</ele>
        <time>2021-08-10 08:59:23</time>
      </trkpt>
      <trkpt lat="42.83676" lon="-0.4808">
        <ele>1723.8</ele>
        <time>2021-08-10 08:59:24</time>
      </trkpt>
      <trkpt lat="42.83677" lon="-0.4808">
        <ele>1723.4</ele>
        <time>2021-08-10 08:59:25</time>
      </trkpt>
      <trkpt lat="42.83678" lon="-0.48079">
        <ele>1723.4</ele>
        <time>2021-08-10 08:59:26</time>
      </trkpt>
      <trkpt lat="42.83679" lon="-0.48079">
        <ele>1723.2</ele>
        <time>2021-08-10 08:59:27</time>
      </trkpt>
      <trkpt lat="42.8368" lon="-0.48078">
        <ele>1723</ele>
        <time>2021-08-10 08:59:28</time>
      </trkpt>
      <trkpt lat="42.83681" lon="-0.48078">
        <ele>1723</ele>
        <time>2021-08-10 08:59:29</time>
      </trkpt>
      <trkpt lat="42.83681" lon="-0.48077">
        <ele>1722.8</ele>
        <time>2021-08-10 08:59:30</time>
      </trkpt>
      <trkpt lat="42.83682" lon="-0.48077">
        <ele>1722.4</ele>
        <time>2021-08-10 08:59:31</time>
      </trkpt>
      <trkpt lat="42.83683" lon="-0.48077">
        <ele>1722.2</ele>
        <time>2021-08-10 08:59:32</time>
      </trkpt>
      <trkpt lat="42.83684" lon="-0.48077">
        <ele>1722</ele>
        <time>2021-08-10 08:59:33</time>
      </trkpt>
      <trkpt lat="42.83685" lon="-0.48078">
        <ele>1722</ele>
        <time>2021-08-10 08:59:34</time>
      </trkpt>
      <trkpt lat="42.83687" lon="-0.48079">
        <ele>1721.4</ele>
        <time>2021-08-10 08:59:35</time>
      </trkpt>
      <trkpt lat="42.83688" lon="-0.48079">
        <ele>1721.4</ele>
        <time>2021-08-10 08:59:36</time>
      </trkpt>
      <trkpt lat="42.83688" lon="-0.48079">
        <ele>1721.2</ele>
        <time>2021-08-10 08:59:37</time>
      </trkpt>
      <trkpt lat="42.83689" lon="-0.48079">
        <ele>1721</ele>
        <time>2021-08-10 08:59:38</time>
      </trkpt>
      <trkpt lat="42.8369" lon="-0.48078">
        <ele>1720.6</ele>
        <time>2021-08-10 08:59:39</time>
      </trkpt>
      <trkpt lat="42.83691" lon="-0.48077">
        <ele>1720.6</ele>
        <time>2021-08-10 08:59:40</time>
      </trkpt>
      <trkpt lat="42.83692" lon="-0.48077">
        <ele>1721</ele>
        <time>2021-08-10 08:59:41</time>
      </trkpt>
      <trkpt lat="42.83692" lon="-0.48076">
        <ele>1720.4</ele>
        <time>2021-08-10 08:59:42</time>
      </trkpt>
      <trkpt lat="42.83693" lon="-0.48075">
        <ele>1720.2</ele>
        <time>2021-08-10 08:59:43</time>
      </trkpt>
      <trkpt lat="42.83693" lon="-0.48075">
        <ele>1719.8</ele>
        <time>2021-08-10 08:59:44</time>
      </trkpt>
      <trkpt lat="42.83694" lon="-0.48074">
        <ele>1719.6</ele>
        <time>2021-08-10 08:59:45</time>
      </trkpt>
      <trkpt lat="42.83694" lon="-0.48073">
        <ele>1719.6</ele>
        <time>2021-08-10 08:59:46</time>
      </trkpt>
      <trkpt lat="42.83695" lon="-0.48072">
        <ele>1719.4</ele>
        <time>2021-08-10 08:59:47</time>
      </trkpt>
      <trkpt lat="42.83696" lon="-0.4807">
        <ele>1719.2</ele>
        <time>2021-08-10 08:59:48</time>
      </trkpt>
      <trkpt lat="42.83695" lon="-0.4807">
        <ele>1719</ele>
        <time>2021-08-10 08:59:49</time>
      </trkpt>
      <trkpt lat="42.83696" lon="-0.48069">
        <ele>1718.8</ele>
        <time>2021-08-10 08:59:50</time>
      </trkpt>
      <trkpt lat="42.83696" lon="-0.48067">
        <ele>1718.6</ele>
        <time>2021-08-10 08:59:51</time>
      </trkpt>
      <trkpt lat="42.83697" lon="-0.48066">
        <ele>1718.2</ele>
        <time>2021-08-10 08:59:52</time>
      </trkpt>
      <trkpt lat="42.83697" lon="-0.48065">
        <ele>1718</ele>
        <time>2021-08-10 08:59:53</time>
      </trkpt>
      <trkpt lat="42.83697" lon="-0.48064">
        <ele>1717.4</ele>
        <time>2021-08-10 08:59:54</time>
      </trkpt>
      <trkpt lat="42.83697" lon="-0.48063">
        <ele>1717.4</ele>
        <time>2021-08-10 08:59:55</time>
      </trkpt>
      <trkpt lat="42.83698" lon="-0.48062">
        <ele>1717.2</ele>
        <time>2021-08-10 08:59:56</time>
      </trkpt>
      <trkpt lat="42.83699" lon="-0.48059">
        <ele>1717</ele>
        <time>2021-08-10 08:59:57</time>
      </trkpt>
      <trkpt lat="42.83699" lon="-0.48057">
        <ele>1716.8</ele>
        <time>2021-08-10 08:59:58</time>
      </trkpt>
      <trkpt lat="42.837" lon="-0.48056">
        <ele>1716.6</ele>
        <time>2021-08-10 08:59:59</time>
      </trkpt>
      <trkpt lat="42.837" lon="-0.48056">
        <ele>1716.6</ele>
      </trkpt>
      <trkpt lat="42.837" lon="-0.48055">
        <ele>1716.4</ele>
        <time>2021-08-10 09:00:01</time>
      </trkpt>
      <trkpt lat="42.837" lon="-0.48053">
        <ele>1716.8</ele>
        <time>2021-08-10 09:00:02</time>
      </trkpt>
      <trkpt lat="42.837" lon="-0.48051">
        <ele>1716.2</ele>
        <time>2021-08-10 09:00:03</time>
      </trkpt>
      <trkpt lat="42.837" lon="-0.4805">
        <ele>1716</ele>
        <time>2021-08-10 09:00:04</time>
      </trkpt>
      <trkpt lat="42.837" lon="-0.48051">
        <ele>1715.8</ele>
        <time>2021-08-10 09:00:05</time>
      </trkpt>
      <trkpt lat="42.83701" lon="-0.48051">
        <ele>1715.6</ele>
        <time>2021-08-10 09:00:06</time>
      </trkpt>
      <trkpt lat="42.83701" lon="-0.48051">
        <ele>1715.4</ele>
        <time>2021-08-10 09:00:07</time>
      </trkpt>
      <trkpt lat="42.83702" lon="-0.48052">
        <ele>1715.6</ele>
        <time>2021-08-10 09:00:08</time>
      </trkpt>
      <trkpt lat="42.83702" lon="-0.48051">
        <ele>1715.4</ele>
        <time>2021-08-10 09:00:09</time>
      </trkpt>
      <trkpt lat="42.83702" lon="-0.48051">
        <ele>1715.2</ele>
        <time>2021-08-10 09:00:10</time>
      </trkpt>
      <trkpt lat="42.83702" lon="-0.48051">
        <ele>1715.2</ele>
        <time>2021-08-10 09:00:11</time>
      </trkpt>
      <trkpt lat="42.83702" lon="-0.48051">
        <ele>1715.2</ele>
        <time>2021-08-10 09:00:12</time>
      </trkpt>
      <trkpt lat="42.83702" lon="-0.48052">
        <ele>1715.4</ele>
        <time>2021-08-10 09:00:13</time>
      </trkpt>
      <trkpt lat="42.83702" lon="-0.48053">
        <ele>1715.4</ele>
        <time>2021-08-10 09:00:14</time>
      </trkpt>
      <trkpt lat="42.83702" lon="-0.48053">
        <ele>1715.2</ele>
        <time>2021-08-10 09:00:15</time>
      </trkpt>
      <trkpt lat="42.83702" lon="-0.48053">
        <ele>1715.2</ele>
        <time>2021-08-10 09:00:16</time>
      </trkpt>
      <trkpt lat="42.83702" lon="-0.48053">
        <ele>1715.2</ele>
        <time>2021-08-10 09:00:17</time>
      </trkpt>
      <trkpt lat="42.83702" lon="-0.48052">
        <ele>1715.4</ele>
        <time>2021-08-10 09:00:18</time>
      </trkpt>
      <trkpt lat="42.83702" lon="-0.48053">
        <ele>1715.2</ele>
        <time>2021-08-10 09:00:19</time>
      </trkpt>
      <trkpt lat="42.83702" lon="-0.48052">
        <ele>1715.4</ele>
        <time>2021-08-10 09:00:20</time>
      </trkpt>
      <trkpt lat="42.83702" lon="-0.48053">
        <ele>1715.2</ele>
        <time>2021-08-10 09:00:21</time>
      </trkpt>
      <trkpt lat="42.83702" lon="-0.48053">
        <ele>1715.4</ele>
        <time>2021-08-10 09:00:22</time>
      </trkpt>
      <trkpt lat="42.83702" lon="-0.48054">
        <ele>1715.2</ele>
      </trkpt>
      <trkpt lat="42.83702" lon="-0.48052">
        <ele>1715.2</ele>
        <time>2021-08-10 09:00:23</time>
      </trkpt>
      <trkpt lat="42.83701" lon="-0.48051">
        <ele>1715.2</ele>
        <time>2021-08-10 09:00:24</time>
      </trkpt>
      <trkpt lat="42.83702" lon="-0.4805">
        <ele>1715.2</ele>
        <time>2021-08-10 09:00:25</time>
      </trkpt>
      <trkpt lat="42.83703" lon="-0.48049">
        <ele>1715.4</ele>
        <time>2021-08-10 09:00:26</time>
      </trkpt>
      <trkpt lat="42.83703" lon="-0.48048">
        <ele>1715.2</ele>
        <time>2021-08-10 09:00:27</time>
      </trkpt>
      <trkpt lat="42.83704" lon="-0.48047">
        <ele>1715.2</ele>
        <time>2021-08-10 09:00:28</time>
      </trkpt>
      <trkpt lat="42.83704" lon="-0.48047">
        <ele>1715.2</ele>
        <time>2021-08-10 09:00:29</time>
      </trkpt>
      <trkpt lat="42.83706" lon="-0.48045">
        <ele>1715</ele>
        <time>2021-08-10 09:00:30</time>
      </trkpt>
      <trkpt lat="42.83706" lon="-0.48045">
        <ele>1715</ele>
        <time>2021-08-10 09:00:31</time>
      </trkpt>
      <trkpt lat="42.83707" lon="-0.48044">
        <ele>1714.8</ele>
        <time>2021-08-10 09:00:32</time>
      </trkpt>
      <trkpt lat="42.83707" lon="-0.48044">
        <ele>1714.8</ele>
        <time>2021-08-10 09:00:33</time>
      </trkpt>
      <trkpt lat="42.83708" lon="-0.48044">
        <ele>1714.6</ele>
        <time>2021-08-10 09:00:34</time>
      </trkpt>
      <trkpt lat="42.83709" lon="-0.48043">
        <ele>1714.6</ele>
        <time>2021-08-10 09:00:35</time>
      </trkpt>
      <trkpt lat="42.83709" lon="-0.48042">
        <ele>1714.6</ele>
        <time>2021-08-10 09:00:36</time>
      </trkpt>
      <trkpt lat="42.83709" lon="-0.48042">
        <ele>1714.6</ele>
        <time>2021-08-10 09:00:37</time>
      </trkpt>
      <trkpt lat="42.83709" lon="-0.48042">
        <ele>1714.4</ele>
        <time>2021-08-10 09:00:38</time>
      </trkpt>
      <trkpt lat="42.8371" lon="-0.48041">
        <ele>1714.4</ele>
        <time>2021-08-10 09:00:39</time>
      </trkpt>
      <trkpt lat="42.8371" lon="-0.48042">
        <ele>1714.4</ele>
        <time>2021-08-10 09:00:41</time>
      </trkpt>
      <trkpt lat="42.8371" lon="-0.48041">
        <ele>1714.4</ele>
      </trkpt>
      <trkpt lat="42.83711" lon="-0.48041">
        <ele>1714.6</ele>
        <time>2021-08-10 09:00:42</time>
      </trkpt>
      <trkpt lat="42.83711" lon="-0.4804">
        <ele>1714.6</ele>
        <time>2021-08-10 09:00:43</time>
      </trkpt>
      <trkpt lat="42.83712" lon="-0.4804">
        <ele>1714.4</ele>
        <time>2021-08-10 09:00:44</time>
      </trkpt>
      <trkpt lat="42.83712" lon="-0.4804">
        <ele>1714.6</ele>
        <time>2021-08-10 09:00:45</time>
      </trkpt>
      <trkpt lat="42.83713" lon="-0.4804">
        <ele>1714.4</ele>
        <time>2021-08-10 09:00:46</time>
      </trkpt>
      <trkpt lat="42.83714" lon="-0.4804">
        <ele>1714.4</ele>
        <time>2021-08-10 09:00:47</time>
      </trkpt>
      <trkpt lat="42.83714" lon="-0.4804">
        <ele>1714.4</ele>
        <time>2021-08-10 09:00:48</time>
      </trkpt>
      <trkpt lat="42.83715" lon="-0.4804">
        <ele>1714.4</ele>
        <time>2021-08-10 09:00:49</time>
      </trkpt>
      <trkpt lat="42.83715" lon="-0.48039">
        <ele>1714</ele>
        <time>2021-08-10 09:00:50</time>
      </trkpt>
      <trkpt lat="42.83717" lon="-0.4804">
        <ele>1714</ele>
        <time>2021-08-10 09:00:51</time>
      </trkpt>
      <trkpt lat="42.83718" lon="-0.48041">
        <ele>1714.2</ele>
        <time>2021-08-10 09:00:53</time>
      </trkpt>
      <trkpt lat="42.83718" lon="-0.48043">
        <ele>1714.2</ele>
        <time>2021-08-10 09:00:54</time>
      </trkpt>
      <trkpt lat="42.83719" lon="-0.48043">
        <ele>1714</ele>
        <time>2021-08-10 09:00:55</time>
      </trkpt>
      <trkpt lat="42.8372" lon="-0.48046">
        <ele>1714</ele>
        <time>2021-08-10 09:00:56</time>
      </trkpt>
      <trkpt lat="42.83722" lon="-0.48049">
        <ele>1713.8</ele>
        <time>2021-08-10 09:00:57</time>
      </trkpt>
      <trkpt lat="42.83723" lon="-0.4805">
        <ele>1713.8</ele>
        <time>2021-08-10 09:01:07</time>
      </trkpt>
      <trkpt lat="42.83723" lon="-0.4805">
        <ele>1713.8</ele>
        <time>2021-08-10 09:01:08</time>
      </trkpt>
      <trkpt lat="42.83722" lon="-0.48049">
        <ele>1713.6</ele>
        <time>2021-08-10 09:01:09</time>
      </trkpt>
      <trkpt lat="42.83721" lon="-0.48048">
        <ele>1713.8</ele>
        <time>2021-08-10 09:01:10</time>
      </trkpt>
      <trkpt lat="42.83721" lon="-0.48047">
        <ele>1714</ele>
        <time>2021-08-10 09:01:11</time>
      </trkpt>
      <trkpt lat="42.83721" lon="-0.48045">
        <ele>1713.4</ele>
        <time>2021-08-10 09:01:12</time>
      </trkpt>
      <trkpt lat="42.83721" lon="-0.48045">
        <ele>1713.6</ele>
        <time>2021-08-10 09:01:13</time>
      </trkpt>
      <trkpt lat="42.83721" lon="-0.48044">
        <ele>1713.4</ele>
        <time>2021-08-10 09:01:14</time>
      </trkpt>
      <trkpt lat="42.83721" lon="-0.48044">
        <ele>1713.2</ele>
        <time>2021-08-10 09:01:15</time>
      </trkpt>
      <trkpt lat="42.83721" lon="-0.48043">
        <ele>1713.2</ele>
        <time>2021-08-10 09:01:16</time>
      </trkpt>
      <trkpt lat="42.83722" lon="-0.48042">
        <ele>1712.8</ele>
        <time>2021-08-10 09:01:17</time>
      </trkpt>
      <trkpt lat="42.83722" lon="-0.48041">
        <ele>1713</ele>
        <time>2021-08-10 09:01:18</time>
      </trkpt>
      <trkpt lat="42.83722" lon="-0.4804">
        <ele>1712.8</ele>
        <time>2021-08-10 09:01:19</time>
      </trkpt>
      <trkpt lat="42.83723" lon="-0.48039">
        <ele>1712.8</ele>
        <time>2021-08-10 09:01:20</time>
      </trkpt>
      <trkpt lat="42.83723" lon="-0.48039">
        <ele>1712.6</ele>
        <time>2021-08-10 09:01:21</time>
      </trkpt>
      <trkpt lat="42.83723" lon="-0.48038">
        <ele>1712.6</ele>
        <time>2021-08-10 09:01:22</time>
      </trkpt>
      <trkpt lat="42.83724" lon="-0.48037">
        <ele>1712.4</ele>
        <time>2021-08-10 09:01:23</time>
      </trkpt>
      <trkpt lat="42.83724" lon="-0.48037">
        <ele>1712.2</ele>
        <time>2021-08-10 09:01:24</time>
      </trkpt>
      <trkpt lat="42.83725" lon="-0.48036">
        <ele>1712.2</ele>
        <time>2021-08-10 09:01:25</time>
      </trkpt>
      <trkpt lat="42.83725" lon="-0.48036">
        <ele>1712.4</ele>
        <time>2021-08-10 09:01:26</time>
      </trkpt>
      <trkpt lat="42.83726" lon="-0.48036">
        <ele>1712.2</ele>
        <time>2021-08-10 09:01:27</time>
      </trkpt>
      <trkpt lat="42.83726" lon="-0.48034">
        <ele>1712</ele>
        <time>2021-08-10 09:01:28</time>
      </trkpt>
      <trkpt lat="42.83726" lon="-0.48034">
        <ele>1711.6</ele>
        <time>2021-08-10 09:01:29</time>
      </trkpt>
      <trkpt lat="42.83727" lon="-0.48034">
        <ele>1711.4</ele>
        <time>2021-08-10 09:01:30</time>
      </trkpt>
      <trkpt lat="42.83727" lon="-0.48033">
        <ele>1711.2</ele>
        <time>2021-08-10 09:01:31</time>
      </trkpt>
      <trkpt lat="42.83728" lon="-0.48033">
        <ele>1711.2</ele>
        <time>2021-08-10 09:01:32</time>
      </trkpt>
      <trkpt lat="42.83729" lon="-0.48033">
        <ele>1711</ele>
        <time>2021-08-10 09:01:33</time>
      </trkpt>
      <trkpt lat="42.83729" lon="-0.48032">
        <ele>1710.6</ele>
        <time>2021-08-10 09:01:34</time>
      </trkpt>
      <trkpt lat="42.8373" lon="-0.48031">
        <ele>1710.4</ele>
        <time>2021-08-10 09:01:35</time>
      </trkpt>
      <trkpt lat="42.8373" lon="-0.48031">
        <ele>1710.2</ele>
        <time>2021-08-10 09:01:36</time>
      </trkpt>
      <trkpt lat="42.83731" lon="-0.48029">
        <ele>1709.8</ele>
        <time>2021-08-10 09:01:37</time>
      </trkpt>
      <trkpt lat="42.83731" lon="-0.48028">
        <ele>1709.6</ele>
        <time>2021-08-10 09:01:38</time>
      </trkpt>
      <trkpt lat="42.83732" lon="-0.48027">
        <ele>1709.4</ele>
        <time>2021-08-10 09:01:39</time>
      </trkpt>
      <trkpt lat="42.83733" lon="-0.48027">
        <ele>1709.4</ele>
        <time>2021-08-10 09:01:40</time>
      </trkpt>
      <trkpt lat="42.83733" lon="-0.48027">
        <ele>1709.4</ele>
        <time>2021-08-10 09:01:41</time>
      </trkpt>
      <trkpt lat="42.83734" lon="-0.48027">
        <ele>1709.4</ele>
        <time>2021-08-10 09:01:42</time>
      </trkpt>
      <trkpt lat="42.83735" lon="-0.48026">
        <ele>1709.4</ele>
        <time>2021-08-10 09:01:43</time>
      </trkpt>
      <trkpt lat="42.83735" lon="-0.48026">
        <ele>1708.4</ele>
        <time>2021-08-10 09:01:44</time>
      </trkpt>
      <trkpt lat="42.83735" lon="-0.48025">
        <ele>1708.4</ele>
        <time>2021-08-10 09:01:45</time>
      </trkpt>
      <trkpt lat="42.83736" lon="-0.48025">
        <ele>1708.4</ele>
        <time>2021-08-10 09:01:46</time>
      </trkpt>
      <trkpt lat="42.83736" lon="-0.48025">
        <ele>1708.6</ele>
        <time>2021-08-10 09:01:47</time>
      </trkpt>
      <trkpt lat="42.83737" lon="-0.48024">
        <ele>1708.6</ele>
        <time>2021-08-10 09:01:48</time>
      </trkpt>
      <trkpt lat="42.83737" lon="-0.48024">
        <ele>1708.6</ele>
        <time>2021-08-10 09:01:49</time>
      </trkpt>
      <trkpt lat="42.83737" lon="-0.48024">
        <ele>1708.2</ele>
        <time>2021-08-10 09:01:50</time>
      </trkpt>
      <trkpt lat="42.83738" lon="-0.48024">
        <ele>1708.2</ele>
        <time>2021-08-10 09:01:51</time>
      </trkpt>
      <trkpt lat="42.83739" lon="-0.48023">
        <ele>1707.8</ele>
        <time>2021-08-10 09:01:52</time>
      </trkpt>
      <trkpt lat="42.8374" lon="-0.48023">
        <ele>1707.8</ele>
        <time>2021-08-10 09:01:53</time>
      </trkpt>
      <trkpt lat="42.8374" lon="-0.48023">
        <ele>1707.4</ele>
        <time>2021-08-10 09:01:54</time>
      </trkpt>
      <trkpt lat="42.83741" lon="-0.48023">
        <ele>1707.2</ele>
        <time>2021-08-10 09:01:55</time>
      </trkpt>
      <trkpt lat="42.83741" lon="-0.48023">
        <ele>1707.2</ele>
        <time>2021-08-10 09:01:56</time>
      </trkpt>
      <trkpt lat="42.83742" lon="-0.48022">
        <ele>1707.4</ele>
        <time>2021-08-10 09:01:57</time>
      </trkpt>
      <trkpt lat="42.83742" lon="-0.48021">
        <ele>1707.2</ele>
        <time>2021-08-10 09:01:58</time>
      </trkpt>
      <trkpt lat="42.83743" lon="-0.48021">
        <ele>1706.8</ele>
        <time>2021-08-10 09:01:59</time>
      </trkpt>
      <trkpt lat="42.83743" lon="-0.48021">
        <ele>1706.8</ele>
        <time>2021-08-10 09:02:00</time>
      </trkpt>
      <trkpt lat="42.83743" lon="-0.4802">
        <ele>1706.2</ele>
        <time>2021-08-10 09:02:01</time>
      </trkpt>
      <trkpt lat="42.83744" lon="-0.48019">
        <ele>1705.8</ele>
        <time>2021-08-10 09:02:02</time>
      </trkpt>
      <trkpt lat="42.83744" lon="-0.48019">
        <ele>1705.8</ele>
        <time>2021-08-10 09:02:03</time>
      </trkpt>
      <trkpt lat="42.83744" lon="-0.48018">
        <ele>1705.8</ele>
        <time>2021-08-10 09:02:04</time>
      </trkpt>
      <trkpt lat="42.83745" lon="-0.48018">
        <ele>1706.2</ele>
        <time>2021-08-10 09:02:05</time>
      </trkpt>
      <trkpt lat="42.83745" lon="-0.48017">
        <ele>1706.2</ele>
        <time>2021-08-10 09:02:06</time>
      </trkpt>
      <trkpt lat="42.83745" lon="-0.48016">
        <ele>1705.6</ele>
        <time>2021-08-10 09:02:07</time>
      </trkpt>
      <trkpt lat="42.83745" lon="-0.48015">
        <ele>1705.6</ele>
        <time>2021-08-10 09:02:08</time>
      </trkpt>
      <trkpt lat="42.83745" lon="-0.48015">
        <ele>1705.6</ele>
        <time>2021-08-10 09:02:09</time>
      </trkpt>
      <trkpt lat="42.83745" lon="-0.48015">
        <ele>1705.2</ele>
        <time>2021-08-10 09:02:10</time>
      </trkpt>
      <trkpt lat="42.83745" lon="-0.48014">
        <ele>1705.4</ele>
        <time>2021-08-10 09:02:11</time>
      </trkpt>
      <trkpt lat="42.83746" lon="-0.48014">
        <ele>1705</ele>
        <time>2021-08-10 09:02:12</time>
      </trkpt>
      <trkpt lat="42.83746" lon="-0.48013">
        <ele>1704.8</ele>
        <time>2021-08-10 09:02:13</time>
      </trkpt>
      <trkpt lat="42.83745" lon="-0.48012">
        <ele>1704.8</ele>
        <time>2021-08-10 09:02:14</time>
      </trkpt>
      <trkpt lat="42.83745" lon="-0.48012">
        <ele>1704.8</ele>
        <time>2021-08-10 09:02:15</time>
      </trkpt>
      <trkpt lat="42.83745" lon="-0.48012">
        <ele>1704.8</ele>
        <time>2021-08-10 09:02:16</time>
      </trkpt>
      <trkpt lat="42.83745" lon="-0.48011">
        <ele>1704.6</ele>
        <time>2021-08-10 09:02:17</time>
      </trkpt>
      <trkpt lat="42.83745" lon="-0.4801">
        <ele>1704.4</ele>
        <time>2021-08-10 09:02:18</time>
      </trkpt>
      <trkpt lat="42.83745" lon="-0.48009">
        <ele>1704</ele>
        <time>2021-08-10 09:02:19</time>
      </trkpt>
      <trkpt lat="42.83745" lon="-0.48009">
        <ele>1704</ele>
        <time>2021-08-10 09:02:20</time>
      </trkpt>
      <trkpt lat="42.83745" lon="-0.48008">
        <ele>1703.8</ele>
        <time>2021-08-10 09:02:21</time>
      </trkpt>
      <trkpt lat="42.83745" lon="-0.48009">
        <ele>1703.8</ele>
        <time>2021-08-10 09:02:22</time>
      </trkpt>
      <trkpt lat="42.83745" lon="-0.48009">
        <ele>1703.8</ele>
        <time>2021-08-10 09:02:23</time>
      </trkpt>
      <trkpt lat="42.83744" lon="-0.48008">
        <ele>1703.6</ele>
        <time>2021-08-10 09:02:24</time>
      </trkpt>
      <trkpt lat="42.83744" lon="-0.48008">
        <ele>1703.4</ele>
        <time>2021-08-10 09:02:25</time>
      </trkpt>
      <trkpt lat="42.83744" lon="-0.48007">
        <ele>1703.2</ele>
        <time>2021-08-10 09:02:26</time>
      </trkpt>
      <trkpt lat="42.83744" lon="-0.48007">
        <ele>1703.2</ele>
        <time>2021-08-10 09:02:27</time>
      </trkpt>
      <trkpt lat="42.83744" lon="-0.48006">
        <ele>1703</ele>
        <time>2021-08-10 09:02:28</time>
      </trkpt>
      <trkpt lat="42.83744" lon="-0.48006">
        <ele>1702.8</ele>
        <time>2021-08-10 09:02:29</time>
      </trkpt>
      <trkpt lat="42.83745" lon="-0.48005">
        <ele>1702.6</ele>
        <time>2021-08-10 09:02:30</time>
      </trkpt>
      <trkpt lat="42.83745" lon="-0.48004">
        <ele>1702.6</ele>
        <time>2021-08-10 09:02:31</time>
      </trkpt>
      <trkpt lat="42.83745" lon="-0.48004">
        <ele>1702.4</ele>
        <time>2021-08-10 09:02:32</time>
      </trkpt>
      <trkpt lat="42.83745" lon="-0.48003">
        <ele>1702.2</ele>
        <time>2021-08-10 09:02:33</time>
      </trkpt>
      <trkpt lat="42.83745" lon="-0.48002">
        <ele>1702</ele>
        <time>2021-08-10 09:02:34</time>
      </trkpt>
      <trkpt lat="42.83745" lon="-0.48002">
        <ele>1701.8</ele>
        <time>2021-08-10 09:02:35</time>
      </trkpt>
      <trkpt lat="42.83746" lon="-0.48">
        <ele>1701.8</ele>
        <time>2021-08-10 09:02:36</time>
      </trkpt>
      <trkpt lat="42.83746" lon="-0.48001">
        <ele>1701.8</ele>
        <time>2021-08-10 09:02:38</time>
      </trkpt>
      <trkpt lat="42.83747" lon="-0.47999">
        <ele>1701.4</ele>
        <time>2021-08-10 09:02:39</time>
      </trkpt>
      <trkpt lat="42.83747" lon="-0.48">
        <ele>1701.4</ele>
        <time>2021-08-10 09:02:40</time>
      </trkpt>
      <trkpt lat="42.83748" lon="-0.48">
        <ele>1701.2</ele>
        <time>2021-08-10 09:02:41</time>
      </trkpt>
      <trkpt lat="42.83748" lon="-0.48">
        <ele>1701</ele>
        <time>2021-08-10 09:02:42</time>
      </trkpt>
      <trkpt lat="42.83747" lon="-0.47999">
        <ele>1700.8</ele>
        <time>2021-08-10 09:02:43</time>
      </trkpt>
      <trkpt lat="42.83747" lon="-0.47998">
        <ele>1700.6</ele>
        <time>2021-08-10 09:02:44</time>
      </trkpt>
      <trkpt lat="42.83747" lon="-0.47998">
        <ele>1700.6</ele>
        <time>2021-08-10 09:02:45</time>
      </trkpt>
      <trkpt lat="42.83747" lon="-0.47996">
        <ele>1700.6</ele>
        <time>2021-08-10 09:02:46</time>
      </trkpt>
      <trkpt lat="42.83747" lon="-0.47996">
        <ele>1700.2</ele>
        <time>2021-08-10 09:02:47</time>
      </trkpt>
      <trkpt lat="42.83747" lon="-0.47995">
        <ele>1700</ele>
        <time>2021-08-10 09:02:48</time>
      </trkpt>
      <trkpt lat="42.83747" lon="-0.47994">
        <ele>1699.6</ele>
        <time>2021-08-10 09:02:49</time>
      </trkpt>
      <trkpt lat="42.83747" lon="-0.47993">
        <ele>1699.4</ele>
        <time>2021-08-10 09:02:50</time>
      </trkpt>
      <trkpt lat="42.83747" lon="-0.47992">
        <ele>1699.6</ele>
        <time>2021-08-10 09:02:51</time>
      </trkpt>
      <trkpt lat="42.83747" lon="-0.47991">
        <ele>1699.6</ele>
        <time>2021-08-10 09:02:52</time>
      </trkpt>
      <trkpt lat="42.83747" lon="-0.47992">
        <ele>1699.6</ele>
        <time>2021-08-10 09:02:54</time>
      </trkpt>
      <trkpt lat="42.83746" lon="-0.47992">
        <ele>1699.2</ele>
        <time>2021-08-10 09:02:55</time>
      </trkpt>
      <trkpt lat="42.83747" lon="-0.4799">
        <ele>1699</ele>
        <time>2021-08-10 09:02:56</time>
      </trkpt>
      <trkpt lat="42.83747" lon="-0.47989">
        <ele>1698.8</ele>
        <time>2021-08-10 09:02:57</time>
      </trkpt>
      <trkpt lat="42.83746" lon="-0.4799">
        <ele>1698.8</ele>
        <time>2021-08-10 09:02:58</time>
      </trkpt>
      <trkpt lat="42.83747" lon="-0.47989">
        <ele>1698.6</ele>
        <time>2021-08-10 09:02:59</time>
      </trkpt>
      <trkpt lat="42.83747" lon="-0.47989">
        <ele>1698.4</ele>
        <time>2021-08-10 09:03:00</time>
      </trkpt>
      <trkpt lat="42.83747" lon="-0.47989">
        <ele>1698.4</ele>
        <time>2021-08-10 09:03:01</time>
      </trkpt>
      <trkpt lat="42.83747" lon="-0.47988">
        <ele>1698</ele>
        <time>2021-08-10 09:03:02</time>
      </trkpt>
      <trkpt lat="42.83747" lon="-0.47987">
        <ele>1698</ele>
        <time>2021-08-10 09:03:03</time>
      </trkpt>
      <trkpt lat="42.83747" lon="-0.47987">
        <ele>1697.8</ele>
        <time>2021-08-10 09:03:04</time>
      </trkpt>
      <trkpt lat="42.83747" lon="-0.47986">
        <ele>1697.8</ele>
        <time>2021-08-10 09:03:05</time>
      </trkpt>
      <trkpt lat="42.83747" lon="-0.47985">
        <ele>1698.2</ele>
        <time>2021-08-10 09:03:06</time>
      </trkpt>
      <trkpt lat="42.83747" lon="-0.47984">
        <ele>1697.8</ele>
        <time>2021-08-10 09:03:07</time>
      </trkpt>
      <trkpt lat="42.83746" lon="-0.47983">
        <ele>1697.4</ele>
        <time>2021-08-10 09:03:08</time>
      </trkpt>
      <trkpt lat="42.83747" lon="-0.47983">
        <ele>1697</ele>
        <time>2021-08-10 09:03:09</time>
      </trkpt>
      <trkpt lat="42.83747" lon="-0.47982">
        <ele>1697</ele>
        <time>2021-08-10 09:03:10</time>
      </trkpt>
      <trkpt lat="42.83747" lon="-0.47982">
        <ele>1697</ele>
        <time>2021-08-10 09:03:11</time>
      </trkpt>
      <trkpt lat="42.83747" lon="-0.47981">
        <ele>1696.8</ele>
        <time>2021-08-10 09:03:12</time>
      </trkpt>
      <trkpt lat="42.83746" lon="-0.47981">
        <ele>1696.6</ele>
        <time>2021-08-10 09:03:13</time>
      </trkpt>
      <trkpt lat="42.83746" lon="-0.47981">
        <ele>1696.4</ele>
        <time>2021-08-10 09:03:14</time>
      </trkpt>
      <trkpt lat="42.83746" lon="-0.47981">
        <ele>1696.4</ele>
        <time>2021-08-10 09:03:15</time>
      </trkpt>
      <trkpt lat="42.83746" lon="-0.4798">
        <ele>1696.4</ele>
        <time>2021-08-10 09:03:16</time>
      </trkpt>
      <trkpt lat="42.83746" lon="-0.4798">
        <ele>1696.2</ele>
        <time>2021-08-10 09:03:17</time>
      </trkpt>
      <trkpt lat="42.83747" lon="-0.47979">
        <ele>1696</ele>
        <time>2021-08-10 09:03:18</time>
      </trkpt>
      <trkpt lat="42.83748" lon="-0.47977">
        <ele>1695.6</ele>
        <time>2021-08-10 09:03:19</time>
      </trkpt>
      <trkpt lat="42.83748" lon="-0.47977">
        <ele>1695.4</ele>
        <time>2021-08-10 09:03:20</time>
      </trkpt>
      <trkpt lat="42.83748" lon="-0.47976">
        <ele>1695.4</ele>
        <time>2021-08-10 09:03:21</time>
      </trkpt>
      <trkpt lat="42.83748" lon="-0.47976">
        <ele>1695.4</ele>
        <time>2021-08-10 09:03:22</time>
      </trkpt>
      <trkpt lat="42.83748" lon="-0.47975">
        <ele>1695.2</ele>
        <time>2021-08-10 09:03:23</time>
      </trkpt>
      <trkpt lat="42.83747" lon="-0.47975">
        <ele>1695.2</ele>
        <time>2021-08-10 09:03:24</time>
      </trkpt>
      <trkpt lat="42.83748" lon="-0.47974">
        <ele>1694.8</ele>
        <time>2021-08-10 09:03:25</time>
      </trkpt>
      <trkpt lat="42.83748" lon="-0.47973">
        <ele>1695</ele>
        <time>2021-08-10 09:03:26</time>
      </trkpt>
      <trkpt lat="42.83748" lon="-0.47973">
        <ele>1694.6</ele>
        <time>2021-08-10 09:03:27</time>
      </trkpt>
      <trkpt lat="42.83748" lon="-0.47972">
        <ele>1694.8</ele>
        <time>2021-08-10 09:03:28</time>
      </trkpt>
      <trkpt lat="42.83748" lon="-0.47972">
        <ele>1694.4</ele>
        <time>2021-08-10 09:03:29</time>
      </trkpt>
      <trkpt lat="42.83748" lon="-0.47971">
        <ele>1694.4</ele>
        <time>2021-08-10 09:03:30</time>
      </trkpt>
      <trkpt lat="42.83748" lon="-0.47971">
        <ele>1694.2</ele>
        <time>2021-08-10 09:03:31</time>
      </trkpt>
      <trkpt lat="42.83748" lon="-0.4797">
        <ele>1694</ele>
        <time>2021-08-10 09:03:32</time>
      </trkpt>
      <trkpt lat="42.83748" lon="-0.47969">
        <ele>1694</ele>
        <time>2021-08-10 09:03:34</time>
      </trkpt>
      <trkpt lat="42.83748" lon="-0.47969">
        <ele>1693.8</ele>
        <time>2021-08-10 09:03:35</time>
      </trkpt>
      <trkpt lat="42.83748" lon="-0.47968">
        <ele>1693.4</ele>
        <time>2021-08-10 09:03:36</time>
      </trkpt>
      <trkpt lat="42.83748" lon="-0.47966">
        <ele>1693.2</ele>
        <time>2021-08-10 09:03:37</time>
      </trkpt>
      <trkpt lat="42.83748" lon="-0.47966">
        <ele>1693.2</ele>
        <time>2021-08-10 09:03:38</time>
      </trkpt>
      <trkpt lat="42.83748" lon="-0.47965">
        <ele>1693.2</ele>
        <time>2021-08-10 09:03:39</time>
      </trkpt>
      <trkpt lat="42.83748" lon="-0.47967">
        <ele>1693</ele>
        <time>2021-08-10 09:03:40</time>
      </trkpt>
      <trkpt lat="42.83749" lon="-0.47966">
        <ele>1692.8</ele>
        <time>2021-08-10 09:03:41</time>
      </trkpt>
      <trkpt lat="42.83749" lon="-0.47965">
        <ele>1692.8</ele>
        <time>2021-08-10 09:03:42</time>
      </trkpt>
      <trkpt lat="42.8375" lon="-0.47964">
        <ele>1692.8</ele>
        <time>2021-08-10 09:03:43</time>
      </trkpt>
      <trkpt lat="42.8375" lon="-0.47964">
        <ele>1692.6</ele>
        <time>2021-08-10 09:03:44</time>
      </trkpt>
      <trkpt lat="42.8375" lon="-0.47962">
        <ele>1692</ele>
        <time>2021-08-10 09:03:45</time>
      </trkpt>
      <trkpt lat="42.83749" lon="-0.47961">
        <ele>1692</ele>
        <time>2021-08-10 09:03:46</time>
      </trkpt>
      <trkpt lat="42.83749" lon="-0.4796">
        <ele>1691.8</ele>
        <time>2021-08-10 09:03:47</time>
      </trkpt>
      <trkpt lat="42.8375" lon="-0.47959">
        <ele>1691.8</ele>
        <time>2021-08-10 09:03:48</time>
      </trkpt>
      <trkpt lat="42.8375" lon="-0.47959">
        <ele>1691.6</ele>
        <time>2021-08-10 09:03:49</time>
      </trkpt>
      <trkpt lat="42.8375" lon="-0.47958">
        <ele>1691.6</ele>
        <time>2021-08-10 09:03:50</time>
      </trkpt>
      <trkpt lat="42.8375" lon="-0.47956">
        <ele>1691.6</ele>
        <time>2021-08-10 09:03:51</time>
      </trkpt>
      <trkpt lat="42.83751" lon="-0.47954">
        <ele>1691.6</ele>
        <time>2021-08-10 09:03:52</time>
      </trkpt>
      <trkpt lat="42.83751" lon="-0.47954">
        <ele>1691.2</ele>
        <time>2021-08-10 09:03:53</time>
      </trkpt>
      <trkpt lat="42.83751" lon="-0.47953">
        <ele>1691.2</ele>
        <time>2021-08-10 09:03:54</time>
      </trkpt>
      <trkpt lat="42.83751" lon="-0.47952">
        <ele>1691</ele>
        <time>2021-08-10 09:03:55</time>
      </trkpt>
      <trkpt lat="42.83751" lon="-0.4795">
        <ele>1690.8</ele>
        <time>2021-08-10 09:03:56</time>
      </trkpt>
      <trkpt lat="42.83751" lon="-0.47948">
        <ele>1690.6</ele>
        <time>2021-08-10 09:03:57</time>
      </trkpt>
      <trkpt lat="42.83751" lon="-0.47948">
        <ele>1690.4</ele>
        <time>2021-08-10 09:03:58</time>
      </trkpt>
      <trkpt lat="42.83751" lon="-0.47947">
        <ele>1690.2</ele>
        <time>2021-08-10 09:03:59</time>
      </trkpt>
      <trkpt lat="42.83751" lon="-0.47945">
        <ele>1690.2</ele>
        <time>2021-08-10 09:04:00</time>
      </trkpt>
      <trkpt lat="42.83751" lon="-0.47944">
        <ele>1690.2</ele>
        <time>2021-08-10 09:04:01</time>
      </trkpt>
      <trkpt lat="42.83751" lon="-0.47943">
        <ele>1690</ele>
        <time>2021-08-10 09:04:02</time>
      </trkpt>
      <trkpt lat="42.8375" lon="-0.47942">
        <ele>1690</ele>
        <time>2021-08-10 09:04:03</time>
      </trkpt>
      <trkpt lat="42.83751" lon="-0.47942">
        <ele>1690</ele>
        <time>2021-08-10 09:04:04</time>
      </trkpt>
      <trkpt lat="42.83751" lon="-0.47941">
        <ele>1689.8</ele>
        <time>2021-08-10 09:04:05</time>
      </trkpt>
      <trkpt lat="42.83751" lon="-0.47939">
        <ele>1689.8</ele>
        <time>2021-08-10 09:04:06</time>
      </trkpt>
      <trkpt lat="42.83752" lon="-0.47939">
        <ele>1689.6</ele>
        <time>2021-08-10 09:04:07</time>
      </trkpt>
      <trkpt lat="42.83752" lon="-0.47939">
        <ele>1689.4</ele>
        <time>2021-08-10 09:04:08</time>
      </trkpt>
      <trkpt lat="42.83752" lon="-0.47938">
        <ele>1689.4</ele>
        <time>2021-08-10 09:04:09</time>
      </trkpt>
      <trkpt lat="42.83752" lon="-0.47937">
        <ele>1689.2</ele>
        <time>2021-08-10 09:04:10</time>
      </trkpt>
      <trkpt lat="42.83752" lon="-0.47936">
        <ele>1689.2</ele>
        <time>2021-08-10 09:04:11</time>
      </trkpt>
      <trkpt lat="42.83752" lon="-0.47935">
        <ele>1689.2</ele>
        <time>2021-08-10 09:04:12</time>
      </trkpt>
      <trkpt lat="42.83752" lon="-0.47934">
        <ele>1689</ele>
        <time>2021-08-10 09:04:13</time>
      </trkpt>
      <trkpt lat="42.83752" lon="-0.47934">
        <ele>1688.8</ele>
        <time>2021-08-10 09:04:14</time>
      </trkpt>
      <trkpt lat="42.83752" lon="-0.47934">
        <ele>1688.8</ele>
        <time>2021-08-10 09:04:15</time>
      </trkpt>
      <trkpt lat="42.83752" lon="-0.47934">
        <ele>1688.8</ele>
        <time>2021-08-10 09:04:16</time>
      </trkpt>
      <trkpt lat="42.83752" lon="-0.47934">
        <ele>1688.8</ele>
        <time>2021-08-10 09:04:17</time>
      </trkpt>
      <trkpt lat="42.83753" lon="-0.47934">
        <ele>1688.6</ele>
        <time>2021-08-10 09:04:18</time>
      </trkpt>
      <trkpt lat="42.83753" lon="-0.47934">
        <ele>1688.4</ele>
        <time>2021-08-10 09:04:19</time>
      </trkpt>
      <trkpt lat="42.83754" lon="-0.47934">
        <ele>1688.2</ele>
        <time>2021-08-10 09:04:20</time>
      </trkpt>
      <trkpt lat="42.83754" lon="-0.47933">
        <ele>1688</ele>
        <time>2021-08-10 09:04:21</time>
      </trkpt>
      <trkpt lat="42.83754" lon="-0.47933">
        <ele>1688</ele>
        <time>2021-08-10 09:04:22</time>
      </trkpt>
      <trkpt lat="42.83754" lon="-0.47933">
        <ele>1688</ele>
        <time>2021-08-10 09:04:23</time>
      </trkpt>
      <trkpt lat="42.83755" lon="-0.47934">
        <ele>1688</ele>
        <time>2021-08-10 09:04:24</time>
      </trkpt>
      <trkpt lat="42.83756" lon="-0.47934">
        <ele>1687.8</ele>
        <time>2021-08-10 09:04:25</time>
      </trkpt>
      <trkpt lat="42.83756" lon="-0.47934">
        <ele>1687.4</ele>
        <time>2021-08-10 09:04:26</time>
      </trkpt>
      <trkpt lat="42.83757" lon="-0.47934">
        <ele>1687.4</ele>
        <time>2021-08-10 09:04:27</time>
      </trkpt>
      <trkpt lat="42.83758" lon="-0.47935">
        <ele>1687.4</ele>
        <time>2021-08-10 09:04:28</time>
      </trkpt>
      <trkpt lat="42.83759" lon="-0.47936">
        <ele>1687</ele>
        <time>2021-08-10 09:04:29</time>
      </trkpt>
      <trkpt lat="42.83759" lon="-0.47936">
        <ele>1687.2</ele>
        <time>2021-08-10 09:04:30</time>
      </trkpt>
      <trkpt lat="42.8376" lon="-0.47937">
        <ele>1687</ele>
        <time>2021-08-10 09:04:31</time>
      </trkpt>
      <trkpt lat="42.83761" lon="-0.47937">
        <ele>1686.8</ele>
        <time>2021-08-10 09:04:32</time>
      </trkpt>
      <trkpt lat="42.83761" lon="-0.47937">
        <ele>1686.8</ele>
        <time>2021-08-10 09:04:33</time>
      </trkpt>
      <trkpt lat="42.83762" lon="-0.47937">
        <ele>1686.6</ele>
        <time>2021-08-10 09:04:34</time>
      </trkpt>
      <trkpt lat="42.83762" lon="-0.47938">
        <ele>1686.6</ele>
        <time>2021-08-10 09:04:35</time>
      </trkpt>
      <trkpt lat="42.83763" lon="-0.47938">
        <ele>1686.6</ele>
        <time>2021-08-10 09:04:36</time>
      </trkpt>
      <trkpt lat="42.83763" lon="-0.47939">
        <ele>1686.4</ele>
        <time>2021-08-10 09:04:37</time>
      </trkpt>
      <trkpt lat="42.83764" lon="-0.47939">
        <ele>1686</ele>
        <time>2021-08-10 09:04:38</time>
      </trkpt>
      <trkpt lat="42.83765" lon="-0.4794">
        <ele>1686</ele>
        <time>2021-08-10 09:04:39</time>
      </trkpt>
      <trkpt lat="42.83767" lon="-0.4794">
        <ele>1685.8</ele>
        <time>2021-08-10 09:04:40</time>
      </trkpt>
      <trkpt lat="42.83768" lon="-0.4794">
        <ele>1685.8</ele>
        <time>2021-08-10 09:04:41</time>
      </trkpt>
      <trkpt lat="42.83769" lon="-0.47942">
        <ele>1685.8</ele>
        <time>2021-08-10 09:04:42</time>
      </trkpt>
      <trkpt lat="42.8377" lon="-0.47943">
        <ele>1685.6</ele>
        <time>2021-08-10 09:04:43</time>
      </trkpt>
      <trkpt lat="42.83771" lon="-0.47943">
        <ele>1685.4</ele>
        <time>2021-08-10 09:04:44</time>
      </trkpt>
      <trkpt lat="42.83772" lon="-0.47943">
        <ele>1685.4</ele>
        <time>2021-08-10 09:04:45</time>
      </trkpt>
      <trkpt lat="42.83772" lon="-0.47944">
        <ele>1685.4</ele>
        <time>2021-08-10 09:04:46</time>
      </trkpt>
      <trkpt lat="42.83773" lon="-0.47945">
        <ele>1685</ele>
        <time>2021-08-10 09:04:47</time>
      </trkpt>
      <trkpt lat="42.83773" lon="-0.47946">
        <ele>1685</ele>
        <time>2021-08-10 09:04:48</time>
      </trkpt>
      <trkpt lat="42.83774" lon="-0.47946">
        <ele>1685.2</ele>
        <time>2021-08-10 09:04:49</time>
      </trkpt>
      <trkpt lat="42.83775" lon="-0.47947">
        <ele>1685.2</ele>
        <time>2021-08-10 09:04:50</time>
      </trkpt>
      <trkpt lat="42.83775" lon="-0.47947">
        <ele>1685</ele>
        <time>2021-08-10 09:04:58</time>
      </trkpt>
      <trkpt lat="42.83775" lon="-0.47947">
        <ele>1684.8</ele>
        <time>2021-08-10 09:04:59</time>
      </trkpt>
      <trkpt lat="42.83775" lon="-0.47946">
        <ele>1684.8</ele>
        <time>2021-08-10 09:05:00</time>
      </trkpt>
      <trkpt lat="42.83775" lon="-0.47947">
        <ele>1684.6</ele>
        <time>2021-08-10 09:05:01</time>
      </trkpt>
      <trkpt lat="42.83775" lon="-0.47947">
        <ele>1684.6</ele>
        <time>2021-08-10 09:05:02</time>
      </trkpt>
      <trkpt lat="42.83775" lon="-0.47949">
        <ele>1684.4</ele>
        <time>2021-08-10 09:05:03</time>
      </trkpt>
      <trkpt lat="42.83775" lon="-0.47949">
        <ele>1684.2</ele>
        <time>2021-08-10 09:05:04</time>
      </trkpt>
      <trkpt lat="42.83776" lon="-0.47948">
        <ele>1684</ele>
        <time>2021-08-10 09:05:05</time>
      </trkpt>
      <trkpt lat="42.83776" lon="-0.47948">
        <ele>1684</ele>
        <time>2021-08-10 09:05:06</time>
      </trkpt>
      <trkpt lat="42.83775" lon="-0.4795">
        <ele>1683.6</ele>
        <time>2021-08-10 09:05:07</time>
      </trkpt>
      <trkpt lat="42.83775" lon="-0.47951">
        <ele>1683.6</ele>
        <time>2021-08-10 09:05:08</time>
      </trkpt>
      <trkpt lat="42.83775" lon="-0.47952">
        <ele>1683.4</ele>
        <time>2021-08-10 09:05:09</time>
      </trkpt>
      <trkpt lat="42.83776" lon="-0.47952">
        <ele>1683.2</ele>
        <time>2021-08-10 09:05:10</time>
      </trkpt>
      <trkpt lat="42.83776" lon="-0.47951">
        <ele>1683.2</ele>
        <time>2021-08-10 09:05:11</time>
      </trkpt>
      <trkpt lat="42.83777" lon="-0.47952">
        <ele>1683</ele>
        <time>2021-08-10 09:05:12</time>
      </trkpt>
      <trkpt lat="42.83777" lon="-0.47951">
        <ele>1682.8</ele>
        <time>2021-08-10 09:05:13</time>
      </trkpt>
      <trkpt lat="42.83778" lon="-0.47952">
        <ele>1682.6</ele>
        <time>2021-08-10 09:05:14</time>
      </trkpt>
      <trkpt lat="42.83778" lon="-0.47952">
        <ele>1682.8</ele>
        <time>2021-08-10 09:05:15</time>
      </trkpt>
      <trkpt lat="42.83778" lon="-0.47953">
        <ele>1682.4</ele>
        <time>2021-08-10 09:05:16</time>
      </trkpt>
      <trkpt lat="42.83778" lon="-0.47954">
        <ele>1682.6</ele>
        <time>2021-08-10 09:05:17</time>
      </trkpt>
      <trkpt lat="42.83779" lon="-0.47954">
        <ele>1682.4</ele>
        <time>2021-08-10 09:05:18</time>
      </trkpt>
      <trkpt lat="42.83779" lon="-0.47954">
        <ele>1682.2</ele>
        <time>2021-08-10 09:05:19</time>
      </trkpt>
      <trkpt lat="42.83779" lon="-0.47954">
        <ele>1681.8</ele>
        <time>2021-08-10 09:05:20</time>
      </trkpt>
      <trkpt lat="42.8378" lon="-0.47955">
        <ele>1681.8</ele>
        <time>2021-08-10 09:05:21</time>
      </trkpt>
      <trkpt lat="42.83781" lon="-0.47956">
        <ele>1681.6</ele>
        <time>2021-08-10 09:05:22</time>
      </trkpt>
      <trkpt lat="42.83782" lon="-0.47956">
        <ele>1681.4</ele>
        <time>2021-08-10 09:05:23</time>
      </trkpt>
      <trkpt lat="42.83783" lon="-0.47957">
        <ele>1681.6</ele>
        <time>2021-08-10 09:05:24</time>
      </trkpt>
      <trkpt lat="42.83784" lon="-0.47957">
        <ele>1681.6</ele>
        <time>2021-08-10 09:05:25</time>
      </trkpt>
      <trkpt lat="42.83785" lon="-0.47957">
        <ele>1681.4</ele>
        <time>2021-08-10 09:05:26</time>
      </trkpt>
      <trkpt lat="42.83785" lon="-0.47956">
        <ele>1681.2</ele>
        <time>2021-08-10 09:05:27</time>
      </trkpt>
      <trkpt lat="42.83784" lon="-0.47958">
        <ele>1681.2</ele>
        <time>2021-08-10 09:05:28</time>
      </trkpt>
      <trkpt lat="42.83785" lon="-0.47957">
        <ele>1681.2</ele>
        <time>2021-08-10 09:05:29</time>
      </trkpt>
      <trkpt lat="42.83784" lon="-0.47958">
        <ele>1681</ele>
        <time>2021-08-10 09:05:30</time>
      </trkpt>
      <trkpt lat="42.83785" lon="-0.47959">
        <ele>1681</ele>
        <time>2021-08-10 09:05:31</time>
      </trkpt>
      <trkpt lat="42.83785" lon="-0.47958">
        <ele>1680.6</ele>
        <time>2021-08-10 09:05:32</time>
      </trkpt>
      <trkpt lat="42.83785" lon="-0.47958">
        <ele>1680.6</ele>
        <time>2021-08-10 09:05:33</time>
      </trkpt>
      <trkpt lat="42.83785" lon="-0.47958">
        <ele>1680.6</ele>
        <time>2021-08-10 09:05:36</time>
      </trkpt>
      <trkpt lat="42.83786" lon="-0.47959">
        <ele>1680.4</ele>
        <time>2021-08-10 09:05:37</time>
      </trkpt>
      <trkpt lat="42.83786" lon="-0.47958">
        <ele>1680.4</ele>
        <time>2021-08-10 09:05:38</time>
      </trkpt>
      <trkpt lat="42.83786" lon="-0.47957">
        <ele>1680.2</ele>
        <time>2021-08-10 09:05:39</time>
      </trkpt>
      <trkpt lat="42.83786" lon="-0.47958">
        <ele>1680.2</ele>
        <time>2021-08-10 09:05:40</time>
      </trkpt>
      <trkpt lat="42.83787" lon="-0.47958">
        <ele>1680</ele>
        <time>2021-08-10 09:05:41</time>
      </trkpt>
      <trkpt lat="42.83787" lon="-0.47957">
        <ele>1679.8</ele>
        <time>2021-08-10 09:05:42</time>
      </trkpt>
      <trkpt lat="42.83788" lon="-0.47957">
        <ele>1679.6</ele>
        <time>2021-08-10 09:05:43</time>
      </trkpt>
      <trkpt lat="42.83789" lon="-0.47957">
        <ele>1679.4</ele>
        <time>2021-08-10 09:05:44</time>
      </trkpt>
      <trkpt lat="42.83789" lon="-0.47957">
        <ele>1679.2</ele>
        <time>2021-08-10 09:05:45</time>
      </trkpt>
      <trkpt lat="42.8379" lon="-0.47957">
        <ele>1679</ele>
        <time>2021-08-10 09:05:46</time>
      </trkpt>
      <trkpt lat="42.83791" lon="-0.47957">
        <ele>1679</ele>
        <time>2021-08-10 09:05:47</time>
      </trkpt>
      <trkpt lat="42.83792" lon="-0.47958">
        <ele>1678.6</ele>
        <time>2021-08-10 09:05:48</time>
      </trkpt>
      <trkpt lat="42.83792" lon="-0.47958">
        <ele>1678.6</ele>
        <time>2021-08-10 09:05:49</time>
      </trkpt>
      <trkpt lat="42.83792" lon="-0.47958">
        <ele>1678.6</ele>
        <time>2021-08-10 09:05:50</time>
      </trkpt>
      <trkpt lat="42.83792" lon="-0.47958">
        <ele>1678.6</ele>
        <time>2021-08-10 09:05:51</time>
      </trkpt>
      <trkpt lat="42.83793" lon="-0.47958">
        <ele>1678.4</ele>
        <time>2021-08-10 09:05:52</time>
      </trkpt>
      <trkpt lat="42.83794" lon="-0.47959">
        <ele>1678.2</ele>
        <time>2021-08-10 09:05:53</time>
      </trkpt>
      <trkpt lat="42.83794" lon="-0.4796">
        <ele>1678</ele>
        <time>2021-08-10 09:05:54</time>
      </trkpt>
      <trkpt lat="42.83796" lon="-0.47961">
        <ele>1678</ele>
        <time>2021-08-10 09:05:55</time>
      </trkpt>
      <trkpt lat="42.83796" lon="-0.47962">
        <ele>1678</ele>
        <time>2021-08-10 09:05:56</time>
      </trkpt>
      <trkpt lat="42.83797" lon="-0.47963">
        <ele>1678</ele>
        <time>2021-08-10 09:05:57</time>
      </trkpt>
      <trkpt lat="42.83797" lon="-0.47964">
        <ele>1677.8</ele>
        <time>2021-08-10 09:05:58</time>
      </trkpt>
      <trkpt lat="42.83797" lon="-0.47964">
        <ele>1677.8</ele>
        <time>2021-08-10 09:05:59</time>
      </trkpt>
      <trkpt lat="42.83799" lon="-0.47965">
        <ele>1677.2</ele>
      </trkpt>
      <trkpt lat="42.838" lon="-0.47966">
        <ele>1677.2</ele>
        <time>2021-08-10 09:06:01</time>
      </trkpt>
      <trkpt lat="42.83801" lon="-0.47966">
        <ele>1677.2</ele>
        <time>2021-08-10 09:06:02</time>
      </trkpt>
      <trkpt lat="42.83802" lon="-0.47968">
        <ele>1677</ele>
        <time>2021-08-10 09:06:03</time>
      </trkpt>
      <trkpt lat="42.83802" lon="-0.47969">
        <ele>1677</ele>
        <time>2021-08-10 09:06:04</time>
      </trkpt>
      <trkpt lat="42.83802" lon="-0.4797">
        <ele>1677</ele>
        <time>2021-08-10 09:06:05</time>
      </trkpt>
      <trkpt lat="42.83803" lon="-0.4797">
        <ele>1676.6</ele>
        <time>2021-08-10 09:06:06</time>
      </trkpt>
      <trkpt lat="42.83803" lon="-0.47971">
        <ele>1676.4</ele>
        <time>2021-08-10 09:06:07</time>
      </trkpt>
      <trkpt lat="42.83804" lon="-0.4797">
        <ele>1676.2</ele>
        <time>2021-08-10 09:06:08</time>
      </trkpt>
      <trkpt lat="42.83804" lon="-0.4797">
        <ele>1676</ele>
        <time>2021-08-10 09:06:09</time>
      </trkpt>
      <trkpt lat="42.83804" lon="-0.4797">
        <ele>1675.8</ele>
        <time>2021-08-10 09:06:10</time>
      </trkpt>
      <trkpt lat="42.83803" lon="-0.47969">
        <ele>1675.8</ele>
        <time>2021-08-10 09:06:11</time>
      </trkpt>
      <trkpt lat="42.83803" lon="-0.4797">
        <ele>1675.4</ele>
        <time>2021-08-10 09:06:12</time>
      </trkpt>
      <trkpt lat="42.83802" lon="-0.47968">
        <ele>1675.4</ele>
        <time>2021-08-10 09:06:13</time>
      </trkpt>
      <trkpt lat="42.83802" lon="-0.47968">
        <ele>1675.4</ele>
        <time>2021-08-10 09:06:14</time>
      </trkpt>
      <trkpt lat="42.83802" lon="-0.47967">
        <ele>1675</ele>
      </trkpt>
      <trkpt lat="42.83802" lon="-0.47966">
        <ele>1674.6</ele>
        <time>2021-08-10 09:06:15</time>
      </trkpt>
      <trkpt lat="42.83802" lon="-0.47965">
        <ele>1674.4</ele>
        <time>2021-08-10 09:06:17</time>
      </trkpt>
      <trkpt lat="42.83802" lon="-0.47964">
        <ele>1674.6</ele>
      </trkpt>
      <trkpt lat="42.83802" lon="-0.47964">
        <ele>1674.6</ele>
        <time>2021-08-10 09:06:18</time>
      </trkpt>
      <trkpt lat="42.83801" lon="-0.47963">
        <ele>1674.4</ele>
        <time>2021-08-10 09:06:19</time>
      </trkpt>
      <trkpt lat="42.83801" lon="-0.47962">
        <ele>1674.2</ele>
        <time>2021-08-10 09:06:20</time>
      </trkpt>
      <trkpt lat="42.83801" lon="-0.47962">
        <ele>1673.8</ele>
        <time>2021-08-10 09:06:21</time>
      </trkpt>
      <trkpt lat="42.83802" lon="-0.47962">
        <ele>1673.8</ele>
        <time>2021-08-10 09:06:22</time>
      </trkpt>
      <trkpt lat="42.83803" lon="-0.47962">
        <ele>1673.8</ele>
        <time>2021-08-10 09:06:23</time>
      </trkpt>
      <trkpt lat="42.83804" lon="-0.47962">
        <ele>1673.8</ele>
        <time>2021-08-10 09:06:24</time>
      </trkpt>
      <trkpt lat="42.83804" lon="-0.47962">
        <ele>1673.6</ele>
        <time>2021-08-10 09:06:25</time>
      </trkpt>
      <trkpt lat="42.83805" lon="-0.47962">
        <ele>1673.6</ele>
        <time>2021-08-10 09:06:26</time>
      </trkpt>
      <trkpt lat="42.83806" lon="-0.47962">
        <ele>1673.8</ele>
        <time>2021-08-10 09:06:27</time>
      </trkpt>
      <trkpt lat="42.83806" lon="-0.47962">
        <ele>1673.2</ele>
        <time>2021-08-10 09:06:28</time>
      </trkpt>
      <trkpt lat="42.83806" lon="-0.47962">
        <ele>1673.2</ele>
        <time>2021-08-10 09:06:29</time>
      </trkpt>
      <trkpt lat="42.83806" lon="-0.47962">
        <ele>1673</ele>
        <time>2021-08-10 09:06:30</time>
      </trkpt>
      <trkpt lat="42.83806" lon="-0.47962">
        <ele>1673</ele>
        <time>2021-08-10 09:06:31</time>
      </trkpt>
      <trkpt lat="42.83806" lon="-0.47962">
        <ele>1672.8</ele>
        <time>2021-08-10 09:06:32</time>
      </trkpt>
      <trkpt lat="42.83806" lon="-0.47961">
        <ele>1672.4</ele>
        <time>2021-08-10 09:06:33</time>
      </trkpt>
      <trkpt lat="42.83806" lon="-0.4796">
        <ele>1672.4</ele>
        <time>2021-08-10 09:06:34</time>
      </trkpt>
      <trkpt lat="42.83807" lon="-0.47958">
        <ele>1672.2</ele>
        <time>2021-08-10 09:06:35</time>
      </trkpt>
      <trkpt lat="42.83807" lon="-0.47958">
        <ele>1672</ele>
        <time>2021-08-10 09:06:37</time>
      </trkpt>
      <trkpt lat="42.83806" lon="-0.47958">
        <ele>1672</ele>
      </trkpt>
      <trkpt lat="42.83806" lon="-0.47957">
        <ele>1672</ele>
        <time>2021-08-10 09:06:38</time>
      </trkpt>
      <trkpt lat="42.83807" lon="-0.47956">
        <ele>1671.8</ele>
        <time>2021-08-10 09:06:39</time>
      </trkpt>
      <trkpt lat="42.83806" lon="-0.47956">
        <ele>1671.8</ele>
        <time>2021-08-10 09:06:40</time>
      </trkpt>
      <trkpt lat="42.83806" lon="-0.47955">
        <ele>1671.6</ele>
        <time>2021-08-10 09:06:41</time>
      </trkpt>
      <trkpt lat="42.83806" lon="-0.47954">
        <ele>1671.4</ele>
        <time>2021-08-10 09:06:42</time>
      </trkpt>
      <trkpt lat="42.83805" lon="-0.47954">
        <ele>1671.2</ele>
        <time>2021-08-10 09:06:43</time>
      </trkpt>
      <trkpt lat="42.83804" lon="-0.47953">
        <ele>1671</ele>
        <time>2021-08-10 09:06:44</time>
      </trkpt>
      <trkpt lat="42.83804" lon="-0.47953">
        <ele>1670.6</ele>
        <time>2021-08-10 09:06:45</time>
      </trkpt>
      <trkpt lat="42.83804" lon="-0.47952">
        <ele>1670.6</ele>
        <time>2021-08-10 09:06:46</time>
      </trkpt>
      <trkpt lat="42.83805" lon="-0.47951">
        <ele>1670.4</ele>
        <time>2021-08-10 09:06:47</time>
      </trkpt>
      <trkpt lat="42.83805" lon="-0.47951">
        <ele>1670.4</ele>
        <time>2021-08-10 09:06:48</time>
      </trkpt>
      <trkpt lat="42.83805" lon="-0.4795">
        <ele>1670.2</ele>
        <time>2021-08-10 09:06:49</time>
      </trkpt>
      <trkpt lat="42.83805" lon="-0.47948">
        <ele>1670</ele>
        <time>2021-08-10 09:06:50</time>
      </trkpt>
      <trkpt lat="42.83804" lon="-0.47947">
        <ele>1670</ele>
        <time>2021-08-10 09:06:51</time>
      </trkpt>
      <trkpt lat="42.83804" lon="-0.47947">
        <ele>1669.6</ele>
        <time>2021-08-10 09:06:52</time>
      </trkpt>
      <trkpt lat="42.83804" lon="-0.47946">
        <ele>1669.6</ele>
        <time>2021-08-10 09:06:53</time>
      </trkpt>
      <trkpt lat="42.83803" lon="-0.47946">
        <ele>1669.6</ele>
        <time>2021-08-10 09:06:54</time>
      </trkpt>
      <trkpt lat="42.83803" lon="-0.47946">
        <ele>1669.4</ele>
        <time>2021-08-10 09:06:55</time>
      </trkpt>
      <trkpt lat="42.83803" lon="-0.47945">
        <ele>1669</ele>
        <time>2021-08-10 09:06:56</time>
      </trkpt>
      <trkpt lat="42.83803" lon="-0.47945">
        <ele>1669</ele>
        <time>2021-08-10 09:06:57</time>
      </trkpt>
      <trkpt lat="42.83803" lon="-0.47944">
        <ele>1668.8</ele>
        <time>2021-08-10 09:06:58</time>
      </trkpt>
      <trkpt lat="42.83803" lon="-0.47942">
        <ele>1668.6</ele>
        <time>2021-08-10 09:06:59</time>
      </trkpt>
      <trkpt lat="42.83802" lon="-0.47942">
        <ele>1668.4</ele>
        <time>2021-08-10 09:07:00</time>
      </trkpt>
      <trkpt lat="42.83802" lon="-0.47941">
        <ele>1668.2</ele>
        <time>2021-08-10 09:07:01</time>
      </trkpt>
      <trkpt lat="42.83801" lon="-0.47942">
        <ele>1668</ele>
        <time>2021-08-10 09:07:02</time>
      </trkpt>
      <trkpt lat="42.838" lon="-0.47945">
        <ele>1668</ele>
        <time>2021-08-10 09:07:03</time>
      </trkpt>
      <trkpt lat="42.83799" lon="-0.47944">
        <ele>1667.8</ele>
        <time>2021-08-10 09:07:04</time>
      </trkpt>
      <trkpt lat="42.83798" lon="-0.47945">
        <ele>1667.6</ele>
        <time>2021-08-10 09:07:05</time>
      </trkpt>
      <trkpt lat="42.83797" lon="-0.47944">
        <ele>1667.4</ele>
        <time>2021-08-10 09:07:06</time>
      </trkpt>
      <trkpt lat="42.83797" lon="-0.47943">
        <ele>1667.2</ele>
        <time>2021-08-10 09:07:07</time>
      </trkpt>
      <trkpt lat="42.83796" lon="-0.47943">
        <ele>1667</ele>
        <time>2021-08-10 09:07:08</time>
      </trkpt>
      <trkpt lat="42.83796" lon="-0.47943">
        <ele>1667</ele>
        <time>2021-08-10 09:07:09</time>
      </trkpt>
      <trkpt lat="42.83796" lon="-0.47943">
        <ele>1666.6</ele>
        <time>2021-08-10 09:07:10</time>
      </trkpt>
      <trkpt lat="42.83795" lon="-0.47942">
        <ele>1666.6</ele>
        <time>2021-08-10 09:07:11</time>
      </trkpt>
      <trkpt lat="42.83795" lon="-0.47942">
        <ele>1666.2</ele>
        <time>2021-08-10 09:07:12</time>
      </trkpt>
      <trkpt lat="42.83795" lon="-0.47942">
        <ele>1666.2</ele>
        <time>2021-08-10 09:07:13</time>
      </trkpt>
      <trkpt lat="42.83794" lon="-0.47941">
        <ele>1665.4</ele>
        <time>2021-08-10 09:07:14</time>
      </trkpt>
      <trkpt lat="42.83794" lon="-0.47941">
        <ele>1666</ele>
        <time>2021-08-10 09:07:16</time>
      </trkpt>
      <trkpt lat="42.83794" lon="-0.47941">
        <ele>1666</ele>
      </trkpt>
      <trkpt lat="42.83794" lon="-0.4794">
        <ele>1665.8</ele>
        <time>2021-08-10 09:07:17</time>
      </trkpt>
      <trkpt lat="42.83793" lon="-0.4794">
        <ele>1665.8</ele>
        <time>2021-08-10 09:07:18</time>
      </trkpt>
      <trkpt lat="42.83793" lon="-0.47939">
        <ele>1665.8</ele>
        <time>2021-08-10 09:07:19</time>
      </trkpt>
      <trkpt lat="42.83793" lon="-0.47939">
        <ele>1665.6</ele>
        <time>2021-08-10 09:07:20</time>
      </trkpt>
      <trkpt lat="42.83793" lon="-0.47937">
        <ele>1665.2</ele>
        <time>2021-08-10 09:07:21</time>
      </trkpt>
      <trkpt lat="42.83793" lon="-0.47936">
        <ele>1664.8</ele>
        <time>2021-08-10 09:07:22</time>
      </trkpt>
      <trkpt lat="42.83792" lon="-0.47935">
        <ele>1664.8</ele>
        <time>2021-08-10 09:07:23</time>
      </trkpt>
      <trkpt lat="42.83792" lon="-0.47934">
        <ele>1664.8</ele>
        <time>2021-08-10 09:07:24</time>
      </trkpt>
      <trkpt lat="42.83791" lon="-0.47934">
        <ele>1664.6</ele>
        <time>2021-08-10 09:07:25</time>
      </trkpt>
      <trkpt lat="42.83791" lon="-0.47933">
        <ele>1664.6</ele>
        <time>2021-08-10 09:07:26</time>
      </trkpt>
      <trkpt lat="42.8379" lon="-0.47933">
        <ele>1664.4</ele>
        <time>2021-08-10 09:07:27</time>
      </trkpt>
      <trkpt lat="42.8379" lon="-0.47932">
        <ele>1664.4</ele>
        <time>2021-08-10 09:07:28</time>
      </trkpt>
      <trkpt lat="42.8379" lon="-0.47933">
        <ele>1664.2</ele>
        <time>2021-08-10 09:07:29</time>
      </trkpt>
      <trkpt lat="42.8379" lon="-0.47932">
        <ele>1664</ele>
        <time>2021-08-10 09:07:30</time>
      </trkpt>
      <trkpt lat="42.83789" lon="-0.47931">
        <ele>1663.8</ele>
        <time>2021-08-10 09:07:31</time>
      </trkpt>
      <trkpt lat="42.83789" lon="-0.47931">
        <ele>1663.6</ele>
        <time>2021-08-10 09:07:32</time>
      </trkpt>
      <trkpt lat="42.83788" lon="-0.4793">
        <ele>1663.6</ele>
        <time>2021-08-10 09:07:33</time>
      </trkpt>
      <trkpt lat="42.83788" lon="-0.47929">
        <ele>1663.6</ele>
        <time>2021-08-10 09:07:34</time>
      </trkpt>
      <trkpt lat="42.83788" lon="-0.47929">
        <ele>1663.4</ele>
        <time>2021-08-10 09:07:35</time>
      </trkpt>
      <trkpt lat="42.83787" lon="-0.47929">
        <ele>1663.2</ele>
        <time>2021-08-10 09:07:36</time>
      </trkpt>
      <trkpt lat="42.83787" lon="-0.47928">
        <ele>1663.2</ele>
        <time>2021-08-10 09:07:37</time>
      </trkpt>
      <trkpt lat="42.83787" lon="-0.47927">
        <ele>1663</ele>
        <time>2021-08-10 09:07:38</time>
      </trkpt>
      <trkpt lat="42.83788" lon="-0.47926">
        <ele>1663</ele>
        <time>2021-08-10 09:07:39</time>
      </trkpt>
      <trkpt lat="42.83788" lon="-0.47926">
        <ele>1662.6</ele>
        <time>2021-08-10 09:07:40</time>
      </trkpt>
      <trkpt lat="42.83788" lon="-0.47925">
        <ele>1661.6</ele>
        <time>2021-08-10 09:07:41</time>
      </trkpt>
      <trkpt lat="42.83787" lon="-0.47926">
        <ele>1661.8</ele>
        <time>2021-08-10 09:07:42</time>
      </trkpt>
      <trkpt lat="42.83787" lon="-0.47926">
        <ele>1661.6</ele>
        <time>2021-08-10 09:07:43</time>
      </trkpt>
      <trkpt lat="42.83787" lon="-0.47925">
        <ele>1661.8</ele>
        <time>2021-08-10 09:07:44</time>
      </trkpt>
      <trkpt lat="42.83787" lon="-0.47924">
        <ele>1661.6</ele>
        <time>2021-08-10 09:07:45</time>
      </trkpt>
      <trkpt lat="42.83787" lon="-0.47923">
        <ele>1661.4</ele>
        <time>2021-08-10 09:07:46</time>
      </trkpt>
      <trkpt lat="42.83787" lon="-0.47921">
        <ele>1661.2</ele>
        <time>2021-08-10 09:07:47</time>
      </trkpt>
      <trkpt lat="42.83786" lon="-0.47922">
        <ele>1661.2</ele>
        <time>2021-08-10 09:07:48</time>
      </trkpt>
      <trkpt lat="42.83787" lon="-0.47922">
        <ele>1661</ele>
        <time>2021-08-10 09:07:49</time>
      </trkpt>
      <trkpt lat="42.83786" lon="-0.4792">
        <ele>1660.8</ele>
        <time>2021-08-10 09:07:50</time>
      </trkpt>
      <trkpt lat="42.83786" lon="-0.47919">
        <ele>1660.6</ele>
        <time>2021-08-10 09:07:51</time>
      </trkpt>
      <trkpt lat="42.83787" lon="-0.47919">
        <ele>1660.8</ele>
        <time>2021-08-10 09:07:52</time>
      </trkpt>
      <trkpt lat="42.83787" lon="-0.47919">
        <ele>1660.6</ele>
        <time>2021-08-10 09:07:53</time>
      </trkpt>
      <trkpt lat="42.83787" lon="-0.47918">
        <ele>1660.4</ele>
        <time>2021-08-10 09:07:54</time>
      </trkpt>
      <trkpt lat="42.83788" lon="-0.47918">
        <ele>1660.2</ele>
        <time>2021-08-10 09:07:55</time>
      </trkpt>
      <trkpt lat="42.83789" lon="-0.47918">
        <ele>1659.8</ele>
        <time>2021-08-10 09:07:56</time>
      </trkpt>
      <trkpt lat="42.83789" lon="-0.47918">
        <ele>1659.8</ele>
        <time>2021-08-10 09:07:57</time>
      </trkpt>
      <trkpt lat="42.83789" lon="-0.47918">
        <ele>1659.6</ele>
        <time>2021-08-10 09:07:58</time>
      </trkpt>
      <trkpt lat="42.8379" lon="-0.47917">
        <ele>1659.6</ele>
        <time>2021-08-10 09:07:59</time>
      </trkpt>
      <trkpt lat="42.83791" lon="-0.47918">
        <ele>1659.2</ele>
        <time>2021-08-10 09:08:00</time>
      </trkpt>
      <trkpt lat="42.83791" lon="-0.47918">
        <ele>1659</ele>
        <time>2021-08-10 09:08:01</time>
      </trkpt>
      <trkpt lat="42.83792" lon="-0.47919">
        <ele>1658.8</ele>
        <time>2021-08-10 09:08:02</time>
      </trkpt>
      <trkpt lat="42.83792" lon="-0.47919">
        <ele>1659</ele>
        <time>2021-08-10 09:08:03</time>
      </trkpt>
      <trkpt lat="42.83793" lon="-0.47919">
        <ele>1658.6</ele>
        <time>2021-08-10 09:08:04</time>
      </trkpt>
      <trkpt lat="42.83793" lon="-0.4792">
        <ele>1658.4</ele>
        <time>2021-08-10 09:08:05</time>
      </trkpt>
      <trkpt lat="42.83793" lon="-0.4792">
        <ele>1658.2</ele>
        <time>2021-08-10 09:08:06</time>
      </trkpt>
      <trkpt lat="42.83794" lon="-0.47921">
        <ele>1658</ele>
        <time>2021-08-10 09:08:07</time>
      </trkpt>
      <trkpt lat="42.83794" lon="-0.47922">
        <ele>1657.8</ele>
        <time>2021-08-10 09:08:08</time>
      </trkpt>
      <trkpt lat="42.83795" lon="-0.47922">
        <ele>1657.6</ele>
        <time>2021-08-10 09:08:09</time>
      </trkpt>
      <trkpt lat="42.83795" lon="-0.47921">
        <ele>1657.4</ele>
        <time>2021-08-10 09:08:10</time>
      </trkpt>
      <trkpt lat="42.83796" lon="-0.47921">
        <ele>1657.4</ele>
        <time>2021-08-10 09:08:11</time>
      </trkpt>
      <trkpt lat="42.83797" lon="-0.47921">
        <ele>1657.2</ele>
        <time>2021-08-10 09:08:12</time>
      </trkpt>
      <trkpt lat="42.83798" lon="-0.47922">
        <ele>1657</ele>
        <time>2021-08-10 09:08:13</time>
      </trkpt>
      <trkpt lat="42.83798" lon="-0.47922">
        <ele>1656.8</ele>
        <time>2021-08-10 09:08:14</time>
      </trkpt>
      <trkpt lat="42.83799" lon="-0.47922">
        <ele>1656.8</ele>
        <time>2021-08-10 09:08:15</time>
      </trkpt>
      <trkpt lat="42.83799" lon="-0.47923">
        <ele>1656.8</ele>
        <time>2021-08-10 09:08:16</time>
      </trkpt>
      <trkpt lat="42.83799" lon="-0.47923">
        <ele>1656.6</ele>
        <time>2021-08-10 09:08:17</time>
      </trkpt>
      <trkpt lat="42.838" lon="-0.47924">
        <ele>1656.2</ele>
        <time>2021-08-10 09:08:18</time>
      </trkpt>
      <trkpt lat="42.838" lon="-0.47924">
        <ele>1656</ele>
        <time>2021-08-10 09:08:19</time>
      </trkpt>
      <trkpt lat="42.83801" lon="-0.47924">
        <ele>1655.8</ele>
        <time>2021-08-10 09:08:20</time>
      </trkpt>
      <trkpt lat="42.83801" lon="-0.47923">
        <ele>1655.8</ele>
        <time>2021-08-10 09:08:21</time>
      </trkpt>
      <trkpt lat="42.83802" lon="-0.47923">
        <ele>1655.8</ele>
        <time>2021-08-10 09:08:22</time>
      </trkpt>
      <trkpt lat="42.83803" lon="-0.47923">
        <ele>1655.6</ele>
        <time>2021-08-10 09:08:23</time>
      </trkpt>
      <trkpt lat="42.83803" lon="-0.47922">
        <ele>1655.4</ele>
        <time>2021-08-10 09:08:24</time>
      </trkpt>
      <trkpt lat="42.83803" lon="-0.47921">
        <ele>1655.2</ele>
        <time>2021-08-10 09:08:25</time>
      </trkpt>
      <trkpt lat="42.83804" lon="-0.4792">
        <ele>1654.8</ele>
        <time>2021-08-10 09:08:26</time>
      </trkpt>
      <trkpt lat="42.83804" lon="-0.47919">
        <ele>1654.8</ele>
        <time>2021-08-10 09:08:27</time>
      </trkpt>
      <trkpt lat="42.83803" lon="-0.47918">
        <ele>1654.8</ele>
        <time>2021-08-10 09:08:28</time>
      </trkpt>
      <trkpt lat="42.83803" lon="-0.47917">
        <ele>1654.4</ele>
        <time>2021-08-10 09:08:29</time>
      </trkpt>
      <trkpt lat="42.83802" lon="-0.47916">
        <ele>1654.2</ele>
        <time>2021-08-10 09:08:30</time>
      </trkpt>
      <trkpt lat="42.83802" lon="-0.47915">
        <ele>1654.2</ele>
        <time>2021-08-10 09:08:31</time>
      </trkpt>
      <trkpt lat="42.83801" lon="-0.47915">
        <ele>1654</ele>
        <time>2021-08-10 09:08:32</time>
      </trkpt>
      <trkpt lat="42.83801" lon="-0.47914">
        <ele>1653.8</ele>
        <time>2021-08-10 09:08:33</time>
      </trkpt>
      <trkpt lat="42.838" lon="-0.47913">
        <ele>1653.6</ele>
        <time>2021-08-10 09:08:34</time>
      </trkpt>
      <trkpt lat="42.838" lon="-0.47912">
        <ele>1653.4</ele>
        <time>2021-08-10 09:08:35</time>
      </trkpt>
      <trkpt lat="42.838" lon="-0.47911">
        <ele>1653.2</ele>
        <time>2021-08-10 09:08:36</time>
      </trkpt>
      <trkpt lat="42.83799" lon="-0.47911">
        <ele>1653</ele>
        <time>2021-08-10 09:08:37</time>
      </trkpt>
      <trkpt lat="42.83799" lon="-0.47911">
        <ele>1653</ele>
        <time>2021-08-10 09:08:38</time>
      </trkpt>
      <trkpt lat="42.83798" lon="-0.47909">
        <ele>1652.6</ele>
        <time>2021-08-10 09:08:39</time>
      </trkpt>
      <trkpt lat="42.83797" lon="-0.47909">
        <ele>1652.6</ele>
        <time>2021-08-10 09:08:40</time>
      </trkpt>
      <trkpt lat="42.83796" lon="-0.47908">
        <ele>1652.2</ele>
        <time>2021-08-10 09:08:41</time>
      </trkpt>
      <trkpt lat="42.83795" lon="-0.47908">
        <ele>1652</ele>
        <time>2021-08-10 09:08:42</time>
      </trkpt>
      <trkpt lat="42.83795" lon="-0.47907">
        <ele>1651.8</ele>
        <time>2021-08-10 09:08:43</time>
      </trkpt>
      <trkpt lat="42.83794" lon="-0.47906">
        <ele>1651.6</ele>
        <time>2021-08-10 09:08:44</time>
      </trkpt>
      <trkpt lat="42.83794" lon="-0.47905">
        <ele>1651.6</ele>
        <time>2021-08-10 09:08:45</time>
      </trkpt>
      <trkpt lat="42.83793" lon="-0.47905">
        <ele>1651.6</ele>
        <time>2021-08-10 09:08:46</time>
      </trkpt>
      <trkpt lat="42.83793" lon="-0.47905">
        <ele>1651.4</ele>
        <time>2021-08-10 09:08:47</time>
      </trkpt>
      <trkpt lat="42.83792" lon="-0.47905">
        <ele>1651</ele>
        <time>2021-08-10 09:08:48</time>
      </trkpt>
      <trkpt lat="42.83792" lon="-0.47906">
        <ele>1651</ele>
        <time>2021-08-10 09:08:49</time>
      </trkpt>
      <trkpt lat="42.83791" lon="-0.47905">
        <ele>1650.8</ele>
        <time>2021-08-10 09:08:50</time>
      </trkpt>
      <trkpt lat="42.83791" lon="-0.47903">
        <ele>1650.6</ele>
        <time>2021-08-10 09:08:51</time>
      </trkpt>
      <trkpt lat="42.83791" lon="-0.47903">
        <ele>1650.4</ele>
        <time>2021-08-10 09:08:52</time>
      </trkpt>
      <trkpt lat="42.83791" lon="-0.47903">
        <ele>1650.2</ele>
        <time>2021-08-10 09:08:53</time>
      </trkpt>
      <trkpt lat="42.8379" lon="-0.47903">
        <ele>1650</ele>
        <time>2021-08-10 09:08:54</time>
      </trkpt>
      <trkpt lat="42.8379" lon="-0.47902">
        <ele>1649.4</ele>
        <time>2021-08-10 09:08:55</time>
      </trkpt>
      <trkpt lat="42.8379" lon="-0.47899">
        <ele>1649.4</ele>
        <time>2021-08-10 09:08:56</time>
      </trkpt>
      <trkpt lat="42.8379" lon="-0.47898">
        <ele>1649.6</ele>
        <time>2021-08-10 09:08:57</time>
      </trkpt>
      <trkpt lat="42.8379" lon="-0.47897">
        <ele>1649.4</ele>
        <time>2021-08-10 09:08:58</time>
      </trkpt>
      <trkpt lat="42.83789" lon="-0.47896">
        <ele>1649</ele>
        <time>2021-08-10 09:08:59</time>
      </trkpt>
      <trkpt lat="42.83789" lon="-0.47896">
        <ele>1648.8</ele>
        <time>2021-08-10 09:09:00</time>
      </trkpt>
      <trkpt lat="42.83788" lon="-0.47895">
        <ele>1648</ele>
        <time>2021-08-10 09:09:01</time>
      </trkpt>
      <trkpt lat="42.83787" lon="-0.47892">
        <ele>1648.2</ele>
        <time>2021-08-10 09:09:02</time>
      </trkpt>
      <trkpt lat="42.83787" lon="-0.47889">
        <ele>1648</ele>
        <time>2021-08-10 09:09:03</time>
      </trkpt>
      <trkpt lat="42.83787" lon="-0.47888">
        <ele>1648.2</ele>
        <time>2021-08-10 09:09:04</time>
      </trkpt>
      <trkpt lat="42.83787" lon="-0.47888">
        <ele>1648</ele>
        <time>2021-08-10 09:09:05</time>
      </trkpt>
      <trkpt lat="42.83787" lon="-0.47886">
        <ele>1648</ele>
        <time>2021-08-10 09:09:06</time>
      </trkpt>
      <trkpt lat="42.83786" lon="-0.47885">
        <ele>1647.8</ele>
        <time>2021-08-10 09:09:07</time>
      </trkpt>
      <trkpt lat="42.83786" lon="-0.47883">
        <ele>1647.8</ele>
        <time>2021-08-10 09:09:08</time>
      </trkpt>
      <trkpt lat="42.83785" lon="-0.47882">
        <ele>1647.8</ele>
        <time>2021-08-10 09:09:09</time>
      </trkpt>
      <trkpt lat="42.83784" lon="-0.47882">
        <ele>1647.8</ele>
        <time>2021-08-10 09:09:10</time>
      </trkpt>
      <trkpt lat="42.83783" lon="-0.47881">
        <ele>1647.4</ele>
        <time>2021-08-10 09:09:11</time>
      </trkpt>
      <trkpt lat="42.83783" lon="-0.4788">
        <ele>1647.2</ele>
        <time>2021-08-10 09:09:12</time>
      </trkpt>
      <trkpt lat="42.83783" lon="-0.47879">
        <ele>1647</ele>
        <time>2021-08-10 09:09:13</time>
      </trkpt>
      <trkpt lat="42.83782" lon="-0.47878">
        <ele>1646.6</ele>
        <time>2021-08-10 09:09:14</time>
      </trkpt>
      <trkpt lat="42.83782" lon="-0.47877">
        <ele>1646.4</ele>
        <time>2021-08-10 09:09:15</time>
      </trkpt>
      <trkpt lat="42.83781" lon="-0.47875">
        <ele>1646.2</ele>
        <time>2021-08-10 09:09:16</time>
      </trkpt>
      <trkpt lat="42.83781" lon="-0.47874">
        <ele>1646.2</ele>
        <time>2021-08-10 09:09:17</time>
      </trkpt>
      <trkpt lat="42.83781" lon="-0.47873">
        <ele>1646</ele>
        <time>2021-08-10 09:09:18</time>
      </trkpt>
      <trkpt lat="42.83781" lon="-0.47872">
        <ele>1645.6</ele>
        <time>2021-08-10 09:09:19</time>
      </trkpt>
      <trkpt lat="42.83781" lon="-0.47871">
        <ele>1645.6</ele>
        <time>2021-08-10 09:09:20</time>
      </trkpt>
      <trkpt lat="42.8378" lon="-0.4787">
        <ele>1645.4</ele>
        <time>2021-08-10 09:09:21</time>
      </trkpt>
      <trkpt lat="42.83781" lon="-0.47871">
        <ele>1645.2</ele>
        <time>2021-08-10 09:09:22</time>
      </trkpt>
      <trkpt lat="42.83781" lon="-0.4787">
        <ele>1645</ele>
        <time>2021-08-10 09:09:23</time>
      </trkpt>
      <trkpt lat="42.83781" lon="-0.47869">
        <ele>1644.8</ele>
        <time>2021-08-10 09:09:24</time>
      </trkpt>
      <trkpt lat="42.83781" lon="-0.47867">
        <ele>1644.8</ele>
        <time>2021-08-10 09:09:25</time>
      </trkpt>
      <trkpt lat="42.83782" lon="-0.47867">
        <ele>1644.4</ele>
        <time>2021-08-10 09:09:26</time>
      </trkpt>
      <trkpt lat="42.83782" lon="-0.47866">
        <ele>1644</ele>
        <time>2021-08-10 09:09:27</time>
      </trkpt>
      <trkpt lat="42.83781" lon="-0.47866">
        <ele>1644.2</ele>
        <time>2021-08-10 09:09:28</time>
      </trkpt>
      <trkpt lat="42.8378" lon="-0.47866">
        <ele>1644.2</ele>
        <time>2021-08-10 09:09:29</time>
      </trkpt>
      <trkpt lat="42.8378" lon="-0.47866">
        <ele>1644.2</ele>
        <time>2021-08-10 09:09:30</time>
      </trkpt>
      <trkpt lat="42.83779" lon="-0.47864">
        <ele>1643.6</ele>
        <time>2021-08-10 09:09:31</time>
      </trkpt>
      <trkpt lat="42.83778" lon="-0.47864">
        <ele>1643.6</ele>
        <time>2021-08-10 09:09:32</time>
      </trkpt>
      <trkpt lat="42.83778" lon="-0.47863">
        <ele>1643.2</ele>
        <time>2021-08-10 09:09:33</time>
      </trkpt>
      <trkpt lat="42.83777" lon="-0.47861">
        <ele>1643.2</ele>
        <time>2021-08-10 09:09:34</time>
      </trkpt>
      <trkpt lat="42.83776" lon="-0.4786">
        <ele>1642.8</ele>
        <time>2021-08-10 09:09:35</time>
      </trkpt>
      <trkpt lat="42.83776" lon="-0.47858">
        <ele>1642.6</ele>
        <time>2021-08-10 09:09:36</time>
      </trkpt>
      <trkpt lat="42.83776" lon="-0.47857">
        <ele>1642.6</ele>
        <time>2021-08-10 09:09:37</time>
      </trkpt>
      <trkpt lat="42.83776" lon="-0.47856">
        <ele>1642.4</ele>
        <time>2021-08-10 09:09:38</time>
      </trkpt>
      <trkpt lat="42.83776" lon="-0.47853">
        <ele>1642.2</ele>
        <time>2021-08-10 09:09:39</time>
      </trkpt>
      <trkpt lat="42.83776" lon="-0.4785">
        <ele>1641.8</ele>
        <time>2021-08-10 09:09:40</time>
      </trkpt>
      <trkpt lat="42.83776" lon="-0.47848">
        <ele>1642.4</ele>
        <time>2021-08-10 09:09:41</time>
      </trkpt>
      <trkpt lat="42.83776" lon="-0.47846">
        <ele>1642.2</ele>
        <time>2021-08-10 09:09:42</time>
      </trkpt>
      <trkpt lat="42.83775" lon="-0.47845">
        <ele>1641.4</ele>
        <time>2021-08-10 09:09:43</time>
      </trkpt>
      <trkpt lat="42.83775" lon="-0.47843">
        <ele>1641.2</ele>
        <time>2021-08-10 09:09:44</time>
      </trkpt>
      <trkpt lat="42.83774" lon="-0.47843">
        <ele>1641</ele>
        <time>2021-08-10 09:09:45</time>
      </trkpt>
      <trkpt lat="42.83774" lon="-0.47841">
        <ele>1640.8</ele>
        <time>2021-08-10 09:09:46</time>
      </trkpt>
      <trkpt lat="42.83773" lon="-0.4784">
        <ele>1640.8</ele>
        <time>2021-08-10 09:09:47</time>
      </trkpt>
      <trkpt lat="42.83773" lon="-0.47838">
        <ele>1641</ele>
        <time>2021-08-10 09:09:48</time>
      </trkpt>
      <trkpt lat="42.83772" lon="-0.47837">
        <ele>1640.8</ele>
        <time>2021-08-10 09:09:49</time>
      </trkpt>
      <trkpt lat="42.83772" lon="-0.47835">
        <ele>1640.8</ele>
        <time>2021-08-10 09:09:50</time>
      </trkpt>
      <trkpt lat="42.83772" lon="-0.47834">
        <ele>1640.8</ele>
        <time>2021-08-10 09:09:51</time>
      </trkpt>
      <trkpt lat="42.83772" lon="-0.47832">
        <ele>1640.8</ele>
        <time>2021-08-10 09:09:52</time>
      </trkpt>
      <trkpt lat="42.83771" lon="-0.4783">
        <ele>1640.8</ele>
        <time>2021-08-10 09:09:53</time>
      </trkpt>
      <trkpt lat="42.83771" lon="-0.47828">
        <ele>1640.8</ele>
        <time>2021-08-10 09:09:54</time>
      </trkpt>
      <trkpt lat="42.83771" lon="-0.47826">
        <ele>1640.8</ele>
        <time>2021-08-10 09:09:55</time>
      </trkpt>
      <trkpt lat="42.83771" lon="-0.47824">
        <ele>1640.8</ele>
        <time>2021-08-10 09:09:56</time>
      </trkpt>
      <trkpt lat="42.83771" lon="-0.47822">
        <ele>1640.8</ele>
        <time>2021-08-10 09:09:57</time>
      </trkpt>
      <trkpt lat="42.83771" lon="-0.4782">
        <ele>1640.8</ele>
        <time>2021-08-10 09:09:58</time>
      </trkpt>
      <trkpt lat="42.83771" lon="-0.47819">
        <ele>1640.4</ele>
        <time>2021-08-10 09:09:59</time>
      </trkpt>
      <trkpt lat="42.8377" lon="-0.47818">
        <ele>1640.4</ele>
        <time>2021-08-10 09:10:00</time>
      </trkpt>
      <trkpt lat="42.83769" lon="-0.47816">
        <ele>1640.4</ele>
        <time>2021-08-10 09:10:01</time>
      </trkpt>
      <trkpt lat="42.83769" lon="-0.47815">
        <ele>1640.4</ele>
        <time>2021-08-10 09:10:02</time>
      </trkpt>
      <trkpt lat="42.83769" lon="-0.47813">
        <ele>1640.4</ele>
        <time>2021-08-10 09:10:03</time>
      </trkpt>
      <trkpt lat="42.83768" lon="-0.47811">
        <ele>1640.4</ele>
        <time>2021-08-10 09:10:04</time>
      </trkpt>
      <trkpt lat="42.83768" lon="-0.47809">
        <ele>1640.8</ele>
        <time>2021-08-10 09:10:05</time>
      </trkpt>
      <trkpt lat="42.83767" lon="-0.47808">
        <ele>1640.6</ele>
        <time>2021-08-10 09:10:06</time>
      </trkpt>
      <trkpt lat="42.83767" lon="-0.47807">
        <ele>1640.4</ele>
        <time>2021-08-10 09:10:07</time>
      </trkpt>
      <trkpt lat="42.83766" lon="-0.47806">
        <ele>1640</ele>
        <time>2021-08-10 09:10:08</time>
      </trkpt>
      <trkpt lat="42.83766" lon="-0.47805">
        <ele>1640.2</ele>
        <time>2021-08-10 09:10:09</time>
      </trkpt>
      <trkpt lat="42.83765" lon="-0.47803">
        <ele>1640</ele>
        <time>2021-08-10 09:10:10</time>
      </trkpt>
      <trkpt lat="42.83765" lon="-0.47802">
        <ele>1639.6</ele>
        <time>2021-08-10 09:10:11</time>
      </trkpt>
      <trkpt lat="42.83765" lon="-0.47801">
        <ele>1639.6</ele>
        <time>2021-08-10 09:10:12</time>
      </trkpt>
      <trkpt lat="42.83765" lon="-0.47801">
        <ele>1639.6</ele>
        <time>2021-08-10 09:10:13</time>
      </trkpt>
      <trkpt lat="42.83765" lon="-0.47801">
        <ele>1639.6</ele>
        <time>2021-08-10 09:10:14</time>
      </trkpt>
      <trkpt lat="42.83765" lon="-0.478">
        <ele>1639.6</ele>
        <time>2021-08-10 09:10:15</time>
      </trkpt>
      <trkpt lat="42.83766" lon="-0.47797">
        <ele>1639.4</ele>
        <time>2021-08-10 09:10:16</time>
      </trkpt>
      <trkpt lat="42.83766" lon="-0.47795">
        <ele>1639.4</ele>
        <time>2021-08-10 09:10:17</time>
      </trkpt>
      <trkpt lat="42.83767" lon="-0.47794">
        <ele>1639.2</ele>
        <time>2021-08-10 09:10:18</time>
      </trkpt>
      <trkpt lat="42.83767" lon="-0.47793">
        <ele>1639.2</ele>
        <time>2021-08-10 09:10:19</time>
      </trkpt>
      <trkpt lat="42.83767" lon="-0.47791">
        <ele>1639</ele>
        <time>2021-08-10 09:10:20</time>
      </trkpt>
      <trkpt lat="42.83767" lon="-0.4779">
        <ele>1638.8</ele>
        <time>2021-08-10 09:10:21</time>
      </trkpt>
      <trkpt lat="42.83768" lon="-0.47789">
        <ele>1638.6</ele>
        <time>2021-08-10 09:10:22</time>
      </trkpt>
      <trkpt lat="42.83768" lon="-0.47788">
        <ele>1638.4</ele>
        <time>2021-08-10 09:10:23</time>
      </trkpt>
      <trkpt lat="42.83768" lon="-0.47786">
        <ele>1638.4</ele>
        <time>2021-08-10 09:10:24</time>
      </trkpt>
      <trkpt lat="42.83768" lon="-0.47785">
        <ele>1638.2</ele>
        <time>2021-08-10 09:10:25</time>
      </trkpt>
      <trkpt lat="42.83768" lon="-0.47784">
        <ele>1638.2</ele>
        <time>2021-08-10 09:10:26</time>
      </trkpt>
      <trkpt lat="42.83768" lon="-0.47783">
        <ele>1638</ele>
        <time>2021-08-10 09:10:27</time>
      </trkpt>
      <trkpt lat="42.83768" lon="-0.47781">
        <ele>1637.6</ele>
        <time>2021-08-10 09:10:28</time>
      </trkpt>
      <trkpt lat="42.83769" lon="-0.4778">
        <ele>1637.4</ele>
        <time>2021-08-10 09:10:29</time>
      </trkpt>
      <trkpt lat="42.8377" lon="-0.47778">
        <ele>1637.2</ele>
        <time>2021-08-10 09:10:30</time>
      </trkpt>
      <trkpt lat="42.8377" lon="-0.47776">
        <ele>1637</ele>
        <time>2021-08-10 09:10:31</time>
      </trkpt>
      <trkpt lat="42.8377" lon="-0.47776">
        <ele>1636.6</ele>
        <time>2021-08-10 09:10:32</time>
      </trkpt>
      <trkpt lat="42.8377" lon="-0.47774">
        <ele>1636.2</ele>
        <time>2021-08-10 09:10:33</time>
      </trkpt>
      <trkpt lat="42.83771" lon="-0.47773">
        <ele>1635.6</ele>
        <time>2021-08-10 09:10:34</time>
      </trkpt>
      <trkpt lat="42.83772" lon="-0.47772">
        <ele>1636</ele>
        <time>2021-08-10 09:10:35</time>
      </trkpt>
      <trkpt lat="42.83772" lon="-0.47772">
        <ele>1635.8</ele>
        <time>2021-08-10 09:10:36</time>
      </trkpt>
      <trkpt lat="42.83773" lon="-0.4777">
        <ele>1635.8</ele>
        <time>2021-08-10 09:10:37</time>
      </trkpt>
      <trkpt lat="42.83774" lon="-0.4777">
        <ele>1635.4</ele>
        <time>2021-08-10 09:10:38</time>
      </trkpt>
      <trkpt lat="42.83774" lon="-0.47769">
        <ele>1635.2</ele>
        <time>2021-08-10 09:10:39</time>
      </trkpt>
      <trkpt lat="42.83775" lon="-0.47769">
        <ele>1634.8</ele>
        <time>2021-08-10 09:10:40</time>
      </trkpt>
      <trkpt lat="42.83775" lon="-0.47768">
        <ele>1634.6</ele>
        <time>2021-08-10 09:10:41</time>
      </trkpt>
      <trkpt lat="42.83775" lon="-0.47767">
        <ele>1634.2</ele>
        <time>2021-08-10 09:10:42</time>
      </trkpt>
      <trkpt lat="42.83776" lon="-0.47767">
        <ele>1634</ele>
        <time>2021-08-10 09:10:43</time>
      </trkpt>
      <trkpt lat="42.83776" lon="-0.47766">
        <ele>1633.8</ele>
        <time>2021-08-10 09:10:44</time>
      </trkpt>
      <trkpt lat="42.83777" lon="-0.47763">
        <ele>1633.8</ele>
        <time>2021-08-10 09:10:45</time>
      </trkpt>
      <trkpt lat="42.83777" lon="-0.47762">
        <ele>1633.4</ele>
        <time>2021-08-10 09:10:46</time>
      </trkpt>
      <trkpt lat="42.83778" lon="-0.47761">
        <ele>1633.4</ele>
        <time>2021-08-10 09:10:47</time>
      </trkpt>
      <trkpt lat="42.83779" lon="-0.4776">
        <ele>1633</ele>
        <time>2021-08-10 09:10:48</time>
      </trkpt>
      <trkpt lat="42.8378" lon="-0.47759">
        <ele>1633</ele>
        <time>2021-08-10 09:10:49</time>
      </trkpt>
      <trkpt lat="42.83779" lon="-0.47757">
        <ele>1632.6</ele>
        <time>2021-08-10 09:10:50</time>
      </trkpt>
      <trkpt lat="42.8378" lon="-0.47755">
        <ele>1632.4</ele>
        <time>2021-08-10 09:10:51</time>
      </trkpt>
      <trkpt lat="42.8378" lon="-0.47754">
        <ele>1632.2</ele>
        <time>2021-08-10 09:10:52</time>
      </trkpt>
      <trkpt lat="42.8378" lon="-0.47752">
        <ele>1631.8</ele>
        <time>2021-08-10 09:10:53</time>
      </trkpt>
      <trkpt lat="42.83781" lon="-0.47751">
        <ele>1631.8</ele>
        <time>2021-08-10 09:10:54</time>
      </trkpt>
      <trkpt lat="42.83781" lon="-0.47749">
        <ele>1631.8</ele>
        <time>2021-08-10 09:10:55</time>
      </trkpt>
      <trkpt lat="42.83782" lon="-0.47748">
        <ele>1631.8</ele>
        <time>2021-08-10 09:10:56</time>
      </trkpt>
      <trkpt lat="42.83782" lon="-0.47747">
        <ele>1631.6</ele>
        <time>2021-08-10 09:10:57</time>
      </trkpt>
      <trkpt lat="42.83782" lon="-0.47745">
        <ele>1631</ele>
        <time>2021-08-10 09:10:58</time>
      </trkpt>
      <trkpt lat="42.83783" lon="-0.47745">
        <ele>1631</ele>
        <time>2021-08-10 09:10:59</time>
      </trkpt>
      <trkpt lat="42.83783" lon="-0.47744">
        <ele>1631</ele>
        <time>2021-08-10 09:11:00</time>
      </trkpt>
      <trkpt lat="42.83783" lon="-0.47743">
        <ele>1630.8</ele>
        <time>2021-08-10 09:11:01</time>
      </trkpt>
      <trkpt lat="42.83783" lon="-0.47742">
        <ele>1630.8</ele>
        <time>2021-08-10 09:11:02</time>
      </trkpt>
      <trkpt lat="42.83783" lon="-0.47741">
        <ele>1630.6</ele>
        <time>2021-08-10 09:11:03</time>
      </trkpt>
      <trkpt lat="42.83783" lon="-0.4774">
        <ele>1630.4</ele>
        <time>2021-08-10 09:11:04</time>
      </trkpt>
      <trkpt lat="42.83783" lon="-0.47738">
        <ele>1630.2</ele>
        <time>2021-08-10 09:11:05</time>
      </trkpt>
      <trkpt lat="42.83783" lon="-0.47736">
        <ele>1630</ele>
        <time>2021-08-10 09:11:06</time>
      </trkpt>
      <trkpt lat="42.83783" lon="-0.47735">
        <ele>1629.8</ele>
        <time>2021-08-10 09:11:07</time>
      </trkpt>
      <trkpt lat="42.83782" lon="-0.47733">
        <ele>1629.4</ele>
        <time>2021-08-10 09:11:08</time>
      </trkpt>
      <trkpt lat="42.83782" lon="-0.47731">
        <ele>1629.4</ele>
        <time>2021-08-10 09:11:09</time>
      </trkpt>
      <trkpt lat="42.83782" lon="-0.4773">
        <ele>1629.4</ele>
        <time>2021-08-10 09:11:10</time>
      </trkpt>
      <trkpt lat="42.83783" lon="-0.47729">
        <ele>1629.2</ele>
        <time>2021-08-10 09:11:11</time>
      </trkpt>
      <trkpt lat="42.83782" lon="-0.47728">
        <ele>1629.2</ele>
        <time>2021-08-10 09:11:12</time>
      </trkpt>
      <trkpt lat="42.83783" lon="-0.47726">
        <ele>1629</ele>
        <time>2021-08-10 09:11:13</time>
      </trkpt>
      <trkpt lat="42.83783" lon="-0.47724">
        <ele>1629</ele>
        <time>2021-08-10 09:11:14</time>
      </trkpt>
      <trkpt lat="42.83784" lon="-0.47722">
        <ele>1628.8</ele>
        <time>2021-08-10 09:11:15</time>
      </trkpt>
      <trkpt lat="42.83785" lon="-0.47721">
        <ele>1628.6</ele>
        <time>2021-08-10 09:11:16</time>
      </trkpt>
      <trkpt lat="42.83785" lon="-0.4772">
        <ele>1628.6</ele>
        <time>2021-08-10 09:11:17</time>
      </trkpt>
      <trkpt lat="42.83786" lon="-0.47719">
        <ele>1629</ele>
        <time>2021-08-10 09:11:18</time>
      </trkpt>
      <trkpt lat="42.83787" lon="-0.47716">
        <ele>1628</ele>
        <time>2021-08-10 09:11:19</time>
      </trkpt>
      <trkpt lat="42.83787" lon="-0.47715">
        <ele>1627.6</ele>
        <time>2021-08-10 09:11:20</time>
      </trkpt>
      <trkpt lat="42.83787" lon="-0.47714">
        <ele>1627.4</ele>
        <time>2021-08-10 09:11:21</time>
      </trkpt>
      <trkpt lat="42.83788" lon="-0.47712">
        <ele>1627.2</ele>
        <time>2021-08-10 09:11:22</time>
      </trkpt>
      <trkpt lat="42.83788" lon="-0.47711">
        <ele>1627</ele>
        <time>2021-08-10 09:11:23</time>
      </trkpt>
      <trkpt lat="42.83788" lon="-0.47709">
        <ele>1626.6</ele>
        <time>2021-08-10 09:11:24</time>
      </trkpt>
      <trkpt lat="42.83789" lon="-0.47708">
        <ele>1626.4</ele>
        <time>2021-08-10 09:11:25</time>
      </trkpt>
      <trkpt lat="42.83789" lon="-0.47707">
        <ele>1626.6</ele>
        <time>2021-08-10 09:11:26</time>
      </trkpt>
      <trkpt lat="42.8379" lon="-0.47706">
        <ele>1626.8</ele>
        <time>2021-08-10 09:11:27</time>
      </trkpt>
      <trkpt lat="42.8379" lon="-0.47706">
        <ele>1626.4</ele>
        <time>2021-08-10 09:11:28</time>
      </trkpt>
      <trkpt lat="42.8379" lon="-0.47705">
        <ele>1626</ele>
        <time>2021-08-10 09:11:29</time>
      </trkpt>
      <trkpt lat="42.8379" lon="-0.47704">
        <ele>1626</ele>
        <time>2021-08-10 09:11:30</time>
      </trkpt>
      <trkpt lat="42.8379" lon="-0.47702">
        <ele>1626</ele>
        <time>2021-08-10 09:11:31</time>
      </trkpt>
      <trkpt lat="42.83791" lon="-0.47702">
        <ele>1626</ele>
        <time>2021-08-10 09:11:32</time>
      </trkpt>
      <trkpt lat="42.83792" lon="-0.47701">
        <ele>1625.6</ele>
        <time>2021-08-10 09:11:33</time>
      </trkpt>
      <trkpt lat="42.83793" lon="-0.47701">
        <ele>1625.2</ele>
        <time>2021-08-10 09:11:34</time>
      </trkpt>
      <trkpt lat="42.83794" lon="-0.477">
        <ele>1625.2</ele>
        <time>2021-08-10 09:11:35</time>
      </trkpt>
      <trkpt lat="42.83794" lon="-0.477">
        <ele>1625</ele>
        <time>2021-08-10 09:11:36</time>
      </trkpt>
      <trkpt lat="42.83795" lon="-0.477">
        <ele>1625</ele>
        <time>2021-08-10 09:11:37</time>
      </trkpt>
      <trkpt lat="42.83797" lon="-0.47698">
        <ele>1624.8</ele>
        <time>2021-08-10 09:11:38</time>
      </trkpt>
      <trkpt lat="42.83798" lon="-0.47698">
        <ele>1624.4</ele>
        <time>2021-08-10 09:11:39</time>
      </trkpt>
      <trkpt lat="42.83799" lon="-0.47697">
        <ele>1624.6</ele>
        <time>2021-08-10 09:11:40</time>
      </trkpt>
      <trkpt lat="42.83799" lon="-0.47696">
        <ele>1624.2</ele>
        <time>2021-08-10 09:11:41</time>
      </trkpt>
      <trkpt lat="42.83801" lon="-0.47694">
        <ele>1624</ele>
        <time>2021-08-10 09:11:42</time>
      </trkpt>
      <trkpt lat="42.83801" lon="-0.47693">
        <ele>1623.8</ele>
        <time>2021-08-10 09:11:43</time>
      </trkpt>
      <trkpt lat="42.83801" lon="-0.47692">
        <ele>1623.6</ele>
        <time>2021-08-10 09:11:44</time>
      </trkpt>
      <trkpt lat="42.83802" lon="-0.47691">
        <ele>1623.6</ele>
        <time>2021-08-10 09:11:45</time>
      </trkpt>
      <trkpt lat="42.83802" lon="-0.4769">
        <ele>1623.6</ele>
        <time>2021-08-10 09:11:46</time>
      </trkpt>
      <trkpt lat="42.83803" lon="-0.47689">
        <ele>1623.4</ele>
        <time>2021-08-10 09:11:47</time>
      </trkpt>
      <trkpt lat="42.83803" lon="-0.47688">
        <ele>1623</ele>
        <time>2021-08-10 09:11:48</time>
      </trkpt>
      <trkpt lat="42.83804" lon="-0.47687">
        <ele>1623</ele>
        <time>2021-08-10 09:11:49</time>
      </trkpt>
      <trkpt lat="42.83804" lon="-0.47686">
        <ele>1622.8</ele>
        <time>2021-08-10 09:11:50</time>
      </trkpt>
      <trkpt lat="42.83805" lon="-0.47685">
        <ele>1622.8</ele>
        <time>2021-08-10 09:11:51</time>
      </trkpt>
      <trkpt lat="42.83806" lon="-0.47685">
        <ele>1622.4</ele>
      </trkpt>
      <trkpt lat="42.83807" lon="-0.47684">
        <ele>1622.4</ele>
        <time>2021-08-10 09:11:52</time>
      </trkpt>
      <trkpt lat="42.83808" lon="-0.47683">
        <ele>1622.2</ele>
        <time>2021-08-10 09:11:53</time>
      </trkpt>
      <trkpt lat="42.83809" lon="-0.47683">
        <ele>1621.8</ele>
        <time>2021-08-10 09:11:54</time>
      </trkpt>
      <trkpt lat="42.83811" lon="-0.47682">
        <ele>1621.6</ele>
        <time>2021-08-10 09:11:55</time>
      </trkpt>
      <trkpt lat="42.83811" lon="-0.47681">
        <ele>1621.4</ele>
        <time>2021-08-10 09:11:56</time>
      </trkpt>
      <trkpt lat="42.8381" lon="-0.47679">
        <ele>1621.4</ele>
        <time>2021-08-10 09:11:57</time>
      </trkpt>
      <trkpt lat="42.8381" lon="-0.47678">
        <ele>1621</ele>
        <time>2021-08-10 09:11:58</time>
      </trkpt>
      <trkpt lat="42.8381" lon="-0.47677">
        <ele>1620.4</ele>
        <time>2021-08-10 09:11:59</time>
      </trkpt>
      <trkpt lat="42.8381" lon="-0.47677">
        <ele>1620</ele>
        <time>2021-08-10 09:12:00</time>
      </trkpt>
      <trkpt lat="42.8381" lon="-0.47677">
        <ele>1620</ele>
        <time>2021-08-10 09:12:01</time>
      </trkpt>
      <trkpt lat="42.8381" lon="-0.47677">
        <ele>1619.8</ele>
        <time>2021-08-10 09:12:02</time>
      </trkpt>
      <trkpt lat="42.83809" lon="-0.47676">
        <ele>1619.6</ele>
        <time>2021-08-10 09:12:03</time>
      </trkpt>
      <trkpt lat="42.83808" lon="-0.47675">
        <ele>1619.4</ele>
        <time>2021-08-10 09:12:04</time>
      </trkpt>
      <trkpt lat="42.83808" lon="-0.47674">
        <ele>1619.2</ele>
        <time>2021-08-10 09:12:05</time>
      </trkpt>
      <trkpt lat="42.83807" lon="-0.47673">
        <ele>1619</ele>
        <time>2021-08-10 09:12:06</time>
      </trkpt>
      <trkpt lat="42.83806" lon="-0.47673">
        <ele>1618.6</ele>
        <time>2021-08-10 09:12:07</time>
      </trkpt>
      <trkpt lat="42.83806" lon="-0.47672">
        <ele>1618.6</ele>
        <time>2021-08-10 09:12:08</time>
      </trkpt>
      <trkpt lat="42.83806" lon="-0.47672">
        <ele>1618.4</ele>
        <time>2021-08-10 09:12:09</time>
      </trkpt>
      <trkpt lat="42.83805" lon="-0.47671">
        <ele>1618.4</ele>
        <time>2021-08-10 09:12:11</time>
      </trkpt>
      <trkpt lat="42.83806" lon="-0.47671">
        <ele>1618</ele>
      </trkpt>
      <trkpt lat="42.83804" lon="-0.47672">
        <ele>1618</ele>
        <time>2021-08-10 09:12:12</time>
      </trkpt>
      <trkpt lat="42.83805" lon="-0.47672">
        <ele>1618</ele>
        <time>2021-08-10 09:12:13</time>
      </trkpt>
      <trkpt lat="42.83805" lon="-0.47671">
        <ele>1618.2</ele>
        <time>2021-08-10 09:12:14</time>
      </trkpt>
      <trkpt lat="42.83805" lon="-0.4767">
        <ele>1618.2</ele>
        <time>2021-08-10 09:12:15</time>
      </trkpt>
      <trkpt lat="42.83804" lon="-0.4767">
        <ele>1617.6</ele>
        <time>2021-08-10 09:12:16</time>
      </trkpt>
      <trkpt lat="42.83804" lon="-0.4767">
        <ele>1617.4</ele>
        <time>2021-08-10 09:12:17</time>
      </trkpt>
      <trkpt lat="42.83804" lon="-0.4767">
        <ele>1617.2</ele>
        <time>2021-08-10 09:12:18</time>
      </trkpt>
      <trkpt lat="42.83803" lon="-0.4767">
        <ele>1617.4</ele>
        <time>2021-08-10 09:12:19</time>
      </trkpt>
      <trkpt lat="42.83803" lon="-0.47669">
        <ele>1617.2</ele>
        <time>2021-08-10 09:12:20</time>
      </trkpt>
      <trkpt lat="42.83803" lon="-0.47668">
        <ele>1617.4</ele>
        <time>2021-08-10 09:12:21</time>
      </trkpt>
      <trkpt lat="42.83802" lon="-0.47668">
        <ele>1616.8</ele>
        <time>2021-08-10 09:12:22</time>
      </trkpt>
      <trkpt lat="42.83802" lon="-0.47668">
        <ele>1616.8</ele>
        <time>2021-08-10 09:12:23</time>
      </trkpt>
      <trkpt lat="42.83802" lon="-0.47668">
        <ele>1616.6</ele>
        <time>2021-08-10 09:12:24</time>
      </trkpt>
      <trkpt lat="42.83802" lon="-0.47667">
        <ele>1616.8</ele>
        <time>2021-08-10 09:12:25</time>
      </trkpt>
      <trkpt lat="42.83802" lon="-0.47667">
        <ele>1616.6</ele>
        <time>2021-08-10 09:12:26</time>
      </trkpt>
      <trkpt lat="42.83802" lon="-0.47667">
        <ele>1616.2</ele>
        <time>2021-08-10 09:12:27</time>
      </trkpt>
      <trkpt lat="42.83801" lon="-0.47667">
        <ele>1616</ele>
        <time>2021-08-10 09:12:28</time>
      </trkpt>
      <trkpt lat="42.83801" lon="-0.47666">
        <ele>1615.6</ele>
        <time>2021-08-10 09:12:30</time>
      </trkpt>
      <trkpt lat="42.838" lon="-0.47666">
        <ele>1615.8</ele>
      </trkpt>
      <trkpt lat="42.838" lon="-0.47666">
        <ele>1615.8</ele>
        <time>2021-08-10 09:12:31</time>
      </trkpt>
      <trkpt lat="42.838" lon="-0.47667">
        <ele>1616</ele>
        <time>2021-08-10 09:12:32</time>
      </trkpt>
      <trkpt lat="42.83799" lon="-0.47668">
        <ele>1616</ele>
        <time>2021-08-10 09:12:33</time>
      </trkpt>
      <trkpt lat="42.83799" lon="-0.47668">
        <ele>1615.6</ele>
        <time>2021-08-10 09:12:34</time>
      </trkpt>
      <trkpt lat="42.83799" lon="-0.47667">
        <ele>1615.6</ele>
        <time>2021-08-10 09:12:35</time>
      </trkpt>
      <trkpt lat="42.83799" lon="-0.47667">
        <ele>1615.6</ele>
        <time>2021-08-10 09:12:36</time>
      </trkpt>
      <trkpt lat="42.83799" lon="-0.47666">
        <ele>1615.4</ele>
        <time>2021-08-10 09:12:37</time>
      </trkpt>
      <trkpt lat="42.83798" lon="-0.47666">
        <ele>1615.4</ele>
        <time>2021-08-10 09:12:38</time>
      </trkpt>
      <trkpt lat="42.83796" lon="-0.47667">
        <ele>1615.2</ele>
        <time>2021-08-10 09:12:39</time>
      </trkpt>
      <trkpt lat="42.83795" lon="-0.47667">
        <ele>1614.8</ele>
        <time>2021-08-10 09:12:40</time>
      </trkpt>
      <trkpt lat="42.83795" lon="-0.47666">
        <ele>1614.6</ele>
        <time>2021-08-10 09:12:41</time>
      </trkpt>
      <trkpt lat="42.83795" lon="-0.47666">
        <ele>1614.2</ele>
        <time>2021-08-10 09:12:42</time>
      </trkpt>
      <trkpt lat="42.83794" lon="-0.47666">
        <ele>1614.2</ele>
        <time>2021-08-10 09:12:43</time>
      </trkpt>
      <trkpt lat="42.83794" lon="-0.47667">
        <ele>1613.8</ele>
        <time>2021-08-10 09:12:44</time>
      </trkpt>
      <trkpt lat="42.83793" lon="-0.47667">
        <ele>1613.8</ele>
        <time>2021-08-10 09:12:45</time>
      </trkpt>
      <trkpt lat="42.83794" lon="-0.47665">
        <ele>1613.8</ele>
        <time>2021-08-10 09:12:46</time>
      </trkpt>
      <trkpt lat="42.83794" lon="-0.47664">
        <ele>1613.4</ele>
        <time>2021-08-10 09:12:57</time>
      </trkpt>
      <trkpt lat="42.83794" lon="-0.47664">
        <ele>1613</ele>
        <time>2021-08-10 09:12:58</time>
      </trkpt>
      <trkpt lat="42.83793" lon="-0.47664">
        <ele>1612.8</ele>
        <time>2021-08-10 09:12:59</time>
      </trkpt>
      <trkpt lat="42.83792" lon="-0.47664">
        <ele>1612.6</ele>
        <time>2021-08-10 09:13:00</time>
      </trkpt>
      <trkpt lat="42.83792" lon="-0.47664">
        <ele>1612.4</ele>
        <time>2021-08-10 09:13:01</time>
      </trkpt>
      <trkpt lat="42.83791" lon="-0.47664">
        <ele>1612.2</ele>
        <time>2021-08-10 09:13:02</time>
      </trkpt>
      <trkpt lat="42.83791" lon="-0.47664">
        <ele>1612.2</ele>
        <time>2021-08-10 09:13:03</time>
      </trkpt>
      <trkpt lat="42.8379" lon="-0.47664">
        <ele>1611.8</ele>
        <time>2021-08-10 09:13:04</time>
      </trkpt>
      <trkpt lat="42.8379" lon="-0.47663">
        <ele>1611.8</ele>
        <time>2021-08-10 09:13:05</time>
      </trkpt>
      <trkpt lat="42.83789" lon="-0.47662">
        <ele>1611.6</ele>
        <time>2021-08-10 09:13:06</time>
      </trkpt>
      <trkpt lat="42.83789" lon="-0.47661">
        <ele>1611.4</ele>
        <time>2021-08-10 09:13:07</time>
      </trkpt>
      <trkpt lat="42.83788" lon="-0.47661">
        <ele>1611.2</ele>
        <time>2021-08-10 09:13:08</time>
      </trkpt>
      <trkpt lat="42.83787" lon="-0.47661">
        <ele>1611</ele>
        <time>2021-08-10 09:13:09</time>
      </trkpt>
      <trkpt lat="42.83787" lon="-0.4766">
        <ele>1610.6</ele>
        <time>2021-08-10 09:13:10</time>
      </trkpt>
      <trkpt lat="42.83786" lon="-0.4766">
        <ele>1610.2</ele>
        <time>2021-08-10 09:13:11</time>
      </trkpt>
      <trkpt lat="42.83786" lon="-0.47659">
        <ele>1610.2</ele>
        <time>2021-08-10 09:13:12</time>
      </trkpt>
      <trkpt lat="42.83785" lon="-0.47659">
        <ele>1610</ele>
        <time>2021-08-10 09:13:13</time>
      </trkpt>
      <trkpt lat="42.83785" lon="-0.47658">
        <ele>1610</ele>
        <time>2021-08-10 09:13:14</time>
      </trkpt>
      <trkpt lat="42.83785" lon="-0.47658">
        <ele>1609.8</ele>
        <time>2021-08-10 09:13:15</time>
      </trkpt>
      <trkpt lat="42.83784" lon="-0.47657">
        <ele>1609.4</ele>
        <time>2021-08-10 09:13:16</time>
      </trkpt>
      <trkpt lat="42.83783" lon="-0.47657">
        <ele>1609.2</ele>
        <time>2021-08-10 09:13:17</time>
      </trkpt>
      <trkpt lat="42.83783" lon="-0.47656">
        <ele>1609</ele>
        <time>2021-08-10 09:13:22</time>
      </trkpt>
      <trkpt lat="42.83783" lon="-0.47655">
        <ele>1608.8</ele>
        <time>2021-08-10 09:13:23</time>
      </trkpt>
      <trkpt lat="42.83782" lon="-0.47654">
        <ele>1608.6</ele>
        <time>2021-08-10 09:13:24</time>
      </trkpt>
      <trkpt lat="42.83783" lon="-0.47653">
        <ele>1608.4</ele>
        <time>2021-08-10 09:13:25</time>
      </trkpt>
      <trkpt lat="42.83784" lon="-0.47651">
        <ele>1608.2</ele>
        <time>2021-08-10 09:13:26</time>
      </trkpt>
      <trkpt lat="42.83784" lon="-0.47652">
        <ele>1608</ele>
        <time>2021-08-10 09:13:27</time>
      </trkpt>
      <trkpt lat="42.83783" lon="-0.47652">
        <ele>1608</ele>
        <time>2021-08-10 09:13:28</time>
      </trkpt>
      <trkpt lat="42.83783" lon="-0.47652">
        <ele>1608</ele>
        <time>2021-08-10 09:13:29</time>
      </trkpt>
      <trkpt lat="42.83786" lon="-0.47651">
        <ele>1608.2</ele>
        <time>2021-08-10 09:13:30</time>
      </trkpt>
      <trkpt lat="42.83786" lon="-0.4765">
        <ele>1608.2</ele>
        <time>2021-08-10 09:13:31</time>
      </trkpt>
      <trkpt lat="42.83786" lon="-0.47649">
        <ele>1608</ele>
        <time>2021-08-10 09:13:32</time>
      </trkpt>
      <trkpt lat="42.83785" lon="-0.47649">
        <ele>1608</ele>
        <time>2021-08-10 09:13:33</time>
      </trkpt>
      <trkpt lat="42.83785" lon="-0.47649">
        <ele>1607.8</ele>
        <time>2021-08-10 09:13:34</time>
      </trkpt>
      <trkpt lat="42.83785" lon="-0.47649">
        <ele>1607.6</ele>
        <time>2021-08-10 09:13:35</time>
      </trkpt>
      <trkpt lat="42.83785" lon="-0.47649">
        <ele>1607.6</ele>
        <time>2021-08-10 09:13:36</time>
      </trkpt>
      <trkpt lat="42.83786" lon="-0.47649">
        <ele>1607.6</ele>
        <time>2021-08-10 09:13:37</time>
      </trkpt>
      <trkpt lat="42.83786" lon="-0.47649">
        <ele>1607.2</ele>
        <time>2021-08-10 09:13:38</time>
      </trkpt>
      <trkpt lat="42.83786" lon="-0.47649">
        <ele>1606.8</ele>
        <time>2021-08-10 09:13:39</time>
      </trkpt>
      <trkpt lat="42.83786" lon="-0.47648">
        <ele>1607</ele>
        <time>2021-08-10 09:13:40</time>
      </trkpt>
      <trkpt lat="42.83786" lon="-0.47648">
        <ele>1607</ele>
        <time>2021-08-10 09:13:41</time>
      </trkpt>
      <trkpt lat="42.83786" lon="-0.47648">
        <ele>1606.8</ele>
        <time>2021-08-10 09:13:42</time>
      </trkpt>
      <trkpt lat="42.83786" lon="-0.47647">
        <ele>1606.6</ele>
        <time>2021-08-10 09:13:43</time>
      </trkpt>
      <trkpt lat="42.83786" lon="-0.47647">
        <ele>1606.4</ele>
        <time>2021-08-10 09:13:44</time>
      </trkpt>
      <trkpt lat="42.83786" lon="-0.47646">
        <ele>1606.2</ele>
        <time>2021-08-10 09:13:45</time>
      </trkpt>
      <trkpt lat="42.83786" lon="-0.47646">
        <ele>1606</ele>
        <time>2021-08-10 09:13:46</time>
      </trkpt>
      <trkpt lat="42.83787" lon="-0.47645">
        <ele>1606</ele>
        <time>2021-08-10 09:13:47</time>
      </trkpt>
      <trkpt lat="42.83787" lon="-0.47645">
        <ele>1606</ele>
        <time>2021-08-10 09:13:48</time>
      </trkpt>
      <trkpt lat="42.83787" lon="-0.47644">
        <ele>1605.6</ele>
        <time>2021-08-10 09:13:49</time>
      </trkpt>
      <trkpt lat="42.83787" lon="-0.47644">
        <ele>1605.4</ele>
        <time>2021-08-10 09:13:50</time>
      </trkpt>
      <trkpt lat="42.83786" lon="-0.47643">
        <ele>1605.2</ele>
        <time>2021-08-10 09:13:51</time>
      </trkpt>
      <trkpt lat="42.83787" lon="-0.47642">
        <ele>1605</ele>
        <time>2021-08-10 09:13:52</time>
      </trkpt>
      <trkpt lat="42.83787" lon="-0.47642">
        <ele>1604.6</ele>
        <time>2021-08-10 09:13:53</time>
      </trkpt>
      <trkpt lat="42.83787" lon="-0.47641">
        <ele>1604.4</ele>
        <time>2021-08-10 09:13:54</time>
      </trkpt>
      <trkpt lat="42.83787" lon="-0.4764">
        <ele>1604.2</ele>
        <time>2021-08-10 09:13:55</time>
      </trkpt>
      <trkpt lat="42.83787" lon="-0.4764">
        <ele>1604</ele>
        <time>2021-08-10 09:13:56</time>
      </trkpt>
      <trkpt lat="42.83787" lon="-0.47639">
        <ele>1603.6</ele>
        <time>2021-08-10 09:13:57</time>
      </trkpt>
      <trkpt lat="42.83787" lon="-0.47639">
        <ele>1603.6</ele>
        <time>2021-08-10 09:13:58</time>
      </trkpt>
      <trkpt lat="42.83787" lon="-0.47638">
        <ele>1603.4</ele>
        <time>2021-08-10 09:13:59</time>
      </trkpt>
      <trkpt lat="42.83788" lon="-0.47637">
        <ele>1603.2</ele>
        <time>2021-08-10 09:14:00</time>
      </trkpt>
      <trkpt lat="42.83788" lon="-0.47636">
        <ele>1603</ele>
        <time>2021-08-10 09:14:01</time>
      </trkpt>
      <trkpt lat="42.83788" lon="-0.47636">
        <ele>1602.8</ele>
        <time>2021-08-10 09:14:02</time>
      </trkpt>
      <trkpt lat="42.83788" lon="-0.47635">
        <ele>1602.8</ele>
        <time>2021-08-10 09:14:03</time>
      </trkpt>
      <trkpt lat="42.83788" lon="-0.47634">
        <ele>1602.6</ele>
        <time>2021-08-10 09:14:04</time>
      </trkpt>
      <trkpt lat="42.83788" lon="-0.47633">
        <ele>1602.2</ele>
        <time>2021-08-10 09:14:09</time>
      </trkpt>
      <trkpt lat="42.83789" lon="-0.47632">
        <ele>1602.4</ele>
        <time>2021-08-10 09:14:10</time>
      </trkpt>
      <trkpt lat="42.83789" lon="-0.47632">
        <ele>1602</ele>
        <time>2021-08-10 09:14:11</time>
      </trkpt>
      <trkpt lat="42.83789" lon="-0.47631">
        <ele>1601.8</ele>
        <time>2021-08-10 09:14:12</time>
      </trkpt>
      <trkpt lat="42.8379" lon="-0.47631">
        <ele>1601.6</ele>
        <time>2021-08-10 09:14:13</time>
      </trkpt>
      <trkpt lat="42.8379" lon="-0.4763">
        <ele>1601.6</ele>
        <time>2021-08-10 09:14:14</time>
      </trkpt>
      <trkpt lat="42.8379" lon="-0.47629">
        <ele>1601.4</ele>
        <time>2021-08-10 09:14:15</time>
      </trkpt>
      <trkpt lat="42.8379" lon="-0.47629">
        <ele>1601.2</ele>
        <time>2021-08-10 09:14:16</time>
      </trkpt>
      <trkpt lat="42.8379" lon="-0.47627">
        <ele>1600.8</ele>
        <time>2021-08-10 09:14:17</time>
      </trkpt>
      <trkpt lat="42.8379" lon="-0.47626">
        <ele>1600.6</ele>
        <time>2021-08-10 09:14:18</time>
      </trkpt>
      <trkpt lat="42.8379" lon="-0.47625">
        <ele>1600.4</ele>
        <time>2021-08-10 09:14:19</time>
      </trkpt>
      <trkpt lat="42.83791" lon="-0.47625">
        <ele>1600.4</ele>
        <time>2021-08-10 09:14:20</time>
      </trkpt>
      <trkpt lat="42.83791" lon="-0.47625">
        <ele>1600.2</ele>
        <time>2021-08-10 09:14:21</time>
      </trkpt>
      <trkpt lat="42.83792" lon="-0.47625">
        <ele>1600.4</ele>
        <time>2021-08-10 09:14:22</time>
      </trkpt>
      <trkpt lat="42.83792" lon="-0.47624">
        <ele>1600.2</ele>
        <time>2021-08-10 09:14:23</time>
      </trkpt>
      <trkpt lat="42.83792" lon="-0.47623">
        <ele>1600.2</ele>
        <time>2021-08-10 09:14:24</time>
      </trkpt>
      <trkpt lat="42.83792" lon="-0.47622">
        <ele>1600</ele>
        <time>2021-08-10 09:14:25</time>
      </trkpt>
      <trkpt lat="42.83792" lon="-0.47621">
        <ele>1600.2</ele>
        <time>2021-08-10 09:14:26</time>
      </trkpt>
      <trkpt lat="42.83793" lon="-0.4762">
        <ele>1600</ele>
        <time>2021-08-10 09:14:27</time>
      </trkpt>
      <trkpt lat="42.83793" lon="-0.4762">
        <ele>1600.2</ele>
        <time>2021-08-10 09:14:28</time>
      </trkpt>
      <trkpt lat="42.83793" lon="-0.4762">
        <ele>1600.2</ele>
        <time>2021-08-10 09:14:29</time>
      </trkpt>
      <trkpt lat="42.83793" lon="-0.47619">
        <ele>1600.2</ele>
        <time>2021-08-10 09:14:30</time>
      </trkpt>
      <trkpt lat="42.83793" lon="-0.4762">
        <ele>1600.2</ele>
        <time>2021-08-10 09:14:31</time>
      </trkpt>
      <trkpt lat="42.83793" lon="-0.47619">
        <ele>1600.2</ele>
        <time>2021-08-10 09:14:32</time>
      </trkpt>
      <trkpt lat="42.83792" lon="-0.47618">
        <ele>1600.2</ele>
        <time>2021-08-10 09:14:33</time>
      </trkpt>
      <trkpt lat="42.83793" lon="-0.47618">
        <ele>1600.2</ele>
        <time>2021-08-10 09:14:34</time>
      </trkpt>
      <trkpt lat="42.83793" lon="-0.47618">
        <ele>1600</ele>
        <time>2021-08-10 09:14:35</time>
      </trkpt>
      <trkpt lat="42.83794" lon="-0.47617">
        <ele>1600</ele>
        <time>2021-08-10 09:14:36</time>
      </trkpt>
      <trkpt lat="42.83794" lon="-0.47617">
        <ele>1599.8</ele>
        <time>2021-08-10 09:14:37</time>
      </trkpt>
      <trkpt lat="42.83794" lon="-0.47616">
        <ele>1599.8</ele>
        <time>2021-08-10 09:14:38</time>
      </trkpt>
      <trkpt lat="42.83794" lon="-0.47616">
        <ele>1599.6</ele>
        <time>2021-08-10 09:14:39</time>
      </trkpt>
      <trkpt lat="42.83795" lon="-0.47616">
        <ele>1599.6</ele>
        <time>2021-08-10 09:14:40</time>
      </trkpt>
      <trkpt lat="42.83795" lon="-0.47616">
        <ele>1599.6</ele>
        <time>2021-08-10 09:14:41</time>
      </trkpt>
      <trkpt lat="42.83795" lon="-0.47616">
        <ele>1599.4</ele>
        <time>2021-08-10 09:14:42</time>
      </trkpt>
      <trkpt lat="42.83796" lon="-0.47616">
        <ele>1599.6</ele>
        <time>2021-08-10 09:14:43</time>
      </trkpt>
      <trkpt lat="42.83795" lon="-0.47616">
        <ele>1599.6</ele>
        <time>2021-08-10 09:14:44</time>
      </trkpt>
      <trkpt lat="42.83797" lon="-0.47616">
        <ele>1599.6</ele>
        <time>2021-08-10 09:14:45</time>
      </trkpt>
      <trkpt lat="42.83795" lon="-0.47616">
        <ele>1599.8</ele>
        <time>2021-08-10 09:14:46</time>
      </trkpt>
      <trkpt lat="42.83795" lon="-0.47615">
        <ele>1599.6</ele>
        <time>2021-08-10 09:14:47</time>
      </trkpt>
      <trkpt lat="42.83796" lon="-0.47615">
        <ele>1599.4</ele>
        <time>2021-08-10 09:14:48</time>
      </trkpt>
      <trkpt lat="42.83796" lon="-0.47615">
        <ele>1599.4</ele>
        <time>2021-08-10 09:14:49</time>
      </trkpt>
      <trkpt lat="42.83797" lon="-0.47615">
        <ele>1599.2</ele>
        <time>2021-08-10 09:14:50</time>
      </trkpt>
      <trkpt lat="42.83798" lon="-0.47616">
        <ele>1599</ele>
        <time>2021-08-10 09:14:51</time>
      </trkpt>
      <trkpt lat="42.83799" lon="-0.47616">
        <ele>1598.8</ele>
        <time>2021-08-10 09:14:52</time>
      </trkpt>
      <trkpt lat="42.83799" lon="-0.47616">
        <ele>1599</ele>
        <time>2021-08-10 09:14:53</time>
      </trkpt>
      <trkpt lat="42.838" lon="-0.47615">
        <ele>1598.8</ele>
        <time>2021-08-10 09:14:54</time>
      </trkpt>
      <trkpt lat="42.83801" lon="-0.47614">
        <ele>1598.4</ele>
        <time>2021-08-10 09:14:55</time>
      </trkpt>
      <trkpt lat="42.83801" lon="-0.47613">
        <ele>1598</ele>
        <time>2021-08-10 09:14:56</time>
      </trkpt>
      <trkpt lat="42.83802" lon="-0.47612">
        <ele>1597.8</ele>
        <time>2021-08-10 09:14:57</time>
      </trkpt>
      <trkpt lat="42.83802" lon="-0.47612">
        <ele>1597.6</ele>
        <time>2021-08-10 09:15:01</time>
      </trkpt>
      <trkpt lat="42.83803" lon="-0.47612">
        <ele>1597.6</ele>
        <time>2021-08-10 09:15:02</time>
      </trkpt>
      <trkpt lat="42.83803" lon="-0.47611">
        <ele>1597.2</ele>
        <time>2021-08-10 09:15:03</time>
      </trkpt>
      <trkpt lat="42.83803" lon="-0.4761">
        <ele>1597</ele>
        <time>2021-08-10 09:15:04</time>
      </trkpt>
      <trkpt lat="42.83804" lon="-0.4761">
        <ele>1597</ele>
        <time>2021-08-10 09:15:05</time>
      </trkpt>
      <trkpt lat="42.83804" lon="-0.47609">
        <ele>1596.8</ele>
        <time>2021-08-10 09:15:06</time>
      </trkpt>
      <trkpt lat="42.83805" lon="-0.47609">
        <ele>1596.8</ele>
        <time>2021-08-10 09:15:07</time>
      </trkpt>
      <trkpt lat="42.83806" lon="-0.47608">
        <ele>1596.4</ele>
        <time>2021-08-10 09:15:08</time>
      </trkpt>
      <trkpt lat="42.83807" lon="-0.47608">
        <ele>1596.2</ele>
        <time>2021-08-10 09:15:09</time>
      </trkpt>
      <trkpt lat="42.83807" lon="-0.47608">
        <ele>1596</ele>
        <time>2021-08-10 09:15:10</time>
      </trkpt>
      <trkpt lat="42.83808" lon="-0.47608">
        <ele>1595.8</ele>
        <time>2021-08-10 09:15:19</time>
      </trkpt>
      <trkpt lat="42.83809" lon="-0.47607">
        <ele>1595.6</ele>
        <time>2021-08-10 09:15:20</time>
      </trkpt>
      <trkpt lat="42.8381" lon="-0.47607">
        <ele>1595.4</ele>
        <time>2021-08-10 09:15:21</time>
      </trkpt>
      <trkpt lat="42.83811" lon="-0.47607">
        <ele>1595.2</ele>
        <time>2021-08-10 09:15:22</time>
      </trkpt>
      <trkpt lat="42.83811" lon="-0.47607">
        <ele>1595</ele>
        <time>2021-08-10 09:15:23</time>
      </trkpt>
      <trkpt lat="42.83811" lon="-0.47606">
        <ele>1594.8</ele>
        <time>2021-08-10 09:15:24</time>
      </trkpt>
      <trkpt lat="42.83812" lon="-0.47606">
        <ele>1594.8</ele>
        <time>2021-08-10 09:15:25</time>
      </trkpt>
      <trkpt lat="42.83812" lon="-0.47604">
        <ele>1594.8</ele>
        <time>2021-08-10 09:15:26</time>
      </trkpt>
      <trkpt lat="42.83813" lon="-0.47604">
        <ele>1594.4</ele>
        <time>2021-08-10 09:15:27</time>
      </trkpt>
      <trkpt lat="42.83813" lon="-0.47603">
        <ele>1594.4</ele>
        <time>2021-08-10 09:15:28</time>
      </trkpt>
      <trkpt lat="42.83814" lon="-0.47603">
        <ele>1594.4</ele>
        <time>2021-08-10 09:15:29</time>
      </trkpt>
      <trkpt lat="42.83814" lon="-0.47602">
        <ele>1594.4</ele>
        <time>2021-08-10 09:15:30</time>
      </trkpt>
      <trkpt lat="42.83814" lon="-0.47602">
        <ele>1594.2</ele>
        <time>2021-08-10 09:15:31</time>
      </trkpt>
      <trkpt lat="42.83813" lon="-0.47601">
        <ele>1594</ele>
        <time>2021-08-10 09:15:40</time>
      </trkpt>
      <trkpt lat="42.83813" lon="-0.47601">
        <ele>1593.6</ele>
        <time>2021-08-10 09:15:41</time>
      </trkpt>
      <trkpt lat="42.83813" lon="-0.47601">
        <ele>1593.4</ele>
        <time>2021-08-10 09:15:42</time>
      </trkpt>
      <trkpt lat="42.83813" lon="-0.47602">
        <ele>1593.6</ele>
        <time>2021-08-10 09:15:43</time>
      </trkpt>
      <trkpt lat="42.83813" lon="-0.47602">
        <ele>1593.8</ele>
        <time>2021-08-10 09:15:44</time>
      </trkpt>
      <trkpt lat="42.83813" lon="-0.47602">
        <ele>1593.6</ele>
        <time>2021-08-10 09:15:45</time>
      </trkpt>
      <trkpt lat="42.83813" lon="-0.47603">
        <ele>1593.2</ele>
        <time>2021-08-10 09:15:46</time>
      </trkpt>
      <trkpt lat="42.83812" lon="-0.47603">
        <ele>1593</ele>
        <time>2021-08-10 09:15:47</time>
      </trkpt>
      <trkpt lat="42.83811" lon="-0.47602">
        <ele>1592.8</ele>
        <time>2021-08-10 09:15:48</time>
      </trkpt>
      <trkpt lat="42.83811" lon="-0.47602">
        <ele>1592.8</ele>
        <time>2021-08-10 09:15:49</time>
      </trkpt>
      <trkpt lat="42.8381" lon="-0.47603">
        <ele>1592.6</ele>
        <time>2021-08-10 09:15:50</time>
      </trkpt>
      <trkpt lat="42.8381" lon="-0.47603">
        <ele>1592.6</ele>
        <time>2021-08-10 09:15:51</time>
      </trkpt>
      <trkpt lat="42.83809" lon="-0.47603">
        <ele>1592.4</ele>
        <time>2021-08-10 09:15:52</time>
      </trkpt>
      <trkpt lat="42.83808" lon="-0.47602">
        <ele>1592.2</ele>
        <time>2021-08-10 09:15:53</time>
      </trkpt>
      <trkpt lat="42.83807" lon="-0.47603">
        <ele>1592</ele>
        <time>2021-08-10 09:15:54</time>
      </trkpt>
      <trkpt lat="42.83807" lon="-0.47603">
        <ele>1592</ele>
        <time>2021-08-10 09:15:55</time>
      </trkpt>
      <trkpt lat="42.83806" lon="-0.47602">
        <ele>1591.8</ele>
        <time>2021-08-10 09:15:56</time>
      </trkpt>
      <trkpt lat="42.83805" lon="-0.47602">
        <ele>1592</ele>
        <time>2021-08-10 09:15:57</time>
      </trkpt>
      <trkpt lat="42.83806" lon="-0.47601">
        <ele>1591.8</ele>
        <time>2021-08-10 09:15:58</time>
      </trkpt>
      <trkpt lat="42.83806" lon="-0.476">
        <ele>1591.8</ele>
        <time>2021-08-10 09:15:59</time>
      </trkpt>
      <trkpt lat="42.83807" lon="-0.476">
        <ele>1591.4</ele>
        <time>2021-08-10 09:16:00</time>
      </trkpt>
      <trkpt lat="42.83808" lon="-0.476">
        <ele>1591.4</ele>
        <time>2021-08-10 09:16:01</time>
      </trkpt>
      <trkpt lat="42.83808" lon="-0.47599">
        <ele>1591.4</ele>
        <time>2021-08-10 09:16:02</time>
      </trkpt>
      <trkpt lat="42.83809" lon="-0.47599">
        <ele>1591.2</ele>
        <time>2021-08-10 09:16:03</time>
      </trkpt>
      <trkpt lat="42.83809" lon="-0.47598">
        <ele>1591</ele>
        <time>2021-08-10 09:16:04</time>
      </trkpt>
      <trkpt lat="42.83809" lon="-0.47598">
        <ele>1590.8</ele>
        <time>2021-08-10 09:16:05</time>
      </trkpt>
      <trkpt lat="42.8381" lon="-0.47599">
        <ele>1590.6</ele>
        <time>2021-08-10 09:16:06</time>
      </trkpt>
      <trkpt lat="42.8381" lon="-0.47598">
        <ele>1590.2</ele>
        <time>2021-08-10 09:16:07</time>
      </trkpt>
      <trkpt lat="42.8381" lon="-0.47598">
        <ele>1590</ele>
        <time>2021-08-10 09:16:08</time>
      </trkpt>
      <trkpt lat="42.8381" lon="-0.47597">
        <ele>1589.8</ele>
        <time>2021-08-10 09:16:09</time>
      </trkpt>
      <trkpt lat="42.8381" lon="-0.47597">
        <ele>1589.6</ele>
        <time>2021-08-10 09:16:10</time>
      </trkpt>
      <trkpt lat="42.83811" lon="-0.47596">
        <ele>1589.6</ele>
        <time>2021-08-10 09:16:11</time>
      </trkpt>
      <trkpt lat="42.83812" lon="-0.47595">
        <ele>1589.4</ele>
        <time>2021-08-10 09:16:12</time>
      </trkpt>
      <trkpt lat="42.83812" lon="-0.47595">
        <ele>1589.4</ele>
        <time>2021-08-10 09:16:13</time>
      </trkpt>
      <trkpt lat="42.83813" lon="-0.47594">
        <ele>1589.2</ele>
        <time>2021-08-10 09:16:14</time>
      </trkpt>
      <trkpt lat="42.83813" lon="-0.47593">
        <ele>1589</ele>
        <time>2021-08-10 09:16:15</time>
      </trkpt>
      <trkpt lat="42.83813" lon="-0.47593">
        <ele>1588.6</ele>
        <time>2021-08-10 09:16:16</time>
      </trkpt>
      <trkpt lat="42.83814" lon="-0.47592">
        <ele>1588.6</ele>
        <time>2021-08-10 09:16:17</time>
      </trkpt>
      <trkpt lat="42.83815" lon="-0.47591">
        <ele>1588.4</ele>
        <time>2021-08-10 09:16:18</time>
      </trkpt>
      <trkpt lat="42.83816" lon="-0.4759">
        <ele>1588.4</ele>
        <time>2021-08-10 09:16:19</time>
      </trkpt>
      <trkpt lat="42.83816" lon="-0.4759">
        <ele>1588.2</ele>
        <time>2021-08-10 09:16:20</time>
      </trkpt>
      <trkpt lat="42.83817" lon="-0.47589">
        <ele>1588</ele>
        <time>2021-08-10 09:16:21</time>
      </trkpt>
      <trkpt lat="42.83818" lon="-0.47588">
        <ele>1587.4</ele>
        <time>2021-08-10 09:16:22</time>
      </trkpt>
      <trkpt lat="42.83819" lon="-0.47588">
        <ele>1587.4</ele>
        <time>2021-08-10 09:16:23</time>
      </trkpt>
      <trkpt lat="42.83821" lon="-0.47586">
        <ele>1587.4</ele>
        <time>2021-08-10 09:16:24</time>
      </trkpt>
      <trkpt lat="42.83821" lon="-0.47587">
        <ele>1587.4</ele>
        <time>2021-08-10 09:16:25</time>
      </trkpt>
      <trkpt lat="42.83821" lon="-0.47584">
        <ele>1587.2</ele>
        <time>2021-08-10 09:16:26</time>
      </trkpt>
      <trkpt lat="42.83822" lon="-0.47583">
        <ele>1586.8</ele>
        <time>2021-08-10 09:16:27</time>
      </trkpt>
      <trkpt lat="42.83822" lon="-0.47582">
        <ele>1586.6</ele>
        <time>2021-08-10 09:16:28</time>
      </trkpt>
      <trkpt lat="42.83823" lon="-0.47581">
        <ele>1586.4</ele>
        <time>2021-08-10 09:16:29</time>
      </trkpt>
      <trkpt lat="42.83824" lon="-0.47582">
        <ele>1586.2</ele>
        <time>2021-08-10 09:16:30</time>
      </trkpt>
      <trkpt lat="42.83824" lon="-0.47581">
        <ele>1586</ele>
        <time>2021-08-10 09:16:31</time>
      </trkpt>
      <trkpt lat="42.83825" lon="-0.4758">
        <ele>1586</ele>
        <time>2021-08-10 09:16:32</time>
      </trkpt>
      <trkpt lat="42.83826" lon="-0.47578">
        <ele>1585.8</ele>
        <time>2021-08-10 09:16:33</time>
      </trkpt>
      <trkpt lat="42.83826" lon="-0.47578">
        <ele>1585.6</ele>
        <time>2021-08-10 09:16:34</time>
      </trkpt>
      <trkpt lat="42.83827" lon="-0.47577">
        <ele>1585.4</ele>
        <time>2021-08-10 09:16:35</time>
      </trkpt>
      <trkpt lat="42.83826" lon="-0.47577">
        <ele>1585.6</ele>
        <time>2021-08-10 09:16:36</time>
      </trkpt>
      <trkpt lat="42.83827" lon="-0.47576">
        <ele>1585.4</ele>
        <time>2021-08-10 09:16:37</time>
      </trkpt>
      <trkpt lat="42.83827" lon="-0.47575">
        <ele>1585</ele>
        <time>2021-08-10 09:16:38</time>
      </trkpt>
      <trkpt lat="42.83827" lon="-0.47573">
        <ele>1584.8</ele>
        <time>2021-08-10 09:16:39</time>
      </trkpt>
      <trkpt lat="42.83827" lon="-0.47572">
        <ele>1584.6</ele>
        <time>2021-08-10 09:16:40</time>
      </trkpt>
      <trkpt lat="42.83827" lon="-0.47572">
        <ele>1584.6</ele>
        <time>2021-08-10 09:16:41</time>
      </trkpt>
      <trkpt lat="42.83827" lon="-0.47572">
        <ele>1584.6</ele>
        <time>2021-08-10 09:16:42</time>
      </trkpt>
      <trkpt lat="42.83828" lon="-0.47572">
        <ele>1584.4</ele>
        <time>2021-08-10 09:16:43</time>
      </trkpt>
      <trkpt lat="42.83828" lon="-0.47571">
        <ele>1584.2</ele>
        <time>2021-08-10 09:16:44</time>
      </trkpt>
      <trkpt lat="42.83828" lon="-0.4757">
        <ele>1583.8</ele>
        <time>2021-08-10 09:16:45</time>
      </trkpt>
      <trkpt lat="42.83828" lon="-0.4757">
        <ele>1583.8</ele>
        <time>2021-08-10 09:16:46</time>
      </trkpt>
      <trkpt lat="42.8383" lon="-0.47567">
        <ele>1583.6</ele>
        <time>2021-08-10 09:16:47</time>
      </trkpt>
      <trkpt lat="42.8383" lon="-0.47567">
        <ele>1583.6</ele>
        <time>2021-08-10 09:16:48</time>
      </trkpt>
      <trkpt lat="42.8383" lon="-0.47565">
        <ele>1583.4</ele>
        <time>2021-08-10 09:16:49</time>
      </trkpt>
      <trkpt lat="42.83831" lon="-0.47565">
        <ele>1583.2</ele>
        <time>2021-08-10 09:16:50</time>
      </trkpt>
      <trkpt lat="42.83831" lon="-0.47563">
        <ele>1583.2</ele>
        <time>2021-08-10 09:16:51</time>
      </trkpt>
      <trkpt lat="42.83832" lon="-0.47564">
        <ele>1583</ele>
        <time>2021-08-10 09:16:52</time>
      </trkpt>
      <trkpt lat="42.83831" lon="-0.47564">
        <ele>1582.6</ele>
        <time>2021-08-10 09:16:53</time>
      </trkpt>
      <trkpt lat="42.83831" lon="-0.47565">
        <ele>1582.6</ele>
        <time>2021-08-10 09:16:54</time>
      </trkpt>
      <trkpt lat="42.8383" lon="-0.47565">
        <ele>1582.4</ele>
        <time>2021-08-10 09:16:55</time>
      </trkpt>
      <trkpt lat="42.8383" lon="-0.47565">
        <ele>1582.4</ele>
        <time>2021-08-10 09:16:56</time>
      </trkpt>
      <trkpt lat="42.8383" lon="-0.47564">
        <ele>1582.4</ele>
        <time>2021-08-10 09:16:57</time>
      </trkpt>
      <trkpt lat="42.83829" lon="-0.47564">
        <ele>1582.2</ele>
        <time>2021-08-10 09:16:58</time>
      </trkpt>
      <trkpt lat="42.83829" lon="-0.47564">
        <ele>1582.2</ele>
        <time>2021-08-10 09:16:59</time>
      </trkpt>
      <trkpt lat="42.83829" lon="-0.47562">
        <ele>1582.2</ele>
      </trkpt>
      <trkpt lat="42.8383" lon="-0.47561">
        <ele>1581.8</ele>
        <time>2021-08-10 09:17:01</time>
      </trkpt>
      <trkpt lat="42.8383" lon="-0.4756">
        <ele>1581.8</ele>
        <time>2021-08-10 09:17:02</time>
      </trkpt>
      <trkpt lat="42.8383" lon="-0.4756">
        <ele>1581.4</ele>
        <time>2021-08-10 09:17:03</time>
      </trkpt>
      <trkpt lat="42.83831" lon="-0.47559">
        <ele>1581.2</ele>
        <time>2021-08-10 09:17:04</time>
      </trkpt>
      <trkpt lat="42.83831" lon="-0.47558">
        <ele>1580.6</ele>
        <time>2021-08-10 09:17:05</time>
      </trkpt>
      <trkpt lat="42.83832" lon="-0.47557">
        <ele>1580.4</ele>
        <time>2021-08-10 09:17:06</time>
      </trkpt>
      <trkpt lat="42.83832" lon="-0.47556">
        <ele>1580.4</ele>
        <time>2021-08-10 09:17:07</time>
      </trkpt>
      <trkpt lat="42.83832" lon="-0.47555">
        <ele>1580.2</ele>
        <time>2021-08-10 09:17:08</time>
      </trkpt>
      <trkpt lat="42.83832" lon="-0.47554">
        <ele>1580</ele>
        <time>2021-08-10 09:17:09</time>
      </trkpt>
      <trkpt lat="42.83832" lon="-0.47553">
        <ele>1579.8</ele>
        <time>2021-08-10 09:17:10</time>
      </trkpt>
      <trkpt lat="42.83832" lon="-0.47551">
        <ele>1579.6</ele>
        <time>2021-08-10 09:17:11</time>
      </trkpt>
      <trkpt lat="42.83832" lon="-0.4755">
        <ele>1579.6</ele>
        <time>2021-08-10 09:17:12</time>
      </trkpt>
      <trkpt lat="42.83833" lon="-0.4755">
        <ele>1579.4</ele>
        <time>2021-08-10 09:17:13</time>
      </trkpt>
      <trkpt lat="42.83834" lon="-0.47549">
        <ele>1579</ele>
        <time>2021-08-10 09:17:14</time>
      </trkpt>
      <trkpt lat="42.83835" lon="-0.47549">
        <ele>1579</ele>
        <time>2021-08-10 09:17:15</time>
      </trkpt>
      <trkpt lat="42.83835" lon="-0.47548">
        <ele>1578.8</ele>
        <time>2021-08-10 09:17:16</time>
      </trkpt>
      <trkpt lat="42.83835" lon="-0.47547">
        <ele>1578.6</ele>
        <time>2021-08-10 09:17:17</time>
      </trkpt>
      <trkpt lat="42.83835" lon="-0.47546">
        <ele>1578.4</ele>
        <time>2021-08-10 09:17:18</time>
      </trkpt>
      <trkpt lat="42.83835" lon="-0.47545">
        <ele>1578.4</ele>
        <time>2021-08-10 09:17:19</time>
      </trkpt>
      <trkpt lat="42.83835" lon="-0.47545">
        <ele>1578.4</ele>
        <time>2021-08-10 09:17:20</time>
      </trkpt>
      <trkpt lat="42.83835" lon="-0.47544">
        <ele>1578.2</ele>
        <time>2021-08-10 09:17:21</time>
      </trkpt>
      <trkpt lat="42.83835" lon="-0.47543">
        <ele>1578.4</ele>
        <time>2021-08-10 09:17:22</time>
      </trkpt>
      <trkpt lat="42.83835" lon="-0.47542">
        <ele>1578.2</ele>
        <time>2021-08-10 09:17:23</time>
      </trkpt>
      <trkpt lat="42.83835" lon="-0.47541">
        <ele>1578</ele>
      </trkpt>
      <trkpt lat="42.83835" lon="-0.47541">
        <ele>1577.8</ele>
        <time>2021-08-10 09:17:24</time>
      </trkpt>
      <trkpt lat="42.83835" lon="-0.4754">
        <ele>1577.4</ele>
        <time>2021-08-10 09:17:25</time>
      </trkpt>
      <trkpt lat="42.83834" lon="-0.47537">
        <ele>1577.2</ele>
        <time>2021-08-10 09:17:26</time>
      </trkpt>
      <trkpt lat="42.83834" lon="-0.47536">
        <ele>1577</ele>
        <time>2021-08-10 09:17:27</time>
      </trkpt>
      <trkpt lat="42.83834" lon="-0.47535">
        <ele>1576.8</ele>
        <time>2021-08-10 09:17:28</time>
      </trkpt>
      <trkpt lat="42.83835" lon="-0.47536">
        <ele>1576.6</ele>
        <time>2021-08-10 09:17:29</time>
      </trkpt>
      <trkpt lat="42.83836" lon="-0.47535">
        <ele>1576.4</ele>
        <time>2021-08-10 09:17:30</time>
      </trkpt>
      <trkpt lat="42.83836" lon="-0.47535">
        <ele>1576.4</ele>
        <time>2021-08-10 09:17:31</time>
      </trkpt>
      <trkpt lat="42.83837" lon="-0.47535">
        <ele>1576.2</ele>
        <time>2021-08-10 09:17:32</time>
      </trkpt>
      <trkpt lat="42.83837" lon="-0.47534">
        <ele>1576</ele>
        <time>2021-08-10 09:17:33</time>
      </trkpt>
      <trkpt lat="42.83838" lon="-0.47533">
        <ele>1575.8</ele>
        <time>2021-08-10 09:17:34</time>
      </trkpt>
      <trkpt lat="42.83838" lon="-0.47532">
        <ele>1575.2</ele>
        <time>2021-08-10 09:17:35</time>
      </trkpt>
      <trkpt lat="42.83838" lon="-0.47532">
        <ele>1575</ele>
        <time>2021-08-10 09:17:36</time>
      </trkpt>
      <trkpt lat="42.83838" lon="-0.47532">
        <ele>1574.8</ele>
        <time>2021-08-10 09:17:37</time>
      </trkpt>
      <trkpt lat="42.83838" lon="-0.47531">
        <ele>1574.6</ele>
        <time>2021-08-10 09:17:38</time>
      </trkpt>
      <trkpt lat="42.83838" lon="-0.4753">
        <ele>1574.4</ele>
        <time>2021-08-10 09:17:39</time>
      </trkpt>
      <trkpt lat="42.83838" lon="-0.4753">
        <ele>1574.2</ele>
        <time>2021-08-10 09:17:40</time>
      </trkpt>
      <trkpt lat="42.83838" lon="-0.47529">
        <ele>1573.8</ele>
        <time>2021-08-10 09:17:42</time>
      </trkpt>
      <trkpt lat="42.83839" lon="-0.47528">
        <ele>1573.8</ele>
      </trkpt>
      <trkpt lat="42.83838" lon="-0.47527">
        <ele>1573.2</ele>
        <time>2021-08-10 09:17:43</time>
      </trkpt>
      <trkpt lat="42.83839" lon="-0.47526">
        <ele>1573.2</ele>
        <time>2021-08-10 09:17:44</time>
      </trkpt>
      <trkpt lat="42.83839" lon="-0.47525">
        <ele>1573</ele>
        <time>2021-08-10 09:17:45</time>
      </trkpt>
      <trkpt lat="42.83839" lon="-0.47524">
        <ele>1572.6</ele>
        <time>2021-08-10 09:17:46</time>
      </trkpt>
      <trkpt lat="42.83839" lon="-0.47523">
        <ele>1572</ele>
        <time>2021-08-10 09:17:47</time>
      </trkpt>
      <trkpt lat="42.8384" lon="-0.47522">
        <ele>1571.8</ele>
        <time>2021-08-10 09:17:48</time>
      </trkpt>
      <trkpt lat="42.8384" lon="-0.47521">
        <ele>1572.2</ele>
        <time>2021-08-10 09:17:49</time>
      </trkpt>
      <trkpt lat="42.83839" lon="-0.4752">
        <ele>1572.2</ele>
        <time>2021-08-10 09:17:50</time>
      </trkpt>
      <trkpt lat="42.8384" lon="-0.4752">
        <ele>1571.8</ele>
        <time>2021-08-10 09:17:51</time>
      </trkpt>
      <trkpt lat="42.8384" lon="-0.47519">
        <ele>1571.6</ele>
        <time>2021-08-10 09:17:52</time>
      </trkpt>
      <trkpt lat="42.8384" lon="-0.47518">
        <ele>1571.2</ele>
        <time>2021-08-10 09:17:53</time>
      </trkpt>
      <trkpt lat="42.8384" lon="-0.47516">
        <ele>1570.4</ele>
        <time>2021-08-10 09:17:54</time>
      </trkpt>
      <trkpt lat="42.8384" lon="-0.47515">
        <ele>1570</ele>
        <time>2021-08-10 09:17:55</time>
      </trkpt>
      <trkpt lat="42.83839" lon="-0.47514">
        <ele>1570.4</ele>
        <time>2021-08-10 09:17:56</time>
      </trkpt>
      <trkpt lat="42.83839" lon="-0.47514">
        <ele>1570.8</ele>
        <time>2021-08-10 09:17:57</time>
      </trkpt>
      <trkpt lat="42.83839" lon="-0.47514">
        <ele>1570.6</ele>
        <time>2021-08-10 09:17:58</time>
      </trkpt>
      <trkpt lat="42.83839" lon="-0.47514">
        <ele>1570.8</ele>
        <time>2021-08-10 09:17:59</time>
      </trkpt>
      <trkpt lat="42.83839" lon="-0.47514">
        <ele>1570.6</ele>
        <time>2021-08-10 09:18:00</time>
      </trkpt>
      <trkpt lat="42.83837" lon="-0.47515">
        <ele>1570.4</ele>
        <time>2021-08-10 09:18:01</time>
      </trkpt>
      <trkpt lat="42.83837" lon="-0.47514">
        <ele>1570</ele>
        <time>2021-08-10 09:18:02</time>
      </trkpt>
      <trkpt lat="42.83837" lon="-0.47512">
        <ele>1570</ele>
        <time>2021-08-10 09:18:03</time>
      </trkpt>
      <trkpt lat="42.83838" lon="-0.47512">
        <ele>1569.8</ele>
        <time>2021-08-10 09:18:04</time>
      </trkpt>
      <trkpt lat="42.83838" lon="-0.47511">
        <ele>1569.8</ele>
        <time>2021-08-10 09:18:05</time>
      </trkpt>
      <trkpt lat="42.83838" lon="-0.47511">
        <ele>1569.6</ele>
        <time>2021-08-10 09:18:06</time>
      </trkpt>
      <trkpt lat="42.83838" lon="-0.4751">
        <ele>1569.2</ele>
        <time>2021-08-10 09:18:07</time>
      </trkpt>
      <trkpt lat="42.83838" lon="-0.4751">
        <ele>1569.4</ele>
        <time>2021-08-10 09:18:08</time>
      </trkpt>
      <trkpt lat="42.83838" lon="-0.47509">
        <ele>1569</ele>
        <time>2021-08-10 09:18:09</time>
      </trkpt>
      <trkpt lat="42.83838" lon="-0.47508">
        <ele>1568.8</ele>
        <time>2021-08-10 09:18:10</time>
      </trkpt>
      <trkpt lat="42.83837" lon="-0.47507">
        <ele>1568.6</ele>
        <time>2021-08-10 09:18:11</time>
      </trkpt>
      <trkpt lat="42.83837" lon="-0.47507">
        <ele>1568.8</ele>
        <time>2021-08-10 09:18:12</time>
      </trkpt>
      <trkpt lat="42.83837" lon="-0.47506">
        <ele>1568.6</ele>
        <time>2021-08-10 09:18:13</time>
      </trkpt>
      <trkpt lat="42.83837" lon="-0.47505">
        <ele>1568.2</ele>
        <time>2021-08-10 09:18:14</time>
      </trkpt>
      <trkpt lat="42.83837" lon="-0.47504">
        <ele>1567.8</ele>
        <time>2021-08-10 09:18:15</time>
      </trkpt>
      <trkpt lat="42.83837" lon="-0.47504">
        <ele>1568</ele>
        <time>2021-08-10 09:18:16</time>
      </trkpt>
      <trkpt lat="42.83837" lon="-0.47503">
        <ele>1567.8</ele>
        <time>2021-08-10 09:18:17</time>
      </trkpt>
      <trkpt lat="42.83837" lon="-0.47502">
        <ele>1567.6</ele>
        <time>2021-08-10 09:18:18</time>
      </trkpt>
      <trkpt lat="42.83837" lon="-0.47501">
        <ele>1567.6</ele>
        <time>2021-08-10 09:18:19</time>
      </trkpt>
      <trkpt lat="42.83837" lon="-0.475">
        <ele>1567.6</ele>
        <time>2021-08-10 09:18:21</time>
      </trkpt>
      <trkpt lat="42.83837" lon="-0.475">
        <ele>1567.4</ele>
      </trkpt>
      <trkpt lat="42.83838" lon="-0.47499">
        <ele>1567.4</ele>
        <time>2021-08-10 09:18:22</time>
      </trkpt>
      <trkpt lat="42.83839" lon="-0.47498">
        <ele>1567.2</ele>
        <time>2021-08-10 09:18:23</time>
      </trkpt>
      <trkpt lat="42.83839" lon="-0.47498">
        <ele>1567</ele>
        <time>2021-08-10 09:18:24</time>
      </trkpt>
      <trkpt lat="42.83839" lon="-0.47497">
        <ele>1566.8</ele>
        <time>2021-08-10 09:18:25</time>
      </trkpt>
      <trkpt lat="42.83839" lon="-0.47496">
        <ele>1566.6</ele>
        <time>2021-08-10 09:18:26</time>
      </trkpt>
      <trkpt lat="42.8384" lon="-0.47495">
        <ele>1566.4</ele>
        <time>2021-08-10 09:18:27</time>
      </trkpt>
      <trkpt lat="42.8384" lon="-0.47494">
        <ele>1566.2</ele>
        <time>2021-08-10 09:18:28</time>
      </trkpt>
      <trkpt lat="42.8384" lon="-0.47494">
        <ele>1566.2</ele>
        <time>2021-08-10 09:18:29</time>
      </trkpt>
      <trkpt lat="42.83841" lon="-0.47494">
        <ele>1565.8</ele>
        <time>2021-08-10 09:18:30</time>
      </trkpt>
      <trkpt lat="42.83841" lon="-0.47491">
        <ele>1565.6</ele>
        <time>2021-08-10 09:18:31</time>
      </trkpt>
      <trkpt lat="42.83842" lon="-0.47489">
        <ele>1565.2</ele>
        <time>2021-08-10 09:18:32</time>
      </trkpt>
      <trkpt lat="42.83842" lon="-0.47488">
        <ele>1565</ele>
        <time>2021-08-10 09:18:33</time>
      </trkpt>
      <trkpt lat="42.83844" lon="-0.47488">
        <ele>1565.2</ele>
        <time>2021-08-10 09:18:34</time>
      </trkpt>
      <trkpt lat="42.83843" lon="-0.47487">
        <ele>1565</ele>
        <time>2021-08-10 09:18:35</time>
      </trkpt>
      <trkpt lat="42.83843" lon="-0.47486">
        <ele>1565</ele>
        <time>2021-08-10 09:18:36</time>
      </trkpt>
      <trkpt lat="42.83844" lon="-0.47485">
        <ele>1564.4</ele>
        <time>2021-08-10 09:18:37</time>
      </trkpt>
      <trkpt lat="42.83845" lon="-0.47485">
        <ele>1564.2</ele>
        <time>2021-08-10 09:18:40</time>
      </trkpt>
      <trkpt lat="42.83845" lon="-0.47484">
        <ele>1564</ele>
        <time>2021-08-10 09:18:41</time>
      </trkpt>
      <trkpt lat="42.83846" lon="-0.47483">
        <ele>1563.8</ele>
        <time>2021-08-10 09:18:42</time>
      </trkpt>
      <trkpt lat="42.83846" lon="-0.47483">
        <ele>1563.6</ele>
        <time>2021-08-10 09:18:43</time>
      </trkpt>
      <trkpt lat="42.83846" lon="-0.47482">
        <ele>1563.4</ele>
        <time>2021-08-10 09:18:44</time>
      </trkpt>
      <trkpt lat="42.83846" lon="-0.47482">
        <ele>1563.4</ele>
        <time>2021-08-10 09:18:45</time>
      </trkpt>
      <trkpt lat="42.83847" lon="-0.47481">
        <ele>1563.2</ele>
        <time>2021-08-10 09:18:46</time>
      </trkpt>
      <trkpt lat="42.83847" lon="-0.4748">
        <ele>1563</ele>
        <time>2021-08-10 09:18:47</time>
      </trkpt>
      <trkpt lat="42.83848" lon="-0.47479">
        <ele>1562.6</ele>
        <time>2021-08-10 09:18:48</time>
      </trkpt>
      <trkpt lat="42.83848" lon="-0.47478">
        <ele>1562.2</ele>
        <time>2021-08-10 09:18:49</time>
      </trkpt>
      <trkpt lat="42.83848" lon="-0.47477">
        <ele>1562</ele>
        <time>2021-08-10 09:18:50</time>
      </trkpt>
      <trkpt lat="42.83849" lon="-0.47477">
        <ele>1561.6</ele>
        <time>2021-08-10 09:18:51</time>
      </trkpt>
      <trkpt lat="42.8385" lon="-0.47476">
        <ele>1561.4</ele>
        <time>2021-08-10 09:18:52</time>
      </trkpt>
      <trkpt lat="42.8385" lon="-0.47475">
        <ele>1561.2</ele>
        <time>2021-08-10 09:18:53</time>
      </trkpt>
      <trkpt lat="42.83851" lon="-0.47474">
        <ele>1561</ele>
        <time>2021-08-10 09:18:54</time>
      </trkpt>
      <trkpt lat="42.83852" lon="-0.47474">
        <ele>1560.8</ele>
        <time>2021-08-10 09:18:55</time>
      </trkpt>
      <trkpt lat="42.83853" lon="-0.47473">
        <ele>1560.8</ele>
        <time>2021-08-10 09:18:56</time>
      </trkpt>
      <trkpt lat="42.83854" lon="-0.47472">
        <ele>1560.6</ele>
        <time>2021-08-10 09:18:57</time>
      </trkpt>
      <trkpt lat="42.83854" lon="-0.47471">
        <ele>1560.4</ele>
        <time>2021-08-10 09:18:58</time>
      </trkpt>
      <trkpt lat="42.83855" lon="-0.47471">
        <ele>1560.2</ele>
        <time>2021-08-10 09:18:59</time>
      </trkpt>
      <trkpt lat="42.83856" lon="-0.4747">
        <ele>1560</ele>
        <time>2021-08-10 09:19:00</time>
      </trkpt>
      <trkpt lat="42.83856" lon="-0.4747">
        <ele>1559.8</ele>
        <time>2021-08-10 09:19:01</time>
      </trkpt>
      <trkpt lat="42.83857" lon="-0.47468">
        <ele>1559.6</ele>
        <time>2021-08-10 09:19:02</time>
      </trkpt>
      <trkpt lat="42.83856" lon="-0.47465">
        <ele>1559.4</ele>
        <time>2021-08-10 09:19:03</time>
      </trkpt>
      <trkpt lat="42.83857" lon="-0.47464">
        <ele>1559.4</ele>
        <time>2021-08-10 09:19:04</time>
      </trkpt>
      <trkpt lat="42.83858" lon="-0.47463">
        <ele>1559.2</ele>
        <time>2021-08-10 09:19:05</time>
      </trkpt>
      <trkpt lat="42.83858" lon="-0.47461">
        <ele>1559</ele>
        <time>2021-08-10 09:19:06</time>
      </trkpt>
      <trkpt lat="42.83859" lon="-0.47461">
        <ele>1558.6</ele>
        <time>2021-08-10 09:19:07</time>
      </trkpt>
      <trkpt lat="42.8386" lon="-0.4746">
        <ele>1558.6</ele>
        <time>2021-08-10 09:19:08</time>
      </trkpt>
      <trkpt lat="42.83861" lon="-0.4746">
        <ele>1558.4</ele>
        <time>2021-08-10 09:19:09</time>
      </trkpt>
      <trkpt lat="42.83861" lon="-0.47459">
        <ele>1558.4</ele>
        <time>2021-08-10 09:19:10</time>
      </trkpt>
      <trkpt lat="42.83862" lon="-0.4746">
        <ele>1558.2</ele>
        <time>2021-08-10 09:19:11</time>
      </trkpt>
      <trkpt lat="42.83863" lon="-0.47459">
        <ele>1558</ele>
        <time>2021-08-10 09:19:12</time>
      </trkpt>
      <trkpt lat="42.83864" lon="-0.47458">
        <ele>1557.8</ele>
        <time>2021-08-10 09:19:13</time>
      </trkpt>
      <trkpt lat="42.83864" lon="-0.47456">
        <ele>1557.8</ele>
        <time>2021-08-10 09:19:14</time>
      </trkpt>
      <trkpt lat="42.83865" lon="-0.47455">
        <ele>1557.6</ele>
        <time>2021-08-10 09:19:15</time>
      </trkpt>
      <trkpt lat="42.83865" lon="-0.47455">
        <ele>1557.4</ele>
        <time>2021-08-10 09:19:16</time>
      </trkpt>
      <trkpt lat="42.83865" lon="-0.47454">
        <ele>1557.4</ele>
        <time>2021-08-10 09:19:17</time>
      </trkpt>
      <trkpt lat="42.83866" lon="-0.47454">
        <ele>1557.4</ele>
        <time>2021-08-10 09:19:18</time>
      </trkpt>
      <trkpt lat="42.83865" lon="-0.47454">
        <ele>1557.4</ele>
        <time>2021-08-10 09:19:19</time>
      </trkpt>
      <trkpt lat="42.83866" lon="-0.47452">
        <ele>1557.4</ele>
        <time>2021-08-10 09:19:20</time>
      </trkpt>
      <trkpt lat="42.83866" lon="-0.47451">
        <ele>1557.4</ele>
        <time>2021-08-10 09:19:21</time>
      </trkpt>
      <trkpt lat="42.83866" lon="-0.4745">
        <ele>1557</ele>
        <time>2021-08-10 09:19:22</time>
      </trkpt>
      <trkpt lat="42.83866" lon="-0.4745">
        <ele>1557</ele>
        <time>2021-08-10 09:19:23</time>
      </trkpt>
      <trkpt lat="42.83866" lon="-0.47449">
        <ele>1556.8</ele>
        <time>2021-08-10 09:19:24</time>
      </trkpt>
      <trkpt lat="42.83867" lon="-0.47448">
        <ele>1556.6</ele>
        <time>2021-08-10 09:19:25</time>
      </trkpt>
      <trkpt lat="42.83867" lon="-0.47447">
        <ele>1556.2</ele>
        <time>2021-08-10 09:19:26</time>
      </trkpt>
      <trkpt lat="42.83868" lon="-0.47446">
        <ele>1555.8</ele>
        <time>2021-08-10 09:19:27</time>
      </trkpt>
      <trkpt lat="42.83868" lon="-0.47447">
        <ele>1555.6</ele>
        <time>2021-08-10 09:19:28</time>
      </trkpt>
      <trkpt lat="42.83869" lon="-0.47447">
        <ele>1555.2</ele>
        <time>2021-08-10 09:19:29</time>
      </trkpt>
      <trkpt lat="42.8387" lon="-0.47446">
        <ele>1555</ele>
        <time>2021-08-10 09:19:30</time>
      </trkpt>
      <trkpt lat="42.8387" lon="-0.47446">
        <ele>1555</ele>
        <time>2021-08-10 09:19:31</time>
      </trkpt>
      <trkpt lat="42.8387" lon="-0.47446">
        <ele>1554.8</ele>
        <time>2021-08-10 09:19:32</time>
      </trkpt>
      <trkpt lat="42.83871" lon="-0.47445">
        <ele>1554.8</ele>
        <time>2021-08-10 09:19:33</time>
      </trkpt>
      <trkpt lat="42.83872" lon="-0.47445">
        <ele>1554.6</ele>
        <time>2021-08-10 09:19:34</time>
      </trkpt>
      <trkpt lat="42.83873" lon="-0.47445">
        <ele>1554.4</ele>
        <time>2021-08-10 09:19:35</time>
      </trkpt>
      <trkpt lat="42.83873" lon="-0.47445">
        <ele>1554.4</ele>
        <time>2021-08-10 09:19:36</time>
      </trkpt>
      <trkpt lat="42.83873" lon="-0.47444">
        <ele>1554.6</ele>
        <time>2021-08-10 09:19:37</time>
      </trkpt>
      <trkpt lat="42.83873" lon="-0.47443">
        <ele>1554.4</ele>
        <time>2021-08-10 09:19:38</time>
      </trkpt>
      <trkpt lat="42.83873" lon="-0.47442">
        <ele>1554.2</ele>
        <time>2021-08-10 09:19:39</time>
      </trkpt>
      <trkpt lat="42.83874" lon="-0.47443">
        <ele>1554</ele>
        <time>2021-08-10 09:19:40</time>
      </trkpt>
      <trkpt lat="42.83874" lon="-0.47443">
        <ele>1554</ele>
        <time>2021-08-10 09:19:41</time>
      </trkpt>
      <trkpt lat="42.83875" lon="-0.47443">
        <ele>1553.8</ele>
        <time>2021-08-10 09:19:42</time>
      </trkpt>
      <trkpt lat="42.83875" lon="-0.47443">
        <ele>1553.6</ele>
        <time>2021-08-10 09:19:43</time>
      </trkpt>
      <trkpt lat="42.83875" lon="-0.47444">
        <ele>1553.4</ele>
        <time>2021-08-10 09:19:44</time>
      </trkpt>
      <trkpt lat="42.83875" lon="-0.47444">
        <ele>1553.2</ele>
        <time>2021-08-10 09:19:45</time>
      </trkpt>
      <trkpt lat="42.83874" lon="-0.47444">
        <ele>1553.2</ele>
        <time>2021-08-10 09:19:46</time>
      </trkpt>
      <trkpt lat="42.83874" lon="-0.47442">
        <ele>1552.8</ele>
        <time>2021-08-10 09:19:47</time>
      </trkpt>
      <trkpt lat="42.83874" lon="-0.47441">
        <ele>1552.6</ele>
        <time>2021-08-10 09:19:48</time>
      </trkpt>
      <trkpt lat="42.83874" lon="-0.47441">
        <ele>1552.4</ele>
        <time>2021-08-10 09:19:49</time>
      </trkpt>
      <trkpt lat="42.83875" lon="-0.4744">
        <ele>1552.2</ele>
        <time>2021-08-10 09:19:50</time>
      </trkpt>
      <trkpt lat="42.83875" lon="-0.4744">
        <ele>1551.6</ele>
        <time>2021-08-10 09:19:51</time>
      </trkpt>
      <trkpt lat="42.83876" lon="-0.47439">
        <ele>1551.2</ele>
        <time>2021-08-10 09:19:52</time>
      </trkpt>
      <trkpt lat="42.83876" lon="-0.47438">
        <ele>1550.8</ele>
        <time>2021-08-10 09:19:53</time>
      </trkpt>
      <trkpt lat="42.83877" lon="-0.47437">
        <ele>1550.6</ele>
        <time>2021-08-10 09:19:54</time>
      </trkpt>
      <trkpt lat="42.83877" lon="-0.47437">
        <ele>1550.4</ele>
        <time>2021-08-10 09:19:55</time>
      </trkpt>
      <trkpt lat="42.83878" lon="-0.47436">
        <ele>1550.2</ele>
        <time>2021-08-10 09:19:56</time>
      </trkpt>
      <trkpt lat="42.83878" lon="-0.47436">
        <ele>1550</ele>
        <time>2021-08-10 09:19:57</time>
      </trkpt>
      <trkpt lat="42.83879" lon="-0.47435">
        <ele>1549.8</ele>
        <time>2021-08-10 09:19:58</time>
      </trkpt>
      <trkpt lat="42.83879" lon="-0.47435">
        <ele>1549.8</ele>
        <time>2021-08-10 09:19:59</time>
      </trkpt>
      <trkpt lat="42.83881" lon="-0.47435">
        <ele>1549.8</ele>
        <time>2021-08-10 09:20:00</time>
      </trkpt>
      <trkpt lat="42.83882" lon="-0.47435">
        <ele>1549.8</ele>
        <time>2021-08-10 09:20:01</time>
      </trkpt>
      <trkpt lat="42.83882" lon="-0.47435">
        <ele>1549.8</ele>
        <time>2021-08-10 09:20:02</time>
      </trkpt>
      <trkpt lat="42.83883" lon="-0.47435">
        <ele>1549.4</ele>
        <time>2021-08-10 09:20:03</time>
      </trkpt>
      <trkpt lat="42.83883" lon="-0.47435">
        <ele>1549.4</ele>
        <time>2021-08-10 09:20:04</time>
      </trkpt>
      <trkpt lat="42.83883" lon="-0.47435">
        <ele>1549.4</ele>
        <time>2021-08-10 09:20:05</time>
      </trkpt>
      <trkpt lat="42.83883" lon="-0.47435">
        <ele>1549</ele>
        <time>2021-08-10 09:20:06</time>
      </trkpt>
      <trkpt lat="42.83883" lon="-0.47434">
        <ele>1548.8</ele>
        <time>2021-08-10 09:20:07</time>
      </trkpt>
      <trkpt lat="42.83884" lon="-0.47434">
        <ele>1548.6</ele>
        <time>2021-08-10 09:20:08</time>
      </trkpt>
      <trkpt lat="42.83884" lon="-0.47434">
        <ele>1548.4</ele>
        <time>2021-08-10 09:20:09</time>
      </trkpt>
      <trkpt lat="42.83884" lon="-0.47433">
        <ele>1548.2</ele>
        <time>2021-08-10 09:20:10</time>
      </trkpt>
      <trkpt lat="42.83885" lon="-0.47433">
        <ele>1548.2</ele>
        <time>2021-08-10 09:20:11</time>
      </trkpt>
      <trkpt lat="42.83885" lon="-0.47433">
        <ele>1548</ele>
        <time>2021-08-10 09:20:12</time>
      </trkpt>
      <trkpt lat="42.83886" lon="-0.47432">
        <ele>1547.8</ele>
        <time>2021-08-10 09:20:13</time>
      </trkpt>
      <trkpt lat="42.83886" lon="-0.47431">
        <ele>1547.6</ele>
        <time>2021-08-10 09:20:14</time>
      </trkpt>
      <trkpt lat="42.83886" lon="-0.47431">
        <ele>1547.4</ele>
        <time>2021-08-10 09:20:15</time>
      </trkpt>
      <trkpt lat="42.83887" lon="-0.47431">
        <ele>1547.2</ele>
        <time>2021-08-10 09:20:16</time>
      </trkpt>
      <trkpt lat="42.83887" lon="-0.4743">
        <ele>1547</ele>
        <time>2021-08-10 09:20:17</time>
      </trkpt>
      <trkpt lat="42.83887" lon="-0.4743">
        <ele>1546.8</ele>
        <time>2021-08-10 09:20:18</time>
      </trkpt>
      <trkpt lat="42.83887" lon="-0.47429">
        <ele>1546.6</ele>
        <time>2021-08-10 09:20:19</time>
      </trkpt>
      <trkpt lat="42.83887" lon="-0.47428">
        <ele>1546.4</ele>
        <time>2021-08-10 09:20:20</time>
      </trkpt>
      <trkpt lat="42.83887" lon="-0.47427">
        <ele>1546.4</ele>
        <time>2021-08-10 09:20:21</time>
      </trkpt>
      <trkpt lat="42.83887" lon="-0.47426">
        <ele>1546.2</ele>
        <time>2021-08-10 09:20:22</time>
      </trkpt>
      <trkpt lat="42.83887" lon="-0.47425">
        <ele>1546.2</ele>
        <time>2021-08-10 09:20:23</time>
      </trkpt>
      <trkpt lat="42.83888" lon="-0.47425">
        <ele>1546</ele>
        <time>2021-08-10 09:20:24</time>
      </trkpt>
      <trkpt lat="42.83888" lon="-0.47424">
        <ele>1545.8</ele>
        <time>2021-08-10 09:20:25</time>
      </trkpt>
      <trkpt lat="42.83889" lon="-0.47424">
        <ele>1545.6</ele>
        <time>2021-08-10 09:20:26</time>
      </trkpt>
      <trkpt lat="42.83889" lon="-0.47424">
        <ele>1545.4</ele>
        <time>2021-08-10 09:20:27</time>
      </trkpt>
      <trkpt lat="42.8389" lon="-0.47423">
        <ele>1545</ele>
        <time>2021-08-10 09:20:28</time>
      </trkpt>
      <trkpt lat="42.8389" lon="-0.47423">
        <ele>1544.8</ele>
        <time>2021-08-10 09:20:29</time>
      </trkpt>
      <trkpt lat="42.8389" lon="-0.47422">
        <ele>1544.6</ele>
        <time>2021-08-10 09:20:30</time>
      </trkpt>
      <trkpt lat="42.83891" lon="-0.47422">
        <ele>1544.6</ele>
        <time>2021-08-10 09:20:31</time>
      </trkpt>
      <trkpt lat="42.83892" lon="-0.47421">
        <ele>1544.4</ele>
        <time>2021-08-10 09:20:32</time>
      </trkpt>
      <trkpt lat="42.83892" lon="-0.47421">
        <ele>1544.2</ele>
        <time>2021-08-10 09:20:33</time>
      </trkpt>
      <trkpt lat="42.83892" lon="-0.4742">
        <ele>1544.2</ele>
        <time>2021-08-10 09:20:34</time>
      </trkpt>
      <trkpt lat="42.83892" lon="-0.47419">
        <ele>1544.2</ele>
        <time>2021-08-10 09:20:35</time>
      </trkpt>
      <trkpt lat="42.83893" lon="-0.47418">
        <ele>1544</ele>
        <time>2021-08-10 09:20:36</time>
      </trkpt>
      <trkpt lat="42.83894" lon="-0.47418">
        <ele>1543.8</ele>
        <time>2021-08-10 09:20:37</time>
      </trkpt>
      <trkpt lat="42.83895" lon="-0.47418">
        <ele>1543.8</ele>
        <time>2021-08-10 09:20:38</time>
      </trkpt>
      <trkpt lat="42.83895" lon="-0.47418">
        <ele>1543.6</ele>
        <time>2021-08-10 09:20:39</time>
      </trkpt>
      <trkpt lat="42.83896" lon="-0.47417">
        <ele>1542.8</ele>
        <time>2021-08-10 09:20:40</time>
      </trkpt>
      <trkpt lat="42.83896" lon="-0.47416">
        <ele>1543</ele>
        <time>2021-08-10 09:20:41</time>
      </trkpt>
      <trkpt lat="42.83896" lon="-0.47415">
        <ele>1542.8</ele>
        <time>2021-08-10 09:20:42</time>
      </trkpt>
      <trkpt lat="42.83896" lon="-0.47414">
        <ele>1542.8</ele>
        <time>2021-08-10 09:20:43</time>
      </trkpt>
      <trkpt lat="42.83896" lon="-0.47412">
        <ele>1542.6</ele>
        <time>2021-08-10 09:20:44</time>
      </trkpt>
      <trkpt lat="42.83897" lon="-0.4741">
        <ele>1542.4</ele>
        <time>2021-08-10 09:20:45</time>
      </trkpt>
      <trkpt lat="42.83898" lon="-0.47409">
        <ele>1542.2</ele>
        <time>2021-08-10 09:20:46</time>
      </trkpt>
      <trkpt lat="42.83898" lon="-0.47409">
        <ele>1542</ele>
        <time>2021-08-10 09:20:47</time>
      </trkpt>
      <trkpt lat="42.83896" lon="-0.47409">
        <ele>1541.8</ele>
        <time>2021-08-10 09:20:48</time>
      </trkpt>
      <trkpt lat="42.83896" lon="-0.47408">
        <ele>1541.4</ele>
        <time>2021-08-10 09:20:49</time>
      </trkpt>
      <trkpt lat="42.83897" lon="-0.47408">
        <ele>1541.2</ele>
        <time>2021-08-10 09:20:50</time>
      </trkpt>
      <trkpt lat="42.83897" lon="-0.47407">
        <ele>1541</ele>
        <time>2021-08-10 09:20:51</time>
      </trkpt>
      <trkpt lat="42.83897" lon="-0.47405">
        <ele>1540.8</ele>
        <time>2021-08-10 09:20:52</time>
      </trkpt>
      <trkpt lat="42.83897" lon="-0.47404">
        <ele>1540.6</ele>
        <time>2021-08-10 09:20:53</time>
      </trkpt>
      <trkpt lat="42.83897" lon="-0.47403">
        <ele>1540.4</ele>
        <time>2021-08-10 09:20:54</time>
      </trkpt>
      <trkpt lat="42.83897" lon="-0.47402">
        <ele>1540.2</ele>
        <time>2021-08-10 09:20:55</time>
      </trkpt>
      <trkpt lat="42.83897" lon="-0.474">
        <ele>1540</ele>
        <time>2021-08-10 09:20:56</time>
      </trkpt>
      <trkpt lat="42.83897" lon="-0.47399">
        <ele>1539.8</ele>
        <time>2021-08-10 09:20:57</time>
      </trkpt>
      <trkpt lat="42.83898" lon="-0.47397">
        <ele>1539.4</ele>
        <time>2021-08-10 09:20:58</time>
      </trkpt>
      <trkpt lat="42.83898" lon="-0.47396">
        <ele>1539.4</ele>
        <time>2021-08-10 09:20:59</time>
      </trkpt>
      <trkpt lat="42.83898" lon="-0.47394">
        <ele>1539.4</ele>
        <time>2021-08-10 09:21:00</time>
      </trkpt>
      <trkpt lat="42.83898" lon="-0.47393">
        <ele>1539.4</ele>
        <time>2021-08-10 09:21:01</time>
      </trkpt>
      <trkpt lat="42.83899" lon="-0.47391">
        <ele>1539.2</ele>
        <time>2021-08-10 09:21:02</time>
      </trkpt>
      <trkpt lat="42.83899" lon="-0.4739">
        <ele>1538.8</ele>
        <time>2021-08-10 09:21:03</time>
      </trkpt>
      <trkpt lat="42.83899" lon="-0.47389">
        <ele>1538.4</ele>
        <time>2021-08-10 09:21:04</time>
      </trkpt>
      <trkpt lat="42.839" lon="-0.47388">
        <ele>1538.2</ele>
        <time>2021-08-10 09:21:05</time>
      </trkpt>
      <trkpt lat="42.83901" lon="-0.47388">
        <ele>1538.2</ele>
        <time>2021-08-10 09:21:06</time>
      </trkpt>
      <trkpt lat="42.83902" lon="-0.47387">
        <ele>1537.8</ele>
        <time>2021-08-10 09:21:07</time>
      </trkpt>
      <trkpt lat="42.83902" lon="-0.47387">
        <ele>1537.6</ele>
        <time>2021-08-10 09:21:08</time>
      </trkpt>
      <trkpt lat="42.83902" lon="-0.47386">
        <ele>1537.6</ele>
        <time>2021-08-10 09:21:09</time>
      </trkpt>
      <trkpt lat="42.83902" lon="-0.47385">
        <ele>1537.4</ele>
        <time>2021-08-10 09:21:10</time>
      </trkpt>
      <trkpt lat="42.83902" lon="-0.47384">
        <ele>1537.4</ele>
        <time>2021-08-10 09:21:11</time>
      </trkpt>
      <trkpt lat="42.83902" lon="-0.47383">
        <ele>1537.2</ele>
        <time>2021-08-10 09:21:12</time>
      </trkpt>
      <trkpt lat="42.83902" lon="-0.47383">
        <ele>1537.2</ele>
        <time>2021-08-10 09:21:13</time>
      </trkpt>
      <trkpt lat="42.83902" lon="-0.47382">
        <ele>1537.2</ele>
        <time>2021-08-10 09:21:14</time>
      </trkpt>
      <trkpt lat="42.83902" lon="-0.47381">
        <ele>1537</ele>
        <time>2021-08-10 09:21:15</time>
      </trkpt>
      <trkpt lat="42.83903" lon="-0.4738">
        <ele>1536.6</ele>
        <time>2021-08-10 09:21:16</time>
      </trkpt>
      <trkpt lat="42.83903" lon="-0.4738">
        <ele>1536.2</ele>
        <time>2021-08-10 09:21:17</time>
      </trkpt>
      <trkpt lat="42.83904" lon="-0.47378">
        <ele>1536.2</ele>
        <time>2021-08-10 09:21:18</time>
      </trkpt>
      <trkpt lat="42.83903" lon="-0.47377">
        <ele>1535.8</ele>
        <time>2021-08-10 09:21:19</time>
      </trkpt>
      <trkpt lat="42.83904" lon="-0.47376">
        <ele>1535.6</ele>
        <time>2021-08-10 09:21:20</time>
      </trkpt>
      <trkpt lat="42.83905" lon="-0.47374">
        <ele>1535.4</ele>
        <time>2021-08-10 09:21:21</time>
      </trkpt>
      <trkpt lat="42.83906" lon="-0.47372">
        <ele>1534.8</ele>
        <time>2021-08-10 09:21:22</time>
      </trkpt>
      <trkpt lat="42.83906" lon="-0.47369">
        <ele>1534.8</ele>
        <time>2021-08-10 09:21:23</time>
      </trkpt>
      <trkpt lat="42.83907" lon="-0.47367">
        <ele>1534.6</ele>
        <time>2021-08-10 09:21:24</time>
      </trkpt>
      <trkpt lat="42.83908" lon="-0.47366">
        <ele>1534.4</ele>
        <time>2021-08-10 09:21:25</time>
      </trkpt>
      <trkpt lat="42.83909" lon="-0.47365">
        <ele>1534</ele>
        <time>2021-08-10 09:21:26</time>
      </trkpt>
      <trkpt lat="42.8391" lon="-0.47363">
        <ele>1534</ele>
        <time>2021-08-10 09:21:27</time>
      </trkpt>
      <trkpt lat="42.8391" lon="-0.47361">
        <ele>1534</ele>
        <time>2021-08-10 09:21:28</time>
      </trkpt>
      <trkpt lat="42.83911" lon="-0.47361">
        <ele>1534</ele>
        <time>2021-08-10 09:21:29</time>
      </trkpt>
      <trkpt lat="42.83913" lon="-0.4736">
        <ele>1533.8</ele>
        <time>2021-08-10 09:21:30</time>
      </trkpt>
      <trkpt lat="42.83914" lon="-0.47359">
        <ele>1533.6</ele>
        <time>2021-08-10 09:21:31</time>
      </trkpt>
      <trkpt lat="42.83915" lon="-0.47358">
        <ele>1533.4</ele>
        <time>2021-08-10 09:21:32</time>
      </trkpt>
      <trkpt lat="42.83915" lon="-0.47356">
        <ele>1533.2</ele>
        <time>2021-08-10 09:21:33</time>
      </trkpt>
      <trkpt lat="42.83916" lon="-0.47354">
        <ele>1532.8</ele>
        <time>2021-08-10 09:21:34</time>
      </trkpt>
      <trkpt lat="42.83917" lon="-0.47352">
        <ele>1532.6</ele>
        <time>2021-08-10 09:21:35</time>
      </trkpt>
      <trkpt lat="42.83917" lon="-0.4735">
        <ele>1532.6</ele>
        <time>2021-08-10 09:21:36</time>
      </trkpt>
      <trkpt lat="42.83919" lon="-0.47348">
        <ele>1532.4</ele>
        <time>2021-08-10 09:21:37</time>
      </trkpt>
      <trkpt lat="42.83919" lon="-0.47346">
        <ele>1532.4</ele>
        <time>2021-08-10 09:21:38</time>
      </trkpt>
      <trkpt lat="42.8392" lon="-0.47345">
        <ele>1532.2</ele>
        <time>2021-08-10 09:21:39</time>
      </trkpt>
      <trkpt lat="42.8392" lon="-0.47342">
        <ele>1532.4</ele>
        <time>2021-08-10 09:21:40</time>
      </trkpt>
      <trkpt lat="42.83921" lon="-0.47341">
        <ele>1532.2</ele>
        <time>2021-08-10 09:21:41</time>
      </trkpt>
      <trkpt lat="42.83922" lon="-0.47339">
        <ele>1532.4</ele>
        <time>2021-08-10 09:21:42</time>
      </trkpt>
      <trkpt lat="42.83923" lon="-0.47337">
        <ele>1532</ele>
        <time>2021-08-10 09:21:43</time>
      </trkpt>
      <trkpt lat="42.83923" lon="-0.47337">
        <ele>1531.8</ele>
        <time>2021-08-10 09:21:44</time>
      </trkpt>
      <trkpt lat="42.83924" lon="-0.47335">
        <ele>1531.8</ele>
        <time>2021-08-10 09:21:45</time>
      </trkpt>
      <trkpt lat="42.83925" lon="-0.47334">
        <ele>1531.6</ele>
        <time>2021-08-10 09:21:46</time>
      </trkpt>
      <trkpt lat="42.83926" lon="-0.47333">
        <ele>1531.4</ele>
        <time>2021-08-10 09:21:47</time>
      </trkpt>
      <trkpt lat="42.83927" lon="-0.47332">
        <ele>1531.2</ele>
        <time>2021-08-10 09:21:48</time>
      </trkpt>
      <trkpt lat="42.83928" lon="-0.47331">
        <ele>1531.2</ele>
        <time>2021-08-10 09:21:49</time>
      </trkpt>
      <trkpt lat="42.83929" lon="-0.4733">
        <ele>1531.4</ele>
        <time>2021-08-10 09:21:50</time>
      </trkpt>
      <trkpt lat="42.8393" lon="-0.47329">
        <ele>1531.4</ele>
        <time>2021-08-10 09:21:51</time>
      </trkpt>
      <trkpt lat="42.8393" lon="-0.47328">
        <ele>1531.6</ele>
        <time>2021-08-10 09:21:52</time>
      </trkpt>
      <trkpt lat="42.8393" lon="-0.47328">
        <ele>1531.8</ele>
        <time>2021-08-10 09:21:53</time>
      </trkpt>
      <trkpt lat="42.8393" lon="-0.47326">
        <ele>1532</ele>
        <time>2021-08-10 09:21:54</time>
      </trkpt>
      <trkpt lat="42.83929" lon="-0.47324">
        <ele>1532</ele>
        <time>2021-08-10 09:21:55</time>
      </trkpt>
      <trkpt lat="42.83929" lon="-0.47323">
        <ele>1532</ele>
        <time>2021-08-10 09:21:56</time>
      </trkpt>
      <trkpt lat="42.83928" lon="-0.47322">
        <ele>1532.4</ele>
        <time>2021-08-10 09:21:57</time>
      </trkpt>
      <trkpt lat="42.83928" lon="-0.47321">
        <ele>1532.4</ele>
        <time>2021-08-10 09:21:58</time>
      </trkpt>
      <trkpt lat="42.83928" lon="-0.4732">
        <ele>1532.4</ele>
        <time>2021-08-10 09:21:59</time>
      </trkpt>
      <trkpt lat="42.83927" lon="-0.47319">
        <ele>1532.4</ele>
        <time>2021-08-10 09:22:00</time>
      </trkpt>
      <trkpt lat="42.83927" lon="-0.47318">
        <ele>1532.2</ele>
        <time>2021-08-10 09:22:01</time>
      </trkpt>
      <trkpt lat="42.83927" lon="-0.47317">
        <ele>1532.2</ele>
        <time>2021-08-10 09:22:02</time>
      </trkpt>
      <trkpt lat="42.83927" lon="-0.47315">
        <ele>1532.2</ele>
        <time>2021-08-10 09:22:03</time>
      </trkpt>
      <trkpt lat="42.83926" lon="-0.47314">
        <ele>1532.4</ele>
        <time>2021-08-10 09:22:04</time>
      </trkpt>
      <trkpt lat="42.83927" lon="-0.47313">
        <ele>1532.6</ele>
        <time>2021-08-10 09:22:05</time>
      </trkpt>
      <trkpt lat="42.83927" lon="-0.47313">
        <ele>1532.8</ele>
        <time>2021-08-10 09:22:06</time>
      </trkpt>
      <trkpt lat="42.83928" lon="-0.47312">
        <ele>1532.6</ele>
        <time>2021-08-10 09:22:07</time>
      </trkpt>
      <trkpt lat="42.83928" lon="-0.47311">
        <ele>1532.4</ele>
        <time>2021-08-10 09:22:08</time>
      </trkpt>
      <trkpt lat="42.83927" lon="-0.47312">
        <ele>1532.2</ele>
        <time>2021-08-10 09:22:09</time>
      </trkpt>
      <trkpt lat="42.83928" lon="-0.47312">
        <ele>1532</ele>
        <time>2021-08-10 09:22:10</time>
      </trkpt>
      <trkpt lat="42.83928" lon="-0.47311">
        <ele>1531.6</ele>
        <time>2021-08-10 09:22:11</time>
      </trkpt>
      <trkpt lat="42.83928" lon="-0.47311">
        <ele>1531.6</ele>
        <time>2021-08-10 09:22:12</time>
      </trkpt>
      <trkpt lat="42.83929" lon="-0.47311">
        <ele>1531.4</ele>
        <time>2021-08-10 09:22:13</time>
      </trkpt>
      <trkpt lat="42.83929" lon="-0.47311">
        <ele>1531.4</ele>
        <time>2021-08-10 09:22:14</time>
      </trkpt>
      <trkpt lat="42.8393" lon="-0.47311">
        <ele>1531.2</ele>
        <time>2021-08-10 09:22:15</time>
      </trkpt>
      <trkpt lat="42.8393" lon="-0.47311">
        <ele>1531.2</ele>
        <time>2021-08-10 09:22:16</time>
      </trkpt>
      <trkpt lat="42.8393" lon="-0.47308">
        <ele>1531</ele>
        <time>2021-08-10 09:22:17</time>
      </trkpt>
      <trkpt lat="42.83929" lon="-0.47308">
        <ele>1531.2</ele>
        <time>2021-08-10 09:22:18</time>
      </trkpt>
      <trkpt lat="42.83929" lon="-0.4731">
        <ele>1531</ele>
        <time>2021-08-10 09:22:19</time>
      </trkpt>
      <trkpt lat="42.83929" lon="-0.4731">
        <ele>1530.6</ele>
        <time>2021-08-10 09:22:20</time>
      </trkpt>
      <trkpt lat="42.83929" lon="-0.47309">
        <ele>1530.4</ele>
        <time>2021-08-10 09:22:21</time>
      </trkpt>
      <trkpt lat="42.83929" lon="-0.4731">
        <ele>1530.2</ele>
        <time>2021-08-10 09:22:22</time>
      </trkpt>
      <trkpt lat="42.83929" lon="-0.4731">
        <ele>1530</ele>
        <time>2021-08-10 09:22:23</time>
      </trkpt>
      <trkpt lat="42.83932" lon="-0.47312">
        <ele>1530</ele>
        <time>2021-08-10 09:22:24</time>
      </trkpt>
      <trkpt lat="42.83932" lon="-0.47311">
        <ele>1530.2</ele>
        <time>2021-08-10 09:22:25</time>
      </trkpt>
      <trkpt lat="42.83932" lon="-0.47312">
        <ele>1530.2</ele>
        <time>2021-08-10 09:22:26</time>
      </trkpt>
      <trkpt lat="42.83932" lon="-0.47312">
        <ele>1530</ele>
        <time>2021-08-10 09:22:27</time>
      </trkpt>
      <trkpt lat="42.83932" lon="-0.47312">
        <ele>1530</ele>
        <time>2021-08-10 09:22:28</time>
      </trkpt>
      <trkpt lat="42.83932" lon="-0.47312">
        <ele>1530</ele>
        <time>2021-08-10 09:22:29</time>
      </trkpt>
      <trkpt lat="42.83932" lon="-0.47312">
        <ele>1530</ele>
        <time>2021-08-10 09:22:30</time>
      </trkpt>
      <trkpt lat="42.83931" lon="-0.47312">
        <ele>1529.8</ele>
        <time>2021-08-10 09:22:31</time>
      </trkpt>
      <trkpt lat="42.83931" lon="-0.47312">
        <ele>1530</ele>
        <time>2021-08-10 09:22:32</time>
      </trkpt>
      <trkpt lat="42.83931" lon="-0.47312">
        <ele>1530</ele>
        <time>2021-08-10 09:22:33</time>
      </trkpt>
      <trkpt lat="42.83932" lon="-0.47312">
        <ele>1530</ele>
        <time>2021-08-10 09:22:34</time>
      </trkpt>
      <trkpt lat="42.83932" lon="-0.47312">
        <ele>1530</ele>
        <time>2021-08-10 09:22:35</time>
      </trkpt>
      <trkpt lat="42.83932" lon="-0.47312">
        <ele>1530</ele>
        <time>2021-08-10 09:22:36</time>
      </trkpt>
      <trkpt lat="42.83932" lon="-0.47312">
        <ele>1530</ele>
        <time>2021-08-10 09:22:37</time>
      </trkpt>
      <trkpt lat="42.83932" lon="-0.47312">
        <ele>1530</ele>
        <time>2021-08-10 09:22:38</time>
      </trkpt>
      <trkpt lat="42.83932" lon="-0.47312">
        <ele>1530</ele>
        <time>2021-08-10 09:22:39</time>
      </trkpt>
      <trkpt lat="42.83932" lon="-0.47312">
        <ele>1530.2</ele>
        <time>2021-08-10 09:22:40</time>
      </trkpt>
      <trkpt lat="42.83932" lon="-0.47313">
        <ele>1530</ele>
        <time>2021-08-10 09:22:41</time>
      </trkpt>
      <trkpt lat="42.83933" lon="-0.47313">
        <ele>1529.8</ele>
        <time>2021-08-10 09:22:42</time>
      </trkpt>
      <trkpt lat="42.83934" lon="-0.47313">
        <ele>1529.8</ele>
        <time>2021-08-10 09:22:43</time>
      </trkpt>
      <trkpt lat="42.83934" lon="-0.47314">
        <ele>1529.8</ele>
        <time>2021-08-10 09:22:44</time>
      </trkpt>
      <trkpt lat="42.83934" lon="-0.47314">
        <ele>1529.8</ele>
        <time>2021-08-10 09:22:45</time>
      </trkpt>
      <trkpt lat="42.83933" lon="-0.47314">
        <ele>1529.8</ele>
        <time>2021-08-10 09:22:46</time>
      </trkpt>
      <trkpt lat="42.83932" lon="-0.47312">
        <ele>1529.8</ele>
        <time>2021-08-10 09:22:47</time>
      </trkpt>
      <trkpt lat="42.83932" lon="-0.47312">
        <ele>1529.8</ele>
        <time>2021-08-10 09:22:48</time>
      </trkpt>
      <trkpt lat="42.83932" lon="-0.47312">
        <ele>1529.8</ele>
        <time>2021-08-10 09:22:49</time>
      </trkpt>
      <trkpt lat="42.83932" lon="-0.47313">
        <ele>1529.6</ele>
        <time>2021-08-10 09:22:50</time>
      </trkpt>
      <trkpt lat="42.83932" lon="-0.47313">
        <ele>1529.6</ele>
        <time>2021-08-10 09:22:51</time>
      </trkpt>
      <trkpt lat="42.83932" lon="-0.47313">
        <ele>1529.4</ele>
        <time>2021-08-10 09:22:52</time>
      </trkpt>
      <trkpt lat="42.83933" lon="-0.47313">
        <ele>1529.4</ele>
        <time>2021-08-10 09:22:53</time>
      </trkpt>
      <trkpt lat="42.83933" lon="-0.47313">
        <ele>1529.4</ele>
        <time>2021-08-10 09:22:54</time>
      </trkpt>
      <trkpt lat="42.83933" lon="-0.47313">
        <ele>1529.4</ele>
        <time>2021-08-10 09:22:55</time>
      </trkpt>
      <trkpt lat="42.83933" lon="-0.47313">
        <ele>1529.4</ele>
        <time>2021-08-10 09:22:56</time>
      </trkpt>
      <trkpt lat="42.83933" lon="-0.47313">
        <ele>1529.4</ele>
        <time>2021-08-10 09:22:57</time>
      </trkpt>
      <trkpt lat="42.83932" lon="-0.47313">
        <ele>1529.8</ele>
        <time>2021-08-10 09:22:58</time>
      </trkpt>
      <trkpt lat="42.83933" lon="-0.47312">
        <ele>1530.4</ele>
      </trkpt>
      <trkpt lat="42.83932" lon="-0.47312">
        <ele>1530.8</ele>
        <time>2021-08-10 09:22:59</time>
      </trkpt>
      <trkpt lat="42.83932" lon="-0.4731">
        <ele>1530.6</ele>
        <time>2021-08-10 09:23:00</time>
      </trkpt>
      <trkpt lat="42.83933" lon="-0.47309">
        <ele>1530.8</ele>
        <time>2021-08-10 09:23:01</time>
      </trkpt>
      <trkpt lat="42.83931" lon="-0.4731">
        <ele>1530.8</ele>
        <time>2021-08-10 09:23:02</time>
      </trkpt>
      <trkpt lat="42.8393" lon="-0.47309">
        <ele>1530.8</ele>
        <time>2021-08-10 09:27:39</time>
      </trkpt>
      <trkpt lat="42.8393" lon="-0.47309">
        <ele>1530.8</ele>
        <time>2021-08-10 09:27:40</time>
      </trkpt>
      <trkpt lat="42.83931" lon="-0.47309">
        <ele>1530.8</ele>
        <time>2021-08-10 09:27:41</time>
      </trkpt>
      <trkpt lat="42.8393" lon="-0.47309">
        <ele>1530.8</ele>
        <time>2021-08-10 09:27:42</time>
      </trkpt>
      <trkpt lat="42.8393" lon="-0.47308">
        <ele>1530.8</ele>
        <time>2021-08-10 09:27:43</time>
      </trkpt>
      <trkpt lat="42.8393" lon="-0.47308">
        <ele>1530.8</ele>
        <time>2021-08-10 09:27:44</time>
      </trkpt>
      <trkpt lat="42.8393" lon="-0.47308">
        <ele>1530.8</ele>
        <time>2021-08-10 09:27:45</time>
      </trkpt>
      <trkpt lat="42.8393" lon="-0.47308">
        <ele>1530.8</ele>
        <time>2021-08-10 09:27:46</time>
      </trkpt>
      <trkpt lat="42.8393" lon="-0.47308">
        <ele>1531</ele>
        <time>2021-08-10 09:27:47</time>
      </trkpt>
      <trkpt lat="42.8393" lon="-0.47307">
        <ele>1530.2</ele>
        <time>2021-08-10 09:27:48</time>
      </trkpt>
      <trkpt lat="42.8393" lon="-0.47306">
        <ele>1530.6</ele>
        <time>2021-08-10 09:27:49</time>
      </trkpt>
      <trkpt lat="42.8393" lon="-0.47306">
        <ele>1530.6</ele>
        <time>2021-08-10 09:27:50</time>
      </trkpt>
      <trkpt lat="42.83931" lon="-0.47305">
        <ele>1530.6</ele>
        <time>2021-08-10 09:27:51</time>
      </trkpt>
      <trkpt lat="42.83931" lon="-0.47305">
        <ele>1530.4</ele>
        <time>2021-08-10 09:27:52</time>
      </trkpt>
      <trkpt lat="42.83931" lon="-0.47305">
        <ele>1531</ele>
        <time>2021-08-10 09:27:53</time>
      </trkpt>
      <trkpt lat="42.83932" lon="-0.47304">
        <ele>1531</ele>
        <time>2021-08-10 09:27:54</time>
      </trkpt>
      <trkpt lat="42.83933" lon="-0.47304">
        <ele>1531</ele>
        <time>2021-08-10 09:28:04</time>
      </trkpt>
      <trkpt lat="42.83933" lon="-0.47304">
        <ele>1530.8</ele>
        <time>2021-08-10 09:28:06</time>
      </trkpt>
      <trkpt lat="42.83934" lon="-0.47303">
        <ele>1530.8</ele>
        <time>2021-08-10 09:28:07</time>
      </trkpt>
      <trkpt lat="42.83934" lon="-0.47303">
        <ele>1531</ele>
        <time>2021-08-10 09:28:08</time>
      </trkpt>
      <trkpt lat="42.83935" lon="-0.47303">
        <ele>1531</ele>
        <time>2021-08-10 09:28:09</time>
      </trkpt>
      <trkpt lat="42.83936" lon="-0.47302">
        <ele>1531</ele>
        <time>2021-08-10 09:28:10</time>
      </trkpt>
      <trkpt lat="42.83936" lon="-0.47303">
        <ele>1530.8</ele>
        <time>2021-08-10 09:28:11</time>
      </trkpt>
      <trkpt lat="42.83937" lon="-0.47302">
        <ele>1530.6</ele>
        <time>2021-08-10 09:33:09</time>
      </trkpt>
      <trkpt lat="42.83937" lon="-0.47302">
        <ele>1530.6</ele>
        <time>2021-08-10 09:33:10</time>
      </trkpt>
      <trkpt lat="42.83938" lon="-0.47302">
        <ele>1530.6</ele>
        <time>2021-08-10 09:33:11</time>
      </trkpt>
      <trkpt lat="42.83939" lon="-0.47302">
        <ele>1530.6</ele>
        <time>2021-08-10 09:33:12</time>
      </trkpt>
      <trkpt lat="42.8394" lon="-0.47302">
        <ele>1530.8</ele>
        <time>2021-08-10 09:33:13</time>
      </trkpt>
      <trkpt lat="42.8394" lon="-0.47301">
        <ele>1530.8</ele>
        <time>2021-08-10 09:35:14</time>
      </trkpt>
      <trkpt lat="42.8394" lon="-0.473">
        <ele>1530.6</ele>
        <time>2021-08-10 09:35:15</time>
      </trkpt>
      <trkpt lat="42.83941" lon="-0.473">
        <ele>1530.6</ele>
        <time>2021-08-10 09:35:16</time>
      </trkpt>
      <trkpt lat="42.83941" lon="-0.47299">
        <ele>1530.8</ele>
        <time>2021-08-10 09:35:17</time>
      </trkpt>
      <trkpt lat="42.83941" lon="-0.47298">
        <ele>1530.6</ele>
        <time>2021-08-10 09:35:18</time>
      </trkpt>
      <trkpt lat="42.83942" lon="-0.47298">
        <ele>1530.6</ele>
        <time>2021-08-10 09:35:19</time>
      </trkpt>
      <trkpt lat="42.83942" lon="-0.47298">
        <ele>1530.6</ele>
        <time>2021-08-10 09:35:39</time>
      </trkpt>
      <trkpt lat="42.83942" lon="-0.47297">
        <ele>1530.4</ele>
        <time>2021-08-10 09:35:40</time>
      </trkpt>
      <trkpt lat="42.83942" lon="-0.47296">
        <ele>1530.4</ele>
        <time>2021-08-10 09:35:41</time>
      </trkpt>
      <trkpt lat="42.83942" lon="-0.47295">
        <ele>1530.6</ele>
        <time>2021-08-10 09:35:42</time>
      </trkpt>
      <trkpt lat="42.83943" lon="-0.47295">
        <ele>1530.6</ele>
        <time>2021-08-10 09:35:43</time>
      </trkpt>
      <trkpt lat="42.83944" lon="-0.47294">
        <ele>1530.4</ele>
        <time>2021-08-10 09:35:44</time>
      </trkpt>
      <trkpt lat="42.83945" lon="-0.47292">
        <ele>1530</ele>
        <time>2021-08-10 09:35:47</time>
      </trkpt>
      <trkpt lat="42.83946" lon="-0.47292">
        <ele>1529.8</ele>
        <time>2021-08-10 09:35:48</time>
      </trkpt>
      <trkpt lat="42.83946" lon="-0.47292">
        <ele>1529.8</ele>
        <time>2021-08-10 09:35:49</time>
      </trkpt>
      <trkpt lat="42.83947" lon="-0.47292">
        <ele>1530.2</ele>
        <time>2021-08-10 09:35:50</time>
      </trkpt>
      <trkpt lat="42.83948" lon="-0.47293">
        <ele>1530.4</ele>
        <time>2021-08-10 09:35:51</time>
      </trkpt>
      <trkpt lat="42.83948" lon="-0.47293">
        <ele>1530.4</ele>
        <time>2021-08-10 09:35:52</time>
      </trkpt>
      <trkpt lat="42.83948" lon="-0.47293">
        <ele>1530.4</ele>
        <time>2021-08-10 09:35:54</time>
      </trkpt>
      <trkpt lat="42.83948" lon="-0.47292">
        <ele>1530.2</ele>
        <time>2021-08-10 09:35:55</time>
      </trkpt>
      <trkpt lat="42.83949" lon="-0.4729">
        <ele>1530.2</ele>
        <time>2021-08-10 09:35:56</time>
      </trkpt>
      <trkpt lat="42.83949" lon="-0.4729">
        <ele>1530.2</ele>
        <time>2021-08-10 09:36:03</time>
      </trkpt>
      <trkpt lat="42.83949" lon="-0.4729">
        <ele>1530</ele>
        <time>2021-08-10 09:36:04</time>
      </trkpt>
      <trkpt lat="42.83949" lon="-0.4729">
        <ele>1530.2</ele>
        <time>2021-08-10 09:36:05</time>
      </trkpt>
      <trkpt lat="42.8395" lon="-0.47289">
        <ele>1530.2</ele>
        <time>2021-08-10 09:36:06</time>
      </trkpt>
      <trkpt lat="42.83951" lon="-0.47288">
        <ele>1530</ele>
        <time>2021-08-10 09:36:07</time>
      </trkpt>
      <trkpt lat="42.83952" lon="-0.47287">
        <ele>1530</ele>
        <time>2021-08-10 09:36:08</time>
      </trkpt>
      <trkpt lat="42.83953" lon="-0.47287">
        <ele>1530</ele>
        <time>2021-08-10 09:36:09</time>
      </trkpt>
      <trkpt lat="42.83954" lon="-0.47286">
        <ele>1530</ele>
        <time>2021-08-10 09:36:10</time>
      </trkpt>
      <trkpt lat="42.83954" lon="-0.47285">
        <ele>1529.8</ele>
        <time>2021-08-10 09:36:11</time>
      </trkpt>
      <trkpt lat="42.83955" lon="-0.47284">
        <ele>1529.8</ele>
        <time>2021-08-10 09:36:12</time>
      </trkpt>
      <trkpt lat="42.83956" lon="-0.47283">
        <ele>1529.8</ele>
        <time>2021-08-10 09:36:13</time>
      </trkpt>
      <trkpt lat="42.83957" lon="-0.47282">
        <ele>1529.6</ele>
        <time>2021-08-10 09:36:14</time>
      </trkpt>
      <trkpt lat="42.83958" lon="-0.47282">
        <ele>1529.6</ele>
        <time>2021-08-10 09:36:15</time>
      </trkpt>
      <trkpt lat="42.83959" lon="-0.47281">
        <ele>1529.6</ele>
        <time>2021-08-10 09:36:16</time>
      </trkpt>
      <trkpt lat="42.8396" lon="-0.4728">
        <ele>1529.8</ele>
        <time>2021-08-10 09:36:17</time>
      </trkpt>
      <trkpt lat="42.8396" lon="-0.47279">
        <ele>1529.6</ele>
        <time>2021-08-10 09:36:18</time>
      </trkpt>
      <trkpt lat="42.83961" lon="-0.47278">
        <ele>1529.6</ele>
        <time>2021-08-10 09:36:19</time>
      </trkpt>
      <trkpt lat="42.83962" lon="-0.47277">
        <ele>1529.4</ele>
        <time>2021-08-10 09:36:20</time>
      </trkpt>
      <trkpt lat="42.83963" lon="-0.47276">
        <ele>1529.6</ele>
        <time>2021-08-10 09:36:21</time>
      </trkpt>
      <trkpt lat="42.83963" lon="-0.47276">
        <ele>1529.6</ele>
        <time>2021-08-10 09:36:22</time>
      </trkpt>
      <trkpt lat="42.83965" lon="-0.47275">
        <ele>1529.6</ele>
        <time>2021-08-10 09:36:23</time>
      </trkpt>
      <trkpt lat="42.83966" lon="-0.47274">
        <ele>1529.4</ele>
        <time>2021-08-10 09:36:24</time>
      </trkpt>
      <trkpt lat="42.83966" lon="-0.47273">
        <ele>1529.4</ele>
        <time>2021-08-10 09:36:25</time>
      </trkpt>
      <trkpt lat="42.83967" lon="-0.47272">
        <ele>1529.2</ele>
        <time>2021-08-10 09:36:26</time>
      </trkpt>
      <trkpt lat="42.83968" lon="-0.47271">
        <ele>1529.2</ele>
        <time>2021-08-10 09:36:27</time>
      </trkpt>
      <trkpt lat="42.83968" lon="-0.4727">
        <ele>1528.8</ele>
        <time>2021-08-10 09:36:28</time>
      </trkpt>
      <trkpt lat="42.83969" lon="-0.47269">
        <ele>1529</ele>
        <time>2021-08-10 09:36:29</time>
      </trkpt>
      <trkpt lat="42.8397" lon="-0.47268">
        <ele>1529</ele>
        <time>2021-08-10 09:36:30</time>
      </trkpt>
      <trkpt lat="42.8397" lon="-0.47266">
        <ele>1529</ele>
        <time>2021-08-10 09:36:31</time>
      </trkpt>
      <trkpt lat="42.83971" lon="-0.47265">
        <ele>1529</ele>
        <time>2021-08-10 09:36:32</time>
      </trkpt>
      <trkpt lat="42.83971" lon="-0.47263">
        <ele>1529</ele>
        <time>2021-08-10 09:36:33</time>
      </trkpt>
      <trkpt lat="42.83972" lon="-0.47262">
        <ele>1528.8</ele>
        <time>2021-08-10 09:36:34</time>
      </trkpt>
      <trkpt lat="42.83972" lon="-0.4726">
        <ele>1528.8</ele>
        <time>2021-08-10 09:36:35</time>
      </trkpt>
      <trkpt lat="42.83972" lon="-0.47259">
        <ele>1528.8</ele>
        <time>2021-08-10 09:36:36</time>
      </trkpt>
      <trkpt lat="42.83973" lon="-0.47258">
        <ele>1528.8</ele>
        <time>2021-08-10 09:36:37</time>
      </trkpt>
      <trkpt lat="42.83973" lon="-0.47257">
        <ele>1528.8</ele>
        <time>2021-08-10 09:36:38</time>
      </trkpt>
      <trkpt lat="42.83974" lon="-0.47255">
        <ele>1528.8</ele>
        <time>2021-08-10 09:36:39</time>
      </trkpt>
      <trkpt lat="42.83975" lon="-0.47254">
        <ele>1528.8</ele>
        <time>2021-08-10 09:36:40</time>
      </trkpt>
      <trkpt lat="42.83975" lon="-0.47252">
        <ele>1528.8</ele>
        <time>2021-08-10 09:36:41</time>
      </trkpt>
      <trkpt lat="42.83975" lon="-0.47251">
        <ele>1528.6</ele>
        <time>2021-08-10 09:36:54</time>
      </trkpt>
      <trkpt lat="42.83976" lon="-0.4725">
        <ele>1528.8</ele>
        <time>2021-08-10 09:36:55</time>
      </trkpt>
      <trkpt lat="42.83977" lon="-0.47249">
        <ele>1528.6</ele>
        <time>2021-08-10 09:36:56</time>
      </trkpt>
      <trkpt lat="42.83977" lon="-0.47248">
        <ele>1528.8</ele>
        <time>2021-08-10 09:36:57</time>
      </trkpt>
      <trkpt lat="42.83978" lon="-0.47246">
        <ele>1528.6</ele>
        <time>2021-08-10 09:36:58</time>
      </trkpt>
      <trkpt lat="42.83979" lon="-0.47245">
        <ele>1528.6</ele>
        <time>2021-08-10 09:36:59</time>
      </trkpt>
      <trkpt lat="42.8398" lon="-0.47244">
        <ele>1528.8</ele>
        <time>2021-08-10 09:37:00</time>
      </trkpt>
      <trkpt lat="42.8398" lon="-0.47243">
        <ele>1528.6</ele>
        <time>2021-08-10 09:37:01</time>
      </trkpt>
      <trkpt lat="42.83981" lon="-0.47242">
        <ele>1528.6</ele>
        <time>2021-08-10 09:37:02</time>
      </trkpt>
      <trkpt lat="42.83982" lon="-0.4724">
        <ele>1528.6</ele>
        <time>2021-08-10 09:37:03</time>
      </trkpt>
      <trkpt lat="42.83981" lon="-0.4724">
        <ele>1528.6</ele>
        <time>2021-08-10 09:37:04</time>
      </trkpt>
      <trkpt lat="42.83982" lon="-0.47239">
        <ele>1528.6</ele>
        <time>2021-08-10 09:37:05</time>
      </trkpt>
      <trkpt lat="42.83982" lon="-0.47238">
        <ele>1528.6</ele>
        <time>2021-08-10 09:37:06</time>
      </trkpt>
      <trkpt lat="42.83982" lon="-0.47236">
        <ele>1528.6</ele>
        <time>2021-08-10 09:37:07</time>
      </trkpt>
      <trkpt lat="42.83983" lon="-0.47235">
        <ele>1528.6</ele>
        <time>2021-08-10 09:37:08</time>
      </trkpt>
      <trkpt lat="42.83983" lon="-0.47234">
        <ele>1528.4</ele>
        <time>2021-08-10 09:37:09</time>
      </trkpt>
      <trkpt lat="42.83983" lon="-0.47233">
        <ele>1528.2</ele>
        <time>2021-08-10 09:37:10</time>
      </trkpt>
      <trkpt lat="42.83984" lon="-0.47232">
        <ele>1528.2</ele>
        <time>2021-08-10 09:37:11</time>
      </trkpt>
      <trkpt lat="42.83984" lon="-0.4723">
        <ele>1528.4</ele>
        <time>2021-08-10 09:37:12</time>
      </trkpt>
      <trkpt lat="42.83984" lon="-0.47229">
        <ele>1528.4</ele>
        <time>2021-08-10 09:37:13</time>
      </trkpt>
      <trkpt lat="42.83984" lon="-0.47229">
        <ele>1528.4</ele>
        <time>2021-08-10 09:37:14</time>
      </trkpt>
      <trkpt lat="42.83983" lon="-0.47228">
        <ele>1528.4</ele>
        <time>2021-08-10 09:37:15</time>
      </trkpt>
      <trkpt lat="42.83983" lon="-0.47228">
        <ele>1528.4</ele>
        <time>2021-08-10 09:37:16</time>
      </trkpt>
      <trkpt lat="42.83984" lon="-0.47227">
        <ele>1528.6</ele>
        <time>2021-08-10 09:37:17</time>
      </trkpt>
      <trkpt lat="42.83985" lon="-0.47226">
        <ele>1528.4</ele>
        <time>2021-08-10 09:37:18</time>
      </trkpt>
      <trkpt lat="42.83985" lon="-0.47226">
        <ele>1528.4</ele>
        <time>2021-08-10 09:37:19</time>
      </trkpt>
      <trkpt lat="42.83985" lon="-0.47226">
        <ele>1528.4</ele>
        <time>2021-08-10 09:37:20</time>
      </trkpt>
      <trkpt lat="42.83986" lon="-0.47225">
        <ele>1528.4</ele>
        <time>2021-08-10 09:37:21</time>
      </trkpt>
      <trkpt lat="42.83986" lon="-0.47225">
        <ele>1528.4</ele>
        <time>2021-08-10 09:37:22</time>
      </trkpt>
      <trkpt lat="42.83987" lon="-0.47225">
        <ele>1528.2</ele>
        <time>2021-08-10 09:37:23</time>
      </trkpt>
      <trkpt lat="42.83988" lon="-0.47224">
        <ele>1528</ele>
        <time>2021-08-10 09:37:24</time>
      </trkpt>
      <trkpt lat="42.83988" lon="-0.47224">
        <ele>1528</ele>
        <time>2021-08-10 09:37:25</time>
      </trkpt>
      <trkpt lat="42.83989" lon="-0.47223">
        <ele>1527.8</ele>
        <time>2021-08-10 09:37:26</time>
      </trkpt>
      <trkpt lat="42.83989" lon="-0.47222">
        <ele>1528</ele>
        <time>2021-08-10 09:37:27</time>
      </trkpt>
      <trkpt lat="42.8399" lon="-0.47221">
        <ele>1528</ele>
        <time>2021-08-10 09:37:28</time>
      </trkpt>
      <trkpt lat="42.83991" lon="-0.4722">
        <ele>1528.2</ele>
        <time>2021-08-10 09:37:29</time>
      </trkpt>
      <trkpt lat="42.83991" lon="-0.47219">
        <ele>1528</ele>
        <time>2021-08-10 09:37:30</time>
      </trkpt>
      <trkpt lat="42.83991" lon="-0.47218">
        <ele>1528</ele>
        <time>2021-08-10 09:37:31</time>
      </trkpt>
      <trkpt lat="42.83992" lon="-0.47216">
        <ele>1528</ele>
        <time>2021-08-10 09:37:32</time>
      </trkpt>
      <trkpt lat="42.83992" lon="-0.47215">
        <ele>1528</ele>
        <time>2021-08-10 09:37:33</time>
      </trkpt>
      <trkpt lat="42.83993" lon="-0.47215">
        <ele>1527.8</ele>
        <time>2021-08-10 09:37:34</time>
      </trkpt>
      <trkpt lat="42.83993" lon="-0.47213">
        <ele>1527.8</ele>
        <time>2021-08-10 09:37:35</time>
      </trkpt>
      <trkpt lat="42.83994" lon="-0.47211">
        <ele>1527.8</ele>
        <time>2021-08-10 09:37:36</time>
      </trkpt>
      <trkpt lat="42.83994" lon="-0.4721">
        <ele>1527.6</ele>
        <time>2021-08-10 09:37:37</time>
      </trkpt>
      <trkpt lat="42.83995" lon="-0.47209">
        <ele>1527.6</ele>
        <time>2021-08-10 09:37:38</time>
      </trkpt>
      <trkpt lat="42.83996" lon="-0.47207">
        <ele>1527.6</ele>
        <time>2021-08-10 09:37:39</time>
      </trkpt>
      <trkpt lat="42.83996" lon="-0.47206">
        <ele>1527.6</ele>
        <time>2021-08-10 09:37:40</time>
      </trkpt>
      <trkpt lat="42.83997" lon="-0.47205">
        <ele>1527.8</ele>
        <time>2021-08-10 09:37:41</time>
      </trkpt>
      <trkpt lat="42.83996" lon="-0.47204">
        <ele>1527.8</ele>
        <time>2021-08-10 09:37:42</time>
      </trkpt>
      <trkpt lat="42.83997" lon="-0.47203">
        <ele>1527.8</ele>
        <time>2021-08-10 09:37:43</time>
      </trkpt>
      <trkpt lat="42.83998" lon="-0.47201">
        <ele>1528</ele>
        <time>2021-08-10 09:37:44</time>
      </trkpt>
      <trkpt lat="42.83998" lon="-0.472">
        <ele>1528</ele>
        <time>2021-08-10 09:37:45</time>
      </trkpt>
      <trkpt lat="42.83999" lon="-0.472">
        <ele>1527.8</ele>
        <time>2021-08-10 09:37:46</time>
      </trkpt>
      <trkpt lat="42.84" lon="-0.47198">
        <ele>1527.8</ele>
        <time>2021-08-10 09:37:47</time>
      </trkpt>
      <trkpt lat="42.84" lon="-0.47197">
        <ele>1528</ele>
        <time>2021-08-10 09:37:48</time>
      </trkpt>
      <trkpt lat="42.84" lon="-0.47196">
        <ele>1528</ele>
        <time>2021-08-10 09:37:49</time>
      </trkpt>
      <trkpt lat="42.84" lon="-0.47195">
        <ele>1528.2</ele>
        <time>2021-08-10 09:37:50</time>
      </trkpt>
      <trkpt lat="42.84" lon="-0.47194">
        <ele>1528.2</ele>
        <time>2021-08-10 09:37:51</time>
      </trkpt>
      <trkpt lat="42.84" lon="-0.47193">
        <ele>1528.2</ele>
        <time>2021-08-10 09:37:52</time>
      </trkpt>
      <trkpt lat="42.84" lon="-0.47192">
        <ele>1528.2</ele>
        <time>2021-08-10 09:37:53</time>
      </trkpt>
      <trkpt lat="42.84" lon="-0.47191">
        <ele>1528.4</ele>
        <time>2021-08-10 09:37:54</time>
      </trkpt>
      <trkpt lat="42.84001" lon="-0.4719">
        <ele>1528.4</ele>
        <time>2021-08-10 09:37:55</time>
      </trkpt>
      <trkpt lat="42.84001" lon="-0.47189">
        <ele>1528.2</ele>
        <time>2021-08-10 09:37:56</time>
      </trkpt>
      <trkpt lat="42.84001" lon="-0.47188">
        <ele>1528.2</ele>
        <time>2021-08-10 09:37:57</time>
      </trkpt>
      <trkpt lat="42.84001" lon="-0.47187">
        <ele>1528.2</ele>
        <time>2021-08-10 09:37:58</time>
      </trkpt>
      <trkpt lat="42.84001" lon="-0.47186">
        <ele>1528</ele>
        <time>2021-08-10 09:37:59</time>
      </trkpt>
      <trkpt lat="42.84002" lon="-0.47186">
        <ele>1528</ele>
        <time>2021-08-10 09:38:00</time>
      </trkpt>
      <trkpt lat="42.84002" lon="-0.47185">
        <ele>1528</ele>
        <time>2021-08-10 09:38:01</time>
      </trkpt>
      <trkpt lat="42.84002" lon="-0.47184">
        <ele>1528</ele>
        <time>2021-08-10 09:38:02</time>
      </trkpt>
      <trkpt lat="42.84002" lon="-0.47183">
        <ele>1528</ele>
        <time>2021-08-10 09:38:03</time>
      </trkpt>
      <trkpt lat="42.84002" lon="-0.47183">
        <ele>1528.2</ele>
        <time>2021-08-10 09:38:04</time>
      </trkpt>
      <trkpt lat="42.84002" lon="-0.47182">
        <ele>1528</ele>
        <time>2021-08-10 09:38:05</time>
      </trkpt>
      <trkpt lat="42.84002" lon="-0.47181">
        <ele>1528.2</ele>
        <time>2021-08-10 09:38:06</time>
      </trkpt>
      <trkpt lat="42.84001" lon="-0.47181">
        <ele>1528.2</ele>
        <time>2021-08-10 09:38:07</time>
      </trkpt>
      <trkpt lat="42.84001" lon="-0.4718">
        <ele>1528.4</ele>
        <time>2021-08-10 09:38:08</time>
      </trkpt>
      <trkpt lat="42.84001" lon="-0.47179">
        <ele>1528.6</ele>
        <time>2021-08-10 09:38:09</time>
      </trkpt>
      <trkpt lat="42.84001" lon="-0.47178">
        <ele>1528.8</ele>
        <time>2021-08-10 09:38:10</time>
      </trkpt>
      <trkpt lat="42.84001" lon="-0.47178">
        <ele>1528.8</ele>
        <time>2021-08-10 09:38:11</time>
      </trkpt>
      <trkpt lat="42.84" lon="-0.47177">
        <ele>1528.8</ele>
        <time>2021-08-10 09:38:12</time>
      </trkpt>
      <trkpt lat="42.84" lon="-0.47177">
        <ele>1528.8</ele>
        <time>2021-08-10 09:38:13</time>
      </trkpt>
      <trkpt lat="42.84001" lon="-0.47176">
        <ele>1528.8</ele>
        <time>2021-08-10 09:38:14</time>
      </trkpt>
      <trkpt lat="42.84001" lon="-0.47174">
        <ele>1528.4</ele>
        <time>2021-08-10 09:38:15</time>
      </trkpt>
      <trkpt lat="42.84001" lon="-0.47173">
        <ele>1528.2</ele>
        <time>2021-08-10 09:38:16</time>
      </trkpt>
      <trkpt lat="42.84002" lon="-0.47172">
        <ele>1528.2</ele>
        <time>2021-08-10 09:38:17</time>
      </trkpt>
      <trkpt lat="42.84002" lon="-0.47171">
        <ele>1528</ele>
        <time>2021-08-10 09:38:18</time>
      </trkpt>
      <trkpt lat="42.84003" lon="-0.47168">
        <ele>1528</ele>
        <time>2021-08-10 09:38:19</time>
      </trkpt>
      <trkpt lat="42.84003" lon="-0.47167">
        <ele>1528</ele>
        <time>2021-08-10 09:38:20</time>
      </trkpt>
      <trkpt lat="42.84003" lon="-0.47166">
        <ele>1528.2</ele>
        <time>2021-08-10 09:38:21</time>
      </trkpt>
      <trkpt lat="42.84004" lon="-0.47165">
        <ele>1528.2</ele>
        <time>2021-08-10 09:38:22</time>
      </trkpt>
      <trkpt lat="42.84004" lon="-0.47164">
        <ele>1528</ele>
        <time>2021-08-10 09:38:23</time>
      </trkpt>
      <trkpt lat="42.84005" lon="-0.47163">
        <ele>1528.2</ele>
        <time>2021-08-10 09:38:24</time>
      </trkpt>
      <trkpt lat="42.84006" lon="-0.47162">
        <ele>1528</ele>
        <time>2021-08-10 09:38:25</time>
      </trkpt>
      <trkpt lat="42.84007" lon="-0.47161">
        <ele>1528.2</ele>
        <time>2021-08-10 09:38:26</time>
      </trkpt>
      <trkpt lat="42.84006" lon="-0.47161">
        <ele>1528.2</ele>
        <time>2021-08-10 09:38:27</time>
      </trkpt>
      <trkpt lat="42.84007" lon="-0.4716">
        <ele>1528.2</ele>
        <time>2021-08-10 09:38:28</time>
      </trkpt>
      <trkpt lat="42.84007" lon="-0.47159">
        <ele>1528</ele>
        <time>2021-08-10 09:38:29</time>
      </trkpt>
      <trkpt lat="42.84007" lon="-0.47159">
        <ele>1527.8</ele>
        <time>2021-08-10 09:38:30</time>
      </trkpt>
      <trkpt lat="42.84008" lon="-0.47158">
        <ele>1527.8</ele>
        <time>2021-08-10 09:38:31</time>
      </trkpt>
      <trkpt lat="42.84008" lon="-0.47157">
        <ele>1527.8</ele>
        <time>2021-08-10 09:38:32</time>
      </trkpt>
      <trkpt lat="42.84008" lon="-0.47156">
        <ele>1527.6</ele>
        <time>2021-08-10 09:38:33</time>
      </trkpt>
      <trkpt lat="42.84009" lon="-0.47155">
        <ele>1527.4</ele>
        <time>2021-08-10 09:38:34</time>
      </trkpt>
      <trkpt lat="42.84009" lon="-0.47154">
        <ele>1527.2</ele>
        <time>2021-08-10 09:38:35</time>
      </trkpt>
      <trkpt lat="42.8401" lon="-0.47154">
        <ele>1527.2</ele>
        <time>2021-08-10 09:38:36</time>
      </trkpt>
      <trkpt lat="42.8401" lon="-0.47153">
        <ele>1527</ele>
        <time>2021-08-10 09:38:37</time>
      </trkpt>
      <trkpt lat="42.84011" lon="-0.47152">
        <ele>1527</ele>
        <time>2021-08-10 09:38:38</time>
      </trkpt>
      <trkpt lat="42.84011" lon="-0.47151">
        <ele>1527</ele>
        <time>2021-08-10 09:38:39</time>
      </trkpt>
      <trkpt lat="42.84011" lon="-0.4715">
        <ele>1526.8</ele>
        <time>2021-08-10 09:38:40</time>
      </trkpt>
      <trkpt lat="42.84012" lon="-0.4715">
        <ele>1527</ele>
        <time>2021-08-10 09:38:41</time>
      </trkpt>
      <trkpt lat="42.84012" lon="-0.47149">
        <ele>1527</ele>
        <time>2021-08-10 09:38:42</time>
      </trkpt>
      <trkpt lat="42.84012" lon="-0.47148">
        <ele>1527</ele>
        <time>2021-08-10 09:38:43</time>
      </trkpt>
      <trkpt lat="42.84012" lon="-0.47147">
        <ele>1527</ele>
        <time>2021-08-10 09:38:44</time>
      </trkpt>
      <trkpt lat="42.84012" lon="-0.47146">
        <ele>1527</ele>
        <time>2021-08-10 09:38:45</time>
      </trkpt>
      <trkpt lat="42.84012" lon="-0.47146">
        <ele>1527</ele>
        <time>2021-08-10 09:38:46</time>
      </trkpt>
      <trkpt lat="42.84013" lon="-0.47146">
        <ele>1527</ele>
        <time>2021-08-10 09:38:47</time>
      </trkpt>
      <trkpt lat="42.84014" lon="-0.47145">
        <ele>1526.8</ele>
        <time>2021-08-10 09:38:48</time>
      </trkpt>
      <trkpt lat="42.84014" lon="-0.47144">
        <ele>1526.8</ele>
        <time>2021-08-10 09:38:49</time>
      </trkpt>
      <trkpt lat="42.84014" lon="-0.47143">
        <ele>1527</ele>
        <time>2021-08-10 09:38:50</time>
      </trkpt>
      <trkpt lat="42.84015" lon="-0.47141">
        <ele>1527</ele>
        <time>2021-08-10 09:38:51</time>
      </trkpt>
      <trkpt lat="42.84014" lon="-0.4714">
        <ele>1527</ele>
        <time>2021-08-10 09:38:52</time>
      </trkpt>
      <trkpt lat="42.84015" lon="-0.47138">
        <ele>1526.8</ele>
        <time>2021-08-10 09:38:53</time>
      </trkpt>
      <trkpt lat="42.84015" lon="-0.47138">
        <ele>1526.8</ele>
        <time>2021-08-10 09:38:54</time>
      </trkpt>
      <trkpt lat="42.84016" lon="-0.47137">
        <ele>1526.8</ele>
        <time>2021-08-10 09:38:58</time>
      </trkpt>
      <trkpt lat="42.84017" lon="-0.47136">
        <ele>1526.6</ele>
        <time>2021-08-10 09:38:59</time>
      </trkpt>
      <trkpt lat="42.84017" lon="-0.47135">
        <ele>1526.4</ele>
      </trkpt>
      <trkpt lat="42.84018" lon="-0.47134">
        <ele>1526.4</ele>
        <time>2021-08-10 09:39:01</time>
      </trkpt>
      <trkpt lat="42.84018" lon="-0.47132">
        <ele>1526.4</ele>
        <time>2021-08-10 09:39:02</time>
      </trkpt>
      <trkpt lat="42.84018" lon="-0.47131">
        <ele>1526.2</ele>
        <time>2021-08-10 09:39:03</time>
      </trkpt>
      <trkpt lat="42.84019" lon="-0.4713">
        <ele>1526.2</ele>
      </trkpt>
      <trkpt lat="42.84019" lon="-0.4713">
        <ele>1526.2</ele>
        <time>2021-08-10 09:39:04</time>
      </trkpt>
      <trkpt lat="42.84019" lon="-0.47129">
        <ele>1526</ele>
        <time>2021-08-10 09:39:05</time>
      </trkpt>
      <trkpt lat="42.84019" lon="-0.47128">
        <ele>1525.8</ele>
        <time>2021-08-10 09:39:06</time>
      </trkpt>
      <trkpt lat="42.8402" lon="-0.47125">
        <ele>1525.8</ele>
        <time>2021-08-10 09:39:07</time>
      </trkpt>
      <trkpt lat="42.8402" lon="-0.47125">
        <ele>1525.6</ele>
        <time>2021-08-10 09:39:08</time>
      </trkpt>
      <trkpt lat="42.8402" lon="-0.47124">
        <ele>1526</ele>
        <time>2021-08-10 09:39:09</time>
      </trkpt>
      <trkpt lat="42.8402" lon="-0.47123">
        <ele>1526</ele>
        <time>2021-08-10 09:39:10</time>
      </trkpt>
      <trkpt lat="42.84021" lon="-0.47121">
        <ele>1526.2</ele>
        <time>2021-08-10 09:39:11</time>
      </trkpt>
      <trkpt lat="42.84022" lon="-0.47119">
        <ele>1526.2</ele>
        <time>2021-08-10 09:39:12</time>
      </trkpt>
      <trkpt lat="42.84022" lon="-0.47118">
        <ele>1526.4</ele>
        <time>2021-08-10 09:39:13</time>
      </trkpt>
      <trkpt lat="42.84022" lon="-0.47117">
        <ele>1526.4</ele>
        <time>2021-08-10 09:39:14</time>
      </trkpt>
      <trkpt lat="42.84022" lon="-0.47117">
        <ele>1526.6</ele>
        <time>2021-08-10 09:39:15</time>
      </trkpt>
      <trkpt lat="42.84022" lon="-0.47116">
        <ele>1526.4</ele>
        <time>2021-08-10 09:39:16</time>
      </trkpt>
      <trkpt lat="42.84021" lon="-0.47116">
        <ele>1526</ele>
        <time>2021-08-10 09:39:17</time>
      </trkpt>
      <trkpt lat="42.84022" lon="-0.47115">
        <ele>1526</ele>
        <time>2021-08-10 09:39:19</time>
      </trkpt>
      <trkpt lat="42.84023" lon="-0.47114">
        <ele>1525.8</ele>
      </trkpt>
      <trkpt lat="42.84024" lon="-0.47112">
        <ele>1525.6</ele>
        <time>2021-08-10 09:39:20</time>
      </trkpt>
      <trkpt lat="42.84024" lon="-0.47111">
        <ele>1525.4</ele>
        <time>2021-08-10 09:39:21</time>
      </trkpt>
      <trkpt lat="42.84024" lon="-0.4711">
        <ele>1525.6</ele>
        <time>2021-08-10 09:39:22</time>
      </trkpt>
      <trkpt lat="42.84025" lon="-0.47108">
        <ele>1525.6</ele>
        <time>2021-08-10 09:39:23</time>
      </trkpt>
      <trkpt lat="42.84025" lon="-0.47107">
        <ele>1525.6</ele>
        <time>2021-08-10 09:39:24</time>
      </trkpt>
      <trkpt lat="42.84026" lon="-0.47105">
        <ele>1525.4</ele>
        <time>2021-08-10 09:39:25</time>
      </trkpt>
      <trkpt lat="42.84027" lon="-0.47104">
        <ele>1525.2</ele>
        <time>2021-08-10 09:39:26</time>
      </trkpt>
      <trkpt lat="42.84027" lon="-0.47102">
        <ele>1525</ele>
        <time>2021-08-10 09:39:27</time>
      </trkpt>
      <trkpt lat="42.84027" lon="-0.47101">
        <ele>1525</ele>
        <time>2021-08-10 09:39:28</time>
      </trkpt>
      <trkpt lat="42.84028" lon="-0.47099">
        <ele>1525</ele>
        <time>2021-08-10 09:39:29</time>
      </trkpt>
      <trkpt lat="42.84029" lon="-0.47098">
        <ele>1525</ele>
        <time>2021-08-10 09:39:30</time>
      </trkpt>
      <trkpt lat="42.84029" lon="-0.47097">
        <ele>1524.8</ele>
        <time>2021-08-10 09:39:31</time>
      </trkpt>
      <trkpt lat="42.8403" lon="-0.47095">
        <ele>1525</ele>
        <time>2021-08-10 09:39:32</time>
      </trkpt>
      <trkpt lat="42.8403" lon="-0.47094">
        <ele>1524.8</ele>
        <time>2021-08-10 09:39:33</time>
      </trkpt>
      <trkpt lat="42.84032" lon="-0.47092">
        <ele>1524.6</ele>
        <time>2021-08-10 09:39:34</time>
      </trkpt>
      <trkpt lat="42.84032" lon="-0.47091">
        <ele>1524.8</ele>
        <time>2021-08-10 09:39:35</time>
      </trkpt>
      <trkpt lat="42.84033" lon="-0.4709">
        <ele>1525</ele>
        <time>2021-08-10 09:39:36</time>
      </trkpt>
      <trkpt lat="42.84034" lon="-0.47088">
        <ele>1524.8</ele>
        <time>2021-08-10 09:39:37</time>
      </trkpt>
      <trkpt lat="42.84034" lon="-0.47087">
        <ele>1524.8</ele>
        <time>2021-08-10 09:39:38</time>
      </trkpt>
      <trkpt lat="42.84034" lon="-0.47085">
        <ele>1524.8</ele>
        <time>2021-08-10 09:39:39</time>
      </trkpt>
      <trkpt lat="42.84035" lon="-0.47084">
        <ele>1524.6</ele>
        <time>2021-08-10 09:39:40</time>
      </trkpt>
      <trkpt lat="42.84034" lon="-0.47082">
        <ele>1524.6</ele>
        <time>2021-08-10 09:39:41</time>
      </trkpt>
      <trkpt lat="42.84035" lon="-0.47082">
        <ele>1524.6</ele>
        <time>2021-08-10 09:39:42</time>
      </trkpt>
      <trkpt lat="42.84036" lon="-0.47081">
        <ele>1524.4</ele>
        <time>2021-08-10 09:39:43</time>
      </trkpt>
      <trkpt lat="42.84037" lon="-0.47079">
        <ele>1524.2</ele>
        <time>2021-08-10 09:39:44</time>
      </trkpt>
      <trkpt lat="42.84038" lon="-0.47079">
        <ele>1524.2</ele>
        <time>2021-08-10 09:39:45</time>
      </trkpt>
      <trkpt lat="42.84039" lon="-0.47078">
        <ele>1524</ele>
        <time>2021-08-10 09:39:46</time>
      </trkpt>
      <trkpt lat="42.8404" lon="-0.47077">
        <ele>1523.8</ele>
        <time>2021-08-10 09:39:47</time>
      </trkpt>
      <trkpt lat="42.8404" lon="-0.47075">
        <ele>1523.8</ele>
        <time>2021-08-10 09:39:48</time>
      </trkpt>
      <trkpt lat="42.84041" lon="-0.47074">
        <ele>1523.8</ele>
        <time>2021-08-10 09:39:49</time>
      </trkpt>
      <trkpt lat="42.84041" lon="-0.47072">
        <ele>1524</ele>
        <time>2021-08-10 09:39:50</time>
      </trkpt>
      <trkpt lat="42.84042" lon="-0.47071">
        <ele>1524</ele>
        <time>2021-08-10 09:39:51</time>
      </trkpt>
      <trkpt lat="42.84043" lon="-0.4707">
        <ele>1524.2</ele>
        <time>2021-08-10 09:39:52</time>
      </trkpt>
      <trkpt lat="42.84044" lon="-0.47069">
        <ele>1524</ele>
        <time>2021-08-10 09:39:53</time>
      </trkpt>
      <trkpt lat="42.84044" lon="-0.47068">
        <ele>1524</ele>
        <time>2021-08-10 09:39:54</time>
      </trkpt>
      <trkpt lat="42.84045" lon="-0.47066">
        <ele>1524</ele>
        <time>2021-08-10 09:39:55</time>
      </trkpt>
      <trkpt lat="42.84045" lon="-0.47065">
        <ele>1524.2</ele>
        <time>2021-08-10 09:39:56</time>
      </trkpt>
      <trkpt lat="42.84046" lon="-0.47063">
        <ele>1524.2</ele>
        <time>2021-08-10 09:39:57</time>
      </trkpt>
      <trkpt lat="42.84046" lon="-0.47063">
        <ele>1524</ele>
        <time>2021-08-10 09:39:58</time>
      </trkpt>
      <trkpt lat="42.84047" lon="-0.47062">
        <ele>1524.2</ele>
        <time>2021-08-10 09:39:59</time>
      </trkpt>
      <trkpt lat="42.84047" lon="-0.47061">
        <ele>1524.2</ele>
        <time>2021-08-10 09:40:00</time>
      </trkpt>
      <trkpt lat="42.84048" lon="-0.47059">
        <ele>1524</ele>
        <time>2021-08-10 09:40:01</time>
      </trkpt>
      <trkpt lat="42.84048" lon="-0.47057">
        <ele>1524.2</ele>
        <time>2021-08-10 09:40:02</time>
      </trkpt>
      <trkpt lat="42.84049" lon="-0.47056">
        <ele>1524.2</ele>
        <time>2021-08-10 09:40:03</time>
      </trkpt>
      <trkpt lat="42.8405" lon="-0.47055">
        <ele>1524.2</ele>
        <time>2021-08-10 09:40:04</time>
      </trkpt>
      <trkpt lat="42.8405" lon="-0.47053">
        <ele>1524.4</ele>
        <time>2021-08-10 09:40:05</time>
      </trkpt>
      <trkpt lat="42.84051" lon="-0.4705">
        <ele>1524.4</ele>
        <time>2021-08-10 09:40:06</time>
      </trkpt>
      <trkpt lat="42.84051" lon="-0.47048">
        <ele>1524.2</ele>
        <time>2021-08-10 09:40:07</time>
      </trkpt>
      <trkpt lat="42.84052" lon="-0.47047">
        <ele>1524.2</ele>
        <time>2021-08-10 09:40:08</time>
      </trkpt>
      <trkpt lat="42.84052" lon="-0.47046">
        <ele>1524.2</ele>
        <time>2021-08-10 09:40:09</time>
      </trkpt>
      <trkpt lat="42.84052" lon="-0.47045">
        <ele>1524.2</ele>
        <time>2021-08-10 09:40:10</time>
      </trkpt>
      <trkpt lat="42.84053" lon="-0.47043">
        <ele>1524.2</ele>
        <time>2021-08-10 09:40:11</time>
      </trkpt>
      <trkpt lat="42.84053" lon="-0.47042">
        <ele>1524</ele>
        <time>2021-08-10 09:40:12</time>
      </trkpt>
      <trkpt lat="42.84054" lon="-0.47041">
        <ele>1524</ele>
        <time>2021-08-10 09:40:13</time>
      </trkpt>
      <trkpt lat="42.84054" lon="-0.4704">
        <ele>1524</ele>
        <time>2021-08-10 09:40:14</time>
      </trkpt>
      <trkpt lat="42.84055" lon="-0.47038">
        <ele>1524</ele>
        <time>2021-08-10 09:40:15</time>
      </trkpt>
      <trkpt lat="42.84056" lon="-0.47037">
        <ele>1523.8</ele>
        <time>2021-08-10 09:40:16</time>
      </trkpt>
      <trkpt lat="42.84056" lon="-0.47036">
        <ele>1523.8</ele>
        <time>2021-08-10 09:40:17</time>
      </trkpt>
      <trkpt lat="42.84057" lon="-0.47034">
        <ele>1524</ele>
        <time>2021-08-10 09:40:18</time>
      </trkpt>
      <trkpt lat="42.84058" lon="-0.47033">
        <ele>1524</ele>
        <time>2021-08-10 09:40:19</time>
      </trkpt>
      <trkpt lat="42.84059" lon="-0.47031">
        <ele>1523.8</ele>
        <time>2021-08-10 09:40:20</time>
      </trkpt>
      <trkpt lat="42.84059" lon="-0.4703">
        <ele>1523.8</ele>
        <time>2021-08-10 09:40:21</time>
      </trkpt>
      <trkpt lat="42.8406" lon="-0.47029">
        <ele>1524</ele>
        <time>2021-08-10 09:40:22</time>
      </trkpt>
      <trkpt lat="42.8406" lon="-0.47028">
        <ele>1524.2</ele>
        <time>2021-08-10 09:40:23</time>
      </trkpt>
      <trkpt lat="42.84061" lon="-0.47027">
        <ele>1524.2</ele>
        <time>2021-08-10 09:40:24</time>
      </trkpt>
      <trkpt lat="42.84061" lon="-0.47026">
        <ele>1524.4</ele>
        <time>2021-08-10 09:40:25</time>
      </trkpt>
      <trkpt lat="42.84061" lon="-0.47024">
        <ele>1524.6</ele>
        <time>2021-08-10 09:40:26</time>
      </trkpt>
      <trkpt lat="42.84062" lon="-0.47023">
        <ele>1524.6</ele>
        <time>2021-08-10 09:40:27</time>
      </trkpt>
      <trkpt lat="42.84063" lon="-0.47022">
        <ele>1524.8</ele>
        <time>2021-08-10 09:40:28</time>
      </trkpt>
      <trkpt lat="42.84063" lon="-0.47021">
        <ele>1524.8</ele>
        <time>2021-08-10 09:40:29</time>
      </trkpt>
      <trkpt lat="42.84063" lon="-0.47019">
        <ele>1525</ele>
        <time>2021-08-10 09:40:30</time>
      </trkpt>
      <trkpt lat="42.84064" lon="-0.47018">
        <ele>1525</ele>
        <time>2021-08-10 09:40:31</time>
      </trkpt>
      <trkpt lat="42.84065" lon="-0.47017">
        <ele>1525.2</ele>
        <time>2021-08-10 09:40:32</time>
      </trkpt>
      <trkpt lat="42.84065" lon="-0.47016">
        <ele>1525.2</ele>
        <time>2021-08-10 09:40:33</time>
      </trkpt>
      <trkpt lat="42.84066" lon="-0.47015">
        <ele>1525.4</ele>
        <time>2021-08-10 09:40:34</time>
      </trkpt>
      <trkpt lat="42.84066" lon="-0.47014">
        <ele>1525.2</ele>
        <time>2021-08-10 09:40:35</time>
      </trkpt>
      <trkpt lat="42.84067" lon="-0.47013">
        <ele>1525.4</ele>
        <time>2021-08-10 09:40:36</time>
      </trkpt>
      <trkpt lat="42.84067" lon="-0.47011">
        <ele>1525.4</ele>
        <time>2021-08-10 09:40:37</time>
      </trkpt>
      <trkpt lat="42.84068" lon="-0.4701">
        <ele>1525.8</ele>
        <time>2021-08-10 09:40:38</time>
      </trkpt>
      <trkpt lat="42.84068" lon="-0.47009">
        <ele>1526</ele>
        <time>2021-08-10 09:40:39</time>
      </trkpt>
      <trkpt lat="42.84069" lon="-0.47008">
        <ele>1526.2</ele>
        <time>2021-08-10 09:40:40</time>
      </trkpt>
      <trkpt lat="42.8407" lon="-0.47007">
        <ele>1526.2</ele>
        <time>2021-08-10 09:40:41</time>
      </trkpt>
      <trkpt lat="42.8407" lon="-0.47005">
        <ele>1526.2</ele>
        <time>2021-08-10 09:40:42</time>
      </trkpt>
      <trkpt lat="42.84071" lon="-0.47005">
        <ele>1526.2</ele>
        <time>2021-08-10 09:40:43</time>
      </trkpt>
      <trkpt lat="42.84071" lon="-0.47003">
        <ele>1526.4</ele>
        <time>2021-08-10 09:40:44</time>
      </trkpt>
      <trkpt lat="42.84072" lon="-0.47002">
        <ele>1526.6</ele>
        <time>2021-08-10 09:40:45</time>
      </trkpt>
      <trkpt lat="42.84072" lon="-0.47002">
        <ele>1526.8</ele>
        <time>2021-08-10 09:40:46</time>
      </trkpt>
      <trkpt lat="42.84073" lon="-0.47001">
        <ele>1526.8</ele>
        <time>2021-08-10 09:40:47</time>
      </trkpt>
      <trkpt lat="42.84073" lon="-0.47">
        <ele>1526.8</ele>
        <time>2021-08-10 09:40:48</time>
      </trkpt>
      <trkpt lat="42.84073" lon="-0.46999">
        <ele>1527</ele>
        <time>2021-08-10 09:40:49</time>
      </trkpt>
      <trkpt lat="42.84074" lon="-0.46998">
        <ele>1527.2</ele>
        <time>2021-08-10 09:40:50</time>
      </trkpt>
      <trkpt lat="42.84074" lon="-0.46997">
        <ele>1527</ele>
        <time>2021-08-10 09:40:51</time>
      </trkpt>
      <trkpt lat="42.84075" lon="-0.46997">
        <ele>1527.2</ele>
        <time>2021-08-10 09:40:52</time>
      </trkpt>
      <trkpt lat="42.84075" lon="-0.46995">
        <ele>1527.2</ele>
        <time>2021-08-10 09:40:53</time>
      </trkpt>
      <trkpt lat="42.84075" lon="-0.46995">
        <ele>1527.4</ele>
        <time>2021-08-10 09:40:54</time>
      </trkpt>
      <trkpt lat="42.84076" lon="-0.46994">
        <ele>1527.6</ele>
        <time>2021-08-10 09:40:55</time>
      </trkpt>
      <trkpt lat="42.84076" lon="-0.46992">
        <ele>1527.8</ele>
        <time>2021-08-10 09:40:56</time>
      </trkpt>
      <trkpt lat="42.84077" lon="-0.46991">
        <ele>1528</ele>
        <time>2021-08-10 09:40:57</time>
      </trkpt>
      <trkpt lat="42.84078" lon="-0.4699">
        <ele>1528</ele>
        <time>2021-08-10 09:40:58</time>
      </trkpt>
      <trkpt lat="42.84078" lon="-0.46989">
        <ele>1528.2</ele>
        <time>2021-08-10 09:40:59</time>
      </trkpt>
      <trkpt lat="42.84079" lon="-0.46988">
        <ele>1528.4</ele>
        <time>2021-08-10 09:41:00</time>
      </trkpt>
      <trkpt lat="42.84079" lon="-0.46987">
        <ele>1528.4</ele>
        <time>2021-08-10 09:41:01</time>
      </trkpt>
      <trkpt lat="42.8408" lon="-0.46985">
        <ele>1528.4</ele>
        <time>2021-08-10 09:41:02</time>
      </trkpt>
      <trkpt lat="42.8408" lon="-0.46984">
        <ele>1528.4</ele>
        <time>2021-08-10 09:41:03</time>
      </trkpt>
      <trkpt lat="42.8408" lon="-0.46983">
        <ele>1528.4</ele>
        <time>2021-08-10 09:41:04</time>
      </trkpt>
      <trkpt lat="42.8408" lon="-0.46981">
        <ele>1528.4</ele>
        <time>2021-08-10 09:41:05</time>
      </trkpt>
      <trkpt lat="42.84081" lon="-0.4698">
        <ele>1528.4</ele>
        <time>2021-08-10 09:41:06</time>
      </trkpt>
      <trkpt lat="42.84081" lon="-0.46979">
        <ele>1528.6</ele>
        <time>2021-08-10 09:41:07</time>
      </trkpt>
      <trkpt lat="42.84081" lon="-0.46978">
        <ele>1528.6</ele>
        <time>2021-08-10 09:41:08</time>
      </trkpt>
      <trkpt lat="42.84081" lon="-0.46977">
        <ele>1528.8</ele>
        <time>2021-08-10 09:41:09</time>
      </trkpt>
      <trkpt lat="42.84081" lon="-0.46976">
        <ele>1528.6</ele>
        <time>2021-08-10 09:41:10</time>
      </trkpt>
      <trkpt lat="42.84081" lon="-0.46975">
        <ele>1528.6</ele>
        <time>2021-08-10 09:41:11</time>
      </trkpt>
      <trkpt lat="42.84081" lon="-0.46975">
        <ele>1528.6</ele>
        <time>2021-08-10 09:41:12</time>
      </trkpt>
      <trkpt lat="42.84081" lon="-0.46973">
        <ele>1528.8</ele>
        <time>2021-08-10 09:41:13</time>
      </trkpt>
      <trkpt lat="42.84081" lon="-0.46973">
        <ele>1528.8</ele>
        <time>2021-08-10 09:41:14</time>
      </trkpt>
      <trkpt lat="42.84081" lon="-0.46973">
        <ele>1528.6</ele>
        <time>2021-08-10 09:41:15</time>
      </trkpt>
      <trkpt lat="42.84082" lon="-0.46972">
        <ele>1528.6</ele>
        <time>2021-08-10 09:41:16</time>
      </trkpt>
      <trkpt lat="42.84081" lon="-0.46972">
        <ele>1528.8</ele>
        <time>2021-08-10 09:41:17</time>
      </trkpt>
      <trkpt lat="42.84081" lon="-0.46971">
        <ele>1528.8</ele>
        <time>2021-08-10 09:41:18</time>
      </trkpt>
      <trkpt lat="42.84081" lon="-0.46971">
        <ele>1528.8</ele>
        <time>2021-08-10 09:41:19</time>
      </trkpt>
      <trkpt lat="42.8408" lon="-0.46972">
        <ele>1528.8</ele>
        <time>2021-08-10 09:41:20</time>
      </trkpt>
      <trkpt lat="42.84081" lon="-0.46971">
        <ele>1528.8</ele>
        <time>2021-08-10 09:41:21</time>
      </trkpt>
      <trkpt lat="42.84081" lon="-0.4697">
        <ele>1528.8</ele>
        <time>2021-08-10 09:41:22</time>
      </trkpt>
      <trkpt lat="42.84081" lon="-0.46969">
        <ele>1528.8</ele>
        <time>2021-08-10 09:41:23</time>
      </trkpt>
      <trkpt lat="42.8408" lon="-0.46969">
        <ele>1528.8</ele>
        <time>2021-08-10 09:41:24</time>
      </trkpt>
      <trkpt lat="42.8408" lon="-0.46968">
        <ele>1528.8</ele>
        <time>2021-08-10 09:41:25</time>
      </trkpt>
      <trkpt lat="42.84079" lon="-0.46968">
        <ele>1529</ele>
        <time>2021-08-10 09:41:26</time>
      </trkpt>
      <trkpt lat="42.84079" lon="-0.46968">
        <ele>1529</ele>
        <time>2021-08-10 09:41:27</time>
      </trkpt>
      <trkpt lat="42.84079" lon="-0.46967">
        <ele>1529.2</ele>
        <time>2021-08-10 09:41:28</time>
      </trkpt>
      <trkpt lat="42.84078" lon="-0.46968">
        <ele>1529.2</ele>
        <time>2021-08-10 09:41:29</time>
      </trkpt>
      <trkpt lat="42.84077" lon="-0.46968">
        <ele>1529.2</ele>
        <time>2021-08-10 09:41:30</time>
      </trkpt>
      <trkpt lat="42.84077" lon="-0.46968">
        <ele>1529.2</ele>
        <time>2021-08-10 09:41:31</time>
      </trkpt>
      <trkpt lat="42.84075" lon="-0.46968">
        <ele>1529.2</ele>
        <time>2021-08-10 09:41:32</time>
      </trkpt>
      <trkpt lat="42.84075" lon="-0.46967">
        <ele>1529</ele>
        <time>2021-08-10 09:41:33</time>
      </trkpt>
      <trkpt lat="42.84074" lon="-0.46967">
        <ele>1529.2</ele>
        <time>2021-08-10 09:41:34</time>
      </trkpt>
      <trkpt lat="42.84074" lon="-0.46967">
        <ele>1529.2</ele>
        <time>2021-08-10 09:41:35</time>
      </trkpt>
      <trkpt lat="42.84073" lon="-0.46967">
        <ele>1529.4</ele>
        <time>2021-08-10 09:41:36</time>
      </trkpt>
      <trkpt lat="42.84072" lon="-0.46967">
        <ele>1529.6</ele>
        <time>2021-08-10 09:41:37</time>
      </trkpt>
      <trkpt lat="42.84071" lon="-0.46967">
        <ele>1529.6</ele>
        <time>2021-08-10 09:41:38</time>
      </trkpt>
      <trkpt lat="42.84071" lon="-0.46966">
        <ele>1529.6</ele>
        <time>2021-08-10 09:41:39</time>
      </trkpt>
      <trkpt lat="42.84072" lon="-0.46966">
        <ele>1529.6</ele>
        <time>2021-08-10 09:41:40</time>
      </trkpt>
      <trkpt lat="42.84072" lon="-0.46965">
        <ele>1529.6</ele>
        <time>2021-08-10 09:41:41</time>
      </trkpt>
      <trkpt lat="42.84072" lon="-0.46965">
        <ele>1529.8</ele>
        <time>2021-08-10 09:41:42</time>
      </trkpt>
      <trkpt lat="42.84072" lon="-0.46965">
        <ele>1529.6</ele>
        <time>2021-08-10 09:41:43</time>
      </trkpt>
      <trkpt lat="42.84072" lon="-0.46965">
        <ele>1529.6</ele>
        <time>2021-08-10 09:41:44</time>
      </trkpt>
      <trkpt lat="42.84073" lon="-0.46965">
        <ele>1529.8</ele>
        <time>2021-08-10 09:41:45</time>
      </trkpt>
      <trkpt lat="42.84073" lon="-0.46963">
        <ele>1529.6</ele>
        <time>2021-08-10 09:41:46</time>
      </trkpt>
      <trkpt lat="42.84072" lon="-0.46963">
        <ele>1529.6</ele>
        <time>2021-08-10 09:41:47</time>
      </trkpt>
      <trkpt lat="42.84072" lon="-0.46965">
        <ele>1529.8</ele>
        <time>2021-08-10 09:41:48</time>
      </trkpt>
      <trkpt lat="42.84071" lon="-0.46965">
        <ele>1529.8</ele>
        <time>2021-08-10 09:41:49</time>
      </trkpt>
      <trkpt lat="42.84071" lon="-0.46965">
        <ele>1529.8</ele>
        <time>2021-08-10 09:41:50</time>
      </trkpt>
      <trkpt lat="42.8407" lon="-0.46965">
        <ele>1529.8</ele>
        <time>2021-08-10 09:41:51</time>
      </trkpt>
      <trkpt lat="42.84069" lon="-0.46965">
        <ele>1529.6</ele>
        <time>2021-08-10 09:41:52</time>
      </trkpt>
      <trkpt lat="42.84068" lon="-0.46965">
        <ele>1529.2</ele>
        <time>2021-08-10 09:41:53</time>
      </trkpt>
      <trkpt lat="42.84069" lon="-0.46964">
        <ele>1529.4</ele>
        <time>2021-08-10 09:41:54</time>
      </trkpt>
      <trkpt lat="42.84068" lon="-0.46964">
        <ele>1529.6</ele>
        <time>2021-08-10 09:41:55</time>
      </trkpt>
      <trkpt lat="42.84067" lon="-0.46963">
        <ele>1529.8</ele>
        <time>2021-08-10 09:41:56</time>
      </trkpt>
      <trkpt lat="42.84066" lon="-0.46963">
        <ele>1530</ele>
        <time>2021-08-10 09:41:57</time>
      </trkpt>
      <trkpt lat="42.84066" lon="-0.46963">
        <ele>1530</ele>
        <time>2021-08-10 09:41:58</time>
      </trkpt>
      <trkpt lat="42.84064" lon="-0.46963">
        <ele>1530</ele>
        <time>2021-08-10 09:41:59</time>
      </trkpt>
      <trkpt lat="42.84063" lon="-0.46963">
        <ele>1530</ele>
        <time>2021-08-10 09:42:00</time>
      </trkpt>
      <trkpt lat="42.84062" lon="-0.46963">
        <ele>1530</ele>
        <time>2021-08-10 09:42:01</time>
      </trkpt>
      <trkpt lat="42.84062" lon="-0.46964">
        <ele>1530.2</ele>
        <time>2021-08-10 09:42:02</time>
      </trkpt>
      <trkpt lat="42.8406" lon="-0.46964">
        <ele>1530.2</ele>
        <time>2021-08-10 09:42:21</time>
      </trkpt>
      <trkpt lat="42.8406" lon="-0.46964">
        <ele>1530.4</ele>
        <time>2021-08-10 09:42:22</time>
      </trkpt>
      <trkpt lat="42.84059" lon="-0.46965">
        <ele>1530.4</ele>
        <time>2021-08-10 09:42:23</time>
      </trkpt>
      <trkpt lat="42.84058" lon="-0.46965">
        <ele>1530.4</ele>
        <time>2021-08-10 09:42:24</time>
      </trkpt>
      <trkpt lat="42.84057" lon="-0.46965">
        <ele>1530.4</ele>
        <time>2021-08-10 09:42:25</time>
      </trkpt>
      <trkpt lat="42.84056" lon="-0.46966">
        <ele>1530.4</ele>
        <time>2021-08-10 09:42:26</time>
      </trkpt>
      <trkpt lat="42.84055" lon="-0.46966">
        <ele>1530.6</ele>
        <time>2021-08-10 09:42:27</time>
      </trkpt>
      <trkpt lat="42.84054" lon="-0.46965">
        <ele>1530.6</ele>
        <time>2021-08-10 09:42:28</time>
      </trkpt>
      <trkpt lat="42.84054" lon="-0.46966">
        <ele>1530.4</ele>
        <time>2021-08-10 09:42:29</time>
      </trkpt>
      <trkpt lat="42.84053" lon="-0.46966">
        <ele>1530.4</ele>
        <time>2021-08-10 09:42:30</time>
      </trkpt>
      <trkpt lat="42.84052" lon="-0.46966">
        <ele>1530.4</ele>
        <time>2021-08-10 09:42:31</time>
      </trkpt>
      <trkpt lat="42.84051" lon="-0.46967">
        <ele>1530.4</ele>
        <time>2021-08-10 09:42:32</time>
      </trkpt>
      <trkpt lat="42.84049" lon="-0.46967">
        <ele>1530.4</ele>
        <time>2021-08-10 09:42:33</time>
      </trkpt>
      <trkpt lat="42.84048" lon="-0.46966">
        <ele>1530.2</ele>
        <time>2021-08-10 09:42:34</time>
      </trkpt>
      <trkpt lat="42.84047" lon="-0.46965">
        <ele>1530.2</ele>
        <time>2021-08-10 09:42:35</time>
      </trkpt>
      <trkpt lat="42.84047" lon="-0.46964">
        <ele>1530.2</ele>
        <time>2021-08-10 09:42:36</time>
      </trkpt>
      <trkpt lat="42.84047" lon="-0.46963">
        <ele>1530.2</ele>
        <time>2021-08-10 09:42:37</time>
      </trkpt>
      <trkpt lat="42.84046" lon="-0.46962">
        <ele>1530</ele>
        <time>2021-08-10 09:42:38</time>
      </trkpt>
      <trkpt lat="42.84046" lon="-0.4696">
        <ele>1529.8</ele>
        <time>2021-08-10 09:42:39</time>
      </trkpt>
      <trkpt lat="42.84045" lon="-0.46959">
        <ele>1529.8</ele>
        <time>2021-08-10 09:42:40</time>
      </trkpt>
      <trkpt lat="42.84045" lon="-0.46959">
        <ele>1530</ele>
        <time>2021-08-10 09:42:41</time>
      </trkpt>
      <trkpt lat="42.84045" lon="-0.46958">
        <ele>1530</ele>
        <time>2021-08-10 09:42:42</time>
      </trkpt>
      <trkpt lat="42.84045" lon="-0.46957">
        <ele>1529.8</ele>
        <time>2021-08-10 09:42:43</time>
      </trkpt>
      <trkpt lat="42.84045" lon="-0.46957">
        <ele>1529.6</ele>
        <time>2021-08-10 09:42:44</time>
      </trkpt>
      <trkpt lat="42.84045" lon="-0.46955">
        <ele>1529.4</ele>
        <time>2021-08-10 09:42:45</time>
      </trkpt>
      <trkpt lat="42.84045" lon="-0.46954">
        <ele>1529.6</ele>
        <time>2021-08-10 09:42:46</time>
      </trkpt>
      <trkpt lat="42.84045" lon="-0.46953">
        <ele>1529.6</ele>
        <time>2021-08-10 09:42:53</time>
      </trkpt>
      <trkpt lat="42.84046" lon="-0.46952">
        <ele>1529.8</ele>
        <time>2021-08-10 09:42:54</time>
      </trkpt>
      <trkpt lat="42.84046" lon="-0.46952">
        <ele>1529.6</ele>
        <time>2021-08-10 09:42:55</time>
      </trkpt>
      <trkpt lat="42.84047" lon="-0.4695">
        <ele>1529.6</ele>
        <time>2021-08-10 09:42:56</time>
      </trkpt>
      <trkpt lat="42.84047" lon="-0.46949">
        <ele>1529.6</ele>
        <time>2021-08-10 09:42:57</time>
      </trkpt>
      <trkpt lat="42.84047" lon="-0.46948">
        <ele>1529.8</ele>
        <time>2021-08-10 09:42:58</time>
      </trkpt>
      <trkpt lat="42.84047" lon="-0.46947">
        <ele>1530.2</ele>
        <time>2021-08-10 09:42:59</time>
      </trkpt>
      <trkpt lat="42.84048" lon="-0.46946">
        <ele>1530.4</ele>
        <time>2021-08-10 09:43:00</time>
      </trkpt>
      <trkpt lat="42.84048" lon="-0.46945">
        <ele>1530.8</ele>
        <time>2021-08-10 09:43:01</time>
      </trkpt>
      <trkpt lat="42.84048" lon="-0.46944">
        <ele>1530.8</ele>
        <time>2021-08-10 09:43:02</time>
      </trkpt>
      <trkpt lat="42.84048" lon="-0.46944">
        <ele>1530.8</ele>
        <time>2021-08-10 09:43:03</time>
      </trkpt>
      <trkpt lat="42.84048" lon="-0.46943">
        <ele>1531</ele>
        <time>2021-08-10 09:43:04</time>
      </trkpt>
      <trkpt lat="42.84049" lon="-0.46942">
        <ele>1531</ele>
        <time>2021-08-10 09:43:05</time>
      </trkpt>
      <trkpt lat="42.84049" lon="-0.46941">
        <ele>1531.2</ele>
        <time>2021-08-10 09:43:06</time>
      </trkpt>
      <trkpt lat="42.8405" lon="-0.4694">
        <ele>1531.2</ele>
        <time>2021-08-10 09:43:07</time>
      </trkpt>
      <trkpt lat="42.8405" lon="-0.4694">
        <ele>1531.2</ele>
        <time>2021-08-10 09:43:08</time>
      </trkpt>
      <trkpt lat="42.8405" lon="-0.46939">
        <ele>1531</ele>
        <time>2021-08-10 09:43:09</time>
      </trkpt>
      <trkpt lat="42.84051" lon="-0.46938">
        <ele>1531</ele>
        <time>2021-08-10 09:43:10</time>
      </trkpt>
      <trkpt lat="42.84052" lon="-0.46938">
        <ele>1531</ele>
        <time>2021-08-10 09:43:11</time>
      </trkpt>
      <trkpt lat="42.84052" lon="-0.46938">
        <ele>1531</ele>
        <time>2021-08-10 09:43:12</time>
      </trkpt>
      <trkpt lat="42.84053" lon="-0.46938">
        <ele>1531</ele>
        <time>2021-08-10 09:43:13</time>
      </trkpt>
      <trkpt lat="42.84053" lon="-0.46938">
        <ele>1530.8</ele>
        <time>2021-08-10 09:43:14</time>
      </trkpt>
      <trkpt lat="42.84054" lon="-0.46937">
        <ele>1530.8</ele>
        <time>2021-08-10 09:43:15</time>
      </trkpt>
      <trkpt lat="42.84055" lon="-0.46936">
        <ele>1530.6</ele>
        <time>2021-08-10 09:43:16</time>
      </trkpt>
      <trkpt lat="42.84056" lon="-0.46936">
        <ele>1530.8</ele>
        <time>2021-08-10 09:43:17</time>
      </trkpt>
      <trkpt lat="42.84057" lon="-0.46935">
        <ele>1530.6</ele>
        <time>2021-08-10 09:43:18</time>
      </trkpt>
      <trkpt lat="42.84058" lon="-0.46935">
        <ele>1530.8</ele>
        <time>2021-08-10 09:43:19</time>
      </trkpt>
      <trkpt lat="42.84059" lon="-0.46935">
        <ele>1530.8</ele>
        <time>2021-08-10 09:43:20</time>
      </trkpt>
      <trkpt lat="42.84059" lon="-0.46935">
        <ele>1530.8</ele>
        <time>2021-08-10 09:43:21</time>
      </trkpt>
      <trkpt lat="42.8406" lon="-0.46935">
        <ele>1530.8</ele>
        <time>2021-08-10 09:43:22</time>
      </trkpt>
      <trkpt lat="42.84061" lon="-0.46936">
        <ele>1530.6</ele>
        <time>2021-08-10 09:43:23</time>
      </trkpt>
      <trkpt lat="42.84061" lon="-0.46937">
        <ele>1530.6</ele>
        <time>2021-08-10 09:43:24</time>
      </trkpt>
      <trkpt lat="42.84062" lon="-0.46937">
        <ele>1530.6</ele>
        <time>2021-08-10 09:43:25</time>
      </trkpt>
      <trkpt lat="42.84062" lon="-0.46938">
        <ele>1530.4</ele>
        <time>2021-08-10 09:43:26</time>
      </trkpt>
      <trkpt lat="42.84063" lon="-0.46938">
        <ele>1530.4</ele>
        <time>2021-08-10 09:43:27</time>
      </trkpt>
      <trkpt lat="42.84064" lon="-0.46938">
        <ele>1530.4</ele>
        <time>2021-08-10 09:43:28</time>
      </trkpt>
      <trkpt lat="42.84065" lon="-0.46937">
        <ele>1530.4</ele>
        <time>2021-08-10 09:43:29</time>
      </trkpt>
      <trkpt lat="42.84065" lon="-0.46937">
        <ele>1530.4</ele>
        <time>2021-08-10 09:43:30</time>
      </trkpt>
      <trkpt lat="42.84066" lon="-0.46937">
        <ele>1530.4</ele>
        <time>2021-08-10 09:43:31</time>
      </trkpt>
      <trkpt lat="42.84067" lon="-0.46937">
        <ele>1530.4</ele>
        <time>2021-08-10 09:43:32</time>
      </trkpt>
      <trkpt lat="42.84068" lon="-0.46938">
        <ele>1530.2</ele>
        <time>2021-08-10 09:43:33</time>
      </trkpt>
      <trkpt lat="42.84069" lon="-0.46938">
        <ele>1530.2</ele>
        <time>2021-08-10 09:43:34</time>
      </trkpt>
      <trkpt lat="42.8407" lon="-0.46937">
        <ele>1530.2</ele>
        <time>2021-08-10 09:43:35</time>
      </trkpt>
      <trkpt lat="42.84071" lon="-0.46937">
        <ele>1530.2</ele>
        <time>2021-08-10 09:43:36</time>
      </trkpt>
      <trkpt lat="42.84072" lon="-0.46937">
        <ele>1530.2</ele>
        <time>2021-08-10 09:43:37</time>
      </trkpt>
      <trkpt lat="42.84073" lon="-0.46937">
        <ele>1530.2</ele>
        <time>2021-08-10 09:43:38</time>
      </trkpt>
      <trkpt lat="42.84073" lon="-0.46936">
        <ele>1530</ele>
        <time>2021-08-10 09:43:39</time>
      </trkpt>
      <trkpt lat="42.84074" lon="-0.46936">
        <ele>1530.2</ele>
        <time>2021-08-10 09:43:40</time>
      </trkpt>
      <trkpt lat="42.84075" lon="-0.46936">
        <ele>1530.2</ele>
        <time>2021-08-10 09:43:41</time>
      </trkpt>
      <trkpt lat="42.84076" lon="-0.46935">
        <ele>1530.2</ele>
        <time>2021-08-10 09:43:42</time>
      </trkpt>
      <trkpt lat="42.84077" lon="-0.46935">
        <ele>1530.2</ele>
        <time>2021-08-10 09:43:43</time>
      </trkpt>
      <trkpt lat="42.84079" lon="-0.46935">
        <ele>1530.2</ele>
        <time>2021-08-10 09:43:44</time>
      </trkpt>
      <trkpt lat="42.8408" lon="-0.46935">
        <ele>1530.2</ele>
        <time>2021-08-10 09:43:45</time>
      </trkpt>
      <trkpt lat="42.8408" lon="-0.46935">
        <ele>1530.4</ele>
        <time>2021-08-10 09:43:46</time>
      </trkpt>
      <trkpt lat="42.84081" lon="-0.46935">
        <ele>1530.4</ele>
        <time>2021-08-10 09:43:47</time>
      </trkpt>
      <trkpt lat="42.84082" lon="-0.46935">
        <ele>1530.2</ele>
        <time>2021-08-10 09:43:48</time>
      </trkpt>
      <trkpt lat="42.84083" lon="-0.46935">
        <ele>1530.2</ele>
        <time>2021-08-10 09:43:49</time>
      </trkpt>
      <trkpt lat="42.84084" lon="-0.46935">
        <ele>1530.4</ele>
        <time>2021-08-10 09:43:50</time>
      </trkpt>
      <trkpt lat="42.84085" lon="-0.46935">
        <ele>1530.4</ele>
        <time>2021-08-10 09:43:51</time>
      </trkpt>
      <trkpt lat="42.84086" lon="-0.46935">
        <ele>1530.6</ele>
        <time>2021-08-10 09:43:52</time>
      </trkpt>
      <trkpt lat="42.84088" lon="-0.46935">
        <ele>1530.6</ele>
        <time>2021-08-10 09:43:53</time>
      </trkpt>
      <trkpt lat="42.84089" lon="-0.46935">
        <ele>1530.6</ele>
        <time>2021-08-10 09:43:54</time>
      </trkpt>
      <trkpt lat="42.84089" lon="-0.46935">
        <ele>1530.6</ele>
        <time>2021-08-10 09:43:55</time>
      </trkpt>
      <trkpt lat="42.8409" lon="-0.46936">
        <ele>1530.6</ele>
        <time>2021-08-10 09:43:56</time>
      </trkpt>
      <trkpt lat="42.84091" lon="-0.46936">
        <ele>1530.8</ele>
        <time>2021-08-10 09:43:57</time>
      </trkpt>
      <trkpt lat="42.84092" lon="-0.46936">
        <ele>1530.8</ele>
        <time>2021-08-10 09:43:58</time>
      </trkpt>
      <trkpt lat="42.84093" lon="-0.46936">
        <ele>1530.8</ele>
        <time>2021-08-10 09:43:59</time>
      </trkpt>
      <trkpt lat="42.84094" lon="-0.46936">
        <ele>1531</ele>
      </trkpt>
      <trkpt lat="42.84095" lon="-0.46936">
        <ele>1531</ele>
        <time>2021-08-10 09:44:01</time>
      </trkpt>
      <trkpt lat="42.84095" lon="-0.46936">
        <ele>1531.2</ele>
        <time>2021-08-10 09:44:02</time>
      </trkpt>
      <trkpt lat="42.84096" lon="-0.46936">
        <ele>1531.2</ele>
        <time>2021-08-10 09:44:03</time>
      </trkpt>
      <trkpt lat="42.84097" lon="-0.46936">
        <ele>1531.2</ele>
        <time>2021-08-10 09:44:04</time>
      </trkpt>
      <trkpt lat="42.84098" lon="-0.46937">
        <ele>1531.2</ele>
        <time>2021-08-10 09:44:05</time>
      </trkpt>
      <trkpt lat="42.84099" lon="-0.46937">
        <ele>1531.4</ele>
        <time>2021-08-10 09:44:06</time>
      </trkpt>
      <trkpt lat="42.84099" lon="-0.46937">
        <ele>1531.4</ele>
        <time>2021-08-10 09:44:07</time>
      </trkpt>
      <trkpt lat="42.841" lon="-0.46936">
        <ele>1531.4</ele>
        <time>2021-08-10 09:44:08</time>
      </trkpt>
      <trkpt lat="42.841" lon="-0.46936">
        <ele>1531.4</ele>
        <time>2021-08-10 09:44:09</time>
      </trkpt>
      <trkpt lat="42.84101" lon="-0.46935">
        <ele>1531.6</ele>
        <time>2021-08-10 09:44:10</time>
      </trkpt>
      <trkpt lat="42.84102" lon="-0.46935">
        <ele>1532</ele>
        <time>2021-08-10 09:44:11</time>
      </trkpt>
      <trkpt lat="42.84103" lon="-0.46934">
        <ele>1531.8</ele>
        <time>2021-08-10 09:44:12</time>
      </trkpt>
      <trkpt lat="42.84104" lon="-0.46934">
        <ele>1532</ele>
        <time>2021-08-10 09:44:13</time>
      </trkpt>
      <trkpt lat="42.84105" lon="-0.46934">
        <ele>1532</ele>
        <time>2021-08-10 09:44:14</time>
      </trkpt>
      <trkpt lat="42.84105" lon="-0.46934">
        <ele>1532</ele>
        <time>2021-08-10 09:44:15</time>
      </trkpt>
      <trkpt lat="42.84105" lon="-0.46934">
        <ele>1532</ele>
        <time>2021-08-10 09:44:16</time>
      </trkpt>
      <trkpt lat="42.84107" lon="-0.46934">
        <ele>1532.2</ele>
        <time>2021-08-10 09:44:17</time>
      </trkpt>
      <trkpt lat="42.84107" lon="-0.46935">
        <ele>1532.2</ele>
        <time>2021-08-10 09:44:18</time>
      </trkpt>
      <trkpt lat="42.84108" lon="-0.46934">
        <ele>1532.4</ele>
      </trkpt>
      <trkpt lat="42.84109" lon="-0.46934">
        <ele>1532.4</ele>
        <time>2021-08-10 09:44:19</time>
      </trkpt>
      <trkpt lat="42.84109" lon="-0.46933">
        <ele>1532.8</ele>
        <time>2021-08-10 09:44:20</time>
      </trkpt>
      <trkpt lat="42.8411" lon="-0.46933">
        <ele>1532.8</ele>
        <time>2021-08-10 09:44:21</time>
      </trkpt>
      <trkpt lat="42.8411" lon="-0.46932">
        <ele>1533</ele>
        <time>2021-08-10 09:44:22</time>
      </trkpt>
      <trkpt lat="42.8411" lon="-0.46932">
        <ele>1533</ele>
        <time>2021-08-10 09:44:23</time>
      </trkpt>
      <trkpt lat="42.8411" lon="-0.46931">
        <ele>1533.4</ele>
        <time>2021-08-10 09:44:24</time>
      </trkpt>
      <trkpt lat="42.84109" lon="-0.4693">
        <ele>1533.6</ele>
        <time>2021-08-10 09:44:25</time>
      </trkpt>
      <trkpt lat="42.84109" lon="-0.4693">
        <ele>1533.8</ele>
        <time>2021-08-10 09:44:26</time>
      </trkpt>
      <trkpt lat="42.84108" lon="-0.4693">
        <ele>1533.8</ele>
        <time>2021-08-10 09:44:27</time>
      </trkpt>
      <trkpt lat="42.84107" lon="-0.46929">
        <ele>1533.8</ele>
        <time>2021-08-10 09:44:28</time>
      </trkpt>
      <trkpt lat="42.84106" lon="-0.46929">
        <ele>1533.8</ele>
        <time>2021-08-10 09:44:29</time>
      </trkpt>
      <trkpt lat="42.84106" lon="-0.46929">
        <ele>1533.8</ele>
        <time>2021-08-10 09:44:30</time>
      </trkpt>
      <trkpt lat="42.84105" lon="-0.46928">
        <ele>1533.8</ele>
        <time>2021-08-10 09:44:31</time>
      </trkpt>
      <trkpt lat="42.84105" lon="-0.46927">
        <ele>1534</ele>
        <time>2021-08-10 09:44:32</time>
      </trkpt>
      <trkpt lat="42.84103" lon="-0.46927">
        <ele>1534.2</ele>
        <time>2021-08-10 09:44:33</time>
      </trkpt>
      <trkpt lat="42.84103" lon="-0.46926">
        <ele>1534.2</ele>
        <time>2021-08-10 09:44:34</time>
      </trkpt>
      <trkpt lat="42.84102" lon="-0.46925">
        <ele>1534.4</ele>
        <time>2021-08-10 09:44:35</time>
      </trkpt>
      <trkpt lat="42.84102" lon="-0.46924">
        <ele>1534.4</ele>
        <time>2021-08-10 09:44:36</time>
      </trkpt>
      <trkpt lat="42.84101" lon="-0.46924">
        <ele>1534.8</ele>
        <time>2021-08-10 09:44:38</time>
      </trkpt>
      <trkpt lat="42.84101" lon="-0.46923">
        <ele>1535</ele>
      </trkpt>
      <trkpt lat="42.841" lon="-0.46922">
        <ele>1535</ele>
        <time>2021-08-10 09:44:39</time>
      </trkpt>
      <trkpt lat="42.841" lon="-0.46921">
        <ele>1535.4</ele>
        <time>2021-08-10 09:44:40</time>
      </trkpt>
      <trkpt lat="42.84099" lon="-0.46921">
        <ele>1535.4</ele>
        <time>2021-08-10 09:44:41</time>
      </trkpt>
      <trkpt lat="42.841" lon="-0.4692">
        <ele>1535.6</ele>
        <time>2021-08-10 09:44:42</time>
      </trkpt>
      <trkpt lat="42.84099" lon="-0.46919">
        <ele>1535.8</ele>
        <time>2021-08-10 09:44:43</time>
      </trkpt>
      <trkpt lat="42.84099" lon="-0.46918">
        <ele>1535.8</ele>
        <time>2021-08-10 09:44:44</time>
      </trkpt>
      <trkpt lat="42.84099" lon="-0.46918">
        <ele>1536</ele>
        <time>2021-08-10 09:44:45</time>
      </trkpt>
      <trkpt lat="42.84099" lon="-0.46917">
        <ele>1536.2</ele>
        <time>2021-08-10 09:44:46</time>
      </trkpt>
      <trkpt lat="42.84099" lon="-0.46916">
        <ele>1536.4</ele>
        <time>2021-08-10 09:44:47</time>
      </trkpt>
      <trkpt lat="42.84098" lon="-0.46916">
        <ele>1536.6</ele>
        <time>2021-08-10 09:44:48</time>
      </trkpt>
      <trkpt lat="42.84098" lon="-0.46915">
        <ele>1536.8</ele>
        <time>2021-08-10 09:44:49</time>
      </trkpt>
      <trkpt lat="42.84098" lon="-0.46915">
        <ele>1536.8</ele>
        <time>2021-08-10 09:44:50</time>
      </trkpt>
      <trkpt lat="42.84098" lon="-0.46914">
        <ele>1536.8</ele>
        <time>2021-08-10 09:44:51</time>
      </trkpt>
      <trkpt lat="42.84098" lon="-0.46913">
        <ele>1537</ele>
        <time>2021-08-10 09:44:52</time>
      </trkpt>
      <trkpt lat="42.84098" lon="-0.46913">
        <ele>1537.2</ele>
        <time>2021-08-10 09:44:53</time>
      </trkpt>
      <trkpt lat="42.84098" lon="-0.46913">
        <ele>1537.4</ele>
        <time>2021-08-10 09:44:54</time>
      </trkpt>
      <trkpt lat="42.84098" lon="-0.46913">
        <ele>1537.6</ele>
        <time>2021-08-10 09:44:55</time>
      </trkpt>
      <trkpt lat="42.84098" lon="-0.46912">
        <ele>1537.8</ele>
        <time>2021-08-10 09:44:56</time>
      </trkpt>
      <trkpt lat="42.84098" lon="-0.46912">
        <ele>1538</ele>
        <time>2021-08-10 09:44:57</time>
      </trkpt>
      <trkpt lat="42.84098" lon="-0.46911">
        <ele>1538.2</ele>
        <time>2021-08-10 09:44:58</time>
      </trkpt>
      <trkpt lat="42.84098" lon="-0.46911">
        <ele>1538.4</ele>
        <time>2021-08-10 09:44:59</time>
      </trkpt>
      <trkpt lat="42.84098" lon="-0.46909">
        <ele>1538.6</ele>
        <time>2021-08-10 09:45:00</time>
      </trkpt>
      <trkpt lat="42.84098" lon="-0.46909">
        <ele>1538.6</ele>
        <time>2021-08-10 09:45:01</time>
      </trkpt>
      <trkpt lat="42.84098" lon="-0.46908">
        <ele>1539</ele>
        <time>2021-08-10 09:45:02</time>
      </trkpt>
      <trkpt lat="42.84098" lon="-0.46908">
        <ele>1539</ele>
        <time>2021-08-10 09:45:03</time>
      </trkpt>
      <trkpt lat="42.84098" lon="-0.46907">
        <ele>1539.2</ele>
        <time>2021-08-10 09:45:04</time>
      </trkpt>
      <trkpt lat="42.84098" lon="-0.46906">
        <ele>1539.4</ele>
        <time>2021-08-10 09:45:05</time>
      </trkpt>
      <trkpt lat="42.84098" lon="-0.46905">
        <ele>1539.6</ele>
        <time>2021-08-10 09:45:06</time>
      </trkpt>
      <trkpt lat="42.84098" lon="-0.46905">
        <ele>1539.6</ele>
        <time>2021-08-10 09:45:07</time>
      </trkpt>
      <trkpt lat="42.84098" lon="-0.46904">
        <ele>1540</ele>
        <time>2021-08-10 09:45:08</time>
      </trkpt>
      <trkpt lat="42.84099" lon="-0.46904">
        <ele>1540</ele>
        <time>2021-08-10 09:45:09</time>
      </trkpt>
      <trkpt lat="42.84099" lon="-0.46904">
        <ele>1540.4</ele>
        <time>2021-08-10 09:45:10</time>
      </trkpt>
      <trkpt lat="42.84099" lon="-0.46903">
        <ele>1540.6</ele>
        <time>2021-08-10 09:45:11</time>
      </trkpt>
      <trkpt lat="42.84099" lon="-0.46903">
        <ele>1540.8</ele>
        <time>2021-08-10 09:45:12</time>
      </trkpt>
      <trkpt lat="42.84099" lon="-0.46902">
        <ele>1541</ele>
        <time>2021-08-10 09:45:13</time>
      </trkpt>
      <trkpt lat="42.84099" lon="-0.46902">
        <ele>1541</ele>
        <time>2021-08-10 09:45:14</time>
      </trkpt>
      <trkpt lat="42.84099" lon="-0.46901">
        <ele>1541.2</ele>
        <time>2021-08-10 09:45:15</time>
      </trkpt>
      <trkpt lat="42.84098" lon="-0.46899">
        <ele>1541.4</ele>
        <time>2021-08-10 09:45:16</time>
      </trkpt>
      <trkpt lat="42.84098" lon="-0.46899">
        <ele>1541.6</ele>
        <time>2021-08-10 09:45:17</time>
      </trkpt>
      <trkpt lat="42.84098" lon="-0.46898">
        <ele>1541.8</ele>
        <time>2021-08-10 09:45:18</time>
      </trkpt>
      <trkpt lat="42.84098" lon="-0.46897">
        <ele>1541.8</ele>
        <time>2021-08-10 09:45:19</time>
      </trkpt>
      <trkpt lat="42.84098" lon="-0.46896">
        <ele>1542</ele>
        <time>2021-08-10 09:45:20</time>
      </trkpt>
      <trkpt lat="42.84098" lon="-0.46894">
        <ele>1542</ele>
        <time>2021-08-10 09:45:21</time>
      </trkpt>
      <trkpt lat="42.84098" lon="-0.46894">
        <ele>1542</ele>
        <time>2021-08-10 09:45:22</time>
      </trkpt>
      <trkpt lat="42.84098" lon="-0.46894">
        <ele>1542.2</ele>
        <time>2021-08-10 09:45:23</time>
      </trkpt>
      <trkpt lat="42.84099" lon="-0.46894">
        <ele>1542.4</ele>
        <time>2021-08-10 09:45:24</time>
      </trkpt>
      <trkpt lat="42.84098" lon="-0.46893">
        <ele>1542.6</ele>
        <time>2021-08-10 09:45:25</time>
      </trkpt>
      <trkpt lat="42.84098" lon="-0.46893">
        <ele>1542.8</ele>
        <time>2021-08-10 09:45:26</time>
      </trkpt>
      <trkpt lat="42.84098" lon="-0.46893">
        <ele>1542.8</ele>
        <time>2021-08-10 09:45:27</time>
      </trkpt>
      <trkpt lat="42.84098" lon="-0.46892">
        <ele>1542.8</ele>
        <time>2021-08-10 09:45:28</time>
      </trkpt>
      <trkpt lat="42.84099" lon="-0.46891">
        <ele>1543</ele>
        <time>2021-08-10 09:45:29</time>
      </trkpt>
      <trkpt lat="42.841" lon="-0.4689">
        <ele>1543</ele>
        <time>2021-08-10 09:45:30</time>
      </trkpt>
      <trkpt lat="42.841" lon="-0.4689">
        <ele>1543</ele>
        <time>2021-08-10 09:45:31</time>
      </trkpt>
      <trkpt lat="42.841" lon="-0.4689">
        <ele>1543</ele>
        <time>2021-08-10 09:45:32</time>
      </trkpt>
      <trkpt lat="42.841" lon="-0.46889">
        <ele>1543</ele>
        <time>2021-08-10 09:45:33</time>
      </trkpt>
      <trkpt lat="42.841" lon="-0.46889">
        <ele>1543.2</ele>
        <time>2021-08-10 09:45:34</time>
      </trkpt>
      <trkpt lat="42.841" lon="-0.46889">
        <ele>1543</ele>
        <time>2021-08-10 09:45:35</time>
      </trkpt>
      <trkpt lat="42.84101" lon="-0.46888">
        <ele>1543.2</ele>
        <time>2021-08-10 09:45:36</time>
      </trkpt>
      <trkpt lat="42.841" lon="-0.46888">
        <ele>1543</ele>
        <time>2021-08-10 09:45:37</time>
      </trkpt>
      <trkpt lat="42.841" lon="-0.46888">
        <ele>1543.2</ele>
        <time>2021-08-10 09:45:38</time>
      </trkpt>
      <trkpt lat="42.841" lon="-0.46887">
        <ele>1543</ele>
        <time>2021-08-10 09:45:39</time>
      </trkpt>
      <trkpt lat="42.841" lon="-0.46887">
        <ele>1543.4</ele>
        <time>2021-08-10 09:45:40</time>
      </trkpt>
      <trkpt lat="42.841" lon="-0.46886">
        <ele>1543.6</ele>
        <time>2021-08-10 09:45:41</time>
      </trkpt>
      <trkpt lat="42.841" lon="-0.46885">
        <ele>1543.8</ele>
        <time>2021-08-10 09:45:42</time>
      </trkpt>
      <trkpt lat="42.841" lon="-0.46884">
        <ele>1544</ele>
        <time>2021-08-10 09:45:43</time>
      </trkpt>
      <trkpt lat="42.84099" lon="-0.46885">
        <ele>1544</ele>
        <time>2021-08-10 09:45:44</time>
      </trkpt>
      <trkpt lat="42.84099" lon="-0.46884">
        <ele>1544.2</ele>
        <time>2021-08-10 09:45:45</time>
      </trkpt>
      <trkpt lat="42.84099" lon="-0.46884">
        <ele>1544.4</ele>
        <time>2021-08-10 09:45:46</time>
      </trkpt>
      <trkpt lat="42.84099" lon="-0.46884">
        <ele>1544.6</ele>
        <time>2021-08-10 09:45:47</time>
      </trkpt>
      <trkpt lat="42.841" lon="-0.46883">
        <ele>1545</ele>
        <time>2021-08-10 09:45:48</time>
      </trkpt>
      <trkpt lat="42.841" lon="-0.46883">
        <ele>1545</ele>
        <time>2021-08-10 09:45:49</time>
      </trkpt>
      <trkpt lat="42.841" lon="-0.46883">
        <ele>1545.2</ele>
        <time>2021-08-10 09:45:50</time>
      </trkpt>
      <trkpt lat="42.84101" lon="-0.46883">
        <ele>1545.2</ele>
        <time>2021-08-10 09:45:51</time>
      </trkpt>
      <trkpt lat="42.84101" lon="-0.46883">
        <ele>1545.4</ele>
        <time>2021-08-10 09:45:52</time>
      </trkpt>
      <trkpt lat="42.84101" lon="-0.46882">
        <ele>1545.6</ele>
        <time>2021-08-10 09:45:53</time>
      </trkpt>
      <trkpt lat="42.84101" lon="-0.46882">
        <ele>1545.8</ele>
        <time>2021-08-10 09:45:54</time>
      </trkpt>
      <trkpt lat="42.84102" lon="-0.46882">
        <ele>1546</ele>
        <time>2021-08-10 09:45:55</time>
      </trkpt>
      <trkpt lat="42.84102" lon="-0.46882">
        <ele>1546.2</ele>
        <time>2021-08-10 09:45:56</time>
      </trkpt>
      <trkpt lat="42.84103" lon="-0.46881">
        <ele>1546.4</ele>
        <time>2021-08-10 09:45:57</time>
      </trkpt>
      <trkpt lat="42.84103" lon="-0.46881">
        <ele>1546.6</ele>
        <time>2021-08-10 09:45:58</time>
      </trkpt>
      <trkpt lat="42.84103" lon="-0.46881">
        <ele>1546.6</ele>
        <time>2021-08-10 09:45:59</time>
      </trkpt>
      <trkpt lat="42.84103" lon="-0.4688">
        <ele>1547</ele>
        <time>2021-08-10 09:46:00</time>
      </trkpt>
      <trkpt lat="42.84104" lon="-0.46879">
        <ele>1547</ele>
        <time>2021-08-10 09:46:01</time>
      </trkpt>
      <trkpt lat="42.84104" lon="-0.46879">
        <ele>1547.2</ele>
        <time>2021-08-10 09:46:02</time>
      </trkpt>
      <trkpt lat="42.84105" lon="-0.46879">
        <ele>1547.6</ele>
        <time>2021-08-10 09:46:03</time>
      </trkpt>
      <trkpt lat="42.84105" lon="-0.46879">
        <ele>1547.6</ele>
        <time>2021-08-10 09:46:04</time>
      </trkpt>
      <trkpt lat="42.84106" lon="-0.46879">
        <ele>1547.8</ele>
        <time>2021-08-10 09:46:05</time>
      </trkpt>
      <trkpt lat="42.84106" lon="-0.46879">
        <ele>1547.8</ele>
        <time>2021-08-10 09:46:06</time>
      </trkpt>
      <trkpt lat="42.84107" lon="-0.46879">
        <ele>1548</ele>
        <time>2021-08-10 09:46:07</time>
      </trkpt>
      <trkpt lat="42.84107" lon="-0.46878">
        <ele>1548</ele>
        <time>2021-08-10 09:46:08</time>
      </trkpt>
      <trkpt lat="42.84108" lon="-0.46877">
        <ele>1548.2</ele>
        <time>2021-08-10 09:46:09</time>
      </trkpt>
      <trkpt lat="42.84108" lon="-0.46877">
        <ele>1548.4</ele>
        <time>2021-08-10 09:46:10</time>
      </trkpt>
      <trkpt lat="42.84108" lon="-0.46877">
        <ele>1548.6</ele>
        <time>2021-08-10 09:46:11</time>
      </trkpt>
      <trkpt lat="42.84109" lon="-0.46876">
        <ele>1548.8</ele>
        <time>2021-08-10 09:46:12</time>
      </trkpt>
      <trkpt lat="42.84109" lon="-0.46876">
        <ele>1549</ele>
        <time>2021-08-10 09:46:13</time>
      </trkpt>
      <trkpt lat="42.84109" lon="-0.46875">
        <ele>1549.2</ele>
        <time>2021-08-10 09:46:14</time>
      </trkpt>
      <trkpt lat="42.84109" lon="-0.46874">
        <ele>1549.4</ele>
        <time>2021-08-10 09:46:15</time>
      </trkpt>
      <trkpt lat="42.8411" lon="-0.46874">
        <ele>1549.6</ele>
        <time>2021-08-10 09:46:16</time>
      </trkpt>
      <trkpt lat="42.8411" lon="-0.46874">
        <ele>1549.6</ele>
        <time>2021-08-10 09:46:17</time>
      </trkpt>
      <trkpt lat="42.8411" lon="-0.46874">
        <ele>1549.8</ele>
        <time>2021-08-10 09:46:18</time>
      </trkpt>
      <trkpt lat="42.84111" lon="-0.46876">
        <ele>1550</ele>
        <time>2021-08-10 09:46:19</time>
      </trkpt>
      <trkpt lat="42.84111" lon="-0.46877">
        <ele>1550</ele>
        <time>2021-08-10 09:46:21</time>
      </trkpt>
      <trkpt lat="42.84111" lon="-0.46877">
        <ele>1550.2</ele>
        <time>2021-08-10 09:46:22</time>
      </trkpt>
      <trkpt lat="42.84112" lon="-0.46877">
        <ele>1550.2</ele>
        <time>2021-08-10 09:46:23</time>
      </trkpt>
      <trkpt lat="42.84112" lon="-0.46877">
        <ele>1550.4</ele>
        <time>2021-08-10 09:46:24</time>
      </trkpt>
      <trkpt lat="42.84113" lon="-0.46877">
        <ele>1550.4</ele>
        <time>2021-08-10 09:46:25</time>
      </trkpt>
      <trkpt lat="42.84113" lon="-0.46877">
        <ele>1550.6</ele>
        <time>2021-08-10 09:46:26</time>
      </trkpt>
      <trkpt lat="42.84113" lon="-0.46876">
        <ele>1550.6</ele>
        <time>2021-08-10 09:46:27</time>
      </trkpt>
      <trkpt lat="42.84114" lon="-0.46876">
        <ele>1551</ele>
        <time>2021-08-10 09:46:28</time>
      </trkpt>
      <trkpt lat="42.84115" lon="-0.46875">
        <ele>1551</ele>
        <time>2021-08-10 09:46:29</time>
      </trkpt>
      <trkpt lat="42.84115" lon="-0.46875">
        <ele>1551.2</ele>
        <time>2021-08-10 09:46:30</time>
      </trkpt>
      <trkpt lat="42.84115" lon="-0.46874">
        <ele>1551</ele>
        <time>2021-08-10 09:46:31</time>
      </trkpt>
      <trkpt lat="42.84115" lon="-0.46874">
        <ele>1551.4</ele>
        <time>2021-08-10 09:46:32</time>
      </trkpt>
      <trkpt lat="42.84116" lon="-0.46874">
        <ele>1551.4</ele>
        <time>2021-08-10 09:46:33</time>
      </trkpt>
      <trkpt lat="42.84116" lon="-0.46873">
        <ele>1551.6</ele>
        <time>2021-08-10 09:46:34</time>
      </trkpt>
      <trkpt lat="42.84116" lon="-0.46872">
        <ele>1551.8</ele>
        <time>2021-08-10 09:46:35</time>
      </trkpt>
      <trkpt lat="42.84117" lon="-0.46871">
        <ele>1551.8</ele>
        <time>2021-08-10 09:46:36</time>
      </trkpt>
      <trkpt lat="42.84117" lon="-0.46871">
        <ele>1552</ele>
        <time>2021-08-10 09:46:37</time>
      </trkpt>
      <trkpt lat="42.84118" lon="-0.4687">
        <ele>1552.4</ele>
        <time>2021-08-10 09:46:38</time>
      </trkpt>
      <trkpt lat="42.84118" lon="-0.4687">
        <ele>1552.4</ele>
        <time>2021-08-10 09:46:39</time>
      </trkpt>
      <trkpt lat="42.84118" lon="-0.46869">
        <ele>1552.6</ele>
        <time>2021-08-10 09:46:40</time>
      </trkpt>
      <trkpt lat="42.84118" lon="-0.46869">
        <ele>1552.8</ele>
        <time>2021-08-10 09:46:41</time>
      </trkpt>
      <trkpt lat="42.84119" lon="-0.46869">
        <ele>1553</ele>
        <time>2021-08-10 09:46:42</time>
      </trkpt>
      <trkpt lat="42.84119" lon="-0.46869">
        <ele>1552.8</ele>
        <time>2021-08-10 09:46:43</time>
      </trkpt>
      <trkpt lat="42.8412" lon="-0.46869">
        <ele>1553</ele>
        <time>2021-08-10 09:46:44</time>
      </trkpt>
      <trkpt lat="42.84121" lon="-0.46869">
        <ele>1553.2</ele>
        <time>2021-08-10 09:46:45</time>
      </trkpt>
      <trkpt lat="42.84122" lon="-0.46869">
        <ele>1553.4</ele>
        <time>2021-08-10 09:46:46</time>
      </trkpt>
      <trkpt lat="42.84122" lon="-0.46869">
        <ele>1553.4</ele>
        <time>2021-08-10 09:46:47</time>
      </trkpt>
      <trkpt lat="42.84123" lon="-0.46869">
        <ele>1553.4</ele>
        <time>2021-08-10 09:46:48</time>
      </trkpt>
      <trkpt lat="42.84123" lon="-0.46869">
        <ele>1553.6</ele>
        <time>2021-08-10 09:46:49</time>
      </trkpt>
      <trkpt lat="42.84124" lon="-0.46869">
        <ele>1553.6</ele>
        <time>2021-08-10 09:46:50</time>
      </trkpt>
      <trkpt lat="42.84124" lon="-0.46868">
        <ele>1553.8</ele>
        <time>2021-08-10 09:46:51</time>
      </trkpt>
      <trkpt lat="42.84124" lon="-0.46868">
        <ele>1554</ele>
        <time>2021-08-10 09:46:52</time>
      </trkpt>
      <trkpt lat="42.84125" lon="-0.46867">
        <ele>1554.2</ele>
        <time>2021-08-10 09:46:53</time>
      </trkpt>
      <trkpt lat="42.84125" lon="-0.46867">
        <ele>1554.4</ele>
        <time>2021-08-10 09:46:54</time>
      </trkpt>
      <trkpt lat="42.84126" lon="-0.46867">
        <ele>1554.6</ele>
        <time>2021-08-10 09:46:55</time>
      </trkpt>
      <trkpt lat="42.84126" lon="-0.46866">
        <ele>1554.6</ele>
        <time>2021-08-10 09:46:56</time>
      </trkpt>
      <trkpt lat="42.84127" lon="-0.46865">
        <ele>1554.8</ele>
        <time>2021-08-10 09:46:57</time>
      </trkpt>
      <trkpt lat="42.84127" lon="-0.46865">
        <ele>1554.8</ele>
        <time>2021-08-10 09:46:58</time>
      </trkpt>
      <trkpt lat="42.84128" lon="-0.46865">
        <ele>1555.2</ele>
        <time>2021-08-10 09:46:59</time>
      </trkpt>
      <trkpt lat="42.84128" lon="-0.46864">
        <ele>1555.4</ele>
        <time>2021-08-10 09:47:00</time>
      </trkpt>
      <trkpt lat="42.84129" lon="-0.46864">
        <ele>1555.6</ele>
        <time>2021-08-10 09:47:01</time>
      </trkpt>
      <trkpt lat="42.84129" lon="-0.46864">
        <ele>1555.8</ele>
        <time>2021-08-10 09:47:02</time>
      </trkpt>
      <trkpt lat="42.8413" lon="-0.46863">
        <ele>1556</ele>
        <time>2021-08-10 09:47:03</time>
      </trkpt>
      <trkpt lat="42.8413" lon="-0.46863">
        <ele>1556</ele>
        <time>2021-08-10 09:47:04</time>
      </trkpt>
      <trkpt lat="42.8413" lon="-0.46861">
        <ele>1556.2</ele>
        <time>2021-08-10 09:47:05</time>
      </trkpt>
      <trkpt lat="42.8413" lon="-0.4686">
        <ele>1556.4</ele>
        <time>2021-08-10 09:47:06</time>
      </trkpt>
      <trkpt lat="42.8413" lon="-0.4686">
        <ele>1556.6</ele>
        <time>2021-08-10 09:47:09</time>
      </trkpt>
      <trkpt lat="42.8413" lon="-0.46859">
        <ele>1556.8</ele>
        <time>2021-08-10 09:47:10</time>
      </trkpt>
      <trkpt lat="42.8413" lon="-0.46859">
        <ele>1556.8</ele>
        <time>2021-08-10 09:47:11</time>
      </trkpt>
      <trkpt lat="42.84129" lon="-0.46858">
        <ele>1556.8</ele>
        <time>2021-08-10 09:47:12</time>
      </trkpt>
      <trkpt lat="42.84129" lon="-0.46858">
        <ele>1557</ele>
        <time>2021-08-10 09:47:13</time>
      </trkpt>
      <trkpt lat="42.84129" lon="-0.46858">
        <ele>1557.2</ele>
        <time>2021-08-10 09:47:14</time>
      </trkpt>
      <trkpt lat="42.84128" lon="-0.46857">
        <ele>1557.4</ele>
        <time>2021-08-10 09:47:15</time>
      </trkpt>
      <trkpt lat="42.84128" lon="-0.46857">
        <ele>1557.6</ele>
        <time>2021-08-10 09:47:16</time>
      </trkpt>
      <trkpt lat="42.84127" lon="-0.46857">
        <ele>1557.6</ele>
        <time>2021-08-10 09:47:17</time>
      </trkpt>
      <trkpt lat="42.84127" lon="-0.46858">
        <ele>1557.8</ele>
        <time>2021-08-10 09:47:18</time>
      </trkpt>
      <trkpt lat="42.84127" lon="-0.46857">
        <ele>1558</ele>
        <time>2021-08-10 09:47:19</time>
      </trkpt>
      <trkpt lat="42.84126" lon="-0.46857">
        <ele>1558</ele>
        <time>2021-08-10 09:47:20</time>
      </trkpt>
      <trkpt lat="42.84126" lon="-0.46856">
        <ele>1558</ele>
        <time>2021-08-10 09:47:21</time>
      </trkpt>
      <trkpt lat="42.84125" lon="-0.46856">
        <ele>1558.2</ele>
        <time>2021-08-10 09:47:22</time>
      </trkpt>
      <trkpt lat="42.84125" lon="-0.46855">
        <ele>1558.4</ele>
        <time>2021-08-10 09:47:23</time>
      </trkpt>
      <trkpt lat="42.84125" lon="-0.46854">
        <ele>1558.8</ele>
        <time>2021-08-10 09:47:24</time>
      </trkpt>
      <trkpt lat="42.84125" lon="-0.46853">
        <ele>1559</ele>
        <time>2021-08-10 09:47:25</time>
      </trkpt>
      <trkpt lat="42.84125" lon="-0.46852">
        <ele>1559.2</ele>
        <time>2021-08-10 09:47:26</time>
      </trkpt>
      <trkpt lat="42.84126" lon="-0.46852">
        <ele>1559.2</ele>
        <time>2021-08-10 09:47:27</time>
      </trkpt>
      <trkpt lat="42.84126" lon="-0.46851">
        <ele>1559.4</ele>
        <time>2021-08-10 09:47:28</time>
      </trkpt>
      <trkpt lat="42.84126" lon="-0.4685">
        <ele>1559.6</ele>
        <time>2021-08-10 09:47:29</time>
      </trkpt>
      <trkpt lat="42.84127" lon="-0.4685">
        <ele>1559.6</ele>
        <time>2021-08-10 09:47:30</time>
      </trkpt>
      <trkpt lat="42.84127" lon="-0.46849">
        <ele>1559.8</ele>
        <time>2021-08-10 09:47:31</time>
      </trkpt>
      <trkpt lat="42.84127" lon="-0.46849">
        <ele>1560</ele>
        <time>2021-08-10 09:47:32</time>
      </trkpt>
      <trkpt lat="42.84127" lon="-0.46848">
        <ele>1560</ele>
        <time>2021-08-10 09:47:33</time>
      </trkpt>
      <trkpt lat="42.84127" lon="-0.46848">
        <ele>1560.2</ele>
        <time>2021-08-10 09:47:34</time>
      </trkpt>
      <trkpt lat="42.84128" lon="-0.46847">
        <ele>1560.2</ele>
        <time>2021-08-10 09:47:35</time>
      </trkpt>
      <trkpt lat="42.84129" lon="-0.46847">
        <ele>1560.6</ele>
        <time>2021-08-10 09:47:36</time>
      </trkpt>
      <trkpt lat="42.84129" lon="-0.46846">
        <ele>1560.8</ele>
        <time>2021-08-10 09:47:37</time>
      </trkpt>
      <trkpt lat="42.8413" lon="-0.46846">
        <ele>1561</ele>
        <time>2021-08-10 09:47:38</time>
      </trkpt>
      <trkpt lat="42.84131" lon="-0.46845">
        <ele>1561</ele>
        <time>2021-08-10 09:47:39</time>
      </trkpt>
      <trkpt lat="42.84132" lon="-0.46844">
        <ele>1561.2</ele>
        <time>2021-08-10 09:47:40</time>
      </trkpt>
      <trkpt lat="42.84132" lon="-0.46844">
        <ele>1561.2</ele>
        <time>2021-08-10 09:47:41</time>
      </trkpt>
      <trkpt lat="42.84132" lon="-0.46843">
        <ele>1561.2</ele>
        <time>2021-08-10 09:47:42</time>
      </trkpt>
      <trkpt lat="42.84132" lon="-0.46842">
        <ele>1561.6</ele>
        <time>2021-08-10 09:47:43</time>
      </trkpt>
      <trkpt lat="42.84132" lon="-0.46841">
        <ele>1561.6</ele>
        <time>2021-08-10 09:47:44</time>
      </trkpt>
      <trkpt lat="42.84133" lon="-0.46841">
        <ele>1561.8</ele>
        <time>2021-08-10 09:47:45</time>
      </trkpt>
      <trkpt lat="42.84133" lon="-0.46839">
        <ele>1562</ele>
        <time>2021-08-10 09:47:46</time>
      </trkpt>
      <trkpt lat="42.84134" lon="-0.46837">
        <ele>1562</ele>
        <time>2021-08-10 09:47:47</time>
      </trkpt>
      <trkpt lat="42.84134" lon="-0.46836">
        <ele>1562.4</ele>
        <time>2021-08-10 09:47:48</time>
      </trkpt>
      <trkpt lat="42.84135" lon="-0.46835">
        <ele>1562.6</ele>
        <time>2021-08-10 09:47:49</time>
      </trkpt>
      <trkpt lat="42.84135" lon="-0.46835">
        <ele>1562.6</ele>
        <time>2021-08-10 09:47:50</time>
      </trkpt>
      <trkpt lat="42.84135" lon="-0.46834">
        <ele>1562.8</ele>
        <time>2021-08-10 09:47:51</time>
      </trkpt>
      <trkpt lat="42.84135" lon="-0.46833">
        <ele>1562.8</ele>
        <time>2021-08-10 09:47:52</time>
      </trkpt>
      <trkpt lat="42.84136" lon="-0.46832">
        <ele>1563.2</ele>
        <time>2021-08-10 09:47:53</time>
      </trkpt>
      <trkpt lat="42.84136" lon="-0.46831">
        <ele>1563.6</ele>
        <time>2021-08-10 09:47:54</time>
      </trkpt>
      <trkpt lat="42.84136" lon="-0.4683">
        <ele>1563.6</ele>
        <time>2021-08-10 09:47:55</time>
      </trkpt>
      <trkpt lat="42.84137" lon="-0.46828">
        <ele>1563.8</ele>
        <time>2021-08-10 09:47:56</time>
      </trkpt>
      <trkpt lat="42.84137" lon="-0.46828">
        <ele>1563.8</ele>
        <time>2021-08-10 09:47:57</time>
      </trkpt>
      <trkpt lat="42.84137" lon="-0.46828">
        <ele>1564</ele>
        <time>2021-08-10 09:47:58</time>
      </trkpt>
      <trkpt lat="42.84138" lon="-0.46828">
        <ele>1564.4</ele>
        <time>2021-08-10 09:47:59</time>
      </trkpt>
      <trkpt lat="42.84139" lon="-0.46828">
        <ele>1564.4</ele>
        <time>2021-08-10 09:48:00</time>
      </trkpt>
      <trkpt lat="42.84139" lon="-0.46828">
        <ele>1564.6</ele>
        <time>2021-08-10 09:48:01</time>
      </trkpt>
      <trkpt lat="42.84139" lon="-0.46827">
        <ele>1564.8</ele>
        <time>2021-08-10 09:48:02</time>
      </trkpt>
      <trkpt lat="42.84139" lon="-0.46828">
        <ele>1565</ele>
        <time>2021-08-10 09:48:03</time>
      </trkpt>
      <trkpt lat="42.8414" lon="-0.46828">
        <ele>1565.2</ele>
        <time>2021-08-10 09:48:04</time>
      </trkpt>
      <trkpt lat="42.8414" lon="-0.46828">
        <ele>1565.4</ele>
        <time>2021-08-10 09:48:05</time>
      </trkpt>
      <trkpt lat="42.8414" lon="-0.46828">
        <ele>1565.4</ele>
        <time>2021-08-10 09:48:06</time>
      </trkpt>
      <trkpt lat="42.84141" lon="-0.46829">
        <ele>1565.4</ele>
        <time>2021-08-10 09:48:07</time>
      </trkpt>
      <trkpt lat="42.84141" lon="-0.46828">
        <ele>1565.8</ele>
        <time>2021-08-10 09:48:08</time>
      </trkpt>
      <trkpt lat="42.84142" lon="-0.46828">
        <ele>1565.8</ele>
        <time>2021-08-10 09:48:09</time>
      </trkpt>
      <trkpt lat="42.84142" lon="-0.46828">
        <ele>1566</ele>
        <time>2021-08-10 09:48:10</time>
      </trkpt>
      <trkpt lat="42.84142" lon="-0.46829">
        <ele>1566.2</ele>
        <time>2021-08-10 09:48:11</time>
      </trkpt>
      <trkpt lat="42.84143" lon="-0.46831">
        <ele>1566.4</ele>
        <time>2021-08-10 09:48:12</time>
      </trkpt>
      <trkpt lat="42.84143" lon="-0.46834">
        <ele>1566.6</ele>
        <time>2021-08-10 09:48:13</time>
      </trkpt>
      <trkpt lat="42.84144" lon="-0.46835">
        <ele>1566.8</ele>
        <time>2021-08-10 09:48:14</time>
      </trkpt>
      <trkpt lat="42.84144" lon="-0.46836">
        <ele>1566.8</ele>
        <time>2021-08-10 09:48:15</time>
      </trkpt>
      <trkpt lat="42.84145" lon="-0.46836">
        <ele>1566.6</ele>
        <time>2021-08-10 09:48:16</time>
      </trkpt>
      <trkpt lat="42.84144" lon="-0.46836">
        <ele>1566.6</ele>
        <time>2021-08-10 09:48:17</time>
      </trkpt>
      <trkpt lat="42.84144" lon="-0.46837">
        <ele>1566.6</ele>
        <time>2021-08-10 09:48:18</time>
      </trkpt>
      <trkpt lat="42.84144" lon="-0.46837">
        <ele>1566.6</ele>
        <time>2021-08-10 09:48:19</time>
      </trkpt>
      <trkpt lat="42.84147" lon="-0.46836">
        <ele>1566.8</ele>
        <time>2021-08-10 09:48:20</time>
      </trkpt>
      <trkpt lat="42.84147" lon="-0.46836">
        <ele>1566.8</ele>
        <time>2021-08-10 09:48:21</time>
      </trkpt>
      <trkpt lat="42.84148" lon="-0.46836">
        <ele>1567.2</ele>
        <time>2021-08-10 09:48:22</time>
      </trkpt>
      <trkpt lat="42.84148" lon="-0.46836">
        <ele>1567.2</ele>
        <time>2021-08-10 09:48:23</time>
      </trkpt>
      <trkpt lat="42.84149" lon="-0.46836">
        <ele>1567.4</ele>
        <time>2021-08-10 09:48:24</time>
      </trkpt>
      <trkpt lat="42.84148" lon="-0.46835">
        <ele>1567.6</ele>
        <time>2021-08-10 09:48:25</time>
      </trkpt>
      <trkpt lat="42.84149" lon="-0.46835">
        <ele>1567.8</ele>
        <time>2021-08-10 09:48:26</time>
      </trkpt>
      <trkpt lat="42.8415" lon="-0.46835">
        <ele>1567.8</ele>
        <time>2021-08-10 09:48:27</time>
      </trkpt>
      <trkpt lat="42.8415" lon="-0.46836">
        <ele>1568</ele>
        <time>2021-08-10 09:48:28</time>
      </trkpt>
      <trkpt lat="42.8415" lon="-0.46835">
        <ele>1568.2</ele>
        <time>2021-08-10 09:48:29</time>
      </trkpt>
      <trkpt lat="42.8415" lon="-0.46835">
        <ele>1568.4</ele>
        <time>2021-08-10 09:48:30</time>
      </trkpt>
      <trkpt lat="42.84151" lon="-0.46835">
        <ele>1568.8</ele>
        <time>2021-08-10 09:48:31</time>
      </trkpt>
      <trkpt lat="42.84151" lon="-0.46834">
        <ele>1568.8</ele>
        <time>2021-08-10 09:48:32</time>
      </trkpt>
      <trkpt lat="42.84151" lon="-0.46834">
        <ele>1569</ele>
        <time>2021-08-10 09:48:33</time>
      </trkpt>
      <trkpt lat="42.84152" lon="-0.46833">
        <ele>1569.2</ele>
        <time>2021-08-10 09:48:34</time>
      </trkpt>
      <trkpt lat="42.84152" lon="-0.46833">
        <ele>1569.2</ele>
        <time>2021-08-10 09:48:35</time>
      </trkpt>
      <trkpt lat="42.84153" lon="-0.46833">
        <ele>1569.4</ele>
        <time>2021-08-10 09:48:36</time>
      </trkpt>
      <trkpt lat="42.84153" lon="-0.46833">
        <ele>1569.4</ele>
        <time>2021-08-10 09:48:37</time>
      </trkpt>
      <trkpt lat="42.84153" lon="-0.46833">
        <ele>1569.6</ele>
        <time>2021-08-10 09:48:38</time>
      </trkpt>
      <trkpt lat="42.84153" lon="-0.46833">
        <ele>1569.8</ele>
        <time>2021-08-10 09:48:39</time>
      </trkpt>
      <trkpt lat="42.84154" lon="-0.46832">
        <ele>1569.8</ele>
        <time>2021-08-10 09:48:40</time>
      </trkpt>
      <trkpt lat="42.84155" lon="-0.46832">
        <ele>1569.8</ele>
        <time>2021-08-10 09:48:41</time>
      </trkpt>
      <trkpt lat="42.84155" lon="-0.46832">
        <ele>1570</ele>
        <time>2021-08-10 09:48:42</time>
      </trkpt>
      <trkpt lat="42.84155" lon="-0.46831">
        <ele>1570</ele>
        <time>2021-08-10 09:48:43</time>
      </trkpt>
      <trkpt lat="42.84156" lon="-0.46831">
        <ele>1570.4</ele>
        <time>2021-08-10 09:48:44</time>
      </trkpt>
      <trkpt lat="42.84156" lon="-0.46831">
        <ele>1570.6</ele>
        <time>2021-08-10 09:48:45</time>
      </trkpt>
      <trkpt lat="42.84157" lon="-0.4683">
        <ele>1571</ele>
        <time>2021-08-10 09:48:46</time>
      </trkpt>
      <trkpt lat="42.84157" lon="-0.4683">
        <ele>1571</ele>
        <time>2021-08-10 09:48:47</time>
      </trkpt>
      <trkpt lat="42.84158" lon="-0.4683">
        <ele>1571</ele>
        <time>2021-08-10 09:48:48</time>
      </trkpt>
      <trkpt lat="42.84158" lon="-0.46829">
        <ele>1571</ele>
        <time>2021-08-10 09:48:49</time>
      </trkpt>
      <trkpt lat="42.84158" lon="-0.46829">
        <ele>1571.4</ele>
        <time>2021-08-10 09:48:50</time>
      </trkpt>
      <trkpt lat="42.84159" lon="-0.46827">
        <ele>1571.8</ele>
        <time>2021-08-10 09:48:51</time>
      </trkpt>
      <trkpt lat="42.84159" lon="-0.46827">
        <ele>1571.8</ele>
        <time>2021-08-10 09:48:52</time>
      </trkpt>
      <trkpt lat="42.8416" lon="-0.46827">
        <ele>1571.8</ele>
        <time>2021-08-10 09:48:53</time>
      </trkpt>
      <trkpt lat="42.8416" lon="-0.46826">
        <ele>1571.8</ele>
        <time>2021-08-10 09:48:54</time>
      </trkpt>
      <trkpt lat="42.8416" lon="-0.46826">
        <ele>1572.2</ele>
        <time>2021-08-10 09:48:55</time>
      </trkpt>
      <trkpt lat="42.84161" lon="-0.46825">
        <ele>1572.6</ele>
        <time>2021-08-10 09:48:56</time>
      </trkpt>
      <trkpt lat="42.84161" lon="-0.46825">
        <ele>1572.4</ele>
        <time>2021-08-10 09:48:57</time>
      </trkpt>
      <trkpt lat="42.84162" lon="-0.46824">
        <ele>1572.6</ele>
        <time>2021-08-10 09:48:58</time>
      </trkpt>
      <trkpt lat="42.84162" lon="-0.46824">
        <ele>1572.6</ele>
        <time>2021-08-10 09:48:59</time>
      </trkpt>
      <trkpt lat="42.84162" lon="-0.46824">
        <ele>1573</ele>
        <time>2021-08-10 09:49:00</time>
      </trkpt>
      <trkpt lat="42.84163" lon="-0.46823">
        <ele>1573.4</ele>
        <time>2021-08-10 09:49:01</time>
      </trkpt>
      <trkpt lat="42.84163" lon="-0.46822">
        <ele>1573.4</ele>
        <time>2021-08-10 09:49:14</time>
      </trkpt>
      <trkpt lat="42.84163" lon="-0.46822">
        <ele>1573</ele>
        <time>2021-08-10 09:49:15</time>
      </trkpt>
      <trkpt lat="42.84164" lon="-0.46821">
        <ele>1573</ele>
        <time>2021-08-10 09:49:16</time>
      </trkpt>
      <trkpt lat="42.84164" lon="-0.46822">
        <ele>1573.4</ele>
        <time>2021-08-10 09:49:17</time>
      </trkpt>
      <trkpt lat="42.84164" lon="-0.46821">
        <ele>1573.8</ele>
        <time>2021-08-10 09:49:33</time>
      </trkpt>
      <trkpt lat="42.84164" lon="-0.46821">
        <ele>1574</ele>
        <time>2021-08-10 09:49:34</time>
      </trkpt>
      <trkpt lat="42.84165" lon="-0.46821">
        <ele>1574</ele>
        <time>2021-08-10 09:49:35</time>
      </trkpt>
      <trkpt lat="42.84165" lon="-0.4682">
        <ele>1574</ele>
        <time>2021-08-10 09:49:36</time>
      </trkpt>
      <trkpt lat="42.84165" lon="-0.4682">
        <ele>1574.2</ele>
        <time>2021-08-10 09:49:37</time>
      </trkpt>
      <trkpt lat="42.84166" lon="-0.4682">
        <ele>1574.4</ele>
        <time>2021-08-10 09:49:38</time>
      </trkpt>
      <trkpt lat="42.84166" lon="-0.4682">
        <ele>1574.8</ele>
      </trkpt>
      <trkpt lat="42.84167" lon="-0.46819">
        <ele>1575</ele>
        <time>2021-08-10 09:49:39</time>
      </trkpt>
      <trkpt lat="42.84167" lon="-0.46819">
        <ele>1575.2</ele>
        <time>2021-08-10 09:49:40</time>
      </trkpt>
      <trkpt lat="42.84167" lon="-0.46818">
        <ele>1575.2</ele>
        <time>2021-08-10 09:49:42</time>
      </trkpt>
      <trkpt lat="42.84168" lon="-0.46817">
        <ele>1575.4</ele>
      </trkpt>
      <trkpt lat="42.84168" lon="-0.46817">
        <ele>1575.6</ele>
        <time>2021-08-10 09:49:43</time>
      </trkpt>
      <trkpt lat="42.84168" lon="-0.46816">
        <ele>1575.6</ele>
        <time>2021-08-10 09:49:44</time>
      </trkpt>
      <trkpt lat="42.84169" lon="-0.46816">
        <ele>1575.8</ele>
        <time>2021-08-10 09:49:45</time>
      </trkpt>
      <trkpt lat="42.84169" lon="-0.46816">
        <ele>1576</ele>
        <time>2021-08-10 09:49:46</time>
      </trkpt>
      <trkpt lat="42.84169" lon="-0.46815">
        <ele>1576</ele>
        <time>2021-08-10 09:49:47</time>
      </trkpt>
      <trkpt lat="42.84169" lon="-0.46814">
        <ele>1576.4</ele>
        <time>2021-08-10 09:49:48</time>
      </trkpt>
      <trkpt lat="42.8417" lon="-0.46813">
        <ele>1576.6</ele>
        <time>2021-08-10 09:49:49</time>
      </trkpt>
      <trkpt lat="42.8417" lon="-0.46813">
        <ele>1576.2</ele>
        <time>2021-08-10 09:49:50</time>
      </trkpt>
      <trkpt lat="42.84171" lon="-0.46813">
        <ele>1576.6</ele>
        <time>2021-08-10 09:49:51</time>
      </trkpt>
      <trkpt lat="42.84171" lon="-0.46812">
        <ele>1576.6</ele>
        <time>2021-08-10 09:49:52</time>
      </trkpt>
      <trkpt lat="42.84172" lon="-0.46812">
        <ele>1577.2</ele>
        <time>2021-08-10 09:49:53</time>
      </trkpt>
      <trkpt lat="42.84172" lon="-0.46811">
        <ele>1577.4</ele>
        <time>2021-08-10 09:49:54</time>
      </trkpt>
      <trkpt lat="42.84173" lon="-0.46811">
        <ele>1577.6</ele>
        <time>2021-08-10 09:49:55</time>
      </trkpt>
      <trkpt lat="42.84173" lon="-0.46811">
        <ele>1577.6</ele>
        <time>2021-08-10 09:49:56</time>
      </trkpt>
      <trkpt lat="42.84174" lon="-0.46811">
        <ele>1577.2</ele>
        <time>2021-08-10 09:49:57</time>
      </trkpt>
      <trkpt lat="42.84174" lon="-0.4681">
        <ele>1577.6</ele>
        <time>2021-08-10 09:49:58</time>
      </trkpt>
      <trkpt lat="42.84174" lon="-0.4681">
        <ele>1578.6</ele>
        <time>2021-08-10 09:49:59</time>
      </trkpt>
      <trkpt lat="42.84175" lon="-0.4681">
        <ele>1578.6</ele>
        <time>2021-08-10 09:50:00</time>
      </trkpt>
      <trkpt lat="42.84174" lon="-0.4681">
        <ele>1578.6</ele>
        <time>2021-08-10 09:50:02</time>
      </trkpt>
      <trkpt lat="42.84175" lon="-0.4681">
        <ele>1578.6</ele>
      </trkpt>
      <trkpt lat="42.84175" lon="-0.4681">
        <ele>1578.6</ele>
        <time>2021-08-10 09:50:03</time>
      </trkpt>
      <trkpt lat="42.84175" lon="-0.46809">
        <ele>1578.4</ele>
        <time>2021-08-10 09:50:04</time>
      </trkpt>
      <trkpt lat="42.84176" lon="-0.46809">
        <ele>1578.6</ele>
        <time>2021-08-10 09:50:05</time>
      </trkpt>
      <trkpt lat="42.84176" lon="-0.4681">
        <ele>1579.2</ele>
        <time>2021-08-10 09:50:06</time>
      </trkpt>
      <trkpt lat="42.84176" lon="-0.4681">
        <ele>1579.2</ele>
        <time>2021-08-10 09:50:07</time>
      </trkpt>
      <trkpt lat="42.84176" lon="-0.4681">
        <ele>1579.6</ele>
        <time>2021-08-10 09:50:08</time>
      </trkpt>
      <trkpt lat="42.84177" lon="-0.46809">
        <ele>1579.6</ele>
        <time>2021-08-10 09:50:09</time>
      </trkpt>
      <trkpt lat="42.84178" lon="-0.4681">
        <ele>1579.8</ele>
        <time>2021-08-10 09:50:10</time>
      </trkpt>
      <trkpt lat="42.84178" lon="-0.4681">
        <ele>1580</ele>
        <time>2021-08-10 09:50:11</time>
      </trkpt>
      <trkpt lat="42.84178" lon="-0.4681">
        <ele>1580.2</ele>
        <time>2021-08-10 09:50:12</time>
      </trkpt>
      <trkpt lat="42.84178" lon="-0.4681">
        <ele>1580.4</ele>
        <time>2021-08-10 09:50:13</time>
      </trkpt>
      <trkpt lat="42.84179" lon="-0.46809">
        <ele>1580.6</ele>
        <time>2021-08-10 09:50:14</time>
      </trkpt>
      <trkpt lat="42.84179" lon="-0.46809">
        <ele>1580.8</ele>
        <time>2021-08-10 09:50:15</time>
      </trkpt>
      <trkpt lat="42.8418" lon="-0.46809">
        <ele>1581</ele>
        <time>2021-08-10 09:50:16</time>
      </trkpt>
      <trkpt lat="42.8418" lon="-0.46809">
        <ele>1581</ele>
        <time>2021-08-10 09:50:17</time>
      </trkpt>
      <trkpt lat="42.84181" lon="-0.46809">
        <ele>1581.4</ele>
        <time>2021-08-10 09:50:18</time>
      </trkpt>
      <trkpt lat="42.84181" lon="-0.46808">
        <ele>1581.6</ele>
        <time>2021-08-10 09:50:19</time>
      </trkpt>
      <trkpt lat="42.84181" lon="-0.46807">
        <ele>1581.6</ele>
        <time>2021-08-10 09:50:20</time>
      </trkpt>
      <trkpt lat="42.84181" lon="-0.46807">
        <ele>1581.6</ele>
        <time>2021-08-10 09:50:21</time>
      </trkpt>
      <trkpt lat="42.84181" lon="-0.46806">
        <ele>1581.8</ele>
        <time>2021-08-10 09:50:22</time>
      </trkpt>
      <trkpt lat="42.8418" lon="-0.46807">
        <ele>1582</ele>
        <time>2021-08-10 09:50:23</time>
      </trkpt>
      <trkpt lat="42.8418" lon="-0.46808">
        <ele>1582</ele>
        <time>2021-08-10 09:50:24</time>
      </trkpt>
      <trkpt lat="42.8418" lon="-0.46808">
        <ele>1582.2</ele>
        <time>2021-08-10 09:50:25</time>
      </trkpt>
      <trkpt lat="42.84181" lon="-0.46806">
        <ele>1582.4</ele>
        <time>2021-08-10 09:50:26</time>
      </trkpt>
      <trkpt lat="42.84181" lon="-0.46805">
        <ele>1582.6</ele>
        <time>2021-08-10 09:50:27</time>
      </trkpt>
      <trkpt lat="42.84182" lon="-0.46802">
        <ele>1582.6</ele>
        <time>2021-08-10 09:50:28</time>
      </trkpt>
      <trkpt lat="42.84184" lon="-0.468">
        <ele>1582.6</ele>
        <time>2021-08-10 09:50:29</time>
      </trkpt>
      <trkpt lat="42.84187" lon="-0.46796">
        <ele>1582.8</ele>
        <time>2021-08-10 09:50:30</time>
      </trkpt>
      <trkpt lat="42.84186" lon="-0.46797">
        <ele>1583</ele>
        <time>2021-08-10 09:50:31</time>
      </trkpt>
      <trkpt lat="42.84185" lon="-0.46799">
        <ele>1583.2</ele>
        <time>2021-08-10 09:50:32</time>
      </trkpt>
      <trkpt lat="42.84185" lon="-0.46801">
        <ele>1583.4</ele>
        <time>2021-08-10 09:50:33</time>
      </trkpt>
      <trkpt lat="42.84185" lon="-0.46801">
        <ele>1583.6</ele>
        <time>2021-08-10 09:50:34</time>
      </trkpt>
      <trkpt lat="42.84185" lon="-0.46802">
        <ele>1583.8</ele>
        <time>2021-08-10 09:50:35</time>
      </trkpt>
      <trkpt lat="42.84184" lon="-0.46804">
        <ele>1584</ele>
        <time>2021-08-10 09:50:36</time>
      </trkpt>
      <trkpt lat="42.84183" lon="-0.46805">
        <ele>1584</ele>
        <time>2021-08-10 09:50:37</time>
      </trkpt>
      <trkpt lat="42.84182" lon="-0.46806">
        <ele>1584</ele>
        <time>2021-08-10 09:50:38</time>
      </trkpt>
      <trkpt lat="42.8418" lon="-0.46808">
        <ele>1584</ele>
        <time>2021-08-10 09:50:39</time>
      </trkpt>
      <trkpt lat="42.8418" lon="-0.46808">
        <ele>1584.2</ele>
        <time>2021-08-10 09:50:40</time>
      </trkpt>
      <trkpt lat="42.8418" lon="-0.46808">
        <ele>1584.2</ele>
        <time>2021-08-10 09:50:41</time>
      </trkpt>
      <trkpt lat="42.84179" lon="-0.46808">
        <ele>1584.4</ele>
        <time>2021-08-10 09:50:42</time>
      </trkpt>
      <trkpt lat="42.84178" lon="-0.46809">
        <ele>1584.6</ele>
        <time>2021-08-10 09:50:43</time>
      </trkpt>
      <trkpt lat="42.84177" lon="-0.4681">
        <ele>1584.8</ele>
        <time>2021-08-10 09:50:44</time>
      </trkpt>
      <trkpt lat="42.84176" lon="-0.46811">
        <ele>1584.8</ele>
        <time>2021-08-10 09:50:45</time>
      </trkpt>
      <trkpt lat="42.84175" lon="-0.46812">
        <ele>1584.8</ele>
        <time>2021-08-10 09:50:46</time>
      </trkpt>
      <trkpt lat="42.84175" lon="-0.46812">
        <ele>1585</ele>
        <time>2021-08-10 09:50:47</time>
      </trkpt>
      <trkpt lat="42.84174" lon="-0.46814">
        <ele>1585.2</ele>
        <time>2021-08-10 09:50:48</time>
      </trkpt>
      <trkpt lat="42.84173" lon="-0.46816">
        <ele>1585.4</ele>
        <time>2021-08-10 09:50:49</time>
      </trkpt>
      <trkpt lat="42.84173" lon="-0.46818">
        <ele>1585.8</ele>
        <time>2021-08-10 09:50:50</time>
      </trkpt>
      <trkpt lat="42.84172" lon="-0.4682">
        <ele>1585.8</ele>
        <time>2021-08-10 09:50:51</time>
      </trkpt>
      <trkpt lat="42.84172" lon="-0.46822">
        <ele>1586</ele>
        <time>2021-08-10 09:50:52</time>
      </trkpt>
      <trkpt lat="42.84172" lon="-0.46823">
        <ele>1586</ele>
        <time>2021-08-10 09:50:53</time>
      </trkpt>
      <trkpt lat="42.84172" lon="-0.46824">
        <ele>1586</ele>
        <time>2021-08-10 09:50:54</time>
      </trkpt>
      <trkpt lat="42.84171" lon="-0.46825">
        <ele>1586.4</ele>
        <time>2021-08-10 09:50:55</time>
      </trkpt>
      <trkpt lat="42.8417" lon="-0.46826">
        <ele>1586.6</ele>
        <time>2021-08-10 09:50:56</time>
      </trkpt>
      <trkpt lat="42.84169" lon="-0.46828">
        <ele>1586.8</ele>
        <time>2021-08-10 09:50:57</time>
      </trkpt>
      <trkpt lat="42.84169" lon="-0.46828">
        <ele>1587</ele>
        <time>2021-08-10 09:50:58</time>
      </trkpt>
      <trkpt lat="42.84169" lon="-0.46828">
        <ele>1587.2</ele>
        <time>2021-08-10 09:50:59</time>
      </trkpt>
      <trkpt lat="42.84169" lon="-0.46828">
        <ele>1587.2</ele>
        <time>2021-08-10 09:51:00</time>
      </trkpt>
      <trkpt lat="42.84172" lon="-0.4683">
        <ele>1587.4</ele>
        <time>2021-08-10 09:51:01</time>
      </trkpt>
      <trkpt lat="42.84172" lon="-0.4683">
        <ele>1587.6</ele>
        <time>2021-08-10 09:51:02</time>
      </trkpt>
      <trkpt lat="42.84173" lon="-0.46829">
        <ele>1587.6</ele>
        <time>2021-08-10 09:51:03</time>
      </trkpt>
      <trkpt lat="42.84173" lon="-0.4683">
        <ele>1588</ele>
        <time>2021-08-10 09:51:04</time>
      </trkpt>
      <trkpt lat="42.84173" lon="-0.46829">
        <ele>1588</ele>
        <time>2021-08-10 09:51:05</time>
      </trkpt>
      <trkpt lat="42.84173" lon="-0.46829">
        <ele>1588.4</ele>
        <time>2021-08-10 09:51:06</time>
      </trkpt>
      <trkpt lat="42.84177" lon="-0.46824">
        <ele>1589</ele>
        <time>2021-08-10 09:51:07</time>
      </trkpt>
      <trkpt lat="42.84179" lon="-0.46821">
        <ele>1589.2</ele>
        <time>2021-08-10 09:51:08</time>
      </trkpt>
      <trkpt lat="42.84181" lon="-0.4682">
        <ele>1589.4</ele>
        <time>2021-08-10 09:51:09</time>
      </trkpt>
      <trkpt lat="42.84181" lon="-0.46819">
        <ele>1589.4</ele>
        <time>2021-08-10 09:51:10</time>
      </trkpt>
      <trkpt lat="42.84182" lon="-0.46817">
        <ele>1590</ele>
        <time>2021-08-10 09:51:11</time>
      </trkpt>
      <trkpt lat="42.84184" lon="-0.46814">
        <ele>1589.8</ele>
        <time>2021-08-10 09:51:12</time>
      </trkpt>
      <trkpt lat="42.84185" lon="-0.46813">
        <ele>1590</ele>
        <time>2021-08-10 09:51:13</time>
      </trkpt>
      <trkpt lat="42.84185" lon="-0.46813">
        <ele>1590</ele>
        <time>2021-08-10 09:51:14</time>
      </trkpt>
      <trkpt lat="42.84186" lon="-0.46813">
        <ele>1590</ele>
        <time>2021-08-10 09:51:15</time>
      </trkpt>
      <trkpt lat="42.84186" lon="-0.46814">
        <ele>1590</ele>
        <time>2021-08-10 09:51:16</time>
      </trkpt>
      <trkpt lat="42.84187" lon="-0.46814">
        <ele>1589.8</ele>
        <time>2021-08-10 09:51:17</time>
      </trkpt>
      <trkpt lat="42.84188" lon="-0.46814">
        <ele>1590</ele>
        <time>2021-08-10 09:51:18</time>
      </trkpt>
      <trkpt lat="42.84188" lon="-0.46814">
        <ele>1589.8</ele>
        <time>2021-08-10 09:51:19</time>
      </trkpt>
      <trkpt lat="42.84188" lon="-0.46813">
        <ele>1590</ele>
        <time>2021-08-10 09:51:20</time>
      </trkpt>
      <trkpt lat="42.84189" lon="-0.46812">
        <ele>1589.8</ele>
        <time>2021-08-10 09:51:21</time>
      </trkpt>
      <trkpt lat="42.84189" lon="-0.46812">
        <ele>1590</ele>
        <time>2021-08-10 09:51:22</time>
      </trkpt>
      <trkpt lat="42.84189" lon="-0.46812">
        <ele>1589.8</ele>
        <time>2021-08-10 09:51:23</time>
      </trkpt>
      <trkpt lat="42.84189" lon="-0.46811">
        <ele>1589.8</ele>
        <time>2021-08-10 09:51:24</time>
      </trkpt>
      <trkpt lat="42.84191" lon="-0.46812">
        <ele>1589.8</ele>
        <time>2021-08-10 09:51:25</time>
      </trkpt>
      <trkpt lat="42.84191" lon="-0.46812">
        <ele>1590</ele>
        <time>2021-08-10 09:51:26</time>
      </trkpt>
      <trkpt lat="42.84191" lon="-0.46812">
        <ele>1590</ele>
        <time>2021-08-10 09:51:27</time>
      </trkpt>
      <trkpt lat="42.84191" lon="-0.46812">
        <ele>1590</ele>
        <time>2021-08-10 09:51:28</time>
      </trkpt>
      <trkpt lat="42.84191" lon="-0.46812">
        <ele>1590</ele>
        <time>2021-08-10 09:51:29</time>
      </trkpt>
      <trkpt lat="42.84192" lon="-0.46812">
        <ele>1589.8</ele>
        <time>2021-08-10 09:51:30</time>
      </trkpt>
      <trkpt lat="42.84193" lon="-0.46811">
        <ele>1589.8</ele>
        <time>2021-08-10 09:51:31</time>
      </trkpt>
      <trkpt lat="42.84194" lon="-0.46809">
        <ele>1589.8</ele>
        <time>2021-08-10 09:51:32</time>
      </trkpt>
      <trkpt lat="42.84195" lon="-0.46808">
        <ele>1589.8</ele>
        <time>2021-08-10 09:51:33</time>
      </trkpt>
      <trkpt lat="42.84196" lon="-0.46806">
        <ele>1589.8</ele>
        <time>2021-08-10 09:51:34</time>
      </trkpt>
      <trkpt lat="42.84197" lon="-0.46804">
        <ele>1589.8</ele>
        <time>2021-08-10 09:51:35</time>
      </trkpt>
      <trkpt lat="42.84197" lon="-0.46803">
        <ele>1589.8</ele>
        <time>2021-08-10 09:51:36</time>
      </trkpt>
      <trkpt lat="42.842" lon="-0.46795">
        <ele>1590</ele>
        <time>2021-08-10 09:51:37</time>
      </trkpt>
      <trkpt lat="42.842" lon="-0.46794">
        <ele>1589.8</ele>
        <time>2021-08-10 09:51:38</time>
      </trkpt>
      <trkpt lat="42.842" lon="-0.46793">
        <ele>1589.8</ele>
        <time>2021-08-10 09:51:39</time>
      </trkpt>
      <trkpt lat="42.842" lon="-0.46794">
        <ele>1589.8</ele>
        <time>2021-08-10 09:51:40</time>
      </trkpt>
      <trkpt lat="42.842" lon="-0.46794">
        <ele>1589.8</ele>
        <time>2021-08-10 09:51:41</time>
      </trkpt>
      <trkpt lat="42.842" lon="-0.46794">
        <ele>1589.8</ele>
        <time>2021-08-10 09:51:42</time>
      </trkpt>
      <trkpt lat="42.842" lon="-0.46793">
        <ele>1589.8</ele>
        <time>2021-08-10 09:51:43</time>
      </trkpt>
      <trkpt lat="42.842" lon="-0.46792">
        <ele>1589.8</ele>
        <time>2021-08-10 09:51:44</time>
      </trkpt>
      <trkpt lat="42.842" lon="-0.46792">
        <ele>1589.6</ele>
        <time>2021-08-10 09:51:45</time>
      </trkpt>
      <trkpt lat="42.842" lon="-0.46792">
        <ele>1589.8</ele>
        <time>2021-08-10 09:51:46</time>
      </trkpt>
      <trkpt lat="42.842" lon="-0.46791">
        <ele>1589.6</ele>
        <time>2021-08-10 09:51:47</time>
      </trkpt>
      <trkpt lat="42.842" lon="-0.46791">
        <ele>1589.6</ele>
        <time>2021-08-10 09:51:48</time>
      </trkpt>
      <trkpt lat="42.842" lon="-0.46791">
        <ele>1589.8</ele>
        <time>2021-08-10 09:51:49</time>
      </trkpt>
      <trkpt lat="42.842" lon="-0.46795">
        <ele>1589.6</ele>
        <time>2021-08-10 09:51:50</time>
      </trkpt>
      <trkpt lat="42.842" lon="-0.46795">
        <ele>1589.8</ele>
        <time>2021-08-10 09:51:51</time>
      </trkpt>
      <trkpt lat="42.84201" lon="-0.46794">
        <ele>1589.8</ele>
        <time>2021-08-10 09:51:52</time>
      </trkpt>
      <trkpt lat="42.84201" lon="-0.46794">
        <ele>1589.8</ele>
        <time>2021-08-10 09:51:53</time>
      </trkpt>
      <trkpt lat="42.84202" lon="-0.46794">
        <ele>1590</ele>
        <time>2021-08-10 09:51:54</time>
      </trkpt>
      <trkpt lat="42.84203" lon="-0.46793">
        <ele>1590.2</ele>
        <time>2021-08-10 09:51:55</time>
      </trkpt>
      <trkpt lat="42.84203" lon="-0.46793">
        <ele>1590.4</ele>
        <time>2021-08-10 09:51:59</time>
      </trkpt>
      <trkpt lat="42.84204" lon="-0.46793">
        <ele>1590.6</ele>
        <time>2021-08-10 09:52:00</time>
      </trkpt>
      <trkpt lat="42.84204" lon="-0.46793">
        <ele>1590.8</ele>
        <time>2021-08-10 09:52:01</time>
      </trkpt>
      <trkpt lat="42.84204" lon="-0.46793">
        <ele>1591</ele>
        <time>2021-08-10 09:52:02</time>
      </trkpt>
      <trkpt lat="42.84204" lon="-0.46793">
        <ele>1591.2</ele>
        <time>2021-08-10 09:52:03</time>
      </trkpt>
      <trkpt lat="42.84205" lon="-0.46793">
        <ele>1591.4</ele>
        <time>2021-08-10 09:52:04</time>
      </trkpt>
      <trkpt lat="42.84206" lon="-0.46792">
        <ele>1591.4</ele>
        <time>2021-08-10 09:52:05</time>
      </trkpt>
      <trkpt lat="42.84206" lon="-0.46791">
        <ele>1591.6</ele>
        <time>2021-08-10 09:52:06</time>
      </trkpt>
      <trkpt lat="42.84207" lon="-0.46791">
        <ele>1591.6</ele>
        <time>2021-08-10 09:52:07</time>
      </trkpt>
      <trkpt lat="42.84207" lon="-0.46791">
        <ele>1592</ele>
        <time>2021-08-10 09:52:08</time>
      </trkpt>
      <trkpt lat="42.84207" lon="-0.46791">
        <ele>1592.2</ele>
        <time>2021-08-10 09:52:12</time>
      </trkpt>
      <trkpt lat="42.84207" lon="-0.4679">
        <ele>1592.4</ele>
        <time>2021-08-10 09:52:13</time>
      </trkpt>
      <trkpt lat="42.84206" lon="-0.4679">
        <ele>1593</ele>
        <time>2021-08-10 09:52:14</time>
      </trkpt>
      <trkpt lat="42.84206" lon="-0.4679">
        <ele>1592.8</ele>
        <time>2021-08-10 09:52:15</time>
      </trkpt>
      <trkpt lat="42.84205" lon="-0.46789">
        <ele>1593</ele>
        <time>2021-08-10 09:52:16</time>
      </trkpt>
      <trkpt lat="42.84204" lon="-0.46789">
        <ele>1592.8</ele>
        <time>2021-08-10 09:52:17</time>
      </trkpt>
      <trkpt lat="42.84204" lon="-0.46789">
        <ele>1593.2</ele>
        <time>2021-08-10 09:52:18</time>
      </trkpt>
      <trkpt lat="42.84203" lon="-0.46789">
        <ele>1593</ele>
        <time>2021-08-10 09:52:19</time>
      </trkpt>
      <trkpt lat="42.84202" lon="-0.46788">
        <ele>1593.2</ele>
        <time>2021-08-10 09:52:22</time>
      </trkpt>
      <trkpt lat="42.84202" lon="-0.46788">
        <ele>1593.4</ele>
        <time>2021-08-10 09:52:23</time>
      </trkpt>
      <trkpt lat="42.84201" lon="-0.46787">
        <ele>1593.6</ele>
        <time>2021-08-10 09:52:24</time>
      </trkpt>
      <trkpt lat="42.84201" lon="-0.46787">
        <ele>1594</ele>
        <time>2021-08-10 09:52:25</time>
      </trkpt>
      <trkpt lat="42.842" lon="-0.46787">
        <ele>1594</ele>
        <time>2021-08-10 09:52:26</time>
      </trkpt>
      <trkpt lat="42.842" lon="-0.46787">
        <ele>1594.2</ele>
        <time>2021-08-10 09:52:30</time>
      </trkpt>
      <trkpt lat="42.84199" lon="-0.46786">
        <ele>1594.4</ele>
        <time>2021-08-10 09:52:31</time>
      </trkpt>
      <trkpt lat="42.84198" lon="-0.46786">
        <ele>1594.6</ele>
        <time>2021-08-10 09:52:32</time>
      </trkpt>
      <trkpt lat="42.84198" lon="-0.46785">
        <ele>1594.8</ele>
        <time>2021-08-10 09:52:33</time>
      </trkpt>
      <trkpt lat="42.84197" lon="-0.46785">
        <ele>1594.8</ele>
        <time>2021-08-10 09:52:34</time>
      </trkpt>
      <trkpt lat="42.84197" lon="-0.46785">
        <ele>1595</ele>
        <time>2021-08-10 09:52:35</time>
      </trkpt>
      <trkpt lat="42.84196" lon="-0.46784">
        <ele>1595.2</ele>
        <time>2021-08-10 09:52:36</time>
      </trkpt>
      <trkpt lat="42.84196" lon="-0.46783">
        <ele>1595.4</ele>
        <time>2021-08-10 09:52:47</time>
      </trkpt>
      <trkpt lat="42.84196" lon="-0.46783">
        <ele>1595.4</ele>
        <time>2021-08-10 09:52:48</time>
      </trkpt>
      <trkpt lat="42.84195" lon="-0.46783">
        <ele>1595.8</ele>
        <time>2021-08-10 09:52:49</time>
      </trkpt>
      <trkpt lat="42.84195" lon="-0.46782">
        <ele>1596</ele>
        <time>2021-08-10 09:52:50</time>
      </trkpt>
      <trkpt lat="42.84195" lon="-0.46781">
        <ele>1596.2</ele>
        <time>2021-08-10 09:52:51</time>
      </trkpt>
      <trkpt lat="42.84195" lon="-0.46781">
        <ele>1596.2</ele>
        <time>2021-08-10 09:52:52</time>
      </trkpt>
      <trkpt lat="42.84195" lon="-0.4678">
        <ele>1596.4</ele>
        <time>2021-08-10 09:52:53</time>
      </trkpt>
      <trkpt lat="42.84195" lon="-0.46779">
        <ele>1596.6</ele>
        <time>2021-08-10 09:52:54</time>
      </trkpt>
      <trkpt lat="42.84195" lon="-0.46779">
        <ele>1596.8</ele>
        <time>2021-08-10 09:52:55</time>
      </trkpt>
      <trkpt lat="42.84195" lon="-0.46779">
        <ele>1597</ele>
        <time>2021-08-10 09:52:56</time>
      </trkpt>
      <trkpt lat="42.84194" lon="-0.46779">
        <ele>1597</ele>
        <time>2021-08-10 09:52:57</time>
      </trkpt>
      <trkpt lat="42.84194" lon="-0.46778">
        <ele>1597.4</ele>
        <time>2021-08-10 09:52:58</time>
      </trkpt>
      <trkpt lat="42.84194" lon="-0.46778">
        <ele>1597</ele>
        <time>2021-08-10 09:52:59</time>
      </trkpt>
      <trkpt lat="42.84194" lon="-0.46778">
        <ele>1597.6</ele>
        <time>2021-08-10 09:54:01</time>
      </trkpt>
      <trkpt lat="42.84193" lon="-0.46777">
        <ele>1597.6</ele>
        <time>2021-08-10 09:54:02</time>
      </trkpt>
      <trkpt lat="42.84192" lon="-0.46777">
        <ele>1598</ele>
        <time>2021-08-10 09:54:03</time>
      </trkpt>
      <trkpt lat="42.84192" lon="-0.46777">
        <ele>1598.2</ele>
        <time>2021-08-10 09:54:04</time>
      </trkpt>
      <trkpt lat="42.84191" lon="-0.46777">
        <ele>1598.4</ele>
        <time>2021-08-10 09:54:05</time>
      </trkpt>
      <trkpt lat="42.84192" lon="-0.46776">
        <ele>1598.4</ele>
        <time>2021-08-10 09:54:06</time>
      </trkpt>
      <trkpt lat="42.84192" lon="-0.46776">
        <ele>1598.8</ele>
        <time>2021-08-10 09:54:07</time>
      </trkpt>
      <trkpt lat="42.84192" lon="-0.46775">
        <ele>1599</ele>
        <time>2021-08-10 09:54:08</time>
      </trkpt>
      <trkpt lat="42.84192" lon="-0.46775">
        <ele>1599.2</ele>
        <time>2021-08-10 09:54:09</time>
      </trkpt>
      <trkpt lat="42.84193" lon="-0.46774">
        <ele>1599.2</ele>
        <time>2021-08-10 09:54:10</time>
      </trkpt>
      <trkpt lat="42.84193" lon="-0.46773">
        <ele>1599.4</ele>
        <time>2021-08-10 09:54:11</time>
      </trkpt>
      <trkpt lat="42.84192" lon="-0.46772">
        <ele>1599.6</ele>
        <time>2021-08-10 09:54:12</time>
      </trkpt>
      <trkpt lat="42.84192" lon="-0.46772">
        <ele>1599.8</ele>
        <time>2021-08-10 09:54:13</time>
      </trkpt>
      <trkpt lat="42.84193" lon="-0.46772">
        <ele>1600</ele>
        <time>2021-08-10 09:54:14</time>
      </trkpt>
      <trkpt lat="42.84193" lon="-0.46771">
        <ele>1600.2</ele>
        <time>2021-08-10 09:54:15</time>
      </trkpt>
      <trkpt lat="42.84193" lon="-0.4677">
        <ele>1600.4</ele>
        <time>2021-08-10 09:54:16</time>
      </trkpt>
      <trkpt lat="42.84195" lon="-0.46769">
        <ele>1600.4</ele>
        <time>2021-08-10 09:54:17</time>
      </trkpt>
      <trkpt lat="42.84199" lon="-0.46768">
        <ele>1600.4</ele>
        <time>2021-08-10 09:54:18</time>
      </trkpt>
      <trkpt lat="42.84199" lon="-0.46767">
        <ele>1600.6</ele>
        <time>2021-08-10 09:54:19</time>
      </trkpt>
      <trkpt lat="42.84199" lon="-0.46767">
        <ele>1600.8</ele>
        <time>2021-08-10 09:54:20</time>
      </trkpt>
      <trkpt lat="42.84198" lon="-0.46766">
        <ele>1601</ele>
        <time>2021-08-10 09:54:21</time>
      </trkpt>
      <trkpt lat="42.84198" lon="-0.46764">
        <ele>1601.2</ele>
        <time>2021-08-10 09:54:22</time>
      </trkpt>
      <trkpt lat="42.84199" lon="-0.46764">
        <ele>1601.4</ele>
        <time>2021-08-10 09:54:23</time>
      </trkpt>
      <trkpt lat="42.84198" lon="-0.46765">
        <ele>1601.6</ele>
        <time>2021-08-10 09:54:24</time>
      </trkpt>
      <trkpt lat="42.84199" lon="-0.46765">
        <ele>1601.8</ele>
        <time>2021-08-10 09:54:25</time>
      </trkpt>
      <trkpt lat="42.84199" lon="-0.46766">
        <ele>1601.6</ele>
        <time>2021-08-10 09:54:26</time>
      </trkpt>
      <trkpt lat="42.84198" lon="-0.46767">
        <ele>1601.8</ele>
        <time>2021-08-10 09:54:27</time>
      </trkpt>
      <trkpt lat="42.84198" lon="-0.46767">
        <ele>1602.4</ele>
        <time>2021-08-10 09:54:28</time>
      </trkpt>
      <trkpt lat="42.84199" lon="-0.46768">
        <ele>1602.6</ele>
        <time>2021-08-10 09:54:29</time>
      </trkpt>
      <trkpt lat="42.84198" lon="-0.46768">
        <ele>1602.8</ele>
        <time>2021-08-10 09:54:30</time>
      </trkpt>
      <trkpt lat="42.84199" lon="-0.46768">
        <ele>1602.6</ele>
        <time>2021-08-10 09:54:31</time>
      </trkpt>
      <trkpt lat="42.84199" lon="-0.46768">
        <ele>1602.8</ele>
        <time>2021-08-10 09:54:32</time>
      </trkpt>
      <trkpt lat="42.84198" lon="-0.46768">
        <ele>1603</ele>
        <time>2021-08-10 09:54:33</time>
      </trkpt>
      <trkpt lat="42.84198" lon="-0.46769">
        <ele>1603.2</ele>
        <time>2021-08-10 09:54:34</time>
      </trkpt>
      <trkpt lat="42.84198" lon="-0.46767">
        <ele>1603</ele>
        <time>2021-08-10 09:54:35</time>
      </trkpt>
      <trkpt lat="42.84199" lon="-0.46766">
        <ele>1603</ele>
        <time>2021-08-10 09:54:36</time>
      </trkpt>
      <trkpt lat="42.84199" lon="-0.46764">
        <ele>1603.2</ele>
        <time>2021-08-10 09:54:37</time>
      </trkpt>
      <trkpt lat="42.842" lon="-0.46763">
        <ele>1603.4</ele>
        <time>2021-08-10 09:54:38</time>
      </trkpt>
      <trkpt lat="42.842" lon="-0.46762">
        <ele>1603.8</ele>
        <time>2021-08-10 09:54:39</time>
      </trkpt>
      <trkpt lat="42.84201" lon="-0.46761">
        <ele>1603.8</ele>
        <time>2021-08-10 09:54:40</time>
      </trkpt>
      <trkpt lat="42.84201" lon="-0.46761">
        <ele>1604</ele>
        <time>2021-08-10 09:54:41</time>
      </trkpt>
      <trkpt lat="42.84201" lon="-0.46759">
        <ele>1604</ele>
        <time>2021-08-10 09:54:42</time>
      </trkpt>
      <trkpt lat="42.84202" lon="-0.46759">
        <ele>1604</ele>
        <time>2021-08-10 09:54:43</time>
      </trkpt>
      <trkpt lat="42.84201" lon="-0.46759">
        <ele>1604.2</ele>
        <time>2021-08-10 09:54:44</time>
      </trkpt>
      <trkpt lat="42.84201" lon="-0.46759">
        <ele>1604.4</ele>
        <time>2021-08-10 09:54:45</time>
      </trkpt>
      <trkpt lat="42.84201" lon="-0.4676">
        <ele>1605.2</ele>
        <time>2021-08-10 09:54:46</time>
      </trkpt>
      <trkpt lat="42.84202" lon="-0.46761">
        <ele>1605</ele>
        <time>2021-08-10 09:54:47</time>
      </trkpt>
      <trkpt lat="42.84201" lon="-0.46762">
        <ele>1605.2</ele>
        <time>2021-08-10 09:54:48</time>
      </trkpt>
      <trkpt lat="42.84201" lon="-0.46762">
        <ele>1605.2</ele>
        <time>2021-08-10 09:54:49</time>
      </trkpt>
      <trkpt lat="42.84202" lon="-0.46762">
        <ele>1605.8</ele>
        <time>2021-08-10 09:54:50</time>
      </trkpt>
      <trkpt lat="42.84203" lon="-0.46761">
        <ele>1606</ele>
        <time>2021-08-10 09:54:51</time>
      </trkpt>
      <trkpt lat="42.84204" lon="-0.46761">
        <ele>1606</ele>
        <time>2021-08-10 09:54:52</time>
      </trkpt>
      <trkpt lat="42.84204" lon="-0.46761">
        <ele>1606.2</ele>
        <time>2021-08-10 09:54:53</time>
      </trkpt>
      <trkpt lat="42.84204" lon="-0.46762">
        <ele>1606.2</ele>
        <time>2021-08-10 09:54:54</time>
      </trkpt>
      <trkpt lat="42.84204" lon="-0.46762">
        <ele>1606.2</ele>
        <time>2021-08-10 09:54:55</time>
      </trkpt>
      <trkpt lat="42.84206" lon="-0.46762">
        <ele>1606.4</ele>
        <time>2021-08-10 09:54:56</time>
      </trkpt>
      <trkpt lat="42.84206" lon="-0.46762">
        <ele>1606.4</ele>
        <time>2021-08-10 09:54:57</time>
      </trkpt>
      <trkpt lat="42.84206" lon="-0.46762">
        <ele>1606.6</ele>
        <time>2021-08-10 09:54:58</time>
      </trkpt>
      <trkpt lat="42.84205" lon="-0.46762">
        <ele>1606.8</ele>
        <time>2021-08-10 09:54:59</time>
      </trkpt>
      <trkpt lat="42.84205" lon="-0.46762">
        <ele>1607</ele>
      </trkpt>
      <trkpt lat="42.84206" lon="-0.46761">
        <ele>1607.2</ele>
        <time>2021-08-10 09:55:01</time>
      </trkpt>
      <trkpt lat="42.84207" lon="-0.46761">
        <ele>1607</ele>
        <time>2021-08-10 09:55:02</time>
      </trkpt>
      <trkpt lat="42.84207" lon="-0.4676">
        <ele>1607.2</ele>
        <time>2021-08-10 09:55:03</time>
      </trkpt>
      <trkpt lat="42.84207" lon="-0.46759">
        <ele>1607.2</ele>
        <time>2021-08-10 09:55:04</time>
      </trkpt>
      <trkpt lat="42.84207" lon="-0.46759">
        <ele>1607.4</ele>
        <time>2021-08-10 09:55:05</time>
      </trkpt>
      <trkpt lat="42.84207" lon="-0.46758">
        <ele>1607.4</ele>
        <time>2021-08-10 09:55:06</time>
      </trkpt>
      <trkpt lat="42.84207" lon="-0.46758">
        <ele>1607.4</ele>
        <time>2021-08-10 09:55:07</time>
      </trkpt>
      <trkpt lat="42.84207" lon="-0.46758">
        <ele>1607.8</ele>
        <time>2021-08-10 09:55:08</time>
      </trkpt>
      <trkpt lat="42.84207" lon="-0.46758">
        <ele>1607.8</ele>
        <time>2021-08-10 09:55:09</time>
      </trkpt>
      <trkpt lat="42.84206" lon="-0.46758">
        <ele>1608.2</ele>
      </trkpt>
      <trkpt lat="42.84206" lon="-0.46758">
        <ele>1608.2</ele>
        <time>2021-08-10 09:55:10</time>
      </trkpt>
      <trkpt lat="42.84205" lon="-0.46757">
        <ele>1608.2</ele>
        <time>2021-08-10 09:55:11</time>
      </trkpt>
      <trkpt lat="42.84205" lon="-0.46757">
        <ele>1608.4</ele>
        <time>2021-08-10 09:55:12</time>
      </trkpt>
      <trkpt lat="42.84205" lon="-0.46757">
        <ele>1608.8</ele>
        <time>2021-08-10 09:55:13</time>
      </trkpt>
      <trkpt lat="42.84205" lon="-0.46756">
        <ele>1608.8</ele>
        <time>2021-08-10 09:55:14</time>
      </trkpt>
      <trkpt lat="42.84205" lon="-0.46756">
        <ele>1609.2</ele>
        <time>2021-08-10 09:55:15</time>
      </trkpt>
      <trkpt lat="42.84206" lon="-0.46757">
        <ele>1609.2</ele>
        <time>2021-08-10 09:55:16</time>
      </trkpt>
      <trkpt lat="42.84206" lon="-0.46757">
        <ele>1609.4</ele>
        <time>2021-08-10 09:55:17</time>
      </trkpt>
      <trkpt lat="42.84206" lon="-0.46758">
        <ele>1609.6</ele>
        <time>2021-08-10 09:55:19</time>
      </trkpt>
      <trkpt lat="42.84207" lon="-0.46758">
        <ele>1609.6</ele>
      </trkpt>
      <trkpt lat="42.84207" lon="-0.46757">
        <ele>1609.6</ele>
        <time>2021-08-10 09:55:20</time>
      </trkpt>
      <trkpt lat="42.84208" lon="-0.46757">
        <ele>1609.8</ele>
        <time>2021-08-10 09:55:21</time>
      </trkpt>
      <trkpt lat="42.84208" lon="-0.46757">
        <ele>1610</ele>
        <time>2021-08-10 09:55:22</time>
      </trkpt>
      <trkpt lat="42.84207" lon="-0.46757">
        <ele>1610</ele>
        <time>2021-08-10 09:55:23</time>
      </trkpt>
      <trkpt lat="42.84206" lon="-0.46757">
        <ele>1610.2</ele>
        <time>2021-08-10 09:55:24</time>
      </trkpt>
      <trkpt lat="42.84206" lon="-0.46757">
        <ele>1610.2</ele>
        <time>2021-08-10 09:55:25</time>
      </trkpt>
      <trkpt lat="42.84205" lon="-0.46756">
        <ele>1610.6</ele>
        <time>2021-08-10 09:55:26</time>
      </trkpt>
      <trkpt lat="42.84205" lon="-0.46756">
        <ele>1610.8</ele>
        <time>2021-08-10 09:55:27</time>
      </trkpt>
      <trkpt lat="42.84205" lon="-0.46755">
        <ele>1611</ele>
        <time>2021-08-10 09:55:28</time>
      </trkpt>
      <trkpt lat="42.84205" lon="-0.46755">
        <ele>1611.2</ele>
        <time>2021-08-10 09:55:29</time>
      </trkpt>
      <trkpt lat="42.84205" lon="-0.46755">
        <ele>1611.2</ele>
        <time>2021-08-10 09:55:30</time>
      </trkpt>
      <trkpt lat="42.84204" lon="-0.46754">
        <ele>1611.4</ele>
        <time>2021-08-10 09:55:31</time>
      </trkpt>
      <trkpt lat="42.84203" lon="-0.46754">
        <ele>1611.6</ele>
        <time>2021-08-10 09:55:32</time>
      </trkpt>
      <trkpt lat="42.84203" lon="-0.46754">
        <ele>1611.8</ele>
        <time>2021-08-10 09:55:33</time>
      </trkpt>
      <trkpt lat="42.84204" lon="-0.46753">
        <ele>1612.2</ele>
        <time>2021-08-10 09:55:34</time>
      </trkpt>
      <trkpt lat="42.84203" lon="-0.46752">
        <ele>1612.6</ele>
        <time>2021-08-10 09:55:35</time>
      </trkpt>
      <trkpt lat="42.84203" lon="-0.46752">
        <ele>1612.6</ele>
        <time>2021-08-10 09:55:36</time>
      </trkpt>
      <trkpt lat="42.84203" lon="-0.46751">
        <ele>1612.8</ele>
        <time>2021-08-10 09:55:41</time>
      </trkpt>
      <trkpt lat="42.84203" lon="-0.46751">
        <ele>1613</ele>
        <time>2021-08-10 09:55:42</time>
      </trkpt>
      <trkpt lat="42.84203" lon="-0.4675">
        <ele>1613</ele>
        <time>2021-08-10 09:55:43</time>
      </trkpt>
      <trkpt lat="42.84203" lon="-0.46749">
        <ele>1613.2</ele>
        <time>2021-08-10 09:55:44</time>
      </trkpt>
      <trkpt lat="42.84203" lon="-0.46748">
        <ele>1613.2</ele>
        <time>2021-08-10 09:55:47</time>
      </trkpt>
      <trkpt lat="42.84203" lon="-0.46748">
        <ele>1613.6</ele>
        <time>2021-08-10 09:55:48</time>
      </trkpt>
      <trkpt lat="42.84203" lon="-0.46747">
        <ele>1613.6</ele>
        <time>2021-08-10 09:55:49</time>
      </trkpt>
      <trkpt lat="42.84203" lon="-0.46746">
        <ele>1613.6</ele>
        <time>2021-08-10 09:55:50</time>
      </trkpt>
      <trkpt lat="42.84203" lon="-0.46745">
        <ele>1613.8</ele>
        <time>2021-08-10 09:55:51</time>
      </trkpt>
      <trkpt lat="42.84202" lon="-0.46745">
        <ele>1614</ele>
        <time>2021-08-10 09:55:52</time>
      </trkpt>
      <trkpt lat="42.84203" lon="-0.46745">
        <ele>1614.4</ele>
        <time>2021-08-10 09:55:53</time>
      </trkpt>
      <trkpt lat="42.84203" lon="-0.46744">
        <ele>1614.8</ele>
        <time>2021-08-10 09:55:54</time>
      </trkpt>
      <trkpt lat="42.84203" lon="-0.46744">
        <ele>1614.8</ele>
        <time>2021-08-10 09:55:55</time>
      </trkpt>
      <trkpt lat="42.84203" lon="-0.46743">
        <ele>1615</ele>
        <time>2021-08-10 09:55:56</time>
      </trkpt>
      <trkpt lat="42.84203" lon="-0.46743">
        <ele>1615.2</ele>
        <time>2021-08-10 09:55:57</time>
      </trkpt>
      <trkpt lat="42.84203" lon="-0.46742">
        <ele>1615.4</ele>
        <time>2021-08-10 09:55:59</time>
      </trkpt>
      <trkpt lat="42.84203" lon="-0.46742">
        <ele>1615.4</ele>
        <time>2021-08-10 09:56:00</time>
      </trkpt>
      <trkpt lat="42.84202" lon="-0.46741">
        <ele>1615.6</ele>
        <time>2021-08-10 09:56:01</time>
      </trkpt>
      <trkpt lat="42.84202" lon="-0.46741">
        <ele>1615.8</ele>
        <time>2021-08-10 09:56:02</time>
      </trkpt>
      <trkpt lat="42.84202" lon="-0.46741">
        <ele>1616</ele>
        <time>2021-08-10 09:56:03</time>
      </trkpt>
      <trkpt lat="42.84201" lon="-0.46741">
        <ele>1616.2</ele>
        <time>2021-08-10 09:56:04</time>
      </trkpt>
      <trkpt lat="42.84201" lon="-0.46741">
        <ele>1616.4</ele>
        <time>2021-08-10 09:56:05</time>
      </trkpt>
      <trkpt lat="42.842" lon="-0.46741">
        <ele>1616.8</ele>
        <time>2021-08-10 09:56:06</time>
      </trkpt>
      <trkpt lat="42.842" lon="-0.46741">
        <ele>1617.2</ele>
        <time>2021-08-10 09:56:07</time>
      </trkpt>
      <trkpt lat="42.842" lon="-0.46741">
        <ele>1617.2</ele>
        <time>2021-08-10 09:56:08</time>
      </trkpt>
      <trkpt lat="42.84199" lon="-0.46741">
        <ele>1617.2</ele>
        <time>2021-08-10 09:56:09</time>
      </trkpt>
      <trkpt lat="42.84199" lon="-0.46741">
        <ele>1617.2</ele>
        <time>2021-08-10 09:56:10</time>
      </trkpt>
      <trkpt lat="42.84199" lon="-0.46741">
        <ele>1617.4</ele>
        <time>2021-08-10 09:56:11</time>
      </trkpt>
      <trkpt lat="42.84199" lon="-0.4674">
        <ele>1617.6</ele>
        <time>2021-08-10 09:56:12</time>
      </trkpt>
      <trkpt lat="42.84199" lon="-0.46739">
        <ele>1617.6</ele>
        <time>2021-08-10 09:56:13</time>
      </trkpt>
      <trkpt lat="42.84199" lon="-0.46738">
        <ele>1617.6</ele>
        <time>2021-08-10 09:56:14</time>
      </trkpt>
      <trkpt lat="42.84199" lon="-0.46738">
        <ele>1617.8</ele>
        <time>2021-08-10 09:56:15</time>
      </trkpt>
      <trkpt lat="42.842" lon="-0.46737">
        <ele>1617.8</ele>
        <time>2021-08-10 09:56:16</time>
      </trkpt>
      <trkpt lat="42.842" lon="-0.46737">
        <ele>1617.6</ele>
        <time>2021-08-10 09:56:17</time>
      </trkpt>
      <trkpt lat="42.842" lon="-0.46737">
        <ele>1618.2</ele>
        <time>2021-08-10 09:56:18</time>
      </trkpt>
      <trkpt lat="42.84201" lon="-0.46737">
        <ele>1618.2</ele>
        <time>2021-08-10 09:56:19</time>
      </trkpt>
      <trkpt lat="42.84201" lon="-0.46737">
        <ele>1618.6</ele>
        <time>2021-08-10 09:56:20</time>
      </trkpt>
      <trkpt lat="42.84201" lon="-0.46737">
        <ele>1618.4</ele>
        <time>2021-08-10 09:56:21</time>
      </trkpt>
      <trkpt lat="42.84202" lon="-0.46736">
        <ele>1618.4</ele>
        <time>2021-08-10 09:56:22</time>
      </trkpt>
      <trkpt lat="42.84202" lon="-0.46737">
        <ele>1618.2</ele>
        <time>2021-08-10 09:56:23</time>
      </trkpt>
      <trkpt lat="42.84203" lon="-0.46736">
        <ele>1618.4</ele>
        <time>2021-08-10 09:56:24</time>
      </trkpt>
      <trkpt lat="42.84203" lon="-0.46735">
        <ele>1618.8</ele>
        <time>2021-08-10 09:56:25</time>
      </trkpt>
      <trkpt lat="42.84203" lon="-0.46735">
        <ele>1618.8</ele>
        <time>2021-08-10 09:56:26</time>
      </trkpt>
      <trkpt lat="42.84204" lon="-0.46734">
        <ele>1619</ele>
        <time>2021-08-10 09:56:27</time>
      </trkpt>
      <trkpt lat="42.84204" lon="-0.46733">
        <ele>1619.2</ele>
        <time>2021-08-10 09:56:28</time>
      </trkpt>
      <trkpt lat="42.84204" lon="-0.46732">
        <ele>1619.4</ele>
        <time>2021-08-10 09:56:29</time>
      </trkpt>
      <trkpt lat="42.84203" lon="-0.46732">
        <ele>1619.6</ele>
        <time>2021-08-10 09:56:30</time>
      </trkpt>
      <trkpt lat="42.84203" lon="-0.46731">
        <ele>1619.6</ele>
        <time>2021-08-10 09:56:31</time>
      </trkpt>
      <trkpt lat="42.84203" lon="-0.46731">
        <ele>1619.4</ele>
        <time>2021-08-10 09:56:32</time>
      </trkpt>
      <trkpt lat="42.84203" lon="-0.4673">
        <ele>1619.8</ele>
        <time>2021-08-10 09:56:33</time>
      </trkpt>
      <trkpt lat="42.84203" lon="-0.4673">
        <ele>1620</ele>
        <time>2021-08-10 09:56:34</time>
      </trkpt>
      <trkpt lat="42.84203" lon="-0.4673">
        <ele>1620.2</ele>
        <time>2021-08-10 09:56:35</time>
      </trkpt>
      <trkpt lat="42.84203" lon="-0.4673">
        <ele>1620.2</ele>
        <time>2021-08-10 09:56:36</time>
      </trkpt>
      <trkpt lat="42.84203" lon="-0.46729">
        <ele>1620.4</ele>
        <time>2021-08-10 09:56:37</time>
      </trkpt>
      <trkpt lat="42.84204" lon="-0.46728">
        <ele>1620.6</ele>
        <time>2021-08-10 09:56:38</time>
      </trkpt>
      <trkpt lat="42.84205" lon="-0.46727">
        <ele>1620.6</ele>
        <time>2021-08-10 09:56:39</time>
      </trkpt>
      <trkpt lat="42.84205" lon="-0.46727">
        <ele>1620.8</ele>
        <time>2021-08-10 09:56:40</time>
      </trkpt>
      <trkpt lat="42.84205" lon="-0.46726">
        <ele>1621</ele>
        <time>2021-08-10 09:56:41</time>
      </trkpt>
      <trkpt lat="42.84205" lon="-0.46726">
        <ele>1621.2</ele>
        <time>2021-08-10 09:56:42</time>
      </trkpt>
      <trkpt lat="42.84204" lon="-0.46727">
        <ele>1621</ele>
        <time>2021-08-10 09:56:43</time>
      </trkpt>
      <trkpt lat="42.84203" lon="-0.46726">
        <ele>1621.4</ele>
        <time>2021-08-10 09:56:44</time>
      </trkpt>
      <trkpt lat="42.84203" lon="-0.46726">
        <ele>1621.8</ele>
        <time>2021-08-10 09:56:45</time>
      </trkpt>
      <trkpt lat="42.84203" lon="-0.46725">
        <ele>1622</ele>
        <time>2021-08-10 09:56:46</time>
      </trkpt>
      <trkpt lat="42.84203" lon="-0.46725">
        <ele>1622.2</ele>
        <time>2021-08-10 09:56:47</time>
      </trkpt>
      <trkpt lat="42.84203" lon="-0.46724">
        <ele>1622.2</ele>
        <time>2021-08-10 09:56:48</time>
      </trkpt>
      <trkpt lat="42.84202" lon="-0.46724">
        <ele>1622.4</ele>
        <time>2021-08-10 09:56:49</time>
      </trkpt>
      <trkpt lat="42.84202" lon="-0.46724">
        <ele>1622.8</ele>
        <time>2021-08-10 09:56:50</time>
      </trkpt>
      <trkpt lat="42.84202" lon="-0.46723">
        <ele>1623</ele>
        <time>2021-08-10 09:56:51</time>
      </trkpt>
      <trkpt lat="42.84201" lon="-0.46723">
        <ele>1623</ele>
        <time>2021-08-10 09:56:52</time>
      </trkpt>
      <trkpt lat="42.84201" lon="-0.46722">
        <ele>1622.8</ele>
        <time>2021-08-10 09:56:53</time>
      </trkpt>
      <trkpt lat="42.84201" lon="-0.46722">
        <ele>1623</ele>
        <time>2021-08-10 09:56:54</time>
      </trkpt>
      <trkpt lat="42.84202" lon="-0.46721">
        <ele>1623.4</ele>
        <time>2021-08-10 09:56:55</time>
      </trkpt>
      <trkpt lat="42.84202" lon="-0.4672">
        <ele>1623.6</ele>
        <time>2021-08-10 09:56:56</time>
      </trkpt>
      <trkpt lat="42.84202" lon="-0.4672">
        <ele>1624.2</ele>
        <time>2021-08-10 09:56:57</time>
      </trkpt>
      <trkpt lat="42.84202" lon="-0.4672">
        <ele>1624.2</ele>
        <time>2021-08-10 09:56:58</time>
      </trkpt>
      <trkpt lat="42.84202" lon="-0.4672">
        <ele>1623.8</ele>
        <time>2021-08-10 09:56:59</time>
      </trkpt>
      <trkpt lat="42.84201" lon="-0.4672">
        <ele>1624</ele>
        <time>2021-08-10 09:57:00</time>
      </trkpt>
      <trkpt lat="42.84201" lon="-0.4672">
        <ele>1624.2</ele>
        <time>2021-08-10 09:57:01</time>
      </trkpt>
      <trkpt lat="42.84201" lon="-0.4672">
        <ele>1624.4</ele>
        <time>2021-08-10 09:57:02</time>
      </trkpt>
      <trkpt lat="42.842" lon="-0.4672">
        <ele>1624.4</ele>
        <time>2021-08-10 09:57:03</time>
      </trkpt>
      <trkpt lat="42.84199" lon="-0.4672">
        <ele>1624.6</ele>
        <time>2021-08-10 09:57:04</time>
      </trkpt>
      <trkpt lat="42.84199" lon="-0.4672">
        <ele>1624.6</ele>
        <time>2021-08-10 09:57:05</time>
      </trkpt>
      <trkpt lat="42.84198" lon="-0.46721">
        <ele>1625</ele>
        <time>2021-08-10 09:57:06</time>
      </trkpt>
      <trkpt lat="42.84198" lon="-0.46721">
        <ele>1625.2</ele>
        <time>2021-08-10 09:57:07</time>
      </trkpt>
      <trkpt lat="42.84198" lon="-0.4672">
        <ele>1625.4</ele>
        <time>2021-08-10 09:57:08</time>
      </trkpt>
      <trkpt lat="42.84198" lon="-0.4672">
        <ele>1625.4</ele>
        <time>2021-08-10 09:57:09</time>
      </trkpt>
      <trkpt lat="42.84198" lon="-0.46722">
        <ele>1625.6</ele>
        <time>2021-08-10 09:57:10</time>
      </trkpt>
      <trkpt lat="42.84197" lon="-0.46723">
        <ele>1625.8</ele>
        <time>2021-08-10 09:57:11</time>
      </trkpt>
      <trkpt lat="42.84196" lon="-0.46723">
        <ele>1625.8</ele>
        <time>2021-08-10 09:57:12</time>
      </trkpt>
      <trkpt lat="42.84197" lon="-0.46724">
        <ele>1626</ele>
        <time>2021-08-10 09:57:13</time>
      </trkpt>
      <trkpt lat="42.84196" lon="-0.46724">
        <ele>1626</ele>
        <time>2021-08-10 09:57:14</time>
      </trkpt>
      <trkpt lat="42.84196" lon="-0.46723">
        <ele>1626.2</ele>
        <time>2021-08-10 09:57:15</time>
      </trkpt>
      <trkpt lat="42.84196" lon="-0.46723">
        <ele>1626.4</ele>
        <time>2021-08-10 09:57:16</time>
      </trkpt>
      <trkpt lat="42.84196" lon="-0.46722">
        <ele>1626.6</ele>
        <time>2021-08-10 09:57:17</time>
      </trkpt>
      <trkpt lat="42.84197" lon="-0.46721">
        <ele>1626.8</ele>
        <time>2021-08-10 09:57:18</time>
      </trkpt>
      <trkpt lat="42.84197" lon="-0.46721">
        <ele>1626.8</ele>
        <time>2021-08-10 09:57:19</time>
      </trkpt>
      <trkpt lat="42.84197" lon="-0.4672">
        <ele>1627.2</ele>
        <time>2021-08-10 09:57:20</time>
      </trkpt>
      <trkpt lat="42.84196" lon="-0.4672">
        <ele>1627.2</ele>
        <time>2021-08-10 09:57:21</time>
      </trkpt>
      <trkpt lat="42.84195" lon="-0.46719">
        <ele>1627.8</ele>
        <time>2021-08-10 09:57:22</time>
      </trkpt>
      <trkpt lat="42.84194" lon="-0.46718">
        <ele>1628</ele>
        <time>2021-08-10 09:57:23</time>
      </trkpt>
      <trkpt lat="42.84194" lon="-0.46717">
        <ele>1628</ele>
        <time>2021-08-10 09:57:24</time>
      </trkpt>
      <trkpt lat="42.84194" lon="-0.46716">
        <ele>1628.2</ele>
        <time>2021-08-10 09:57:25</time>
      </trkpt>
      <trkpt lat="42.84194" lon="-0.46715">
        <ele>1628.2</ele>
        <time>2021-08-10 09:57:26</time>
      </trkpt>
      <trkpt lat="42.84192" lon="-0.46715">
        <ele>1628</ele>
        <time>2021-08-10 09:57:27</time>
      </trkpt>
      <trkpt lat="42.84192" lon="-0.46715">
        <ele>1628</ele>
        <time>2021-08-10 09:57:28</time>
      </trkpt>
      <trkpt lat="42.84192" lon="-0.46714">
        <ele>1628</ele>
        <time>2021-08-10 09:57:29</time>
      </trkpt>
      <trkpt lat="42.84192" lon="-0.46714">
        <ele>1627.8</ele>
        <time>2021-08-10 09:57:30</time>
      </trkpt>
      <trkpt lat="42.84192" lon="-0.46714">
        <ele>1627.8</ele>
        <time>2021-08-10 09:57:31</time>
      </trkpt>
      <trkpt lat="42.84193" lon="-0.46714">
        <ele>1627.8</ele>
        <time>2021-08-10 09:57:32</time>
      </trkpt>
      <trkpt lat="42.84195" lon="-0.46712">
        <ele>1628</ele>
        <time>2021-08-10 09:57:33</time>
      </trkpt>
      <trkpt lat="42.84196" lon="-0.46712">
        <ele>1628.2</ele>
        <time>2021-08-10 09:57:34</time>
      </trkpt>
      <trkpt lat="42.84197" lon="-0.46712">
        <ele>1628.2</ele>
        <time>2021-08-10 09:57:35</time>
      </trkpt>
      <trkpt lat="42.84197" lon="-0.46711">
        <ele>1628.2</ele>
        <time>2021-08-10 09:57:36</time>
      </trkpt>
      <trkpt lat="42.84197" lon="-0.4671">
        <ele>1628.2</ele>
        <time>2021-08-10 09:57:37</time>
      </trkpt>
      <trkpt lat="42.84197" lon="-0.4671">
        <ele>1628.2</ele>
        <time>2021-08-10 09:57:38</time>
      </trkpt>
      <trkpt lat="42.84198" lon="-0.46709">
        <ele>1628.4</ele>
        <time>2021-08-10 09:57:39</time>
      </trkpt>
      <trkpt lat="42.84198" lon="-0.46708">
        <ele>1628.6</ele>
        <time>2021-08-10 09:57:40</time>
      </trkpt>
      <trkpt lat="42.84197" lon="-0.46707">
        <ele>1628.6</ele>
        <time>2021-08-10 09:57:41</time>
      </trkpt>
      <trkpt lat="42.84197" lon="-0.46707">
        <ele>1628.8</ele>
        <time>2021-08-10 09:57:42</time>
      </trkpt>
      <trkpt lat="42.84197" lon="-0.46706">
        <ele>1629</ele>
        <time>2021-08-10 09:57:43</time>
      </trkpt>
      <trkpt lat="42.84197" lon="-0.46706">
        <ele>1629.2</ele>
        <time>2021-08-10 09:57:44</time>
      </trkpt>
      <trkpt lat="42.84198" lon="-0.46706">
        <ele>1629.4</ele>
        <time>2021-08-10 09:57:45</time>
      </trkpt>
      <trkpt lat="42.84198" lon="-0.46705">
        <ele>1629.8</ele>
        <time>2021-08-10 09:57:46</time>
      </trkpt>
      <trkpt lat="42.84198" lon="-0.46705">
        <ele>1630</ele>
        <time>2021-08-10 09:57:47</time>
      </trkpt>
      <trkpt lat="42.84197" lon="-0.46705">
        <ele>1630.2</ele>
        <time>2021-08-10 09:57:48</time>
      </trkpt>
      <trkpt lat="42.84196" lon="-0.46704">
        <ele>1630.2</ele>
        <time>2021-08-10 09:57:49</time>
      </trkpt>
      <trkpt lat="42.84195" lon="-0.46704">
        <ele>1630.2</ele>
        <time>2021-08-10 09:57:50</time>
      </trkpt>
      <trkpt lat="42.84195" lon="-0.46704">
        <ele>1630.6</ele>
        <time>2021-08-10 09:57:51</time>
      </trkpt>
      <trkpt lat="42.84194" lon="-0.46703">
        <ele>1630.8</ele>
        <time>2021-08-10 09:57:52</time>
      </trkpt>
      <trkpt lat="42.84194" lon="-0.46703">
        <ele>1630.8</ele>
        <time>2021-08-10 09:57:53</time>
      </trkpt>
      <trkpt lat="42.84194" lon="-0.46703">
        <ele>1631</ele>
        <time>2021-08-10 09:57:54</time>
      </trkpt>
      <trkpt lat="42.84194" lon="-0.46703">
        <ele>1631.2</ele>
        <time>2021-08-10 09:57:55</time>
      </trkpt>
      <trkpt lat="42.84192" lon="-0.46702">
        <ele>1631.4</ele>
        <time>2021-08-10 09:57:56</time>
      </trkpt>
      <trkpt lat="42.84192" lon="-0.46701">
        <ele>1631.8</ele>
        <time>2021-08-10 09:57:57</time>
      </trkpt>
      <trkpt lat="42.84192" lon="-0.46701">
        <ele>1632</ele>
        <time>2021-08-10 09:57:58</time>
      </trkpt>
      <trkpt lat="42.84192" lon="-0.467">
        <ele>1632.2</ele>
        <time>2021-08-10 09:57:59</time>
      </trkpt>
      <trkpt lat="42.84192" lon="-0.467">
        <ele>1632</ele>
        <time>2021-08-10 09:58:00</time>
      </trkpt>
      <trkpt lat="42.84191" lon="-0.467">
        <ele>1632.4</ele>
        <time>2021-08-10 09:58:01</time>
      </trkpt>
      <trkpt lat="42.84191" lon="-0.46699">
        <ele>1632.6</ele>
        <time>2021-08-10 09:58:02</time>
      </trkpt>
      <trkpt lat="42.84191" lon="-0.46698">
        <ele>1633</ele>
        <time>2021-08-10 09:58:03</time>
      </trkpt>
      <trkpt lat="42.84192" lon="-0.46698">
        <ele>1633</ele>
        <time>2021-08-10 09:58:04</time>
      </trkpt>
      <trkpt lat="42.84191" lon="-0.46697">
        <ele>1633.2</ele>
        <time>2021-08-10 09:58:05</time>
      </trkpt>
      <trkpt lat="42.84191" lon="-0.46696">
        <ele>1633.2</ele>
        <time>2021-08-10 09:58:06</time>
      </trkpt>
      <trkpt lat="42.84191" lon="-0.46695">
        <ele>1633.2</ele>
        <time>2021-08-10 09:58:07</time>
      </trkpt>
      <trkpt lat="42.84191" lon="-0.46694">
        <ele>1633.6</ele>
        <time>2021-08-10 09:58:08</time>
      </trkpt>
      <trkpt lat="42.84192" lon="-0.46694">
        <ele>1633.8</ele>
        <time>2021-08-10 09:58:09</time>
      </trkpt>
      <trkpt lat="42.84192" lon="-0.46694">
        <ele>1634.2</ele>
        <time>2021-08-10 09:58:10</time>
      </trkpt>
      <trkpt lat="42.84193" lon="-0.46693">
        <ele>1634.4</ele>
        <time>2021-08-10 09:58:11</time>
      </trkpt>
      <trkpt lat="42.84192" lon="-0.46692">
        <ele>1634.4</ele>
        <time>2021-08-10 09:58:12</time>
      </trkpt>
      <trkpt lat="42.84192" lon="-0.46691">
        <ele>1634.6</ele>
        <time>2021-08-10 09:58:13</time>
      </trkpt>
      <trkpt lat="42.84192" lon="-0.46691">
        <ele>1634.8</ele>
        <time>2021-08-10 09:58:16</time>
      </trkpt>
      <trkpt lat="42.84191" lon="-0.4669">
        <ele>1635</ele>
        <time>2021-08-10 09:58:17</time>
      </trkpt>
      <trkpt lat="42.84191" lon="-0.46689">
        <ele>1635.2</ele>
        <time>2021-08-10 09:58:18</time>
      </trkpt>
      <trkpt lat="42.84191" lon="-0.46689">
        <ele>1635.4</ele>
        <time>2021-08-10 09:58:19</time>
      </trkpt>
      <trkpt lat="42.84191" lon="-0.46687">
        <ele>1635.6</ele>
        <time>2021-08-10 09:58:20</time>
      </trkpt>
      <trkpt lat="42.84191" lon="-0.46686">
        <ele>1635.8</ele>
        <time>2021-08-10 09:58:21</time>
      </trkpt>
      <trkpt lat="42.84191" lon="-0.46686">
        <ele>1636</ele>
        <time>2021-08-10 09:58:22</time>
      </trkpt>
      <trkpt lat="42.84192" lon="-0.46685">
        <ele>1636</ele>
        <time>2021-08-10 09:58:23</time>
      </trkpt>
      <trkpt lat="42.84192" lon="-0.46684">
        <ele>1636.2</ele>
        <time>2021-08-10 09:58:24</time>
      </trkpt>
      <trkpt lat="42.84192" lon="-0.46683">
        <ele>1636.2</ele>
        <time>2021-08-10 09:58:25</time>
      </trkpt>
      <trkpt lat="42.84191" lon="-0.46682">
        <ele>1636.4</ele>
        <time>2021-08-10 09:58:26</time>
      </trkpt>
      <trkpt lat="42.8419" lon="-0.46682">
        <ele>1636.8</ele>
        <time>2021-08-10 09:58:28</time>
      </trkpt>
      <trkpt lat="42.8419" lon="-0.4668">
        <ele>1636.8</ele>
        <time>2021-08-10 09:58:29</time>
      </trkpt>
      <trkpt lat="42.84191" lon="-0.4668">
        <ele>1637</ele>
        <time>2021-08-10 09:58:30</time>
      </trkpt>
      <trkpt lat="42.84191" lon="-0.46679">
        <ele>1637.2</ele>
        <time>2021-08-10 09:58:31</time>
      </trkpt>
      <trkpt lat="42.84191" lon="-0.46678">
        <ele>1637.6</ele>
        <time>2021-08-10 09:58:32</time>
      </trkpt>
      <trkpt lat="42.84192" lon="-0.46677">
        <ele>1637.8</ele>
        <time>2021-08-10 09:58:33</time>
      </trkpt>
      <trkpt lat="42.84192" lon="-0.46677">
        <ele>1637.8</ele>
        <time>2021-08-10 09:58:34</time>
      </trkpt>
      <trkpt lat="42.84192" lon="-0.46676">
        <ele>1637.8</ele>
        <time>2021-08-10 09:58:35</time>
      </trkpt>
      <trkpt lat="42.84192" lon="-0.46676">
        <ele>1638</ele>
        <time>2021-08-10 09:58:36</time>
      </trkpt>
      <trkpt lat="42.84192" lon="-0.46675">
        <ele>1638.2</ele>
        <time>2021-08-10 09:58:37</time>
      </trkpt>
      <trkpt lat="42.84192" lon="-0.46674">
        <ele>1638.4</ele>
        <time>2021-08-10 09:58:38</time>
      </trkpt>
      <trkpt lat="42.84192" lon="-0.46673">
        <ele>1638.4</ele>
        <time>2021-08-10 09:58:39</time>
      </trkpt>
      <trkpt lat="42.84192" lon="-0.46672">
        <ele>1638.6</ele>
        <time>2021-08-10 09:58:40</time>
      </trkpt>
      <trkpt lat="42.84193" lon="-0.46671">
        <ele>1639</ele>
        <time>2021-08-10 09:58:42</time>
      </trkpt>
      <trkpt lat="42.84192" lon="-0.4667">
        <ele>1638.8</ele>
        <time>2021-08-10 09:58:43</time>
      </trkpt>
      <trkpt lat="42.84192" lon="-0.4667">
        <ele>1639</ele>
        <time>2021-08-10 09:58:44</time>
      </trkpt>
      <trkpt lat="42.84193" lon="-0.46669">
        <ele>1639.2</ele>
        <time>2021-08-10 09:58:45</time>
      </trkpt>
      <trkpt lat="42.84193" lon="-0.46668">
        <ele>1639.8</ele>
        <time>2021-08-10 09:58:46</time>
      </trkpt>
      <trkpt lat="42.84193" lon="-0.46667">
        <ele>1639.4</ele>
        <time>2021-08-10 09:58:47</time>
      </trkpt>
      <trkpt lat="42.84192" lon="-0.46667">
        <ele>1639.4</ele>
        <time>2021-08-10 09:58:48</time>
      </trkpt>
      <trkpt lat="42.84192" lon="-0.46667">
        <ele>1639.6</ele>
        <time>2021-08-10 09:58:49</time>
      </trkpt>
      <trkpt lat="42.84192" lon="-0.46667">
        <ele>1640</ele>
        <time>2021-08-10 09:58:50</time>
      </trkpt>
      <trkpt lat="42.84192" lon="-0.46666">
        <ele>1639.4</ele>
        <time>2021-08-10 09:58:51</time>
      </trkpt>
      <trkpt lat="42.84191" lon="-0.46666">
        <ele>1639.6</ele>
        <time>2021-08-10 09:58:53</time>
      </trkpt>
      <trkpt lat="42.84191" lon="-0.46666">
        <ele>1639.8</ele>
        <time>2021-08-10 09:58:54</time>
      </trkpt>
      <trkpt lat="42.8419" lon="-0.46666">
        <ele>1640.2</ele>
        <time>2021-08-10 09:58:55</time>
      </trkpt>
      <trkpt lat="42.8419" lon="-0.46667">
        <ele>1640.2</ele>
        <time>2021-08-10 09:58:56</time>
      </trkpt>
      <trkpt lat="42.8419" lon="-0.46667">
        <ele>1640.2</ele>
        <time>2021-08-10 09:58:57</time>
      </trkpt>
      <trkpt lat="42.8419" lon="-0.46667">
        <ele>1640</ele>
        <time>2021-08-10 09:58:58</time>
      </trkpt>
      <trkpt lat="42.84189" lon="-0.46668">
        <ele>1640</ele>
        <time>2021-08-10 09:58:59</time>
      </trkpt>
      <trkpt lat="42.84189" lon="-0.46668">
        <ele>1640</ele>
        <time>2021-08-10 09:59:00</time>
      </trkpt>
      <trkpt lat="42.84189" lon="-0.46668">
        <ele>1639.8</ele>
        <time>2021-08-10 09:59:01</time>
      </trkpt>
      <trkpt lat="42.84189" lon="-0.46667">
        <ele>1638.2</ele>
        <time>2021-08-10 09:59:02</time>
      </trkpt>
      <trkpt lat="42.8419" lon="-0.46668">
        <ele>1639.2</ele>
        <time>2021-08-10 09:59:03</time>
      </trkpt>
      <trkpt lat="42.84189" lon="-0.46668">
        <ele>1639.2</ele>
        <time>2021-08-10 09:59:04</time>
      </trkpt>
      <trkpt lat="42.84189" lon="-0.46668">
        <ele>1639.4</ele>
        <time>2021-08-10 09:59:05</time>
      </trkpt>
      <trkpt lat="42.84189" lon="-0.46666">
        <ele>1638.6</ele>
        <time>2021-08-10 09:59:06</time>
      </trkpt>
      <trkpt lat="42.84189" lon="-0.46666">
        <ele>1639</ele>
        <time>2021-08-10 09:59:07</time>
      </trkpt>
      <trkpt lat="42.84189" lon="-0.46667">
        <ele>1639.6</ele>
        <time>2021-08-10 09:59:08</time>
      </trkpt>
      <trkpt lat="42.8419" lon="-0.46666">
        <ele>1639.8</ele>
        <time>2021-08-10 09:59:09</time>
      </trkpt>
      <trkpt lat="42.8419" lon="-0.46665">
        <ele>1639.6</ele>
        <time>2021-08-10 09:59:10</time>
      </trkpt>
      <trkpt lat="42.84189" lon="-0.46665">
        <ele>1639.8</ele>
        <time>2021-08-10 09:59:11</time>
      </trkpt>
      <trkpt lat="42.84189" lon="-0.46666">
        <ele>1639.6</ele>
        <time>2021-08-10 09:59:12</time>
      </trkpt>
      <trkpt lat="42.84189" lon="-0.46667">
        <ele>1639.8</ele>
        <time>2021-08-10 09:59:13</time>
      </trkpt>
      <trkpt lat="42.84189" lon="-0.46667">
        <ele>1640</ele>
        <time>2021-08-10 09:59:14</time>
      </trkpt>
      <trkpt lat="42.84189" lon="-0.46667">
        <ele>1639.8</ele>
        <time>2021-08-10 09:59:15</time>
      </trkpt>
      <trkpt lat="42.84189" lon="-0.46666">
        <ele>1639.6</ele>
        <time>2021-08-10 09:59:16</time>
      </trkpt>
      <trkpt lat="42.84189" lon="-0.46666">
        <ele>1640</ele>
        <time>2021-08-10 09:59:17</time>
      </trkpt>
      <trkpt lat="42.84189" lon="-0.46665">
        <ele>1639.8</ele>
        <time>2021-08-10 09:59:18</time>
      </trkpt>
      <trkpt lat="42.84189" lon="-0.46664">
        <ele>1639.6</ele>
        <time>2021-08-10 09:59:19</time>
      </trkpt>
      <trkpt lat="42.84189" lon="-0.46663">
        <ele>1639.6</ele>
        <time>2021-08-10 09:59:20</time>
      </trkpt>
      <trkpt lat="42.84189" lon="-0.46663">
        <ele>1639.8</ele>
        <time>2021-08-10 09:59:21</time>
      </trkpt>
      <trkpt lat="42.84189" lon="-0.46662">
        <ele>1640</ele>
        <time>2021-08-10 09:59:22</time>
      </trkpt>
      <trkpt lat="42.84189" lon="-0.46661">
        <ele>1640.4</ele>
        <time>2021-08-10 09:59:23</time>
      </trkpt>
      <trkpt lat="42.84189" lon="-0.46661">
        <ele>1640.2</ele>
        <time>2021-08-10 09:59:24</time>
      </trkpt>
      <trkpt lat="42.84188" lon="-0.4666">
        <ele>1640.2</ele>
        <time>2021-08-10 09:59:25</time>
      </trkpt>
      <trkpt lat="42.84188" lon="-0.46659">
        <ele>1640.2</ele>
        <time>2021-08-10 09:59:26</time>
      </trkpt>
      <trkpt lat="42.84188" lon="-0.46659">
        <ele>1640.4</ele>
        <time>2021-08-10 09:59:27</time>
      </trkpt>
      <trkpt lat="42.84187" lon="-0.46657">
        <ele>1640.4</ele>
        <time>2021-08-10 09:59:28</time>
      </trkpt>
      <trkpt lat="42.84187" lon="-0.46656">
        <ele>1640.4</ele>
        <time>2021-08-10 09:59:29</time>
      </trkpt>
      <trkpt lat="42.84187" lon="-0.46655">
        <ele>1640.4</ele>
        <time>2021-08-10 09:59:30</time>
      </trkpt>
      <trkpt lat="42.84186" lon="-0.46654">
        <ele>1640.6</ele>
        <time>2021-08-10 09:59:31</time>
      </trkpt>
      <trkpt lat="42.84186" lon="-0.46653">
        <ele>1640.4</ele>
        <time>2021-08-10 09:59:32</time>
      </trkpt>
      <trkpt lat="42.84186" lon="-0.46652">
        <ele>1640.6</ele>
        <time>2021-08-10 09:59:33</time>
      </trkpt>
      <trkpt lat="42.84186" lon="-0.46651">
        <ele>1640.6</ele>
        <time>2021-08-10 09:59:34</time>
      </trkpt>
      <trkpt lat="42.84186" lon="-0.4665">
        <ele>1640.8</ele>
        <time>2021-08-10 09:59:35</time>
      </trkpt>
      <trkpt lat="42.84185" lon="-0.46649">
        <ele>1640.8</ele>
        <time>2021-08-10 09:59:36</time>
      </trkpt>
      <trkpt lat="42.84185" lon="-0.46648">
        <ele>1640.8</ele>
        <time>2021-08-10 09:59:37</time>
      </trkpt>
      <trkpt lat="42.84185" lon="-0.46647">
        <ele>1640.8</ele>
        <time>2021-08-10 09:59:38</time>
      </trkpt>
      <trkpt lat="42.84185" lon="-0.46647">
        <ele>1640.8</ele>
        <time>2021-08-10 09:59:39</time>
      </trkpt>
      <trkpt lat="42.84185" lon="-0.46646">
        <ele>1641.2</ele>
        <time>2021-08-10 09:59:40</time>
      </trkpt>
      <trkpt lat="42.84185" lon="-0.46645">
        <ele>1641.4</ele>
        <time>2021-08-10 09:59:41</time>
      </trkpt>
      <trkpt lat="42.84184" lon="-0.46644">
        <ele>1641.6</ele>
        <time>2021-08-10 09:59:42</time>
      </trkpt>
      <trkpt lat="42.84184" lon="-0.46643">
        <ele>1641.6</ele>
        <time>2021-08-10 09:59:43</time>
      </trkpt>
      <trkpt lat="42.84184" lon="-0.46643">
        <ele>1641.6</ele>
        <time>2021-08-10 09:59:46</time>
      </trkpt>
      <trkpt lat="42.84184" lon="-0.46642">
        <ele>1641.8</ele>
        <time>2021-08-10 09:59:47</time>
      </trkpt>
      <trkpt lat="42.84184" lon="-0.46641">
        <ele>1641.8</ele>
        <time>2021-08-10 09:59:48</time>
      </trkpt>
      <trkpt lat="42.84184" lon="-0.4664">
        <ele>1642</ele>
        <time>2021-08-10 09:59:49</time>
      </trkpt>
      <trkpt lat="42.84184" lon="-0.46639">
        <ele>1642.2</ele>
        <time>2021-08-10 09:59:50</time>
      </trkpt>
      <trkpt lat="42.84183" lon="-0.46638">
        <ele>1642.4</ele>
        <time>2021-08-10 09:59:51</time>
      </trkpt>
      <trkpt lat="42.84183" lon="-0.46637">
        <ele>1642.6</ele>
        <time>2021-08-10 09:59:52</time>
      </trkpt>
      <trkpt lat="42.84183" lon="-0.46636">
        <ele>1642.4</ele>
        <time>2021-08-10 09:59:53</time>
      </trkpt>
      <trkpt lat="42.84183" lon="-0.46635">
        <ele>1642.6</ele>
        <time>2021-08-10 09:59:54</time>
      </trkpt>
      <trkpt lat="42.84183" lon="-0.46634">
        <ele>1642.6</ele>
        <time>2021-08-10 09:59:55</time>
      </trkpt>
      <trkpt lat="42.84182" lon="-0.46633">
        <ele>1642.8</ele>
        <time>2021-08-10 09:59:56</time>
      </trkpt>
      <trkpt lat="42.84182" lon="-0.46632">
        <ele>1643</ele>
        <time>2021-08-10 09:59:57</time>
      </trkpt>
      <trkpt lat="42.84182" lon="-0.46632">
        <ele>1643.2</ele>
        <time>2021-08-10 09:59:58</time>
      </trkpt>
      <trkpt lat="42.84182" lon="-0.46632">
        <ele>1643.4</ele>
        <time>2021-08-10 09:59:59</time>
      </trkpt>
      <trkpt lat="42.84182" lon="-0.46631">
        <ele>1643.4</ele>
        <time>2021-08-10 10:07:14</time>
      </trkpt>
      <trkpt lat="42.84181" lon="-0.4663">
        <ele>1643.6</ele>
        <time>2021-08-10 10:07:15</time>
      </trkpt>
      <trkpt lat="42.84181" lon="-0.46629">
        <ele>1643.6</ele>
        <time>2021-08-10 10:07:16</time>
      </trkpt>
      <trkpt lat="42.84181" lon="-0.46628">
        <ele>1643.6</ele>
        <time>2021-08-10 10:07:17</time>
      </trkpt>
      <trkpt lat="42.84181" lon="-0.46627">
        <ele>1643.8</ele>
        <time>2021-08-10 10:07:18</time>
      </trkpt>
      <trkpt lat="42.84181" lon="-0.46626">
        <ele>1643.8</ele>
        <time>2021-08-10 10:07:19</time>
      </trkpt>
      <trkpt lat="42.8418" lon="-0.46625">
        <ele>1644</ele>
        <time>2021-08-10 10:07:20</time>
      </trkpt>
      <trkpt lat="42.8418" lon="-0.46625">
        <ele>1644.2</ele>
        <time>2021-08-10 10:07:21</time>
      </trkpt>
      <trkpt lat="42.8418" lon="-0.46623">
        <ele>1644.4</ele>
        <time>2021-08-10 10:07:23</time>
      </trkpt>
      <trkpt lat="42.8418" lon="-0.46622">
        <ele>1644.4</ele>
      </trkpt>
      <trkpt lat="42.84179" lon="-0.46622">
        <ele>1644.6</ele>
        <time>2021-08-10 10:07:25</time>
      </trkpt>
      <trkpt lat="42.84179" lon="-0.46621">
        <ele>1644.6</ele>
        <time>2021-08-10 10:07:26</time>
      </trkpt>
      <trkpt lat="42.84179" lon="-0.4662">
        <ele>1644.6</ele>
        <time>2021-08-10 10:07:27</time>
      </trkpt>
      <trkpt lat="42.84178" lon="-0.46619">
        <ele>1644.8</ele>
        <time>2021-08-10 10:07:29</time>
      </trkpt>
      <trkpt lat="42.84178" lon="-0.46618">
        <ele>1645</ele>
        <time>2021-08-10 10:07:30</time>
      </trkpt>
      <trkpt lat="42.84178" lon="-0.46617">
        <ele>1645.2</ele>
        <time>2021-08-10 10:07:31</time>
      </trkpt>
      <trkpt lat="42.84178" lon="-0.46617">
        <ele>1645.4</ele>
        <time>2021-08-10 10:07:32</time>
      </trkpt>
      <trkpt lat="42.84178" lon="-0.46616">
        <ele>1645.2</ele>
        <time>2021-08-10 10:07:33</time>
      </trkpt>
      <trkpt lat="42.84178" lon="-0.46615">
        <ele>1645.4</ele>
        <time>2021-08-10 10:07:34</time>
      </trkpt>
      <trkpt lat="42.84178" lon="-0.46614">
        <ele>1645.6</ele>
        <time>2021-08-10 10:07:35</time>
      </trkpt>
      <trkpt lat="42.84179" lon="-0.46613">
        <ele>1645.8</ele>
        <time>2021-08-10 10:07:36</time>
      </trkpt>
      <trkpt lat="42.84178" lon="-0.46613">
        <ele>1646</ele>
        <time>2021-08-10 10:07:37</time>
      </trkpt>
      <trkpt lat="42.84179" lon="-0.46612">
        <ele>1646.2</ele>
        <time>2021-08-10 10:07:38</time>
      </trkpt>
      <trkpt lat="42.84179" lon="-0.46612">
        <ele>1646.2</ele>
        <time>2021-08-10 10:07:39</time>
      </trkpt>
      <trkpt lat="42.84179" lon="-0.46611">
        <ele>1646.6</ele>
        <time>2021-08-10 10:07:40</time>
      </trkpt>
      <trkpt lat="42.84179" lon="-0.46609">
        <ele>1646.4</ele>
        <time>2021-08-10 10:07:41</time>
      </trkpt>
      <trkpt lat="42.84179" lon="-0.46609">
        <ele>1646.6</ele>
        <time>2021-08-10 10:07:42</time>
      </trkpt>
      <trkpt lat="42.8418" lon="-0.46607">
        <ele>1646.6</ele>
        <time>2021-08-10 10:07:43</time>
      </trkpt>
      <trkpt lat="42.8418" lon="-0.46606">
        <ele>1646.8</ele>
        <time>2021-08-10 10:07:44</time>
      </trkpt>
      <trkpt lat="42.8418" lon="-0.46605">
        <ele>1646.8</ele>
        <time>2021-08-10 10:07:45</time>
      </trkpt>
      <trkpt lat="42.8418" lon="-0.46604">
        <ele>1647.2</ele>
        <time>2021-08-10 10:07:46</time>
      </trkpt>
      <trkpt lat="42.84179" lon="-0.46604">
        <ele>1647.2</ele>
        <time>2021-08-10 10:07:47</time>
      </trkpt>
      <trkpt lat="42.84179" lon="-0.46603">
        <ele>1647.4</ele>
        <time>2021-08-10 10:07:48</time>
      </trkpt>
      <trkpt lat="42.84179" lon="-0.46602">
        <ele>1647.6</ele>
        <time>2021-08-10 10:07:49</time>
      </trkpt>
      <trkpt lat="42.84179" lon="-0.46601">
        <ele>1647.8</ele>
        <time>2021-08-10 10:07:50</time>
      </trkpt>
      <trkpt lat="42.84179" lon="-0.466">
        <ele>1647.8</ele>
        <time>2021-08-10 10:07:51</time>
      </trkpt>
      <trkpt lat="42.84179" lon="-0.46598">
        <ele>1648</ele>
        <time>2021-08-10 10:07:52</time>
      </trkpt>
      <trkpt lat="42.84179" lon="-0.46597">
        <ele>1648.2</ele>
        <time>2021-08-10 10:07:53</time>
      </trkpt>
      <trkpt lat="42.8418" lon="-0.46596">
        <ele>1648.6</ele>
        <time>2021-08-10 10:07:54</time>
      </trkpt>
      <trkpt lat="42.8418" lon="-0.46596">
        <ele>1648.8</ele>
        <time>2021-08-10 10:07:55</time>
      </trkpt>
      <trkpt lat="42.8418" lon="-0.46595">
        <ele>1648.6</ele>
        <time>2021-08-10 10:07:56</time>
      </trkpt>
      <trkpt lat="42.8418" lon="-0.46594">
        <ele>1649</ele>
        <time>2021-08-10 10:07:57</time>
      </trkpt>
      <trkpt lat="42.8418" lon="-0.46594">
        <ele>1649</ele>
        <time>2021-08-10 10:07:58</time>
      </trkpt>
      <trkpt lat="42.84179" lon="-0.46592">
        <ele>1649.4</ele>
        <time>2021-08-10 10:07:59</time>
      </trkpt>
      <trkpt lat="42.84179" lon="-0.46592">
        <ele>1649.4</ele>
        <time>2021-08-10 10:08:00</time>
      </trkpt>
      <trkpt lat="42.84178" lon="-0.46591">
        <ele>1649.6</ele>
        <time>2021-08-10 10:08:01</time>
      </trkpt>
      <trkpt lat="42.84178" lon="-0.4659">
        <ele>1649.8</ele>
        <time>2021-08-10 10:08:02</time>
      </trkpt>
      <trkpt lat="42.84178" lon="-0.4659">
        <ele>1650</ele>
        <time>2021-08-10 10:08:03</time>
      </trkpt>
      <trkpt lat="42.84178" lon="-0.46589">
        <ele>1650.4</ele>
        <time>2021-08-10 10:08:04</time>
      </trkpt>
      <trkpt lat="42.84177" lon="-0.46588">
        <ele>1650</ele>
        <time>2021-08-10 10:08:05</time>
      </trkpt>
      <trkpt lat="42.84177" lon="-0.46588">
        <ele>1649.6</ele>
        <time>2021-08-10 10:08:06</time>
      </trkpt>
      <trkpt lat="42.84177" lon="-0.46588">
        <ele>1650.8</ele>
        <time>2021-08-10 10:08:07</time>
      </trkpt>
      <trkpt lat="42.84177" lon="-0.46587">
        <ele>1650.8</ele>
        <time>2021-08-10 10:08:08</time>
      </trkpt>
      <trkpt lat="42.84177" lon="-0.46586">
        <ele>1651.2</ele>
        <time>2021-08-10 10:08:09</time>
      </trkpt>
      <trkpt lat="42.84176" lon="-0.46586">
        <ele>1651.8</ele>
        <time>2021-08-10 10:08:10</time>
      </trkpt>
      <trkpt lat="42.84176" lon="-0.46586">
        <ele>1651.8</ele>
        <time>2021-08-10 10:08:11</time>
      </trkpt>
      <trkpt lat="42.84175" lon="-0.46586">
        <ele>1652</ele>
        <time>2021-08-10 10:08:12</time>
      </trkpt>
      <trkpt lat="42.84175" lon="-0.46585">
        <ele>1651.6</ele>
        <time>2021-08-10 10:08:13</time>
      </trkpt>
      <trkpt lat="42.84175" lon="-0.46584">
        <ele>1652.4</ele>
        <time>2021-08-10 10:08:14</time>
      </trkpt>
      <trkpt lat="42.84174" lon="-0.46584">
        <ele>1652.4</ele>
        <time>2021-08-10 10:08:15</time>
      </trkpt>
      <trkpt lat="42.84174" lon="-0.46584">
        <ele>1652.8</ele>
        <time>2021-08-10 10:08:16</time>
      </trkpt>
      <trkpt lat="42.84173" lon="-0.46584">
        <ele>1652.8</ele>
        <time>2021-08-10 10:08:17</time>
      </trkpt>
      <trkpt lat="42.84173" lon="-0.46584">
        <ele>1652.8</ele>
        <time>2021-08-10 10:08:18</time>
      </trkpt>
      <trkpt lat="42.84172" lon="-0.46584">
        <ele>1653.2</ele>
        <time>2021-08-10 10:08:19</time>
      </trkpt>
      <trkpt lat="42.84172" lon="-0.46583">
        <ele>1653.2</ele>
        <time>2021-08-10 10:08:20</time>
      </trkpt>
      <trkpt lat="42.84172" lon="-0.46583">
        <ele>1653.6</ele>
        <time>2021-08-10 10:08:21</time>
      </trkpt>
      <trkpt lat="42.84172" lon="-0.46582">
        <ele>1653.6</ele>
        <time>2021-08-10 10:08:22</time>
      </trkpt>
      <trkpt lat="42.84172" lon="-0.46582">
        <ele>1653.6</ele>
        <time>2021-08-10 10:08:23</time>
      </trkpt>
      <trkpt lat="42.84172" lon="-0.46581">
        <ele>1653.8</ele>
        <time>2021-08-10 10:08:24</time>
      </trkpt>
      <trkpt lat="42.84172" lon="-0.4658">
        <ele>1654</ele>
        <time>2021-08-10 10:08:25</time>
      </trkpt>
      <trkpt lat="42.84172" lon="-0.4658">
        <ele>1654.4</ele>
        <time>2021-08-10 10:08:26</time>
      </trkpt>
      <trkpt lat="42.84172" lon="-0.46579">
        <ele>1653.8</ele>
        <time>2021-08-10 10:08:27</time>
      </trkpt>
      <trkpt lat="42.84172" lon="-0.46578">
        <ele>1654.4</ele>
        <time>2021-08-10 10:08:28</time>
      </trkpt>
      <trkpt lat="42.84172" lon="-0.46578">
        <ele>1654.2</ele>
        <time>2021-08-10 10:08:29</time>
      </trkpt>
      <trkpt lat="42.84171" lon="-0.46578">
        <ele>1655</ele>
        <time>2021-08-10 10:08:30</time>
      </trkpt>
      <trkpt lat="42.84171" lon="-0.46577">
        <ele>1654.4</ele>
        <time>2021-08-10 10:08:31</time>
      </trkpt>
      <trkpt lat="42.84171" lon="-0.46577">
        <ele>1655.4</ele>
        <time>2021-08-10 10:08:32</time>
      </trkpt>
      <trkpt lat="42.8417" lon="-0.46577">
        <ele>1655.6</ele>
        <time>2021-08-10 10:08:33</time>
      </trkpt>
      <trkpt lat="42.8417" lon="-0.46576">
        <ele>1655.8</ele>
        <time>2021-08-10 10:08:34</time>
      </trkpt>
      <trkpt lat="42.84171" lon="-0.46576">
        <ele>1655.8</ele>
        <time>2021-08-10 10:08:35</time>
      </trkpt>
      <trkpt lat="42.8417" lon="-0.46577">
        <ele>1655.8</ele>
        <time>2021-08-10 10:08:36</time>
      </trkpt>
      <trkpt lat="42.8417" lon="-0.46577">
        <ele>1655.6</ele>
        <time>2021-08-10 10:08:37</time>
      </trkpt>
      <trkpt lat="42.84169" lon="-0.46576">
        <ele>1655.6</ele>
        <time>2021-08-10 10:08:38</time>
      </trkpt>
      <trkpt lat="42.84169" lon="-0.46575">
        <ele>1656.2</ele>
        <time>2021-08-10 10:08:39</time>
      </trkpt>
      <trkpt lat="42.84168" lon="-0.46575">
        <ele>1656.6</ele>
        <time>2021-08-10 10:08:40</time>
      </trkpt>
      <trkpt lat="42.84168" lon="-0.46575">
        <ele>1657</ele>
        <time>2021-08-10 10:08:41</time>
      </trkpt>
      <trkpt lat="42.84167" lon="-0.46575">
        <ele>1657</ele>
        <time>2021-08-10 10:08:42</time>
      </trkpt>
      <trkpt lat="42.84167" lon="-0.46575">
        <ele>1656.8</ele>
        <time>2021-08-10 10:08:43</time>
      </trkpt>
      <trkpt lat="42.84166" lon="-0.46575">
        <ele>1656.6</ele>
        <time>2021-08-10 10:08:44</time>
      </trkpt>
      <trkpt lat="42.84165" lon="-0.46575">
        <ele>1657</ele>
        <time>2021-08-10 10:08:45</time>
      </trkpt>
      <trkpt lat="42.84164" lon="-0.46575">
        <ele>1657.2</ele>
        <time>2021-08-10 10:08:46</time>
      </trkpt>
      <trkpt lat="42.84164" lon="-0.46575">
        <ele>1657.4</ele>
        <time>2021-08-10 10:08:47</time>
      </trkpt>
      <trkpt lat="42.84163" lon="-0.46575">
        <ele>1657.6</ele>
        <time>2021-08-10 10:08:48</time>
      </trkpt>
      <trkpt lat="42.84163" lon="-0.46575">
        <ele>1657.6</ele>
        <time>2021-08-10 10:08:49</time>
      </trkpt>
      <trkpt lat="42.84163" lon="-0.46574">
        <ele>1658.2</ele>
        <time>2021-08-10 10:08:50</time>
      </trkpt>
      <trkpt lat="42.84162" lon="-0.46574">
        <ele>1657.8</ele>
        <time>2021-08-10 10:08:51</time>
      </trkpt>
      <trkpt lat="42.84162" lon="-0.46574">
        <ele>1657.8</ele>
        <time>2021-08-10 10:08:52</time>
      </trkpt>
      <trkpt lat="42.84163" lon="-0.46574">
        <ele>1657.8</ele>
        <time>2021-08-10 10:08:53</time>
      </trkpt>
      <trkpt lat="42.84162" lon="-0.46574">
        <ele>1658</ele>
        <time>2021-08-10 10:08:54</time>
      </trkpt>
      <trkpt lat="42.84163" lon="-0.46575">
        <ele>1658.2</ele>
        <time>2021-08-10 10:08:55</time>
      </trkpt>
      <trkpt lat="42.84162" lon="-0.46576">
        <ele>1658.2</ele>
        <time>2021-08-10 10:08:56</time>
      </trkpt>
      <trkpt lat="42.84161" lon="-0.46577">
        <ele>1658.2</ele>
        <time>2021-08-10 10:08:57</time>
      </trkpt>
      <trkpt lat="42.84159" lon="-0.46576">
        <ele>1658.2</ele>
        <time>2021-08-10 10:08:58</time>
      </trkpt>
      <trkpt lat="42.84159" lon="-0.46576">
        <ele>1658.6</ele>
        <time>2021-08-10 10:08:59</time>
      </trkpt>
      <trkpt lat="42.84159" lon="-0.46576">
        <ele>1658.8</ele>
        <time>2021-08-10 10:09:00</time>
      </trkpt>
      <trkpt lat="42.84159" lon="-0.46575">
        <ele>1658.8</ele>
        <time>2021-08-10 10:09:01</time>
      </trkpt>
      <trkpt lat="42.8416" lon="-0.46574">
        <ele>1658.8</ele>
        <time>2021-08-10 10:09:02</time>
      </trkpt>
      <trkpt lat="42.84159" lon="-0.46573">
        <ele>1656.4</ele>
        <time>2021-08-10 10:09:03</time>
      </trkpt>
      <trkpt lat="42.84159" lon="-0.46573">
        <ele>1658.2</ele>
        <time>2021-08-10 10:09:04</time>
      </trkpt>
      <trkpt lat="42.84159" lon="-0.46573">
        <ele>1658.6</ele>
        <time>2021-08-10 10:09:05</time>
      </trkpt>
      <trkpt lat="42.84159" lon="-0.46573">
        <ele>1659.4</ele>
        <time>2021-08-10 10:09:06</time>
      </trkpt>
      <trkpt lat="42.84161" lon="-0.46568">
        <ele>1659</ele>
        <time>2021-08-10 10:09:07</time>
      </trkpt>
      <trkpt lat="42.84162" lon="-0.46568">
        <ele>1659.4</ele>
        <time>2021-08-10 10:09:08</time>
      </trkpt>
      <trkpt lat="42.84162" lon="-0.46567">
        <ele>1659.4</ele>
        <time>2021-08-10 10:09:09</time>
      </trkpt>
      <trkpt lat="42.84162" lon="-0.46567">
        <ele>1659.4</ele>
        <time>2021-08-10 10:09:10</time>
      </trkpt>
      <trkpt lat="42.84162" lon="-0.46566">
        <ele>1659.6</ele>
        <time>2021-08-10 10:09:11</time>
      </trkpt>
      <trkpt lat="42.84162" lon="-0.46566">
        <ele>1659.8</ele>
        <time>2021-08-10 10:09:12</time>
      </trkpt>
      <trkpt lat="42.84163" lon="-0.46566">
        <ele>1660</ele>
        <time>2021-08-10 10:09:13</time>
      </trkpt>
      <trkpt lat="42.84163" lon="-0.46565">
        <ele>1660.2</ele>
        <time>2021-08-10 10:09:14</time>
      </trkpt>
      <trkpt lat="42.84163" lon="-0.46565">
        <ele>1660.4</ele>
        <time>2021-08-10 10:09:15</time>
      </trkpt>
      <trkpt lat="42.84164" lon="-0.46565">
        <ele>1660.6</ele>
        <time>2021-08-10 10:09:16</time>
      </trkpt>
      <trkpt lat="42.84164" lon="-0.46564">
        <ele>1660.8</ele>
        <time>2021-08-10 10:09:17</time>
      </trkpt>
      <trkpt lat="42.84164" lon="-0.46564">
        <ele>1660.8</ele>
        <time>2021-08-10 10:09:18</time>
      </trkpt>
      <trkpt lat="42.84165" lon="-0.46564">
        <ele>1661</ele>
        <time>2021-08-10 10:09:19</time>
      </trkpt>
      <trkpt lat="42.84165" lon="-0.46563">
        <ele>1661.2</ele>
        <time>2021-08-10 10:09:20</time>
      </trkpt>
      <trkpt lat="42.84165" lon="-0.46563">
        <ele>1661.4</ele>
        <time>2021-08-10 10:09:21</time>
      </trkpt>
      <trkpt lat="42.84166" lon="-0.46563">
        <ele>1661.4</ele>
        <time>2021-08-10 10:09:22</time>
      </trkpt>
      <trkpt lat="42.84166" lon="-0.46562">
        <ele>1661.6</ele>
        <time>2021-08-10 10:09:23</time>
      </trkpt>
      <trkpt lat="42.84166" lon="-0.46561">
        <ele>1661.8</ele>
        <time>2021-08-10 10:09:24</time>
      </trkpt>
      <trkpt lat="42.84167" lon="-0.46561">
        <ele>1661.8</ele>
        <time>2021-08-10 10:09:25</time>
      </trkpt>
      <trkpt lat="42.84167" lon="-0.4656">
        <ele>1661.8</ele>
        <time>2021-08-10 10:09:26</time>
      </trkpt>
      <trkpt lat="42.84168" lon="-0.4656">
        <ele>1662</ele>
        <time>2021-08-10 10:09:27</time>
      </trkpt>
      <trkpt lat="42.84168" lon="-0.46559">
        <ele>1662.2</ele>
        <time>2021-08-10 10:09:28</time>
      </trkpt>
      <trkpt lat="42.84167" lon="-0.4656">
        <ele>1662.2</ele>
        <time>2021-08-10 10:09:29</time>
      </trkpt>
      <trkpt lat="42.84168" lon="-0.46559">
        <ele>1662.4</ele>
        <time>2021-08-10 10:09:30</time>
      </trkpt>
      <trkpt lat="42.84168" lon="-0.46559">
        <ele>1662.6</ele>
        <time>2021-08-10 10:09:31</time>
      </trkpt>
      <trkpt lat="42.84168" lon="-0.46558">
        <ele>1662.6</ele>
        <time>2021-08-10 10:09:32</time>
      </trkpt>
      <trkpt lat="42.84168" lon="-0.46557">
        <ele>1662.8</ele>
        <time>2021-08-10 10:09:33</time>
      </trkpt>
      <trkpt lat="42.84168" lon="-0.46557">
        <ele>1662.8</ele>
        <time>2021-08-10 10:09:34</time>
      </trkpt>
      <trkpt lat="42.84168" lon="-0.46556">
        <ele>1663.2</ele>
        <time>2021-08-10 10:09:35</time>
      </trkpt>
      <trkpt lat="42.84167" lon="-0.46555">
        <ele>1663.4</ele>
        <time>2021-08-10 10:09:36</time>
      </trkpt>
      <trkpt lat="42.84167" lon="-0.46555">
        <ele>1663.4</ele>
        <time>2021-08-10 10:09:37</time>
      </trkpt>
      <trkpt lat="42.84167" lon="-0.46558">
        <ele>1663.4</ele>
        <time>2021-08-10 10:09:38</time>
      </trkpt>
      <trkpt lat="42.84167" lon="-0.46558">
        <ele>1663.6</ele>
        <time>2021-08-10 10:09:39</time>
      </trkpt>
      <trkpt lat="42.84167" lon="-0.46558">
        <ele>1663.8</ele>
        <time>2021-08-10 10:09:40</time>
      </trkpt>
      <trkpt lat="42.84166" lon="-0.46558">
        <ele>1664</ele>
        <time>2021-08-10 10:09:41</time>
      </trkpt>
      <trkpt lat="42.84165" lon="-0.46558">
        <ele>1664.2</ele>
        <time>2021-08-10 10:09:42</time>
      </trkpt>
      <trkpt lat="42.84164" lon="-0.46558">
        <ele>1664.2</ele>
        <time>2021-08-10 10:09:43</time>
      </trkpt>
      <trkpt lat="42.84164" lon="-0.46558">
        <ele>1664.4</ele>
        <time>2021-08-10 10:09:44</time>
      </trkpt>
      <trkpt lat="42.84164" lon="-0.46557">
        <ele>1664.4</ele>
        <time>2021-08-10 10:09:45</time>
      </trkpt>
      <trkpt lat="42.84164" lon="-0.46557">
        <ele>1664.6</ele>
        <time>2021-08-10 10:09:46</time>
      </trkpt>
      <trkpt lat="42.84163" lon="-0.46557">
        <ele>1664.8</ele>
        <time>2021-08-10 10:09:47</time>
      </trkpt>
      <trkpt lat="42.84162" lon="-0.46557">
        <ele>1665</ele>
        <time>2021-08-10 10:09:50</time>
      </trkpt>
      <trkpt lat="42.84161" lon="-0.46557">
        <ele>1665.2</ele>
        <time>2021-08-10 10:09:51</time>
      </trkpt>
      <trkpt lat="42.84161" lon="-0.46557">
        <ele>1665.4</ele>
        <time>2021-08-10 10:09:52</time>
      </trkpt>
      <trkpt lat="42.84161" lon="-0.46556">
        <ele>1665.4</ele>
        <time>2021-08-10 10:09:53</time>
      </trkpt>
      <trkpt lat="42.8416" lon="-0.46556">
        <ele>1665.4</ele>
        <time>2021-08-10 10:09:54</time>
      </trkpt>
      <trkpt lat="42.8416" lon="-0.46555">
        <ele>1665.6</ele>
        <time>2021-08-10 10:09:55</time>
      </trkpt>
      <trkpt lat="42.84161" lon="-0.46555">
        <ele>1665.6</ele>
        <time>2021-08-10 10:09:56</time>
      </trkpt>
      <trkpt lat="42.84161" lon="-0.46555">
        <ele>1666</ele>
        <time>2021-08-10 10:09:57</time>
      </trkpt>
      <trkpt lat="42.8416" lon="-0.46555">
        <ele>1666</ele>
        <time>2021-08-10 10:09:58</time>
      </trkpt>
      <trkpt lat="42.84159" lon="-0.46555">
        <ele>1666.2</ele>
        <time>2021-08-10 10:09:59</time>
      </trkpt>
      <trkpt lat="42.84159" lon="-0.46555">
        <ele>1666.4</ele>
        <time>2021-08-10 10:10:00</time>
      </trkpt>
      <trkpt lat="42.84159" lon="-0.46555">
        <ele>1666.6</ele>
        <time>2021-08-10 10:10:01</time>
      </trkpt>
      <trkpt lat="42.84158" lon="-0.46556">
        <ele>1666.6</ele>
        <time>2021-08-10 10:10:11</time>
      </trkpt>
      <trkpt lat="42.84158" lon="-0.46556">
        <ele>1666.8</ele>
        <time>2021-08-10 10:10:12</time>
      </trkpt>
      <trkpt lat="42.84159" lon="-0.46556">
        <ele>1666.4</ele>
        <time>2021-08-10 10:10:13</time>
      </trkpt>
      <trkpt lat="42.84159" lon="-0.46555">
        <ele>1666.4</ele>
        <time>2021-08-10 10:10:14</time>
      </trkpt>
      <trkpt lat="42.84159" lon="-0.46555">
        <ele>1666.6</ele>
        <time>2021-08-10 10:10:15</time>
      </trkpt>
      <trkpt lat="42.8416" lon="-0.46554">
        <ele>1666.6</ele>
        <time>2021-08-10 10:10:16</time>
      </trkpt>
      <trkpt lat="42.8416" lon="-0.46553">
        <ele>1666.6</ele>
        <time>2021-08-10 10:10:17</time>
      </trkpt>
      <trkpt lat="42.84161" lon="-0.46552">
        <ele>1666.8</ele>
        <time>2021-08-10 10:10:18</time>
      </trkpt>
      <trkpt lat="42.8416" lon="-0.46551">
        <ele>1666.8</ele>
        <time>2021-08-10 10:10:19</time>
      </trkpt>
      <trkpt lat="42.8416" lon="-0.46551">
        <ele>1666.8</ele>
        <time>2021-08-10 10:10:20</time>
      </trkpt>
      <trkpt lat="42.8416" lon="-0.4655">
        <ele>1667.2</ele>
        <time>2021-08-10 10:10:21</time>
      </trkpt>
      <trkpt lat="42.8416" lon="-0.4655">
        <ele>1667.2</ele>
        <time>2021-08-10 10:10:22</time>
      </trkpt>
      <trkpt lat="42.84159" lon="-0.4655">
        <ele>1667.4</ele>
        <time>2021-08-10 10:10:23</time>
      </trkpt>
      <trkpt lat="42.84159" lon="-0.4655">
        <ele>1667.4</ele>
        <time>2021-08-10 10:10:24</time>
      </trkpt>
      <trkpt lat="42.84158" lon="-0.46549">
        <ele>1667.6</ele>
        <time>2021-08-10 10:10:25</time>
      </trkpt>
      <trkpt lat="42.84158" lon="-0.46549">
        <ele>1667.8</ele>
        <time>2021-08-10 10:10:26</time>
      </trkpt>
      <trkpt lat="42.84158" lon="-0.46548">
        <ele>1668</ele>
        <time>2021-08-10 10:10:27</time>
      </trkpt>
      <trkpt lat="42.84158" lon="-0.46548">
        <ele>1668</ele>
        <time>2021-08-10 10:10:28</time>
      </trkpt>
      <trkpt lat="42.84158" lon="-0.46548">
        <ele>1668.2</ele>
        <time>2021-08-10 10:10:29</time>
      </trkpt>
      <trkpt lat="42.84158" lon="-0.46547">
        <ele>1668.4</ele>
        <time>2021-08-10 10:10:30</time>
      </trkpt>
      <trkpt lat="42.84158" lon="-0.46547">
        <ele>1668.6</ele>
        <time>2021-08-10 10:10:31</time>
      </trkpt>
      <trkpt lat="42.84157" lon="-0.46548">
        <ele>1668.6</ele>
        <time>2021-08-10 10:10:32</time>
      </trkpt>
      <trkpt lat="42.84157" lon="-0.46548">
        <ele>1669</ele>
        <time>2021-08-10 10:10:33</time>
      </trkpt>
      <trkpt lat="42.84156" lon="-0.46548">
        <ele>1669</ele>
        <time>2021-08-10 10:10:34</time>
      </trkpt>
      <trkpt lat="42.84156" lon="-0.46548">
        <ele>1669.2</ele>
        <time>2021-08-10 10:10:35</time>
      </trkpt>
      <trkpt lat="42.84156" lon="-0.46548">
        <ele>1669.2</ele>
        <time>2021-08-10 10:10:36</time>
      </trkpt>
      <trkpt lat="42.84156" lon="-0.46547">
        <ele>1669.6</ele>
        <time>2021-08-10 10:10:37</time>
      </trkpt>
      <trkpt lat="42.84155" lon="-0.46547">
        <ele>1669.6</ele>
        <time>2021-08-10 10:10:38</time>
      </trkpt>
      <trkpt lat="42.84155" lon="-0.46547">
        <ele>1669.6</ele>
        <time>2021-08-10 10:10:39</time>
      </trkpt>
      <trkpt lat="42.84155" lon="-0.46546">
        <ele>1669.8</ele>
        <time>2021-08-10 10:10:40</time>
      </trkpt>
      <trkpt lat="42.84155" lon="-0.46546">
        <ele>1670</ele>
        <time>2021-08-10 10:10:41</time>
      </trkpt>
      <trkpt lat="42.84155" lon="-0.46546">
        <ele>1670.2</ele>
        <time>2021-08-10 10:10:45</time>
      </trkpt>
      <trkpt lat="42.84155" lon="-0.46545">
        <ele>1670.2</ele>
        <time>2021-08-10 10:10:46</time>
      </trkpt>
      <trkpt lat="42.84154" lon="-0.46544">
        <ele>1670.2</ele>
        <time>2021-08-10 10:10:47</time>
      </trkpt>
      <trkpt lat="42.84154" lon="-0.46544">
        <ele>1670.4</ele>
        <time>2021-08-10 10:10:48</time>
      </trkpt>
      <trkpt lat="42.84154" lon="-0.46543">
        <ele>1670.4</ele>
        <time>2021-08-10 10:10:49</time>
      </trkpt>
      <trkpt lat="42.84154" lon="-0.46543">
        <ele>1670.6</ele>
        <time>2021-08-10 10:10:50</time>
      </trkpt>
      <trkpt lat="42.84154" lon="-0.46543">
        <ele>1670.8</ele>
        <time>2021-08-10 10:10:51</time>
      </trkpt>
      <trkpt lat="42.84153" lon="-0.46542">
        <ele>1671</ele>
        <time>2021-08-10 10:10:52</time>
      </trkpt>
      <trkpt lat="42.84153" lon="-0.46542">
        <ele>1671</ele>
        <time>2021-08-10 10:10:53</time>
      </trkpt>
      <trkpt lat="42.84153" lon="-0.46542">
        <ele>1671.4</ele>
        <time>2021-08-10 10:10:54</time>
      </trkpt>
      <trkpt lat="42.84153" lon="-0.46541">
        <ele>1671.6</ele>
        <time>2021-08-10 10:10:55</time>
      </trkpt>
      <trkpt lat="42.84152" lon="-0.46541">
        <ele>1671.8</ele>
        <time>2021-08-10 10:10:56</time>
      </trkpt>
      <trkpt lat="42.84151" lon="-0.46541">
        <ele>1671.8</ele>
        <time>2021-08-10 10:10:57</time>
      </trkpt>
      <trkpt lat="42.84151" lon="-0.46541">
        <ele>1672</ele>
        <time>2021-08-10 10:10:58</time>
      </trkpt>
      <trkpt lat="42.8415" lon="-0.46541">
        <ele>1672.2</ele>
        <time>2021-08-10 10:10:59</time>
      </trkpt>
      <trkpt lat="42.8415" lon="-0.46542">
        <ele>1672.2</ele>
        <time>2021-08-10 10:11:00</time>
      </trkpt>
      <trkpt lat="42.8415" lon="-0.46541">
        <ele>1672.4</ele>
        <time>2021-08-10 10:11:01</time>
      </trkpt>
      <trkpt lat="42.84149" lon="-0.46541">
        <ele>1672.4</ele>
        <time>2021-08-10 10:11:02</time>
      </trkpt>
      <trkpt lat="42.84148" lon="-0.46541">
        <ele>1672.6</ele>
        <time>2021-08-10 10:11:03</time>
      </trkpt>
      <trkpt lat="42.84148" lon="-0.46541">
        <ele>1672.8</ele>
        <time>2021-08-10 10:11:04</time>
      </trkpt>
      <trkpt lat="42.84148" lon="-0.46541">
        <ele>1673</ele>
        <time>2021-08-10 10:11:05</time>
      </trkpt>
      <trkpt lat="42.84147" lon="-0.4654">
        <ele>1673.2</ele>
        <time>2021-08-10 10:11:07</time>
      </trkpt>
      <trkpt lat="42.84147" lon="-0.4654">
        <ele>1673.2</ele>
        <time>2021-08-10 10:11:08</time>
      </trkpt>
      <trkpt lat="42.84147" lon="-0.4654">
        <ele>1673.2</ele>
        <time>2021-08-10 10:11:09</time>
      </trkpt>
      <trkpt lat="42.84146" lon="-0.46539">
        <ele>1673.4</ele>
        <time>2021-08-10 10:11:16</time>
      </trkpt>
      <trkpt lat="42.84146" lon="-0.46539">
        <ele>1673.4</ele>
        <time>2021-08-10 10:11:17</time>
      </trkpt>
      <trkpt lat="42.84146" lon="-0.46539">
        <ele>1673.6</ele>
        <time>2021-08-10 10:11:18</time>
      </trkpt>
      <trkpt lat="42.84146" lon="-0.46539">
        <ele>1673.6</ele>
        <time>2021-08-10 10:11:20</time>
      </trkpt>
      <trkpt lat="42.84146" lon="-0.46539">
        <ele>1674</ele>
        <time>2021-08-10 10:11:21</time>
      </trkpt>
      <trkpt lat="42.84146" lon="-0.46539">
        <ele>1674</ele>
        <time>2021-08-10 10:11:22</time>
      </trkpt>
      <trkpt lat="42.84145" lon="-0.46539">
        <ele>1674</ele>
        <time>2021-08-10 10:11:23</time>
      </trkpt>
      <trkpt lat="42.84145" lon="-0.46538">
        <ele>1674.4</ele>
        <time>2021-08-10 10:11:24</time>
      </trkpt>
      <trkpt lat="42.84145" lon="-0.46538">
        <ele>1674.4</ele>
        <time>2021-08-10 10:11:25</time>
      </trkpt>
      <trkpt lat="42.84145" lon="-0.46538">
        <ele>1674.6</ele>
        <time>2021-08-10 10:11:26</time>
      </trkpt>
      <trkpt lat="42.84145" lon="-0.46538">
        <ele>1674.6</ele>
        <time>2021-08-10 10:11:27</time>
      </trkpt>
      <trkpt lat="42.84144" lon="-0.46538">
        <ele>1674.8</ele>
        <time>2021-08-10 10:11:28</time>
      </trkpt>
      <trkpt lat="42.84144" lon="-0.46537">
        <ele>1674.8</ele>
        <time>2021-08-10 10:11:29</time>
      </trkpt>
      <trkpt lat="42.84144" lon="-0.46537">
        <ele>1675</ele>
        <time>2021-08-10 10:11:30</time>
      </trkpt>
      <trkpt lat="42.84143" lon="-0.46536">
        <ele>1675</ele>
        <time>2021-08-10 10:11:31</time>
      </trkpt>
      <trkpt lat="42.84144" lon="-0.46535">
        <ele>1675.2</ele>
        <time>2021-08-10 10:11:32</time>
      </trkpt>
      <trkpt lat="42.84144" lon="-0.46535">
        <ele>1675</ele>
        <time>2021-08-10 10:11:33</time>
      </trkpt>
      <trkpt lat="42.84144" lon="-0.46534">
        <ele>1675.2</ele>
        <time>2021-08-10 10:11:34</time>
      </trkpt>
      <trkpt lat="42.84144" lon="-0.46534">
        <ele>1675.2</ele>
        <time>2021-08-10 10:11:35</time>
      </trkpt>
      <trkpt lat="42.84145" lon="-0.46533">
        <ele>1675.4</ele>
        <time>2021-08-10 10:11:36</time>
      </trkpt>
      <trkpt lat="42.84145" lon="-0.46532">
        <ele>1675.6</ele>
        <time>2021-08-10 10:11:38</time>
      </trkpt>
      <trkpt lat="42.84145" lon="-0.46532">
        <ele>1675.8</ele>
        <time>2021-08-10 10:11:39</time>
      </trkpt>
      <trkpt lat="42.84146" lon="-0.46531">
        <ele>1675.8</ele>
        <time>2021-08-10 10:11:40</time>
      </trkpt>
      <trkpt lat="42.84145" lon="-0.46531">
        <ele>1676</ele>
        <time>2021-08-10 10:11:41</time>
      </trkpt>
      <trkpt lat="42.84146" lon="-0.4653">
        <ele>1676.2</ele>
        <time>2021-08-10 10:11:42</time>
      </trkpt>
      <trkpt lat="42.84145" lon="-0.4653">
        <ele>1676.2</ele>
        <time>2021-08-10 10:11:43</time>
      </trkpt>
      <trkpt lat="42.84145" lon="-0.46529">
        <ele>1676.4</ele>
        <time>2021-08-10 10:11:44</time>
      </trkpt>
      <trkpt lat="42.84145" lon="-0.46529">
        <ele>1676.6</ele>
        <time>2021-08-10 10:11:45</time>
      </trkpt>
      <trkpt lat="42.84145" lon="-0.46528">
        <ele>1676.8</ele>
        <time>2021-08-10 10:11:46</time>
      </trkpt>
      <trkpt lat="42.84145" lon="-0.46528">
        <ele>1676.8</ele>
        <time>2021-08-10 10:11:47</time>
      </trkpt>
      <trkpt lat="42.84145" lon="-0.46527">
        <ele>1677</ele>
        <time>2021-08-10 10:11:48</time>
      </trkpt>
      <trkpt lat="42.84145" lon="-0.46526">
        <ele>1677.2</ele>
        <time>2021-08-10 10:11:49</time>
      </trkpt>
      <trkpt lat="42.84145" lon="-0.46526">
        <ele>1677.4</ele>
        <time>2021-08-10 10:11:50</time>
      </trkpt>
      <trkpt lat="42.84145" lon="-0.46525">
        <ele>1677.6</ele>
        <time>2021-08-10 10:11:51</time>
      </trkpt>
      <trkpt lat="42.84144" lon="-0.46525">
        <ele>1677.6</ele>
        <time>2021-08-10 10:11:52</time>
      </trkpt>
      <trkpt lat="42.84144" lon="-0.46524">
        <ele>1677.8</ele>
        <time>2021-08-10 10:11:53</time>
      </trkpt>
      <trkpt lat="42.84144" lon="-0.46524">
        <ele>1678</ele>
        <time>2021-08-10 10:11:54</time>
      </trkpt>
      <trkpt lat="42.84143" lon="-0.46524">
        <ele>1678</ele>
        <time>2021-08-10 10:11:55</time>
      </trkpt>
      <trkpt lat="42.84143" lon="-0.46523">
        <ele>1678</ele>
        <time>2021-08-10 10:11:56</time>
      </trkpt>
      <trkpt lat="42.84142" lon="-0.46522">
        <ele>1678.2</ele>
        <time>2021-08-10 10:11:57</time>
      </trkpt>
      <trkpt lat="42.84142" lon="-0.46522">
        <ele>1678.4</ele>
        <time>2021-08-10 10:11:58</time>
      </trkpt>
      <trkpt lat="42.84142" lon="-0.46521">
        <ele>1678.6</ele>
        <time>2021-08-10 10:11:59</time>
      </trkpt>
      <trkpt lat="42.84142" lon="-0.4652">
        <ele>1679</ele>
        <time>2021-08-10 10:12:00</time>
      </trkpt>
      <trkpt lat="42.84142" lon="-0.4652">
        <ele>1679.2</ele>
        <time>2021-08-10 10:12:01</time>
      </trkpt>
      <trkpt lat="42.84142" lon="-0.46519">
        <ele>1679.4</ele>
        <time>2021-08-10 10:12:02</time>
      </trkpt>
      <trkpt lat="42.84142" lon="-0.46518">
        <ele>1679.4</ele>
        <time>2021-08-10 10:12:03</time>
      </trkpt>
      <trkpt lat="42.84141" lon="-0.46517">
        <ele>1679.4</ele>
        <time>2021-08-10 10:12:04</time>
      </trkpt>
      <trkpt lat="42.84141" lon="-0.46517">
        <ele>1679.4</ele>
        <time>2021-08-10 10:12:05</time>
      </trkpt>
      <trkpt lat="42.84141" lon="-0.46516">
        <ele>1679.4</ele>
        <time>2021-08-10 10:12:06</time>
      </trkpt>
      <trkpt lat="42.84141" lon="-0.46515">
        <ele>1679.4</ele>
        <time>2021-08-10 10:12:07</time>
      </trkpt>
      <trkpt lat="42.84141" lon="-0.46514">
        <ele>1680</ele>
        <time>2021-08-10 10:12:08</time>
      </trkpt>
      <trkpt lat="42.84141" lon="-0.46513">
        <ele>1680.2</ele>
        <time>2021-08-10 10:12:09</time>
      </trkpt>
      <trkpt lat="42.8414" lon="-0.46512">
        <ele>1680.4</ele>
        <time>2021-08-10 10:12:10</time>
      </trkpt>
      <trkpt lat="42.8414" lon="-0.46511">
        <ele>1680.4</ele>
        <time>2021-08-10 10:12:11</time>
      </trkpt>
      <trkpt lat="42.8414" lon="-0.46511">
        <ele>1680.8</ele>
        <time>2021-08-10 10:12:12</time>
      </trkpt>
      <trkpt lat="42.8414" lon="-0.4651">
        <ele>1680.8</ele>
        <time>2021-08-10 10:12:13</time>
      </trkpt>
      <trkpt lat="42.8414" lon="-0.46509">
        <ele>1680.8</ele>
        <time>2021-08-10 10:12:14</time>
      </trkpt>
      <trkpt lat="42.8414" lon="-0.46508">
        <ele>1681</ele>
        <time>2021-08-10 10:12:18</time>
      </trkpt>
      <trkpt lat="42.84139" lon="-0.46508">
        <ele>1681</ele>
        <time>2021-08-10 10:12:19</time>
      </trkpt>
      <trkpt lat="42.84139" lon="-0.46507">
        <ele>1681.2</ele>
        <time>2021-08-10 10:12:20</time>
      </trkpt>
      <trkpt lat="42.84139" lon="-0.46507">
        <ele>1681</ele>
        <time>2021-08-10 10:12:21</time>
      </trkpt>
      <trkpt lat="42.84139" lon="-0.46507">
        <ele>1681</ele>
        <time>2021-08-10 10:12:22</time>
      </trkpt>
      <trkpt lat="42.84139" lon="-0.46507">
        <ele>1681.2</ele>
        <time>2021-08-10 10:12:23</time>
      </trkpt>
      <trkpt lat="42.84138" lon="-0.46506">
        <ele>1681.6</ele>
        <time>2021-08-10 10:12:24</time>
      </trkpt>
      <trkpt lat="42.84138" lon="-0.46506">
        <ele>1681.8</ele>
        <time>2021-08-10 10:12:25</time>
      </trkpt>
      <trkpt lat="42.84137" lon="-0.46506">
        <ele>1682</ele>
        <time>2021-08-10 10:12:26</time>
      </trkpt>
      <trkpt lat="42.84137" lon="-0.46505">
        <ele>1682</ele>
        <time>2021-08-10 10:12:27</time>
      </trkpt>
      <trkpt lat="42.84137" lon="-0.46505">
        <ele>1682.2</ele>
        <time>2021-08-10 10:12:28</time>
      </trkpt>
      <trkpt lat="42.84136" lon="-0.46504">
        <ele>1682.6</ele>
        <time>2021-08-10 10:12:29</time>
      </trkpt>
      <trkpt lat="42.84137" lon="-0.46503">
        <ele>1682.6</ele>
        <time>2021-08-10 10:12:30</time>
      </trkpt>
      <trkpt lat="42.84137" lon="-0.46502">
        <ele>1682.8</ele>
        <time>2021-08-10 10:12:31</time>
      </trkpt>
      <trkpt lat="42.84136" lon="-0.46502">
        <ele>1682.8</ele>
        <time>2021-08-10 10:12:32</time>
      </trkpt>
      <trkpt lat="42.84136" lon="-0.46502">
        <ele>1682.8</ele>
        <time>2021-08-10 10:12:33</time>
      </trkpt>
      <trkpt lat="42.84136" lon="-0.46501">
        <ele>1683.2</ele>
        <time>2021-08-10 10:12:34</time>
      </trkpt>
      <trkpt lat="42.84136" lon="-0.46501">
        <ele>1683.6</ele>
        <time>2021-08-10 10:12:35</time>
      </trkpt>
      <trkpt lat="42.84136" lon="-0.46501">
        <ele>1683.6</ele>
        <time>2021-08-10 10:12:36</time>
      </trkpt>
      <trkpt lat="42.84136" lon="-0.46501">
        <ele>1683.8</ele>
        <time>2021-08-10 10:12:37</time>
      </trkpt>
      <trkpt lat="42.84136" lon="-0.46501">
        <ele>1683.8</ele>
        <time>2021-08-10 10:12:38</time>
      </trkpt>
      <trkpt lat="42.84136" lon="-0.46501">
        <ele>1683.8</ele>
        <time>2021-08-10 10:12:39</time>
      </trkpt>
      <trkpt lat="42.84135" lon="-0.46501">
        <ele>1683.8</ele>
        <time>2021-08-10 10:12:40</time>
      </trkpt>
      <trkpt lat="42.84134" lon="-0.465">
        <ele>1684.2</ele>
        <time>2021-08-10 10:12:41</time>
      </trkpt>
      <trkpt lat="42.84134" lon="-0.465">
        <ele>1684.2</ele>
        <time>2021-08-10 10:12:42</time>
      </trkpt>
      <trkpt lat="42.84135" lon="-0.46499">
        <ele>1684.4</ele>
        <time>2021-08-10 10:12:43</time>
      </trkpt>
      <trkpt lat="42.84135" lon="-0.46498">
        <ele>1684.4</ele>
        <time>2021-08-10 10:12:44</time>
      </trkpt>
      <trkpt lat="42.84134" lon="-0.46498">
        <ele>1684.6</ele>
        <time>2021-08-10 10:12:45</time>
      </trkpt>
      <trkpt lat="42.84134" lon="-0.46497">
        <ele>1684.8</ele>
        <time>2021-08-10 10:12:46</time>
      </trkpt>
      <trkpt lat="42.84134" lon="-0.46497">
        <ele>1685.2</ele>
        <time>2021-08-10 10:12:47</time>
      </trkpt>
      <trkpt lat="42.84134" lon="-0.46497">
        <ele>1685.2</ele>
      </trkpt>
      <trkpt lat="42.84133" lon="-0.46497">
        <ele>1685.4</ele>
        <time>2021-08-10 10:12:48</time>
      </trkpt>
      <trkpt lat="42.84133" lon="-0.46497">
        <ele>1685.6</ele>
        <time>2021-08-10 10:12:49</time>
      </trkpt>
      <trkpt lat="42.84133" lon="-0.46497">
        <ele>1685.6</ele>
        <time>2021-08-10 10:12:50</time>
      </trkpt>
      <trkpt lat="42.84133" lon="-0.46497">
        <ele>1685.4</ele>
        <time>2021-08-10 10:12:51</time>
      </trkpt>
      <trkpt lat="42.84133" lon="-0.46496">
        <ele>1685.6</ele>
        <time>2021-08-10 10:12:52</time>
      </trkpt>
      <trkpt lat="42.84133" lon="-0.46496">
        <ele>1685.8</ele>
        <time>2021-08-10 10:12:53</time>
      </trkpt>
      <trkpt lat="42.84133" lon="-0.46495">
        <ele>1685.8</ele>
        <time>2021-08-10 10:12:54</time>
      </trkpt>
      <trkpt lat="42.84133" lon="-0.46494">
        <ele>1686</ele>
        <time>2021-08-10 10:12:55</time>
      </trkpt>
      <trkpt lat="42.84133" lon="-0.46493">
        <ele>1686.2</ele>
        <time>2021-08-10 10:12:56</time>
      </trkpt>
      <trkpt lat="42.84133" lon="-0.46493">
        <ele>1686.4</ele>
        <time>2021-08-10 10:12:57</time>
      </trkpt>
      <trkpt lat="42.84133" lon="-0.46493">
        <ele>1686.6</ele>
        <time>2021-08-10 10:12:58</time>
      </trkpt>
      <trkpt lat="42.84133" lon="-0.46493">
        <ele>1686.2</ele>
        <time>2021-08-10 10:12:59</time>
      </trkpt>
      <trkpt lat="42.84133" lon="-0.46492">
        <ele>1686.4</ele>
        <time>2021-08-10 10:13:00</time>
      </trkpt>
      <trkpt lat="42.84133" lon="-0.46492">
        <ele>1686.6</ele>
        <time>2021-08-10 10:13:01</time>
      </trkpt>
      <trkpt lat="42.84133" lon="-0.46492">
        <ele>1686.4</ele>
        <time>2021-08-10 10:13:02</time>
      </trkpt>
      <trkpt lat="42.84132" lon="-0.46492">
        <ele>1686.4</ele>
        <time>2021-08-10 10:13:03</time>
      </trkpt>
      <trkpt lat="42.84132" lon="-0.46491">
        <ele>1686.6</ele>
        <time>2021-08-10 10:13:05</time>
      </trkpt>
      <trkpt lat="42.84132" lon="-0.46491">
        <ele>1687</ele>
      </trkpt>
      <trkpt lat="42.84131" lon="-0.4649">
        <ele>1687.2</ele>
        <time>2021-08-10 10:13:06</time>
      </trkpt>
      <trkpt lat="42.84131" lon="-0.4649">
        <ele>1687.4</ele>
        <time>2021-08-10 10:13:07</time>
      </trkpt>
      <trkpt lat="42.84131" lon="-0.4649">
        <ele>1687.4</ele>
        <time>2021-08-10 10:13:08</time>
      </trkpt>
      <trkpt lat="42.8413" lon="-0.4649">
        <ele>1687.8</ele>
        <time>2021-08-10 10:13:09</time>
      </trkpt>
      <trkpt lat="42.8413" lon="-0.4649">
        <ele>1687.6</ele>
        <time>2021-08-10 10:13:10</time>
      </trkpt>
      <trkpt lat="42.8413" lon="-0.4649">
        <ele>1687.8</ele>
        <time>2021-08-10 10:13:11</time>
      </trkpt>
      <trkpt lat="42.8413" lon="-0.4649">
        <ele>1687.8</ele>
        <time>2021-08-10 10:13:12</time>
      </trkpt>
      <trkpt lat="42.8413" lon="-0.4649">
        <ele>1688.2</ele>
        <time>2021-08-10 10:13:13</time>
      </trkpt>
      <trkpt lat="42.84129" lon="-0.4649">
        <ele>1688.4</ele>
        <time>2021-08-10 10:13:14</time>
      </trkpt>
      <trkpt lat="42.84129" lon="-0.4649">
        <ele>1688.6</ele>
        <time>2021-08-10 10:13:15</time>
      </trkpt>
      <trkpt lat="42.84129" lon="-0.4649">
        <ele>1688.6</ele>
        <time>2021-08-10 10:13:16</time>
      </trkpt>
      <trkpt lat="42.84129" lon="-0.46489">
        <ele>1688.6</ele>
        <time>2021-08-10 10:13:17</time>
      </trkpt>
      <trkpt lat="42.84128" lon="-0.46489">
        <ele>1688.6</ele>
        <time>2021-08-10 10:13:18</time>
      </trkpt>
      <trkpt lat="42.84128" lon="-0.46488">
        <ele>1688.8</ele>
        <time>2021-08-10 10:13:19</time>
      </trkpt>
      <trkpt lat="42.84128" lon="-0.46488">
        <ele>1689</ele>
        <time>2021-08-10 10:13:20</time>
      </trkpt>
      <trkpt lat="42.84127" lon="-0.46487">
        <ele>1689.2</ele>
        <time>2021-08-10 10:13:21</time>
      </trkpt>
      <trkpt lat="42.84127" lon="-0.46488">
        <ele>1689.2</ele>
        <time>2021-08-10 10:13:22</time>
      </trkpt>
      <trkpt lat="42.84127" lon="-0.46488">
        <ele>1689.4</ele>
        <time>2021-08-10 10:13:23</time>
      </trkpt>
      <trkpt lat="42.84126" lon="-0.46488">
        <ele>1689.4</ele>
        <time>2021-08-10 10:13:24</time>
      </trkpt>
      <trkpt lat="42.84126" lon="-0.46489">
        <ele>1689.6</ele>
        <time>2021-08-10 10:13:25</time>
      </trkpt>
      <trkpt lat="42.84125" lon="-0.46488">
        <ele>1689.6</ele>
        <time>2021-08-10 10:13:26</time>
      </trkpt>
      <trkpt lat="42.84125" lon="-0.46488">
        <ele>1689.8</ele>
        <time>2021-08-10 10:13:27</time>
      </trkpt>
      <trkpt lat="42.84125" lon="-0.46487">
        <ele>1689.8</ele>
        <time>2021-08-10 10:13:28</time>
      </trkpt>
      <trkpt lat="42.84125" lon="-0.46487">
        <ele>1690</ele>
        <time>2021-08-10 10:13:29</time>
      </trkpt>
      <trkpt lat="42.84123" lon="-0.46488">
        <ele>1690</ele>
        <time>2021-08-10 10:13:30</time>
      </trkpt>
      <trkpt lat="42.84123" lon="-0.46487">
        <ele>1690.2</ele>
        <time>2021-08-10 10:13:31</time>
      </trkpt>
      <trkpt lat="42.84123" lon="-0.46486">
        <ele>1690.4</ele>
        <time>2021-08-10 10:13:32</time>
      </trkpt>
      <trkpt lat="42.84122" lon="-0.46486">
        <ele>1690.8</ele>
        <time>2021-08-10 10:13:34</time>
      </trkpt>
      <trkpt lat="42.84122" lon="-0.46486">
        <ele>1690.8</ele>
        <time>2021-08-10 10:13:35</time>
      </trkpt>
      <trkpt lat="42.84122" lon="-0.46485">
        <ele>1691</ele>
        <time>2021-08-10 10:13:36</time>
      </trkpt>
      <trkpt lat="42.84122" lon="-0.46485">
        <ele>1691.2</ele>
        <time>2021-08-10 10:13:37</time>
      </trkpt>
      <trkpt lat="42.84121" lon="-0.46484">
        <ele>1691.4</ele>
        <time>2021-08-10 10:13:38</time>
      </trkpt>
      <trkpt lat="42.84121" lon="-0.46484">
        <ele>1691.4</ele>
        <time>2021-08-10 10:13:39</time>
      </trkpt>
      <trkpt lat="42.84121" lon="-0.46483">
        <ele>1691.6</ele>
        <time>2021-08-10 10:13:40</time>
      </trkpt>
      <trkpt lat="42.84122" lon="-0.46482">
        <ele>1691.8</ele>
        <time>2021-08-10 10:13:41</time>
      </trkpt>
      <trkpt lat="42.84122" lon="-0.46482">
        <ele>1692</ele>
        <time>2021-08-10 10:13:42</time>
      </trkpt>
      <trkpt lat="42.84123" lon="-0.46481">
        <ele>1691.8</ele>
        <time>2021-08-10 10:13:43</time>
      </trkpt>
      <trkpt lat="42.84121" lon="-0.4648">
        <ele>1692.2</ele>
        <time>2021-08-10 10:13:44</time>
      </trkpt>
      <trkpt lat="42.84122" lon="-0.46479">
        <ele>1692.4</ele>
        <time>2021-08-10 10:13:45</time>
      </trkpt>
      <trkpt lat="42.84122" lon="-0.46479">
        <ele>1692.4</ele>
        <time>2021-08-10 10:13:46</time>
      </trkpt>
      <trkpt lat="42.84122" lon="-0.46478">
        <ele>1692.6</ele>
        <time>2021-08-10 10:13:47</time>
      </trkpt>
      <trkpt lat="42.84122" lon="-0.46478">
        <ele>1692.6</ele>
        <time>2021-08-10 10:13:52</time>
      </trkpt>
      <trkpt lat="42.84122" lon="-0.46477">
        <ele>1692.8</ele>
        <time>2021-08-10 10:13:53</time>
      </trkpt>
      <trkpt lat="42.84122" lon="-0.46476">
        <ele>1692.6</ele>
        <time>2021-08-10 10:13:54</time>
      </trkpt>
      <trkpt lat="42.84122" lon="-0.46476">
        <ele>1693</ele>
        <time>2021-08-10 10:13:55</time>
      </trkpt>
      <trkpt lat="42.84122" lon="-0.46476">
        <ele>1693.2</ele>
        <time>2021-08-10 10:13:56</time>
      </trkpt>
      <trkpt lat="42.84122" lon="-0.46475">
        <ele>1693.4</ele>
        <time>2021-08-10 10:13:57</time>
      </trkpt>
      <trkpt lat="42.84121" lon="-0.46475">
        <ele>1693.4</ele>
        <time>2021-08-10 10:13:58</time>
      </trkpt>
      <trkpt lat="42.84121" lon="-0.46474">
        <ele>1693.4</ele>
        <time>2021-08-10 10:13:59</time>
      </trkpt>
      <trkpt lat="42.84121" lon="-0.46474">
        <ele>1693.6</ele>
        <time>2021-08-10 10:14:00</time>
      </trkpt>
      <trkpt lat="42.8412" lon="-0.46473">
        <ele>1693.8</ele>
        <time>2021-08-10 10:14:01</time>
      </trkpt>
      <trkpt lat="42.84119" lon="-0.46474">
        <ele>1694</ele>
        <time>2021-08-10 10:14:02</time>
      </trkpt>
      <trkpt lat="42.84119" lon="-0.46473">
        <ele>1694</ele>
        <time>2021-08-10 10:14:03</time>
      </trkpt>
      <trkpt lat="42.84119" lon="-0.46473">
        <ele>1694.2</ele>
        <time>2021-08-10 10:14:04</time>
      </trkpt>
      <trkpt lat="42.84118" lon="-0.46473">
        <ele>1694.2</ele>
        <time>2021-08-10 10:14:05</time>
      </trkpt>
      <trkpt lat="42.84118" lon="-0.46472">
        <ele>1694.4</ele>
        <time>2021-08-10 10:14:06</time>
      </trkpt>
      <trkpt lat="42.84118" lon="-0.46472">
        <ele>1694.6</ele>
        <time>2021-08-10 10:14:07</time>
      </trkpt>
      <trkpt lat="42.84117" lon="-0.46471">
        <ele>1694.6</ele>
        <time>2021-08-10 10:14:08</time>
      </trkpt>
      <trkpt lat="42.84116" lon="-0.46471">
        <ele>1694.8</ele>
        <time>2021-08-10 10:14:09</time>
      </trkpt>
      <trkpt lat="42.84116" lon="-0.46471">
        <ele>1694.8</ele>
        <time>2021-08-10 10:14:10</time>
      </trkpt>
      <trkpt lat="42.84116" lon="-0.46471">
        <ele>1695</ele>
        <time>2021-08-10 10:14:11</time>
      </trkpt>
      <trkpt lat="42.84115" lon="-0.46471">
        <ele>1695.2</ele>
        <time>2021-08-10 10:14:12</time>
      </trkpt>
      <trkpt lat="42.84115" lon="-0.46471">
        <ele>1695.4</ele>
        <time>2021-08-10 10:14:13</time>
      </trkpt>
      <trkpt lat="42.84115" lon="-0.46471">
        <ele>1695.4</ele>
        <time>2021-08-10 10:14:14</time>
      </trkpt>
      <trkpt lat="42.84115" lon="-0.46471">
        <ele>1695.6</ele>
        <time>2021-08-10 10:14:15</time>
      </trkpt>
      <trkpt lat="42.84114" lon="-0.46471">
        <ele>1695.8</ele>
        <time>2021-08-10 10:14:16</time>
      </trkpt>
      <trkpt lat="42.84113" lon="-0.46471">
        <ele>1696</ele>
        <time>2021-08-10 10:14:17</time>
      </trkpt>
      <trkpt lat="42.84112" lon="-0.46471">
        <ele>1696.2</ele>
        <time>2021-08-10 10:14:18</time>
      </trkpt>
      <trkpt lat="42.84111" lon="-0.4647">
        <ele>1696.2</ele>
        <time>2021-08-10 10:14:19</time>
      </trkpt>
      <trkpt lat="42.84111" lon="-0.46469">
        <ele>1696.2</ele>
        <time>2021-08-10 10:14:20</time>
      </trkpt>
      <trkpt lat="42.84111" lon="-0.46469">
        <ele>1696.2</ele>
        <time>2021-08-10 10:14:21</time>
      </trkpt>
      <trkpt lat="42.8411" lon="-0.46468">
        <ele>1696.4</ele>
        <time>2021-08-10 10:14:22</time>
      </trkpt>
      <trkpt lat="42.8411" lon="-0.46468">
        <ele>1696.6</ele>
        <time>2021-08-10 10:14:23</time>
      </trkpt>
      <trkpt lat="42.8411" lon="-0.46468">
        <ele>1696.8</ele>
        <time>2021-08-10 10:14:24</time>
      </trkpt>
      <trkpt lat="42.8411" lon="-0.46468">
        <ele>1696.8</ele>
        <time>2021-08-10 10:14:25</time>
      </trkpt>
      <trkpt lat="42.84109" lon="-0.46467">
        <ele>1697</ele>
        <time>2021-08-10 10:14:26</time>
      </trkpt>
      <trkpt lat="42.84109" lon="-0.46467">
        <ele>1697.2</ele>
        <time>2021-08-10 10:14:27</time>
      </trkpt>
      <trkpt lat="42.84109" lon="-0.46466">
        <ele>1697.4</ele>
        <time>2021-08-10 10:14:28</time>
      </trkpt>
      <trkpt lat="42.84109" lon="-0.46467">
        <ele>1697.4</ele>
        <time>2021-08-10 10:14:29</time>
      </trkpt>
      <trkpt lat="42.84108" lon="-0.46467">
        <ele>1697.8</ele>
        <time>2021-08-10 10:14:30</time>
      </trkpt>
      <trkpt lat="42.84108" lon="-0.46466">
        <ele>1698</ele>
        <time>2021-08-10 10:14:31</time>
      </trkpt>
      <trkpt lat="42.84107" lon="-0.46467">
        <ele>1698</ele>
        <time>2021-08-10 10:14:32</time>
      </trkpt>
      <trkpt lat="42.84107" lon="-0.46467">
        <ele>1698.4</ele>
        <time>2021-08-10 10:14:33</time>
      </trkpt>
      <trkpt lat="42.84107" lon="-0.46467">
        <ele>1698.6</ele>
        <time>2021-08-10 10:14:34</time>
      </trkpt>
      <trkpt lat="42.84107" lon="-0.46467">
        <ele>1699</ele>
        <time>2021-08-10 10:14:35</time>
      </trkpt>
      <trkpt lat="42.84108" lon="-0.46467">
        <ele>1699</ele>
        <time>2021-08-10 10:14:36</time>
      </trkpt>
      <trkpt lat="42.84108" lon="-0.46467">
        <ele>1699</ele>
        <time>2021-08-10 10:14:37</time>
      </trkpt>
      <trkpt lat="42.84108" lon="-0.46467">
        <ele>1699</ele>
        <time>2021-08-10 10:14:38</time>
      </trkpt>
      <trkpt lat="42.84107" lon="-0.46467">
        <ele>1699.2</ele>
        <time>2021-08-10 10:14:39</time>
      </trkpt>
      <trkpt lat="42.84106" lon="-0.46467">
        <ele>1699.2</ele>
        <time>2021-08-10 10:14:40</time>
      </trkpt>
      <trkpt lat="42.84106" lon="-0.46467">
        <ele>1699.2</ele>
        <time>2021-08-10 10:14:41</time>
      </trkpt>
      <trkpt lat="42.84106" lon="-0.46467">
        <ele>1699</ele>
        <time>2021-08-10 10:14:42</time>
      </trkpt>
      <trkpt lat="42.84105" lon="-0.46466">
        <ele>1699.2</ele>
        <time>2021-08-10 10:14:51</time>
      </trkpt>
      <trkpt lat="42.84105" lon="-0.46466">
        <ele>1699.4</ele>
        <time>2021-08-10 10:14:52</time>
      </trkpt>
      <trkpt lat="42.84105" lon="-0.46466">
        <ele>1699.6</ele>
        <time>2021-08-10 10:14:53</time>
      </trkpt>
      <trkpt lat="42.84105" lon="-0.46465">
        <ele>1699.8</ele>
        <time>2021-08-10 10:14:54</time>
      </trkpt>
      <trkpt lat="42.84105" lon="-0.46465">
        <ele>1700</ele>
        <time>2021-08-10 10:14:55</time>
      </trkpt>
      <trkpt lat="42.84104" lon="-0.46465">
        <ele>1700.2</ele>
        <time>2021-08-10 10:14:56</time>
      </trkpt>
      <trkpt lat="42.84104" lon="-0.46465">
        <ele>1700.4</ele>
        <time>2021-08-10 10:14:57</time>
      </trkpt>
      <trkpt lat="42.84104" lon="-0.46465">
        <ele>1700.8</ele>
        <time>2021-08-10 10:14:58</time>
      </trkpt>
      <trkpt lat="42.84104" lon="-0.46465">
        <ele>1701</ele>
        <time>2021-08-10 10:14:59</time>
      </trkpt>
      <trkpt lat="42.84103" lon="-0.46465">
        <ele>1701</ele>
        <time>2021-08-10 10:15:00</time>
      </trkpt>
      <trkpt lat="42.84103" lon="-0.46464">
        <ele>1701.2</ele>
        <time>2021-08-10 10:15:01</time>
      </trkpt>
      <trkpt lat="42.84103" lon="-0.46464">
        <ele>1701.2</ele>
        <time>2021-08-10 10:15:02</time>
      </trkpt>
      <trkpt lat="42.84103" lon="-0.46464">
        <ele>1701.2</ele>
        <time>2021-08-10 10:15:03</time>
      </trkpt>
      <trkpt lat="42.84102" lon="-0.46464">
        <ele>1701.2</ele>
        <time>2021-08-10 10:15:04</time>
      </trkpt>
      <trkpt lat="42.84102" lon="-0.46464">
        <ele>1701.2</ele>
        <time>2021-08-10 10:15:05</time>
      </trkpt>
      <trkpt lat="42.84102" lon="-0.46463">
        <ele>1701.2</ele>
        <time>2021-08-10 10:15:06</time>
      </trkpt>
      <trkpt lat="42.84101" lon="-0.46462">
        <ele>1701.4</ele>
        <time>2021-08-10 10:15:07</time>
      </trkpt>
      <trkpt lat="42.84101" lon="-0.46462">
        <ele>1701.8</ele>
        <time>2021-08-10 10:15:08</time>
      </trkpt>
      <trkpt lat="42.841" lon="-0.46461">
        <ele>1702</ele>
        <time>2021-08-10 10:15:09</time>
      </trkpt>
      <trkpt lat="42.841" lon="-0.46461">
        <ele>1702.4</ele>
        <time>2021-08-10 10:15:10</time>
      </trkpt>
      <trkpt lat="42.841" lon="-0.4646">
        <ele>1702.6</ele>
        <time>2021-08-10 10:15:11</time>
      </trkpt>
      <trkpt lat="42.84099" lon="-0.4646">
        <ele>1702.6</ele>
        <time>2021-08-10 10:15:12</time>
      </trkpt>
      <trkpt lat="42.84099" lon="-0.4646">
        <ele>1702.8</ele>
        <time>2021-08-10 10:15:13</time>
      </trkpt>
      <trkpt lat="42.84099" lon="-0.4646">
        <ele>1703</ele>
        <time>2021-08-10 10:15:14</time>
      </trkpt>
      <trkpt lat="42.84098" lon="-0.46459">
        <ele>1702.6</ele>
        <time>2021-08-10 10:15:15</time>
      </trkpt>
      <trkpt lat="42.84098" lon="-0.46459">
        <ele>1702.6</ele>
        <time>2021-08-10 10:15:16</time>
      </trkpt>
      <trkpt lat="42.84098" lon="-0.46458">
        <ele>1702.8</ele>
        <time>2021-08-10 10:15:17</time>
      </trkpt>
      <trkpt lat="42.84098" lon="-0.46458">
        <ele>1703.2</ele>
        <time>2021-08-10 10:15:18</time>
      </trkpt>
      <trkpt lat="42.84098" lon="-0.46458">
        <ele>1703.4</ele>
        <time>2021-08-10 10:15:19</time>
      </trkpt>
      <trkpt lat="42.84098" lon="-0.46458">
        <ele>1703.4</ele>
        <time>2021-08-10 10:15:20</time>
      </trkpt>
      <trkpt lat="42.84097" lon="-0.46458">
        <ele>1703.6</ele>
        <time>2021-08-10 10:15:21</time>
      </trkpt>
      <trkpt lat="42.84098" lon="-0.46458">
        <ele>1703.6</ele>
        <time>2021-08-10 10:15:22</time>
      </trkpt>
      <trkpt lat="42.84098" lon="-0.46458">
        <ele>1703.8</ele>
        <time>2021-08-10 10:15:23</time>
      </trkpt>
      <trkpt lat="42.84097" lon="-0.46458">
        <ele>1703.8</ele>
        <time>2021-08-10 10:15:24</time>
      </trkpt>
      <trkpt lat="42.84098" lon="-0.46458">
        <ele>1703.8</ele>
        <time>2021-08-10 10:15:25</time>
      </trkpt>
      <trkpt lat="42.84097" lon="-0.46457">
        <ele>1704</ele>
        <time>2021-08-10 10:15:26</time>
      </trkpt>
      <trkpt lat="42.84097" lon="-0.46457">
        <ele>1703.8</ele>
        <time>2021-08-10 10:15:27</time>
      </trkpt>
      <trkpt lat="42.84096" lon="-0.46457">
        <ele>1703.8</ele>
        <time>2021-08-10 10:15:28</time>
      </trkpt>
      <trkpt lat="42.84097" lon="-0.46456">
        <ele>1703.6</ele>
        <time>2021-08-10 10:15:29</time>
      </trkpt>
      <trkpt lat="42.84098" lon="-0.46455">
        <ele>1703.8</ele>
        <time>2021-08-10 10:15:30</time>
      </trkpt>
      <trkpt lat="42.84098" lon="-0.46455">
        <ele>1704</ele>
        <time>2021-08-10 10:15:31</time>
      </trkpt>
      <trkpt lat="42.84098" lon="-0.46454">
        <ele>1704</ele>
        <time>2021-08-10 10:15:32</time>
      </trkpt>
      <trkpt lat="42.84098" lon="-0.46454">
        <ele>1704.2</ele>
        <time>2021-08-10 10:15:33</time>
      </trkpt>
      <trkpt lat="42.84097" lon="-0.46453">
        <ele>1704.2</ele>
        <time>2021-08-10 10:15:34</time>
      </trkpt>
      <trkpt lat="42.84097" lon="-0.46453">
        <ele>1704.4</ele>
        <time>2021-08-10 10:15:35</time>
      </trkpt>
      <trkpt lat="42.84097" lon="-0.46453">
        <ele>1704.8</ele>
        <time>2021-08-10 10:15:36</time>
      </trkpt>
      <trkpt lat="42.84097" lon="-0.46452">
        <ele>1705.2</ele>
        <time>2021-08-10 10:15:37</time>
      </trkpt>
      <trkpt lat="42.84098" lon="-0.46451">
        <ele>1705.4</ele>
        <time>2021-08-10 10:15:43</time>
      </trkpt>
      <trkpt lat="42.84098" lon="-0.46451">
        <ele>1705.4</ele>
        <time>2021-08-10 10:15:44</time>
      </trkpt>
      <trkpt lat="42.84097" lon="-0.46451">
        <ele>1705.2</ele>
        <time>2021-08-10 10:15:45</time>
      </trkpt>
      <trkpt lat="42.84098" lon="-0.4645">
        <ele>1705.4</ele>
        <time>2021-08-10 10:15:52</time>
      </trkpt>
      <trkpt lat="42.84098" lon="-0.4645">
        <ele>1705.6</ele>
        <time>2021-08-10 10:15:53</time>
      </trkpt>
      <trkpt lat="42.84097" lon="-0.4645">
        <ele>1705.8</ele>
        <time>2021-08-10 10:15:54</time>
      </trkpt>
      <trkpt lat="42.84096" lon="-0.4645">
        <ele>1706.2</ele>
        <time>2021-08-10 10:15:55</time>
      </trkpt>
      <trkpt lat="42.84096" lon="-0.4645">
        <ele>1706.4</ele>
        <time>2021-08-10 10:15:56</time>
      </trkpt>
      <trkpt lat="42.84096" lon="-0.4645">
        <ele>1706.2</ele>
        <time>2021-08-10 10:15:57</time>
      </trkpt>
      <trkpt lat="42.84096" lon="-0.46449">
        <ele>1706.4</ele>
        <time>2021-08-10 10:15:58</time>
      </trkpt>
      <trkpt lat="42.84095" lon="-0.46449">
        <ele>1706.8</ele>
        <time>2021-08-10 10:15:59</time>
      </trkpt>
      <trkpt lat="42.84095" lon="-0.46449">
        <ele>1707.2</ele>
        <time>2021-08-10 10:16:00</time>
      </trkpt>
      <trkpt lat="42.84094" lon="-0.46449">
        <ele>1707.2</ele>
        <time>2021-08-10 10:16:01</time>
      </trkpt>
      <trkpt lat="42.84094" lon="-0.46448">
        <ele>1707.4</ele>
        <time>2021-08-10 10:16:02</time>
      </trkpt>
      <trkpt lat="42.84093" lon="-0.46448">
        <ele>1707.6</ele>
        <time>2021-08-10 10:16:03</time>
      </trkpt>
      <trkpt lat="42.84093" lon="-0.46449">
        <ele>1707.6</ele>
        <time>2021-08-10 10:16:04</time>
      </trkpt>
      <trkpt lat="42.84092" lon="-0.46448">
        <ele>1707.8</ele>
        <time>2021-08-10 10:16:05</time>
      </trkpt>
      <trkpt lat="42.84092" lon="-0.46448">
        <ele>1708</ele>
        <time>2021-08-10 10:16:06</time>
      </trkpt>
      <trkpt lat="42.84091" lon="-0.46448">
        <ele>1708.2</ele>
        <time>2021-08-10 10:16:07</time>
      </trkpt>
      <trkpt lat="42.84091" lon="-0.46447">
        <ele>1708.2</ele>
        <time>2021-08-10 10:16:08</time>
      </trkpt>
      <trkpt lat="42.8409" lon="-0.46447">
        <ele>1708.4</ele>
        <time>2021-08-10 10:16:09</time>
      </trkpt>
      <trkpt lat="42.8409" lon="-0.46447">
        <ele>1708.6</ele>
        <time>2021-08-10 10:16:10</time>
      </trkpt>
      <trkpt lat="42.84089" lon="-0.46447">
        <ele>1709</ele>
        <time>2021-08-10 10:16:11</time>
      </trkpt>
      <trkpt lat="42.84089" lon="-0.46447">
        <ele>1709.2</ele>
        <time>2021-08-10 10:16:12</time>
      </trkpt>
      <trkpt lat="42.84088" lon="-0.46447">
        <ele>1709</ele>
        <time>2021-08-10 10:16:13</time>
      </trkpt>
      <trkpt lat="42.84087" lon="-0.46446">
        <ele>1709.2</ele>
        <time>2021-08-10 10:16:14</time>
      </trkpt>
      <trkpt lat="42.84087" lon="-0.46446">
        <ele>1709.6</ele>
        <time>2021-08-10 10:16:15</time>
      </trkpt>
      <trkpt lat="42.84087" lon="-0.46446">
        <ele>1709.6</ele>
        <time>2021-08-10 10:16:16</time>
      </trkpt>
      <trkpt lat="42.84086" lon="-0.46445">
        <ele>1709.6</ele>
        <time>2021-08-10 10:16:17</time>
      </trkpt>
      <trkpt lat="42.84086" lon="-0.46445">
        <ele>1710</ele>
        <time>2021-08-10 10:16:18</time>
      </trkpt>
      <trkpt lat="42.84086" lon="-0.46445">
        <ele>1710</ele>
        <time>2021-08-10 10:16:19</time>
      </trkpt>
      <trkpt lat="42.84085" lon="-0.46444">
        <ele>1710</ele>
        <time>2021-08-10 10:16:20</time>
      </trkpt>
      <trkpt lat="42.84085" lon="-0.46443">
        <ele>1710</ele>
        <time>2021-08-10 10:16:21</time>
      </trkpt>
      <trkpt lat="42.84085" lon="-0.46443">
        <ele>1710</ele>
        <time>2021-08-10 10:16:22</time>
      </trkpt>
      <trkpt lat="42.84085" lon="-0.46442">
        <ele>1710.4</ele>
        <time>2021-08-10 10:16:23</time>
      </trkpt>
      <trkpt lat="42.84085" lon="-0.46441">
        <ele>1710.2</ele>
        <time>2021-08-10 10:16:24</time>
      </trkpt>
      <trkpt lat="42.84085" lon="-0.4644">
        <ele>1710.4</ele>
        <time>2021-08-10 10:16:25</time>
      </trkpt>
      <trkpt lat="42.84086" lon="-0.4644">
        <ele>1710.2</ele>
        <time>2021-08-10 10:16:26</time>
      </trkpt>
      <trkpt lat="42.84086" lon="-0.4644">
        <ele>1710.6</ele>
        <time>2021-08-10 10:16:27</time>
      </trkpt>
      <trkpt lat="42.84085" lon="-0.46439">
        <ele>1711</ele>
        <time>2021-08-10 10:16:28</time>
      </trkpt>
      <trkpt lat="42.84085" lon="-0.46439">
        <ele>1710.8</ele>
        <time>2021-08-10 10:16:29</time>
      </trkpt>
      <trkpt lat="42.84084" lon="-0.46439">
        <ele>1711</ele>
        <time>2021-08-10 10:16:30</time>
      </trkpt>
      <trkpt lat="42.84083" lon="-0.46439">
        <ele>1710.8</ele>
        <time>2021-08-10 10:16:31</time>
      </trkpt>
      <trkpt lat="42.84084" lon="-0.46438">
        <ele>1711</ele>
        <time>2021-08-10 10:16:32</time>
      </trkpt>
      <trkpt lat="42.84084" lon="-0.46436">
        <ele>1711.4</ele>
        <time>2021-08-10 10:16:33</time>
      </trkpt>
      <trkpt lat="42.84085" lon="-0.46436">
        <ele>1711.8</ele>
        <time>2021-08-10 10:16:34</time>
      </trkpt>
      <trkpt lat="42.84085" lon="-0.46435">
        <ele>1711.8</ele>
        <time>2021-08-10 10:16:39</time>
      </trkpt>
      <trkpt lat="42.84085" lon="-0.46435">
        <ele>1712</ele>
        <time>2021-08-10 10:16:40</time>
      </trkpt>
      <trkpt lat="42.84085" lon="-0.46434">
        <ele>1712.4</ele>
        <time>2021-08-10 10:16:41</time>
      </trkpt>
      <trkpt lat="42.84085" lon="-0.46433">
        <ele>1712.6</ele>
        <time>2021-08-10 10:16:42</time>
      </trkpt>
      <trkpt lat="42.84084" lon="-0.46433">
        <ele>1713</ele>
        <time>2021-08-10 10:16:43</time>
      </trkpt>
      <trkpt lat="42.84084" lon="-0.46433">
        <ele>1713.2</ele>
        <time>2021-08-10 10:16:44</time>
      </trkpt>
      <trkpt lat="42.84084" lon="-0.46433">
        <ele>1713.2</ele>
        <time>2021-08-10 10:16:45</time>
      </trkpt>
      <trkpt lat="42.84083" lon="-0.46432">
        <ele>1713</ele>
        <time>2021-08-10 10:16:46</time>
      </trkpt>
      <trkpt lat="42.84083" lon="-0.46431">
        <ele>1713.4</ele>
        <time>2021-08-10 10:16:47</time>
      </trkpt>
      <trkpt lat="42.84082" lon="-0.46431">
        <ele>1713.6</ele>
        <time>2021-08-10 10:16:48</time>
      </trkpt>
      <trkpt lat="42.84081" lon="-0.46432">
        <ele>1713.4</ele>
        <time>2021-08-10 10:16:49</time>
      </trkpt>
      <trkpt lat="42.84081" lon="-0.46431">
        <ele>1713.8</ele>
        <time>2021-08-10 10:16:50</time>
      </trkpt>
      <trkpt lat="42.8408" lon="-0.46431">
        <ele>1714</ele>
        <time>2021-08-10 10:16:51</time>
      </trkpt>
      <trkpt lat="42.8408" lon="-0.46431">
        <ele>1714.2</ele>
        <time>2021-08-10 10:16:52</time>
      </trkpt>
      <trkpt lat="42.84079" lon="-0.4643">
        <ele>1714.2</ele>
        <time>2021-08-10 10:16:53</time>
      </trkpt>
      <trkpt lat="42.84079" lon="-0.4643">
        <ele>1714.6</ele>
        <time>2021-08-10 10:16:54</time>
      </trkpt>
      <trkpt lat="42.84078" lon="-0.4643">
        <ele>1714.2</ele>
        <time>2021-08-10 10:16:55</time>
      </trkpt>
      <trkpt lat="42.84078" lon="-0.46429">
        <ele>1714.4</ele>
        <time>2021-08-10 10:16:56</time>
      </trkpt>
      <trkpt lat="42.84077" lon="-0.46429">
        <ele>1714.4</ele>
        <time>2021-08-10 10:16:57</time>
      </trkpt>
      <trkpt lat="42.84077" lon="-0.46428">
        <ele>1714.6</ele>
        <time>2021-08-10 10:16:58</time>
      </trkpt>
      <trkpt lat="42.84078" lon="-0.46426">
        <ele>1714.8</ele>
        <time>2021-08-10 10:16:59</time>
      </trkpt>
      <trkpt lat="42.84078" lon="-0.46425">
        <ele>1714.8</ele>
        <time>2021-08-10 10:17:00</time>
      </trkpt>
      <trkpt lat="42.84078" lon="-0.46424">
        <ele>1715</ele>
        <time>2021-08-10 10:17:01</time>
      </trkpt>
      <trkpt lat="42.84078" lon="-0.46423">
        <ele>1715</ele>
        <time>2021-08-10 10:17:02</time>
      </trkpt>
      <trkpt lat="42.84078" lon="-0.46423">
        <ele>1715.4</ele>
        <time>2021-08-10 10:17:03</time>
      </trkpt>
      <trkpt lat="42.84078" lon="-0.46422">
        <ele>1715.6</ele>
        <time>2021-08-10 10:17:04</time>
      </trkpt>
      <trkpt lat="42.84078" lon="-0.46422">
        <ele>1715.6</ele>
        <time>2021-08-10 10:17:05</time>
      </trkpt>
      <trkpt lat="42.84077" lon="-0.46422">
        <ele>1715.8</ele>
        <time>2021-08-10 10:17:06</time>
      </trkpt>
      <trkpt lat="42.84077" lon="-0.46421">
        <ele>1716.2</ele>
        <time>2021-08-10 10:17:07</time>
      </trkpt>
      <trkpt lat="42.84077" lon="-0.46421">
        <ele>1716.2</ele>
        <time>2021-08-10 10:17:08</time>
      </trkpt>
      <trkpt lat="42.84076" lon="-0.4642">
        <ele>1716.4</ele>
        <time>2021-08-10 10:17:09</time>
      </trkpt>
      <trkpt lat="42.84076" lon="-0.4642">
        <ele>1716.6</ele>
        <time>2021-08-10 10:17:10</time>
      </trkpt>
      <trkpt lat="42.84076" lon="-0.4642">
        <ele>1717</ele>
        <time>2021-08-10 10:17:11</time>
      </trkpt>
      <trkpt lat="42.84076" lon="-0.46419">
        <ele>1717.4</ele>
        <time>2021-08-10 10:17:12</time>
      </trkpt>
      <trkpt lat="42.84077" lon="-0.46419">
        <ele>1717.4</ele>
        <time>2021-08-10 10:17:13</time>
      </trkpt>
      <trkpt lat="42.84077" lon="-0.46418">
        <ele>1717.4</ele>
        <time>2021-08-10 10:17:14</time>
      </trkpt>
      <trkpt lat="42.84077" lon="-0.46418">
        <ele>1717.4</ele>
        <time>2021-08-10 10:17:15</time>
      </trkpt>
      <trkpt lat="42.84077" lon="-0.46417">
        <ele>1717.6</ele>
        <time>2021-08-10 10:17:16</time>
      </trkpt>
      <trkpt lat="42.84076" lon="-0.46417">
        <ele>1717.6</ele>
        <time>2021-08-10 10:17:17</time>
      </trkpt>
      <trkpt lat="42.84076" lon="-0.46417">
        <ele>1717.6</ele>
        <time>2021-08-10 10:17:18</time>
      </trkpt>
      <trkpt lat="42.84076" lon="-0.46416">
        <ele>1717.8</ele>
        <time>2021-08-10 10:17:19</time>
      </trkpt>
      <trkpt lat="42.84076" lon="-0.46415">
        <ele>1717.8</ele>
        <time>2021-08-10 10:17:20</time>
      </trkpt>
      <trkpt lat="42.84076" lon="-0.46415">
        <ele>1718</ele>
        <time>2021-08-10 10:17:21</time>
      </trkpt>
      <trkpt lat="42.84075" lon="-0.46414">
        <ele>1718.2</ele>
        <time>2021-08-10 10:17:22</time>
      </trkpt>
      <trkpt lat="42.84075" lon="-0.46413">
        <ele>1718.2</ele>
        <time>2021-08-10 10:17:23</time>
      </trkpt>
      <trkpt lat="42.84075" lon="-0.46413">
        <ele>1718.4</ele>
        <time>2021-08-10 10:17:24</time>
      </trkpt>
      <trkpt lat="42.84074" lon="-0.46412">
        <ele>1718.6</ele>
        <time>2021-08-10 10:17:25</time>
      </trkpt>
      <trkpt lat="42.84074" lon="-0.46412">
        <ele>1718.8</ele>
        <time>2021-08-10 10:17:26</time>
      </trkpt>
      <trkpt lat="42.84073" lon="-0.46412">
        <ele>1718.8</ele>
        <time>2021-08-10 10:17:27</time>
      </trkpt>
      <trkpt lat="42.84072" lon="-0.46412">
        <ele>1718.8</ele>
        <time>2021-08-10 10:17:28</time>
      </trkpt>
      <trkpt lat="42.84072" lon="-0.46411">
        <ele>1719</ele>
        <time>2021-08-10 10:17:29</time>
      </trkpt>
      <trkpt lat="42.84071" lon="-0.46411">
        <ele>1719.2</ele>
        <time>2021-08-10 10:17:30</time>
      </trkpt>
      <trkpt lat="42.84071" lon="-0.4641">
        <ele>1719.2</ele>
        <time>2021-08-10 10:17:31</time>
      </trkpt>
      <trkpt lat="42.84071" lon="-0.46409">
        <ele>1719.4</ele>
        <time>2021-08-10 10:17:32</time>
      </trkpt>
      <trkpt lat="42.84071" lon="-0.46408">
        <ele>1719.4</ele>
        <time>2021-08-10 10:17:33</time>
      </trkpt>
      <trkpt lat="42.84071" lon="-0.46408">
        <ele>1719.6</ele>
        <time>2021-08-10 10:17:34</time>
      </trkpt>
      <trkpt lat="42.8407" lon="-0.46407">
        <ele>1719.8</ele>
        <time>2021-08-10 10:17:35</time>
      </trkpt>
      <trkpt lat="42.8407" lon="-0.46407">
        <ele>1720</ele>
        <time>2021-08-10 10:17:36</time>
      </trkpt>
      <trkpt lat="42.8407" lon="-0.46407">
        <ele>1720.2</ele>
        <time>2021-08-10 10:17:37</time>
      </trkpt>
      <trkpt lat="42.8407" lon="-0.46407">
        <ele>1720.2</ele>
        <time>2021-08-10 10:17:38</time>
      </trkpt>
      <trkpt lat="42.84069" lon="-0.46407">
        <ele>1720.4</ele>
        <time>2021-08-10 10:17:39</time>
      </trkpt>
      <trkpt lat="42.84069" lon="-0.46407">
        <ele>1720.8</ele>
        <time>2021-08-10 10:17:40</time>
      </trkpt>
      <trkpt lat="42.84069" lon="-0.46407">
        <ele>1720.8</ele>
        <time>2021-08-10 10:17:43</time>
      </trkpt>
      <trkpt lat="42.84069" lon="-0.46406">
        <ele>1720.6</ele>
        <time>2021-08-10 10:17:44</time>
      </trkpt>
      <trkpt lat="42.84068" lon="-0.46405">
        <ele>1720.4</ele>
        <time>2021-08-10 10:17:45</time>
      </trkpt>
      <trkpt lat="42.84068" lon="-0.46404">
        <ele>1720.6</ele>
        <time>2021-08-10 10:17:46</time>
      </trkpt>
      <trkpt lat="42.84067" lon="-0.46404">
        <ele>1720.6</ele>
        <time>2021-08-10 10:17:47</time>
      </trkpt>
      <trkpt lat="42.84067" lon="-0.46403">
        <ele>1720.8</ele>
        <time>2021-08-10 10:17:48</time>
      </trkpt>
      <trkpt lat="42.84067" lon="-0.46401">
        <ele>1721</ele>
        <time>2021-08-10 10:17:49</time>
      </trkpt>
      <trkpt lat="42.84067" lon="-0.46401">
        <ele>1720.8</ele>
        <time>2021-08-10 10:17:50</time>
      </trkpt>
      <trkpt lat="42.84066" lon="-0.464">
        <ele>1721.2</ele>
        <time>2021-08-10 10:17:51</time>
      </trkpt>
      <trkpt lat="42.84066" lon="-0.464">
        <ele>1721.4</ele>
        <time>2021-08-10 10:17:52</time>
      </trkpt>
      <trkpt lat="42.84065" lon="-0.46398">
        <ele>1721.6</ele>
        <time>2021-08-10 10:17:53</time>
      </trkpt>
      <trkpt lat="42.84064" lon="-0.46397">
        <ele>1722</ele>
        <time>2021-08-10 10:17:54</time>
      </trkpt>
      <trkpt lat="42.84064" lon="-0.46397">
        <ele>1722</ele>
        <time>2021-08-10 10:17:55</time>
      </trkpt>
      <trkpt lat="42.84064" lon="-0.46396">
        <ele>1722.4</ele>
        <time>2021-08-10 10:17:56</time>
      </trkpt>
      <trkpt lat="42.84063" lon="-0.46395">
        <ele>1722.4</ele>
        <time>2021-08-10 10:17:57</time>
      </trkpt>
      <trkpt lat="42.84063" lon="-0.46395">
        <ele>1722.6</ele>
        <time>2021-08-10 10:17:58</time>
      </trkpt>
      <trkpt lat="42.84062" lon="-0.46394">
        <ele>1723</ele>
        <time>2021-08-10 10:17:59</time>
      </trkpt>
      <trkpt lat="42.84062" lon="-0.46394">
        <ele>1722.6</ele>
        <time>2021-08-10 10:18:00</time>
      </trkpt>
      <trkpt lat="42.84062" lon="-0.46393">
        <ele>1722.8</ele>
        <time>2021-08-10 10:18:01</time>
      </trkpt>
      <trkpt lat="42.84061" lon="-0.46392">
        <ele>1723</ele>
        <time>2021-08-10 10:18:02</time>
      </trkpt>
      <trkpt lat="42.8406" lon="-0.46392">
        <ele>1723.2</ele>
        <time>2021-08-10 10:18:03</time>
      </trkpt>
      <trkpt lat="42.8406" lon="-0.46391">
        <ele>1723.2</ele>
        <time>2021-08-10 10:18:04</time>
      </trkpt>
      <trkpt lat="42.84059" lon="-0.46391">
        <ele>1723</ele>
        <time>2021-08-10 10:18:05</time>
      </trkpt>
      <trkpt lat="42.84059" lon="-0.4639">
        <ele>1723.4</ele>
        <time>2021-08-10 10:18:06</time>
      </trkpt>
      <trkpt lat="42.84058" lon="-0.46389">
        <ele>1723.6</ele>
        <time>2021-08-10 10:18:07</time>
      </trkpt>
      <trkpt lat="42.84058" lon="-0.46389">
        <ele>1724</ele>
        <time>2021-08-10 10:18:08</time>
      </trkpt>
      <trkpt lat="42.84057" lon="-0.46388">
        <ele>1724.4</ele>
        <time>2021-08-10 10:18:09</time>
      </trkpt>
      <trkpt lat="42.84057" lon="-0.46387">
        <ele>1724.2</ele>
        <time>2021-08-10 10:18:10</time>
      </trkpt>
      <trkpt lat="42.84057" lon="-0.46386">
        <ele>1724.4</ele>
        <time>2021-08-10 10:18:11</time>
      </trkpt>
      <trkpt lat="42.84056" lon="-0.46385">
        <ele>1723.4</ele>
        <time>2021-08-10 10:18:17</time>
      </trkpt>
      <trkpt lat="42.84056" lon="-0.46385">
        <ele>1724.6</ele>
        <time>2021-08-10 10:18:18</time>
      </trkpt>
      <trkpt lat="42.84056" lon="-0.46384">
        <ele>1724.8</ele>
        <time>2021-08-10 10:18:19</time>
      </trkpt>
      <trkpt lat="42.84055" lon="-0.46384">
        <ele>1725.4</ele>
        <time>2021-08-10 10:18:20</time>
      </trkpt>
      <trkpt lat="42.84055" lon="-0.46383">
        <ele>1725</ele>
        <time>2021-08-10 10:18:21</time>
      </trkpt>
      <trkpt lat="42.84054" lon="-0.46383">
        <ele>1725.2</ele>
        <time>2021-08-10 10:18:22</time>
      </trkpt>
      <trkpt lat="42.84053" lon="-0.46382">
        <ele>1725.8</ele>
        <time>2021-08-10 10:18:23</time>
      </trkpt>
      <trkpt lat="42.84053" lon="-0.46382">
        <ele>1725.4</ele>
        <time>2021-08-10 10:18:24</time>
      </trkpt>
      <trkpt lat="42.84053" lon="-0.4638">
        <ele>1726.4</ele>
        <time>2021-08-10 10:18:25</time>
      </trkpt>
      <trkpt lat="42.84052" lon="-0.4638">
        <ele>1726</ele>
        <time>2021-08-10 10:18:26</time>
      </trkpt>
      <trkpt lat="42.84052" lon="-0.46379">
        <ele>1726.4</ele>
        <time>2021-08-10 10:18:27</time>
      </trkpt>
      <trkpt lat="42.84052" lon="-0.46378">
        <ele>1726.4</ele>
        <time>2021-08-10 10:18:28</time>
      </trkpt>
      <trkpt lat="42.84052" lon="-0.46377">
        <ele>1726.4</ele>
        <time>2021-08-10 10:18:29</time>
      </trkpt>
      <trkpt lat="42.84052" lon="-0.46377">
        <ele>1727</ele>
        <time>2021-08-10 10:18:30</time>
      </trkpt>
      <trkpt lat="42.84052" lon="-0.46376">
        <ele>1726.8</ele>
        <time>2021-08-10 10:18:31</time>
      </trkpt>
      <trkpt lat="42.84051" lon="-0.46375">
        <ele>1727.8</ele>
        <time>2021-08-10 10:18:32</time>
      </trkpt>
      <trkpt lat="42.84051" lon="-0.46375">
        <ele>1727.4</ele>
        <time>2021-08-10 10:18:33</time>
      </trkpt>
      <trkpt lat="42.8405" lon="-0.46374">
        <ele>1726.8</ele>
        <time>2021-08-10 10:18:34</time>
      </trkpt>
      <trkpt lat="42.8405" lon="-0.46373">
        <ele>1726.6</ele>
        <time>2021-08-10 10:18:35</time>
      </trkpt>
      <trkpt lat="42.8405" lon="-0.46372">
        <ele>1725.6</ele>
        <time>2021-08-10 10:18:36</time>
      </trkpt>
      <trkpt lat="42.8405" lon="-0.46371">
        <ele>1726.2</ele>
        <time>2021-08-10 10:18:37</time>
      </trkpt>
      <trkpt lat="42.84051" lon="-0.4637">
        <ele>1726.6</ele>
        <time>2021-08-10 10:18:38</time>
      </trkpt>
      <trkpt lat="42.84051" lon="-0.4637">
        <ele>1726.4</ele>
        <time>2021-08-10 10:18:39</time>
      </trkpt>
      <trkpt lat="42.84051" lon="-0.46369">
        <ele>1727</ele>
        <time>2021-08-10 10:18:40</time>
      </trkpt>
      <trkpt lat="42.8405" lon="-0.46369">
        <ele>1726.8</ele>
        <time>2021-08-10 10:18:41</time>
      </trkpt>
      <trkpt lat="42.8405" lon="-0.46369">
        <ele>1727.4</ele>
        <time>2021-08-10 10:18:42</time>
      </trkpt>
      <trkpt lat="42.8405" lon="-0.46369">
        <ele>1727.4</ele>
        <time>2021-08-10 10:18:43</time>
      </trkpt>
      <trkpt lat="42.84049" lon="-0.46369">
        <ele>1727</ele>
        <time>2021-08-10 10:18:44</time>
      </trkpt>
      <trkpt lat="42.84049" lon="-0.46368">
        <ele>1727.6</ele>
        <time>2021-08-10 10:18:45</time>
      </trkpt>
      <trkpt lat="42.84049" lon="-0.46367">
        <ele>1727.2</ele>
        <time>2021-08-10 10:18:46</time>
      </trkpt>
      <trkpt lat="42.84049" lon="-0.46366">
        <ele>1727.4</ele>
        <time>2021-08-10 10:18:47</time>
      </trkpt>
      <trkpt lat="42.84048" lon="-0.46365">
        <ele>1727.6</ele>
        <time>2021-08-10 10:18:48</time>
      </trkpt>
      <trkpt lat="42.84047" lon="-0.46364">
        <ele>1728</ele>
        <time>2021-08-10 10:18:49</time>
      </trkpt>
      <trkpt lat="42.84047" lon="-0.46363">
        <ele>1728.4</ele>
      </trkpt>
      <trkpt lat="42.84046" lon="-0.46362">
        <ele>1728.6</ele>
        <time>2021-08-10 10:18:50</time>
      </trkpt>
      <trkpt lat="42.84045" lon="-0.46361">
        <ele>1728.8</ele>
        <time>2021-08-10 10:18:51</time>
      </trkpt>
      <trkpt lat="42.84045" lon="-0.4636">
        <ele>1729</ele>
        <time>2021-08-10 10:18:52</time>
      </trkpt>
      <trkpt lat="42.84044" lon="-0.4636">
        <ele>1729.2</ele>
        <time>2021-08-10 10:18:54</time>
      </trkpt>
      <trkpt lat="42.84044" lon="-0.46359">
        <ele>1729.2</ele>
      </trkpt>
      <trkpt lat="42.84044" lon="-0.46358">
        <ele>1729.4</ele>
        <time>2021-08-10 10:18:55</time>
      </trkpt>
      <trkpt lat="42.84043" lon="-0.46357">
        <ele>1729.6</ele>
        <time>2021-08-10 10:18:56</time>
      </trkpt>
      <trkpt lat="42.84042" lon="-0.46356">
        <ele>1729.8</ele>
        <time>2021-08-10 10:18:57</time>
      </trkpt>
      <trkpt lat="42.84041" lon="-0.46356">
        <ele>1730</ele>
        <time>2021-08-10 10:18:58</time>
      </trkpt>
      <trkpt lat="42.84041" lon="-0.46355">
        <ele>1729.4</ele>
        <time>2021-08-10 10:18:59</time>
      </trkpt>
      <trkpt lat="42.84041" lon="-0.46354">
        <ele>1729.6</ele>
        <time>2021-08-10 10:19:00</time>
      </trkpt>
      <trkpt lat="42.84041" lon="-0.46354">
        <ele>1730.4</ele>
        <time>2021-08-10 10:19:01</time>
      </trkpt>
      <trkpt lat="42.8404" lon="-0.46353">
        <ele>1730.6</ele>
        <time>2021-08-10 10:19:02</time>
      </trkpt>
      <trkpt lat="42.84039" lon="-0.46353">
        <ele>1731</ele>
        <time>2021-08-10 10:19:03</time>
      </trkpt>
      <trkpt lat="42.84039" lon="-0.46352">
        <ele>1731.2</ele>
        <time>2021-08-10 10:19:04</time>
      </trkpt>
      <trkpt lat="42.84039" lon="-0.46352">
        <ele>1731</ele>
        <time>2021-08-10 10:19:05</time>
      </trkpt>
      <trkpt lat="42.84039" lon="-0.46352">
        <ele>1730.8</ele>
        <time>2021-08-10 10:19:06</time>
      </trkpt>
      <trkpt lat="42.84039" lon="-0.46351">
        <ele>1730.2</ele>
        <time>2021-08-10 10:19:07</time>
      </trkpt>
      <trkpt lat="42.84039" lon="-0.46351">
        <ele>1730.2</ele>
        <time>2021-08-10 10:19:08</time>
      </trkpt>
      <trkpt lat="42.84039" lon="-0.46351">
        <ele>1729.8</ele>
        <time>2021-08-10 10:19:09</time>
      </trkpt>
      <trkpt lat="42.84039" lon="-0.46351">
        <ele>1729.6</ele>
        <time>2021-08-10 10:19:10</time>
      </trkpt>
      <trkpt lat="42.84038" lon="-0.46352">
        <ele>1730</ele>
        <time>2021-08-10 10:19:11</time>
      </trkpt>
      <trkpt lat="42.84038" lon="-0.46352">
        <ele>1729.8</ele>
        <time>2021-08-10 10:19:12</time>
      </trkpt>
      <trkpt lat="42.84038" lon="-0.46352">
        <ele>1730.4</ele>
        <time>2021-08-10 10:19:14</time>
      </trkpt>
      <trkpt lat="42.84038" lon="-0.46352">
        <ele>1730.4</ele>
      </trkpt>
      <trkpt lat="42.84038" lon="-0.46352">
        <ele>1730.4</ele>
        <time>2021-08-10 10:19:15</time>
      </trkpt>
      <trkpt lat="42.84038" lon="-0.46352">
        <ele>1730.6</ele>
        <time>2021-08-10 10:19:16</time>
      </trkpt>
      <trkpt lat="42.84038" lon="-0.46352">
        <ele>1730.6</ele>
        <time>2021-08-10 10:19:17</time>
      </trkpt>
      <trkpt lat="42.84038" lon="-0.46351">
        <ele>1730.4</ele>
        <time>2021-08-10 10:19:18</time>
      </trkpt>
      <trkpt lat="42.84038" lon="-0.46352">
        <ele>1730.2</ele>
        <time>2021-08-10 10:19:19</time>
      </trkpt>
      <trkpt lat="42.84038" lon="-0.46352">
        <ele>1730.4</ele>
        <time>2021-08-10 10:19:20</time>
      </trkpt>
      <trkpt lat="42.84038" lon="-0.46352">
        <ele>1730.4</ele>
        <time>2021-08-10 10:19:21</time>
      </trkpt>
      <trkpt lat="42.84039" lon="-0.46352">
        <ele>1730.2</ele>
        <time>2021-08-10 10:19:22</time>
      </trkpt>
      <trkpt lat="42.84039" lon="-0.46352">
        <ele>1729.8</ele>
        <time>2021-08-10 10:19:23</time>
      </trkpt>
      <trkpt lat="42.84039" lon="-0.46352">
        <ele>1730</ele>
        <time>2021-08-10 10:19:24</time>
      </trkpt>
      <trkpt lat="42.8404" lon="-0.46352">
        <ele>1729.8</ele>
        <time>2021-08-10 10:19:25</time>
      </trkpt>
      <trkpt lat="42.8404" lon="-0.46352">
        <ele>1730.2</ele>
        <time>2021-08-10 10:19:26</time>
      </trkpt>
      <trkpt lat="42.84041" lon="-0.46352">
        <ele>1730.2</ele>
        <time>2021-08-10 10:19:27</time>
      </trkpt>
      <trkpt lat="42.84041" lon="-0.46351">
        <ele>1730.2</ele>
        <time>2021-08-10 10:19:28</time>
      </trkpt>
      <trkpt lat="42.84042" lon="-0.4635">
        <ele>1730.4</ele>
        <time>2021-08-10 10:19:29</time>
      </trkpt>
      <trkpt lat="42.84042" lon="-0.4635">
        <ele>1730.8</ele>
        <time>2021-08-10 10:19:30</time>
      </trkpt>
      <trkpt lat="42.84043" lon="-0.46349">
        <ele>1731</ele>
        <time>2021-08-10 10:19:31</time>
      </trkpt>
      <trkpt lat="42.84043" lon="-0.46349">
        <ele>1731.2</ele>
        <time>2021-08-10 10:19:32</time>
      </trkpt>
      <trkpt lat="42.84043" lon="-0.46348">
        <ele>1731.2</ele>
        <time>2021-08-10 10:19:33</time>
      </trkpt>
      <trkpt lat="42.84044" lon="-0.46348">
        <ele>1731.2</ele>
        <time>2021-08-10 10:19:34</time>
      </trkpt>
      <trkpt lat="42.84043" lon="-0.46347">
        <ele>1731.2</ele>
        <time>2021-08-10 10:19:35</time>
      </trkpt>
      <trkpt lat="42.84043" lon="-0.46347">
        <ele>1731.4</ele>
        <time>2021-08-10 10:19:36</time>
      </trkpt>
      <trkpt lat="42.84043" lon="-0.46347">
        <ele>1731.6</ele>
        <time>2021-08-10 10:19:37</time>
      </trkpt>
      <trkpt lat="42.84043" lon="-0.46346">
        <ele>1731.6</ele>
        <time>2021-08-10 10:19:38</time>
      </trkpt>
      <trkpt lat="42.84043" lon="-0.46346">
        <ele>1731.8</ele>
        <time>2021-08-10 10:19:39</time>
      </trkpt>
      <trkpt lat="42.84043" lon="-0.46346">
        <ele>1731.8</ele>
        <time>2021-08-10 10:19:40</time>
      </trkpt>
      <trkpt lat="42.84043" lon="-0.46345">
        <ele>1732.2</ele>
        <time>2021-08-10 10:19:42</time>
      </trkpt>
      <trkpt lat="42.84042" lon="-0.46345">
        <ele>1732.2</ele>
        <time>2021-08-10 10:19:43</time>
      </trkpt>
      <trkpt lat="42.84042" lon="-0.46344">
        <ele>1732.6</ele>
        <time>2021-08-10 10:19:44</time>
      </trkpt>
      <trkpt lat="42.84042" lon="-0.46343">
        <ele>1732.6</ele>
        <time>2021-08-10 10:19:45</time>
      </trkpt>
      <trkpt lat="42.84042" lon="-0.46343">
        <ele>1732.8</ele>
        <time>2021-08-10 10:19:46</time>
      </trkpt>
      <trkpt lat="42.84042" lon="-0.46342">
        <ele>1732.8</ele>
        <time>2021-08-10 10:19:47</time>
      </trkpt>
      <trkpt lat="42.84042" lon="-0.46341">
        <ele>1733</ele>
        <time>2021-08-10 10:19:48</time>
      </trkpt>
      <trkpt lat="42.84042" lon="-0.4634">
        <ele>1733.2</ele>
        <time>2021-08-10 10:19:49</time>
      </trkpt>
      <trkpt lat="42.84041" lon="-0.4634">
        <ele>1733.6</ele>
        <time>2021-08-10 10:19:50</time>
      </trkpt>
      <trkpt lat="42.8404" lon="-0.46339">
        <ele>1733.6</ele>
        <time>2021-08-10 10:19:51</time>
      </trkpt>
      <trkpt lat="42.8404" lon="-0.46339">
        <ele>1733.8</ele>
        <time>2021-08-10 10:19:52</time>
      </trkpt>
      <trkpt lat="42.8404" lon="-0.46338">
        <ele>1733.8</ele>
        <time>2021-08-10 10:19:53</time>
      </trkpt>
      <trkpt lat="42.8404" lon="-0.46337">
        <ele>1734</ele>
        <time>2021-08-10 10:19:54</time>
      </trkpt>
      <trkpt lat="42.84039" lon="-0.46336">
        <ele>1734.2</ele>
        <time>2021-08-10 10:19:55</time>
      </trkpt>
      <trkpt lat="42.84039" lon="-0.46336">
        <ele>1734.4</ele>
        <time>2021-08-10 10:19:56</time>
      </trkpt>
      <trkpt lat="42.84039" lon="-0.46335">
        <ele>1734.8</ele>
        <time>2021-08-10 10:19:57</time>
      </trkpt>
      <trkpt lat="42.84038" lon="-0.46335">
        <ele>1735</ele>
        <time>2021-08-10 10:19:58</time>
      </trkpt>
      <trkpt lat="42.84038" lon="-0.46334">
        <ele>1735</ele>
        <time>2021-08-10 10:19:59</time>
      </trkpt>
      <trkpt lat="42.84037" lon="-0.46333">
        <ele>1735</ele>
        <time>2021-08-10 10:20:00</time>
      </trkpt>
      <trkpt lat="42.84037" lon="-0.46332">
        <ele>1735</ele>
        <time>2021-08-10 10:20:01</time>
      </trkpt>
      <trkpt lat="42.84037" lon="-0.46331">
        <ele>1735.2</ele>
        <time>2021-08-10 10:20:02</time>
      </trkpt>
      <trkpt lat="42.84037" lon="-0.4633">
        <ele>1735.4</ele>
        <time>2021-08-10 10:20:03</time>
      </trkpt>
      <trkpt lat="42.84036" lon="-0.4633">
        <ele>1735.4</ele>
        <time>2021-08-10 10:20:04</time>
      </trkpt>
      <trkpt lat="42.84036" lon="-0.46329">
        <ele>1735.4</ele>
        <time>2021-08-10 10:20:05</time>
      </trkpt>
      <trkpt lat="42.84035" lon="-0.46328">
        <ele>1735.4</ele>
        <time>2021-08-10 10:20:06</time>
      </trkpt>
      <trkpt lat="42.84035" lon="-0.46327">
        <ele>1735.4</ele>
        <time>2021-08-10 10:20:07</time>
      </trkpt>
      <trkpt lat="42.84034" lon="-0.46327">
        <ele>1735.2</ele>
        <time>2021-08-10 10:20:08</time>
      </trkpt>
      <trkpt lat="42.84033" lon="-0.46326">
        <ele>1735.4</ele>
        <time>2021-08-10 10:20:09</time>
      </trkpt>
      <trkpt lat="42.84033" lon="-0.46325">
        <ele>1735.4</ele>
        <time>2021-08-10 10:23:23</time>
      </trkpt>
      <trkpt lat="42.84033" lon="-0.46324">
        <ele>1735.8</ele>
        <time>2021-08-10 10:23:24</time>
      </trkpt>
      <trkpt lat="42.84032" lon="-0.46323">
        <ele>1736</ele>
        <time>2021-08-10 10:23:25</time>
      </trkpt>
      <trkpt lat="42.84031" lon="-0.46322">
        <ele>1736.2</ele>
        <time>2021-08-10 10:23:26</time>
      </trkpt>
      <trkpt lat="42.84031" lon="-0.46321">
        <ele>1736.4</ele>
        <time>2021-08-10 10:23:27</time>
      </trkpt>
      <trkpt lat="42.8403" lon="-0.4632">
        <ele>1736.4</ele>
        <time>2021-08-10 10:23:28</time>
      </trkpt>
      <trkpt lat="42.8403" lon="-0.4632">
        <ele>1736.4</ele>
        <time>2021-08-10 10:23:29</time>
      </trkpt>
      <trkpt lat="42.84029" lon="-0.46319">
        <ele>1736.6</ele>
        <time>2021-08-10 10:23:30</time>
      </trkpt>
      <trkpt lat="42.84029" lon="-0.46318">
        <ele>1736.6</ele>
        <time>2021-08-10 10:23:31</time>
      </trkpt>
      <trkpt lat="42.84029" lon="-0.46318">
        <ele>1737</ele>
        <time>2021-08-10 10:23:32</time>
      </trkpt>
      <trkpt lat="42.84029" lon="-0.46317">
        <ele>1736.8</ele>
        <time>2021-08-10 10:23:33</time>
      </trkpt>
      <trkpt lat="42.84029" lon="-0.46316">
        <ele>1737</ele>
        <time>2021-08-10 10:23:37</time>
      </trkpt>
      <trkpt lat="42.84029" lon="-0.46316">
        <ele>1737</ele>
        <time>2021-08-10 10:23:38</time>
      </trkpt>
      <trkpt lat="42.84029" lon="-0.46316">
        <ele>1737</ele>
        <time>2021-08-10 10:23:39</time>
      </trkpt>
      <trkpt lat="42.84029" lon="-0.46315">
        <ele>1737.2</ele>
        <time>2021-08-10 10:23:40</time>
      </trkpt>
      <trkpt lat="42.84029" lon="-0.46315">
        <ele>1737.2</ele>
        <time>2021-08-10 10:23:41</time>
      </trkpt>
      <trkpt lat="42.84028" lon="-0.46314">
        <ele>1737.6</ele>
        <time>2021-08-10 10:23:42</time>
      </trkpt>
      <trkpt lat="42.84028" lon="-0.46314">
        <ele>1737.4</ele>
        <time>2021-08-10 10:23:43</time>
      </trkpt>
      <trkpt lat="42.84028" lon="-0.46313">
        <ele>1737.8</ele>
        <time>2021-08-10 10:23:44</time>
      </trkpt>
      <trkpt lat="42.84027" lon="-0.46312">
        <ele>1738</ele>
        <time>2021-08-10 10:23:45</time>
      </trkpt>
      <trkpt lat="42.84027" lon="-0.46311">
        <ele>1738.4</ele>
        <time>2021-08-10 10:23:46</time>
      </trkpt>
      <trkpt lat="42.84027" lon="-0.4631">
        <ele>1738.6</ele>
        <time>2021-08-10 10:23:47</time>
      </trkpt>
      <trkpt lat="42.84027" lon="-0.4631">
        <ele>1738</ele>
        <time>2021-08-10 10:23:48</time>
      </trkpt>
      <trkpt lat="42.84027" lon="-0.46309">
        <ele>1738.2</ele>
        <time>2021-08-10 10:23:49</time>
      </trkpt>
      <trkpt lat="42.84027" lon="-0.46308">
        <ele>1738.2</ele>
        <time>2021-08-10 10:23:50</time>
      </trkpt>
      <trkpt lat="42.84026" lon="-0.46308">
        <ele>1738.4</ele>
        <time>2021-08-10 10:23:51</time>
      </trkpt>
      <trkpt lat="42.84026" lon="-0.46307">
        <ele>1738.8</ele>
        <time>2021-08-10 10:23:52</time>
      </trkpt>
      <trkpt lat="42.84026" lon="-0.46307">
        <ele>1738.6</ele>
        <time>2021-08-10 10:23:53</time>
      </trkpt>
      <trkpt lat="42.84026" lon="-0.46307">
        <ele>1739</ele>
        <time>2021-08-10 10:23:54</time>
      </trkpt>
      <trkpt lat="42.84025" lon="-0.46307">
        <ele>1739.2</ele>
        <time>2021-08-10 10:23:55</time>
      </trkpt>
      <trkpt lat="42.84025" lon="-0.46307">
        <ele>1739.4</ele>
        <time>2021-08-10 10:23:56</time>
      </trkpt>
      <trkpt lat="42.84024" lon="-0.46306">
        <ele>1739.6</ele>
        <time>2021-08-10 10:23:57</time>
      </trkpt>
      <trkpt lat="42.84023" lon="-0.46305">
        <ele>1739.8</ele>
        <time>2021-08-10 10:23:58</time>
      </trkpt>
      <trkpt lat="42.84023" lon="-0.46304">
        <ele>1740.2</ele>
        <time>2021-08-10 10:23:59</time>
      </trkpt>
      <trkpt lat="42.84023" lon="-0.46303">
        <ele>1740.4</ele>
        <time>2021-08-10 10:24:00</time>
      </trkpt>
      <trkpt lat="42.84022" lon="-0.46303">
        <ele>1740.6</ele>
        <time>2021-08-10 10:24:01</time>
      </trkpt>
      <trkpt lat="42.84022" lon="-0.46302">
        <ele>1740.6</ele>
        <time>2021-08-10 10:24:02</time>
      </trkpt>
      <trkpt lat="42.84022" lon="-0.46301">
        <ele>1740.6</ele>
        <time>2021-08-10 10:24:03</time>
      </trkpt>
      <trkpt lat="42.84022" lon="-0.46301">
        <ele>1740.8</ele>
        <time>2021-08-10 10:24:04</time>
      </trkpt>
      <trkpt lat="42.84022" lon="-0.463">
        <ele>1741</ele>
        <time>2021-08-10 10:24:05</time>
      </trkpt>
      <trkpt lat="42.84022" lon="-0.46299">
        <ele>1741.2</ele>
        <time>2021-08-10 10:24:06</time>
      </trkpt>
      <trkpt lat="42.84022" lon="-0.46299">
        <ele>1741.2</ele>
        <time>2021-08-10 10:24:07</time>
      </trkpt>
      <trkpt lat="42.84021" lon="-0.46298">
        <ele>1741.4</ele>
        <time>2021-08-10 10:24:08</time>
      </trkpt>
      <trkpt lat="42.84021" lon="-0.46298">
        <ele>1741.6</ele>
        <time>2021-08-10 10:24:09</time>
      </trkpt>
      <trkpt lat="42.8402" lon="-0.46298">
        <ele>1741.6</ele>
        <time>2021-08-10 10:24:10</time>
      </trkpt>
      <trkpt lat="42.8402" lon="-0.46297">
        <ele>1741.8</ele>
        <time>2021-08-10 10:24:11</time>
      </trkpt>
      <trkpt lat="42.84019" lon="-0.46297">
        <ele>1742</ele>
        <time>2021-08-10 10:24:12</time>
      </trkpt>
      <trkpt lat="42.84019" lon="-0.46296">
        <ele>1742.2</ele>
        <time>2021-08-10 10:24:13</time>
      </trkpt>
      <trkpt lat="42.84019" lon="-0.46296">
        <ele>1742.6</ele>
        <time>2021-08-10 10:24:14</time>
      </trkpt>
      <trkpt lat="42.84018" lon="-0.46296">
        <ele>1742.6</ele>
        <time>2021-08-10 10:24:15</time>
      </trkpt>
      <trkpt lat="42.84018" lon="-0.46295">
        <ele>1742.8</ele>
        <time>2021-08-10 10:24:16</time>
      </trkpt>
      <trkpt lat="42.84017" lon="-0.46295">
        <ele>1742.8</ele>
        <time>2021-08-10 10:24:17</time>
      </trkpt>
      <trkpt lat="42.84017" lon="-0.46294">
        <ele>1743</ele>
        <time>2021-08-10 10:24:18</time>
      </trkpt>
      <trkpt lat="42.84017" lon="-0.46293">
        <ele>1743.2</ele>
        <time>2021-08-10 10:24:19</time>
      </trkpt>
      <trkpt lat="42.84017" lon="-0.46293">
        <ele>1743.4</ele>
        <time>2021-08-10 10:24:20</time>
      </trkpt>
      <trkpt lat="42.84017" lon="-0.46292">
        <ele>1743.8</ele>
        <time>2021-08-10 10:24:21</time>
      </trkpt>
      <trkpt lat="42.84017" lon="-0.46291">
        <ele>1744</ele>
        <time>2021-08-10 10:24:22</time>
      </trkpt>
      <trkpt lat="42.84017" lon="-0.46291">
        <ele>1744.2</ele>
        <time>2021-08-10 10:24:23</time>
      </trkpt>
      <trkpt lat="42.84017" lon="-0.4629">
        <ele>1744.4</ele>
        <time>2021-08-10 10:24:24</time>
      </trkpt>
      <trkpt lat="42.84017" lon="-0.46289">
        <ele>1744.6</ele>
        <time>2021-08-10 10:24:25</time>
      </trkpt>
      <trkpt lat="42.84017" lon="-0.46289">
        <ele>1744.8</ele>
        <time>2021-08-10 10:24:26</time>
      </trkpt>
      <trkpt lat="42.84017" lon="-0.46288">
        <ele>1745</ele>
        <time>2021-08-10 10:24:27</time>
      </trkpt>
      <trkpt lat="42.84017" lon="-0.46287">
        <ele>1744.8</ele>
        <time>2021-08-10 10:24:28</time>
      </trkpt>
      <trkpt lat="42.84017" lon="-0.46287">
        <ele>1745</ele>
        <time>2021-08-10 10:24:29</time>
      </trkpt>
      <trkpt lat="42.84017" lon="-0.46286">
        <ele>1745.4</ele>
        <time>2021-08-10 10:24:30</time>
      </trkpt>
      <trkpt lat="42.84017" lon="-0.46286">
        <ele>1745.4</ele>
        <time>2021-08-10 10:24:31</time>
      </trkpt>
      <trkpt lat="42.84016" lon="-0.46285">
        <ele>1745.6</ele>
        <time>2021-08-10 10:24:32</time>
      </trkpt>
      <trkpt lat="42.84016" lon="-0.46285">
        <ele>1745.6</ele>
        <time>2021-08-10 10:24:33</time>
      </trkpt>
      <trkpt lat="42.84016" lon="-0.46284">
        <ele>1745.8</ele>
        <time>2021-08-10 10:24:34</time>
      </trkpt>
      <trkpt lat="42.84015" lon="-0.46284">
        <ele>1745.8</ele>
        <time>2021-08-10 10:24:35</time>
      </trkpt>
      <trkpt lat="42.84015" lon="-0.46284">
        <ele>1745.8</ele>
        <time>2021-08-10 10:24:36</time>
      </trkpt>
      <trkpt lat="42.84015" lon="-0.46283">
        <ele>1746.4</ele>
        <time>2021-08-10 10:24:37</time>
      </trkpt>
      <trkpt lat="42.84014" lon="-0.46282">
        <ele>1746.4</ele>
        <time>2021-08-10 10:24:38</time>
      </trkpt>
      <trkpt lat="42.84014" lon="-0.46282">
        <ele>1746.6</ele>
        <time>2021-08-10 10:24:39</time>
      </trkpt>
      <trkpt lat="42.84014" lon="-0.46281">
        <ele>1746.6</ele>
        <time>2021-08-10 10:24:40</time>
      </trkpt>
      <trkpt lat="42.84014" lon="-0.46281">
        <ele>1747</ele>
        <time>2021-08-10 10:24:41</time>
      </trkpt>
      <trkpt lat="42.84013" lon="-0.46281">
        <ele>1747</ele>
        <time>2021-08-10 10:24:42</time>
      </trkpt>
      <trkpt lat="42.84012" lon="-0.46281">
        <ele>1747.2</ele>
        <time>2021-08-10 10:24:43</time>
      </trkpt>
      <trkpt lat="42.84012" lon="-0.46281">
        <ele>1747.2</ele>
        <time>2021-08-10 10:24:44</time>
      </trkpt>
      <trkpt lat="42.84011" lon="-0.46281">
        <ele>1747.6</ele>
        <time>2021-08-10 10:24:45</time>
      </trkpt>
      <trkpt lat="42.84011" lon="-0.46281">
        <ele>1747.6</ele>
        <time>2021-08-10 10:24:46</time>
      </trkpt>
      <trkpt lat="42.84011" lon="-0.46281">
        <ele>1747.8</ele>
        <time>2021-08-10 10:24:47</time>
      </trkpt>
      <trkpt lat="42.8401" lon="-0.46281">
        <ele>1747.8</ele>
        <time>2021-08-10 10:24:48</time>
      </trkpt>
      <trkpt lat="42.8401" lon="-0.4628">
        <ele>1748</ele>
        <time>2021-08-10 10:24:49</time>
      </trkpt>
      <trkpt lat="42.8401" lon="-0.46279">
        <ele>1747.8</ele>
        <time>2021-08-10 10:24:50</time>
      </trkpt>
      <trkpt lat="42.8401" lon="-0.46279">
        <ele>1748.4</ele>
        <time>2021-08-10 10:24:51</time>
      </trkpt>
      <trkpt lat="42.84011" lon="-0.46278">
        <ele>1748.4</ele>
        <time>2021-08-10 10:24:52</time>
      </trkpt>
      <trkpt lat="42.8401" lon="-0.46278">
        <ele>1748.6</ele>
        <time>2021-08-10 10:24:53</time>
      </trkpt>
      <trkpt lat="42.8401" lon="-0.46277">
        <ele>1748.8</ele>
        <time>2021-08-10 10:24:54</time>
      </trkpt>
      <trkpt lat="42.8401" lon="-0.46277">
        <ele>1749</ele>
        <time>2021-08-10 10:24:55</time>
      </trkpt>
      <trkpt lat="42.8401" lon="-0.46276">
        <ele>1749.2</ele>
        <time>2021-08-10 10:24:56</time>
      </trkpt>
      <trkpt lat="42.8401" lon="-0.46276">
        <ele>1749.4</ele>
      </trkpt>
      <trkpt lat="42.8401" lon="-0.46275">
        <ele>1749.4</ele>
        <time>2021-08-10 10:24:57</time>
      </trkpt>
      <trkpt lat="42.84009" lon="-0.46274">
        <ele>1749.8</ele>
        <time>2021-08-10 10:24:58</time>
      </trkpt>
      <trkpt lat="42.84009" lon="-0.46274">
        <ele>1750</ele>
        <time>2021-08-10 10:24:59</time>
      </trkpt>
      <trkpt lat="42.84008" lon="-0.46275">
        <ele>1750.4</ele>
        <time>2021-08-10 10:25:00</time>
      </trkpt>
      <trkpt lat="42.84008" lon="-0.46274">
        <ele>1750.4</ele>
        <time>2021-08-10 10:25:01</time>
      </trkpt>
      <trkpt lat="42.84007" lon="-0.46274">
        <ele>1750</ele>
        <time>2021-08-10 10:25:02</time>
      </trkpt>
      <trkpt lat="42.84007" lon="-0.46274">
        <ele>1750.4</ele>
        <time>2021-08-10 10:25:03</time>
      </trkpt>
      <trkpt lat="42.84006" lon="-0.46274">
        <ele>1750.4</ele>
        <time>2021-08-10 10:25:04</time>
      </trkpt>
      <trkpt lat="42.84006" lon="-0.46274">
        <ele>1750.4</ele>
        <time>2021-08-10 10:25:05</time>
      </trkpt>
      <trkpt lat="42.84006" lon="-0.46275">
        <ele>1750.2</ele>
        <time>2021-08-10 10:25:07</time>
      </trkpt>
      <trkpt lat="42.84006" lon="-0.46275">
        <ele>1750.2</ele>
      </trkpt>
      <trkpt lat="42.84006" lon="-0.46275">
        <ele>1750.6</ele>
        <time>2021-08-10 10:25:08</time>
      </trkpt>
      <trkpt lat="42.84005" lon="-0.46275">
        <ele>1751</ele>
        <time>2021-08-10 10:25:09</time>
      </trkpt>
      <trkpt lat="42.84005" lon="-0.46274">
        <ele>1750.6</ele>
        <time>2021-08-10 10:25:10</time>
      </trkpt>
      <trkpt lat="42.84005" lon="-0.46274">
        <ele>1750.6</ele>
        <time>2021-08-10 10:25:11</time>
      </trkpt>
      <trkpt lat="42.84005" lon="-0.46273">
        <ele>1750.8</ele>
        <time>2021-08-10 10:25:12</time>
      </trkpt>
      <trkpt lat="42.84004" lon="-0.46273">
        <ele>1751</ele>
        <time>2021-08-10 10:25:13</time>
      </trkpt>
      <trkpt lat="42.84004" lon="-0.46273">
        <ele>1751.2</ele>
        <time>2021-08-10 10:25:14</time>
      </trkpt>
      <trkpt lat="42.84004" lon="-0.46273">
        <ele>1751.2</ele>
        <time>2021-08-10 10:25:15</time>
      </trkpt>
      <trkpt lat="42.84003" lon="-0.46272">
        <ele>1751.6</ele>
        <time>2021-08-10 10:25:16</time>
      </trkpt>
      <trkpt lat="42.84003" lon="-0.46272">
        <ele>1751.8</ele>
        <time>2021-08-10 10:25:17</time>
      </trkpt>
      <trkpt lat="42.84003" lon="-0.46272">
        <ele>1751.8</ele>
        <time>2021-08-10 10:25:18</time>
      </trkpt>
      <trkpt lat="42.84003" lon="-0.46272">
        <ele>1752</ele>
        <time>2021-08-10 10:25:19</time>
      </trkpt>
      <trkpt lat="42.84003" lon="-0.46271">
        <ele>1752.2</ele>
        <time>2021-08-10 10:25:20</time>
      </trkpt>
      <trkpt lat="42.84004" lon="-0.4627">
        <ele>1752.6</ele>
        <time>2021-08-10 10:25:21</time>
      </trkpt>
      <trkpt lat="42.84004" lon="-0.46269">
        <ele>1752.6</ele>
        <time>2021-08-10 10:25:22</time>
      </trkpt>
      <trkpt lat="42.84004" lon="-0.46269">
        <ele>1752.4</ele>
        <time>2021-08-10 10:25:23</time>
      </trkpt>
      <trkpt lat="42.84004" lon="-0.46269">
        <ele>1752.4</ele>
        <time>2021-08-10 10:25:24</time>
      </trkpt>
      <trkpt lat="42.84004" lon="-0.46268">
        <ele>1752.2</ele>
        <time>2021-08-10 10:25:25</time>
      </trkpt>
      <trkpt lat="42.84004" lon="-0.46268">
        <ele>1752.8</ele>
        <time>2021-08-10 10:25:27</time>
      </trkpt>
      <trkpt lat="42.84004" lon="-0.46268">
        <ele>1753.6</ele>
      </trkpt>
      <trkpt lat="42.84003" lon="-0.46268">
        <ele>1753</ele>
        <time>2021-08-10 10:25:28</time>
      </trkpt>
      <trkpt lat="42.84002" lon="-0.46268">
        <ele>1753</ele>
        <time>2021-08-10 10:25:29</time>
      </trkpt>
      <trkpt lat="42.84001" lon="-0.46268">
        <ele>1753.2</ele>
        <time>2021-08-10 10:25:30</time>
      </trkpt>
      <trkpt lat="42.84002" lon="-0.46267">
        <ele>1753.6</ele>
        <time>2021-08-10 10:25:31</time>
      </trkpt>
      <trkpt lat="42.84002" lon="-0.46266">
        <ele>1753.4</ele>
        <time>2021-08-10 10:25:32</time>
      </trkpt>
      <trkpt lat="42.84002" lon="-0.46266">
        <ele>1753.8</ele>
        <time>2021-08-10 10:25:33</time>
      </trkpt>
      <trkpt lat="42.84002" lon="-0.46265">
        <ele>1754</ele>
        <time>2021-08-10 10:25:34</time>
      </trkpt>
      <trkpt lat="42.84001" lon="-0.46265">
        <ele>1754</ele>
        <time>2021-08-10 10:25:35</time>
      </trkpt>
      <trkpt lat="42.84001" lon="-0.46266">
        <ele>1754.6</ele>
        <time>2021-08-10 10:25:36</time>
      </trkpt>
      <trkpt lat="42.84" lon="-0.46266">
        <ele>1755.2</ele>
        <time>2021-08-10 10:25:37</time>
      </trkpt>
      <trkpt lat="42.84" lon="-0.46266">
        <ele>1755.4</ele>
        <time>2021-08-10 10:25:38</time>
      </trkpt>
      <trkpt lat="42.83999" lon="-0.46266">
        <ele>1755</ele>
        <time>2021-08-10 10:25:39</time>
      </trkpt>
      <trkpt lat="42.83999" lon="-0.46266">
        <ele>1754.4</ele>
        <time>2021-08-10 10:25:40</time>
      </trkpt>
      <trkpt lat="42.83998" lon="-0.46265">
        <ele>1754.8</ele>
        <time>2021-08-10 10:25:41</time>
      </trkpt>
      <trkpt lat="42.83998" lon="-0.46264">
        <ele>1754.8</ele>
        <time>2021-08-10 10:25:42</time>
      </trkpt>
      <trkpt lat="42.83998" lon="-0.46264">
        <ele>1754.6</ele>
        <time>2021-08-10 10:25:43</time>
      </trkpt>
      <trkpt lat="42.83998" lon="-0.46264">
        <ele>1755</ele>
        <time>2021-08-10 10:25:44</time>
      </trkpt>
      <trkpt lat="42.83998" lon="-0.46264">
        <ele>1755.4</ele>
        <time>2021-08-10 10:25:45</time>
      </trkpt>
      <trkpt lat="42.83998" lon="-0.46264">
        <ele>1755.6</ele>
        <time>2021-08-10 10:25:46</time>
      </trkpt>
      <trkpt lat="42.83997" lon="-0.46263">
        <ele>1755.6</ele>
        <time>2021-08-10 10:25:47</time>
      </trkpt>
      <trkpt lat="42.83997" lon="-0.46263">
        <ele>1755.8</ele>
        <time>2021-08-10 10:25:48</time>
      </trkpt>
      <trkpt lat="42.83997" lon="-0.46263">
        <ele>1756</ele>
        <time>2021-08-10 10:25:49</time>
      </trkpt>
      <trkpt lat="42.83996" lon="-0.46262">
        <ele>1756.2</ele>
        <time>2021-08-10 10:25:50</time>
      </trkpt>
      <trkpt lat="42.83996" lon="-0.46262">
        <ele>1756.4</ele>
        <time>2021-08-10 10:25:51</time>
      </trkpt>
      <trkpt lat="42.83996" lon="-0.46261">
        <ele>1756.4</ele>
        <time>2021-08-10 10:25:52</time>
      </trkpt>
      <trkpt lat="42.83996" lon="-0.4626">
        <ele>1756.4</ele>
        <time>2021-08-10 10:25:53</time>
      </trkpt>
      <trkpt lat="42.83996" lon="-0.4626">
        <ele>1757</ele>
        <time>2021-08-10 10:25:54</time>
      </trkpt>
      <trkpt lat="42.83996" lon="-0.46259">
        <ele>1757.2</ele>
        <time>2021-08-10 10:25:55</time>
      </trkpt>
      <trkpt lat="42.83996" lon="-0.46259">
        <ele>1756.6</ele>
        <time>2021-08-10 10:25:56</time>
      </trkpt>
      <trkpt lat="42.83996" lon="-0.46259">
        <ele>1756.8</ele>
        <time>2021-08-10 10:25:57</time>
      </trkpt>
      <trkpt lat="42.83996" lon="-0.46258">
        <ele>1757.2</ele>
        <time>2021-08-10 10:25:58</time>
      </trkpt>
      <trkpt lat="42.83996" lon="-0.46257">
        <ele>1757.4</ele>
        <time>2021-08-10 10:25:59</time>
      </trkpt>
      <trkpt lat="42.83996" lon="-0.46257">
        <ele>1757.4</ele>
        <time>2021-08-10 10:26:00</time>
      </trkpt>
      <trkpt lat="42.83995" lon="-0.46257">
        <ele>1757.8</ele>
        <time>2021-08-10 10:26:01</time>
      </trkpt>
      <trkpt lat="42.83994" lon="-0.46257">
        <ele>1758</ele>
        <time>2021-08-10 10:26:02</time>
      </trkpt>
      <trkpt lat="42.83994" lon="-0.46257">
        <ele>1758.2</ele>
        <time>2021-08-10 10:26:03</time>
      </trkpt>
      <trkpt lat="42.83993" lon="-0.46257">
        <ele>1758</ele>
        <time>2021-08-10 10:26:04</time>
      </trkpt>
      <trkpt lat="42.83993" lon="-0.46257">
        <ele>1758.2</ele>
        <time>2021-08-10 10:26:05</time>
      </trkpt>
      <trkpt lat="42.83992" lon="-0.46257">
        <ele>1758</ele>
        <time>2021-08-10 10:26:06</time>
      </trkpt>
      <trkpt lat="42.83992" lon="-0.46257">
        <ele>1758.8</ele>
        <time>2021-08-10 10:26:07</time>
      </trkpt>
      <trkpt lat="42.83991" lon="-0.46256">
        <ele>1758.8</ele>
        <time>2021-08-10 10:26:08</time>
      </trkpt>
      <trkpt lat="42.83991" lon="-0.46256">
        <ele>1759</ele>
        <time>2021-08-10 10:26:09</time>
      </trkpt>
      <trkpt lat="42.8399" lon="-0.46256">
        <ele>1759</ele>
        <time>2021-08-10 10:26:10</time>
      </trkpt>
      <trkpt lat="42.8399" lon="-0.46255">
        <ele>1759.2</ele>
        <time>2021-08-10 10:26:11</time>
      </trkpt>
      <trkpt lat="42.8399" lon="-0.46255">
        <ele>1759.2</ele>
        <time>2021-08-10 10:26:12</time>
      </trkpt>
      <trkpt lat="42.83989" lon="-0.46255">
        <ele>1759.4</ele>
        <time>2021-08-10 10:26:13</time>
      </trkpt>
      <trkpt lat="42.83989" lon="-0.46254">
        <ele>1759.6</ele>
        <time>2021-08-10 10:26:14</time>
      </trkpt>
      <trkpt lat="42.83988" lon="-0.46254">
        <ele>1759.6</ele>
        <time>2021-08-10 10:26:15</time>
      </trkpt>
      <trkpt lat="42.83989" lon="-0.46253">
        <ele>1759.8</ele>
        <time>2021-08-10 10:26:16</time>
      </trkpt>
      <trkpt lat="42.83989" lon="-0.46253">
        <ele>1759.8</ele>
        <time>2021-08-10 10:26:17</time>
      </trkpt>
      <trkpt lat="42.83988" lon="-0.46252">
        <ele>1759.8</ele>
        <time>2021-08-10 10:26:18</time>
      </trkpt>
      <trkpt lat="42.83988" lon="-0.46252">
        <ele>1760.2</ele>
        <time>2021-08-10 10:26:19</time>
      </trkpt>
      <trkpt lat="42.83988" lon="-0.46251">
        <ele>1760.2</ele>
        <time>2021-08-10 10:26:20</time>
      </trkpt>
      <trkpt lat="42.83989" lon="-0.4625">
        <ele>1760.4</ele>
        <time>2021-08-10 10:26:21</time>
      </trkpt>
      <trkpt lat="42.83989" lon="-0.4625">
        <ele>1760.2</ele>
        <time>2021-08-10 10:26:22</time>
      </trkpt>
      <trkpt lat="42.83989" lon="-0.46249">
        <ele>1760.6</ele>
        <time>2021-08-10 10:26:23</time>
      </trkpt>
      <trkpt lat="42.83989" lon="-0.46249">
        <ele>1760.8</ele>
        <time>2021-08-10 10:26:24</time>
      </trkpt>
      <trkpt lat="42.83988" lon="-0.46248">
        <ele>1761.2</ele>
        <time>2021-08-10 10:26:25</time>
      </trkpt>
      <trkpt lat="42.83988" lon="-0.46248">
        <ele>1761.2</ele>
        <time>2021-08-10 10:26:26</time>
      </trkpt>
      <trkpt lat="42.83988" lon="-0.46248">
        <ele>1761.4</ele>
        <time>2021-08-10 10:26:27</time>
      </trkpt>
      <trkpt lat="42.83988" lon="-0.46247">
        <ele>1761.6</ele>
        <time>2021-08-10 10:26:28</time>
      </trkpt>
      <trkpt lat="42.83988" lon="-0.46248">
        <ele>1761.6</ele>
        <time>2021-08-10 10:26:29</time>
      </trkpt>
      <trkpt lat="42.83987" lon="-0.46248">
        <ele>1761.8</ele>
        <time>2021-08-10 10:26:30</time>
      </trkpt>
      <trkpt lat="42.83987" lon="-0.46248">
        <ele>1762.2</ele>
        <time>2021-08-10 10:26:31</time>
      </trkpt>
      <trkpt lat="42.83986" lon="-0.46248">
        <ele>1761.8</ele>
        <time>2021-08-10 10:26:32</time>
      </trkpt>
      <trkpt lat="42.83986" lon="-0.46247">
        <ele>1762.4</ele>
        <time>2021-08-10 10:26:33</time>
      </trkpt>
      <trkpt lat="42.83986" lon="-0.46246">
        <ele>1762</ele>
        <time>2021-08-10 10:26:34</time>
      </trkpt>
      <trkpt lat="42.83986" lon="-0.46246">
        <ele>1762.4</ele>
        <time>2021-08-10 10:26:35</time>
      </trkpt>
      <trkpt lat="42.83986" lon="-0.46245">
        <ele>1762</ele>
        <time>2021-08-10 10:26:36</time>
      </trkpt>
      <trkpt lat="42.83985" lon="-0.46245">
        <ele>1762.4</ele>
        <time>2021-08-10 10:26:37</time>
      </trkpt>
      <trkpt lat="42.83985" lon="-0.46244">
        <ele>1762.2</ele>
        <time>2021-08-10 10:26:38</time>
      </trkpt>
      <trkpt lat="42.83985" lon="-0.46243">
        <ele>1762.8</ele>
        <time>2021-08-10 10:26:39</time>
      </trkpt>
      <trkpt lat="42.83985" lon="-0.46242">
        <ele>1763</ele>
        <time>2021-08-10 10:26:40</time>
      </trkpt>
      <trkpt lat="42.83985" lon="-0.46241">
        <ele>1763.2</ele>
        <time>2021-08-10 10:26:41</time>
      </trkpt>
      <trkpt lat="42.83985" lon="-0.46241">
        <ele>1763.2</ele>
        <time>2021-08-10 10:26:42</time>
      </trkpt>
      <trkpt lat="42.83985" lon="-0.46241">
        <ele>1763.2</ele>
        <time>2021-08-10 10:26:43</time>
      </trkpt>
      <trkpt lat="42.83985" lon="-0.46241">
        <ele>1763.6</ele>
        <time>2021-08-10 10:26:44</time>
      </trkpt>
      <trkpt lat="42.83984" lon="-0.4624">
        <ele>1763.8</ele>
        <time>2021-08-10 10:26:45</time>
      </trkpt>
      <trkpt lat="42.83985" lon="-0.4624">
        <ele>1764</ele>
        <time>2021-08-10 10:26:46</time>
      </trkpt>
      <trkpt lat="42.83985" lon="-0.46239">
        <ele>1764</ele>
        <time>2021-08-10 10:26:47</time>
      </trkpt>
      <trkpt lat="42.83984" lon="-0.46238">
        <ele>1764</ele>
        <time>2021-08-10 10:26:48</time>
      </trkpt>
      <trkpt lat="42.83984" lon="-0.46238">
        <ele>1764</ele>
        <time>2021-08-10 10:26:49</time>
      </trkpt>
      <trkpt lat="42.83985" lon="-0.46237">
        <ele>1764.2</ele>
        <time>2021-08-10 10:26:50</time>
      </trkpt>
      <trkpt lat="42.83984" lon="-0.46235">
        <ele>1764.2</ele>
        <time>2021-08-10 10:26:51</time>
      </trkpt>
      <trkpt lat="42.83984" lon="-0.46235">
        <ele>1764.6</ele>
        <time>2021-08-10 10:26:52</time>
      </trkpt>
      <trkpt lat="42.83984" lon="-0.46234">
        <ele>1764.8</ele>
        <time>2021-08-10 10:26:53</time>
      </trkpt>
      <trkpt lat="42.83984" lon="-0.46234">
        <ele>1765</ele>
        <time>2021-08-10 10:26:54</time>
      </trkpt>
      <trkpt lat="42.83983" lon="-0.46234">
        <ele>1765.2</ele>
        <time>2021-08-10 10:26:55</time>
      </trkpt>
      <trkpt lat="42.83982" lon="-0.46234">
        <ele>1765.2</ele>
        <time>2021-08-10 10:26:56</time>
      </trkpt>
      <trkpt lat="42.83981" lon="-0.46234">
        <ele>1765.2</ele>
        <time>2021-08-10 10:26:57</time>
      </trkpt>
      <trkpt lat="42.8398" lon="-0.46234">
        <ele>1765.6</ele>
        <time>2021-08-10 10:26:58</time>
      </trkpt>
      <trkpt lat="42.8398" lon="-0.46234">
        <ele>1764.8</ele>
        <time>2021-08-10 10:26:59</time>
      </trkpt>
      <trkpt lat="42.83979" lon="-0.46234">
        <ele>1765</ele>
        <time>2021-08-10 10:27:00</time>
      </trkpt>
      <trkpt lat="42.83978" lon="-0.46233">
        <ele>1765</ele>
        <time>2021-08-10 10:27:01</time>
      </trkpt>
      <trkpt lat="42.83978" lon="-0.46233">
        <ele>1765.6</ele>
        <time>2021-08-10 10:27:03</time>
      </trkpt>
      <trkpt lat="42.83976" lon="-0.46232">
        <ele>1765.4</ele>
        <time>2021-08-10 10:27:04</time>
      </trkpt>
      <trkpt lat="42.83976" lon="-0.46232">
        <ele>1765.6</ele>
        <time>2021-08-10 10:27:05</time>
      </trkpt>
      <trkpt lat="42.83975" lon="-0.46231">
        <ele>1765.4</ele>
        <time>2021-08-10 10:27:06</time>
      </trkpt>
      <trkpt lat="42.83975" lon="-0.4623">
        <ele>1765.4</ele>
        <time>2021-08-10 10:27:07</time>
      </trkpt>
      <trkpt lat="42.83974" lon="-0.46228">
        <ele>1765.4</ele>
        <time>2021-08-10 10:27:08</time>
      </trkpt>
      <trkpt lat="42.83974" lon="-0.46227">
        <ele>1765.4</ele>
        <time>2021-08-10 10:27:09</time>
      </trkpt>
      <trkpt lat="42.83973" lon="-0.46227">
        <ele>1765.8</ele>
        <time>2021-08-10 10:27:10</time>
      </trkpt>
      <trkpt lat="42.83973" lon="-0.46227">
        <ele>1766.2</ele>
        <time>2021-08-10 10:27:11</time>
      </trkpt>
      <trkpt lat="42.83972" lon="-0.46226">
        <ele>1766.2</ele>
        <time>2021-08-10 10:27:12</time>
      </trkpt>
      <trkpt lat="42.83972" lon="-0.46225">
        <ele>1766.2</ele>
        <time>2021-08-10 10:27:13</time>
      </trkpt>
      <trkpt lat="42.83971" lon="-0.46224">
        <ele>1766.4</ele>
        <time>2021-08-10 10:27:14</time>
      </trkpt>
      <trkpt lat="42.8397" lon="-0.46224">
        <ele>1766.6</ele>
        <time>2021-08-10 10:27:15</time>
      </trkpt>
      <trkpt lat="42.8397" lon="-0.46224">
        <ele>1766.8</ele>
        <time>2021-08-10 10:27:16</time>
      </trkpt>
      <trkpt lat="42.8397" lon="-0.46223">
        <ele>1767.2</ele>
        <time>2021-08-10 10:27:17</time>
      </trkpt>
      <trkpt lat="42.8397" lon="-0.46221">
        <ele>1767</ele>
        <time>2021-08-10 10:27:18</time>
      </trkpt>
      <trkpt lat="42.83969" lon="-0.46222">
        <ele>1766.6</ele>
        <time>2021-08-10 10:27:19</time>
      </trkpt>
      <trkpt lat="42.83969" lon="-0.46221">
        <ele>1767.4</ele>
        <time>2021-08-10 10:27:20</time>
      </trkpt>
      <trkpt lat="42.83969" lon="-0.4622">
        <ele>1767.4</ele>
        <time>2021-08-10 10:27:21</time>
      </trkpt>
      <trkpt lat="42.83969" lon="-0.4622">
        <ele>1767.6</ele>
        <time>2021-08-10 10:27:22</time>
      </trkpt>
      <trkpt lat="42.83969" lon="-0.4622">
        <ele>1768.4</ele>
        <time>2021-08-10 10:27:23</time>
      </trkpt>
      <trkpt lat="42.83969" lon="-0.46219">
        <ele>1768.4</ele>
        <time>2021-08-10 10:27:24</time>
      </trkpt>
      <trkpt lat="42.83968" lon="-0.46218">
        <ele>1768.6</ele>
        <time>2021-08-10 10:27:25</time>
      </trkpt>
      <trkpt lat="42.83968" lon="-0.46218">
        <ele>1768.6</ele>
        <time>2021-08-10 10:27:26</time>
      </trkpt>
      <trkpt lat="42.83968" lon="-0.46217">
        <ele>1768.4</ele>
        <time>2021-08-10 10:27:27</time>
      </trkpt>
      <trkpt lat="42.83968" lon="-0.46216">
        <ele>1768.8</ele>
        <time>2021-08-10 10:27:28</time>
      </trkpt>
      <trkpt lat="42.83967" lon="-0.46216">
        <ele>1769</ele>
        <time>2021-08-10 10:27:29</time>
      </trkpt>
      <trkpt lat="42.83967" lon="-0.46216">
        <ele>1769.4</ele>
        <time>2021-08-10 10:27:30</time>
      </trkpt>
      <trkpt lat="42.83967" lon="-0.46215">
        <ele>1769.2</ele>
        <time>2021-08-10 10:27:31</time>
      </trkpt>
      <trkpt lat="42.83967" lon="-0.46215">
        <ele>1769.6</ele>
        <time>2021-08-10 10:27:32</time>
      </trkpt>
      <trkpt lat="42.83966" lon="-0.46214">
        <ele>1769.8</ele>
        <time>2021-08-10 10:27:33</time>
      </trkpt>
      <trkpt lat="42.83966" lon="-0.46214">
        <ele>1770.4</ele>
        <time>2021-08-10 10:27:34</time>
      </trkpt>
      <trkpt lat="42.83966" lon="-0.46214">
        <ele>1770</ele>
        <time>2021-08-10 10:27:35</time>
      </trkpt>
      <trkpt lat="42.83966" lon="-0.46212">
        <ele>1770.2</ele>
        <time>2021-08-10 10:27:36</time>
      </trkpt>
      <trkpt lat="42.83965" lon="-0.46212">
        <ele>1770</ele>
        <time>2021-08-10 10:27:37</time>
      </trkpt>
      <trkpt lat="42.83965" lon="-0.4621">
        <ele>1770.6</ele>
        <time>2021-08-10 10:27:38</time>
      </trkpt>
      <trkpt lat="42.83965" lon="-0.46209">
        <ele>1770.4</ele>
        <time>2021-08-10 10:27:39</time>
      </trkpt>
      <trkpt lat="42.83965" lon="-0.46208">
        <ele>1770.6</ele>
        <time>2021-08-10 10:27:40</time>
      </trkpt>
      <trkpt lat="42.83965" lon="-0.46208">
        <ele>1771.2</ele>
        <time>2021-08-10 10:27:41</time>
      </trkpt>
      <trkpt lat="42.83965" lon="-0.46207">
        <ele>1770.8</ele>
        <time>2021-08-10 10:27:42</time>
      </trkpt>
      <trkpt lat="42.83965" lon="-0.46207">
        <ele>1771.2</ele>
        <time>2021-08-10 10:27:43</time>
      </trkpt>
      <trkpt lat="42.83965" lon="-0.46206">
        <ele>1771</ele>
        <time>2021-08-10 10:27:44</time>
      </trkpt>
      <trkpt lat="42.83965" lon="-0.46205">
        <ele>1771.4</ele>
        <time>2021-08-10 10:27:45</time>
      </trkpt>
      <trkpt lat="42.83965" lon="-0.46204">
        <ele>1771.6</ele>
        <time>2021-08-10 10:27:46</time>
      </trkpt>
      <trkpt lat="42.83965" lon="-0.46203">
        <ele>1771.8</ele>
        <time>2021-08-10 10:27:47</time>
      </trkpt>
      <trkpt lat="42.83965" lon="-0.46202">
        <ele>1772</ele>
        <time>2021-08-10 10:27:48</time>
      </trkpt>
      <trkpt lat="42.83965" lon="-0.46202">
        <ele>1772</ele>
        <time>2021-08-10 10:27:49</time>
      </trkpt>
      <trkpt lat="42.83965" lon="-0.46201">
        <ele>1772</ele>
        <time>2021-08-10 10:27:50</time>
      </trkpt>
      <trkpt lat="42.83965" lon="-0.462">
        <ele>1772</ele>
        <time>2021-08-10 10:27:51</time>
      </trkpt>
      <trkpt lat="42.83965" lon="-0.462">
        <ele>1772</ele>
        <time>2021-08-10 10:27:52</time>
      </trkpt>
      <trkpt lat="42.83965" lon="-0.46199">
        <ele>1772.2</ele>
        <time>2021-08-10 10:27:53</time>
      </trkpt>
      <trkpt lat="42.83964" lon="-0.46198">
        <ele>1772.6</ele>
        <time>2021-08-10 10:27:54</time>
      </trkpt>
      <trkpt lat="42.83964" lon="-0.46198">
        <ele>1772.6</ele>
        <time>2021-08-10 10:27:55</time>
      </trkpt>
      <trkpt lat="42.83963" lon="-0.46197">
        <ele>1772.6</ele>
        <time>2021-08-10 10:27:56</time>
      </trkpt>
      <trkpt lat="42.83963" lon="-0.46196">
        <ele>1772.6</ele>
        <time>2021-08-10 10:27:57</time>
      </trkpt>
      <trkpt lat="42.83963" lon="-0.46196">
        <ele>1772.6</ele>
        <time>2021-08-10 10:27:58</time>
      </trkpt>
      <trkpt lat="42.83963" lon="-0.46195">
        <ele>1772.6</ele>
        <time>2021-08-10 10:27:59</time>
      </trkpt>
      <trkpt lat="42.83963" lon="-0.46194">
        <ele>1772.8</ele>
        <time>2021-08-10 10:28:00</time>
      </trkpt>
      <trkpt lat="42.83963" lon="-0.46194">
        <ele>1773.4</ele>
        <time>2021-08-10 10:28:01</time>
      </trkpt>
      <trkpt lat="42.83963" lon="-0.46192">
        <ele>1773.2</ele>
        <time>2021-08-10 10:28:02</time>
      </trkpt>
      <trkpt lat="42.83962" lon="-0.46192">
        <ele>1773.6</ele>
        <time>2021-08-10 10:28:03</time>
      </trkpt>
      <trkpt lat="42.83961" lon="-0.46191">
        <ele>1773.8</ele>
        <time>2021-08-10 10:28:04</time>
      </trkpt>
      <trkpt lat="42.83961" lon="-0.4619">
        <ele>1773.8</ele>
        <time>2021-08-10 10:28:05</time>
      </trkpt>
      <trkpt lat="42.83961" lon="-0.46189">
        <ele>1773.6</ele>
        <time>2021-08-10 10:28:06</time>
      </trkpt>
      <trkpt lat="42.8396" lon="-0.46188">
        <ele>1773.6</ele>
        <time>2021-08-10 10:28:07</time>
      </trkpt>
      <trkpt lat="42.83961" lon="-0.46187">
        <ele>1773.6</ele>
        <time>2021-08-10 10:28:08</time>
      </trkpt>
      <trkpt lat="42.83961" lon="-0.46187">
        <ele>1773.8</ele>
        <time>2021-08-10 10:28:09</time>
      </trkpt>
      <trkpt lat="42.83961" lon="-0.46186">
        <ele>1774</ele>
        <time>2021-08-10 10:28:10</time>
      </trkpt>
      <trkpt lat="42.83961" lon="-0.46185">
        <ele>1774.4</ele>
        <time>2021-08-10 10:28:11</time>
      </trkpt>
      <trkpt lat="42.83961" lon="-0.46185">
        <ele>1774.6</ele>
        <time>2021-08-10 10:28:12</time>
      </trkpt>
      <trkpt lat="42.83961" lon="-0.46183">
        <ele>1774.6</ele>
        <time>2021-08-10 10:28:13</time>
      </trkpt>
      <trkpt lat="42.83961" lon="-0.46182">
        <ele>1774.2</ele>
        <time>2021-08-10 10:28:14</time>
      </trkpt>
      <trkpt lat="42.83961" lon="-0.46182">
        <ele>1774.6</ele>
        <time>2021-08-10 10:28:15</time>
      </trkpt>
      <trkpt lat="42.83961" lon="-0.46181">
        <ele>1775.2</ele>
        <time>2021-08-10 10:28:16</time>
      </trkpt>
      <trkpt lat="42.83961" lon="-0.4618">
        <ele>1775</ele>
        <time>2021-08-10 10:28:17</time>
      </trkpt>
      <trkpt lat="42.83961" lon="-0.46179">
        <ele>1774.8</ele>
        <time>2021-08-10 10:28:18</time>
      </trkpt>
      <trkpt lat="42.83961" lon="-0.46178">
        <ele>1775.4</ele>
        <time>2021-08-10 10:28:19</time>
      </trkpt>
      <trkpt lat="42.83961" lon="-0.46177">
        <ele>1775.4</ele>
        <time>2021-08-10 10:28:20</time>
      </trkpt>
      <trkpt lat="42.83961" lon="-0.46177">
        <ele>1775.6</ele>
        <time>2021-08-10 10:28:21</time>
      </trkpt>
      <trkpt lat="42.83961" lon="-0.46176">
        <ele>1775.8</ele>
        <time>2021-08-10 10:28:22</time>
      </trkpt>
      <trkpt lat="42.83961" lon="-0.46175">
        <ele>1775.8</ele>
        <time>2021-08-10 10:28:23</time>
      </trkpt>
      <trkpt lat="42.8396" lon="-0.46175">
        <ele>1775.8</ele>
        <time>2021-08-10 10:28:24</time>
      </trkpt>
      <trkpt lat="42.83961" lon="-0.46175">
        <ele>1775.8</ele>
        <time>2021-08-10 10:28:25</time>
      </trkpt>
      <trkpt lat="42.8396" lon="-0.46174">
        <ele>1775.6</ele>
        <time>2021-08-10 10:28:26</time>
      </trkpt>
      <trkpt lat="42.8396" lon="-0.46173">
        <ele>1776</ele>
        <time>2021-08-10 10:28:27</time>
      </trkpt>
      <trkpt lat="42.8396" lon="-0.46173">
        <ele>1775.8</ele>
        <time>2021-08-10 10:28:28</time>
      </trkpt>
      <trkpt lat="42.83959" lon="-0.46172">
        <ele>1776.6</ele>
        <time>2021-08-10 10:28:29</time>
      </trkpt>
      <trkpt lat="42.83959" lon="-0.46172">
        <ele>1776.4</ele>
        <time>2021-08-10 10:28:30</time>
      </trkpt>
      <trkpt lat="42.83959" lon="-0.46171">
        <ele>1775.8</ele>
        <time>2021-08-10 10:28:31</time>
      </trkpt>
      <trkpt lat="42.83958" lon="-0.4617">
        <ele>1775.8</ele>
        <time>2021-08-10 10:28:32</time>
      </trkpt>
      <trkpt lat="42.83958" lon="-0.46169">
        <ele>1776.2</ele>
        <time>2021-08-10 10:28:33</time>
      </trkpt>
      <trkpt lat="42.83957" lon="-0.46168">
        <ele>1776.4</ele>
        <time>2021-08-10 10:28:34</time>
      </trkpt>
      <trkpt lat="42.83957" lon="-0.46168">
        <ele>1776.4</ele>
        <time>2021-08-10 10:28:35</time>
      </trkpt>
      <trkpt lat="42.83957" lon="-0.46166">
        <ele>1776.4</ele>
        <time>2021-08-10 10:28:36</time>
      </trkpt>
      <trkpt lat="42.83957" lon="-0.46166">
        <ele>1776.4</ele>
        <time>2021-08-10 10:28:37</time>
      </trkpt>
      <trkpt lat="42.83957" lon="-0.46165">
        <ele>1776.4</ele>
        <time>2021-08-10 10:28:38</time>
      </trkpt>
      <trkpt lat="42.83956" lon="-0.46164">
        <ele>1776.8</ele>
        <time>2021-08-10 10:28:39</time>
      </trkpt>
      <trkpt lat="42.83956" lon="-0.46163">
        <ele>1777</ele>
        <time>2021-08-10 10:28:40</time>
      </trkpt>
      <trkpt lat="42.83955" lon="-0.46163">
        <ele>1777.2</ele>
        <time>2021-08-10 10:28:41</time>
      </trkpt>
      <trkpt lat="42.83954" lon="-0.46162">
        <ele>1777.2</ele>
        <time>2021-08-10 10:28:42</time>
      </trkpt>
      <trkpt lat="42.83954" lon="-0.46162">
        <ele>1777.2</ele>
        <time>2021-08-10 10:28:43</time>
      </trkpt>
      <trkpt lat="42.83954" lon="-0.46161">
        <ele>1776.6</ele>
        <time>2021-08-10 10:28:44</time>
      </trkpt>
      <trkpt lat="42.83954" lon="-0.46159">
        <ele>1777.2</ele>
        <time>2021-08-10 10:28:45</time>
      </trkpt>
      <trkpt lat="42.83954" lon="-0.46158">
        <ele>1777.4</ele>
        <time>2021-08-10 10:28:46</time>
      </trkpt>
      <trkpt lat="42.83953" lon="-0.46157">
        <ele>1777.4</ele>
        <time>2021-08-10 10:28:47</time>
      </trkpt>
      <trkpt lat="42.83953" lon="-0.46156">
        <ele>1777.4</ele>
        <time>2021-08-10 10:28:48</time>
      </trkpt>
      <trkpt lat="42.83953" lon="-0.46156">
        <ele>1777.6</ele>
        <time>2021-08-10 10:28:49</time>
      </trkpt>
      <trkpt lat="42.83953" lon="-0.46156">
        <ele>1777</ele>
        <time>2021-08-10 10:28:50</time>
      </trkpt>
      <trkpt lat="42.83953" lon="-0.46155">
        <ele>1777.2</ele>
        <time>2021-08-10 10:28:51</time>
      </trkpt>
      <trkpt lat="42.83953" lon="-0.46156">
        <ele>1777.2</ele>
        <time>2021-08-10 10:28:52</time>
      </trkpt>
      <trkpt lat="42.83954" lon="-0.46153">
        <ele>1777.4</ele>
        <time>2021-08-10 10:28:53</time>
      </trkpt>
      <trkpt lat="42.83954" lon="-0.46153">
        <ele>1777.6</ele>
        <time>2021-08-10 10:28:54</time>
      </trkpt>
      <trkpt lat="42.83954" lon="-0.46153">
        <ele>1777.8</ele>
        <time>2021-08-10 10:28:55</time>
      </trkpt>
      <trkpt lat="42.83954" lon="-0.46153">
        <ele>1778</ele>
        <time>2021-08-10 10:28:56</time>
      </trkpt>
      <trkpt lat="42.83954" lon="-0.46153">
        <ele>1777.8</ele>
        <time>2021-08-10 10:28:57</time>
      </trkpt>
      <trkpt lat="42.83954" lon="-0.46153">
        <ele>1777.8</ele>
        <time>2021-08-10 10:28:58</time>
      </trkpt>
      <trkpt lat="42.83954" lon="-0.46153">
        <ele>1777.8</ele>
        <time>2021-08-10 10:28:59</time>
      </trkpt>
      <trkpt lat="42.83954" lon="-0.46153">
        <ele>1778</ele>
        <time>2021-08-10 10:29:00</time>
      </trkpt>
      <trkpt lat="42.83954" lon="-0.46154">
        <ele>1777.8</ele>
        <time>2021-08-10 10:29:01</time>
      </trkpt>
      <trkpt lat="42.83954" lon="-0.46155">
        <ele>1777.8</ele>
        <time>2021-08-10 10:29:02</time>
      </trkpt>
      <trkpt lat="42.83954" lon="-0.46155">
        <ele>1778</ele>
        <time>2021-08-10 10:29:03</time>
      </trkpt>
      <trkpt lat="42.83954" lon="-0.46155">
        <ele>1778</ele>
        <time>2021-08-10 10:29:04</time>
      </trkpt>
      <trkpt lat="42.83954" lon="-0.46155">
        <ele>1778</ele>
        <time>2021-08-10 10:29:05</time>
      </trkpt>
      <trkpt lat="42.83954" lon="-0.46155">
        <ele>1777.8</ele>
        <time>2021-08-10 10:29:06</time>
      </trkpt>
      <trkpt lat="42.83954" lon="-0.46155">
        <ele>1777.6</ele>
        <time>2021-08-10 10:29:07</time>
      </trkpt>
      <trkpt lat="42.83952" lon="-0.46155">
        <ele>1777</ele>
        <time>2021-08-10 10:29:08</time>
      </trkpt>
      <trkpt lat="42.83952" lon="-0.46154">
        <ele>1777.2</ele>
        <time>2021-08-10 10:29:09</time>
      </trkpt>
      <trkpt lat="42.83952" lon="-0.46154">
        <ele>1777</ele>
        <time>2021-08-10 10:29:10</time>
      </trkpt>
      <trkpt lat="42.83952" lon="-0.46153">
        <ele>1777</ele>
        <time>2021-08-10 10:29:11</time>
      </trkpt>
      <trkpt lat="42.83952" lon="-0.46152">
        <ele>1777.2</ele>
        <time>2021-08-10 10:29:12</time>
      </trkpt>
      <trkpt lat="42.83952" lon="-0.46151">
        <ele>1777.4</ele>
        <time>2021-08-10 10:29:13</time>
      </trkpt>
      <trkpt lat="42.83952" lon="-0.4615">
        <ele>1777.2</ele>
        <time>2021-08-10 10:29:14</time>
      </trkpt>
      <trkpt lat="42.83952" lon="-0.46149">
        <ele>1777.4</ele>
        <time>2021-08-10 10:29:15</time>
      </trkpt>
      <trkpt lat="42.83952" lon="-0.46148">
        <ele>1777.4</ele>
        <time>2021-08-10 10:29:16</time>
      </trkpt>
      <trkpt lat="42.83951" lon="-0.46147">
        <ele>1777.2</ele>
        <time>2021-08-10 10:29:17</time>
      </trkpt>
      <trkpt lat="42.83952" lon="-0.46145">
        <ele>1777.4</ele>
        <time>2021-08-10 10:29:18</time>
      </trkpt>
      <trkpt lat="42.83952" lon="-0.46143">
        <ele>1777.4</ele>
        <time>2021-08-10 10:29:19</time>
      </trkpt>
      <trkpt lat="42.83952" lon="-0.46142">
        <ele>1777.4</ele>
        <time>2021-08-10 10:29:20</time>
      </trkpt>
      <trkpt lat="42.83952" lon="-0.46139">
        <ele>1777.4</ele>
        <time>2021-08-10 10:29:21</time>
      </trkpt>
      <trkpt lat="42.83952" lon="-0.46138">
        <ele>1777.4</ele>
        <time>2021-08-10 10:29:22</time>
      </trkpt>
      <trkpt lat="42.83952" lon="-0.46138">
        <ele>1777.4</ele>
        <time>2021-08-10 10:29:23</time>
      </trkpt>
      <trkpt lat="42.83952" lon="-0.46137">
        <ele>1777.4</ele>
        <time>2021-08-10 10:29:24</time>
      </trkpt>
      <trkpt lat="42.83952" lon="-0.46136">
        <ele>1777.6</ele>
        <time>2021-08-10 10:29:25</time>
      </trkpt>
      <trkpt lat="42.83952" lon="-0.46135">
        <ele>1777.6</ele>
        <time>2021-08-10 10:29:26</time>
      </trkpt>
      <trkpt lat="42.83952" lon="-0.46133">
        <ele>1777.6</ele>
        <time>2021-08-10 10:29:27</time>
      </trkpt>
      <trkpt lat="42.83952" lon="-0.46132">
        <ele>1777.6</ele>
        <time>2021-08-10 10:29:28</time>
      </trkpt>
      <trkpt lat="42.83952" lon="-0.46131">
        <ele>1777.6</ele>
        <time>2021-08-10 10:29:29</time>
      </trkpt>
      <trkpt lat="42.83952" lon="-0.46129">
        <ele>1777.4</ele>
        <time>2021-08-10 10:29:30</time>
      </trkpt>
      <trkpt lat="42.83952" lon="-0.46128">
        <ele>1777.2</ele>
        <time>2021-08-10 10:29:31</time>
      </trkpt>
      <trkpt lat="42.83952" lon="-0.46127">
        <ele>1777.4</ele>
        <time>2021-08-10 10:29:32</time>
      </trkpt>
      <trkpt lat="42.83952" lon="-0.46126">
        <ele>1777.4</ele>
        <time>2021-08-10 10:29:33</time>
      </trkpt>
      <trkpt lat="42.83952" lon="-0.46125">
        <ele>1777.4</ele>
        <time>2021-08-10 10:29:34</time>
      </trkpt>
      <trkpt lat="42.83952" lon="-0.46123">
        <ele>1777.4</ele>
        <time>2021-08-10 10:29:35</time>
      </trkpt>
      <trkpt lat="42.83952" lon="-0.46122">
        <ele>1777.2</ele>
        <time>2021-08-10 10:29:36</time>
      </trkpt>
      <trkpt lat="42.83952" lon="-0.46121">
        <ele>1777.4</ele>
        <time>2021-08-10 10:29:37</time>
      </trkpt>
      <trkpt lat="42.83951" lon="-0.46119">
        <ele>1777.4</ele>
        <time>2021-08-10 10:29:38</time>
      </trkpt>
      <trkpt lat="42.83951" lon="-0.46117">
        <ele>1777.4</ele>
        <time>2021-08-10 10:29:39</time>
      </trkpt>
      <trkpt lat="42.83951" lon="-0.46116">
        <ele>1777.2</ele>
        <time>2021-08-10 10:29:40</time>
      </trkpt>
      <trkpt lat="42.83951" lon="-0.46115">
        <ele>1778</ele>
        <time>2021-08-10 10:29:41</time>
      </trkpt>
      <trkpt lat="42.83951" lon="-0.46113">
        <ele>1777.6</ele>
        <time>2021-08-10 10:29:42</time>
      </trkpt>
      <trkpt lat="42.83952" lon="-0.46112">
        <ele>1777.6</ele>
        <time>2021-08-10 10:29:43</time>
      </trkpt>
      <trkpt lat="42.83952" lon="-0.4611">
        <ele>1777.4</ele>
        <time>2021-08-10 10:29:44</time>
      </trkpt>
      <trkpt lat="42.83952" lon="-0.46109">
        <ele>1778</ele>
        <time>2021-08-10 10:29:45</time>
      </trkpt>
      <trkpt lat="42.83952" lon="-0.46108">
        <ele>1778</ele>
        <time>2021-08-10 10:29:46</time>
      </trkpt>
      <trkpt lat="42.83952" lon="-0.46106">
        <ele>1778.2</ele>
        <time>2021-08-10 10:29:47</time>
      </trkpt>
      <trkpt lat="42.83952" lon="-0.46105">
        <ele>1778</ele>
        <time>2021-08-10 10:29:48</time>
      </trkpt>
      <trkpt lat="42.83952" lon="-0.46104">
        <ele>1777.6</ele>
        <time>2021-08-10 10:29:49</time>
      </trkpt>
      <trkpt lat="42.83952" lon="-0.46102">
        <ele>1777.6</ele>
        <time>2021-08-10 10:29:50</time>
      </trkpt>
      <trkpt lat="42.83952" lon="-0.46101">
        <ele>1777.6</ele>
        <time>2021-08-10 10:29:51</time>
      </trkpt>
      <trkpt lat="42.83952" lon="-0.461">
        <ele>1777.8</ele>
        <time>2021-08-10 10:29:52</time>
      </trkpt>
      <trkpt lat="42.83952" lon="-0.46099">
        <ele>1777.8</ele>
        <time>2021-08-10 10:29:53</time>
      </trkpt>
      <trkpt lat="42.83952" lon="-0.46097">
        <ele>1778</ele>
        <time>2021-08-10 10:30:09</time>
      </trkpt>
      <trkpt lat="42.83952" lon="-0.46096">
        <ele>1778.2</ele>
        <time>2021-08-10 10:30:10</time>
      </trkpt>
      <trkpt lat="42.83953" lon="-0.46094">
        <ele>1778</ele>
        <time>2021-08-10 10:30:11</time>
      </trkpt>
      <trkpt lat="42.83953" lon="-0.46094">
        <ele>1777.8</ele>
        <time>2021-08-10 10:30:12</time>
      </trkpt>
      <trkpt lat="42.83953" lon="-0.46093">
        <ele>1777.8</ele>
        <time>2021-08-10 10:30:13</time>
      </trkpt>
      <trkpt lat="42.83953" lon="-0.46091">
        <ele>1777.8</ele>
        <time>2021-08-10 10:30:14</time>
      </trkpt>
      <trkpt lat="42.83953" lon="-0.46091">
        <ele>1778</ele>
        <time>2021-08-10 10:30:15</time>
      </trkpt>
      <trkpt lat="42.83952" lon="-0.4609">
        <ele>1778</ele>
        <time>2021-08-10 10:30:16</time>
      </trkpt>
      <trkpt lat="42.83952" lon="-0.46088">
        <ele>1778</ele>
        <time>2021-08-10 10:30:23</time>
      </trkpt>
      <trkpt lat="42.83952" lon="-0.46087">
        <ele>1778</ele>
        <time>2021-08-10 10:30:24</time>
      </trkpt>
      <trkpt lat="42.83953" lon="-0.46086">
        <ele>1778.2</ele>
        <time>2021-08-10 10:30:25</time>
      </trkpt>
      <trkpt lat="42.83953" lon="-0.46084">
        <ele>1778.4</ele>
        <time>2021-08-10 10:30:26</time>
      </trkpt>
      <trkpt lat="42.83952" lon="-0.46083">
        <ele>1778.6</ele>
        <time>2021-08-10 10:30:31</time>
      </trkpt>
      <trkpt lat="42.83953" lon="-0.46082">
        <ele>1779</ele>
        <time>2021-08-10 10:30:32</time>
      </trkpt>
      <trkpt lat="42.83953" lon="-0.46081">
        <ele>1778.6</ele>
        <time>2021-08-10 10:30:33</time>
      </trkpt>
      <trkpt lat="42.83953" lon="-0.4608">
        <ele>1778.4</ele>
        <time>2021-08-10 10:30:38</time>
      </trkpt>
      <trkpt lat="42.83952" lon="-0.46078">
        <ele>1779</ele>
        <time>2021-08-10 10:30:39</time>
      </trkpt>
      <trkpt lat="42.83952" lon="-0.46077">
        <ele>1779.2</ele>
        <time>2021-08-10 10:30:40</time>
      </trkpt>
      <trkpt lat="42.83952" lon="-0.46076">
        <ele>1779.2</ele>
        <time>2021-08-10 10:30:41</time>
      </trkpt>
      <trkpt lat="42.83952" lon="-0.46075">
        <ele>1779.6</ele>
        <time>2021-08-10 10:30:42</time>
      </trkpt>
      <trkpt lat="42.83952" lon="-0.46074">
        <ele>1779.6</ele>
        <time>2021-08-10 10:30:43</time>
      </trkpt>
      <trkpt lat="42.83952" lon="-0.46073">
        <ele>1779.8</ele>
        <time>2021-08-10 10:30:44</time>
      </trkpt>
      <trkpt lat="42.83952" lon="-0.46071">
        <ele>1779.8</ele>
        <time>2021-08-10 10:30:45</time>
      </trkpt>
      <trkpt lat="42.83952" lon="-0.4607">
        <ele>1779.8</ele>
        <time>2021-08-10 10:30:46</time>
      </trkpt>
      <trkpt lat="42.83953" lon="-0.46069">
        <ele>1779.8</ele>
        <time>2021-08-10 10:30:47</time>
      </trkpt>
      <trkpt lat="42.83953" lon="-0.46068">
        <ele>1779.8</ele>
        <time>2021-08-10 10:30:48</time>
      </trkpt>
      <trkpt lat="42.83953" lon="-0.46067">
        <ele>1780.2</ele>
      </trkpt>
      <trkpt lat="42.83953" lon="-0.46066">
        <ele>1780.4</ele>
        <time>2021-08-10 10:30:49</time>
      </trkpt>
      <trkpt lat="42.83953" lon="-0.46064">
        <ele>1780.2</ele>
        <time>2021-08-10 10:30:50</time>
      </trkpt>
      <trkpt lat="42.83953" lon="-0.46063">
        <ele>1780.2</ele>
        <time>2021-08-10 10:30:52</time>
      </trkpt>
      <trkpt lat="42.83953" lon="-0.46062">
        <ele>1780.6</ele>
      </trkpt>
      <trkpt lat="42.83954" lon="-0.46061">
        <ele>1780.6</ele>
        <time>2021-08-10 10:30:53</time>
      </trkpt>
      <trkpt lat="42.83953" lon="-0.4606">
        <ele>1779.6</ele>
        <time>2021-08-10 10:30:54</time>
      </trkpt>
      <trkpt lat="42.83953" lon="-0.46059">
        <ele>1780.4</ele>
        <time>2021-08-10 10:30:55</time>
      </trkpt>
      <trkpt lat="42.83954" lon="-0.46057">
        <ele>1780.6</ele>
        <time>2021-08-10 10:30:56</time>
      </trkpt>
      <trkpt lat="42.83954" lon="-0.46056">
        <ele>1781.2</ele>
        <time>2021-08-10 10:30:57</time>
      </trkpt>
      <trkpt lat="42.83954" lon="-0.46055">
        <ele>1781.2</ele>
        <time>2021-08-10 10:30:58</time>
      </trkpt>
      <trkpt lat="42.83955" lon="-0.46055">
        <ele>1781.4</ele>
        <time>2021-08-10 10:30:59</time>
      </trkpt>
      <trkpt lat="42.83955" lon="-0.46054">
        <ele>1781.8</ele>
        <time>2021-08-10 10:31:00</time>
      </trkpt>
      <trkpt lat="42.83955" lon="-0.46053">
        <ele>1781.6</ele>
        <time>2021-08-10 10:31:01</time>
      </trkpt>
      <trkpt lat="42.83954" lon="-0.46052">
        <ele>1781.4</ele>
        <time>2021-08-10 10:31:02</time>
      </trkpt>
      <trkpt lat="42.83954" lon="-0.46051">
        <ele>1781.6</ele>
        <time>2021-08-10 10:31:03</time>
      </trkpt>
      <trkpt lat="42.83954" lon="-0.46049">
        <ele>1781.6</ele>
        <time>2021-08-10 10:31:04</time>
      </trkpt>
      <trkpt lat="42.83955" lon="-0.46048">
        <ele>1781.6</ele>
        <time>2021-08-10 10:31:05</time>
      </trkpt>
      <trkpt lat="42.83955" lon="-0.46047">
        <ele>1781.8</ele>
        <time>2021-08-10 10:31:06</time>
      </trkpt>
      <trkpt lat="42.83956" lon="-0.46047">
        <ele>1782</ele>
        <time>2021-08-10 10:31:07</time>
      </trkpt>
      <trkpt lat="42.83956" lon="-0.46046">
        <ele>1782.2</ele>
        <time>2021-08-10 10:31:08</time>
      </trkpt>
      <trkpt lat="42.83957" lon="-0.46044">
        <ele>1782.4</ele>
        <time>2021-08-10 10:31:09</time>
      </trkpt>
      <trkpt lat="42.83957" lon="-0.46043">
        <ele>1782.4</ele>
        <time>2021-08-10 10:31:11</time>
      </trkpt>
      <trkpt lat="42.83957" lon="-0.46042">
        <ele>1782.4</ele>
      </trkpt>
      <trkpt lat="42.83958" lon="-0.46041">
        <ele>1782.6</ele>
        <time>2021-08-10 10:31:12</time>
      </trkpt>
      <trkpt lat="42.83958" lon="-0.4604">
        <ele>1782.6</ele>
        <time>2021-08-10 10:31:13</time>
      </trkpt>
      <trkpt lat="42.83958" lon="-0.4604">
        <ele>1782.8</ele>
        <time>2021-08-10 10:31:14</time>
      </trkpt>
      <trkpt lat="42.83959" lon="-0.46039">
        <ele>1783</ele>
        <time>2021-08-10 10:31:15</time>
      </trkpt>
      <trkpt lat="42.83959" lon="-0.46038">
        <ele>1783</ele>
        <time>2021-08-10 10:31:16</time>
      </trkpt>
      <trkpt lat="42.83959" lon="-0.46037">
        <ele>1783</ele>
        <time>2021-08-10 10:31:17</time>
      </trkpt>
      <trkpt lat="42.8396" lon="-0.46036">
        <ele>1783</ele>
        <time>2021-08-10 10:31:18</time>
      </trkpt>
      <trkpt lat="42.8396" lon="-0.46036">
        <ele>1783.2</ele>
        <time>2021-08-10 10:31:19</time>
      </trkpt>
      <trkpt lat="42.83962" lon="-0.46035">
        <ele>1783.2</ele>
        <time>2021-08-10 10:31:20</time>
      </trkpt>
      <trkpt lat="42.83962" lon="-0.46033">
        <ele>1783.4</ele>
        <time>2021-08-10 10:31:21</time>
      </trkpt>
      <trkpt lat="42.83963" lon="-0.46032">
        <ele>1783.2</ele>
        <time>2021-08-10 10:31:22</time>
      </trkpt>
      <trkpt lat="42.83963" lon="-0.46031">
        <ele>1783</ele>
        <time>2021-08-10 10:31:23</time>
      </trkpt>
      <trkpt lat="42.83963" lon="-0.4603">
        <ele>1783.2</ele>
        <time>2021-08-10 10:31:24</time>
      </trkpt>
      <trkpt lat="42.83964" lon="-0.46029">
        <ele>1783.2</ele>
        <time>2021-08-10 10:31:25</time>
      </trkpt>
      <trkpt lat="42.83965" lon="-0.46028">
        <ele>1783.2</ele>
        <time>2021-08-10 10:31:26</time>
      </trkpt>
      <trkpt lat="42.83966" lon="-0.46027">
        <ele>1783.2</ele>
        <time>2021-08-10 10:31:27</time>
      </trkpt>
      <trkpt lat="42.83966" lon="-0.46026">
        <ele>1783.2</ele>
        <time>2021-08-10 10:31:28</time>
      </trkpt>
      <trkpt lat="42.83967" lon="-0.46025">
        <ele>1783.6</ele>
        <time>2021-08-10 10:31:29</time>
      </trkpt>
      <trkpt lat="42.83968" lon="-0.46023">
        <ele>1783.2</ele>
        <time>2021-08-10 10:31:30</time>
      </trkpt>
      <trkpt lat="42.83969" lon="-0.46023">
        <ele>1783</ele>
        <time>2021-08-10 10:31:31</time>
      </trkpt>
      <trkpt lat="42.8397" lon="-0.46022">
        <ele>1783.4</ele>
        <time>2021-08-10 10:31:32</time>
      </trkpt>
      <trkpt lat="42.83971" lon="-0.46021">
        <ele>1783.6</ele>
        <time>2021-08-10 10:31:33</time>
      </trkpt>
      <trkpt lat="42.83971" lon="-0.4602">
        <ele>1783.6</ele>
        <time>2021-08-10 10:31:34</time>
      </trkpt>
      <trkpt lat="42.83972" lon="-0.4602">
        <ele>1783.8</ele>
        <time>2021-08-10 10:31:35</time>
      </trkpt>
      <trkpt lat="42.83973" lon="-0.46019">
        <ele>1783.8</ele>
        <time>2021-08-10 10:31:36</time>
      </trkpt>
      <trkpt lat="42.83973" lon="-0.46018">
        <ele>1783.8</ele>
        <time>2021-08-10 10:31:37</time>
      </trkpt>
      <trkpt lat="42.83974" lon="-0.46018">
        <ele>1783.6</ele>
        <time>2021-08-10 10:31:38</time>
      </trkpt>
      <trkpt lat="42.83975" lon="-0.46017">
        <ele>1783.4</ele>
        <time>2021-08-10 10:31:39</time>
      </trkpt>
      <trkpt lat="42.83976" lon="-0.46016">
        <ele>1783.4</ele>
        <time>2021-08-10 10:31:40</time>
      </trkpt>
      <trkpt lat="42.83977" lon="-0.46016">
        <ele>1783.4</ele>
        <time>2021-08-10 10:31:41</time>
      </trkpt>
      <trkpt lat="42.83978" lon="-0.46016">
        <ele>1783.4</ele>
        <time>2021-08-10 10:31:42</time>
      </trkpt>
      <trkpt lat="42.83979" lon="-0.46015">
        <ele>1783.2</ele>
        <time>2021-08-10 10:31:43</time>
      </trkpt>
      <trkpt lat="42.83979" lon="-0.46014">
        <ele>1783.2</ele>
        <time>2021-08-10 10:31:44</time>
      </trkpt>
      <trkpt lat="42.8398" lon="-0.46013">
        <ele>1783.2</ele>
        <time>2021-08-10 10:31:45</time>
      </trkpt>
      <trkpt lat="42.83981" lon="-0.46013">
        <ele>1783.2</ele>
        <time>2021-08-10 10:31:46</time>
      </trkpt>
      <trkpt lat="42.83981" lon="-0.46012">
        <ele>1783.2</ele>
        <time>2021-08-10 10:31:47</time>
      </trkpt>
      <trkpt lat="42.83983" lon="-0.46012">
        <ele>1783.2</ele>
        <time>2021-08-10 10:31:48</time>
      </trkpt>
      <trkpt lat="42.83983" lon="-0.46011">
        <ele>1783.4</ele>
        <time>2021-08-10 10:31:49</time>
      </trkpt>
      <trkpt lat="42.83984" lon="-0.46011">
        <ele>1783.6</ele>
        <time>2021-08-10 10:31:50</time>
      </trkpt>
      <trkpt lat="42.83985" lon="-0.4601">
        <ele>1783.4</ele>
        <time>2021-08-10 10:31:51</time>
      </trkpt>
      <trkpt lat="42.83986" lon="-0.4601">
        <ele>1783</ele>
        <time>2021-08-10 10:31:52</time>
      </trkpt>
      <trkpt lat="42.83987" lon="-0.46009">
        <ele>1783.2</ele>
        <time>2021-08-10 10:31:53</time>
      </trkpt>
      <trkpt lat="42.83987" lon="-0.46008">
        <ele>1783.2</ele>
        <time>2021-08-10 10:31:54</time>
      </trkpt>
      <trkpt lat="42.83988" lon="-0.46007">
        <ele>1783.8</ele>
        <time>2021-08-10 10:31:55</time>
      </trkpt>
      <trkpt lat="42.83989" lon="-0.46007">
        <ele>1783.4</ele>
        <time>2021-08-10 10:31:56</time>
      </trkpt>
      <trkpt lat="42.8399" lon="-0.46006">
        <ele>1783.6</ele>
        <time>2021-08-10 10:31:57</time>
      </trkpt>
      <trkpt lat="42.83991" lon="-0.46004">
        <ele>1784</ele>
        <time>2021-08-10 10:31:58</time>
      </trkpt>
      <trkpt lat="42.83992" lon="-0.46003">
        <ele>1784.2</ele>
        <time>2021-08-10 10:31:59</time>
      </trkpt>
      <trkpt lat="42.83993" lon="-0.46002">
        <ele>1784.2</ele>
        <time>2021-08-10 10:32:00</time>
      </trkpt>
      <trkpt lat="42.83994" lon="-0.46001">
        <ele>1784</ele>
        <time>2021-08-10 10:32:01</time>
      </trkpt>
      <trkpt lat="42.83994" lon="-0.46001">
        <ele>1784</ele>
        <time>2021-08-10 10:32:02</time>
      </trkpt>
      <trkpt lat="42.83995" lon="-0.46">
        <ele>1784.2</ele>
        <time>2021-08-10 10:32:03</time>
      </trkpt>
      <trkpt lat="42.83995" lon="-0.45998">
        <ele>1784.4</ele>
        <time>2021-08-10 10:32:04</time>
      </trkpt>
      <trkpt lat="42.83996" lon="-0.45997">
        <ele>1784.4</ele>
        <time>2021-08-10 10:32:05</time>
      </trkpt>
      <trkpt lat="42.83997" lon="-0.45997">
        <ele>1784.6</ele>
        <time>2021-08-10 10:32:06</time>
      </trkpt>
      <trkpt lat="42.83997" lon="-0.45996">
        <ele>1784.4</ele>
        <time>2021-08-10 10:32:07</time>
      </trkpt>
      <trkpt lat="42.83998" lon="-0.45994">
        <ele>1784.6</ele>
        <time>2021-08-10 10:32:08</time>
      </trkpt>
      <trkpt lat="42.83998" lon="-0.45994">
        <ele>1784.8</ele>
        <time>2021-08-10 10:32:09</time>
      </trkpt>
      <trkpt lat="42.83998" lon="-0.45993">
        <ele>1784.6</ele>
        <time>2021-08-10 10:32:10</time>
      </trkpt>
      <trkpt lat="42.83999" lon="-0.45992">
        <ele>1784.6</ele>
        <time>2021-08-10 10:32:11</time>
      </trkpt>
      <trkpt lat="42.83999" lon="-0.45991">
        <ele>1784.6</ele>
        <time>2021-08-10 10:32:12</time>
      </trkpt>
      <trkpt lat="42.84" lon="-0.4599">
        <ele>1784.8</ele>
        <time>2021-08-10 10:32:13</time>
      </trkpt>
      <trkpt lat="42.84" lon="-0.45988">
        <ele>1784.8</ele>
        <time>2021-08-10 10:32:14</time>
      </trkpt>
      <trkpt lat="42.84001" lon="-0.45988">
        <ele>1784.8</ele>
        <time>2021-08-10 10:32:15</time>
      </trkpt>
      <trkpt lat="42.84001" lon="-0.45986">
        <ele>1784.8</ele>
        <time>2021-08-10 10:32:16</time>
      </trkpt>
      <trkpt lat="42.84002" lon="-0.45985">
        <ele>1785</ele>
        <time>2021-08-10 10:32:17</time>
      </trkpt>
      <trkpt lat="42.84002" lon="-0.45983">
        <ele>1785</ele>
        <time>2021-08-10 10:32:18</time>
      </trkpt>
      <trkpt lat="42.84003" lon="-0.45982">
        <ele>1785.4</ele>
        <time>2021-08-10 10:32:19</time>
      </trkpt>
      <trkpt lat="42.84003" lon="-0.45981">
        <ele>1785.4</ele>
        <time>2021-08-10 10:32:20</time>
      </trkpt>
      <trkpt lat="42.84004" lon="-0.4598">
        <ele>1785.2</ele>
        <time>2021-08-10 10:32:21</time>
      </trkpt>
      <trkpt lat="42.84004" lon="-0.45979">
        <ele>1785.4</ele>
        <time>2021-08-10 10:32:22</time>
      </trkpt>
      <trkpt lat="42.84005" lon="-0.45978">
        <ele>1785.4</ele>
        <time>2021-08-10 10:32:23</time>
      </trkpt>
      <trkpt lat="42.84005" lon="-0.45977">
        <ele>1785.2</ele>
        <time>2021-08-10 10:32:24</time>
      </trkpt>
      <trkpt lat="42.84006" lon="-0.45976">
        <ele>1785.2</ele>
        <time>2021-08-10 10:32:25</time>
      </trkpt>
      <trkpt lat="42.84007" lon="-0.45975">
        <ele>1785.2</ele>
        <time>2021-08-10 10:32:26</time>
      </trkpt>
      <trkpt lat="42.84007" lon="-0.45974">
        <ele>1785.4</ele>
        <time>2021-08-10 10:32:27</time>
      </trkpt>
      <trkpt lat="42.84008" lon="-0.45973">
        <ele>1785.4</ele>
        <time>2021-08-10 10:32:28</time>
      </trkpt>
      <trkpt lat="42.84008" lon="-0.45971">
        <ele>1785.6</ele>
        <time>2021-08-10 10:32:29</time>
      </trkpt>
      <trkpt lat="42.84009" lon="-0.4597">
        <ele>1785.8</ele>
        <time>2021-08-10 10:32:30</time>
      </trkpt>
      <trkpt lat="42.8401" lon="-0.45969">
        <ele>1785.8</ele>
        <time>2021-08-10 10:32:31</time>
      </trkpt>
      <trkpt lat="42.84011" lon="-0.45969">
        <ele>1785.8</ele>
        <time>2021-08-10 10:32:32</time>
      </trkpt>
      <trkpt lat="42.84012" lon="-0.45968">
        <ele>1786</ele>
        <time>2021-08-10 10:32:33</time>
      </trkpt>
      <trkpt lat="42.84012" lon="-0.45968">
        <ele>1786.2</ele>
        <time>2021-08-10 10:32:34</time>
      </trkpt>
      <trkpt lat="42.84013" lon="-0.45967">
        <ele>1786.2</ele>
        <time>2021-08-10 10:32:35</time>
      </trkpt>
      <trkpt lat="42.84014" lon="-0.45966">
        <ele>1786</ele>
        <time>2021-08-10 10:32:36</time>
      </trkpt>
      <trkpt lat="42.84014" lon="-0.45966">
        <ele>1786.6</ele>
        <time>2021-08-10 10:32:37</time>
      </trkpt>
      <trkpt lat="42.84015" lon="-0.45965">
        <ele>1786.6</ele>
        <time>2021-08-10 10:32:38</time>
      </trkpt>
      <trkpt lat="42.84016" lon="-0.45964">
        <ele>1786.4</ele>
        <time>2021-08-10 10:32:39</time>
      </trkpt>
      <trkpt lat="42.84017" lon="-0.45964">
        <ele>1786.4</ele>
        <time>2021-08-10 10:32:40</time>
      </trkpt>
      <trkpt lat="42.84018" lon="-0.45964">
        <ele>1786.8</ele>
        <time>2021-08-10 10:32:41</time>
      </trkpt>
      <trkpt lat="42.84018" lon="-0.45963">
        <ele>1787</ele>
        <time>2021-08-10 10:32:42</time>
      </trkpt>
      <trkpt lat="42.84019" lon="-0.45962">
        <ele>1787.2</ele>
        <time>2021-08-10 10:32:43</time>
      </trkpt>
      <trkpt lat="42.8402" lon="-0.45962">
        <ele>1787</ele>
        <time>2021-08-10 10:32:44</time>
      </trkpt>
      <trkpt lat="42.84021" lon="-0.45962">
        <ele>1786.8</ele>
        <time>2021-08-10 10:32:45</time>
      </trkpt>
      <trkpt lat="42.84022" lon="-0.45961">
        <ele>1787</ele>
        <time>2021-08-10 10:32:46</time>
      </trkpt>
      <trkpt lat="42.84023" lon="-0.45961">
        <ele>1787.4</ele>
        <time>2021-08-10 10:32:47</time>
      </trkpt>
      <trkpt lat="42.84024" lon="-0.45961">
        <ele>1787.4</ele>
        <time>2021-08-10 10:32:48</time>
      </trkpt>
      <trkpt lat="42.84025" lon="-0.45961">
        <ele>1787.6</ele>
        <time>2021-08-10 10:32:49</time>
      </trkpt>
      <trkpt lat="42.84026" lon="-0.45961">
        <ele>1787.4</ele>
        <time>2021-08-10 10:32:50</time>
      </trkpt>
      <trkpt lat="42.84026" lon="-0.4596">
        <ele>1787.4</ele>
        <time>2021-08-10 10:32:51</time>
      </trkpt>
      <trkpt lat="42.84027" lon="-0.4596">
        <ele>1787.4</ele>
        <time>2021-08-10 10:32:52</time>
      </trkpt>
      <trkpt lat="42.84028" lon="-0.45959">
        <ele>1787.4</ele>
        <time>2021-08-10 10:32:53</time>
      </trkpt>
      <trkpt lat="42.84029" lon="-0.45959">
        <ele>1787.4</ele>
        <time>2021-08-10 10:32:54</time>
      </trkpt>
      <trkpt lat="42.8403" lon="-0.45958">
        <ele>1787.2</ele>
        <time>2021-08-10 10:32:55</time>
      </trkpt>
      <trkpt lat="42.84031" lon="-0.45957">
        <ele>1787.4</ele>
        <time>2021-08-10 10:32:56</time>
      </trkpt>
      <trkpt lat="42.84032" lon="-0.45956">
        <ele>1787.8</ele>
        <time>2021-08-10 10:32:57</time>
      </trkpt>
      <trkpt lat="42.84032" lon="-0.45955">
        <ele>1787.6</ele>
        <time>2021-08-10 10:32:58</time>
      </trkpt>
      <trkpt lat="42.84032" lon="-0.45954">
        <ele>1787.6</ele>
        <time>2021-08-10 10:32:59</time>
      </trkpt>
      <trkpt lat="42.84032" lon="-0.45953">
        <ele>1788</ele>
        <time>2021-08-10 10:33:00</time>
      </trkpt>
      <trkpt lat="42.84033" lon="-0.45952">
        <ele>1788.2</ele>
        <time>2021-08-10 10:33:01</time>
      </trkpt>
      <trkpt lat="42.84034" lon="-0.45951">
        <ele>1788</ele>
        <time>2021-08-10 10:33:02</time>
      </trkpt>
      <trkpt lat="42.84033" lon="-0.4595">
        <ele>1788</ele>
        <time>2021-08-10 10:33:03</time>
      </trkpt>
      <trkpt lat="42.84033" lon="-0.45949">
        <ele>1788</ele>
        <time>2021-08-10 10:33:04</time>
      </trkpt>
      <trkpt lat="42.84034" lon="-0.45948">
        <ele>1788.4</ele>
        <time>2021-08-10 10:33:05</time>
      </trkpt>
      <trkpt lat="42.84034" lon="-0.45947">
        <ele>1788.4</ele>
        <time>2021-08-10 10:33:06</time>
      </trkpt>
      <trkpt lat="42.84034" lon="-0.45946">
        <ele>1788.6</ele>
        <time>2021-08-10 10:33:07</time>
      </trkpt>
      <trkpt lat="42.84034" lon="-0.45945">
        <ele>1788.6</ele>
        <time>2021-08-10 10:33:08</time>
      </trkpt>
      <trkpt lat="42.84034" lon="-0.45945">
        <ele>1788.8</ele>
        <time>2021-08-10 10:33:09</time>
      </trkpt>
      <trkpt lat="42.84034" lon="-0.45945">
        <ele>1788.8</ele>
        <time>2021-08-10 10:33:10</time>
      </trkpt>
      <trkpt lat="42.84034" lon="-0.45945">
        <ele>1788.8</ele>
        <time>2021-08-10 10:33:11</time>
      </trkpt>
      <trkpt lat="42.84034" lon="-0.45945">
        <ele>1788.6</ele>
        <time>2021-08-10 10:33:12</time>
      </trkpt>
      <trkpt lat="42.84035" lon="-0.45945">
        <ele>1788.6</ele>
        <time>2021-08-10 10:33:13</time>
      </trkpt>
      <trkpt lat="42.84034" lon="-0.45945">
        <ele>1788.6</ele>
        <time>2021-08-10 10:33:14</time>
      </trkpt>
      <trkpt lat="42.84034" lon="-0.45945">
        <ele>1788.8</ele>
        <time>2021-08-10 10:33:15</time>
      </trkpt>
      <trkpt lat="42.84033" lon="-0.45945">
        <ele>1788.6</ele>
        <time>2021-08-10 10:33:16</time>
      </trkpt>
      <trkpt lat="42.84033" lon="-0.45945">
        <ele>1788.6</ele>
        <time>2021-08-10 10:33:17</time>
      </trkpt>
      <trkpt lat="42.84032" lon="-0.45944">
        <ele>1788.6</ele>
        <time>2021-08-10 10:33:18</time>
      </trkpt>
      <trkpt lat="42.84032" lon="-0.45944">
        <ele>1788.8</ele>
        <time>2021-08-10 10:33:19</time>
      </trkpt>
      <trkpt lat="42.84032" lon="-0.45944">
        <ele>1788.8</ele>
        <time>2021-08-10 10:33:20</time>
      </trkpt>
      <trkpt lat="42.84031" lon="-0.45945">
        <ele>1789.2</ele>
        <time>2021-08-10 10:33:21</time>
      </trkpt>
      <trkpt lat="42.84031" lon="-0.45945">
        <ele>1789.6</ele>
        <time>2021-08-10 10:33:22</time>
      </trkpt>
      <trkpt lat="42.84031" lon="-0.45945">
        <ele>1789.8</ele>
        <time>2021-08-10 10:33:23</time>
      </trkpt>
      <trkpt lat="42.84031" lon="-0.45945">
        <ele>1789.8</ele>
        <time>2021-08-10 10:33:24</time>
      </trkpt>
      <trkpt lat="42.84031" lon="-0.45945">
        <ele>1790</ele>
        <time>2021-08-10 10:33:25</time>
      </trkpt>
      <trkpt lat="42.84031" lon="-0.45945">
        <ele>1789.6</ele>
        <time>2021-08-10 10:33:26</time>
      </trkpt>
      <trkpt lat="42.84031" lon="-0.45943">
        <ele>1789.4</ele>
        <time>2021-08-10 10:33:27</time>
      </trkpt>
      <trkpt lat="42.84031" lon="-0.45943">
        <ele>1789.4</ele>
        <time>2021-08-10 10:33:28</time>
      </trkpt>
      <trkpt lat="42.84031" lon="-0.45943">
        <ele>1789.6</ele>
        <time>2021-08-10 10:33:29</time>
      </trkpt>
      <trkpt lat="42.84032" lon="-0.45943">
        <ele>1789.4</ele>
        <time>2021-08-10 10:33:30</time>
      </trkpt>
      <trkpt lat="42.84031" lon="-0.45942">
        <ele>1789.4</ele>
        <time>2021-08-10 10:33:31</time>
      </trkpt>
      <trkpt lat="42.84031" lon="-0.45942">
        <ele>1789.4</ele>
        <time>2021-08-10 10:33:32</time>
      </trkpt>
      <trkpt lat="42.84031" lon="-0.45942">
        <ele>1789.4</ele>
        <time>2021-08-10 10:33:33</time>
      </trkpt>
      <trkpt lat="42.84031" lon="-0.45942">
        <ele>1789.6</ele>
        <time>2021-08-10 10:33:34</time>
      </trkpt>
      <trkpt lat="42.84031" lon="-0.45941">
        <ele>1789.8</ele>
        <time>2021-08-10 10:33:35</time>
      </trkpt>
      <trkpt lat="42.84031" lon="-0.45941">
        <ele>1789.8</ele>
        <time>2021-08-10 10:33:36</time>
      </trkpt>
      <trkpt lat="42.84031" lon="-0.4594">
        <ele>1789.8</ele>
        <time>2021-08-10 10:33:37</time>
      </trkpt>
      <trkpt lat="42.8403" lon="-0.4594">
        <ele>1790</ele>
        <time>2021-08-10 10:33:38</time>
      </trkpt>
      <trkpt lat="42.8403" lon="-0.45939">
        <ele>1789.4</ele>
        <time>2021-08-10 10:33:39</time>
      </trkpt>
      <trkpt lat="42.8403" lon="-0.45939">
        <ele>1789.6</ele>
        <time>2021-08-10 10:33:40</time>
      </trkpt>
      <trkpt lat="42.84029" lon="-0.45938">
        <ele>1790</ele>
        <time>2021-08-10 10:33:41</time>
      </trkpt>
      <trkpt lat="42.84029" lon="-0.45937">
        <ele>1790.2</ele>
        <time>2021-08-10 10:33:42</time>
      </trkpt>
      <trkpt lat="42.84028" lon="-0.45936">
        <ele>1790.2</ele>
        <time>2021-08-10 10:33:43</time>
      </trkpt>
      <trkpt lat="42.84027" lon="-0.45936">
        <ele>1790.4</ele>
        <time>2021-08-10 10:33:44</time>
      </trkpt>
      <trkpt lat="42.84027" lon="-0.45935">
        <ele>1790.4</ele>
        <time>2021-08-10 10:33:45</time>
      </trkpt>
      <trkpt lat="42.84027" lon="-0.45935">
        <ele>1790.4</ele>
        <time>2021-08-10 10:33:46</time>
      </trkpt>
      <trkpt lat="42.84027" lon="-0.45934">
        <ele>1790.4</ele>
        <time>2021-08-10 10:33:47</time>
      </trkpt>
      <trkpt lat="42.84027" lon="-0.45933">
        <ele>1791</ele>
        <time>2021-08-10 10:33:48</time>
      </trkpt>
      <trkpt lat="42.84026" lon="-0.45931">
        <ele>1791.2</ele>
        <time>2021-08-10 10:33:49</time>
      </trkpt>
      <trkpt lat="42.84026" lon="-0.45931">
        <ele>1791.6</ele>
        <time>2021-08-10 10:33:50</time>
      </trkpt>
      <trkpt lat="42.84026" lon="-0.4593">
        <ele>1791.8</ele>
        <time>2021-08-10 10:33:51</time>
      </trkpt>
      <trkpt lat="42.84026" lon="-0.45929">
        <ele>1792</ele>
        <time>2021-08-10 10:33:52</time>
      </trkpt>
      <trkpt lat="42.84026" lon="-0.45929">
        <ele>1792</ele>
        <time>2021-08-10 10:33:53</time>
      </trkpt>
      <trkpt lat="42.84025" lon="-0.45928">
        <ele>1792.2</ele>
        <time>2021-08-10 10:33:54</time>
      </trkpt>
      <trkpt lat="42.84025" lon="-0.45928">
        <ele>1792</ele>
        <time>2021-08-10 10:33:55</time>
      </trkpt>
      <trkpt lat="42.84025" lon="-0.45927">
        <ele>1792</ele>
        <time>2021-08-10 10:33:56</time>
      </trkpt>
      <trkpt lat="42.84025" lon="-0.45926">
        <ele>1792.2</ele>
        <time>2021-08-10 10:33:57</time>
      </trkpt>
      <trkpt lat="42.84025" lon="-0.45925">
        <ele>1792.4</ele>
        <time>2021-08-10 10:33:58</time>
      </trkpt>
      <trkpt lat="42.84025" lon="-0.45924">
        <ele>1792.2</ele>
        <time>2021-08-10 10:33:59</time>
      </trkpt>
      <trkpt lat="42.84025" lon="-0.45923">
        <ele>1792.6</ele>
        <time>2021-08-10 10:34:00</time>
      </trkpt>
      <trkpt lat="42.84025" lon="-0.45922">
        <ele>1793</ele>
        <time>2021-08-10 10:34:01</time>
      </trkpt>
      <trkpt lat="42.84025" lon="-0.45922">
        <ele>1792.8</ele>
        <time>2021-08-10 10:34:02</time>
      </trkpt>
      <trkpt lat="42.84024" lon="-0.45921">
        <ele>1793.4</ele>
        <time>2021-08-10 10:34:03</time>
      </trkpt>
      <trkpt lat="42.84024" lon="-0.4592">
        <ele>1793.4</ele>
        <time>2021-08-10 10:34:04</time>
      </trkpt>
      <trkpt lat="42.84024" lon="-0.45919">
        <ele>1793.8</ele>
        <time>2021-08-10 10:34:05</time>
      </trkpt>
      <trkpt lat="42.84024" lon="-0.45918">
        <ele>1793.4</ele>
        <time>2021-08-10 10:34:06</time>
      </trkpt>
      <trkpt lat="42.84024" lon="-0.45917">
        <ele>1793.4</ele>
        <time>2021-08-10 10:34:07</time>
      </trkpt>
      <trkpt lat="42.84024" lon="-0.45917">
        <ele>1793.6</ele>
        <time>2021-08-10 10:34:08</time>
      </trkpt>
      <trkpt lat="42.84023" lon="-0.45916">
        <ele>1794</ele>
        <time>2021-08-10 10:34:09</time>
      </trkpt>
      <trkpt lat="42.84024" lon="-0.45915">
        <ele>1794.4</ele>
        <time>2021-08-10 10:34:10</time>
      </trkpt>
      <trkpt lat="42.84023" lon="-0.45914">
        <ele>1794.6</ele>
        <time>2021-08-10 10:34:11</time>
      </trkpt>
      <trkpt lat="42.84024" lon="-0.45914">
        <ele>1794.8</ele>
        <time>2021-08-10 10:34:12</time>
      </trkpt>
      <trkpt lat="42.84024" lon="-0.45913">
        <ele>1794.8</ele>
        <time>2021-08-10 10:34:13</time>
      </trkpt>
      <trkpt lat="42.84024" lon="-0.45913">
        <ele>1794.8</ele>
        <time>2021-08-10 10:34:14</time>
      </trkpt>
      <trkpt lat="42.84024" lon="-0.45912">
        <ele>1795</ele>
        <time>2021-08-10 10:34:16</time>
      </trkpt>
      <trkpt lat="42.84024" lon="-0.45912">
        <ele>1794.8</ele>
        <time>2021-08-10 10:34:17</time>
      </trkpt>
      <trkpt lat="42.84023" lon="-0.45911">
        <ele>1795</ele>
        <time>2021-08-10 10:34:18</time>
      </trkpt>
      <trkpt lat="42.84023" lon="-0.4591">
        <ele>1795</ele>
        <time>2021-08-10 10:34:19</time>
      </trkpt>
      <trkpt lat="42.84023" lon="-0.45909">
        <ele>1795.2</ele>
        <time>2021-08-10 10:34:20</time>
      </trkpt>
      <trkpt lat="42.84022" lon="-0.45909">
        <ele>1795.2</ele>
        <time>2021-08-10 10:34:21</time>
      </trkpt>
      <trkpt lat="42.84022" lon="-0.45908">
        <ele>1795.4</ele>
        <time>2021-08-10 10:34:22</time>
      </trkpt>
      <trkpt lat="42.84022" lon="-0.45908">
        <ele>1795.4</ele>
        <time>2021-08-10 10:34:23</time>
      </trkpt>
      <trkpt lat="42.84022" lon="-0.45907">
        <ele>1795.2</ele>
        <time>2021-08-10 10:34:24</time>
      </trkpt>
      <trkpt lat="42.84022" lon="-0.45907">
        <ele>1795.4</ele>
        <time>2021-08-10 10:34:25</time>
      </trkpt>
      <trkpt lat="42.84022" lon="-0.45906">
        <ele>1795.2</ele>
        <time>2021-08-10 10:34:26</time>
      </trkpt>
      <trkpt lat="42.84022" lon="-0.45905">
        <ele>1795.4</ele>
        <time>2021-08-10 10:34:27</time>
      </trkpt>
      <trkpt lat="42.84022" lon="-0.45904">
        <ele>1795.2</ele>
        <time>2021-08-10 10:34:28</time>
      </trkpt>
      <trkpt lat="42.84022" lon="-0.45903">
        <ele>1795.4</ele>
        <time>2021-08-10 10:34:29</time>
      </trkpt>
      <trkpt lat="42.84022" lon="-0.45902">
        <ele>1795.6</ele>
        <time>2021-08-10 10:34:30</time>
      </trkpt>
      <trkpt lat="42.84022" lon="-0.45901">
        <ele>1796</ele>
        <time>2021-08-10 10:34:31</time>
      </trkpt>
      <trkpt lat="42.84021" lon="-0.45901">
        <ele>1796.4</ele>
        <time>2021-08-10 10:34:53</time>
      </trkpt>
      <trkpt lat="42.84022" lon="-0.45901">
        <ele>1796.4</ele>
        <time>2021-08-10 10:34:54</time>
      </trkpt>
      <trkpt lat="42.84022" lon="-0.45899">
        <ele>1796.6</ele>
        <time>2021-08-10 10:34:55</time>
      </trkpt>
      <trkpt lat="42.84022" lon="-0.45898">
        <ele>1796.8</ele>
        <time>2021-08-10 10:35:13</time>
      </trkpt>
      <trkpt lat="42.84022" lon="-0.45898">
        <ele>1796.8</ele>
        <time>2021-08-10 10:35:14</time>
      </trkpt>
      <trkpt lat="42.84022" lon="-0.45897">
        <ele>1797</ele>
        <time>2021-08-10 10:35:15</time>
      </trkpt>
      <trkpt lat="42.84022" lon="-0.45896">
        <ele>1797</ele>
        <time>2021-08-10 10:35:16</time>
      </trkpt>
      <trkpt lat="42.84022" lon="-0.45895">
        <ele>1797</ele>
        <time>2021-08-10 10:35:17</time>
      </trkpt>
      <trkpt lat="42.84022" lon="-0.45894">
        <ele>1797.2</ele>
        <time>2021-08-10 10:35:18</time>
      </trkpt>
      <trkpt lat="42.84022" lon="-0.45893">
        <ele>1797.6</ele>
        <time>2021-08-10 10:35:19</time>
      </trkpt>
      <trkpt lat="42.84022" lon="-0.45892">
        <ele>1797.8</ele>
        <time>2021-08-10 10:35:20</time>
      </trkpt>
      <trkpt lat="42.84022" lon="-0.45892">
        <ele>1798</ele>
        <time>2021-08-10 10:35:21</time>
      </trkpt>
      <trkpt lat="42.84022" lon="-0.45891">
        <ele>1798</ele>
        <time>2021-08-10 10:35:22</time>
      </trkpt>
      <trkpt lat="42.84022" lon="-0.4589">
        <ele>1798</ele>
        <time>2021-08-10 10:35:23</time>
      </trkpt>
      <trkpt lat="42.84022" lon="-0.45889">
        <ele>1798</ele>
        <time>2021-08-10 10:35:24</time>
      </trkpt>
      <trkpt lat="42.84022" lon="-0.45888">
        <ele>1798.2</ele>
        <time>2021-08-10 10:35:25</time>
      </trkpt>
      <trkpt lat="42.84022" lon="-0.45887">
        <ele>1798.2</ele>
        <time>2021-08-10 10:35:26</time>
      </trkpt>
      <trkpt lat="42.84022" lon="-0.45886">
        <ele>1798</ele>
        <time>2021-08-10 10:35:27</time>
      </trkpt>
      <trkpt lat="42.84022" lon="-0.45886">
        <ele>1797.8</ele>
        <time>2021-08-10 10:35:28</time>
      </trkpt>
      <trkpt lat="42.84022" lon="-0.45885">
        <ele>1797.8</ele>
        <time>2021-08-10 10:35:29</time>
      </trkpt>
      <trkpt lat="42.84021" lon="-0.45884">
        <ele>1798</ele>
        <time>2021-08-10 10:35:30</time>
      </trkpt>
      <trkpt lat="42.84021" lon="-0.45883">
        <ele>1798.4</ele>
        <time>2021-08-10 10:35:31</time>
      </trkpt>
      <trkpt lat="42.84021" lon="-0.45882">
        <ele>1798.8</ele>
        <time>2021-08-10 10:35:32</time>
      </trkpt>
      <trkpt lat="42.84021" lon="-0.45881">
        <ele>1799</ele>
        <time>2021-08-10 10:35:33</time>
      </trkpt>
      <trkpt lat="42.84021" lon="-0.45881">
        <ele>1798.8</ele>
        <time>2021-08-10 10:35:34</time>
      </trkpt>
      <trkpt lat="42.84021" lon="-0.45881">
        <ele>1799.2</ele>
        <time>2021-08-10 10:35:35</time>
      </trkpt>
      <trkpt lat="42.84021" lon="-0.4588">
        <ele>1799.2</ele>
        <time>2021-08-10 10:35:36</time>
      </trkpt>
      <trkpt lat="42.84021" lon="-0.45879">
        <ele>1799.4</ele>
        <time>2021-08-10 10:35:37</time>
      </trkpt>
      <trkpt lat="42.84022" lon="-0.45879">
        <ele>1799.6</ele>
        <time>2021-08-10 10:35:38</time>
      </trkpt>
      <trkpt lat="42.84022" lon="-0.45878">
        <ele>1799.8</ele>
        <time>2021-08-10 10:35:39</time>
      </trkpt>
      <trkpt lat="42.84022" lon="-0.45877">
        <ele>1799.8</ele>
        <time>2021-08-10 10:35:40</time>
      </trkpt>
      <trkpt lat="42.84022" lon="-0.45876">
        <ele>1799.8</ele>
        <time>2021-08-10 10:35:41</time>
      </trkpt>
      <trkpt lat="42.84022" lon="-0.45875">
        <ele>1799.6</ele>
        <time>2021-08-10 10:35:42</time>
      </trkpt>
      <trkpt lat="42.84022" lon="-0.45875">
        <ele>1799.6</ele>
        <time>2021-08-10 10:35:43</time>
      </trkpt>
      <trkpt lat="42.84022" lon="-0.45874">
        <ele>1800</ele>
        <time>2021-08-10 10:35:44</time>
      </trkpt>
      <trkpt lat="42.84021" lon="-0.45874">
        <ele>1800.2</ele>
        <time>2021-08-10 10:35:45</time>
      </trkpt>
      <trkpt lat="42.84021" lon="-0.45873">
        <ele>1800.4</ele>
        <time>2021-08-10 10:35:46</time>
      </trkpt>
      <trkpt lat="42.84021" lon="-0.45872">
        <ele>1800.2</ele>
        <time>2021-08-10 10:35:47</time>
      </trkpt>
      <trkpt lat="42.8402" lon="-0.45872">
        <ele>1800.4</ele>
        <time>2021-08-10 10:35:48</time>
      </trkpt>
      <trkpt lat="42.8402" lon="-0.45871">
        <ele>1800.4</ele>
        <time>2021-08-10 10:35:49</time>
      </trkpt>
      <trkpt lat="42.84019" lon="-0.4587">
        <ele>1800.6</ele>
        <time>2021-08-10 10:35:50</time>
      </trkpt>
      <trkpt lat="42.84019" lon="-0.4587">
        <ele>1801</ele>
        <time>2021-08-10 10:35:51</time>
      </trkpt>
      <trkpt lat="42.84019" lon="-0.45869">
        <ele>1801.2</ele>
        <time>2021-08-10 10:35:52</time>
      </trkpt>
      <trkpt lat="42.84018" lon="-0.45869">
        <ele>1801.2</ele>
        <time>2021-08-10 10:35:53</time>
      </trkpt>
      <trkpt lat="42.84018" lon="-0.45868">
        <ele>1801.4</ele>
        <time>2021-08-10 10:35:54</time>
      </trkpt>
      <trkpt lat="42.84018" lon="-0.45867">
        <ele>1801.4</ele>
        <time>2021-08-10 10:35:55</time>
      </trkpt>
      <trkpt lat="42.84017" lon="-0.45867">
        <ele>1801.8</ele>
        <time>2021-08-10 10:35:56</time>
      </trkpt>
      <trkpt lat="42.84017" lon="-0.45866">
        <ele>1802</ele>
        <time>2021-08-10 10:35:57</time>
      </trkpt>
      <trkpt lat="42.84017" lon="-0.45866">
        <ele>1802.2</ele>
        <time>2021-08-10 10:35:58</time>
      </trkpt>
      <trkpt lat="42.84016" lon="-0.45865">
        <ele>1802.4</ele>
        <time>2021-08-10 10:35:59</time>
      </trkpt>
      <trkpt lat="42.84016" lon="-0.45865">
        <ele>1802.6</ele>
        <time>2021-08-10 10:36:00</time>
      </trkpt>
      <trkpt lat="42.84016" lon="-0.45864">
        <ele>1802.6</ele>
        <time>2021-08-10 10:36:01</time>
      </trkpt>
      <trkpt lat="42.84015" lon="-0.45863">
        <ele>1802.8</ele>
        <time>2021-08-10 10:36:02</time>
      </trkpt>
      <trkpt lat="42.84015" lon="-0.45862">
        <ele>1803</ele>
        <time>2021-08-10 10:36:03</time>
      </trkpt>
      <trkpt lat="42.84014" lon="-0.45862">
        <ele>1803</ele>
        <time>2021-08-10 10:36:04</time>
      </trkpt>
      <trkpt lat="42.84014" lon="-0.45861">
        <ele>1803.2</ele>
        <time>2021-08-10 10:36:05</time>
      </trkpt>
      <trkpt lat="42.84014" lon="-0.4586">
        <ele>1803.4</ele>
        <time>2021-08-10 10:36:06</time>
      </trkpt>
      <trkpt lat="42.84014" lon="-0.4586">
        <ele>1803.6</ele>
        <time>2021-08-10 10:36:07</time>
      </trkpt>
      <trkpt lat="42.84014" lon="-0.4586">
        <ele>1803.4</ele>
        <time>2021-08-10 10:36:08</time>
      </trkpt>
      <trkpt lat="42.84013" lon="-0.4586">
        <ele>1803.8</ele>
        <time>2021-08-10 10:36:09</time>
      </trkpt>
      <trkpt lat="42.84013" lon="-0.45859">
        <ele>1803.8</ele>
        <time>2021-08-10 10:36:10</time>
      </trkpt>
      <trkpt lat="42.84013" lon="-0.45858">
        <ele>1803.2</ele>
        <time>2021-08-10 10:36:11</time>
      </trkpt>
      <trkpt lat="42.84012" lon="-0.45857">
        <ele>1803.2</ele>
        <time>2021-08-10 10:36:12</time>
      </trkpt>
      <trkpt lat="42.84012" lon="-0.45856">
        <ele>1803.4</ele>
        <time>2021-08-10 10:36:13</time>
      </trkpt>
      <trkpt lat="42.84011" lon="-0.45856">
        <ele>1803.4</ele>
        <time>2021-08-10 10:36:14</time>
      </trkpt>
      <trkpt lat="42.84011" lon="-0.45855">
        <ele>1803.4</ele>
        <time>2021-08-10 10:36:15</time>
      </trkpt>
      <trkpt lat="42.8401" lon="-0.45855">
        <ele>1803.6</ele>
        <time>2021-08-10 10:36:16</time>
      </trkpt>
      <trkpt lat="42.8401" lon="-0.45855">
        <ele>1803.4</ele>
        <time>2021-08-10 10:36:17</time>
      </trkpt>
      <trkpt lat="42.8401" lon="-0.45855">
        <ele>1803.2</ele>
        <time>2021-08-10 10:36:18</time>
      </trkpt>
      <trkpt lat="42.84009" lon="-0.45854">
        <ele>1803.4</ele>
        <time>2021-08-10 10:36:19</time>
      </trkpt>
      <trkpt lat="42.84008" lon="-0.45853">
        <ele>1803.4</ele>
        <time>2021-08-10 10:36:20</time>
      </trkpt>
      <trkpt lat="42.84008" lon="-0.45853">
        <ele>1803.6</ele>
        <time>2021-08-10 10:36:21</time>
      </trkpt>
      <trkpt lat="42.84007" lon="-0.45853">
        <ele>1803.8</ele>
        <time>2021-08-10 10:36:22</time>
      </trkpt>
      <trkpt lat="42.84007" lon="-0.45852">
        <ele>1804</ele>
        <time>2021-08-10 10:36:23</time>
      </trkpt>
      <trkpt lat="42.84007" lon="-0.45852">
        <ele>1804</ele>
        <time>2021-08-10 10:36:24</time>
      </trkpt>
      <trkpt lat="42.84006" lon="-0.45851">
        <ele>1804.2</ele>
        <time>2021-08-10 10:36:25</time>
      </trkpt>
      <trkpt lat="42.84006" lon="-0.4585">
        <ele>1804.4</ele>
        <time>2021-08-10 10:36:26</time>
      </trkpt>
      <trkpt lat="42.84006" lon="-0.45849">
        <ele>1804.8</ele>
        <time>2021-08-10 10:36:27</time>
      </trkpt>
      <trkpt lat="42.84006" lon="-0.45849">
        <ele>1804.8</ele>
        <time>2021-08-10 10:36:28</time>
      </trkpt>
      <trkpt lat="42.84005" lon="-0.45848">
        <ele>1804.8</ele>
        <time>2021-08-10 10:36:29</time>
      </trkpt>
      <trkpt lat="42.84005" lon="-0.45848">
        <ele>1805</ele>
        <time>2021-08-10 10:36:30</time>
      </trkpt>
      <trkpt lat="42.84004" lon="-0.45848">
        <ele>1805.2</ele>
        <time>2021-08-10 10:36:31</time>
      </trkpt>
      <trkpt lat="42.84004" lon="-0.45847">
        <ele>1805.4</ele>
        <time>2021-08-10 10:36:32</time>
      </trkpt>
      <trkpt lat="42.84003" lon="-0.45847">
        <ele>1805.6</ele>
        <time>2021-08-10 10:36:33</time>
      </trkpt>
      <trkpt lat="42.84002" lon="-0.45847">
        <ele>1805.6</ele>
        <time>2021-08-10 10:36:34</time>
      </trkpt>
      <trkpt lat="42.84002" lon="-0.45847">
        <ele>1805.8</ele>
        <time>2021-08-10 10:36:35</time>
      </trkpt>
      <trkpt lat="42.84001" lon="-0.45847">
        <ele>1806</ele>
        <time>2021-08-10 10:36:36</time>
      </trkpt>
      <trkpt lat="42.84001" lon="-0.45846">
        <ele>1806</ele>
        <time>2021-08-10 10:36:37</time>
      </trkpt>
      <trkpt lat="42.84" lon="-0.45846">
        <ele>1806</ele>
        <time>2021-08-10 10:36:38</time>
      </trkpt>
      <trkpt lat="42.84" lon="-0.45845">
        <ele>1806.2</ele>
        <time>2021-08-10 10:36:39</time>
      </trkpt>
      <trkpt lat="42.83999" lon="-0.45845">
        <ele>1806.4</ele>
        <time>2021-08-10 10:36:40</time>
      </trkpt>
      <trkpt lat="42.83999" lon="-0.45844">
        <ele>1806.6</ele>
        <time>2021-08-10 10:36:41</time>
      </trkpt>
      <trkpt lat="42.83998" lon="-0.45844">
        <ele>1806.8</ele>
        <time>2021-08-10 10:36:42</time>
      </trkpt>
      <trkpt lat="42.83998" lon="-0.45843">
        <ele>1806.8</ele>
        <time>2021-08-10 10:36:43</time>
      </trkpt>
      <trkpt lat="42.83998" lon="-0.45842">
        <ele>1806.6</ele>
        <time>2021-08-10 10:36:44</time>
      </trkpt>
      <trkpt lat="42.83997" lon="-0.45842">
        <ele>1806.6</ele>
        <time>2021-08-10 10:36:45</time>
      </trkpt>
      <trkpt lat="42.83997" lon="-0.45841">
        <ele>1806.8</ele>
        <time>2021-08-10 10:36:46</time>
      </trkpt>
      <trkpt lat="42.83996" lon="-0.4584">
        <ele>1806.8</ele>
      </trkpt>
      <trkpt lat="42.83996" lon="-0.4584">
        <ele>1806.8</ele>
        <time>2021-08-10 10:36:47</time>
      </trkpt>
      <trkpt lat="42.83995" lon="-0.45839">
        <ele>1806.8</ele>
        <time>2021-08-10 10:36:48</time>
      </trkpt>
      <trkpt lat="42.83995" lon="-0.45838">
        <ele>1807</ele>
        <time>2021-08-10 10:36:49</time>
      </trkpt>
      <trkpt lat="42.83994" lon="-0.45838">
        <ele>1807</ele>
        <time>2021-08-10 10:36:50</time>
      </trkpt>
      <trkpt lat="42.83993" lon="-0.45837">
        <ele>1807.4</ele>
        <time>2021-08-10 10:36:51</time>
      </trkpt>
      <trkpt lat="42.83993" lon="-0.45837">
        <ele>1807.4</ele>
        <time>2021-08-10 10:36:52</time>
      </trkpt>
      <trkpt lat="42.83993" lon="-0.45836">
        <ele>1807.6</ele>
        <time>2021-08-10 10:36:53</time>
      </trkpt>
      <trkpt lat="42.83992" lon="-0.45836">
        <ele>1807.8</ele>
        <time>2021-08-10 10:36:54</time>
      </trkpt>
      <trkpt lat="42.83992" lon="-0.45835">
        <ele>1808.2</ele>
        <time>2021-08-10 10:36:55</time>
      </trkpt>
      <trkpt lat="42.83991" lon="-0.45835">
        <ele>1808.4</ele>
        <time>2021-08-10 10:36:56</time>
      </trkpt>
      <trkpt lat="42.83991" lon="-0.45834">
        <ele>1808.2</ele>
        <time>2021-08-10 10:36:57</time>
      </trkpt>
      <trkpt lat="42.83991" lon="-0.45834">
        <ele>1808.2</ele>
        <time>2021-08-10 10:36:58</time>
      </trkpt>
      <trkpt lat="42.8399" lon="-0.45833">
        <ele>1808.4</ele>
        <time>2021-08-10 10:36:59</time>
      </trkpt>
      <trkpt lat="42.8399" lon="-0.45833">
        <ele>1809</ele>
        <time>2021-08-10 10:37:00</time>
      </trkpt>
      <trkpt lat="42.83989" lon="-0.45832">
        <ele>1809</ele>
        <time>2021-08-10 10:37:01</time>
      </trkpt>
      <trkpt lat="42.83989" lon="-0.45831">
        <ele>1809.4</ele>
        <time>2021-08-10 10:37:02</time>
      </trkpt>
      <trkpt lat="42.83988" lon="-0.45831">
        <ele>1809.4</ele>
        <time>2021-08-10 10:37:04</time>
      </trkpt>
      <trkpt lat="42.83988" lon="-0.4583">
        <ele>1809.6</ele>
      </trkpt>
      <trkpt lat="42.83987" lon="-0.4583">
        <ele>1809.4</ele>
        <time>2021-08-10 10:37:05</time>
      </trkpt>
      <trkpt lat="42.83987" lon="-0.45829">
        <ele>1809.6</ele>
        <time>2021-08-10 10:37:06</time>
      </trkpt>
      <trkpt lat="42.83987" lon="-0.45829">
        <ele>1809.8</ele>
        <time>2021-08-10 10:37:07</time>
      </trkpt>
      <trkpt lat="42.83986" lon="-0.45828">
        <ele>1810</ele>
        <time>2021-08-10 10:37:08</time>
      </trkpt>
      <trkpt lat="42.83986" lon="-0.45827">
        <ele>1810.4</ele>
        <time>2021-08-10 10:37:09</time>
      </trkpt>
      <trkpt lat="42.83986" lon="-0.45827">
        <ele>1810.6</ele>
        <time>2021-08-10 10:37:10</time>
      </trkpt>
      <trkpt lat="42.83986" lon="-0.45826">
        <ele>1810.8</ele>
        <time>2021-08-10 10:37:11</time>
      </trkpt>
      <trkpt lat="42.83986" lon="-0.45825">
        <ele>1810.8</ele>
        <time>2021-08-10 10:37:12</time>
      </trkpt>
      <trkpt lat="42.83986" lon="-0.45824">
        <ele>1810.8</ele>
        <time>2021-08-10 10:37:13</time>
      </trkpt>
      <trkpt lat="42.83987" lon="-0.45823">
        <ele>1810.8</ele>
        <time>2021-08-10 10:37:14</time>
      </trkpt>
      <trkpt lat="42.83987" lon="-0.45823">
        <ele>1810.8</ele>
        <time>2021-08-10 10:37:16</time>
      </trkpt>
      <trkpt lat="42.83987" lon="-0.45822">
        <ele>1810.8</ele>
        <time>2021-08-10 10:37:17</time>
      </trkpt>
      <trkpt lat="42.83988" lon="-0.45822">
        <ele>1810.8</ele>
        <time>2021-08-10 10:37:18</time>
      </trkpt>
      <trkpt lat="42.83989" lon="-0.45821">
        <ele>1811.2</ele>
        <time>2021-08-10 10:37:19</time>
      </trkpt>
      <trkpt lat="42.83989" lon="-0.45821">
        <ele>1811.2</ele>
        <time>2021-08-10 10:37:20</time>
      </trkpt>
      <trkpt lat="42.8399" lon="-0.4582">
        <ele>1811.4</ele>
        <time>2021-08-10 10:37:21</time>
      </trkpt>
      <trkpt lat="42.8399" lon="-0.45819">
        <ele>1811.4</ele>
        <time>2021-08-10 10:37:22</time>
      </trkpt>
      <trkpt lat="42.8399" lon="-0.45818">
        <ele>1811.6</ele>
        <time>2021-08-10 10:37:23</time>
      </trkpt>
      <trkpt lat="42.83991" lon="-0.45818">
        <ele>1811.6</ele>
        <time>2021-08-10 10:37:24</time>
      </trkpt>
      <trkpt lat="42.83991" lon="-0.45817">
        <ele>1811.8</ele>
        <time>2021-08-10 10:37:25</time>
      </trkpt>
      <trkpt lat="42.83991" lon="-0.45817">
        <ele>1811.8</ele>
        <time>2021-08-10 10:37:26</time>
      </trkpt>
      <trkpt lat="42.83992" lon="-0.45816">
        <ele>1811.8</ele>
        <time>2021-08-10 10:37:27</time>
      </trkpt>
      <trkpt lat="42.83992" lon="-0.45816">
        <ele>1812.2</ele>
        <time>2021-08-10 10:37:28</time>
      </trkpt>
      <trkpt lat="42.83993" lon="-0.45815">
        <ele>1812.4</ele>
        <time>2021-08-10 10:37:29</time>
      </trkpt>
      <trkpt lat="42.83993" lon="-0.45815">
        <ele>1812.4</ele>
        <time>2021-08-10 10:37:30</time>
      </trkpt>
      <trkpt lat="42.83993" lon="-0.45814">
        <ele>1812.6</ele>
        <time>2021-08-10 10:37:31</time>
      </trkpt>
      <trkpt lat="42.83994" lon="-0.45815">
        <ele>1812.4</ele>
        <time>2021-08-10 10:37:32</time>
      </trkpt>
      <trkpt lat="42.83995" lon="-0.45815">
        <ele>1812.4</ele>
        <time>2021-08-10 10:37:33</time>
      </trkpt>
      <trkpt lat="42.83995" lon="-0.45815">
        <ele>1812.4</ele>
        <time>2021-08-10 10:37:34</time>
      </trkpt>
      <trkpt lat="42.83995" lon="-0.45814">
        <ele>1812.4</ele>
        <time>2021-08-10 10:37:35</time>
      </trkpt>
      <trkpt lat="42.83995" lon="-0.45814">
        <ele>1812.4</ele>
        <time>2021-08-10 10:37:36</time>
      </trkpt>
      <trkpt lat="42.83995" lon="-0.45813">
        <ele>1812.4</ele>
        <time>2021-08-10 10:37:37</time>
      </trkpt>
      <trkpt lat="42.83996" lon="-0.45813">
        <ele>1812.6</ele>
        <time>2021-08-10 10:37:38</time>
      </trkpt>
      <trkpt lat="42.83996" lon="-0.45813">
        <ele>1812.8</ele>
        <time>2021-08-10 10:37:39</time>
      </trkpt>
      <trkpt lat="42.83997" lon="-0.45812">
        <ele>1813</ele>
        <time>2021-08-10 10:37:40</time>
      </trkpt>
      <trkpt lat="42.83998" lon="-0.45812">
        <ele>1813.2</ele>
        <time>2021-08-10 10:37:41</time>
      </trkpt>
      <trkpt lat="42.83998" lon="-0.45812">
        <ele>1813.2</ele>
        <time>2021-08-10 10:37:42</time>
      </trkpt>
      <trkpt lat="42.83998" lon="-0.45811">
        <ele>1813.4</ele>
        <time>2021-08-10 10:37:43</time>
      </trkpt>
      <trkpt lat="42.83998" lon="-0.4581">
        <ele>1813.4</ele>
        <time>2021-08-10 10:37:44</time>
      </trkpt>
      <trkpt lat="42.83999" lon="-0.45809">
        <ele>1813.6</ele>
        <time>2021-08-10 10:37:45</time>
      </trkpt>
      <trkpt lat="42.84" lon="-0.45809">
        <ele>1813.8</ele>
        <time>2021-08-10 10:37:46</time>
      </trkpt>
      <trkpt lat="42.84" lon="-0.45809">
        <ele>1813.6</ele>
        <time>2021-08-10 10:37:47</time>
      </trkpt>
      <trkpt lat="42.84" lon="-0.45808">
        <ele>1813.8</ele>
        <time>2021-08-10 10:37:48</time>
      </trkpt>
      <trkpt lat="42.84001" lon="-0.45808">
        <ele>1814</ele>
        <time>2021-08-10 10:37:49</time>
      </trkpt>
      <trkpt lat="42.84001" lon="-0.45808">
        <ele>1814.2</ele>
        <time>2021-08-10 10:37:50</time>
      </trkpt>
      <trkpt lat="42.84001" lon="-0.45808">
        <ele>1814.4</ele>
        <time>2021-08-10 10:37:51</time>
      </trkpt>
      <trkpt lat="42.84002" lon="-0.45807">
        <ele>1814.4</ele>
        <time>2021-08-10 10:37:52</time>
      </trkpt>
      <trkpt lat="42.84003" lon="-0.45807">
        <ele>1814.4</ele>
        <time>2021-08-10 10:37:53</time>
      </trkpt>
      <trkpt lat="42.84003" lon="-0.45807">
        <ele>1814.6</ele>
        <time>2021-08-10 10:37:54</time>
      </trkpt>
      <trkpt lat="42.84004" lon="-0.45806">
        <ele>1814.6</ele>
        <time>2021-08-10 10:37:55</time>
      </trkpt>
      <trkpt lat="42.84004" lon="-0.45806">
        <ele>1814.4</ele>
        <time>2021-08-10 10:37:56</time>
      </trkpt>
      <trkpt lat="42.84005" lon="-0.45806">
        <ele>1814.4</ele>
        <time>2021-08-10 10:37:57</time>
      </trkpt>
      <trkpt lat="42.84005" lon="-0.45806">
        <ele>1814.6</ele>
        <time>2021-08-10 10:37:58</time>
      </trkpt>
      <trkpt lat="42.84006" lon="-0.45807">
        <ele>1814.6</ele>
        <time>2021-08-10 10:37:59</time>
      </trkpt>
      <trkpt lat="42.84006" lon="-0.45807">
        <ele>1815.2</ele>
        <time>2021-08-10 10:38:00</time>
      </trkpt>
      <trkpt lat="42.84007" lon="-0.45806">
        <ele>1815.4</ele>
        <time>2021-08-10 10:38:01</time>
      </trkpt>
      <trkpt lat="42.84007" lon="-0.45806">
        <ele>1815.4</ele>
        <time>2021-08-10 10:38:02</time>
      </trkpt>
      <trkpt lat="42.84007" lon="-0.45806">
        <ele>1815.2</ele>
        <time>2021-08-10 10:38:03</time>
      </trkpt>
      <trkpt lat="42.84008" lon="-0.45806">
        <ele>1815.4</ele>
        <time>2021-08-10 10:38:04</time>
      </trkpt>
      <trkpt lat="42.84009" lon="-0.45806">
        <ele>1815.4</ele>
        <time>2021-08-10 10:38:05</time>
      </trkpt>
      <trkpt lat="42.84009" lon="-0.45805">
        <ele>1815.6</ele>
        <time>2021-08-10 10:38:06</time>
      </trkpt>
      <trkpt lat="42.8401" lon="-0.45806">
        <ele>1815.6</ele>
        <time>2021-08-10 10:38:07</time>
      </trkpt>
      <trkpt lat="42.84011" lon="-0.45806">
        <ele>1815.8</ele>
        <time>2021-08-10 10:38:08</time>
      </trkpt>
      <trkpt lat="42.84011" lon="-0.45805">
        <ele>1815.8</ele>
        <time>2021-08-10 10:38:09</time>
      </trkpt>
      <trkpt lat="42.84012" lon="-0.45805">
        <ele>1816.2</ele>
        <time>2021-08-10 10:38:10</time>
      </trkpt>
      <trkpt lat="42.84012" lon="-0.45805">
        <ele>1816.2</ele>
        <time>2021-08-10 10:38:11</time>
      </trkpt>
      <trkpt lat="42.84013" lon="-0.45805">
        <ele>1816.4</ele>
        <time>2021-08-10 10:38:12</time>
      </trkpt>
      <trkpt lat="42.84013" lon="-0.45805">
        <ele>1816.4</ele>
        <time>2021-08-10 10:38:13</time>
      </trkpt>
      <trkpt lat="42.84014" lon="-0.45805">
        <ele>1816.4</ele>
        <time>2021-08-10 10:38:14</time>
      </trkpt>
      <trkpt lat="42.84015" lon="-0.45805">
        <ele>1816.4</ele>
        <time>2021-08-10 10:38:15</time>
      </trkpt>
      <trkpt lat="42.84015" lon="-0.45805">
        <ele>1816.6</ele>
        <time>2021-08-10 10:38:16</time>
      </trkpt>
      <trkpt lat="42.84016" lon="-0.45805">
        <ele>1816.4</ele>
        <time>2021-08-10 10:38:17</time>
      </trkpt>
      <trkpt lat="42.84017" lon="-0.45805">
        <ele>1816.6</ele>
        <time>2021-08-10 10:38:18</time>
      </trkpt>
      <trkpt lat="42.84017" lon="-0.45806">
        <ele>1816.8</ele>
        <time>2021-08-10 10:38:19</time>
      </trkpt>
      <trkpt lat="42.84018" lon="-0.45806">
        <ele>1817</ele>
        <time>2021-08-10 10:38:20</time>
      </trkpt>
      <trkpt lat="42.84018" lon="-0.45806">
        <ele>1817</ele>
        <time>2021-08-10 10:38:21</time>
      </trkpt>
      <trkpt lat="42.84019" lon="-0.45806">
        <ele>1817.2</ele>
        <time>2021-08-10 10:38:22</time>
      </trkpt>
      <trkpt lat="42.84019" lon="-0.45806">
        <ele>1817.4</ele>
        <time>2021-08-10 10:38:23</time>
      </trkpt>
      <trkpt lat="42.8402" lon="-0.45806">
        <ele>1817.4</ele>
        <time>2021-08-10 10:38:24</time>
      </trkpt>
      <trkpt lat="42.84021" lon="-0.45806">
        <ele>1817.4</ele>
        <time>2021-08-10 10:38:25</time>
      </trkpt>
      <trkpt lat="42.84021" lon="-0.45806">
        <ele>1817.6</ele>
        <time>2021-08-10 10:38:26</time>
      </trkpt>
      <trkpt lat="42.84022" lon="-0.45806">
        <ele>1817.8</ele>
        <time>2021-08-10 10:38:27</time>
      </trkpt>
      <trkpt lat="42.84022" lon="-0.45806">
        <ele>1818</ele>
        <time>2021-08-10 10:38:28</time>
      </trkpt>
      <trkpt lat="42.84023" lon="-0.45806">
        <ele>1818</ele>
        <time>2021-08-10 10:38:29</time>
      </trkpt>
      <trkpt lat="42.84023" lon="-0.45806">
        <ele>1818</ele>
        <time>2021-08-10 10:38:30</time>
      </trkpt>
      <trkpt lat="42.84024" lon="-0.45806">
        <ele>1818</ele>
        <time>2021-08-10 10:38:31</time>
      </trkpt>
      <trkpt lat="42.84024" lon="-0.45805">
        <ele>1817.8</ele>
        <time>2021-08-10 10:38:32</time>
      </trkpt>
      <trkpt lat="42.84024" lon="-0.45805">
        <ele>1817.8</ele>
        <time>2021-08-10 10:38:33</time>
      </trkpt>
      <trkpt lat="42.84025" lon="-0.45804">
        <ele>1817.8</ele>
        <time>2021-08-10 10:38:34</time>
      </trkpt>
      <trkpt lat="42.84024" lon="-0.45803">
        <ele>1818</ele>
        <time>2021-08-10 10:38:35</time>
      </trkpt>
      <trkpt lat="42.84023" lon="-0.45803">
        <ele>1818</ele>
        <time>2021-08-10 10:38:36</time>
      </trkpt>
      <trkpt lat="42.84022" lon="-0.45802">
        <ele>1818.2</ele>
        <time>2021-08-10 10:38:37</time>
      </trkpt>
      <trkpt lat="42.84021" lon="-0.45802">
        <ele>1818.4</ele>
        <time>2021-08-10 10:38:38</time>
      </trkpt>
      <trkpt lat="42.84021" lon="-0.45802">
        <ele>1818.4</ele>
        <time>2021-08-10 10:38:44</time>
      </trkpt>
      <trkpt lat="42.84021" lon="-0.45802">
        <ele>1818.6</ele>
        <time>2021-08-10 10:38:45</time>
      </trkpt>
      <trkpt lat="42.8402" lon="-0.45802">
        <ele>1818.8</ele>
        <time>2021-08-10 10:38:46</time>
      </trkpt>
      <trkpt lat="42.84019" lon="-0.45802">
        <ele>1818.8</ele>
        <time>2021-08-10 10:38:47</time>
      </trkpt>
      <trkpt lat="42.84018" lon="-0.45801">
        <ele>1818.8</ele>
        <time>2021-08-10 10:38:48</time>
      </trkpt>
      <trkpt lat="42.84017" lon="-0.45801">
        <ele>1818.8</ele>
        <time>2021-08-10 10:38:49</time>
      </trkpt>
      <trkpt lat="42.84017" lon="-0.45801">
        <ele>1819</ele>
        <time>2021-08-10 10:38:50</time>
      </trkpt>
      <trkpt lat="42.84016" lon="-0.45801">
        <ele>1819.2</ele>
        <time>2021-08-10 10:38:51</time>
      </trkpt>
      <trkpt lat="42.84016" lon="-0.45801">
        <ele>1819</ele>
        <time>2021-08-10 10:38:52</time>
      </trkpt>
      <trkpt lat="42.84015" lon="-0.45801">
        <ele>1819.4</ele>
        <time>2021-08-10 10:38:53</time>
      </trkpt>
      <trkpt lat="42.84014" lon="-0.458">
        <ele>1819.4</ele>
        <time>2021-08-10 10:38:54</time>
      </trkpt>
      <trkpt lat="42.84014" lon="-0.45799">
        <ele>1819.4</ele>
        <time>2021-08-10 10:38:55</time>
      </trkpt>
      <trkpt lat="42.84014" lon="-0.45798">
        <ele>1819.4</ele>
        <time>2021-08-10 10:38:56</time>
      </trkpt>
      <trkpt lat="42.84013" lon="-0.45798">
        <ele>1819.4</ele>
        <time>2021-08-10 10:38:57</time>
      </trkpt>
      <trkpt lat="42.84013" lon="-0.45798">
        <ele>1819.6</ele>
        <time>2021-08-10 10:38:58</time>
      </trkpt>
      <trkpt lat="42.84013" lon="-0.45797">
        <ele>1820</ele>
        <time>2021-08-10 10:38:59</time>
      </trkpt>
      <trkpt lat="42.84012" lon="-0.45797">
        <ele>1819.8</ele>
        <time>2021-08-10 10:39:00</time>
      </trkpt>
      <trkpt lat="42.84012" lon="-0.45796">
        <ele>1819.8</ele>
        <time>2021-08-10 10:39:01</time>
      </trkpt>
      <trkpt lat="42.84012" lon="-0.45796">
        <ele>1820</ele>
        <time>2021-08-10 10:39:02</time>
      </trkpt>
      <trkpt lat="42.84011" lon="-0.45795">
        <ele>1820.2</ele>
        <time>2021-08-10 10:39:03</time>
      </trkpt>
      <trkpt lat="42.84011" lon="-0.45794">
        <ele>1820.4</ele>
        <time>2021-08-10 10:39:04</time>
      </trkpt>
      <trkpt lat="42.84011" lon="-0.45793">
        <ele>1820.8</ele>
        <time>2021-08-10 10:39:05</time>
      </trkpt>
      <trkpt lat="42.8401" lon="-0.45793">
        <ele>1820.8</ele>
        <time>2021-08-10 10:39:06</time>
      </trkpt>
      <trkpt lat="42.8401" lon="-0.45792">
        <ele>1821.2</ele>
        <time>2021-08-10 10:39:07</time>
      </trkpt>
      <trkpt lat="42.84009" lon="-0.45792">
        <ele>1821.4</ele>
        <time>2021-08-10 10:39:08</time>
      </trkpt>
      <trkpt lat="42.84009" lon="-0.45792">
        <ele>1821.6</ele>
        <time>2021-08-10 10:39:09</time>
      </trkpt>
      <trkpt lat="42.84008" lon="-0.45791">
        <ele>1821.6</ele>
        <time>2021-08-10 10:39:10</time>
      </trkpt>
      <trkpt lat="42.84007" lon="-0.45791">
        <ele>1821.6</ele>
        <time>2021-08-10 10:39:11</time>
      </trkpt>
      <trkpt lat="42.84007" lon="-0.4579">
        <ele>1821.8</ele>
        <time>2021-08-10 10:39:12</time>
      </trkpt>
      <trkpt lat="42.84006" lon="-0.45789">
        <ele>1821.8</ele>
        <time>2021-08-10 10:39:13</time>
      </trkpt>
      <trkpt lat="42.84006" lon="-0.45789">
        <ele>1822.2</ele>
        <time>2021-08-10 10:39:14</time>
      </trkpt>
      <trkpt lat="42.84005" lon="-0.45788">
        <ele>1822.6</ele>
        <time>2021-08-10 10:39:15</time>
      </trkpt>
      <trkpt lat="42.84004" lon="-0.45788">
        <ele>1822.4</ele>
        <time>2021-08-10 10:39:16</time>
      </trkpt>
      <trkpt lat="42.84004" lon="-0.45788">
        <ele>1822.6</ele>
        <time>2021-08-10 10:39:17</time>
      </trkpt>
      <trkpt lat="42.84003" lon="-0.45787">
        <ele>1822.8</ele>
        <time>2021-08-10 10:39:18</time>
      </trkpt>
      <trkpt lat="42.84003" lon="-0.45787">
        <ele>1822.8</ele>
        <time>2021-08-10 10:39:19</time>
      </trkpt>
      <trkpt lat="42.84003" lon="-0.45785">
        <ele>1823</ele>
        <time>2021-08-10 10:39:20</time>
      </trkpt>
      <trkpt lat="42.84002" lon="-0.45785">
        <ele>1823</ele>
        <time>2021-08-10 10:39:21</time>
      </trkpt>
      <trkpt lat="42.84002" lon="-0.45784">
        <ele>1823</ele>
        <time>2021-08-10 10:39:22</time>
      </trkpt>
      <trkpt lat="42.84002" lon="-0.45783">
        <ele>1823.2</ele>
        <time>2021-08-10 10:39:23</time>
      </trkpt>
      <trkpt lat="42.84001" lon="-0.45783">
        <ele>1823.2</ele>
        <time>2021-08-10 10:39:24</time>
      </trkpt>
      <trkpt lat="42.84" lon="-0.45782">
        <ele>1823.4</ele>
        <time>2021-08-10 10:39:25</time>
      </trkpt>
      <trkpt lat="42.84" lon="-0.45782">
        <ele>1823.6</ele>
        <time>2021-08-10 10:39:26</time>
      </trkpt>
      <trkpt lat="42.83999" lon="-0.45781">
        <ele>1823.6</ele>
        <time>2021-08-10 10:39:27</time>
      </trkpt>
      <trkpt lat="42.83999" lon="-0.45781">
        <ele>1823.6</ele>
        <time>2021-08-10 10:39:28</time>
      </trkpt>
      <trkpt lat="42.83998" lon="-0.4578">
        <ele>1824.2</ele>
        <time>2021-08-10 10:39:29</time>
      </trkpt>
      <trkpt lat="42.83998" lon="-0.45779">
        <ele>1824.2</ele>
        <time>2021-08-10 10:39:30</time>
      </trkpt>
      <trkpt lat="42.83997" lon="-0.45779">
        <ele>1824.2</ele>
        <time>2021-08-10 10:39:31</time>
      </trkpt>
      <trkpt lat="42.83997" lon="-0.45778">
        <ele>1824.4</ele>
        <time>2021-08-10 10:39:32</time>
      </trkpt>
      <trkpt lat="42.83996" lon="-0.45778">
        <ele>1824.6</ele>
        <time>2021-08-10 10:39:33</time>
      </trkpt>
      <trkpt lat="42.83995" lon="-0.45777">
        <ele>1824.6</ele>
        <time>2021-08-10 10:39:34</time>
      </trkpt>
      <trkpt lat="42.83995" lon="-0.45777">
        <ele>1824.8</ele>
        <time>2021-08-10 10:39:35</time>
      </trkpt>
      <trkpt lat="42.83994" lon="-0.45776">
        <ele>1825</ele>
        <time>2021-08-10 10:39:36</time>
      </trkpt>
      <trkpt lat="42.83994" lon="-0.45776">
        <ele>1825.2</ele>
        <time>2021-08-10 10:39:37</time>
      </trkpt>
      <trkpt lat="42.83993" lon="-0.45775">
        <ele>1825</ele>
        <time>2021-08-10 10:39:38</time>
      </trkpt>
      <trkpt lat="42.83993" lon="-0.45775">
        <ele>1825.2</ele>
        <time>2021-08-10 10:39:39</time>
      </trkpt>
      <trkpt lat="42.83992" lon="-0.45775">
        <ele>1825</ele>
        <time>2021-08-10 10:39:40</time>
      </trkpt>
      <trkpt lat="42.83993" lon="-0.45773">
        <ele>1825.2</ele>
        <time>2021-08-10 10:39:41</time>
      </trkpt>
      <trkpt lat="42.83993" lon="-0.45773">
        <ele>1825.2</ele>
        <time>2021-08-10 10:39:42</time>
      </trkpt>
      <trkpt lat="42.83993" lon="-0.45772">
        <ele>1825.2</ele>
        <time>2021-08-10 10:39:43</time>
      </trkpt>
      <trkpt lat="42.83992" lon="-0.45772">
        <ele>1825.2</ele>
        <time>2021-08-10 10:39:44</time>
      </trkpt>
      <trkpt lat="42.83992" lon="-0.45771">
        <ele>1825.4</ele>
        <time>2021-08-10 10:39:45</time>
      </trkpt>
      <trkpt lat="42.83991" lon="-0.45771">
        <ele>1825.6</ele>
        <time>2021-08-10 10:39:46</time>
      </trkpt>
      <trkpt lat="42.83991" lon="-0.4577">
        <ele>1825.6</ele>
        <time>2021-08-10 10:39:47</time>
      </trkpt>
      <trkpt lat="42.83991" lon="-0.4577">
        <ele>1825.8</ele>
        <time>2021-08-10 10:39:48</time>
      </trkpt>
      <trkpt lat="42.83991" lon="-0.45769">
        <ele>1826.4</ele>
        <time>2021-08-10 10:39:49</time>
      </trkpt>
      <trkpt lat="42.83991" lon="-0.45769">
        <ele>1826.4</ele>
        <time>2021-08-10 10:39:50</time>
      </trkpt>
      <trkpt lat="42.8399" lon="-0.45769">
        <ele>1826.2</ele>
        <time>2021-08-10 10:39:51</time>
      </trkpt>
      <trkpt lat="42.8399" lon="-0.45769">
        <ele>1826.2</ele>
        <time>2021-08-10 10:39:52</time>
      </trkpt>
      <trkpt lat="42.8399" lon="-0.45769">
        <ele>1826.6</ele>
        <time>2021-08-10 10:39:53</time>
      </trkpt>
      <trkpt lat="42.83989" lon="-0.45769">
        <ele>1826.2</ele>
        <time>2021-08-10 10:39:54</time>
      </trkpt>
      <trkpt lat="42.83988" lon="-0.45768">
        <ele>1826</ele>
        <time>2021-08-10 10:39:55</time>
      </trkpt>
      <trkpt lat="42.83988" lon="-0.45768">
        <ele>1826.4</ele>
        <time>2021-08-10 10:39:56</time>
      </trkpt>
      <trkpt lat="42.83987" lon="-0.45767">
        <ele>1826.6</ele>
        <time>2021-08-10 10:39:57</time>
      </trkpt>
      <trkpt lat="42.83987" lon="-0.45767">
        <ele>1826.6</ele>
        <time>2021-08-10 10:39:58</time>
      </trkpt>
      <trkpt lat="42.83987" lon="-0.45766">
        <ele>1826.8</ele>
        <time>2021-08-10 10:39:59</time>
      </trkpt>
      <trkpt lat="42.83986" lon="-0.45766">
        <ele>1826.8</ele>
        <time>2021-08-10 10:40:00</time>
      </trkpt>
      <trkpt lat="42.83985" lon="-0.45765">
        <ele>1826.8</ele>
        <time>2021-08-10 10:40:01</time>
      </trkpt>
      <trkpt lat="42.83985" lon="-0.45764">
        <ele>1827</ele>
        <time>2021-08-10 10:40:02</time>
      </trkpt>
      <trkpt lat="42.83985" lon="-0.45764">
        <ele>1827</ele>
        <time>2021-08-10 10:40:03</time>
      </trkpt>
      <trkpt lat="42.83984" lon="-0.45763">
        <ele>1827</ele>
        <time>2021-08-10 10:40:04</time>
      </trkpt>
      <trkpt lat="42.83984" lon="-0.45763">
        <ele>1827</ele>
        <time>2021-08-10 10:40:05</time>
      </trkpt>
      <trkpt lat="42.83983" lon="-0.45762">
        <ele>1827.2</ele>
        <time>2021-08-10 10:40:06</time>
      </trkpt>
      <trkpt lat="42.83983" lon="-0.45761">
        <ele>1827.4</ele>
        <time>2021-08-10 10:40:07</time>
      </trkpt>
      <trkpt lat="42.83983" lon="-0.4576">
        <ele>1827.2</ele>
        <time>2021-08-10 10:40:08</time>
      </trkpt>
      <trkpt lat="42.83982" lon="-0.4576">
        <ele>1827.4</ele>
        <time>2021-08-10 10:40:09</time>
      </trkpt>
      <trkpt lat="42.83982" lon="-0.45759">
        <ele>1827.6</ele>
        <time>2021-08-10 10:40:10</time>
      </trkpt>
      <trkpt lat="42.83981" lon="-0.45759">
        <ele>1827.6</ele>
        <time>2021-08-10 10:40:11</time>
      </trkpt>
      <trkpt lat="42.83981" lon="-0.45758">
        <ele>1827.8</ele>
        <time>2021-08-10 10:40:12</time>
      </trkpt>
      <trkpt lat="42.8398" lon="-0.45757">
        <ele>1828</ele>
        <time>2021-08-10 10:40:13</time>
      </trkpt>
      <trkpt lat="42.8398" lon="-0.45757">
        <ele>1828.2</ele>
        <time>2021-08-10 10:40:14</time>
      </trkpt>
      <trkpt lat="42.8398" lon="-0.45756">
        <ele>1828.4</ele>
        <time>2021-08-10 10:40:15</time>
      </trkpt>
      <trkpt lat="42.83979" lon="-0.45755">
        <ele>1828.6</ele>
        <time>2021-08-10 10:40:16</time>
      </trkpt>
      <trkpt lat="42.83979" lon="-0.45754">
        <ele>1828.8</ele>
        <time>2021-08-10 10:40:17</time>
      </trkpt>
      <trkpt lat="42.83979" lon="-0.45754">
        <ele>1828.8</ele>
        <time>2021-08-10 10:40:18</time>
      </trkpt>
      <trkpt lat="42.83979" lon="-0.45753">
        <ele>1829</ele>
        <time>2021-08-10 10:40:19</time>
      </trkpt>
      <trkpt lat="42.83978" lon="-0.45753">
        <ele>1829.2</ele>
        <time>2021-08-10 10:40:20</time>
      </trkpt>
      <trkpt lat="42.83977" lon="-0.45752">
        <ele>1829.2</ele>
        <time>2021-08-10 10:40:21</time>
      </trkpt>
      <trkpt lat="42.83977" lon="-0.45752">
        <ele>1829.6</ele>
        <time>2021-08-10 10:40:22</time>
      </trkpt>
      <trkpt lat="42.83977" lon="-0.45751">
        <ele>1829.6</ele>
        <time>2021-08-10 10:40:23</time>
      </trkpt>
      <trkpt lat="42.83977" lon="-0.45751">
        <ele>1829.8</ele>
        <time>2021-08-10 10:40:24</time>
      </trkpt>
      <trkpt lat="42.83977" lon="-0.4575">
        <ele>1830</ele>
        <time>2021-08-10 10:40:25</time>
      </trkpt>
      <trkpt lat="42.83976" lon="-0.4575">
        <ele>1830.2</ele>
        <time>2021-08-10 10:40:26</time>
      </trkpt>
      <trkpt lat="42.83975" lon="-0.45749">
        <ele>1830.2</ele>
        <time>2021-08-10 10:40:27</time>
      </trkpt>
      <trkpt lat="42.83975" lon="-0.45749">
        <ele>1830</ele>
        <time>2021-08-10 10:40:28</time>
      </trkpt>
      <trkpt lat="42.83975" lon="-0.45749">
        <ele>1830</ele>
        <time>2021-08-10 10:40:29</time>
      </trkpt>
      <trkpt lat="42.83974" lon="-0.45749">
        <ele>1830.4</ele>
        <time>2021-08-10 10:40:30</time>
      </trkpt>
      <trkpt lat="42.83973" lon="-0.45749">
        <ele>1830.6</ele>
        <time>2021-08-10 10:40:31</time>
      </trkpt>
      <trkpt lat="42.83973" lon="-0.45748">
        <ele>1830.8</ele>
        <time>2021-08-10 10:40:32</time>
      </trkpt>
      <trkpt lat="42.83972" lon="-0.45747">
        <ele>1831</ele>
        <time>2021-08-10 10:40:33</time>
      </trkpt>
      <trkpt lat="42.83972" lon="-0.45747">
        <ele>1831</ele>
        <time>2021-08-10 10:40:34</time>
      </trkpt>
      <trkpt lat="42.83972" lon="-0.45746">
        <ele>1831</ele>
        <time>2021-08-10 10:40:35</time>
      </trkpt>
      <trkpt lat="42.83972" lon="-0.45745">
        <ele>1831</ele>
        <time>2021-08-10 10:40:36</time>
      </trkpt>
      <trkpt lat="42.83972" lon="-0.45744">
        <ele>1831.2</ele>
        <time>2021-08-10 10:40:37</time>
      </trkpt>
      <trkpt lat="42.83971" lon="-0.45744">
        <ele>1831.4</ele>
        <time>2021-08-10 10:40:38</time>
      </trkpt>
      <trkpt lat="42.83971" lon="-0.45743">
        <ele>1831.4</ele>
        <time>2021-08-10 10:40:39</time>
      </trkpt>
      <trkpt lat="42.8397" lon="-0.45744">
        <ele>1831.6</ele>
        <time>2021-08-10 10:40:40</time>
      </trkpt>
      <trkpt lat="42.8397" lon="-0.45743">
        <ele>1831.8</ele>
        <time>2021-08-10 10:40:41</time>
      </trkpt>
      <trkpt lat="42.83969" lon="-0.45743">
        <ele>1832</ele>
        <time>2021-08-10 10:40:42</time>
      </trkpt>
      <trkpt lat="42.83968" lon="-0.45742">
        <ele>1832</ele>
        <time>2021-08-10 10:40:43</time>
      </trkpt>
      <trkpt lat="42.83968" lon="-0.45742">
        <ele>1832</ele>
        <time>2021-08-10 10:40:44</time>
      </trkpt>
      <trkpt lat="42.83968" lon="-0.45741">
        <ele>1832</ele>
        <time>2021-08-10 10:40:45</time>
      </trkpt>
      <trkpt lat="42.83967" lon="-0.4574">
        <ele>1832.2</ele>
        <time>2021-08-10 10:40:46</time>
      </trkpt>
      <trkpt lat="42.83967" lon="-0.4574">
        <ele>1832.4</ele>
        <time>2021-08-10 10:40:47</time>
      </trkpt>
      <trkpt lat="42.83967" lon="-0.4574">
        <ele>1832.4</ele>
        <time>2021-08-10 10:40:48</time>
      </trkpt>
      <trkpt lat="42.83967" lon="-0.4574">
        <ele>1832.6</ele>
        <time>2021-08-10 10:40:49</time>
      </trkpt>
      <trkpt lat="42.83967" lon="-0.4574">
        <ele>1832.4</ele>
        <time>2021-08-10 10:40:50</time>
      </trkpt>
      <trkpt lat="42.83968" lon="-0.4574">
        <ele>1832.6</ele>
        <time>2021-08-10 10:40:51</time>
      </trkpt>
      <trkpt lat="42.83968" lon="-0.4574">
        <ele>1832.4</ele>
        <time>2021-08-10 10:40:52</time>
      </trkpt>
      <trkpt lat="42.83967" lon="-0.4574">
        <ele>1832.8</ele>
        <time>2021-08-10 10:40:53</time>
      </trkpt>
      <trkpt lat="42.83967" lon="-0.4574">
        <ele>1833</ele>
        <time>2021-08-10 10:40:54</time>
      </trkpt>
      <trkpt lat="42.83966" lon="-0.45739">
        <ele>1833</ele>
        <time>2021-08-10 10:40:55</time>
      </trkpt>
      <trkpt lat="42.83966" lon="-0.45738">
        <ele>1833.2</ele>
        <time>2021-08-10 10:40:56</time>
      </trkpt>
      <trkpt lat="42.83966" lon="-0.45738">
        <ele>1833</ele>
        <time>2021-08-10 10:40:57</time>
      </trkpt>
      <trkpt lat="42.83966" lon="-0.45737">
        <ele>1833.2</ele>
        <time>2021-08-10 10:40:58</time>
      </trkpt>
      <trkpt lat="42.83966" lon="-0.45737">
        <ele>1833.2</ele>
        <time>2021-08-10 10:40:59</time>
      </trkpt>
      <trkpt lat="42.83965" lon="-0.45736">
        <ele>1833.4</ele>
        <time>2021-08-10 10:41:06</time>
      </trkpt>
      <trkpt lat="42.83965" lon="-0.45736">
        <ele>1833.4</ele>
        <time>2021-08-10 10:41:07</time>
      </trkpt>
      <trkpt lat="42.83964" lon="-0.45734">
        <ele>1833.8</ele>
        <time>2021-08-10 10:41:08</time>
      </trkpt>
      <trkpt lat="42.83964" lon="-0.45733">
        <ele>1834</ele>
        <time>2021-08-10 10:41:09</time>
      </trkpt>
      <trkpt lat="42.83964" lon="-0.45733">
        <ele>1834</ele>
        <time>2021-08-10 10:41:10</time>
      </trkpt>
      <trkpt lat="42.83963" lon="-0.45732">
        <ele>1834.2</ele>
        <time>2021-08-10 10:41:11</time>
      </trkpt>
      <trkpt lat="42.83963" lon="-0.45731">
        <ele>1834.2</ele>
        <time>2021-08-10 10:41:12</time>
      </trkpt>
      <trkpt lat="42.83962" lon="-0.45731">
        <ele>1834.4</ele>
        <time>2021-08-10 10:41:13</time>
      </trkpt>
      <trkpt lat="42.83962" lon="-0.4573">
        <ele>1834.6</ele>
        <time>2021-08-10 10:41:14</time>
      </trkpt>
      <trkpt lat="42.83961" lon="-0.45729">
        <ele>1834.8</ele>
        <time>2021-08-10 10:41:15</time>
      </trkpt>
      <trkpt lat="42.83961" lon="-0.45728">
        <ele>1834.8</ele>
        <time>2021-08-10 10:41:16</time>
      </trkpt>
      <trkpt lat="42.8396" lon="-0.45728">
        <ele>1835</ele>
        <time>2021-08-10 10:41:17</time>
      </trkpt>
      <trkpt lat="42.8396" lon="-0.45727">
        <ele>1835</ele>
        <time>2021-08-10 10:41:18</time>
      </trkpt>
      <trkpt lat="42.8396" lon="-0.45726">
        <ele>1835</ele>
        <time>2021-08-10 10:41:19</time>
      </trkpt>
      <trkpt lat="42.8396" lon="-0.45726">
        <ele>1834.8</ele>
        <time>2021-08-10 10:41:20</time>
      </trkpt>
      <trkpt lat="42.83959" lon="-0.45726">
        <ele>1835.4</ele>
        <time>2021-08-10 10:41:21</time>
      </trkpt>
      <trkpt lat="42.83959" lon="-0.45725">
        <ele>1835.2</ele>
        <time>2021-08-10 10:41:22</time>
      </trkpt>
      <trkpt lat="42.83959" lon="-0.45725">
        <ele>1835.6</ele>
        <time>2021-08-10 10:41:23</time>
      </trkpt>
      <trkpt lat="42.83958" lon="-0.45725">
        <ele>1835.6</ele>
        <time>2021-08-10 10:41:24</time>
      </trkpt>
      <trkpt lat="42.83958" lon="-0.45725">
        <ele>1835.4</ele>
        <time>2021-08-10 10:41:25</time>
      </trkpt>
      <trkpt lat="42.83957" lon="-0.45724">
        <ele>1835.2</ele>
        <time>2021-08-10 10:41:26</time>
      </trkpt>
      <trkpt lat="42.83957" lon="-0.45724">
        <ele>1835</ele>
        <time>2021-08-10 10:41:27</time>
      </trkpt>
      <trkpt lat="42.83956" lon="-0.45723">
        <ele>1835.2</ele>
        <time>2021-08-10 10:41:28</time>
      </trkpt>
      <trkpt lat="42.83956" lon="-0.45722">
        <ele>1835.4</ele>
        <time>2021-08-10 10:41:29</time>
      </trkpt>
      <trkpt lat="42.83955" lon="-0.45722">
        <ele>1835.2</ele>
        <time>2021-08-10 10:41:30</time>
      </trkpt>
      <trkpt lat="42.83956" lon="-0.45721">
        <ele>1835.2</ele>
        <time>2021-08-10 10:41:31</time>
      </trkpt>
      <trkpt lat="42.83954" lon="-0.45721">
        <ele>1835.4</ele>
        <time>2021-08-10 10:41:32</time>
      </trkpt>
      <trkpt lat="42.83953" lon="-0.4572">
        <ele>1835.8</ele>
        <time>2021-08-10 10:41:33</time>
      </trkpt>
      <trkpt lat="42.83954" lon="-0.4572">
        <ele>1836</ele>
        <time>2021-08-10 10:41:34</time>
      </trkpt>
      <trkpt lat="42.83953" lon="-0.45719">
        <ele>1836</ele>
        <time>2021-08-10 10:41:35</time>
      </trkpt>
      <trkpt lat="42.83953" lon="-0.45718">
        <ele>1836</ele>
        <time>2021-08-10 10:41:36</time>
      </trkpt>
      <trkpt lat="42.83952" lon="-0.45718">
        <ele>1836.2</ele>
        <time>2021-08-10 10:41:37</time>
      </trkpt>
      <trkpt lat="42.83951" lon="-0.45717">
        <ele>1836.2</ele>
        <time>2021-08-10 10:41:38</time>
      </trkpt>
      <trkpt lat="42.83951" lon="-0.45717">
        <ele>1836.4</ele>
        <time>2021-08-10 10:41:39</time>
      </trkpt>
      <trkpt lat="42.8395" lon="-0.45716">
        <ele>1836.6</ele>
        <time>2021-08-10 10:41:40</time>
      </trkpt>
      <trkpt lat="42.8395" lon="-0.45716">
        <ele>1836.6</ele>
        <time>2021-08-10 10:41:41</time>
      </trkpt>
      <trkpt lat="42.83949" lon="-0.45715">
        <ele>1836.4</ele>
        <time>2021-08-10 10:41:42</time>
      </trkpt>
      <trkpt lat="42.83949" lon="-0.45715">
        <ele>1836.2</ele>
        <time>2021-08-10 10:41:43</time>
      </trkpt>
      <trkpt lat="42.83948" lon="-0.45714">
        <ele>1836.6</ele>
        <time>2021-08-10 10:41:44</time>
      </trkpt>
      <trkpt lat="42.83948" lon="-0.45713">
        <ele>1836.6</ele>
        <time>2021-08-10 10:41:45</time>
      </trkpt>
      <trkpt lat="42.83947" lon="-0.45713">
        <ele>1837.2</ele>
        <time>2021-08-10 10:41:46</time>
      </trkpt>
      <trkpt lat="42.83947" lon="-0.45713">
        <ele>1837.4</ele>
        <time>2021-08-10 10:41:47</time>
      </trkpt>
      <trkpt lat="42.83946" lon="-0.45712">
        <ele>1837.6</ele>
        <time>2021-08-10 10:41:48</time>
      </trkpt>
      <trkpt lat="42.83946" lon="-0.45712">
        <ele>1838</ele>
        <time>2021-08-10 10:41:49</time>
      </trkpt>
      <trkpt lat="42.83946" lon="-0.45712">
        <ele>1838</ele>
        <time>2021-08-10 10:41:50</time>
      </trkpt>
      <trkpt lat="42.83947" lon="-0.45712">
        <ele>1837.4</ele>
        <time>2021-08-10 10:41:51</time>
      </trkpt>
      <trkpt lat="42.83946" lon="-0.45711">
        <ele>1837.2</ele>
        <time>2021-08-10 10:41:52</time>
      </trkpt>
      <trkpt lat="42.83946" lon="-0.45711">
        <ele>1837.4</ele>
        <time>2021-08-10 10:41:53</time>
      </trkpt>
      <trkpt lat="42.83946" lon="-0.4571">
        <ele>1838.2</ele>
        <time>2021-08-10 10:41:54</time>
      </trkpt>
      <trkpt lat="42.83945" lon="-0.4571">
        <ele>1838.4</ele>
        <time>2021-08-10 10:41:55</time>
      </trkpt>
      <trkpt lat="42.83945" lon="-0.4571">
        <ele>1838.2</ele>
        <time>2021-08-10 10:41:56</time>
      </trkpt>
      <trkpt lat="42.83944" lon="-0.45709">
        <ele>1838</ele>
        <time>2021-08-10 10:41:57</time>
      </trkpt>
      <trkpt lat="42.83944" lon="-0.45709">
        <ele>1838.4</ele>
        <time>2021-08-10 10:41:58</time>
      </trkpt>
      <trkpt lat="42.83944" lon="-0.45708">
        <ele>1838.6</ele>
        <time>2021-08-10 10:41:59</time>
      </trkpt>
      <trkpt lat="42.83943" lon="-0.45707">
        <ele>1838.6</ele>
      </trkpt>
      <trkpt lat="42.83943" lon="-0.45707">
        <ele>1838.6</ele>
        <time>2021-08-10 10:42:01</time>
      </trkpt>
      <trkpt lat="42.83942" lon="-0.45706">
        <ele>1838.6</ele>
        <time>2021-08-10 10:42:02</time>
      </trkpt>
      <trkpt lat="42.83942" lon="-0.45705">
        <ele>1838.6</ele>
        <time>2021-08-10 10:42:03</time>
      </trkpt>
      <trkpt lat="42.83942" lon="-0.45704">
        <ele>1838.6</ele>
        <time>2021-08-10 10:42:04</time>
      </trkpt>
      <trkpt lat="42.83941" lon="-0.45703">
        <ele>1838.4</ele>
        <time>2021-08-10 10:42:20</time>
      </trkpt>
      <trkpt lat="42.83941" lon="-0.45702">
        <ele>1838.4</ele>
        <time>2021-08-10 10:42:21</time>
      </trkpt>
      <trkpt lat="42.83941" lon="-0.45702">
        <ele>1838.6</ele>
        <time>2021-08-10 10:42:22</time>
      </trkpt>
      <trkpt lat="42.8394" lon="-0.457">
        <ele>1839</ele>
        <time>2021-08-10 10:42:23</time>
      </trkpt>
      <trkpt lat="42.8394" lon="-0.457">
        <ele>1839</ele>
        <time>2021-08-10 10:42:24</time>
      </trkpt>
      <trkpt lat="42.83939" lon="-0.45699">
        <ele>1839.2</ele>
        <time>2021-08-10 10:42:25</time>
      </trkpt>
      <trkpt lat="42.83939" lon="-0.45699">
        <ele>1839.2</ele>
        <time>2021-08-10 10:42:26</time>
      </trkpt>
      <trkpt lat="42.83939" lon="-0.45698">
        <ele>1839.4</ele>
        <time>2021-08-10 10:42:27</time>
      </trkpt>
      <trkpt lat="42.83938" lon="-0.45697">
        <ele>1839.6</ele>
        <time>2021-08-10 10:42:28</time>
      </trkpt>
      <trkpt lat="42.83938" lon="-0.45697">
        <ele>1839.6</ele>
        <time>2021-08-10 10:42:29</time>
      </trkpt>
      <trkpt lat="42.83937" lon="-0.45695">
        <ele>1839.6</ele>
        <time>2021-08-10 10:42:30</time>
      </trkpt>
      <trkpt lat="42.83936" lon="-0.45695">
        <ele>1839.6</ele>
      </trkpt>
      <trkpt lat="42.83936" lon="-0.45695">
        <ele>1839.8</ele>
        <time>2021-08-10 10:42:31</time>
      </trkpt>
      <trkpt lat="42.83936" lon="-0.45694">
        <ele>1840</ele>
        <time>2021-08-10 10:42:32</time>
      </trkpt>
      <trkpt lat="42.83935" lon="-0.45693">
        <ele>1840</ele>
        <time>2021-08-10 10:42:33</time>
      </trkpt>
      <trkpt lat="42.83935" lon="-0.45692">
        <ele>1840</ele>
        <time>2021-08-10 10:42:34</time>
      </trkpt>
      <trkpt lat="42.83934" lon="-0.45692">
        <ele>1840</ele>
        <time>2021-08-10 10:42:35</time>
      </trkpt>
      <trkpt lat="42.83934" lon="-0.45691">
        <ele>1840.2</ele>
        <time>2021-08-10 10:42:36</time>
      </trkpt>
      <trkpt lat="42.83933" lon="-0.4569">
        <ele>1840</ele>
        <time>2021-08-10 10:42:37</time>
      </trkpt>
      <trkpt lat="42.83933" lon="-0.4569">
        <ele>1840</ele>
        <time>2021-08-10 10:42:38</time>
      </trkpt>
      <trkpt lat="42.83932" lon="-0.45689">
        <ele>1840.2</ele>
        <time>2021-08-10 10:42:39</time>
      </trkpt>
      <trkpt lat="42.83932" lon="-0.45688">
        <ele>1840.4</ele>
        <time>2021-08-10 10:42:40</time>
      </trkpt>
      <trkpt lat="42.83932" lon="-0.45687">
        <ele>1840.6</ele>
        <time>2021-08-10 10:42:41</time>
      </trkpt>
      <trkpt lat="42.83932" lon="-0.45687">
        <ele>1840.6</ele>
        <time>2021-08-10 10:42:42</time>
      </trkpt>
      <trkpt lat="42.83931" lon="-0.45686">
        <ele>1840.8</ele>
        <time>2021-08-10 10:42:43</time>
      </trkpt>
      <trkpt lat="42.83931" lon="-0.45686">
        <ele>1841.2</ele>
        <time>2021-08-10 10:42:45</time>
      </trkpt>
      <trkpt lat="42.8393" lon="-0.45685">
        <ele>1841.4</ele>
      </trkpt>
      <trkpt lat="42.8393" lon="-0.45685">
        <ele>1841.6</ele>
        <time>2021-08-10 10:42:46</time>
      </trkpt>
      <trkpt lat="42.8393" lon="-0.45684">
        <ele>1841.8</ele>
        <time>2021-08-10 10:42:47</time>
      </trkpt>
      <trkpt lat="42.83929" lon="-0.45684">
        <ele>1842</ele>
        <time>2021-08-10 10:42:48</time>
      </trkpt>
      <trkpt lat="42.83929" lon="-0.45684">
        <ele>1842</ele>
        <time>2021-08-10 10:42:49</time>
      </trkpt>
      <trkpt lat="42.83928" lon="-0.45683">
        <ele>1842</ele>
        <time>2021-08-10 10:42:50</time>
      </trkpt>
      <trkpt lat="42.83928" lon="-0.45682">
        <ele>1842.2</ele>
        <time>2021-08-10 10:42:51</time>
      </trkpt>
      <trkpt lat="42.83928" lon="-0.45681">
        <ele>1842</ele>
        <time>2021-08-10 10:42:52</time>
      </trkpt>
      <trkpt lat="42.83927" lon="-0.4568">
        <ele>1842.2</ele>
        <time>2021-08-10 10:42:53</time>
      </trkpt>
      <trkpt lat="42.83927" lon="-0.4568">
        <ele>1842.4</ele>
        <time>2021-08-10 10:42:54</time>
      </trkpt>
      <trkpt lat="42.83926" lon="-0.45679">
        <ele>1842.6</ele>
        <time>2021-08-10 10:42:55</time>
      </trkpt>
      <trkpt lat="42.83925" lon="-0.45679">
        <ele>1842.8</ele>
        <time>2021-08-10 10:42:56</time>
      </trkpt>
      <trkpt lat="42.83925" lon="-0.45678">
        <ele>1842.8</ele>
        <time>2021-08-10 10:42:57</time>
      </trkpt>
      <trkpt lat="42.83925" lon="-0.45677">
        <ele>1843</ele>
        <time>2021-08-10 10:42:58</time>
      </trkpt>
      <trkpt lat="42.83925" lon="-0.45677">
        <ele>1843.2</ele>
        <time>2021-08-10 10:42:59</time>
      </trkpt>
      <trkpt lat="42.83925" lon="-0.45676">
        <ele>1843.4</ele>
        <time>2021-08-10 10:43:00</time>
      </trkpt>
      <trkpt lat="42.83925" lon="-0.45675">
        <ele>1843.4</ele>
        <time>2021-08-10 10:43:01</time>
      </trkpt>
      <trkpt lat="42.83925" lon="-0.45675">
        <ele>1843.6</ele>
        <time>2021-08-10 10:43:02</time>
      </trkpt>
      <trkpt lat="42.83925" lon="-0.45674">
        <ele>1843.6</ele>
        <time>2021-08-10 10:43:03</time>
      </trkpt>
      <trkpt lat="42.83925" lon="-0.45674">
        <ele>1843.6</ele>
        <time>2021-08-10 10:43:04</time>
      </trkpt>
      <trkpt lat="42.83925" lon="-0.45674">
        <ele>1843.6</ele>
        <time>2021-08-10 10:43:05</time>
      </trkpt>
      <trkpt lat="42.83925" lon="-0.45673">
        <ele>1843.6</ele>
        <time>2021-08-10 10:43:06</time>
      </trkpt>
      <trkpt lat="42.83925" lon="-0.45673">
        <ele>1843.6</ele>
        <time>2021-08-10 10:43:07</time>
      </trkpt>
      <trkpt lat="42.83924" lon="-0.45673">
        <ele>1843.6</ele>
        <time>2021-08-10 10:43:08</time>
      </trkpt>
      <trkpt lat="42.83924" lon="-0.45673">
        <ele>1843.6</ele>
        <time>2021-08-10 10:43:09</time>
      </trkpt>
      <trkpt lat="42.83924" lon="-0.45672">
        <ele>1843.8</ele>
        <time>2021-08-10 10:43:10</time>
      </trkpt>
      <trkpt lat="42.83924" lon="-0.45672">
        <ele>1843.8</ele>
        <time>2021-08-10 10:43:11</time>
      </trkpt>
      <trkpt lat="42.83923" lon="-0.45671">
        <ele>1844</ele>
        <time>2021-08-10 10:43:12</time>
      </trkpt>
      <trkpt lat="42.83924" lon="-0.4567">
        <ele>1844</ele>
        <time>2021-08-10 10:43:13</time>
      </trkpt>
      <trkpt lat="42.83924" lon="-0.45669">
        <ele>1844.2</ele>
        <time>2021-08-10 10:43:15</time>
      </trkpt>
      <trkpt lat="42.83924" lon="-0.45669">
        <ele>1844.2</ele>
        <time>2021-08-10 10:43:16</time>
      </trkpt>
      <trkpt lat="42.83923" lon="-0.45669">
        <ele>1844.2</ele>
        <time>2021-08-10 10:43:17</time>
      </trkpt>
      <trkpt lat="42.83923" lon="-0.45668">
        <ele>1844.2</ele>
        <time>2021-08-10 10:43:18</time>
      </trkpt>
      <trkpt lat="42.83923" lon="-0.45667">
        <ele>1844.2</ele>
        <time>2021-08-10 10:43:19</time>
      </trkpt>
      <trkpt lat="42.83922" lon="-0.45667">
        <ele>1844.4</ele>
        <time>2021-08-10 10:43:20</time>
      </trkpt>
      <trkpt lat="42.83922" lon="-0.45666">
        <ele>1844.4</ele>
        <time>2021-08-10 10:43:21</time>
      </trkpt>
      <trkpt lat="42.83921" lon="-0.45666">
        <ele>1844.4</ele>
        <time>2021-08-10 10:43:22</time>
      </trkpt>
      <trkpt lat="42.83921" lon="-0.45666">
        <ele>1844.6</ele>
        <time>2021-08-10 10:43:23</time>
      </trkpt>
      <trkpt lat="42.8392" lon="-0.45665">
        <ele>1844.8</ele>
        <time>2021-08-10 10:43:24</time>
      </trkpt>
      <trkpt lat="42.8392" lon="-0.45664">
        <ele>1844.8</ele>
        <time>2021-08-10 10:43:25</time>
      </trkpt>
      <trkpt lat="42.83919" lon="-0.45663">
        <ele>1845</ele>
        <time>2021-08-10 10:43:26</time>
      </trkpt>
      <trkpt lat="42.83919" lon="-0.45663">
        <ele>1845.2</ele>
        <time>2021-08-10 10:43:27</time>
      </trkpt>
      <trkpt lat="42.83918" lon="-0.45663">
        <ele>1845.2</ele>
        <time>2021-08-10 10:43:28</time>
      </trkpt>
      <trkpt lat="42.83918" lon="-0.45662">
        <ele>1845.4</ele>
        <time>2021-08-10 10:43:29</time>
      </trkpt>
      <trkpt lat="42.83918" lon="-0.45662">
        <ele>1845.6</ele>
        <time>2021-08-10 10:43:30</time>
      </trkpt>
      <trkpt lat="42.83918" lon="-0.45661">
        <ele>1845.6</ele>
        <time>2021-08-10 10:43:31</time>
      </trkpt>
      <trkpt lat="42.83917" lon="-0.4566">
        <ele>1845.6</ele>
        <time>2021-08-10 10:43:32</time>
      </trkpt>
      <trkpt lat="42.83917" lon="-0.45659">
        <ele>1845.8</ele>
        <time>2021-08-10 10:43:33</time>
      </trkpt>
      <trkpt lat="42.83916" lon="-0.45659">
        <ele>1845.8</ele>
        <time>2021-08-10 10:43:34</time>
      </trkpt>
      <trkpt lat="42.83916" lon="-0.45658">
        <ele>1845.8</ele>
        <time>2021-08-10 10:43:35</time>
      </trkpt>
      <trkpt lat="42.83916" lon="-0.45657">
        <ele>1846</ele>
        <time>2021-08-10 10:43:36</time>
      </trkpt>
      <trkpt lat="42.83915" lon="-0.45656">
        <ele>1846.2</ele>
        <time>2021-08-10 10:43:37</time>
      </trkpt>
      <trkpt lat="42.83915" lon="-0.45656">
        <ele>1846.4</ele>
        <time>2021-08-10 10:43:38</time>
      </trkpt>
      <trkpt lat="42.83914" lon="-0.45655">
        <ele>1846.6</ele>
        <time>2021-08-10 10:43:39</time>
      </trkpt>
      <trkpt lat="42.83914" lon="-0.45655">
        <ele>1846.6</ele>
        <time>2021-08-10 10:43:40</time>
      </trkpt>
      <trkpt lat="42.83914" lon="-0.45654">
        <ele>1847</ele>
        <time>2021-08-10 10:43:41</time>
      </trkpt>
      <trkpt lat="42.83913" lon="-0.45654">
        <ele>1847</ele>
        <time>2021-08-10 10:43:42</time>
      </trkpt>
      <trkpt lat="42.83912" lon="-0.45653">
        <ele>1847</ele>
        <time>2021-08-10 10:43:43</time>
      </trkpt>
      <trkpt lat="42.83912" lon="-0.45652">
        <ele>1847</ele>
        <time>2021-08-10 10:43:44</time>
      </trkpt>
      <trkpt lat="42.83912" lon="-0.45652">
        <ele>1847.2</ele>
        <time>2021-08-10 10:43:45</time>
      </trkpt>
      <trkpt lat="42.83911" lon="-0.45652">
        <ele>1847.4</ele>
        <time>2021-08-10 10:43:46</time>
      </trkpt>
      <trkpt lat="42.83911" lon="-0.45652">
        <ele>1847.4</ele>
        <time>2021-08-10 10:43:47</time>
      </trkpt>
      <trkpt lat="42.8391" lon="-0.45651">
        <ele>1847.6</ele>
        <time>2021-08-10 10:43:48</time>
      </trkpt>
      <trkpt lat="42.83909" lon="-0.45651">
        <ele>1847.8</ele>
        <time>2021-08-10 10:43:49</time>
      </trkpt>
      <trkpt lat="42.83909" lon="-0.45651">
        <ele>1847.8</ele>
        <time>2021-08-10 10:43:50</time>
      </trkpt>
      <trkpt lat="42.83909" lon="-0.4565">
        <ele>1848</ele>
        <time>2021-08-10 10:43:51</time>
      </trkpt>
      <trkpt lat="42.83908" lon="-0.45649">
        <ele>1848</ele>
        <time>2021-08-10 10:43:52</time>
      </trkpt>
      <trkpt lat="42.83908" lon="-0.45649">
        <ele>1848.2</ele>
        <time>2021-08-10 10:43:53</time>
      </trkpt>
      <trkpt lat="42.83908" lon="-0.45648">
        <ele>1848</ele>
        <time>2021-08-10 10:43:54</time>
      </trkpt>
      <trkpt lat="42.83908" lon="-0.45648">
        <ele>1848.2</ele>
        <time>2021-08-10 10:43:55</time>
      </trkpt>
      <trkpt lat="42.83908" lon="-0.45647">
        <ele>1848.2</ele>
        <time>2021-08-10 10:43:56</time>
      </trkpt>
      <trkpt lat="42.83907" lon="-0.45647">
        <ele>1848.6</ele>
        <time>2021-08-10 10:43:57</time>
      </trkpt>
      <trkpt lat="42.83907" lon="-0.45646">
        <ele>1848.8</ele>
        <time>2021-08-10 10:43:58</time>
      </trkpt>
      <trkpt lat="42.83907" lon="-0.45646">
        <ele>1848.6</ele>
        <time>2021-08-10 10:43:59</time>
      </trkpt>
      <trkpt lat="42.83907" lon="-0.45646">
        <ele>1848.8</ele>
        <time>2021-08-10 10:44:00</time>
      </trkpt>
      <trkpt lat="42.83906" lon="-0.45646">
        <ele>1849</ele>
        <time>2021-08-10 10:44:01</time>
      </trkpt>
      <trkpt lat="42.83906" lon="-0.45645">
        <ele>1849.2</ele>
        <time>2021-08-10 10:44:02</time>
      </trkpt>
      <trkpt lat="42.83906" lon="-0.45644">
        <ele>1849.4</ele>
        <time>2021-08-10 10:44:03</time>
      </trkpt>
      <trkpt lat="42.83905" lon="-0.45643">
        <ele>1849.4</ele>
        <time>2021-08-10 10:44:04</time>
      </trkpt>
      <trkpt lat="42.83905" lon="-0.45643">
        <ele>1849.6</ele>
        <time>2021-08-10 10:44:05</time>
      </trkpt>
      <trkpt lat="42.83904" lon="-0.45642">
        <ele>1849.8</ele>
        <time>2021-08-10 10:44:06</time>
      </trkpt>
      <trkpt lat="42.83904" lon="-0.45641">
        <ele>1849.8</ele>
        <time>2021-08-10 10:44:07</time>
      </trkpt>
      <trkpt lat="42.83904" lon="-0.45641">
        <ele>1850</ele>
        <time>2021-08-10 10:44:08</time>
      </trkpt>
      <trkpt lat="42.83903" lon="-0.4564">
        <ele>1850</ele>
        <time>2021-08-10 10:44:09</time>
      </trkpt>
      <trkpt lat="42.83903" lon="-0.45639">
        <ele>1850.2</ele>
        <time>2021-08-10 10:44:10</time>
      </trkpt>
      <trkpt lat="42.83903" lon="-0.45638">
        <ele>1850.2</ele>
        <time>2021-08-10 10:44:11</time>
      </trkpt>
      <trkpt lat="42.83903" lon="-0.45638">
        <ele>1850.4</ele>
        <time>2021-08-10 10:44:12</time>
      </trkpt>
      <trkpt lat="42.83902" lon="-0.45638">
        <ele>1850.2</ele>
        <time>2021-08-10 10:44:13</time>
      </trkpt>
      <trkpt lat="42.83902" lon="-0.45637">
        <ele>1850.2</ele>
        <time>2021-08-10 10:44:14</time>
      </trkpt>
      <trkpt lat="42.83901" lon="-0.45637">
        <ele>1850.2</ele>
        <time>2021-08-10 10:44:15</time>
      </trkpt>
      <trkpt lat="42.83901" lon="-0.45636">
        <ele>1850.6</ele>
        <time>2021-08-10 10:44:16</time>
      </trkpt>
      <trkpt lat="42.839" lon="-0.45636">
        <ele>1850.8</ele>
        <time>2021-08-10 10:44:19</time>
      </trkpt>
      <trkpt lat="42.839" lon="-0.45635">
        <ele>1850.8</ele>
        <time>2021-08-10 10:44:20</time>
      </trkpt>
      <trkpt lat="42.83899" lon="-0.45635">
        <ele>1851</ele>
        <time>2021-08-10 10:44:21</time>
      </trkpt>
      <trkpt lat="42.83899" lon="-0.45634">
        <ele>1850.8</ele>
        <time>2021-08-10 10:44:22</time>
      </trkpt>
      <trkpt lat="42.83898" lon="-0.45634">
        <ele>1850.8</ele>
        <time>2021-08-10 10:44:23</time>
      </trkpt>
      <trkpt lat="42.83898" lon="-0.45634">
        <ele>1851</ele>
        <time>2021-08-10 10:44:24</time>
      </trkpt>
      <trkpt lat="42.83898" lon="-0.45633">
        <ele>1851.2</ele>
        <time>2021-08-10 10:44:25</time>
      </trkpt>
      <trkpt lat="42.83898" lon="-0.45632">
        <ele>1851.2</ele>
        <time>2021-08-10 10:44:26</time>
      </trkpt>
      <trkpt lat="42.83898" lon="-0.45632">
        <ele>1851.2</ele>
        <time>2021-08-10 10:44:27</time>
      </trkpt>
      <trkpt lat="42.83897" lon="-0.45631">
        <ele>1851</ele>
        <time>2021-08-10 10:44:28</time>
      </trkpt>
      <trkpt lat="42.83897" lon="-0.45631">
        <ele>1851.4</ele>
        <time>2021-08-10 10:44:29</time>
      </trkpt>
      <trkpt lat="42.83896" lon="-0.45631">
        <ele>1851.6</ele>
        <time>2021-08-10 10:44:30</time>
      </trkpt>
      <trkpt lat="42.83896" lon="-0.4563">
        <ele>1851.6</ele>
        <time>2021-08-10 10:44:31</time>
      </trkpt>
      <trkpt lat="42.83895" lon="-0.45629">
        <ele>1851.4</ele>
        <time>2021-08-10 10:44:32</time>
      </trkpt>
      <trkpt lat="42.83895" lon="-0.45629">
        <ele>1851.4</ele>
        <time>2021-08-10 10:44:33</time>
      </trkpt>
      <trkpt lat="42.83895" lon="-0.45629">
        <ele>1851.6</ele>
        <time>2021-08-10 10:44:34</time>
      </trkpt>
      <trkpt lat="42.83894" lon="-0.45628">
        <ele>1851.8</ele>
        <time>2021-08-10 10:44:35</time>
      </trkpt>
      <trkpt lat="42.83894" lon="-0.45627">
        <ele>1852</ele>
        <time>2021-08-10 10:44:36</time>
      </trkpt>
      <trkpt lat="42.83893" lon="-0.45627">
        <ele>1851.8</ele>
        <time>2021-08-10 10:44:37</time>
      </trkpt>
      <trkpt lat="42.83893" lon="-0.45626">
        <ele>1851.8</ele>
        <time>2021-08-10 10:44:38</time>
      </trkpt>
      <trkpt lat="42.83892" lon="-0.45625">
        <ele>1851.8</ele>
        <time>2021-08-10 10:44:39</time>
      </trkpt>
      <trkpt lat="42.83892" lon="-0.45625">
        <ele>1851.8</ele>
        <time>2021-08-10 10:44:40</time>
      </trkpt>
      <trkpt lat="42.83891" lon="-0.45624">
        <ele>1851.8</ele>
        <time>2021-08-10 10:44:41</time>
      </trkpt>
      <trkpt lat="42.83891" lon="-0.45624">
        <ele>1851.8</ele>
        <time>2021-08-10 10:44:42</time>
      </trkpt>
      <trkpt lat="42.8389" lon="-0.45623">
        <ele>1851.8</ele>
        <time>2021-08-10 10:44:43</time>
      </trkpt>
      <trkpt lat="42.8389" lon="-0.45623">
        <ele>1851.8</ele>
        <time>2021-08-10 10:44:44</time>
      </trkpt>
      <trkpt lat="42.83889" lon="-0.45622">
        <ele>1852.2</ele>
        <time>2021-08-10 10:44:45</time>
      </trkpt>
      <trkpt lat="42.83889" lon="-0.45621">
        <ele>1852.4</ele>
        <time>2021-08-10 10:44:46</time>
      </trkpt>
      <trkpt lat="42.83889" lon="-0.4562">
        <ele>1852.6</ele>
        <time>2021-08-10 10:44:47</time>
      </trkpt>
      <trkpt lat="42.83889" lon="-0.45619">
        <ele>1852.8</ele>
        <time>2021-08-10 10:44:48</time>
      </trkpt>
      <trkpt lat="42.83889" lon="-0.45618">
        <ele>1852.8</ele>
        <time>2021-08-10 10:44:49</time>
      </trkpt>
      <trkpt lat="42.83889" lon="-0.45617">
        <ele>1852.8</ele>
        <time>2021-08-10 10:44:50</time>
      </trkpt>
      <trkpt lat="42.83888" lon="-0.45617">
        <ele>1852.6</ele>
        <time>2021-08-10 10:44:51</time>
      </trkpt>
      <trkpt lat="42.83888" lon="-0.45616">
        <ele>1852.6</ele>
        <time>2021-08-10 10:44:52</time>
      </trkpt>
      <trkpt lat="42.83887" lon="-0.45616">
        <ele>1852.8</ele>
        <time>2021-08-10 10:44:53</time>
      </trkpt>
      <trkpt lat="42.83887" lon="-0.45615">
        <ele>1853</ele>
        <time>2021-08-10 10:44:54</time>
      </trkpt>
      <trkpt lat="42.83886" lon="-0.45615">
        <ele>1853</ele>
        <time>2021-08-10 10:44:55</time>
      </trkpt>
      <trkpt lat="42.83886" lon="-0.45613">
        <ele>1853</ele>
        <time>2021-08-10 10:44:56</time>
      </trkpt>
      <trkpt lat="42.83886" lon="-0.45613">
        <ele>1853</ele>
        <time>2021-08-10 10:44:57</time>
      </trkpt>
      <trkpt lat="42.83885" lon="-0.45612">
        <ele>1853.2</ele>
        <time>2021-08-10 10:44:58</time>
      </trkpt>
      <trkpt lat="42.83885" lon="-0.45612">
        <ele>1853.2</ele>
        <time>2021-08-10 10:44:59</time>
      </trkpt>
      <trkpt lat="42.83884" lon="-0.45611">
        <ele>1853.2</ele>
        <time>2021-08-10 10:45:00</time>
      </trkpt>
      <trkpt lat="42.83884" lon="-0.4561">
        <ele>1853.2</ele>
        <time>2021-08-10 10:45:01</time>
      </trkpt>
      <trkpt lat="42.83883" lon="-0.45609">
        <ele>1853.2</ele>
        <time>2021-08-10 10:45:02</time>
      </trkpt>
      <trkpt lat="42.83883" lon="-0.45608">
        <ele>1853.4</ele>
        <time>2021-08-10 10:45:03</time>
      </trkpt>
      <trkpt lat="42.83882" lon="-0.45607">
        <ele>1853.4</ele>
        <time>2021-08-10 10:45:04</time>
      </trkpt>
      <trkpt lat="42.83882" lon="-0.45606">
        <ele>1853.4</ele>
        <time>2021-08-10 10:45:05</time>
      </trkpt>
      <trkpt lat="42.83882" lon="-0.45605">
        <ele>1853.2</ele>
        <time>2021-08-10 10:45:06</time>
      </trkpt>
      <trkpt lat="42.83881" lon="-0.45605">
        <ele>1853.2</ele>
        <time>2021-08-10 10:45:07</time>
      </trkpt>
      <trkpt lat="42.83881" lon="-0.45604">
        <ele>1853.2</ele>
        <time>2021-08-10 10:45:08</time>
      </trkpt>
      <trkpt lat="42.8388" lon="-0.45603">
        <ele>1853.4</ele>
        <time>2021-08-10 10:45:09</time>
      </trkpt>
      <trkpt lat="42.8388" lon="-0.45602">
        <ele>1853.6</ele>
        <time>2021-08-10 10:45:10</time>
      </trkpt>
      <trkpt lat="42.83879" lon="-0.45601">
        <ele>1853.6</ele>
        <time>2021-08-10 10:45:11</time>
      </trkpt>
      <trkpt lat="42.83879" lon="-0.456">
        <ele>1853.6</ele>
        <time>2021-08-10 10:45:12</time>
      </trkpt>
      <trkpt lat="42.83878" lon="-0.456">
        <ele>1853.6</ele>
        <time>2021-08-10 10:45:13</time>
      </trkpt>
      <trkpt lat="42.83878" lon="-0.45599">
        <ele>1854</ele>
        <time>2021-08-10 10:45:14</time>
      </trkpt>
      <trkpt lat="42.83877" lon="-0.45599">
        <ele>1853.8</ele>
        <time>2021-08-10 10:45:15</time>
      </trkpt>
      <trkpt lat="42.83877" lon="-0.45598">
        <ele>1854</ele>
        <time>2021-08-10 10:45:16</time>
      </trkpt>
      <trkpt lat="42.83876" lon="-0.45598">
        <ele>1853.8</ele>
        <time>2021-08-10 10:45:17</time>
      </trkpt>
      <trkpt lat="42.83875" lon="-0.45597">
        <ele>1853.8</ele>
        <time>2021-08-10 10:45:18</time>
      </trkpt>
      <trkpt lat="42.83875" lon="-0.45596">
        <ele>1854.2</ele>
        <time>2021-08-10 10:45:19</time>
      </trkpt>
      <trkpt lat="42.83875" lon="-0.45595">
        <ele>1853.8</ele>
        <time>2021-08-10 10:45:20</time>
      </trkpt>
      <trkpt lat="42.83874" lon="-0.45595">
        <ele>1854.2</ele>
        <time>2021-08-10 10:45:21</time>
      </trkpt>
      <trkpt lat="42.83874" lon="-0.45594">
        <ele>1854.4</ele>
        <time>2021-08-10 10:45:22</time>
      </trkpt>
      <trkpt lat="42.83873" lon="-0.45593">
        <ele>1854.6</ele>
        <time>2021-08-10 10:45:23</time>
      </trkpt>
      <trkpt lat="42.83873" lon="-0.45593">
        <ele>1854.8</ele>
        <time>2021-08-10 10:45:24</time>
      </trkpt>
      <trkpt lat="42.83872" lon="-0.45592">
        <ele>1855</ele>
        <time>2021-08-10 10:45:25</time>
      </trkpt>
      <trkpt lat="42.83871" lon="-0.45592">
        <ele>1855</ele>
        <time>2021-08-10 10:45:26</time>
      </trkpt>
      <trkpt lat="42.83871" lon="-0.45591">
        <ele>1855</ele>
        <time>2021-08-10 10:45:27</time>
      </trkpt>
      <trkpt lat="42.83871" lon="-0.4559">
        <ele>1855.2</ele>
        <time>2021-08-10 10:45:28</time>
      </trkpt>
      <trkpt lat="42.83871" lon="-0.45589">
        <ele>1855.4</ele>
        <time>2021-08-10 10:45:29</time>
      </trkpt>
      <trkpt lat="42.8387" lon="-0.45588">
        <ele>1855.4</ele>
        <time>2021-08-10 10:45:30</time>
      </trkpt>
      <trkpt lat="42.8387" lon="-0.45587">
        <ele>1855.4</ele>
        <time>2021-08-10 10:45:31</time>
      </trkpt>
      <trkpt lat="42.8387" lon="-0.45586">
        <ele>1855.4</ele>
        <time>2021-08-10 10:45:32</time>
      </trkpt>
      <trkpt lat="42.8387" lon="-0.45586">
        <ele>1855.6</ele>
        <time>2021-08-10 10:45:33</time>
      </trkpt>
      <trkpt lat="42.8387" lon="-0.45585">
        <ele>1855.8</ele>
        <time>2021-08-10 10:45:34</time>
      </trkpt>
      <trkpt lat="42.8387" lon="-0.45585">
        <ele>1856</ele>
        <time>2021-08-10 10:45:35</time>
      </trkpt>
      <trkpt lat="42.83869" lon="-0.45584">
        <ele>1856.6</ele>
        <time>2021-08-10 10:45:36</time>
      </trkpt>
      <trkpt lat="42.83869" lon="-0.45584">
        <ele>1856.8</ele>
        <time>2021-08-10 10:45:37</time>
      </trkpt>
      <trkpt lat="42.83868" lon="-0.45583">
        <ele>1856.8</ele>
        <time>2021-08-10 10:45:38</time>
      </trkpt>
      <trkpt lat="42.83868" lon="-0.45582">
        <ele>1857.2</ele>
        <time>2021-08-10 10:45:39</time>
      </trkpt>
      <trkpt lat="42.83867" lon="-0.45581">
        <ele>1857.2</ele>
        <time>2021-08-10 10:45:40</time>
      </trkpt>
      <trkpt lat="42.83867" lon="-0.45581">
        <ele>1857.4</ele>
        <time>2021-08-10 10:45:41</time>
      </trkpt>
      <trkpt lat="42.83866" lon="-0.4558">
        <ele>1857.4</ele>
        <time>2021-08-10 10:45:42</time>
      </trkpt>
      <trkpt lat="42.83866" lon="-0.45579">
        <ele>1857.4</ele>
        <time>2021-08-10 10:45:43</time>
      </trkpt>
      <trkpt lat="42.83866" lon="-0.45579">
        <ele>1857.6</ele>
        <time>2021-08-10 10:45:44</time>
      </trkpt>
      <trkpt lat="42.83866" lon="-0.45577">
        <ele>1857.8</ele>
        <time>2021-08-10 10:45:45</time>
      </trkpt>
      <trkpt lat="42.83866" lon="-0.45577">
        <ele>1858.4</ele>
        <time>2021-08-10 10:45:46</time>
      </trkpt>
      <trkpt lat="42.83867" lon="-0.45575">
        <ele>1858.6</ele>
        <time>2021-08-10 10:45:47</time>
      </trkpt>
      <trkpt lat="42.83867" lon="-0.45574">
        <ele>1858.6</ele>
        <time>2021-08-10 10:45:48</time>
      </trkpt>
      <trkpt lat="42.83866" lon="-0.45574">
        <ele>1858.4</ele>
        <time>2021-08-10 10:45:49</time>
      </trkpt>
      <trkpt lat="42.83866" lon="-0.45573">
        <ele>1857.8</ele>
        <time>2021-08-10 10:45:50</time>
      </trkpt>
      <trkpt lat="42.83865" lon="-0.45573">
        <ele>1858</ele>
        <time>2021-08-10 10:45:51</time>
      </trkpt>
      <trkpt lat="42.83865" lon="-0.45572">
        <ele>1858.2</ele>
        <time>2021-08-10 10:45:52</time>
      </trkpt>
      <trkpt lat="42.83864" lon="-0.45572">
        <ele>1858.4</ele>
        <time>2021-08-10 10:45:53</time>
      </trkpt>
      <trkpt lat="42.83863" lon="-0.45571">
        <ele>1858.2</ele>
        <time>2021-08-10 10:45:54</time>
      </trkpt>
      <trkpt lat="42.83863" lon="-0.45571">
        <ele>1858.4</ele>
        <time>2021-08-10 10:45:55</time>
      </trkpt>
      <trkpt lat="42.83862" lon="-0.4557">
        <ele>1858.2</ele>
        <time>2021-08-10 10:45:56</time>
      </trkpt>
      <trkpt lat="42.83862" lon="-0.4557">
        <ele>1858.6</ele>
        <time>2021-08-10 10:45:57</time>
      </trkpt>
      <trkpt lat="42.83861" lon="-0.4557">
        <ele>1859</ele>
        <time>2021-08-10 10:45:58</time>
      </trkpt>
      <trkpt lat="42.8386" lon="-0.4557">
        <ele>1859.2</ele>
        <time>2021-08-10 10:45:59</time>
      </trkpt>
      <trkpt lat="42.8386" lon="-0.4557">
        <ele>1859.4</ele>
        <time>2021-08-10 10:46:00</time>
      </trkpt>
      <trkpt lat="42.8386" lon="-0.4557">
        <ele>1858.8</ele>
        <time>2021-08-10 10:46:01</time>
      </trkpt>
      <trkpt lat="42.8386" lon="-0.45569">
        <ele>1858.6</ele>
        <time>2021-08-10 10:46:02</time>
      </trkpt>
      <trkpt lat="42.83859" lon="-0.45569">
        <ele>1858.6</ele>
        <time>2021-08-10 10:46:03</time>
      </trkpt>
      <trkpt lat="42.83859" lon="-0.45568">
        <ele>1858.4</ele>
        <time>2021-08-10 10:46:04</time>
      </trkpt>
      <trkpt lat="42.83858" lon="-0.45568">
        <ele>1858.6</ele>
        <time>2021-08-10 10:46:05</time>
      </trkpt>
      <trkpt lat="42.83857" lon="-0.45568">
        <ele>1859</ele>
        <time>2021-08-10 10:46:06</time>
      </trkpt>
      <trkpt lat="42.83857" lon="-0.45568">
        <ele>1859.4</ele>
        <time>2021-08-10 10:46:07</time>
      </trkpt>
      <trkpt lat="42.83856" lon="-0.45568">
        <ele>1859.6</ele>
        <time>2021-08-10 10:46:08</time>
      </trkpt>
      <trkpt lat="42.83856" lon="-0.45568">
        <ele>1859.2</ele>
        <time>2021-08-10 10:46:09</time>
      </trkpt>
      <trkpt lat="42.83855" lon="-0.45569">
        <ele>1858.8</ele>
        <time>2021-08-10 10:46:10</time>
      </trkpt>
      <trkpt lat="42.83854" lon="-0.45569">
        <ele>1858.4</ele>
        <time>2021-08-10 10:46:11</time>
      </trkpt>
      <trkpt lat="42.83853" lon="-0.45568">
        <ele>1858.6</ele>
        <time>2021-08-10 10:46:12</time>
      </trkpt>
      <trkpt lat="42.83853" lon="-0.45567">
        <ele>1858.6</ele>
        <time>2021-08-10 10:46:13</time>
      </trkpt>
      <trkpt lat="42.83853" lon="-0.45567">
        <ele>1858.8</ele>
        <time>2021-08-10 10:46:14</time>
      </trkpt>
      <trkpt lat="42.83853" lon="-0.45566">
        <ele>1859</ele>
        <time>2021-08-10 10:46:15</time>
      </trkpt>
      <trkpt lat="42.83852" lon="-0.45565">
        <ele>1859.2</ele>
        <time>2021-08-10 10:46:16</time>
      </trkpt>
      <trkpt lat="42.83853" lon="-0.45564">
        <ele>1859.4</ele>
        <time>2021-08-10 10:46:17</time>
      </trkpt>
      <trkpt lat="42.83852" lon="-0.45564">
        <ele>1859.8</ele>
        <time>2021-08-10 10:46:18</time>
      </trkpt>
      <trkpt lat="42.83852" lon="-0.45563">
        <ele>1859.8</ele>
        <time>2021-08-10 10:46:19</time>
      </trkpt>
      <trkpt lat="42.83852" lon="-0.45562">
        <ele>1860</ele>
        <time>2021-08-10 10:46:20</time>
      </trkpt>
      <trkpt lat="42.83851" lon="-0.45562">
        <ele>1859.8</ele>
        <time>2021-08-10 10:46:21</time>
      </trkpt>
      <trkpt lat="42.83851" lon="-0.45562">
        <ele>1860.2</ele>
        <time>2021-08-10 10:46:22</time>
      </trkpt>
      <trkpt lat="42.8385" lon="-0.45562">
        <ele>1860.2</ele>
        <time>2021-08-10 10:46:23</time>
      </trkpt>
      <trkpt lat="42.8385" lon="-0.45562">
        <ele>1860.2</ele>
        <time>2021-08-10 10:46:24</time>
      </trkpt>
      <trkpt lat="42.8385" lon="-0.45561">
        <ele>1860</ele>
        <time>2021-08-10 10:46:25</time>
      </trkpt>
      <trkpt lat="42.83849" lon="-0.45561">
        <ele>1860.4</ele>
        <time>2021-08-10 10:46:26</time>
      </trkpt>
      <trkpt lat="42.83849" lon="-0.4556">
        <ele>1859.8</ele>
        <time>2021-08-10 10:46:27</time>
      </trkpt>
      <trkpt lat="42.83849" lon="-0.45559">
        <ele>1859.6</ele>
        <time>2021-08-10 10:46:28</time>
      </trkpt>
      <trkpt lat="42.83849" lon="-0.45559">
        <ele>1859.6</ele>
        <time>2021-08-10 10:46:29</time>
      </trkpt>
      <trkpt lat="42.83849" lon="-0.45558">
        <ele>1859.8</ele>
        <time>2021-08-10 10:46:30</time>
      </trkpt>
      <trkpt lat="42.83848" lon="-0.45557">
        <ele>1859.8</ele>
        <time>2021-08-10 10:46:31</time>
      </trkpt>
      <trkpt lat="42.83848" lon="-0.45557">
        <ele>1859.8</ele>
        <time>2021-08-10 10:46:32</time>
      </trkpt>
      <trkpt lat="42.83847" lon="-0.45556">
        <ele>1859.8</ele>
        <time>2021-08-10 10:46:33</time>
      </trkpt>
      <trkpt lat="42.83847" lon="-0.45555">
        <ele>1859.8</ele>
        <time>2021-08-10 10:46:34</time>
      </trkpt>
      <trkpt lat="42.83847" lon="-0.45554">
        <ele>1860.2</ele>
        <time>2021-08-10 10:46:35</time>
      </trkpt>
      <trkpt lat="42.83847" lon="-0.45553">
        <ele>1860.4</ele>
        <time>2021-08-10 10:46:36</time>
      </trkpt>
      <trkpt lat="42.83846" lon="-0.45553">
        <ele>1861.2</ele>
        <time>2021-08-10 10:46:37</time>
      </trkpt>
      <trkpt lat="42.83846" lon="-0.45552">
        <ele>1861</ele>
        <time>2021-08-10 10:46:38</time>
      </trkpt>
      <trkpt lat="42.83846" lon="-0.45551">
        <ele>1861.4</ele>
        <time>2021-08-10 10:46:39</time>
      </trkpt>
      <trkpt lat="42.83845" lon="-0.4555">
        <ele>1861.4</ele>
        <time>2021-08-10 10:46:40</time>
      </trkpt>
      <trkpt lat="42.83845" lon="-0.4555">
        <ele>1861.4</ele>
        <time>2021-08-10 10:46:41</time>
      </trkpt>
      <trkpt lat="42.83845" lon="-0.45549">
        <ele>1861.6</ele>
        <time>2021-08-10 10:46:42</time>
      </trkpt>
      <trkpt lat="42.83844" lon="-0.45549">
        <ele>1862</ele>
        <time>2021-08-10 10:46:43</time>
      </trkpt>
      <trkpt lat="42.83844" lon="-0.45548">
        <ele>1862</ele>
        <time>2021-08-10 10:46:44</time>
      </trkpt>
      <trkpt lat="42.83844" lon="-0.45548">
        <ele>1862</ele>
        <time>2021-08-10 10:46:45</time>
      </trkpt>
      <trkpt lat="42.83844" lon="-0.45548">
        <ele>1862</ele>
        <time>2021-08-10 10:46:46</time>
      </trkpt>
      <trkpt lat="42.83843" lon="-0.45547">
        <ele>1862</ele>
        <time>2021-08-10 10:46:47</time>
      </trkpt>
      <trkpt lat="42.83843" lon="-0.45547">
        <ele>1861.8</ele>
        <time>2021-08-10 10:46:48</time>
      </trkpt>
      <trkpt lat="42.83842" lon="-0.45548">
        <ele>1862</ele>
        <time>2021-08-10 10:46:49</time>
      </trkpt>
      <trkpt lat="42.83842" lon="-0.45548">
        <ele>1862.4</ele>
        <time>2021-08-10 10:46:50</time>
      </trkpt>
      <trkpt lat="42.83843" lon="-0.45547">
        <ele>1862.2</ele>
        <time>2021-08-10 10:46:51</time>
      </trkpt>
      <trkpt lat="42.83842" lon="-0.45547">
        <ele>1862.2</ele>
        <time>2021-08-10 10:46:52</time>
      </trkpt>
      <trkpt lat="42.83842" lon="-0.45547">
        <ele>1862.2</ele>
        <time>2021-08-10 10:46:53</time>
      </trkpt>
      <trkpt lat="42.83843" lon="-0.45547">
        <ele>1862</ele>
        <time>2021-08-10 10:46:54</time>
      </trkpt>
      <trkpt lat="42.83843" lon="-0.45547">
        <ele>1862</ele>
        <time>2021-08-10 10:46:55</time>
      </trkpt>
      <trkpt lat="42.83843" lon="-0.45547">
        <ele>1862</ele>
        <time>2021-08-10 10:46:56</time>
      </trkpt>
      <trkpt lat="42.83843" lon="-0.45547">
        <ele>1862</ele>
        <time>2021-08-10 10:46:57</time>
      </trkpt>
      <trkpt lat="42.83843" lon="-0.45546">
        <ele>1862</ele>
        <time>2021-08-10 10:46:58</time>
      </trkpt>
      <trkpt lat="42.83843" lon="-0.45547">
        <ele>1862</ele>
        <time>2021-08-10 10:46:59</time>
      </trkpt>
      <trkpt lat="42.83843" lon="-0.45546">
        <ele>1862.2</ele>
        <time>2021-08-10 10:47:00</time>
      </trkpt>
      <trkpt lat="42.83843" lon="-0.45547">
        <ele>1862</ele>
        <time>2021-08-10 10:47:01</time>
      </trkpt>
      <trkpt lat="42.83842" lon="-0.45547">
        <ele>1862</ele>
        <time>2021-08-10 10:47:02</time>
      </trkpt>
      <trkpt lat="42.83842" lon="-0.45548">
        <ele>1862</ele>
        <time>2021-08-10 10:47:03</time>
      </trkpt>
      <trkpt lat="42.83842" lon="-0.45548">
        <ele>1862.2</ele>
        <time>2021-08-10 10:47:04</time>
      </trkpt>
      <trkpt lat="42.83842" lon="-0.45548">
        <ele>1862.2</ele>
        <time>2021-08-10 10:47:05</time>
      </trkpt>
      <trkpt lat="42.83842" lon="-0.45549">
        <ele>1862.2</ele>
        <time>2021-08-10 10:47:06</time>
      </trkpt>
      <trkpt lat="42.83842" lon="-0.45549">
        <ele>1862.2</ele>
        <time>2021-08-10 10:47:07</time>
      </trkpt>
      <trkpt lat="42.83842" lon="-0.45549">
        <ele>1862</ele>
        <time>2021-08-10 10:47:08</time>
      </trkpt>
      <trkpt lat="42.83842" lon="-0.45549">
        <ele>1861.8</ele>
        <time>2021-08-10 10:47:09</time>
      </trkpt>
      <trkpt lat="42.83842" lon="-0.4555">
        <ele>1861.6</ele>
        <time>2021-08-10 10:47:10</time>
      </trkpt>
      <trkpt lat="42.83843" lon="-0.4555">
        <ele>1861.4</ele>
        <time>2021-08-10 10:47:11</time>
      </trkpt>
      <trkpt lat="42.83843" lon="-0.4555">
        <ele>1861.4</ele>
        <time>2021-08-10 10:47:13</time>
      </trkpt>
      <trkpt lat="42.83843" lon="-0.4555">
        <ele>1861.2</ele>
        <time>2021-08-10 10:47:14</time>
      </trkpt>
      <trkpt lat="42.83843" lon="-0.45549">
        <ele>1861.2</ele>
        <time>2021-08-10 10:47:15</time>
      </trkpt>
      <trkpt lat="42.83844" lon="-0.45547">
        <ele>1861.8</ele>
        <time>2021-08-10 10:47:16</time>
      </trkpt>
      <trkpt lat="42.83844" lon="-0.45546">
        <ele>1862</ele>
        <time>2021-08-10 10:47:17</time>
      </trkpt>
      <trkpt lat="42.83843" lon="-0.45546">
        <ele>1862.2</ele>
        <time>2021-08-10 10:47:18</time>
      </trkpt>
      <trkpt lat="42.83843" lon="-0.45546">
        <ele>1862.4</ele>
        <time>2021-08-10 10:47:19</time>
      </trkpt>
      <trkpt lat="42.83842" lon="-0.45546">
        <ele>1862.6</ele>
        <time>2021-08-10 10:47:20</time>
      </trkpt>
      <trkpt lat="42.83842" lon="-0.45547">
        <ele>1862.6</ele>
        <time>2021-08-10 10:47:21</time>
      </trkpt>
      <trkpt lat="42.83841" lon="-0.45547">
        <ele>1862.8</ele>
        <time>2021-08-10 10:47:22</time>
      </trkpt>
      <trkpt lat="42.8384" lon="-0.45546">
        <ele>1862.8</ele>
        <time>2021-08-10 10:47:23</time>
      </trkpt>
      <trkpt lat="42.8384" lon="-0.45545">
        <ele>1862.8</ele>
        <time>2021-08-10 10:47:24</time>
      </trkpt>
      <trkpt lat="42.83839" lon="-0.45545">
        <ele>1863</ele>
        <time>2021-08-10 10:47:25</time>
      </trkpt>
      <trkpt lat="42.83838" lon="-0.45545">
        <ele>1863</ele>
        <time>2021-08-10 10:47:26</time>
      </trkpt>
      <trkpt lat="42.83839" lon="-0.45545">
        <ele>1863.2</ele>
        <time>2021-08-10 10:47:27</time>
      </trkpt>
      <trkpt lat="42.83838" lon="-0.45545">
        <ele>1863.2</ele>
        <time>2021-08-10 10:47:28</time>
      </trkpt>
      <trkpt lat="42.83838" lon="-0.45544">
        <ele>1863.2</ele>
        <time>2021-08-10 10:47:29</time>
      </trkpt>
      <trkpt lat="42.83837" lon="-0.45544">
        <ele>1863.4</ele>
        <time>2021-08-10 10:47:30</time>
      </trkpt>
      <trkpt lat="42.83837" lon="-0.45544">
        <ele>1863.4</ele>
        <time>2021-08-10 10:47:31</time>
      </trkpt>
      <trkpt lat="42.83837" lon="-0.45543">
        <ele>1863.6</ele>
        <time>2021-08-10 10:47:32</time>
      </trkpt>
      <trkpt lat="42.83837" lon="-0.45543">
        <ele>1863.6</ele>
        <time>2021-08-10 10:47:33</time>
      </trkpt>
      <trkpt lat="42.83837" lon="-0.45542">
        <ele>1863.4</ele>
        <time>2021-08-10 10:47:34</time>
      </trkpt>
      <trkpt lat="42.83837" lon="-0.45541">
        <ele>1863.6</ele>
        <time>2021-08-10 10:47:35</time>
      </trkpt>
      <trkpt lat="42.83837" lon="-0.45541">
        <ele>1863.8</ele>
        <time>2021-08-10 10:47:36</time>
      </trkpt>
      <trkpt lat="42.83836" lon="-0.45541">
        <ele>1863.8</ele>
        <time>2021-08-10 10:47:37</time>
      </trkpt>
      <trkpt lat="42.83836" lon="-0.45541">
        <ele>1863.6</ele>
        <time>2021-08-10 10:47:38</time>
      </trkpt>
      <trkpt lat="42.83836" lon="-0.4554">
        <ele>1863.6</ele>
        <time>2021-08-10 10:47:39</time>
      </trkpt>
      <trkpt lat="42.83835" lon="-0.45539">
        <ele>1863.4</ele>
        <time>2021-08-10 10:47:40</time>
      </trkpt>
      <trkpt lat="42.83834" lon="-0.45538">
        <ele>1863.4</ele>
        <time>2021-08-10 10:47:41</time>
      </trkpt>
      <trkpt lat="42.83834" lon="-0.45537">
        <ele>1863.4</ele>
        <time>2021-08-10 10:47:42</time>
      </trkpt>
      <trkpt lat="42.83833" lon="-0.45537">
        <ele>1863.6</ele>
        <time>2021-08-10 10:47:43</time>
      </trkpt>
      <trkpt lat="42.83832" lon="-0.45536">
        <ele>1863.6</ele>
        <time>2021-08-10 10:47:44</time>
      </trkpt>
      <trkpt lat="42.83832" lon="-0.45536">
        <ele>1863.8</ele>
        <time>2021-08-10 10:47:45</time>
      </trkpt>
      <trkpt lat="42.83831" lon="-0.45535">
        <ele>1863.8</ele>
        <time>2021-08-10 10:47:46</time>
      </trkpt>
      <trkpt lat="42.83831" lon="-0.45535">
        <ele>1864</ele>
        <time>2021-08-10 10:47:47</time>
      </trkpt>
      <trkpt lat="42.83831" lon="-0.45535">
        <ele>1864</ele>
        <time>2021-08-10 10:47:48</time>
      </trkpt>
      <trkpt lat="42.83831" lon="-0.45535">
        <ele>1863.8</ele>
        <time>2021-08-10 10:47:49</time>
      </trkpt>
      <trkpt lat="42.83831" lon="-0.45533">
        <ele>1863.6</ele>
        <time>2021-08-10 10:47:50</time>
      </trkpt>
      <trkpt lat="42.8383" lon="-0.45533">
        <ele>1863.2</ele>
        <time>2021-08-10 10:47:51</time>
      </trkpt>
      <trkpt lat="42.8383" lon="-0.45531">
        <ele>1863</ele>
        <time>2021-08-10 10:47:52</time>
      </trkpt>
      <trkpt lat="42.83829" lon="-0.45531">
        <ele>1863</ele>
        <time>2021-08-10 10:47:53</time>
      </trkpt>
      <trkpt lat="42.83829" lon="-0.4553">
        <ele>1863.2</ele>
        <time>2021-08-10 10:47:54</time>
      </trkpt>
      <trkpt lat="42.83828" lon="-0.45529">
        <ele>1863.4</ele>
        <time>2021-08-10 10:47:55</time>
      </trkpt>
      <trkpt lat="42.83828" lon="-0.45528">
        <ele>1863.6</ele>
        <time>2021-08-10 10:47:56</time>
      </trkpt>
      <trkpt lat="42.83828" lon="-0.45527">
        <ele>1863.8</ele>
        <time>2021-08-10 10:47:57</time>
      </trkpt>
      <trkpt lat="42.83827" lon="-0.45527">
        <ele>1863.8</ele>
        <time>2021-08-10 10:47:58</time>
      </trkpt>
      <trkpt lat="42.83827" lon="-0.45526">
        <ele>1864</ele>
        <time>2021-08-10 10:47:59</time>
      </trkpt>
      <trkpt lat="42.83826" lon="-0.45525">
        <ele>1863.8</ele>
      </trkpt>
      <trkpt lat="42.83826" lon="-0.45524">
        <ele>1864.2</ele>
        <time>2021-08-10 10:48:01</time>
      </trkpt>
      <trkpt lat="42.83825" lon="-0.45523">
        <ele>1864.4</ele>
        <time>2021-08-10 10:48:03</time>
      </trkpt>
      <trkpt lat="42.83824" lon="-0.45523">
        <ele>1864.8</ele>
        <time>2021-08-10 10:48:04</time>
      </trkpt>
      <trkpt lat="42.83824" lon="-0.45522">
        <ele>1864.8</ele>
        <time>2021-08-10 10:48:05</time>
      </trkpt>
      <trkpt lat="42.83823" lon="-0.45521">
        <ele>1864.6</ele>
        <time>2021-08-10 10:48:16</time>
      </trkpt>
      <trkpt lat="42.83823" lon="-0.45521">
        <ele>1864.6</ele>
      </trkpt>
      <trkpt lat="42.83823" lon="-0.4552">
        <ele>1864.6</ele>
        <time>2021-08-10 10:48:17</time>
      </trkpt>
      <trkpt lat="42.83822" lon="-0.4552">
        <ele>1864.8</ele>
        <time>2021-08-10 10:48:18</time>
      </trkpt>
      <trkpt lat="42.83822" lon="-0.4552">
        <ele>1864.8</ele>
        <time>2021-08-10 10:48:19</time>
      </trkpt>
      <trkpt lat="42.83821" lon="-0.45519">
        <ele>1864.8</ele>
        <time>2021-08-10 10:48:21</time>
      </trkpt>
      <trkpt lat="42.83821" lon="-0.45519">
        <ele>1865</ele>
        <time>2021-08-10 10:48:22</time>
      </trkpt>
      <trkpt lat="42.83821" lon="-0.45519">
        <ele>1865.2</ele>
        <time>2021-08-10 10:48:23</time>
      </trkpt>
      <trkpt lat="42.83822" lon="-0.45518">
        <ele>1865.2</ele>
        <time>2021-08-10 10:48:24</time>
      </trkpt>
      <trkpt lat="42.83822" lon="-0.45518">
        <ele>1865.4</ele>
        <time>2021-08-10 10:48:25</time>
      </trkpt>
      <trkpt lat="42.83821" lon="-0.45517">
        <ele>1865.6</ele>
        <time>2021-08-10 10:48:26</time>
      </trkpt>
      <trkpt lat="42.83821" lon="-0.45517">
        <ele>1865.6</ele>
        <time>2021-08-10 10:48:27</time>
      </trkpt>
      <trkpt lat="42.83821" lon="-0.45517">
        <ele>1865.6</ele>
        <time>2021-08-10 10:48:28</time>
      </trkpt>
      <trkpt lat="42.83821" lon="-0.45517">
        <ele>1865.6</ele>
        <time>2021-08-10 10:48:29</time>
      </trkpt>
      <trkpt lat="42.8382" lon="-0.45517">
        <ele>1865.6</ele>
        <time>2021-08-10 10:48:30</time>
      </trkpt>
      <trkpt lat="42.8382" lon="-0.45515">
        <ele>1865.4</ele>
        <time>2021-08-10 10:48:31</time>
      </trkpt>
      <trkpt lat="42.8382" lon="-0.45514">
        <ele>1865.6</ele>
        <time>2021-08-10 10:48:32</time>
      </trkpt>
      <trkpt lat="42.83819" lon="-0.45513">
        <ele>1865.8</ele>
        <time>2021-08-10 10:48:33</time>
      </trkpt>
      <trkpt lat="42.83819" lon="-0.45512">
        <ele>1866.2</ele>
        <time>2021-08-10 10:48:35</time>
      </trkpt>
      <trkpt lat="42.83818" lon="-0.45512">
        <ele>1866.6</ele>
      </trkpt>
      <trkpt lat="42.83818" lon="-0.45511">
        <ele>1867</ele>
        <time>2021-08-10 10:48:36</time>
      </trkpt>
      <trkpt lat="42.83817" lon="-0.4551">
        <ele>1867.2</ele>
        <time>2021-08-10 10:48:37</time>
      </trkpt>
      <trkpt lat="42.83817" lon="-0.4551">
        <ele>1867.2</ele>
        <time>2021-08-10 10:48:38</time>
      </trkpt>
      <trkpt lat="42.83816" lon="-0.45509">
        <ele>1867.2</ele>
        <time>2021-08-10 10:49:07</time>
      </trkpt>
      <trkpt lat="42.83816" lon="-0.45509">
        <ele>1867.4</ele>
        <time>2021-08-10 10:49:08</time>
      </trkpt>
      <trkpt lat="42.83817" lon="-0.45507">
        <ele>1867.4</ele>
        <time>2021-08-10 10:49:09</time>
      </trkpt>
      <trkpt lat="42.83817" lon="-0.45507">
        <ele>1867.6</ele>
        <time>2021-08-10 10:49:10</time>
      </trkpt>
      <trkpt lat="42.83816" lon="-0.45507">
        <ele>1867.4</ele>
        <time>2021-08-10 10:49:11</time>
      </trkpt>
      <trkpt lat="42.83815" lon="-0.45507">
        <ele>1867.4</ele>
        <time>2021-08-10 10:49:12</time>
      </trkpt>
      <trkpt lat="42.83815" lon="-0.45506">
        <ele>1867.2</ele>
        <time>2021-08-10 10:49:13</time>
      </trkpt>
      <trkpt lat="42.83814" lon="-0.45505">
        <ele>1867.4</ele>
        <time>2021-08-10 10:49:14</time>
      </trkpt>
      <trkpt lat="42.83814" lon="-0.45504">
        <ele>1867.4</ele>
        <time>2021-08-10 10:49:15</time>
      </trkpt>
      <trkpt lat="42.83813" lon="-0.45504">
        <ele>1867.8</ele>
        <time>2021-08-10 10:49:16</time>
      </trkpt>
      <trkpt lat="42.83813" lon="-0.45503">
        <ele>1867.8</ele>
        <time>2021-08-10 10:49:17</time>
      </trkpt>
      <trkpt lat="42.83812" lon="-0.45502">
        <ele>1868</ele>
        <time>2021-08-10 10:49:18</time>
      </trkpt>
      <trkpt lat="42.83812" lon="-0.455">
        <ele>1868.2</ele>
        <time>2021-08-10 10:49:19</time>
      </trkpt>
      <trkpt lat="42.83811" lon="-0.45499">
        <ele>1868.2</ele>
        <time>2021-08-10 10:49:20</time>
      </trkpt>
      <trkpt lat="42.83811" lon="-0.45498">
        <ele>1868.4</ele>
        <time>2021-08-10 10:49:21</time>
      </trkpt>
      <trkpt lat="42.8381" lon="-0.45497">
        <ele>1868.6</ele>
        <time>2021-08-10 10:49:22</time>
      </trkpt>
      <trkpt lat="42.83809" lon="-0.45497">
        <ele>1869</ele>
        <time>2021-08-10 10:49:23</time>
      </trkpt>
      <trkpt lat="42.83808" lon="-0.45497">
        <ele>1869.2</ele>
        <time>2021-08-10 10:49:24</time>
      </trkpt>
      <trkpt lat="42.83808" lon="-0.45496">
        <ele>1869.4</ele>
        <time>2021-08-10 10:49:27</time>
      </trkpt>
      <trkpt lat="42.83807" lon="-0.45496">
        <ele>1869.6</ele>
        <time>2021-08-10 10:49:28</time>
      </trkpt>
      <trkpt lat="42.83807" lon="-0.45494">
        <ele>1869.6</ele>
        <time>2021-08-10 10:49:29</time>
      </trkpt>
      <trkpt lat="42.83806" lon="-0.45493">
        <ele>1869.6</ele>
        <time>2021-08-10 10:49:30</time>
      </trkpt>
      <trkpt lat="42.83806" lon="-0.45492">
        <ele>1869.6</ele>
        <time>2021-08-10 10:49:31</time>
      </trkpt>
      <trkpt lat="42.83805" lon="-0.45492">
        <ele>1870</ele>
        <time>2021-08-10 10:49:32</time>
      </trkpt>
      <trkpt lat="42.83805" lon="-0.45491">
        <ele>1870.2</ele>
        <time>2021-08-10 10:49:33</time>
      </trkpt>
      <trkpt lat="42.83804" lon="-0.45491">
        <ele>1870</ele>
        <time>2021-08-10 10:49:34</time>
      </trkpt>
      <trkpt lat="42.83803" lon="-0.4549">
        <ele>1870.2</ele>
        <time>2021-08-10 10:49:35</time>
      </trkpt>
      <trkpt lat="42.83802" lon="-0.45489">
        <ele>1870.2</ele>
        <time>2021-08-10 10:49:36</time>
      </trkpt>
      <trkpt lat="42.83801" lon="-0.45488">
        <ele>1870.4</ele>
        <time>2021-08-10 10:49:37</time>
      </trkpt>
      <trkpt lat="42.838" lon="-0.45488">
        <ele>1870.6</ele>
        <time>2021-08-10 10:49:38</time>
      </trkpt>
      <trkpt lat="42.838" lon="-0.45487">
        <ele>1870.6</ele>
        <time>2021-08-10 10:49:39</time>
      </trkpt>
      <trkpt lat="42.83799" lon="-0.45485">
        <ele>1870.8</ele>
        <time>2021-08-10 10:49:40</time>
      </trkpt>
      <trkpt lat="42.83799" lon="-0.45484">
        <ele>1870.8</ele>
        <time>2021-08-10 10:49:41</time>
      </trkpt>
      <trkpt lat="42.83798" lon="-0.45484">
        <ele>1871</ele>
        <time>2021-08-10 10:49:42</time>
      </trkpt>
      <trkpt lat="42.83798" lon="-0.45483">
        <ele>1871.2</ele>
        <time>2021-08-10 10:49:50</time>
      </trkpt>
      <trkpt lat="42.83798" lon="-0.45481">
        <ele>1871.2</ele>
        <time>2021-08-10 10:49:51</time>
      </trkpt>
      <trkpt lat="42.83797" lon="-0.45481">
        <ele>1871.4</ele>
        <time>2021-08-10 10:49:52</time>
      </trkpt>
      <trkpt lat="42.83797" lon="-0.4548">
        <ele>1871.2</ele>
        <time>2021-08-10 10:49:53</time>
      </trkpt>
      <trkpt lat="42.83796" lon="-0.45479">
        <ele>1871.4</ele>
        <time>2021-08-10 10:49:54</time>
      </trkpt>
      <trkpt lat="42.83796" lon="-0.45477">
        <ele>1871.4</ele>
        <time>2021-08-10 10:49:55</time>
      </trkpt>
      <trkpt lat="42.83796" lon="-0.45476">
        <ele>1871.8</ele>
        <time>2021-08-10 10:49:56</time>
      </trkpt>
      <trkpt lat="42.83795" lon="-0.45475">
        <ele>1871.8</ele>
        <time>2021-08-10 10:49:57</time>
      </trkpt>
      <trkpt lat="42.83795" lon="-0.45474">
        <ele>1872</ele>
        <time>2021-08-10 10:49:58</time>
      </trkpt>
      <trkpt lat="42.83795" lon="-0.45473">
        <ele>1872</ele>
        <time>2021-08-10 10:49:59</time>
      </trkpt>
      <trkpt lat="42.83794" lon="-0.45472">
        <ele>1872.2</ele>
        <time>2021-08-10 10:50:00</time>
      </trkpt>
      <trkpt lat="42.83793" lon="-0.45471">
        <ele>1872.4</ele>
        <time>2021-08-10 10:50:01</time>
      </trkpt>
      <trkpt lat="42.83793" lon="-0.4547">
        <ele>1872.4</ele>
        <time>2021-08-10 10:50:02</time>
      </trkpt>
      <trkpt lat="42.83793" lon="-0.4547">
        <ele>1872.8</ele>
        <time>2021-08-10 10:50:03</time>
      </trkpt>
      <trkpt lat="42.83792" lon="-0.45469">
        <ele>1872.6</ele>
        <time>2021-08-10 10:50:04</time>
      </trkpt>
      <trkpt lat="42.83791" lon="-0.45468">
        <ele>1872.8</ele>
        <time>2021-08-10 10:50:05</time>
      </trkpt>
      <trkpt lat="42.83791" lon="-0.45468">
        <ele>1872.8</ele>
        <time>2021-08-10 10:50:06</time>
      </trkpt>
      <trkpt lat="42.8379" lon="-0.45467">
        <ele>1872.6</ele>
        <time>2021-08-10 10:50:07</time>
      </trkpt>
      <trkpt lat="42.8379" lon="-0.45466">
        <ele>1872.8</ele>
        <time>2021-08-10 10:50:08</time>
      </trkpt>
      <trkpt lat="42.8379" lon="-0.45464">
        <ele>1872.8</ele>
        <time>2021-08-10 10:50:09</time>
      </trkpt>
      <trkpt lat="42.83789" lon="-0.45463">
        <ele>1873.2</ele>
        <time>2021-08-10 10:50:10</time>
      </trkpt>
      <trkpt lat="42.83789" lon="-0.45463">
        <ele>1873.2</ele>
        <time>2021-08-10 10:50:11</time>
      </trkpt>
      <trkpt lat="42.83788" lon="-0.45462">
        <ele>1873.4</ele>
        <time>2021-08-10 10:50:12</time>
      </trkpt>
      <trkpt lat="42.83788" lon="-0.45461">
        <ele>1873.4</ele>
        <time>2021-08-10 10:50:17</time>
      </trkpt>
      <trkpt lat="42.83787" lon="-0.45461">
        <ele>1873.6</ele>
        <time>2021-08-10 10:50:18</time>
      </trkpt>
      <trkpt lat="42.83787" lon="-0.4546">
        <ele>1873.6</ele>
        <time>2021-08-10 10:50:19</time>
      </trkpt>
      <trkpt lat="42.83786" lon="-0.4546">
        <ele>1874</ele>
        <time>2021-08-10 10:50:20</time>
      </trkpt>
      <trkpt lat="42.83786" lon="-0.45459">
        <ele>1874.4</ele>
        <time>2021-08-10 10:50:21</time>
      </trkpt>
      <trkpt lat="42.83786" lon="-0.45458">
        <ele>1874.4</ele>
        <time>2021-08-10 10:50:22</time>
      </trkpt>
      <trkpt lat="42.83785" lon="-0.45457">
        <ele>1874.4</ele>
        <time>2021-08-10 10:50:23</time>
      </trkpt>
      <trkpt lat="42.83785" lon="-0.45457">
        <ele>1874.6</ele>
        <time>2021-08-10 10:50:24</time>
      </trkpt>
      <trkpt lat="42.83785" lon="-0.45456">
        <ele>1874.6</ele>
        <time>2021-08-10 10:50:25</time>
      </trkpt>
      <trkpt lat="42.83784" lon="-0.45455">
        <ele>1874.8</ele>
        <time>2021-08-10 10:50:26</time>
      </trkpt>
      <trkpt lat="42.83784" lon="-0.45454">
        <ele>1874.8</ele>
        <time>2021-08-10 10:50:27</time>
      </trkpt>
      <trkpt lat="42.83783" lon="-0.45453">
        <ele>1875</ele>
        <time>2021-08-10 10:50:28</time>
      </trkpt>
      <trkpt lat="42.83783" lon="-0.45452">
        <ele>1875</ele>
        <time>2021-08-10 10:50:29</time>
      </trkpt>
      <trkpt lat="42.83782" lon="-0.45451">
        <ele>1875.2</ele>
        <time>2021-08-10 10:50:30</time>
      </trkpt>
      <trkpt lat="42.83782" lon="-0.4545">
        <ele>1875.4</ele>
        <time>2021-08-10 10:50:31</time>
      </trkpt>
      <trkpt lat="42.83781" lon="-0.45449">
        <ele>1875.6</ele>
        <time>2021-08-10 10:50:32</time>
      </trkpt>
      <trkpt lat="42.83781" lon="-0.45448">
        <ele>1875.6</ele>
        <time>2021-08-10 10:50:33</time>
      </trkpt>
      <trkpt lat="42.8378" lon="-0.45447">
        <ele>1875.6</ele>
        <time>2021-08-10 10:50:34</time>
      </trkpt>
      <trkpt lat="42.8378" lon="-0.45446">
        <ele>1876</ele>
        <time>2021-08-10 10:50:35</time>
      </trkpt>
      <trkpt lat="42.8378" lon="-0.45444">
        <ele>1876</ele>
        <time>2021-08-10 10:50:36</time>
      </trkpt>
      <trkpt lat="42.83779" lon="-0.45444">
        <ele>1876.2</ele>
        <time>2021-08-10 10:50:37</time>
      </trkpt>
      <trkpt lat="42.83778" lon="-0.45443">
        <ele>1876</ele>
        <time>2021-08-10 10:50:38</time>
      </trkpt>
      <trkpt lat="42.83777" lon="-0.45444">
        <ele>1876</ele>
        <time>2021-08-10 10:50:39</time>
      </trkpt>
      <trkpt lat="42.83776" lon="-0.45443">
        <ele>1876</ele>
        <time>2021-08-10 10:50:40</time>
      </trkpt>
      <trkpt lat="42.83775" lon="-0.45442">
        <ele>1876.4</ele>
        <time>2021-08-10 10:50:41</time>
      </trkpt>
      <trkpt lat="42.83775" lon="-0.45442">
        <ele>1876.6</ele>
        <time>2021-08-10 10:50:42</time>
      </trkpt>
      <trkpt lat="42.83774" lon="-0.45441">
        <ele>1876.6</ele>
        <time>2021-08-10 10:50:43</time>
      </trkpt>
      <trkpt lat="42.83774" lon="-0.4544">
        <ele>1876.8</ele>
        <time>2021-08-10 10:50:44</time>
      </trkpt>
      <trkpt lat="42.83774" lon="-0.4544">
        <ele>1877.2</ele>
        <time>2021-08-10 10:50:45</time>
      </trkpt>
      <trkpt lat="42.83774" lon="-0.45439">
        <ele>1877.4</ele>
        <time>2021-08-10 10:50:46</time>
      </trkpt>
      <trkpt lat="42.83773" lon="-0.45438">
        <ele>1877.4</ele>
        <time>2021-08-10 10:50:47</time>
      </trkpt>
      <trkpt lat="42.83773" lon="-0.45438">
        <ele>1877.4</ele>
        <time>2021-08-10 10:50:48</time>
      </trkpt>
      <trkpt lat="42.83773" lon="-0.45437">
        <ele>1877.8</ele>
        <time>2021-08-10 10:50:49</time>
      </trkpt>
      <trkpt lat="42.83772" lon="-0.45436">
        <ele>1877.8</ele>
        <time>2021-08-10 10:50:50</time>
      </trkpt>
      <trkpt lat="42.83772" lon="-0.45435">
        <ele>1877.8</ele>
        <time>2021-08-10 10:50:51</time>
      </trkpt>
      <trkpt lat="42.83772" lon="-0.45435">
        <ele>1878</ele>
        <time>2021-08-10 10:50:52</time>
      </trkpt>
      <trkpt lat="42.83772" lon="-0.45434">
        <ele>1878.2</ele>
        <time>2021-08-10 10:50:53</time>
      </trkpt>
      <trkpt lat="42.83772" lon="-0.45434">
        <ele>1878.4</ele>
        <time>2021-08-10 10:50:54</time>
      </trkpt>
      <trkpt lat="42.83772" lon="-0.45434">
        <ele>1878.6</ele>
        <time>2021-08-10 10:50:55</time>
      </trkpt>
      <trkpt lat="42.83772" lon="-0.45433">
        <ele>1878.8</ele>
        <time>2021-08-10 10:50:56</time>
      </trkpt>
      <trkpt lat="42.83771" lon="-0.45432">
        <ele>1879</ele>
        <time>2021-08-10 10:50:57</time>
      </trkpt>
      <trkpt lat="42.83771" lon="-0.45432">
        <ele>1878.8</ele>
        <time>2021-08-10 10:50:58</time>
      </trkpt>
      <trkpt lat="42.83771" lon="-0.45431">
        <ele>1879.2</ele>
        <time>2021-08-10 10:50:59</time>
      </trkpt>
      <trkpt lat="42.83771" lon="-0.45431">
        <ele>1879.2</ele>
        <time>2021-08-10 10:51:00</time>
      </trkpt>
      <trkpt lat="42.83771" lon="-0.45429">
        <ele>1879.6</ele>
        <time>2021-08-10 10:51:01</time>
      </trkpt>
      <trkpt lat="42.8377" lon="-0.45429">
        <ele>1879.8</ele>
        <time>2021-08-10 10:51:02</time>
      </trkpt>
      <trkpt lat="42.83771" lon="-0.45428">
        <ele>1879.8</ele>
        <time>2021-08-10 10:51:03</time>
      </trkpt>
      <trkpt lat="42.8377" lon="-0.45427">
        <ele>1880</ele>
        <time>2021-08-10 10:51:04</time>
      </trkpt>
      <trkpt lat="42.8377" lon="-0.45427">
        <ele>1879.8</ele>
        <time>2021-08-10 10:51:05</time>
      </trkpt>
      <trkpt lat="42.8377" lon="-0.45426">
        <ele>1880</ele>
        <time>2021-08-10 10:51:06</time>
      </trkpt>
      <trkpt lat="42.8377" lon="-0.45426">
        <ele>1880.2</ele>
        <time>2021-08-10 10:51:07</time>
      </trkpt>
      <trkpt lat="42.83769" lon="-0.45425">
        <ele>1880.4</ele>
        <time>2021-08-10 10:51:08</time>
      </trkpt>
      <trkpt lat="42.83769" lon="-0.45425">
        <ele>1880.6</ele>
        <time>2021-08-10 10:51:09</time>
      </trkpt>
      <trkpt lat="42.83768" lon="-0.45425">
        <ele>1880.6</ele>
        <time>2021-08-10 10:51:10</time>
      </trkpt>
      <trkpt lat="42.83768" lon="-0.45423">
        <ele>1880.8</ele>
        <time>2021-08-10 10:51:11</time>
      </trkpt>
      <trkpt lat="42.83767" lon="-0.45423">
        <ele>1880.8</ele>
        <time>2021-08-10 10:51:12</time>
      </trkpt>
      <trkpt lat="42.83767" lon="-0.45422">
        <ele>1881.2</ele>
        <time>2021-08-10 10:51:13</time>
      </trkpt>
      <trkpt lat="42.83766" lon="-0.45422">
        <ele>1881.2</ele>
        <time>2021-08-10 10:51:14</time>
      </trkpt>
      <trkpt lat="42.83766" lon="-0.45421">
        <ele>1881.2</ele>
        <time>2021-08-10 10:51:15</time>
      </trkpt>
      <trkpt lat="42.83765" lon="-0.4542">
        <ele>1881.4</ele>
        <time>2021-08-10 10:51:16</time>
      </trkpt>
      <trkpt lat="42.83765" lon="-0.4542">
        <ele>1882</ele>
        <time>2021-08-10 10:51:17</time>
      </trkpt>
      <trkpt lat="42.83765" lon="-0.4542">
        <ele>1881.8</ele>
        <time>2021-08-10 10:51:18</time>
      </trkpt>
      <trkpt lat="42.83764" lon="-0.45419">
        <ele>1882</ele>
        <time>2021-08-10 10:51:19</time>
      </trkpt>
      <trkpt lat="42.83764" lon="-0.45419">
        <ele>1882</ele>
        <time>2021-08-10 10:51:20</time>
      </trkpt>
      <trkpt lat="42.83763" lon="-0.45418">
        <ele>1882.2</ele>
        <time>2021-08-10 10:51:21</time>
      </trkpt>
      <trkpt lat="42.83763" lon="-0.45417">
        <ele>1882.2</ele>
        <time>2021-08-10 10:51:22</time>
      </trkpt>
      <trkpt lat="42.83763" lon="-0.45417">
        <ele>1882.6</ele>
        <time>2021-08-10 10:51:23</time>
      </trkpt>
      <trkpt lat="42.83763" lon="-0.45416">
        <ele>1882.6</ele>
        <time>2021-08-10 10:51:24</time>
      </trkpt>
      <trkpt lat="42.83762" lon="-0.45415">
        <ele>1882.6</ele>
        <time>2021-08-10 10:51:25</time>
      </trkpt>
      <trkpt lat="42.83762" lon="-0.45414">
        <ele>1882.4</ele>
        <time>2021-08-10 10:51:26</time>
      </trkpt>
      <trkpt lat="42.83762" lon="-0.45413">
        <ele>1883</ele>
        <time>2021-08-10 10:51:27</time>
      </trkpt>
      <trkpt lat="42.83763" lon="-0.45412">
        <ele>1883.2</ele>
        <time>2021-08-10 10:51:28</time>
      </trkpt>
      <trkpt lat="42.83763" lon="-0.45412">
        <ele>1883.6</ele>
        <time>2021-08-10 10:51:29</time>
      </trkpt>
      <trkpt lat="42.83763" lon="-0.45411">
        <ele>1883.6</ele>
        <time>2021-08-10 10:51:30</time>
      </trkpt>
      <trkpt lat="42.83763" lon="-0.4541">
        <ele>1883.6</ele>
        <time>2021-08-10 10:51:31</time>
      </trkpt>
      <trkpt lat="42.83763" lon="-0.4541">
        <ele>1883.8</ele>
        <time>2021-08-10 10:51:32</time>
      </trkpt>
      <trkpt lat="42.83763" lon="-0.45409">
        <ele>1883.4</ele>
        <time>2021-08-10 10:51:33</time>
      </trkpt>
      <trkpt lat="42.83763" lon="-0.45409">
        <ele>1883.4</ele>
        <time>2021-08-10 10:51:34</time>
      </trkpt>
      <trkpt lat="42.83764" lon="-0.45409">
        <ele>1884</ele>
        <time>2021-08-10 10:51:35</time>
      </trkpt>
      <trkpt lat="42.83764" lon="-0.45408">
        <ele>1884</ele>
        <time>2021-08-10 10:51:36</time>
      </trkpt>
      <trkpt lat="42.83764" lon="-0.45408">
        <ele>1883.6</ele>
        <time>2021-08-10 10:51:37</time>
      </trkpt>
      <trkpt lat="42.83764" lon="-0.45407">
        <ele>1884.2</ele>
        <time>2021-08-10 10:51:38</time>
      </trkpt>
      <trkpt lat="42.83764" lon="-0.45407">
        <ele>1884.6</ele>
        <time>2021-08-10 10:51:39</time>
      </trkpt>
      <trkpt lat="42.83764" lon="-0.45407">
        <ele>1884.2</ele>
        <time>2021-08-10 10:51:40</time>
      </trkpt>
      <trkpt lat="42.83764" lon="-0.45407">
        <ele>1884.4</ele>
        <time>2021-08-10 10:51:41</time>
      </trkpt>
      <trkpt lat="42.83764" lon="-0.45407">
        <ele>1884.6</ele>
        <time>2021-08-10 10:51:42</time>
      </trkpt>
      <trkpt lat="42.83764" lon="-0.45407">
        <ele>1884.4</ele>
        <time>2021-08-10 10:51:43</time>
      </trkpt>
      <trkpt lat="42.83764" lon="-0.45406">
        <ele>1884.4</ele>
        <time>2021-08-10 10:51:44</time>
      </trkpt>
      <trkpt lat="42.83765" lon="-0.45406">
        <ele>1884.4</ele>
        <time>2021-08-10 10:51:45</time>
      </trkpt>
      <trkpt lat="42.83765" lon="-0.45406">
        <ele>1885</ele>
        <time>2021-08-10 10:51:46</time>
      </trkpt>
      <trkpt lat="42.83765" lon="-0.45406">
        <ele>1884.8</ele>
        <time>2021-08-10 10:51:47</time>
      </trkpt>
      <trkpt lat="42.83765" lon="-0.45406">
        <ele>1885</ele>
        <time>2021-08-10 10:51:48</time>
      </trkpt>
      <trkpt lat="42.83765" lon="-0.45406">
        <ele>1885</ele>
        <time>2021-08-10 10:51:49</time>
      </trkpt>
      <trkpt lat="42.83766" lon="-0.45405">
        <ele>1885</ele>
        <time>2021-08-10 10:51:50</time>
      </trkpt>
      <trkpt lat="42.83765" lon="-0.45403">
        <ele>1885</ele>
        <time>2021-08-10 10:51:51</time>
      </trkpt>
      <trkpt lat="42.83765" lon="-0.45403">
        <ele>1884.8</ele>
        <time>2021-08-10 10:51:52</time>
      </trkpt>
      <trkpt lat="42.83765" lon="-0.45402">
        <ele>1885</ele>
        <time>2021-08-10 10:51:53</time>
      </trkpt>
      <trkpt lat="42.83765" lon="-0.45402">
        <ele>1884.8</ele>
        <time>2021-08-10 10:51:54</time>
      </trkpt>
      <trkpt lat="42.83765" lon="-0.45401">
        <ele>1885.2</ele>
        <time>2021-08-10 10:51:55</time>
      </trkpt>
      <trkpt lat="42.83766" lon="-0.45401">
        <ele>1885.2</ele>
        <time>2021-08-10 10:51:56</time>
      </trkpt>
      <trkpt lat="42.83766" lon="-0.45401">
        <ele>1885.6</ele>
        <time>2021-08-10 10:51:57</time>
      </trkpt>
      <trkpt lat="42.83767" lon="-0.454">
        <ele>1885.8</ele>
        <time>2021-08-10 10:51:58</time>
      </trkpt>
      <trkpt lat="42.83767" lon="-0.45399">
        <ele>1885.8</ele>
        <time>2021-08-10 10:51:59</time>
      </trkpt>
      <trkpt lat="42.83767" lon="-0.45399">
        <ele>1885.4</ele>
        <time>2021-08-10 10:52:00</time>
      </trkpt>
      <trkpt lat="42.83767" lon="-0.45398">
        <ele>1885.8</ele>
        <time>2021-08-10 10:52:01</time>
      </trkpt>
      <trkpt lat="42.83768" lon="-0.45397">
        <ele>1886</ele>
        <time>2021-08-10 10:52:02</time>
      </trkpt>
      <trkpt lat="42.83768" lon="-0.45396">
        <ele>1886.4</ele>
        <time>2021-08-10 10:52:03</time>
      </trkpt>
      <trkpt lat="42.83768" lon="-0.45395">
        <ele>1886.6</ele>
        <time>2021-08-10 10:52:04</time>
      </trkpt>
      <trkpt lat="42.83769" lon="-0.45395">
        <ele>1886.4</ele>
        <time>2021-08-10 10:52:05</time>
      </trkpt>
      <trkpt lat="42.8377" lon="-0.45394">
        <ele>1886.8</ele>
        <time>2021-08-10 10:52:06</time>
      </trkpt>
      <trkpt lat="42.8377" lon="-0.45393">
        <ele>1887</ele>
        <time>2021-08-10 10:52:08</time>
      </trkpt>
      <trkpt lat="42.8377" lon="-0.45393">
        <ele>1887.4</ele>
        <time>2021-08-10 10:52:09</time>
      </trkpt>
      <trkpt lat="42.83771" lon="-0.45392">
        <ele>1887.4</ele>
        <time>2021-08-10 10:52:10</time>
      </trkpt>
      <trkpt lat="42.83771" lon="-0.45392">
        <ele>1887.8</ele>
        <time>2021-08-10 10:52:11</time>
      </trkpt>
      <trkpt lat="42.83772" lon="-0.45392">
        <ele>1887.6</ele>
        <time>2021-08-10 10:52:12</time>
      </trkpt>
      <trkpt lat="42.83772" lon="-0.4539">
        <ele>1887.8</ele>
        <time>2021-08-10 10:52:13</time>
      </trkpt>
      <trkpt lat="42.83772" lon="-0.4539">
        <ele>1887.6</ele>
        <time>2021-08-10 10:52:14</time>
      </trkpt>
      <trkpt lat="42.83773" lon="-0.45389">
        <ele>1888</ele>
        <time>2021-08-10 10:52:15</time>
      </trkpt>
      <trkpt lat="42.83774" lon="-0.45389">
        <ele>1888</ele>
        <time>2021-08-10 10:52:16</time>
      </trkpt>
      <trkpt lat="42.83774" lon="-0.45388">
        <ele>1888.2</ele>
        <time>2021-08-10 10:52:17</time>
      </trkpt>
      <trkpt lat="42.83775" lon="-0.45388">
        <ele>1888.4</ele>
        <time>2021-08-10 10:52:18</time>
      </trkpt>
      <trkpt lat="42.83776" lon="-0.45387">
        <ele>1888.8</ele>
        <time>2021-08-10 10:52:19</time>
      </trkpt>
      <trkpt lat="42.83776" lon="-0.45386">
        <ele>1888.8</ele>
        <time>2021-08-10 10:52:20</time>
      </trkpt>
      <trkpt lat="42.83776" lon="-0.45386">
        <ele>1888.6</ele>
        <time>2021-08-10 10:52:21</time>
      </trkpt>
      <trkpt lat="42.83777" lon="-0.45385">
        <ele>1888.8</ele>
        <time>2021-08-10 10:52:22</time>
      </trkpt>
      <trkpt lat="42.83776" lon="-0.45384">
        <ele>1889.2</ele>
        <time>2021-08-10 10:52:23</time>
      </trkpt>
      <trkpt lat="42.83776" lon="-0.45383">
        <ele>1889.2</ele>
        <time>2021-08-10 10:52:24</time>
      </trkpt>
      <trkpt lat="42.83776" lon="-0.45382">
        <ele>1889.6</ele>
        <time>2021-08-10 10:52:25</time>
      </trkpt>
      <trkpt lat="42.83776" lon="-0.45381">
        <ele>1889.6</ele>
        <time>2021-08-10 10:52:26</time>
      </trkpt>
      <trkpt lat="42.83776" lon="-0.4538">
        <ele>1889.8</ele>
        <time>2021-08-10 10:52:27</time>
      </trkpt>
      <trkpt lat="42.83777" lon="-0.4538">
        <ele>1890</ele>
        <time>2021-08-10 10:52:28</time>
      </trkpt>
      <trkpt lat="42.83777" lon="-0.4538">
        <ele>1890.2</ele>
        <time>2021-08-10 10:52:29</time>
      </trkpt>
      <trkpt lat="42.83777" lon="-0.45379">
        <ele>1890.4</ele>
        <time>2021-08-10 10:52:30</time>
      </trkpt>
      <trkpt lat="42.83777" lon="-0.45378">
        <ele>1890.6</ele>
        <time>2021-08-10 10:52:31</time>
      </trkpt>
      <trkpt lat="42.83777" lon="-0.45378">
        <ele>1890.4</ele>
        <time>2021-08-10 10:52:32</time>
      </trkpt>
      <trkpt lat="42.83777" lon="-0.45377">
        <ele>1890.6</ele>
        <time>2021-08-10 10:52:33</time>
      </trkpt>
      <trkpt lat="42.83777" lon="-0.45376">
        <ele>1890.8</ele>
        <time>2021-08-10 10:52:34</time>
      </trkpt>
      <trkpt lat="42.83778" lon="-0.45376">
        <ele>1890.4</ele>
        <time>2021-08-10 10:52:35</time>
      </trkpt>
      <trkpt lat="42.83778" lon="-0.45375">
        <ele>1890.4</ele>
        <time>2021-08-10 10:52:36</time>
      </trkpt>
      <trkpt lat="42.83779" lon="-0.45373">
        <ele>1890.4</ele>
        <time>2021-08-10 10:52:37</time>
      </trkpt>
      <trkpt lat="42.83779" lon="-0.45372">
        <ele>1890.8</ele>
        <time>2021-08-10 10:52:38</time>
      </trkpt>
      <trkpt lat="42.83778" lon="-0.45372">
        <ele>1891.2</ele>
        <time>2021-08-10 10:52:39</time>
      </trkpt>
      <trkpt lat="42.8378" lon="-0.45372">
        <ele>1891.4</ele>
        <time>2021-08-10 10:52:40</time>
      </trkpt>
      <trkpt lat="42.8378" lon="-0.45372">
        <ele>1891.4</ele>
        <time>2021-08-10 10:52:41</time>
      </trkpt>
      <trkpt lat="42.8378" lon="-0.45371">
        <ele>1891.2</ele>
        <time>2021-08-10 10:52:42</time>
      </trkpt>
      <trkpt lat="42.8378" lon="-0.4537">
        <ele>1891.4</ele>
        <time>2021-08-10 10:52:43</time>
      </trkpt>
      <trkpt lat="42.8378" lon="-0.45369">
        <ele>1891.8</ele>
        <time>2021-08-10 10:52:44</time>
      </trkpt>
      <trkpt lat="42.8378" lon="-0.45368">
        <ele>1892</ele>
        <time>2021-08-10 10:52:45</time>
      </trkpt>
      <trkpt lat="42.8378" lon="-0.45368">
        <ele>1892.2</ele>
        <time>2021-08-10 10:52:46</time>
      </trkpt>
      <trkpt lat="42.8378" lon="-0.45368">
        <ele>1892.4</ele>
        <time>2021-08-10 10:52:47</time>
      </trkpt>
      <trkpt lat="42.83779" lon="-0.45367">
        <ele>1892.4</ele>
        <time>2021-08-10 10:52:48</time>
      </trkpt>
      <trkpt lat="42.83779" lon="-0.45366">
        <ele>1892.6</ele>
        <time>2021-08-10 10:52:49</time>
      </trkpt>
      <trkpt lat="42.83779" lon="-0.45366">
        <ele>1892.8</ele>
        <time>2021-08-10 10:52:50</time>
      </trkpt>
      <trkpt lat="42.83779" lon="-0.45365">
        <ele>1893.6</ele>
        <time>2021-08-10 10:52:51</time>
      </trkpt>
      <trkpt lat="42.83779" lon="-0.45364">
        <ele>1893.6</ele>
        <time>2021-08-10 10:52:52</time>
      </trkpt>
      <trkpt lat="42.83779" lon="-0.45364">
        <ele>1893.4</ele>
        <time>2021-08-10 10:53:00</time>
      </trkpt>
      <trkpt lat="42.83779" lon="-0.45363">
        <ele>1893.4</ele>
        <time>2021-08-10 10:53:01</time>
      </trkpt>
      <trkpt lat="42.83779" lon="-0.45363">
        <ele>1893.4</ele>
        <time>2021-08-10 10:53:02</time>
      </trkpt>
      <trkpt lat="42.83779" lon="-0.45362">
        <ele>1893.8</ele>
        <time>2021-08-10 10:53:04</time>
      </trkpt>
      <trkpt lat="42.83779" lon="-0.45362">
        <ele>1893.8</ele>
        <time>2021-08-10 10:53:05</time>
      </trkpt>
      <trkpt lat="42.83779" lon="-0.45362">
        <ele>1893.6</ele>
        <time>2021-08-10 10:53:06</time>
      </trkpt>
      <trkpt lat="42.83779" lon="-0.45361">
        <ele>1893.8</ele>
        <time>2021-08-10 10:53:07</time>
      </trkpt>
      <trkpt lat="42.83779" lon="-0.4536">
        <ele>1893.8</ele>
        <time>2021-08-10 10:53:08</time>
      </trkpt>
      <trkpt lat="42.8378" lon="-0.45359">
        <ele>1894</ele>
        <time>2021-08-10 10:53:09</time>
      </trkpt>
      <trkpt lat="42.8378" lon="-0.45359">
        <ele>1893.8</ele>
        <time>2021-08-10 10:53:10</time>
      </trkpt>
      <trkpt lat="42.8378" lon="-0.45358">
        <ele>1894</ele>
        <time>2021-08-10 10:53:11</time>
      </trkpt>
      <trkpt lat="42.83781" lon="-0.45357">
        <ele>1894.2</ele>
        <time>2021-08-10 10:53:45</time>
      </trkpt>
      <trkpt lat="42.83781" lon="-0.45357">
        <ele>1894.2</ele>
        <time>2021-08-10 10:53:46</time>
      </trkpt>
      <trkpt lat="42.83781" lon="-0.45356">
        <ele>1894.4</ele>
        <time>2021-08-10 10:53:47</time>
      </trkpt>
      <trkpt lat="42.83781" lon="-0.45356">
        <ele>1894.8</ele>
        <time>2021-08-10 10:53:48</time>
      </trkpt>
      <trkpt lat="42.83781" lon="-0.45355">
        <ele>1895</ele>
        <time>2021-08-10 10:53:49</time>
      </trkpt>
      <trkpt lat="42.83781" lon="-0.45355">
        <ele>1895.2</ele>
        <time>2021-08-10 10:53:50</time>
      </trkpt>
      <trkpt lat="42.83781" lon="-0.45355">
        <ele>1895.4</ele>
        <time>2021-08-10 10:53:51</time>
      </trkpt>
      <trkpt lat="42.83782" lon="-0.45355">
        <ele>1895.4</ele>
        <time>2021-08-10 10:53:52</time>
      </trkpt>
      <trkpt lat="42.83782" lon="-0.45355">
        <ele>1895.6</ele>
        <time>2021-08-10 10:53:53</time>
      </trkpt>
      <trkpt lat="42.83782" lon="-0.45354">
        <ele>1895.4</ele>
        <time>2021-08-10 10:53:54</time>
      </trkpt>
      <trkpt lat="42.83782" lon="-0.45353">
        <ele>1895.8</ele>
        <time>2021-08-10 10:53:55</time>
      </trkpt>
      <trkpt lat="42.83782" lon="-0.45352">
        <ele>1895.8</ele>
        <time>2021-08-10 10:53:56</time>
      </trkpt>
      <trkpt lat="42.83782" lon="-0.45352">
        <ele>1896</ele>
        <time>2021-08-10 10:53:57</time>
      </trkpt>
      <trkpt lat="42.83782" lon="-0.45351">
        <ele>1895.8</ele>
        <time>2021-08-10 10:53:58</time>
      </trkpt>
      <trkpt lat="42.83782" lon="-0.4535">
        <ele>1895.8</ele>
        <time>2021-08-10 10:53:59</time>
      </trkpt>
      <trkpt lat="42.83782" lon="-0.4535">
        <ele>1896</ele>
      </trkpt>
      <trkpt lat="42.83782" lon="-0.45349">
        <ele>1896</ele>
        <time>2021-08-10 10:54:00</time>
      </trkpt>
      <trkpt lat="42.83781" lon="-0.45348">
        <ele>1896.2</ele>
        <time>2021-08-10 10:54:01</time>
      </trkpt>
      <trkpt lat="42.83781" lon="-0.45348">
        <ele>1896</ele>
        <time>2021-08-10 10:54:02</time>
      </trkpt>
      <trkpt lat="42.83781" lon="-0.45347">
        <ele>1896</ele>
        <time>2021-08-10 10:54:03</time>
      </trkpt>
      <trkpt lat="42.83781" lon="-0.45346">
        <ele>1896.6</ele>
        <time>2021-08-10 10:54:04</time>
      </trkpt>
      <trkpt lat="42.83781" lon="-0.45346">
        <ele>1896.8</ele>
        <time>2021-08-10 10:54:05</time>
      </trkpt>
      <trkpt lat="42.8378" lon="-0.45345">
        <ele>1896.8</ele>
        <time>2021-08-10 10:54:06</time>
      </trkpt>
      <trkpt lat="42.8378" lon="-0.45344">
        <ele>1897</ele>
        <time>2021-08-10 10:54:07</time>
      </trkpt>
      <trkpt lat="42.83779" lon="-0.45344">
        <ele>1897.2</ele>
        <time>2021-08-10 10:54:08</time>
      </trkpt>
      <trkpt lat="42.83779" lon="-0.45343">
        <ele>1897.6</ele>
        <time>2021-08-10 10:54:09</time>
      </trkpt>
      <trkpt lat="42.83779" lon="-0.45342">
        <ele>1897.4</ele>
        <time>2021-08-10 10:54:10</time>
      </trkpt>
      <trkpt lat="42.83779" lon="-0.45342">
        <ele>1897.4</ele>
        <time>2021-08-10 10:54:11</time>
      </trkpt>
      <trkpt lat="42.83778" lon="-0.45341">
        <ele>1897.6</ele>
        <time>2021-08-10 10:54:13</time>
      </trkpt>
      <trkpt lat="42.83778" lon="-0.4534">
        <ele>1898</ele>
      </trkpt>
      <trkpt lat="42.83778" lon="-0.4534">
        <ele>1897.6</ele>
        <time>2021-08-10 10:54:14</time>
      </trkpt>
      <trkpt lat="42.83778" lon="-0.45339">
        <ele>1897.8</ele>
        <time>2021-08-10 10:54:15</time>
      </trkpt>
      <trkpt lat="42.83778" lon="-0.45338">
        <ele>1898</ele>
        <time>2021-08-10 10:54:16</time>
      </trkpt>
      <trkpt lat="42.83778" lon="-0.45337">
        <ele>1898.4</ele>
        <time>2021-08-10 10:54:17</time>
      </trkpt>
      <trkpt lat="42.83778" lon="-0.45337">
        <ele>1898.6</ele>
        <time>2021-08-10 10:54:18</time>
      </trkpt>
      <trkpt lat="42.83778" lon="-0.45336">
        <ele>1898.8</ele>
        <time>2021-08-10 10:54:19</time>
      </trkpt>
      <trkpt lat="42.83777" lon="-0.45335">
        <ele>1898.8</ele>
        <time>2021-08-10 10:54:20</time>
      </trkpt>
      <trkpt lat="42.83777" lon="-0.45334">
        <ele>1898.6</ele>
        <time>2021-08-10 10:54:21</time>
      </trkpt>
      <trkpt lat="42.83777" lon="-0.45333">
        <ele>1898.8</ele>
        <time>2021-08-10 10:54:22</time>
      </trkpt>
      <trkpt lat="42.83777" lon="-0.45332">
        <ele>1898.8</ele>
        <time>2021-08-10 10:54:23</time>
      </trkpt>
      <trkpt lat="42.83777" lon="-0.45332">
        <ele>1899.6</ele>
        <time>2021-08-10 10:54:26</time>
      </trkpt>
      <trkpt lat="42.83776" lon="-0.45331">
        <ele>1899.8</ele>
        <time>2021-08-10 10:54:27</time>
      </trkpt>
      <trkpt lat="42.83776" lon="-0.4533">
        <ele>1899.8</ele>
        <time>2021-08-10 10:54:28</time>
      </trkpt>
      <trkpt lat="42.83775" lon="-0.45329">
        <ele>1899.8</ele>
        <time>2021-08-10 10:54:29</time>
      </trkpt>
      <trkpt lat="42.83775" lon="-0.45329">
        <ele>1899.8</ele>
        <time>2021-08-10 10:54:30</time>
      </trkpt>
      <trkpt lat="42.83774" lon="-0.45328">
        <ele>1899.8</ele>
        <time>2021-08-10 10:54:31</time>
      </trkpt>
      <trkpt lat="42.83774" lon="-0.45327">
        <ele>1900</ele>
        <time>2021-08-10 10:54:32</time>
      </trkpt>
      <trkpt lat="42.83774" lon="-0.45326">
        <ele>1900</ele>
        <time>2021-08-10 10:54:33</time>
      </trkpt>
      <trkpt lat="42.83774" lon="-0.45326">
        <ele>1900.2</ele>
        <time>2021-08-10 10:54:34</time>
      </trkpt>
      <trkpt lat="42.83774" lon="-0.45326">
        <ele>1900.2</ele>
        <time>2021-08-10 10:54:35</time>
      </trkpt>
      <trkpt lat="42.83773" lon="-0.45326">
        <ele>1900.4</ele>
        <time>2021-08-10 10:54:36</time>
      </trkpt>
      <trkpt lat="42.83773" lon="-0.45326">
        <ele>1900</ele>
        <time>2021-08-10 10:54:37</time>
      </trkpt>
      <trkpt lat="42.83773" lon="-0.45325">
        <ele>1900</ele>
        <time>2021-08-10 10:54:40</time>
      </trkpt>
      <trkpt lat="42.83772" lon="-0.45324">
        <ele>1900.2</ele>
        <time>2021-08-10 10:54:41</time>
      </trkpt>
      <trkpt lat="42.83772" lon="-0.45324">
        <ele>1900.2</ele>
        <time>2021-08-10 10:54:42</time>
      </trkpt>
      <trkpt lat="42.83772" lon="-0.45323">
        <ele>1900.4</ele>
        <time>2021-08-10 10:54:43</time>
      </trkpt>
      <trkpt lat="42.83772" lon="-0.45322">
        <ele>1900.6</ele>
        <time>2021-08-10 10:54:44</time>
      </trkpt>
      <trkpt lat="42.83772" lon="-0.45321">
        <ele>1900.4</ele>
        <time>2021-08-10 10:54:45</time>
      </trkpt>
      <trkpt lat="42.83771" lon="-0.4532">
        <ele>1900.6</ele>
        <time>2021-08-10 10:54:46</time>
      </trkpt>
      <trkpt lat="42.83771" lon="-0.4532">
        <ele>1900.4</ele>
        <time>2021-08-10 10:54:47</time>
      </trkpt>
      <trkpt lat="42.83771" lon="-0.4532">
        <ele>1900.4</ele>
        <time>2021-08-10 10:54:48</time>
      </trkpt>
      <trkpt lat="42.8377" lon="-0.45319">
        <ele>1900.6</ele>
        <time>2021-08-10 10:54:49</time>
      </trkpt>
      <trkpt lat="42.8377" lon="-0.45318">
        <ele>1900.8</ele>
        <time>2021-08-10 10:54:50</time>
      </trkpt>
      <trkpt lat="42.8377" lon="-0.45317">
        <ele>1900.8</ele>
        <time>2021-08-10 10:54:51</time>
      </trkpt>
      <trkpt lat="42.8377" lon="-0.45316">
        <ele>1900.8</ele>
        <time>2021-08-10 10:54:52</time>
      </trkpt>
      <trkpt lat="42.83769" lon="-0.45315">
        <ele>1901</ele>
        <time>2021-08-10 10:54:53</time>
      </trkpt>
      <trkpt lat="42.83769" lon="-0.45314">
        <ele>1901.4</ele>
        <time>2021-08-10 10:54:54</time>
      </trkpt>
      <trkpt lat="42.83769" lon="-0.45313">
        <ele>1901.6</ele>
        <time>2021-08-10 10:54:55</time>
      </trkpt>
      <trkpt lat="42.83769" lon="-0.45312">
        <ele>1901.8</ele>
        <time>2021-08-10 10:54:56</time>
      </trkpt>
      <trkpt lat="42.83769" lon="-0.45311">
        <ele>1901.8</ele>
        <time>2021-08-10 10:54:57</time>
      </trkpt>
      <trkpt lat="42.83769" lon="-0.45311">
        <ele>1901.8</ele>
        <time>2021-08-10 10:54:58</time>
      </trkpt>
      <trkpt lat="42.83768" lon="-0.4531">
        <ele>1902</ele>
        <time>2021-08-10 10:54:59</time>
      </trkpt>
      <trkpt lat="42.83768" lon="-0.45309">
        <ele>1902</ele>
        <time>2021-08-10 10:55:00</time>
      </trkpt>
      <trkpt lat="42.83768" lon="-0.45308">
        <ele>1902</ele>
        <time>2021-08-10 10:55:01</time>
      </trkpt>
      <trkpt lat="42.83768" lon="-0.45307">
        <ele>1902.4</ele>
        <time>2021-08-10 10:55:02</time>
      </trkpt>
      <trkpt lat="42.83768" lon="-0.45306">
        <ele>1902.4</ele>
        <time>2021-08-10 10:55:03</time>
      </trkpt>
      <trkpt lat="42.83768" lon="-0.45305">
        <ele>1902.6</ele>
        <time>2021-08-10 10:55:04</time>
      </trkpt>
      <trkpt lat="42.83768" lon="-0.45304">
        <ele>1902.8</ele>
        <time>2021-08-10 10:55:05</time>
      </trkpt>
      <trkpt lat="42.83768" lon="-0.45303">
        <ele>1902.6</ele>
        <time>2021-08-10 10:55:06</time>
      </trkpt>
      <trkpt lat="42.83767" lon="-0.45303">
        <ele>1902.6</ele>
        <time>2021-08-10 10:55:07</time>
      </trkpt>
      <trkpt lat="42.83767" lon="-0.45302">
        <ele>1902.8</ele>
        <time>2021-08-10 10:55:08</time>
      </trkpt>
      <trkpt lat="42.83766" lon="-0.45301">
        <ele>1902.6</ele>
        <time>2021-08-10 10:55:09</time>
      </trkpt>
      <trkpt lat="42.83766" lon="-0.45301">
        <ele>1902.8</ele>
        <time>2021-08-10 10:55:10</time>
      </trkpt>
      <trkpt lat="42.83766" lon="-0.453">
        <ele>1903.4</ele>
        <time>2021-08-10 10:55:11</time>
      </trkpt>
      <trkpt lat="42.83765" lon="-0.453">
        <ele>1903.4</ele>
        <time>2021-08-10 10:55:12</time>
      </trkpt>
      <trkpt lat="42.83765" lon="-0.45299">
        <ele>1903.8</ele>
        <time>2021-08-10 10:55:13</time>
      </trkpt>
      <trkpt lat="42.83765" lon="-0.45299">
        <ele>1904</ele>
        <time>2021-08-10 10:55:14</time>
      </trkpt>
      <trkpt lat="42.83764" lon="-0.45298">
        <ele>1904</ele>
        <time>2021-08-10 10:55:15</time>
      </trkpt>
      <trkpt lat="42.83764" lon="-0.45297">
        <ele>1904</ele>
        <time>2021-08-10 10:55:16</time>
      </trkpt>
      <trkpt lat="42.83764" lon="-0.45297">
        <ele>1904.2</ele>
        <time>2021-08-10 10:55:17</time>
      </trkpt>
      <trkpt lat="42.83763" lon="-0.45295">
        <ele>1904.2</ele>
        <time>2021-08-10 10:55:18</time>
      </trkpt>
      <trkpt lat="42.83763" lon="-0.45295">
        <ele>1904.2</ele>
        <time>2021-08-10 10:55:19</time>
      </trkpt>
      <trkpt lat="42.83762" lon="-0.45294">
        <ele>1904.2</ele>
        <time>2021-08-10 10:55:20</time>
      </trkpt>
      <trkpt lat="42.83762" lon="-0.45294">
        <ele>1904.4</ele>
        <time>2021-08-10 10:55:21</time>
      </trkpt>
      <trkpt lat="42.83761" lon="-0.45293">
        <ele>1904.2</ele>
        <time>2021-08-10 10:55:22</time>
      </trkpt>
      <trkpt lat="42.83761" lon="-0.45293">
        <ele>1904.6</ele>
        <time>2021-08-10 10:55:23</time>
      </trkpt>
      <trkpt lat="42.8376" lon="-0.45292">
        <ele>1904.8</ele>
        <time>2021-08-10 10:55:24</time>
      </trkpt>
      <trkpt lat="42.8376" lon="-0.45291">
        <ele>1904.8</ele>
        <time>2021-08-10 10:55:25</time>
      </trkpt>
      <trkpt lat="42.8376" lon="-0.4529">
        <ele>1905.4</ele>
        <time>2021-08-10 10:55:26</time>
      </trkpt>
      <trkpt lat="42.83759" lon="-0.4529">
        <ele>1905.4</ele>
        <time>2021-08-10 10:55:27</time>
      </trkpt>
      <trkpt lat="42.83759" lon="-0.45289">
        <ele>1905.4</ele>
        <time>2021-08-10 10:55:28</time>
      </trkpt>
      <trkpt lat="42.83758" lon="-0.45289">
        <ele>1905.6</ele>
        <time>2021-08-10 10:55:29</time>
      </trkpt>
      <trkpt lat="42.83758" lon="-0.45288">
        <ele>1905.4</ele>
        <time>2021-08-10 10:55:30</time>
      </trkpt>
      <trkpt lat="42.83758" lon="-0.45287">
        <ele>1905.8</ele>
        <time>2021-08-10 10:55:31</time>
      </trkpt>
      <trkpt lat="42.83757" lon="-0.45287">
        <ele>1906</ele>
        <time>2021-08-10 10:55:32</time>
      </trkpt>
      <trkpt lat="42.83757" lon="-0.45286">
        <ele>1905.8</ele>
        <time>2021-08-10 10:55:33</time>
      </trkpt>
      <trkpt lat="42.83757" lon="-0.45285">
        <ele>1906</ele>
        <time>2021-08-10 10:55:34</time>
      </trkpt>
      <trkpt lat="42.83756" lon="-0.45284">
        <ele>1906.2</ele>
        <time>2021-08-10 10:55:35</time>
      </trkpt>
      <trkpt lat="42.83756" lon="-0.45284">
        <ele>1906.4</ele>
        <time>2021-08-10 10:55:36</time>
      </trkpt>
      <trkpt lat="42.83755" lon="-0.45283">
        <ele>1906.2</ele>
        <time>2021-08-10 10:55:37</time>
      </trkpt>
      <trkpt lat="42.83755" lon="-0.45283">
        <ele>1906.4</ele>
        <time>2021-08-10 10:55:38</time>
      </trkpt>
      <trkpt lat="42.83754" lon="-0.45283">
        <ele>1906.4</ele>
        <time>2021-08-10 10:55:39</time>
      </trkpt>
      <trkpt lat="42.83754" lon="-0.45282">
        <ele>1906.4</ele>
        <time>2021-08-10 10:55:40</time>
      </trkpt>
      <trkpt lat="42.83754" lon="-0.45281">
        <ele>1906.6</ele>
        <time>2021-08-10 10:55:41</time>
      </trkpt>
      <trkpt lat="42.83754" lon="-0.45281">
        <ele>1906.8</ele>
        <time>2021-08-10 10:55:42</time>
      </trkpt>
      <trkpt lat="42.83754" lon="-0.4528">
        <ele>1906.8</ele>
        <time>2021-08-10 10:55:43</time>
      </trkpt>
      <trkpt lat="42.83753" lon="-0.45279">
        <ele>1907</ele>
        <time>2021-08-10 10:55:44</time>
      </trkpt>
      <trkpt lat="42.83753" lon="-0.45279">
        <ele>1907.2</ele>
        <time>2021-08-10 10:55:45</time>
      </trkpt>
      <trkpt lat="42.83752" lon="-0.45278">
        <ele>1907.4</ele>
        <time>2021-08-10 10:55:46</time>
      </trkpt>
      <trkpt lat="42.83752" lon="-0.45277">
        <ele>1907.6</ele>
        <time>2021-08-10 10:55:47</time>
      </trkpt>
      <trkpt lat="42.83751" lon="-0.45277">
        <ele>1907.4</ele>
        <time>2021-08-10 10:55:48</time>
      </trkpt>
      <trkpt lat="42.83751" lon="-0.45276">
        <ele>1907.6</ele>
        <time>2021-08-10 10:55:49</time>
      </trkpt>
      <trkpt lat="42.8375" lon="-0.45276">
        <ele>1907.8</ele>
        <time>2021-08-10 10:55:50</time>
      </trkpt>
      <trkpt lat="42.8375" lon="-0.45275">
        <ele>1908.2</ele>
        <time>2021-08-10 10:55:51</time>
      </trkpt>
      <trkpt lat="42.83749" lon="-0.45275">
        <ele>1908.2</ele>
        <time>2021-08-10 10:55:52</time>
      </trkpt>
      <trkpt lat="42.83749" lon="-0.45274">
        <ele>1908.2</ele>
        <time>2021-08-10 10:55:55</time>
      </trkpt>
      <trkpt lat="42.83749" lon="-0.45274">
        <ele>1908.4</ele>
        <time>2021-08-10 10:55:56</time>
      </trkpt>
      <trkpt lat="42.83748" lon="-0.45273">
        <ele>1908.4</ele>
        <time>2021-08-10 10:55:57</time>
      </trkpt>
      <trkpt lat="42.83748" lon="-0.45273">
        <ele>1908.2</ele>
        <time>2021-08-10 10:55:58</time>
      </trkpt>
      <trkpt lat="42.83748" lon="-0.45272">
        <ele>1908.4</ele>
        <time>2021-08-10 10:55:59</time>
      </trkpt>
      <trkpt lat="42.83748" lon="-0.45271">
        <ele>1908.4</ele>
        <time>2021-08-10 10:56:00</time>
      </trkpt>
      <trkpt lat="42.83748" lon="-0.4527">
        <ele>1908.6</ele>
        <time>2021-08-10 10:56:01</time>
      </trkpt>
      <trkpt lat="42.83748" lon="-0.45269">
        <ele>1908.8</ele>
        <time>2021-08-10 10:56:02</time>
      </trkpt>
      <trkpt lat="42.83747" lon="-0.45269">
        <ele>1908.6</ele>
        <time>2021-08-10 10:56:03</time>
      </trkpt>
      <trkpt lat="42.83747" lon="-0.45268">
        <ele>1909.2</ele>
        <time>2021-08-10 10:56:04</time>
      </trkpt>
      <trkpt lat="42.83747" lon="-0.45268">
        <ele>1909.4</ele>
        <time>2021-08-10 10:56:05</time>
      </trkpt>
      <trkpt lat="42.83746" lon="-0.45267">
        <ele>1909.4</ele>
        <time>2021-08-10 10:56:06</time>
      </trkpt>
      <trkpt lat="42.83745" lon="-0.45266">
        <ele>1909.2</ele>
        <time>2021-08-10 10:56:07</time>
      </trkpt>
      <trkpt lat="42.83745" lon="-0.45266">
        <ele>1909.2</ele>
        <time>2021-08-10 10:56:08</time>
      </trkpt>
      <trkpt lat="42.83744" lon="-0.45266">
        <ele>1909.6</ele>
        <time>2021-08-10 10:56:09</time>
      </trkpt>
      <trkpt lat="42.83744" lon="-0.45265">
        <ele>1909.8</ele>
        <time>2021-08-10 10:56:10</time>
      </trkpt>
      <trkpt lat="42.83743" lon="-0.45264">
        <ele>1909.6</ele>
        <time>2021-08-10 10:56:11</time>
      </trkpt>
      <trkpt lat="42.83743" lon="-0.45264">
        <ele>1909.8</ele>
        <time>2021-08-10 10:56:12</time>
      </trkpt>
      <trkpt lat="42.83742" lon="-0.45263">
        <ele>1909.8</ele>
        <time>2021-08-10 10:56:13</time>
      </trkpt>
      <trkpt lat="42.83742" lon="-0.45263">
        <ele>1910</ele>
        <time>2021-08-10 10:56:14</time>
      </trkpt>
      <trkpt lat="42.83741" lon="-0.45262">
        <ele>1910</ele>
        <time>2021-08-10 10:56:15</time>
      </trkpt>
      <trkpt lat="42.83741" lon="-0.45261">
        <ele>1910</ele>
        <time>2021-08-10 10:56:16</time>
      </trkpt>
      <trkpt lat="42.8374" lon="-0.4526">
        <ele>1910.2</ele>
        <time>2021-08-10 10:56:17</time>
      </trkpt>
      <trkpt lat="42.8374" lon="-0.4526">
        <ele>1910</ele>
        <time>2021-08-10 10:56:18</time>
      </trkpt>
      <trkpt lat="42.8374" lon="-0.45258">
        <ele>1910.2</ele>
        <time>2021-08-10 10:56:19</time>
      </trkpt>
      <trkpt lat="42.8374" lon="-0.45257">
        <ele>1910</ele>
        <time>2021-08-10 10:56:20</time>
      </trkpt>
      <trkpt lat="42.8374" lon="-0.45256">
        <ele>1910.2</ele>
        <time>2021-08-10 10:56:21</time>
      </trkpt>
      <trkpt lat="42.83739" lon="-0.45256">
        <ele>1910.4</ele>
        <time>2021-08-10 10:56:22</time>
      </trkpt>
      <trkpt lat="42.83738" lon="-0.45255">
        <ele>1910.4</ele>
        <time>2021-08-10 10:56:23</time>
      </trkpt>
      <trkpt lat="42.83738" lon="-0.45254">
        <ele>1910.4</ele>
        <time>2021-08-10 10:56:24</time>
      </trkpt>
      <trkpt lat="42.83737" lon="-0.45254">
        <ele>1910.4</ele>
        <time>2021-08-10 10:56:25</time>
      </trkpt>
      <trkpt lat="42.83737" lon="-0.45253">
        <ele>1910.6</ele>
        <time>2021-08-10 10:56:26</time>
      </trkpt>
      <trkpt lat="42.83736" lon="-0.45252">
        <ele>1910.6</ele>
        <time>2021-08-10 10:56:27</time>
      </trkpt>
      <trkpt lat="42.83735" lon="-0.45252">
        <ele>1910.6</ele>
        <time>2021-08-10 10:56:28</time>
      </trkpt>
      <trkpt lat="42.83735" lon="-0.45251">
        <ele>1910.8</ele>
        <time>2021-08-10 10:56:29</time>
      </trkpt>
      <trkpt lat="42.83734" lon="-0.4525">
        <ele>1910.8</ele>
        <time>2021-08-10 10:56:30</time>
      </trkpt>
      <trkpt lat="42.83733" lon="-0.4525">
        <ele>1910.8</ele>
        <time>2021-08-10 10:56:31</time>
      </trkpt>
      <trkpt lat="42.83733" lon="-0.45249">
        <ele>1911</ele>
        <time>2021-08-10 10:56:32</time>
      </trkpt>
      <trkpt lat="42.83732" lon="-0.45249">
        <ele>1911</ele>
        <time>2021-08-10 10:56:33</time>
      </trkpt>
      <trkpt lat="42.83731" lon="-0.45249">
        <ele>1911</ele>
        <time>2021-08-10 10:56:34</time>
      </trkpt>
      <trkpt lat="42.83731" lon="-0.45249">
        <ele>1911</ele>
        <time>2021-08-10 10:56:35</time>
      </trkpt>
      <trkpt lat="42.8373" lon="-0.45248">
        <ele>1911</ele>
        <time>2021-08-10 10:56:36</time>
      </trkpt>
      <trkpt lat="42.83729" lon="-0.45247">
        <ele>1911.2</ele>
        <time>2021-08-10 10:56:37</time>
      </trkpt>
      <trkpt lat="42.83729" lon="-0.45247">
        <ele>1911.2</ele>
        <time>2021-08-10 10:56:38</time>
      </trkpt>
      <trkpt lat="42.83728" lon="-0.45246">
        <ele>1911.4</ele>
        <time>2021-08-10 10:56:39</time>
      </trkpt>
      <trkpt lat="42.83727" lon="-0.45245">
        <ele>1911.4</ele>
        <time>2021-08-10 10:56:40</time>
      </trkpt>
      <trkpt lat="42.83726" lon="-0.45245">
        <ele>1911</ele>
        <time>2021-08-10 10:56:41</time>
      </trkpt>
      <trkpt lat="42.83726" lon="-0.45244">
        <ele>1911</ele>
        <time>2021-08-10 10:56:42</time>
      </trkpt>
      <trkpt lat="42.83725" lon="-0.45244">
        <ele>1911</ele>
        <time>2021-08-10 10:56:43</time>
      </trkpt>
      <trkpt lat="42.83724" lon="-0.45243">
        <ele>1911.4</ele>
        <time>2021-08-10 10:56:44</time>
      </trkpt>
      <trkpt lat="42.83724" lon="-0.45242">
        <ele>1911.4</ele>
        <time>2021-08-10 10:56:45</time>
      </trkpt>
      <trkpt lat="42.83723" lon="-0.45242">
        <ele>1911.6</ele>
        <time>2021-08-10 10:56:46</time>
      </trkpt>
      <trkpt lat="42.83722" lon="-0.45243">
        <ele>1911.4</ele>
        <time>2021-08-10 10:56:47</time>
      </trkpt>
      <trkpt lat="42.83722" lon="-0.45242">
        <ele>1911.4</ele>
        <time>2021-08-10 10:56:48</time>
      </trkpt>
      <trkpt lat="42.83721" lon="-0.45242">
        <ele>1911.4</ele>
        <time>2021-08-10 10:56:49</time>
      </trkpt>
      <trkpt lat="42.83719" lon="-0.45241">
        <ele>1911.4</ele>
        <time>2021-08-10 10:56:50</time>
      </trkpt>
      <trkpt lat="42.83718" lon="-0.45241">
        <ele>1911.2</ele>
        <time>2021-08-10 10:56:51</time>
      </trkpt>
      <trkpt lat="42.83718" lon="-0.45241">
        <ele>1911.2</ele>
        <time>2021-08-10 10:56:52</time>
      </trkpt>
      <trkpt lat="42.83718" lon="-0.4524">
        <ele>1911.2</ele>
        <time>2021-08-10 10:56:53</time>
      </trkpt>
      <trkpt lat="42.83717" lon="-0.45239">
        <ele>1911.2</ele>
        <time>2021-08-10 10:56:54</time>
      </trkpt>
      <trkpt lat="42.83716" lon="-0.45239">
        <ele>1911.2</ele>
        <time>2021-08-10 10:56:55</time>
      </trkpt>
      <trkpt lat="42.83715" lon="-0.45238">
        <ele>1911</ele>
        <time>2021-08-10 10:56:56</time>
      </trkpt>
      <trkpt lat="42.83714" lon="-0.45238">
        <ele>1911</ele>
        <time>2021-08-10 10:56:57</time>
      </trkpt>
      <trkpt lat="42.83714" lon="-0.45237">
        <ele>1911</ele>
        <time>2021-08-10 10:56:58</time>
      </trkpt>
      <trkpt lat="42.83713" lon="-0.45237">
        <ele>1911</ele>
        <time>2021-08-10 10:56:59</time>
      </trkpt>
      <trkpt lat="42.83712" lon="-0.45236">
        <ele>1911</ele>
        <time>2021-08-10 10:57:00</time>
      </trkpt>
      <trkpt lat="42.83712" lon="-0.45235">
        <ele>1911.2</ele>
        <time>2021-08-10 10:57:01</time>
      </trkpt>
      <trkpt lat="42.83711" lon="-0.45234">
        <ele>1911</ele>
        <time>2021-08-10 10:57:02</time>
      </trkpt>
      <trkpt lat="42.83711" lon="-0.45233">
        <ele>1911</ele>
        <time>2021-08-10 10:57:03</time>
      </trkpt>
      <trkpt lat="42.8371" lon="-0.45232">
        <ele>1911</ele>
        <time>2021-08-10 10:57:04</time>
      </trkpt>
      <trkpt lat="42.83709" lon="-0.45231">
        <ele>1911.2</ele>
        <time>2021-08-10 10:57:05</time>
      </trkpt>
      <trkpt lat="42.83709" lon="-0.4523">
        <ele>1911.4</ele>
        <time>2021-08-10 10:57:06</time>
      </trkpt>
      <trkpt lat="42.83709" lon="-0.45229">
        <ele>1911.2</ele>
        <time>2021-08-10 10:57:07</time>
      </trkpt>
      <trkpt lat="42.83708" lon="-0.45228">
        <ele>1911.2</ele>
        <time>2021-08-10 10:57:08</time>
      </trkpt>
      <trkpt lat="42.83708" lon="-0.45227">
        <ele>1911.2</ele>
        <time>2021-08-10 10:57:09</time>
      </trkpt>
      <trkpt lat="42.83707" lon="-0.45226">
        <ele>1911</ele>
        <time>2021-08-10 10:57:10</time>
      </trkpt>
      <trkpt lat="42.83707" lon="-0.45224">
        <ele>1911.4</ele>
        <time>2021-08-10 10:57:11</time>
      </trkpt>
      <trkpt lat="42.83706" lon="-0.45224">
        <ele>1911.4</ele>
        <time>2021-08-10 10:57:12</time>
      </trkpt>
      <trkpt lat="42.83705" lon="-0.45223">
        <ele>1911.8</ele>
        <time>2021-08-10 10:57:13</time>
      </trkpt>
      <trkpt lat="42.83705" lon="-0.45222">
        <ele>1911.8</ele>
        <time>2021-08-10 10:57:14</time>
      </trkpt>
      <trkpt lat="42.83705" lon="-0.45222">
        <ele>1911.8</ele>
        <time>2021-08-10 10:57:15</time>
      </trkpt>
      <trkpt lat="42.83704" lon="-0.45222">
        <ele>1911.6</ele>
        <time>2021-08-10 10:57:16</time>
      </trkpt>
      <trkpt lat="42.83703" lon="-0.45222">
        <ele>1911.8</ele>
        <time>2021-08-10 10:57:17</time>
      </trkpt>
      <trkpt lat="42.83702" lon="-0.45222">
        <ele>1912</ele>
        <time>2021-08-10 10:57:18</time>
      </trkpt>
      <trkpt lat="42.83702" lon="-0.45221">
        <ele>1912</ele>
        <time>2021-08-10 10:57:19</time>
      </trkpt>
      <trkpt lat="42.83702" lon="-0.45221">
        <ele>1912</ele>
        <time>2021-08-10 10:57:20</time>
      </trkpt>
      <trkpt lat="42.837" lon="-0.45221">
        <ele>1912</ele>
        <time>2021-08-10 10:57:21</time>
      </trkpt>
      <trkpt lat="42.837" lon="-0.45222">
        <ele>1912</ele>
        <time>2021-08-10 10:57:22</time>
      </trkpt>
      <trkpt lat="42.83699" lon="-0.45223">
        <ele>1912</ele>
        <time>2021-08-10 10:57:23</time>
      </trkpt>
      <trkpt lat="42.83698" lon="-0.45223">
        <ele>1912</ele>
        <time>2021-08-10 10:57:24</time>
      </trkpt>
      <trkpt lat="42.83697" lon="-0.45223">
        <ele>1912.2</ele>
        <time>2021-08-10 10:57:25</time>
      </trkpt>
      <trkpt lat="42.83696" lon="-0.45223">
        <ele>1912.4</ele>
        <time>2021-08-10 10:57:26</time>
      </trkpt>
      <trkpt lat="42.83695" lon="-0.45223">
        <ele>1912.4</ele>
        <time>2021-08-10 10:57:27</time>
      </trkpt>
      <trkpt lat="42.83694" lon="-0.45222">
        <ele>1912.4</ele>
        <time>2021-08-10 10:57:28</time>
      </trkpt>
      <trkpt lat="42.83693" lon="-0.45222">
        <ele>1912.4</ele>
        <time>2021-08-10 10:57:29</time>
      </trkpt>
      <trkpt lat="42.83693" lon="-0.45221">
        <ele>1912.6</ele>
        <time>2021-08-10 10:57:30</time>
      </trkpt>
      <trkpt lat="42.83692" lon="-0.4522">
        <ele>1912.6</ele>
        <time>2021-08-10 10:57:31</time>
      </trkpt>
      <trkpt lat="42.83691" lon="-0.4522">
        <ele>1912.6</ele>
        <time>2021-08-10 10:57:32</time>
      </trkpt>
      <trkpt lat="42.8369" lon="-0.4522">
        <ele>1912.6</ele>
        <time>2021-08-10 10:57:33</time>
      </trkpt>
      <trkpt lat="42.83689" lon="-0.4522">
        <ele>1912.8</ele>
        <time>2021-08-10 10:57:34</time>
      </trkpt>
      <trkpt lat="42.83688" lon="-0.45219">
        <ele>1912.8</ele>
        <time>2021-08-10 10:57:35</time>
      </trkpt>
      <trkpt lat="42.83687" lon="-0.45218">
        <ele>1912.8</ele>
        <time>2021-08-10 10:57:36</time>
      </trkpt>
      <trkpt lat="42.83687" lon="-0.45218">
        <ele>1912.8</ele>
        <time>2021-08-10 10:57:37</time>
      </trkpt>
      <trkpt lat="42.83686" lon="-0.45217">
        <ele>1912.8</ele>
        <time>2021-08-10 10:57:38</time>
      </trkpt>
      <trkpt lat="42.83685" lon="-0.45217">
        <ele>1913</ele>
        <time>2021-08-10 10:57:39</time>
      </trkpt>
      <trkpt lat="42.83684" lon="-0.45217">
        <ele>1913</ele>
        <time>2021-08-10 10:57:40</time>
      </trkpt>
      <trkpt lat="42.83684" lon="-0.45216">
        <ele>1913</ele>
        <time>2021-08-10 10:57:41</time>
      </trkpt>
      <trkpt lat="42.83683" lon="-0.45215">
        <ele>1912.8</ele>
        <time>2021-08-10 10:57:42</time>
      </trkpt>
      <trkpt lat="42.83682" lon="-0.45214">
        <ele>1912.8</ele>
        <time>2021-08-10 10:57:43</time>
      </trkpt>
      <trkpt lat="42.83681" lon="-0.45213">
        <ele>1912.8</ele>
        <time>2021-08-10 10:57:44</time>
      </trkpt>
      <trkpt lat="42.83681" lon="-0.45212">
        <ele>1912.8</ele>
        <time>2021-08-10 10:57:45</time>
      </trkpt>
      <trkpt lat="42.8368" lon="-0.45212">
        <ele>1912.8</ele>
        <time>2021-08-10 10:57:46</time>
      </trkpt>
      <trkpt lat="42.83679" lon="-0.45211">
        <ele>1912.8</ele>
        <time>2021-08-10 10:57:47</time>
      </trkpt>
      <trkpt lat="42.83678" lon="-0.4521">
        <ele>1912.6</ele>
        <time>2021-08-10 10:57:48</time>
      </trkpt>
      <trkpt lat="42.83677" lon="-0.45209">
        <ele>1912.6</ele>
        <time>2021-08-10 10:57:49</time>
      </trkpt>
      <trkpt lat="42.83677" lon="-0.45209">
        <ele>1912.6</ele>
        <time>2021-08-10 10:57:50</time>
      </trkpt>
      <trkpt lat="42.83676" lon="-0.45209">
        <ele>1912.4</ele>
        <time>2021-08-10 10:57:51</time>
      </trkpt>
      <trkpt lat="42.83675" lon="-0.45209">
        <ele>1912.4</ele>
        <time>2021-08-10 10:57:52</time>
      </trkpt>
      <trkpt lat="42.83675" lon="-0.45208">
        <ele>1912.4</ele>
        <time>2021-08-10 10:57:53</time>
      </trkpt>
      <trkpt lat="42.83673" lon="-0.45208">
        <ele>1912.4</ele>
        <time>2021-08-10 10:57:54</time>
      </trkpt>
      <trkpt lat="42.83672" lon="-0.45209">
        <ele>1912.4</ele>
        <time>2021-08-10 10:57:55</time>
      </trkpt>
      <trkpt lat="42.83672" lon="-0.45209">
        <ele>1912.4</ele>
        <time>2021-08-10 10:57:56</time>
      </trkpt>
      <trkpt lat="42.83671" lon="-0.45209">
        <ele>1912.4</ele>
        <time>2021-08-10 10:57:57</time>
      </trkpt>
      <trkpt lat="42.8367" lon="-0.45209">
        <ele>1912.6</ele>
        <time>2021-08-10 10:57:58</time>
      </trkpt>
      <trkpt lat="42.83669" lon="-0.45209">
        <ele>1913.2</ele>
        <time>2021-08-10 10:57:59</time>
      </trkpt>
      <trkpt lat="42.83668" lon="-0.4521">
        <ele>1913.2</ele>
        <time>2021-08-10 10:58:00</time>
      </trkpt>
      <trkpt lat="42.83667" lon="-0.4521">
        <ele>1913</ele>
        <time>2021-08-10 10:58:01</time>
      </trkpt>
      <trkpt lat="42.83666" lon="-0.4521">
        <ele>1913</ele>
        <time>2021-08-10 10:58:02</time>
      </trkpt>
      <trkpt lat="42.83666" lon="-0.4521">
        <ele>1913.2</ele>
        <time>2021-08-10 10:58:03</time>
      </trkpt>
      <trkpt lat="42.83665" lon="-0.4521">
        <ele>1913.2</ele>
        <time>2021-08-10 10:58:04</time>
      </trkpt>
      <trkpt lat="42.83664" lon="-0.4521">
        <ele>1913.6</ele>
        <time>2021-08-10 10:58:05</time>
      </trkpt>
      <trkpt lat="42.83663" lon="-0.4521">
        <ele>1913.8</ele>
        <time>2021-08-10 10:58:06</time>
      </trkpt>
      <trkpt lat="42.83662" lon="-0.4521">
        <ele>1914</ele>
        <time>2021-08-10 10:58:07</time>
      </trkpt>
      <trkpt lat="42.83661" lon="-0.4521">
        <ele>1914.2</ele>
        <time>2021-08-10 10:58:08</time>
      </trkpt>
      <trkpt lat="42.8366" lon="-0.4521">
        <ele>1914.2</ele>
        <time>2021-08-10 10:58:09</time>
      </trkpt>
      <trkpt lat="42.83659" lon="-0.45211">
        <ele>1914.4</ele>
        <time>2021-08-10 10:58:10</time>
      </trkpt>
      <trkpt lat="42.83658" lon="-0.4521">
        <ele>1914.4</ele>
        <time>2021-08-10 10:58:11</time>
      </trkpt>
      <trkpt lat="42.83658" lon="-0.45211">
        <ele>1914.8</ele>
        <time>2021-08-10 10:58:12</time>
      </trkpt>
      <trkpt lat="42.83657" lon="-0.45211">
        <ele>1914.4</ele>
        <time>2021-08-10 10:58:13</time>
      </trkpt>
      <trkpt lat="42.83656" lon="-0.45211">
        <ele>1914.6</ele>
        <time>2021-08-10 10:58:14</time>
      </trkpt>
      <trkpt lat="42.83655" lon="-0.45211">
        <ele>1913.8</ele>
        <time>2021-08-10 10:58:15</time>
      </trkpt>
      <trkpt lat="42.83654" lon="-0.45211">
        <ele>1913.8</ele>
        <time>2021-08-10 10:58:16</time>
      </trkpt>
      <trkpt lat="42.83653" lon="-0.4521">
        <ele>1914.8</ele>
        <time>2021-08-10 10:58:17</time>
      </trkpt>
      <trkpt lat="42.83652" lon="-0.4521">
        <ele>1914.6</ele>
        <time>2021-08-10 10:58:18</time>
      </trkpt>
      <trkpt lat="42.83651" lon="-0.45209">
        <ele>1914.4</ele>
        <time>2021-08-10 10:58:19</time>
      </trkpt>
      <trkpt lat="42.8365" lon="-0.45209">
        <ele>1914.4</ele>
        <time>2021-08-10 10:58:20</time>
      </trkpt>
      <trkpt lat="42.83649" lon="-0.45209">
        <ele>1914.4</ele>
        <time>2021-08-10 10:58:21</time>
      </trkpt>
      <trkpt lat="42.83648" lon="-0.45209">
        <ele>1914.6</ele>
        <time>2021-08-10 10:58:22</time>
      </trkpt>
      <trkpt lat="42.83647" lon="-0.45209">
        <ele>1914.6</ele>
        <time>2021-08-10 10:58:23</time>
      </trkpt>
      <trkpt lat="42.83646" lon="-0.45209">
        <ele>1914.6</ele>
        <time>2021-08-10 10:58:24</time>
      </trkpt>
      <trkpt lat="42.83645" lon="-0.45208">
        <ele>1914.8</ele>
        <time>2021-08-10 10:58:25</time>
      </trkpt>
      <trkpt lat="42.83644" lon="-0.45209">
        <ele>1914.8</ele>
        <time>2021-08-10 10:58:26</time>
      </trkpt>
      <trkpt lat="42.83643" lon="-0.45209">
        <ele>1914.8</ele>
        <time>2021-08-10 10:58:27</time>
      </trkpt>
      <trkpt lat="42.83643" lon="-0.45209">
        <ele>1914.6</ele>
        <time>2021-08-10 10:58:28</time>
      </trkpt>
      <trkpt lat="42.83642" lon="-0.4521">
        <ele>1914.8</ele>
        <time>2021-08-10 10:58:29</time>
      </trkpt>
      <trkpt lat="42.83641" lon="-0.4521">
        <ele>1914.8</ele>
        <time>2021-08-10 10:58:30</time>
      </trkpt>
      <trkpt lat="42.83641" lon="-0.45209">
        <ele>1914.8</ele>
        <time>2021-08-10 10:58:31</time>
      </trkpt>
      <trkpt lat="42.83641" lon="-0.45209">
        <ele>1914.8</ele>
        <time>2021-08-10 10:58:32</time>
      </trkpt>
      <trkpt lat="42.83641" lon="-0.45209">
        <ele>1914.8</ele>
        <time>2021-08-10 10:58:33</time>
      </trkpt>
      <trkpt lat="42.83641" lon="-0.45208">
        <ele>1914.8</ele>
        <time>2021-08-10 10:58:34</time>
      </trkpt>
      <trkpt lat="42.83641" lon="-0.45208">
        <ele>1914.8</ele>
        <time>2021-08-10 10:58:35</time>
      </trkpt>
      <trkpt lat="42.83641" lon="-0.45209">
        <ele>1914.8</ele>
        <time>2021-08-10 10:58:36</time>
      </trkpt>
      <trkpt lat="42.8364" lon="-0.45209">
        <ele>1914.6</ele>
        <time>2021-08-10 10:58:37</time>
      </trkpt>
      <trkpt lat="42.83639" lon="-0.45209">
        <ele>1914.8</ele>
        <time>2021-08-10 10:58:38</time>
      </trkpt>
      <trkpt lat="42.83637" lon="-0.4521">
        <ele>1914.8</ele>
        <time>2021-08-10 10:58:39</time>
      </trkpt>
      <trkpt lat="42.83637" lon="-0.4521">
        <ele>1914.8</ele>
        <time>2021-08-10 10:58:40</time>
      </trkpt>
      <trkpt lat="42.83636" lon="-0.45211">
        <ele>1915</ele>
        <time>2021-08-10 10:58:41</time>
      </trkpt>
      <trkpt lat="42.83635" lon="-0.45211">
        <ele>1915</ele>
        <time>2021-08-10 10:58:42</time>
      </trkpt>
      <trkpt lat="42.83635" lon="-0.45211">
        <ele>1915.2</ele>
        <time>2021-08-10 10:58:43</time>
      </trkpt>
      <trkpt lat="42.83634" lon="-0.45211">
        <ele>1915.4</ele>
        <time>2021-08-10 10:58:44</time>
      </trkpt>
      <trkpt lat="42.83633" lon="-0.45211">
        <ele>1915.6</ele>
        <time>2021-08-10 10:58:45</time>
      </trkpt>
      <trkpt lat="42.83632" lon="-0.4521">
        <ele>1915.8</ele>
        <time>2021-08-10 10:58:46</time>
      </trkpt>
      <trkpt lat="42.83631" lon="-0.4521">
        <ele>1915.8</ele>
        <time>2021-08-10 10:58:47</time>
      </trkpt>
      <trkpt lat="42.8363" lon="-0.4521">
        <ele>1915.6</ele>
        <time>2021-08-10 10:58:48</time>
      </trkpt>
      <trkpt lat="42.83629" lon="-0.4521">
        <ele>1916</ele>
        <time>2021-08-10 10:58:49</time>
      </trkpt>
      <trkpt lat="42.83628" lon="-0.4521">
        <ele>1916.4</ele>
        <time>2021-08-10 10:58:50</time>
      </trkpt>
      <trkpt lat="42.83627" lon="-0.45209">
        <ele>1916.4</ele>
        <time>2021-08-10 10:58:51</time>
      </trkpt>
      <trkpt lat="42.83627" lon="-0.45209">
        <ele>1916.6</ele>
        <time>2021-08-10 10:58:52</time>
      </trkpt>
      <trkpt lat="42.83626" lon="-0.45208">
        <ele>1916.8</ele>
        <time>2021-08-10 10:58:53</time>
      </trkpt>
      <trkpt lat="42.83625" lon="-0.45208">
        <ele>1916.8</ele>
        <time>2021-08-10 10:58:54</time>
      </trkpt>
      <trkpt lat="42.83625" lon="-0.45208">
        <ele>1916.8</ele>
        <time>2021-08-10 10:58:55</time>
      </trkpt>
      <trkpt lat="42.83624" lon="-0.45207">
        <ele>1917</ele>
        <time>2021-08-10 10:58:56</time>
      </trkpt>
      <trkpt lat="42.83624" lon="-0.45206">
        <ele>1917.2</ele>
        <time>2021-08-10 10:58:57</time>
      </trkpt>
      <trkpt lat="42.83623" lon="-0.45205">
        <ele>1917.6</ele>
        <time>2021-08-10 10:58:58</time>
      </trkpt>
      <trkpt lat="42.83623" lon="-0.45204">
        <ele>1917.8</ele>
        <time>2021-08-10 10:58:59</time>
      </trkpt>
      <trkpt lat="42.83622" lon="-0.45204">
        <ele>1917.8</ele>
        <time>2021-08-10 10:59:00</time>
      </trkpt>
      <trkpt lat="42.83622" lon="-0.45203">
        <ele>1917.8</ele>
        <time>2021-08-10 10:59:01</time>
      </trkpt>
      <trkpt lat="42.83621" lon="-0.45203">
        <ele>1917.8</ele>
        <time>2021-08-10 10:59:02</time>
      </trkpt>
      <trkpt lat="42.83621" lon="-0.45203">
        <ele>1917.8</ele>
        <time>2021-08-10 10:59:03</time>
      </trkpt>
      <trkpt lat="42.8362" lon="-0.45202">
        <ele>1918</ele>
        <time>2021-08-10 10:59:04</time>
      </trkpt>
      <trkpt lat="42.83619" lon="-0.45202">
        <ele>1918.2</ele>
        <time>2021-08-10 10:59:05</time>
      </trkpt>
      <trkpt lat="42.83618" lon="-0.45202">
        <ele>1918.6</ele>
        <time>2021-08-10 10:59:06</time>
      </trkpt>
      <trkpt lat="42.83618" lon="-0.45201">
        <ele>1918.6</ele>
        <time>2021-08-10 10:59:07</time>
      </trkpt>
      <trkpt lat="42.83618" lon="-0.452">
        <ele>1919</ele>
        <time>2021-08-10 10:59:08</time>
      </trkpt>
      <trkpt lat="42.83617" lon="-0.452">
        <ele>1919.2</ele>
        <time>2021-08-10 10:59:09</time>
      </trkpt>
      <trkpt lat="42.83617" lon="-0.452">
        <ele>1919.2</ele>
        <time>2021-08-10 10:59:10</time>
      </trkpt>
      <trkpt lat="42.83617" lon="-0.45199">
        <ele>1919.4</ele>
        <time>2021-08-10 10:59:11</time>
      </trkpt>
      <trkpt lat="42.83616" lon="-0.45199">
        <ele>1919.4</ele>
        <time>2021-08-10 10:59:12</time>
      </trkpt>
      <trkpt lat="42.83616" lon="-0.45199">
        <ele>1919.8</ele>
        <time>2021-08-10 10:59:13</time>
      </trkpt>
      <trkpt lat="42.83614" lon="-0.45199">
        <ele>1919.8</ele>
        <time>2021-08-10 10:59:14</time>
      </trkpt>
      <trkpt lat="42.83614" lon="-0.45199">
        <ele>1919.8</ele>
        <time>2021-08-10 10:59:15</time>
      </trkpt>
      <trkpt lat="42.83614" lon="-0.45199">
        <ele>1920</ele>
        <time>2021-08-10 10:59:16</time>
      </trkpt>
      <trkpt lat="42.83613" lon="-0.45199">
        <ele>1920</ele>
        <time>2021-08-10 10:59:17</time>
      </trkpt>
      <trkpt lat="42.83613" lon="-0.45198">
        <ele>1920.2</ele>
        <time>2021-08-10 10:59:18</time>
      </trkpt>
      <trkpt lat="42.83613" lon="-0.45198">
        <ele>1920.2</ele>
        <time>2021-08-10 10:59:19</time>
      </trkpt>
      <trkpt lat="42.83613" lon="-0.45198">
        <ele>1920.4</ele>
        <time>2021-08-10 10:59:20</time>
      </trkpt>
      <trkpt lat="42.83612" lon="-0.45198">
        <ele>1920.6</ele>
        <time>2021-08-10 10:59:21</time>
      </trkpt>
      <trkpt lat="42.83612" lon="-0.45198">
        <ele>1920.6</ele>
        <time>2021-08-10 10:59:22</time>
      </trkpt>
      <trkpt lat="42.83611" lon="-0.45198">
        <ele>1920.6</ele>
        <time>2021-08-10 10:59:23</time>
      </trkpt>
      <trkpt lat="42.83611" lon="-0.45198">
        <ele>1921</ele>
        <time>2021-08-10 10:59:24</time>
      </trkpt>
      <trkpt lat="42.83611" lon="-0.45199">
        <ele>1920.8</ele>
        <time>2021-08-10 10:59:25</time>
      </trkpt>
      <trkpt lat="42.8361" lon="-0.45199">
        <ele>1921</ele>
        <time>2021-08-10 10:59:26</time>
      </trkpt>
      <trkpt lat="42.83609" lon="-0.45199">
        <ele>1921.4</ele>
        <time>2021-08-10 10:59:27</time>
      </trkpt>
      <trkpt lat="42.83608" lon="-0.452">
        <ele>1921.6</ele>
        <time>2021-08-10 10:59:28</time>
      </trkpt>
      <trkpt lat="42.83607" lon="-0.452">
        <ele>1922</ele>
        <time>2021-08-10 10:59:29</time>
      </trkpt>
      <trkpt lat="42.83607" lon="-0.452">
        <ele>1921.6</ele>
        <time>2021-08-10 10:59:30</time>
      </trkpt>
      <trkpt lat="42.83606" lon="-0.452">
        <ele>1921.6</ele>
        <time>2021-08-10 10:59:31</time>
      </trkpt>
      <trkpt lat="42.83605" lon="-0.452">
        <ele>1921.6</ele>
        <time>2021-08-10 10:59:32</time>
      </trkpt>
      <trkpt lat="42.83605" lon="-0.45199">
        <ele>1921.4</ele>
        <time>2021-08-10 10:59:33</time>
      </trkpt>
      <trkpt lat="42.83604" lon="-0.45199">
        <ele>1921.6</ele>
        <time>2021-08-10 10:59:34</time>
      </trkpt>
      <trkpt lat="42.83603" lon="-0.45199">
        <ele>1921.8</ele>
        <time>2021-08-10 10:59:35</time>
      </trkpt>
      <trkpt lat="42.83602" lon="-0.45198">
        <ele>1921.8</ele>
        <time>2021-08-10 10:59:36</time>
      </trkpt>
      <trkpt lat="42.83602" lon="-0.45198">
        <ele>1921.8</ele>
        <time>2021-08-10 10:59:37</time>
      </trkpt>
      <trkpt lat="42.83601" lon="-0.45197">
        <ele>1922</ele>
        <time>2021-08-10 10:59:38</time>
      </trkpt>
      <trkpt lat="42.836" lon="-0.45196">
        <ele>1921.8</ele>
        <time>2021-08-10 10:59:39</time>
      </trkpt>
      <trkpt lat="42.836" lon="-0.45196">
        <ele>1921.6</ele>
        <time>2021-08-10 10:59:40</time>
      </trkpt>
      <trkpt lat="42.83599" lon="-0.45195">
        <ele>1921.8</ele>
        <time>2021-08-10 10:59:41</time>
      </trkpt>
      <trkpt lat="42.83599" lon="-0.45195">
        <ele>1921.6</ele>
        <time>2021-08-10 10:59:42</time>
      </trkpt>
      <trkpt lat="42.83598" lon="-0.45194">
        <ele>1922.4</ele>
        <time>2021-08-10 10:59:43</time>
      </trkpt>
      <trkpt lat="42.83597" lon="-0.45193">
        <ele>1922</ele>
        <time>2021-08-10 10:59:44</time>
      </trkpt>
      <trkpt lat="42.83597" lon="-0.45193">
        <ele>1921.8</ele>
        <time>2021-08-10 10:59:45</time>
      </trkpt>
      <trkpt lat="42.83596" lon="-0.45193">
        <ele>1922.2</ele>
        <time>2021-08-10 10:59:46</time>
      </trkpt>
      <trkpt lat="42.83596" lon="-0.45192">
        <ele>1921.8</ele>
        <time>2021-08-10 10:59:50</time>
      </trkpt>
      <trkpt lat="42.83595" lon="-0.45191">
        <ele>1921.8</ele>
        <time>2021-08-10 10:59:51</time>
      </trkpt>
      <trkpt lat="42.83595" lon="-0.45191">
        <ele>1922.2</ele>
        <time>2021-08-10 10:59:52</time>
      </trkpt>
      <trkpt lat="42.83595" lon="-0.45191">
        <ele>1922.2</ele>
        <time>2021-08-10 10:59:56</time>
      </trkpt>
      <trkpt lat="42.83594" lon="-0.4519">
        <ele>1922.2</ele>
        <time>2021-08-10 10:59:57</time>
      </trkpt>
      <trkpt lat="42.83594" lon="-0.4519">
        <ele>1921.4</ele>
        <time>2021-08-10 10:59:58</time>
      </trkpt>
      <trkpt lat="42.83594" lon="-0.4519">
        <ele>1921.2</ele>
        <time>2021-08-10 10:59:59</time>
      </trkpt>
      <trkpt lat="42.83594" lon="-0.4519">
        <ele>1921.4</ele>
      </trkpt>
      <trkpt lat="42.83593" lon="-0.4519">
        <ele>1921.2</ele>
        <time>2021-08-10 11:00:00</time>
      </trkpt>
      <trkpt lat="42.83592" lon="-0.45191">
        <ele>1921.4</ele>
        <time>2021-08-10 11:00:01</time>
      </trkpt>
      <trkpt lat="42.83592" lon="-0.45191">
        <ele>1921.2</ele>
        <time>2021-08-10 11:00:02</time>
      </trkpt>
      <trkpt lat="42.83592" lon="-0.45191">
        <ele>1921.2</ele>
        <time>2021-08-10 11:00:03</time>
      </trkpt>
      <trkpt lat="42.83591" lon="-0.45191">
        <ele>1921.2</ele>
        <time>2021-08-10 11:00:04</time>
      </trkpt>
      <trkpt lat="42.8359" lon="-0.45191">
        <ele>1921.2</ele>
        <time>2021-08-10 11:00:05</time>
      </trkpt>
      <trkpt lat="42.83591" lon="-0.4519">
        <ele>1921</ele>
        <time>2021-08-10 11:00:06</time>
      </trkpt>
      <trkpt lat="42.83591" lon="-0.4519">
        <ele>1920.8</ele>
        <time>2021-08-10 11:00:07</time>
      </trkpt>
      <trkpt lat="42.83591" lon="-0.4519">
        <ele>1920.6</ele>
        <time>2021-08-10 11:00:08</time>
      </trkpt>
      <trkpt lat="42.83591" lon="-0.4519">
        <ele>1920.4</ele>
        <time>2021-08-10 11:00:09</time>
      </trkpt>
      <trkpt lat="42.83591" lon="-0.4519">
        <ele>1920.6</ele>
        <time>2021-08-10 11:00:10</time>
      </trkpt>
      <trkpt lat="42.8359" lon="-0.4519">
        <ele>1920.4</ele>
        <time>2021-08-10 11:00:11</time>
      </trkpt>
      <trkpt lat="42.8359" lon="-0.45191">
        <ele>1920.6</ele>
        <time>2021-08-10 11:00:12</time>
      </trkpt>
      <trkpt lat="42.83589" lon="-0.45191">
        <ele>1920.6</ele>
        <time>2021-08-10 11:00:13</time>
      </trkpt>
      <trkpt lat="42.83589" lon="-0.45191">
        <ele>1920.4</ele>
        <time>2021-08-10 11:00:14</time>
      </trkpt>
      <trkpt lat="42.83589" lon="-0.45191">
        <ele>1920.4</ele>
        <time>2021-08-10 11:00:15</time>
      </trkpt>
      <trkpt lat="42.83588" lon="-0.45191">
        <ele>1920.2</ele>
        <time>2021-08-10 11:00:16</time>
      </trkpt>
      <trkpt lat="42.83588" lon="-0.45191">
        <ele>1920.2</ele>
        <time>2021-08-10 11:00:17</time>
      </trkpt>
      <trkpt lat="42.83588" lon="-0.45191">
        <ele>1920.2</ele>
        <time>2021-08-10 11:00:19</time>
      </trkpt>
      <trkpt lat="42.83588" lon="-0.4519">
        <ele>1920.2</ele>
      </trkpt>
      <trkpt lat="42.83587" lon="-0.45189">
        <ele>1920</ele>
        <time>2021-08-10 11:00:20</time>
      </trkpt>
      <trkpt lat="42.83587" lon="-0.45189">
        <ele>1919.8</ele>
        <time>2021-08-10 11:00:21</time>
      </trkpt>
      <trkpt lat="42.83586" lon="-0.45189">
        <ele>1919.8</ele>
        <time>2021-08-10 11:00:22</time>
      </trkpt>
      <trkpt lat="42.83586" lon="-0.45188">
        <ele>1920.2</ele>
        <time>2021-08-10 11:00:23</time>
      </trkpt>
      <trkpt lat="42.83585" lon="-0.45188">
        <ele>1919.8</ele>
        <time>2021-08-10 11:00:24</time>
      </trkpt>
      <trkpt lat="42.83585" lon="-0.45188">
        <ele>1919.6</ele>
        <time>2021-08-10 11:00:25</time>
      </trkpt>
      <trkpt lat="42.83584" lon="-0.45187">
        <ele>1919.4</ele>
        <time>2021-08-10 11:00:26</time>
      </trkpt>
      <trkpt lat="42.83584" lon="-0.45187">
        <ele>1919.4</ele>
        <time>2021-08-10 11:00:27</time>
      </trkpt>
      <trkpt lat="42.83583" lon="-0.45186">
        <ele>1919.2</ele>
        <time>2021-08-10 11:00:28</time>
      </trkpt>
      <trkpt lat="42.83583" lon="-0.45186">
        <ele>1919.2</ele>
        <time>2021-08-10 11:00:29</time>
      </trkpt>
      <trkpt lat="42.83583" lon="-0.45185">
        <ele>1919.2</ele>
        <time>2021-08-10 11:00:30</time>
      </trkpt>
      <trkpt lat="42.83583" lon="-0.45185">
        <ele>1919.2</ele>
        <time>2021-08-10 11:00:31</time>
      </trkpt>
      <trkpt lat="42.83582" lon="-0.45185">
        <ele>1919</ele>
        <time>2021-08-10 11:00:32</time>
      </trkpt>
      <trkpt lat="42.83582" lon="-0.45184">
        <ele>1919</ele>
        <time>2021-08-10 11:00:33</time>
      </trkpt>
      <trkpt lat="42.83582" lon="-0.45184">
        <ele>1918.8</ele>
        <time>2021-08-10 11:00:34</time>
      </trkpt>
      <trkpt lat="42.83581" lon="-0.45183">
        <ele>1918.6</ele>
        <time>2021-08-10 11:00:35</time>
      </trkpt>
      <trkpt lat="42.83581" lon="-0.45183">
        <ele>1918.4</ele>
        <time>2021-08-10 11:00:36</time>
      </trkpt>
      <trkpt lat="42.8358" lon="-0.45183">
        <ele>1918.6</ele>
        <time>2021-08-10 11:00:37</time>
      </trkpt>
      <trkpt lat="42.8358" lon="-0.45183">
        <ele>1918.4</ele>
        <time>2021-08-10 11:00:38</time>
      </trkpt>
      <trkpt lat="42.83579" lon="-0.45183">
        <ele>1918.4</ele>
        <time>2021-08-10 11:00:39</time>
      </trkpt>
      <trkpt lat="42.83578" lon="-0.45183">
        <ele>1918.4</ele>
        <time>2021-08-10 11:00:40</time>
      </trkpt>
      <trkpt lat="42.83578" lon="-0.45182">
        <ele>1918.4</ele>
        <time>2021-08-10 11:00:41</time>
      </trkpt>
      <trkpt lat="42.83578" lon="-0.45182">
        <ele>1918</ele>
        <time>2021-08-10 11:00:42</time>
      </trkpt>
      <trkpt lat="42.83577" lon="-0.45182">
        <ele>1917.8</ele>
        <time>2021-08-10 11:00:43</time>
      </trkpt>
      <trkpt lat="42.83577" lon="-0.45181">
        <ele>1917.8</ele>
        <time>2021-08-10 11:00:45</time>
      </trkpt>
      <trkpt lat="42.83576" lon="-0.4518">
        <ele>1918</ele>
        <time>2021-08-10 11:00:46</time>
      </trkpt>
      <trkpt lat="42.83575" lon="-0.4518">
        <ele>1918.2</ele>
        <time>2021-08-10 11:00:47</time>
      </trkpt>
      <trkpt lat="42.83574" lon="-0.4518">
        <ele>1917.8</ele>
        <time>2021-08-10 11:00:48</time>
      </trkpt>
      <trkpt lat="42.83574" lon="-0.4518">
        <ele>1917.6</ele>
        <time>2021-08-10 11:00:49</time>
      </trkpt>
      <trkpt lat="42.83573" lon="-0.45179">
        <ele>1917.6</ele>
        <time>2021-08-10 11:00:50</time>
      </trkpt>
      <trkpt lat="42.83572" lon="-0.45178">
        <ele>1917.4</ele>
        <time>2021-08-10 11:00:51</time>
      </trkpt>
      <trkpt lat="42.83571" lon="-0.45177">
        <ele>1917.2</ele>
        <time>2021-08-10 11:00:52</time>
      </trkpt>
      <trkpt lat="42.83571" lon="-0.45177">
        <ele>1917</ele>
        <time>2021-08-10 11:00:53</time>
      </trkpt>
      <trkpt lat="42.8357" lon="-0.45176">
        <ele>1917</ele>
        <time>2021-08-10 11:00:54</time>
      </trkpt>
      <trkpt lat="42.83569" lon="-0.45175">
        <ele>1916.8</ele>
        <time>2021-08-10 11:00:55</time>
      </trkpt>
      <trkpt lat="42.8357" lon="-0.45174">
        <ele>1917</ele>
        <time>2021-08-10 11:00:56</time>
      </trkpt>
      <trkpt lat="42.83569" lon="-0.45173">
        <ele>1916.8</ele>
        <time>2021-08-10 11:00:57</time>
      </trkpt>
      <trkpt lat="42.83568" lon="-0.45171">
        <ele>1916.8</ele>
        <time>2021-08-10 11:00:58</time>
      </trkpt>
      <trkpt lat="42.83567" lon="-0.45171">
        <ele>1916.8</ele>
        <time>2021-08-10 11:00:59</time>
      </trkpt>
      <trkpt lat="42.83566" lon="-0.45169">
        <ele>1916.8</ele>
        <time>2021-08-10 11:01:00</time>
      </trkpt>
      <trkpt lat="42.83565" lon="-0.45169">
        <ele>1917</ele>
        <time>2021-08-10 11:01:01</time>
      </trkpt>
      <trkpt lat="42.83564" lon="-0.45167">
        <ele>1916.8</ele>
        <time>2021-08-10 11:01:02</time>
      </trkpt>
      <trkpt lat="42.83563" lon="-0.45166">
        <ele>1916.8</ele>
        <time>2021-08-10 11:01:03</time>
      </trkpt>
      <trkpt lat="42.83562" lon="-0.45165">
        <ele>1917</ele>
        <time>2021-08-10 11:01:04</time>
      </trkpt>
      <trkpt lat="42.83562" lon="-0.45165">
        <ele>1916.8</ele>
        <time>2021-08-10 11:01:05</time>
      </trkpt>
      <trkpt lat="42.83561" lon="-0.45164">
        <ele>1917</ele>
        <time>2021-08-10 11:01:06</time>
      </trkpt>
      <trkpt lat="42.8356" lon="-0.45163">
        <ele>1917</ele>
        <time>2021-08-10 11:01:07</time>
      </trkpt>
      <trkpt lat="42.83559" lon="-0.45163">
        <ele>1917.2</ele>
        <time>2021-08-10 11:01:08</time>
      </trkpt>
      <trkpt lat="42.83559" lon="-0.45162">
        <ele>1917.4</ele>
        <time>2021-08-10 11:01:09</time>
      </trkpt>
      <trkpt lat="42.83558" lon="-0.45161">
        <ele>1917.4</ele>
        <time>2021-08-10 11:01:10</time>
      </trkpt>
      <trkpt lat="42.83557" lon="-0.4516">
        <ele>1917.6</ele>
        <time>2021-08-10 11:01:11</time>
      </trkpt>
      <trkpt lat="42.83556" lon="-0.45159">
        <ele>1917.6</ele>
        <time>2021-08-10 11:01:12</time>
      </trkpt>
      <trkpt lat="42.83556" lon="-0.45158">
        <ele>1917.6</ele>
        <time>2021-08-10 11:01:13</time>
      </trkpt>
      <trkpt lat="42.83555" lon="-0.45158">
        <ele>1917.8</ele>
        <time>2021-08-10 11:01:14</time>
      </trkpt>
      <trkpt lat="42.83554" lon="-0.45156">
        <ele>1918</ele>
        <time>2021-08-10 11:01:15</time>
      </trkpt>
      <trkpt lat="42.83554" lon="-0.45154">
        <ele>1918.2</ele>
        <time>2021-08-10 11:01:16</time>
      </trkpt>
      <trkpt lat="42.83553" lon="-0.45153">
        <ele>1918.2</ele>
        <time>2021-08-10 11:01:17</time>
      </trkpt>
      <trkpt lat="42.83553" lon="-0.45152">
        <ele>1918.4</ele>
        <time>2021-08-10 11:01:18</time>
      </trkpt>
      <trkpt lat="42.83553" lon="-0.45151">
        <ele>1918.2</ele>
        <time>2021-08-10 11:01:19</time>
      </trkpt>
      <trkpt lat="42.83552" lon="-0.4515">
        <ele>1918.2</ele>
        <time>2021-08-10 11:01:20</time>
      </trkpt>
      <trkpt lat="42.83552" lon="-0.45149">
        <ele>1918.2</ele>
        <time>2021-08-10 11:01:21</time>
      </trkpt>
      <trkpt lat="42.83552" lon="-0.45147">
        <ele>1918.4</ele>
        <time>2021-08-10 11:01:22</time>
      </trkpt>
      <trkpt lat="42.83552" lon="-0.45146">
        <ele>1918.4</ele>
        <time>2021-08-10 11:01:23</time>
      </trkpt>
      <trkpt lat="42.83551" lon="-0.45144">
        <ele>1918.6</ele>
        <time>2021-08-10 11:01:27</time>
      </trkpt>
      <trkpt lat="42.83551" lon="-0.45144">
        <ele>1918.8</ele>
        <time>2021-08-10 11:01:28</time>
      </trkpt>
      <trkpt lat="42.8355" lon="-0.45142">
        <ele>1918.6</ele>
        <time>2021-08-10 11:01:29</time>
      </trkpt>
      <trkpt lat="42.83551" lon="-0.45141">
        <ele>1918.8</ele>
        <time>2021-08-10 11:01:30</time>
      </trkpt>
      <trkpt lat="42.83551" lon="-0.4514">
        <ele>1918.8</ele>
        <time>2021-08-10 11:01:31</time>
      </trkpt>
      <trkpt lat="42.83551" lon="-0.45139">
        <ele>1919</ele>
        <time>2021-08-10 11:01:32</time>
      </trkpt>
      <trkpt lat="42.83551" lon="-0.45137">
        <ele>1919.2</ele>
        <time>2021-08-10 11:01:33</time>
      </trkpt>
      <trkpt lat="42.8355" lon="-0.45136">
        <ele>1918.8</ele>
        <time>2021-08-10 11:01:34</time>
      </trkpt>
      <trkpt lat="42.8355" lon="-0.45135">
        <ele>1919.4</ele>
        <time>2021-08-10 11:01:35</time>
      </trkpt>
      <trkpt lat="42.8355" lon="-0.45133">
        <ele>1919.8</ele>
        <time>2021-08-10 11:01:36</time>
      </trkpt>
      <trkpt lat="42.8355" lon="-0.45132">
        <ele>1920.2</ele>
        <time>2021-08-10 11:01:37</time>
      </trkpt>
      <trkpt lat="42.83551" lon="-0.4513">
        <ele>1920.4</ele>
        <time>2021-08-10 11:01:38</time>
      </trkpt>
      <trkpt lat="42.83551" lon="-0.4513">
        <ele>1920.2</ele>
        <time>2021-08-10 11:01:39</time>
      </trkpt>
      <trkpt lat="42.83551" lon="-0.45129">
        <ele>1920.6</ele>
        <time>2021-08-10 11:01:40</time>
      </trkpt>
      <trkpt lat="42.83551" lon="-0.45128">
        <ele>1921</ele>
        <time>2021-08-10 11:01:41</time>
      </trkpt>
      <trkpt lat="42.83551" lon="-0.45127">
        <ele>1921.2</ele>
        <time>2021-08-10 11:01:42</time>
      </trkpt>
      <trkpt lat="42.83551" lon="-0.45127">
        <ele>1921.4</ele>
        <time>2021-08-10 11:01:43</time>
      </trkpt>
      <trkpt lat="42.83551" lon="-0.45126">
        <ele>1921.4</ele>
        <time>2021-08-10 11:01:44</time>
      </trkpt>
      <trkpt lat="42.83551" lon="-0.45125">
        <ele>1921.6</ele>
        <time>2021-08-10 11:01:45</time>
      </trkpt>
      <trkpt lat="42.83551" lon="-0.45124">
        <ele>1921.8</ele>
        <time>2021-08-10 11:01:46</time>
      </trkpt>
      <trkpt lat="42.83551" lon="-0.45123">
        <ele>1921.8</ele>
        <time>2021-08-10 11:01:47</time>
      </trkpt>
      <trkpt lat="42.83552" lon="-0.45123">
        <ele>1922.4</ele>
        <time>2021-08-10 11:01:48</time>
      </trkpt>
      <trkpt lat="42.83552" lon="-0.45122">
        <ele>1922.6</ele>
        <time>2021-08-10 11:01:49</time>
      </trkpt>
      <trkpt lat="42.83552" lon="-0.45121">
        <ele>1922.8</ele>
        <time>2021-08-10 11:01:50</time>
      </trkpt>
      <trkpt lat="42.83551" lon="-0.45121">
        <ele>1922.8</ele>
        <time>2021-08-10 11:01:51</time>
      </trkpt>
      <trkpt lat="42.83551" lon="-0.4512">
        <ele>1922.8</ele>
        <time>2021-08-10 11:01:52</time>
      </trkpt>
      <trkpt lat="42.83551" lon="-0.45119">
        <ele>1922.8</ele>
        <time>2021-08-10 11:01:53</time>
      </trkpt>
      <trkpt lat="42.83552" lon="-0.45119">
        <ele>1923.4</ele>
        <time>2021-08-10 11:01:54</time>
      </trkpt>
      <trkpt lat="42.83552" lon="-0.45118">
        <ele>1923.2</ele>
        <time>2021-08-10 11:01:55</time>
      </trkpt>
      <trkpt lat="42.83552" lon="-0.45117">
        <ele>1923.4</ele>
        <time>2021-08-10 11:01:56</time>
      </trkpt>
      <trkpt lat="42.83553" lon="-0.45117">
        <ele>1923.8</ele>
        <time>2021-08-10 11:01:57</time>
      </trkpt>
      <trkpt lat="42.83552" lon="-0.45116">
        <ele>1924</ele>
        <time>2021-08-10 11:01:58</time>
      </trkpt>
      <trkpt lat="42.83552" lon="-0.45115">
        <ele>1924.4</ele>
        <time>2021-08-10 11:01:59</time>
      </trkpt>
      <trkpt lat="42.83552" lon="-0.45115">
        <ele>1924.4</ele>
        <time>2021-08-10 11:02:00</time>
      </trkpt>
      <trkpt lat="42.83552" lon="-0.45114">
        <ele>1924.6</ele>
        <time>2021-08-10 11:02:01</time>
      </trkpt>
      <trkpt lat="42.83552" lon="-0.45113">
        <ele>1924.6</ele>
        <time>2021-08-10 11:02:02</time>
      </trkpt>
      <trkpt lat="42.83552" lon="-0.45112">
        <ele>1924.4</ele>
        <time>2021-08-10 11:02:03</time>
      </trkpt>
      <trkpt lat="42.83551" lon="-0.45111">
        <ele>1924.6</ele>
        <time>2021-08-10 11:02:04</time>
      </trkpt>
      <trkpt lat="42.83551" lon="-0.45111">
        <ele>1925</ele>
        <time>2021-08-10 11:02:05</time>
      </trkpt>
      <trkpt lat="42.83551" lon="-0.4511">
        <ele>1925.4</ele>
        <time>2021-08-10 11:02:06</time>
      </trkpt>
      <trkpt lat="42.83551" lon="-0.45109">
        <ele>1925.2</ele>
        <time>2021-08-10 11:02:07</time>
      </trkpt>
      <trkpt lat="42.8355" lon="-0.45109">
        <ele>1925.6</ele>
        <time>2021-08-10 11:02:08</time>
      </trkpt>
      <trkpt lat="42.8355" lon="-0.45108">
        <ele>1925.8</ele>
        <time>2021-08-10 11:02:09</time>
      </trkpt>
      <trkpt lat="42.8355" lon="-0.45107">
        <ele>1925.8</ele>
        <time>2021-08-10 11:02:10</time>
      </trkpt>
      <trkpt lat="42.83549" lon="-0.45107">
        <ele>1925.8</ele>
        <time>2021-08-10 11:02:11</time>
      </trkpt>
      <trkpt lat="42.83549" lon="-0.45106">
        <ele>1926.2</ele>
        <time>2021-08-10 11:02:12</time>
      </trkpt>
      <trkpt lat="42.83549" lon="-0.45105">
        <ele>1926.2</ele>
        <time>2021-08-10 11:02:13</time>
      </trkpt>
      <trkpt lat="42.83548" lon="-0.45105">
        <ele>1926.2</ele>
        <time>2021-08-10 11:02:14</time>
      </trkpt>
      <trkpt lat="42.83548" lon="-0.45104">
        <ele>1926.2</ele>
        <time>2021-08-10 11:02:15</time>
      </trkpt>
      <trkpt lat="42.83548" lon="-0.45103">
        <ele>1926.6</ele>
        <time>2021-08-10 11:02:16</time>
      </trkpt>
      <trkpt lat="42.83548" lon="-0.45102">
        <ele>1926.6</ele>
        <time>2021-08-10 11:02:17</time>
      </trkpt>
      <trkpt lat="42.83548" lon="-0.45101">
        <ele>1926.4</ele>
        <time>2021-08-10 11:02:18</time>
      </trkpt>
      <trkpt lat="42.83547" lon="-0.451">
        <ele>1927.2</ele>
        <time>2021-08-10 11:02:19</time>
      </trkpt>
      <trkpt lat="42.83547" lon="-0.451">
        <ele>1927.2</ele>
        <time>2021-08-10 11:02:20</time>
      </trkpt>
      <trkpt lat="42.83547" lon="-0.451">
        <ele>1927.4</ele>
        <time>2021-08-10 11:02:21</time>
      </trkpt>
      <trkpt lat="42.83547" lon="-0.451">
        <ele>1927.4</ele>
        <time>2021-08-10 11:02:22</time>
      </trkpt>
      <trkpt lat="42.83547" lon="-0.45099">
        <ele>1927.6</ele>
        <time>2021-08-10 11:02:23</time>
      </trkpt>
      <trkpt lat="42.83547" lon="-0.45099">
        <ele>1927.6</ele>
        <time>2021-08-10 11:02:24</time>
      </trkpt>
      <trkpt lat="42.83548" lon="-0.45098">
        <ele>1927.6</ele>
        <time>2021-08-10 11:02:25</time>
      </trkpt>
      <trkpt lat="42.83548" lon="-0.45101">
        <ele>1927.8</ele>
        <time>2021-08-10 11:02:26</time>
      </trkpt>
      <trkpt lat="42.83547" lon="-0.45101">
        <ele>1927.6</ele>
        <time>2021-08-10 11:02:27</time>
      </trkpt>
      <trkpt lat="42.83547" lon="-0.451">
        <ele>1927.4</ele>
        <time>2021-08-10 11:02:28</time>
      </trkpt>
      <trkpt lat="42.83547" lon="-0.451">
        <ele>1927.2</ele>
        <time>2021-08-10 11:02:29</time>
      </trkpt>
      <trkpt lat="42.83546" lon="-0.45099">
        <ele>1927.4</ele>
        <time>2021-08-10 11:02:30</time>
      </trkpt>
      <trkpt lat="42.83545" lon="-0.45099">
        <ele>1927.4</ele>
        <time>2021-08-10 11:02:31</time>
      </trkpt>
      <trkpt lat="42.83545" lon="-0.45098">
        <ele>1927.4</ele>
        <time>2021-08-10 11:02:32</time>
      </trkpt>
      <trkpt lat="42.83544" lon="-0.45098">
        <ele>1927.6</ele>
        <time>2021-08-10 11:02:33</time>
      </trkpt>
      <trkpt lat="42.83543" lon="-0.45097">
        <ele>1927</ele>
        <time>2021-08-10 11:02:34</time>
      </trkpt>
      <trkpt lat="42.83543" lon="-0.45096">
        <ele>1927.6</ele>
        <time>2021-08-10 11:02:35</time>
      </trkpt>
      <trkpt lat="42.83542" lon="-0.45095">
        <ele>1927.4</ele>
        <time>2021-08-10 11:02:36</time>
      </trkpt>
      <trkpt lat="42.83542" lon="-0.45094">
        <ele>1927.4</ele>
        <time>2021-08-10 11:02:37</time>
      </trkpt>
      <trkpt lat="42.83541" lon="-0.45094">
        <ele>1927.2</ele>
        <time>2021-08-10 11:02:38</time>
      </trkpt>
      <trkpt lat="42.83541" lon="-0.45093">
        <ele>1927.4</ele>
        <time>2021-08-10 11:02:39</time>
      </trkpt>
      <trkpt lat="42.83541" lon="-0.45092">
        <ele>1927.4</ele>
        <time>2021-08-10 11:02:40</time>
      </trkpt>
      <trkpt lat="42.8354" lon="-0.45091">
        <ele>1927.4</ele>
        <time>2021-08-10 11:02:41</time>
      </trkpt>
      <trkpt lat="42.83539" lon="-0.45091">
        <ele>1927.6</ele>
        <time>2021-08-10 11:02:42</time>
      </trkpt>
      <trkpt lat="42.83539" lon="-0.45089">
        <ele>1927.8</ele>
        <time>2021-08-10 11:02:43</time>
      </trkpt>
      <trkpt lat="42.83539" lon="-0.45089">
        <ele>1928</ele>
        <time>2021-08-10 11:02:44</time>
      </trkpt>
      <trkpt lat="42.83538" lon="-0.45087">
        <ele>1928</ele>
        <time>2021-08-10 11:02:45</time>
      </trkpt>
      <trkpt lat="42.83537" lon="-0.45087">
        <ele>1928.2</ele>
        <time>2021-08-10 11:02:46</time>
      </trkpt>
      <trkpt lat="42.83537" lon="-0.45086">
        <ele>1928.2</ele>
        <time>2021-08-10 11:02:47</time>
      </trkpt>
      <trkpt lat="42.83537" lon="-0.45085">
        <ele>1928.4</ele>
        <time>2021-08-10 11:02:48</time>
      </trkpt>
      <trkpt lat="42.83536" lon="-0.45084">
        <ele>1928.8</ele>
        <time>2021-08-10 11:02:49</time>
      </trkpt>
      <trkpt lat="42.83536" lon="-0.45083">
        <ele>1929</ele>
        <time>2021-08-10 11:02:50</time>
      </trkpt>
      <trkpt lat="42.83535" lon="-0.45083">
        <ele>1929</ele>
        <time>2021-08-10 11:02:51</time>
      </trkpt>
      <trkpt lat="42.83535" lon="-0.45082">
        <ele>1929.2</ele>
        <time>2021-08-10 11:02:52</time>
      </trkpt>
      <trkpt lat="42.83534" lon="-0.45081">
        <ele>1929.2</ele>
        <time>2021-08-10 11:02:53</time>
      </trkpt>
      <trkpt lat="42.83534" lon="-0.45081">
        <ele>1929.4</ele>
        <time>2021-08-10 11:02:54</time>
      </trkpt>
      <trkpt lat="42.83534" lon="-0.4508">
        <ele>1930</ele>
        <time>2021-08-10 11:02:55</time>
      </trkpt>
      <trkpt lat="42.83533" lon="-0.45079">
        <ele>1930</ele>
        <time>2021-08-10 11:02:56</time>
      </trkpt>
      <trkpt lat="42.83533" lon="-0.45079">
        <ele>1929.8</ele>
        <time>2021-08-10 11:02:57</time>
      </trkpt>
      <trkpt lat="42.83532" lon="-0.45078">
        <ele>1929.8</ele>
        <time>2021-08-10 11:02:58</time>
      </trkpt>
      <trkpt lat="42.83532" lon="-0.45078">
        <ele>1929.8</ele>
        <time>2021-08-10 11:02:59</time>
      </trkpt>
      <trkpt lat="42.83531" lon="-0.45077">
        <ele>1930</ele>
        <time>2021-08-10 11:03:00</time>
      </trkpt>
      <trkpt lat="42.8353" lon="-0.45077">
        <ele>1930.2</ele>
        <time>2021-08-10 11:03:01</time>
      </trkpt>
      <trkpt lat="42.8353" lon="-0.45076">
        <ele>1929.8</ele>
        <time>2021-08-10 11:03:02</time>
      </trkpt>
      <trkpt lat="42.83529" lon="-0.45075">
        <ele>1930.2</ele>
        <time>2021-08-10 11:03:03</time>
      </trkpt>
      <trkpt lat="42.83528" lon="-0.45075">
        <ele>1930.4</ele>
        <time>2021-08-10 11:03:04</time>
      </trkpt>
      <trkpt lat="42.83528" lon="-0.45074">
        <ele>1930.8</ele>
        <time>2021-08-10 11:03:05</time>
      </trkpt>
      <trkpt lat="42.83528" lon="-0.45073">
        <ele>1931.2</ele>
        <time>2021-08-10 11:03:06</time>
      </trkpt>
      <trkpt lat="42.83527" lon="-0.45073">
        <ele>1931.2</ele>
        <time>2021-08-10 11:03:07</time>
      </trkpt>
      <trkpt lat="42.83527" lon="-0.45072">
        <ele>1931</ele>
        <time>2021-08-10 11:03:08</time>
      </trkpt>
      <trkpt lat="42.83526" lon="-0.45072">
        <ele>1931</ele>
        <time>2021-08-10 11:03:09</time>
      </trkpt>
      <trkpt lat="42.83526" lon="-0.45071">
        <ele>1930.8</ele>
        <time>2021-08-10 11:03:10</time>
      </trkpt>
      <trkpt lat="42.83525" lon="-0.4507">
        <ele>1931</ele>
        <time>2021-08-10 11:03:11</time>
      </trkpt>
      <trkpt lat="42.83525" lon="-0.4507">
        <ele>1930.8</ele>
        <time>2021-08-10 11:03:12</time>
      </trkpt>
      <trkpt lat="42.83524" lon="-0.45069">
        <ele>1930.8</ele>
        <time>2021-08-10 11:03:13</time>
      </trkpt>
      <trkpt lat="42.83524" lon="-0.45069">
        <ele>1930.8</ele>
        <time>2021-08-10 11:03:14</time>
      </trkpt>
      <trkpt lat="42.83523" lon="-0.45069">
        <ele>1930.8</ele>
        <time>2021-08-10 11:03:15</time>
      </trkpt>
      <trkpt lat="42.83522" lon="-0.45068">
        <ele>1930.8</ele>
        <time>2021-08-10 11:03:16</time>
      </trkpt>
      <trkpt lat="42.83522" lon="-0.45067">
        <ele>1930.8</ele>
        <time>2021-08-10 11:03:17</time>
      </trkpt>
      <trkpt lat="42.83521" lon="-0.45067">
        <ele>1930.6</ele>
        <time>2021-08-10 11:03:18</time>
      </trkpt>
      <trkpt lat="42.8352" lon="-0.45066">
        <ele>1930.8</ele>
        <time>2021-08-10 11:03:19</time>
      </trkpt>
      <trkpt lat="42.8352" lon="-0.45066">
        <ele>1931</ele>
        <time>2021-08-10 11:03:20</time>
      </trkpt>
      <trkpt lat="42.8352" lon="-0.45066">
        <ele>1931.2</ele>
        <time>2021-08-10 11:03:21</time>
      </trkpt>
      <trkpt lat="42.83519" lon="-0.45065">
        <ele>1931</ele>
        <time>2021-08-10 11:03:22</time>
      </trkpt>
      <trkpt lat="42.83519" lon="-0.45065">
        <ele>1931.2</ele>
        <time>2021-08-10 11:03:23</time>
      </trkpt>
      <trkpt lat="42.83518" lon="-0.45065">
        <ele>1931</ele>
        <time>2021-08-10 11:03:24</time>
      </trkpt>
      <trkpt lat="42.83518" lon="-0.45065">
        <ele>1931.2</ele>
        <time>2021-08-10 11:03:25</time>
      </trkpt>
      <trkpt lat="42.83517" lon="-0.45064">
        <ele>1931</ele>
        <time>2021-08-10 11:03:26</time>
      </trkpt>
      <trkpt lat="42.83517" lon="-0.45064">
        <ele>1931</ele>
        <time>2021-08-10 11:03:27</time>
      </trkpt>
      <trkpt lat="42.83517" lon="-0.45063">
        <ele>1930.8</ele>
        <time>2021-08-10 11:03:28</time>
      </trkpt>
      <trkpt lat="42.83516" lon="-0.45062">
        <ele>1931</ele>
        <time>2021-08-10 11:03:29</time>
      </trkpt>
      <trkpt lat="42.83516" lon="-0.45062">
        <ele>1931</ele>
        <time>2021-08-10 11:03:30</time>
      </trkpt>
      <trkpt lat="42.83516" lon="-0.45062">
        <ele>1931</ele>
        <time>2021-08-10 11:03:31</time>
      </trkpt>
      <trkpt lat="42.83516" lon="-0.45061">
        <ele>1931</ele>
        <time>2021-08-10 11:03:32</time>
      </trkpt>
      <trkpt lat="42.83514" lon="-0.45062">
        <ele>1931.2</ele>
        <time>2021-08-10 11:03:33</time>
      </trkpt>
      <trkpt lat="42.83514" lon="-0.45061">
        <ele>1931.2</ele>
        <time>2021-08-10 11:03:34</time>
      </trkpt>
      <trkpt lat="42.83513" lon="-0.4506">
        <ele>1931.2</ele>
        <time>2021-08-10 11:03:35</time>
      </trkpt>
      <trkpt lat="42.83513" lon="-0.4506">
        <ele>1931.2</ele>
        <time>2021-08-10 11:03:36</time>
      </trkpt>
      <trkpt lat="42.83512" lon="-0.4506">
        <ele>1931.2</ele>
        <time>2021-08-10 11:03:37</time>
      </trkpt>
      <trkpt lat="42.83512" lon="-0.45059">
        <ele>1931</ele>
        <time>2021-08-10 11:03:38</time>
      </trkpt>
      <trkpt lat="42.83512" lon="-0.45059">
        <ele>1931</ele>
        <time>2021-08-10 11:03:39</time>
      </trkpt>
      <trkpt lat="42.83511" lon="-0.45059">
        <ele>1930.6</ele>
        <time>2021-08-10 11:03:40</time>
      </trkpt>
      <trkpt lat="42.83511" lon="-0.45059">
        <ele>1930.6</ele>
        <time>2021-08-10 11:03:41</time>
      </trkpt>
      <trkpt lat="42.83511" lon="-0.45058">
        <ele>1930.6</ele>
        <time>2021-08-10 11:03:52</time>
      </trkpt>
      <trkpt lat="42.8351" lon="-0.45058">
        <ele>1930.8</ele>
        <time>2021-08-10 11:03:53</time>
      </trkpt>
      <trkpt lat="42.83509" lon="-0.45058">
        <ele>1930.8</ele>
        <time>2021-08-10 11:03:54</time>
      </trkpt>
      <trkpt lat="42.83509" lon="-0.45058">
        <ele>1930.8</ele>
        <time>2021-08-10 11:03:55</time>
      </trkpt>
      <trkpt lat="42.83508" lon="-0.45058">
        <ele>1930.6</ele>
        <time>2021-08-10 11:03:56</time>
      </trkpt>
      <trkpt lat="42.83507" lon="-0.45057">
        <ele>1930.6</ele>
        <time>2021-08-10 11:03:57</time>
      </trkpt>
      <trkpt lat="42.83506" lon="-0.45057">
        <ele>1930.4</ele>
        <time>2021-08-10 11:03:58</time>
      </trkpt>
      <trkpt lat="42.83506" lon="-0.45057">
        <ele>1930.4</ele>
        <time>2021-08-10 11:03:59</time>
      </trkpt>
      <trkpt lat="42.83505" lon="-0.45057">
        <ele>1930.4</ele>
        <time>2021-08-10 11:04:00</time>
      </trkpt>
      <trkpt lat="42.83504" lon="-0.45056">
        <ele>1930.4</ele>
        <time>2021-08-10 11:04:01</time>
      </trkpt>
      <trkpt lat="42.83503" lon="-0.45055">
        <ele>1930.4</ele>
        <time>2021-08-10 11:04:02</time>
      </trkpt>
      <trkpt lat="42.83503" lon="-0.45054">
        <ele>1930.4</ele>
        <time>2021-08-10 11:04:03</time>
      </trkpt>
      <trkpt lat="42.83502" lon="-0.45053">
        <ele>1930.4</ele>
        <time>2021-08-10 11:04:04</time>
      </trkpt>
      <trkpt lat="42.83501" lon="-0.45052">
        <ele>1930.4</ele>
        <time>2021-08-10 11:04:05</time>
      </trkpt>
      <trkpt lat="42.835" lon="-0.45051">
        <ele>1930.4</ele>
        <time>2021-08-10 11:04:06</time>
      </trkpt>
      <trkpt lat="42.835" lon="-0.45051">
        <ele>1930.6</ele>
        <time>2021-08-10 11:04:07</time>
      </trkpt>
      <trkpt lat="42.83499" lon="-0.4505">
        <ele>1930.4</ele>
        <time>2021-08-10 11:04:08</time>
      </trkpt>
      <trkpt lat="42.83498" lon="-0.45049">
        <ele>1930.6</ele>
        <time>2021-08-10 11:04:09</time>
      </trkpt>
      <trkpt lat="42.83497" lon="-0.45049">
        <ele>1930.6</ele>
        <time>2021-08-10 11:04:10</time>
      </trkpt>
      <trkpt lat="42.83496" lon="-0.45048">
        <ele>1930.8</ele>
        <time>2021-08-10 11:04:11</time>
      </trkpt>
      <trkpt lat="42.83496" lon="-0.45047">
        <ele>1930.8</ele>
        <time>2021-08-10 11:04:12</time>
      </trkpt>
      <trkpt lat="42.83495" lon="-0.45046">
        <ele>1930.8</ele>
        <time>2021-08-10 11:04:13</time>
      </trkpt>
      <trkpt lat="42.83494" lon="-0.45045">
        <ele>1930.8</ele>
        <time>2021-08-10 11:04:14</time>
      </trkpt>
      <trkpt lat="42.83493" lon="-0.45044">
        <ele>1930.6</ele>
        <time>2021-08-10 11:04:15</time>
      </trkpt>
      <trkpt lat="42.83493" lon="-0.45043">
        <ele>1930.8</ele>
        <time>2021-08-10 11:04:16</time>
      </trkpt>
      <trkpt lat="42.83492" lon="-0.45042">
        <ele>1930.8</ele>
        <time>2021-08-10 11:04:17</time>
      </trkpt>
      <trkpt lat="42.83491" lon="-0.45041">
        <ele>1930.8</ele>
        <time>2021-08-10 11:04:18</time>
      </trkpt>
      <trkpt lat="42.8349" lon="-0.45039">
        <ele>1930.8</ele>
        <time>2021-08-10 11:04:19</time>
      </trkpt>
      <trkpt lat="42.8349" lon="-0.45038">
        <ele>1931</ele>
        <time>2021-08-10 11:04:20</time>
      </trkpt>
      <trkpt lat="42.83489" lon="-0.45037">
        <ele>1931</ele>
        <time>2021-08-10 11:04:21</time>
      </trkpt>
      <trkpt lat="42.83488" lon="-0.45036">
        <ele>1931</ele>
        <time>2021-08-10 11:04:22</time>
      </trkpt>
      <trkpt lat="42.83488" lon="-0.45035">
        <ele>1930.8</ele>
        <time>2021-08-10 11:04:23</time>
      </trkpt>
      <trkpt lat="42.83487" lon="-0.45034">
        <ele>1930.8</ele>
        <time>2021-08-10 11:04:24</time>
      </trkpt>
      <trkpt lat="42.83486" lon="-0.45033">
        <ele>1930.8</ele>
        <time>2021-08-10 11:04:25</time>
      </trkpt>
      <trkpt lat="42.83486" lon="-0.45032">
        <ele>1931</ele>
        <time>2021-08-10 11:04:26</time>
      </trkpt>
      <trkpt lat="42.83485" lon="-0.45031">
        <ele>1931</ele>
        <time>2021-08-10 11:04:27</time>
      </trkpt>
      <trkpt lat="42.83484" lon="-0.4503">
        <ele>1931</ele>
        <time>2021-08-10 11:04:28</time>
      </trkpt>
      <trkpt lat="42.83484" lon="-0.45029">
        <ele>1931</ele>
        <time>2021-08-10 11:04:29</time>
      </trkpt>
      <trkpt lat="42.83483" lon="-0.45028">
        <ele>1931</ele>
        <time>2021-08-10 11:04:30</time>
      </trkpt>
      <trkpt lat="42.83482" lon="-0.45028">
        <ele>1931</ele>
        <time>2021-08-10 11:04:31</time>
      </trkpt>
      <trkpt lat="42.83481" lon="-0.45027">
        <ele>1931.2</ele>
        <time>2021-08-10 11:04:32</time>
      </trkpt>
      <trkpt lat="42.8348" lon="-0.45026">
        <ele>1931.2</ele>
        <time>2021-08-10 11:04:33</time>
      </trkpt>
      <trkpt lat="42.8348" lon="-0.45025">
        <ele>1931.2</ele>
        <time>2021-08-10 11:04:34</time>
      </trkpt>
      <trkpt lat="42.83479" lon="-0.45024">
        <ele>1931</ele>
        <time>2021-08-10 11:04:35</time>
      </trkpt>
      <trkpt lat="42.83478" lon="-0.45023">
        <ele>1931</ele>
        <time>2021-08-10 11:04:36</time>
      </trkpt>
      <trkpt lat="42.83478" lon="-0.45022">
        <ele>1931</ele>
        <time>2021-08-10 11:04:37</time>
      </trkpt>
      <trkpt lat="42.83477" lon="-0.45021">
        <ele>1931</ele>
        <time>2021-08-10 11:04:38</time>
      </trkpt>
      <trkpt lat="42.83477" lon="-0.4502">
        <ele>1931.2</ele>
        <time>2021-08-10 11:04:39</time>
      </trkpt>
      <trkpt lat="42.83476" lon="-0.45019">
        <ele>1931.2</ele>
        <time>2021-08-10 11:04:40</time>
      </trkpt>
      <trkpt lat="42.83476" lon="-0.45019">
        <ele>1931.2</ele>
        <time>2021-08-10 11:04:41</time>
      </trkpt>
      <trkpt lat="42.83475" lon="-0.45017">
        <ele>1931.4</ele>
        <time>2021-08-10 11:04:42</time>
      </trkpt>
      <trkpt lat="42.83474" lon="-0.45016">
        <ele>1931.4</ele>
        <time>2021-08-10 11:04:43</time>
      </trkpt>
      <trkpt lat="42.83474" lon="-0.45015">
        <ele>1931.4</ele>
        <time>2021-08-10 11:04:44</time>
      </trkpt>
      <trkpt lat="42.83473" lon="-0.45014">
        <ele>1931.4</ele>
        <time>2021-08-10 11:04:45</time>
      </trkpt>
      <trkpt lat="42.83472" lon="-0.45013">
        <ele>1931.4</ele>
        <time>2021-08-10 11:04:46</time>
      </trkpt>
      <trkpt lat="42.83472" lon="-0.45012">
        <ele>1931.4</ele>
        <time>2021-08-10 11:04:47</time>
      </trkpt>
      <trkpt lat="42.83471" lon="-0.45011">
        <ele>1931.4</ele>
        <time>2021-08-10 11:04:48</time>
      </trkpt>
      <trkpt lat="42.8347" lon="-0.45008">
        <ele>1931.4</ele>
        <time>2021-08-10 11:04:49</time>
      </trkpt>
      <trkpt lat="42.83469" lon="-0.45007">
        <ele>1931.4</ele>
        <time>2021-08-10 11:04:50</time>
      </trkpt>
      <trkpt lat="42.83468" lon="-0.45006">
        <ele>1931.6</ele>
        <time>2021-08-10 11:04:51</time>
      </trkpt>
      <trkpt lat="42.83468" lon="-0.45005">
        <ele>1931.4</ele>
        <time>2021-08-10 11:04:52</time>
      </trkpt>
      <trkpt lat="42.83467" lon="-0.45004">
        <ele>1931.6</ele>
        <time>2021-08-10 11:04:53</time>
      </trkpt>
      <trkpt lat="42.83466" lon="-0.45003">
        <ele>1931.6</ele>
        <time>2021-08-10 11:04:54</time>
      </trkpt>
      <trkpt lat="42.83465" lon="-0.45001">
        <ele>1931.8</ele>
        <time>2021-08-10 11:04:55</time>
      </trkpt>
      <trkpt lat="42.83465" lon="-0.45">
        <ele>1931.6</ele>
        <time>2021-08-10 11:04:56</time>
      </trkpt>
      <trkpt lat="42.83464" lon="-0.44999">
        <ele>1931.6</ele>
        <time>2021-08-10 11:04:57</time>
      </trkpt>
      <trkpt lat="42.83464" lon="-0.44997">
        <ele>1931.8</ele>
        <time>2021-08-10 11:04:58</time>
      </trkpt>
      <trkpt lat="42.83464" lon="-0.44997">
        <ele>1932</ele>
        <time>2021-08-10 11:04:59</time>
      </trkpt>
      <trkpt lat="42.83463" lon="-0.44995">
        <ele>1932</ele>
        <time>2021-08-10 11:05:00</time>
      </trkpt>
      <trkpt lat="42.83463" lon="-0.44994">
        <ele>1932</ele>
        <time>2021-08-10 11:05:01</time>
      </trkpt>
      <trkpt lat="42.83462" lon="-0.44993">
        <ele>1931.8</ele>
        <time>2021-08-10 11:05:02</time>
      </trkpt>
      <trkpt lat="42.83462" lon="-0.44991">
        <ele>1931.8</ele>
        <time>2021-08-10 11:05:03</time>
      </trkpt>
      <trkpt lat="42.83461" lon="-0.4499">
        <ele>1932</ele>
        <time>2021-08-10 11:05:04</time>
      </trkpt>
      <trkpt lat="42.83461" lon="-0.44988">
        <ele>1932</ele>
        <time>2021-08-10 11:05:05</time>
      </trkpt>
      <trkpt lat="42.83461" lon="-0.44987">
        <ele>1931.8</ele>
        <time>2021-08-10 11:05:06</time>
      </trkpt>
      <trkpt lat="42.8346" lon="-0.44986">
        <ele>1931.8</ele>
        <time>2021-08-10 11:05:07</time>
      </trkpt>
      <trkpt lat="42.83459" lon="-0.44983">
        <ele>1931.8</ele>
        <time>2021-08-10 11:05:08</time>
      </trkpt>
      <trkpt lat="42.83459" lon="-0.44982">
        <ele>1932</ele>
        <time>2021-08-10 11:05:09</time>
      </trkpt>
      <trkpt lat="42.83458" lon="-0.44981">
        <ele>1932</ele>
        <time>2021-08-10 11:05:10</time>
      </trkpt>
      <trkpt lat="42.83458" lon="-0.4498">
        <ele>1932</ele>
        <time>2021-08-10 11:05:11</time>
      </trkpt>
      <trkpt lat="42.83457" lon="-0.44979">
        <ele>1931.8</ele>
        <time>2021-08-10 11:05:12</time>
      </trkpt>
      <trkpt lat="42.83457" lon="-0.44977">
        <ele>1931.8</ele>
        <time>2021-08-10 11:05:13</time>
      </trkpt>
      <trkpt lat="42.83456" lon="-0.44976">
        <ele>1931.8</ele>
        <time>2021-08-10 11:05:14</time>
      </trkpt>
      <trkpt lat="42.83456" lon="-0.44975">
        <ele>1931.8</ele>
        <time>2021-08-10 11:05:15</time>
      </trkpt>
      <trkpt lat="42.83456" lon="-0.44973">
        <ele>1931.8</ele>
        <time>2021-08-10 11:05:16</time>
      </trkpt>
      <trkpt lat="42.83455" lon="-0.44972">
        <ele>1932</ele>
        <time>2021-08-10 11:05:17</time>
      </trkpt>
      <trkpt lat="42.83455" lon="-0.4497">
        <ele>1932</ele>
        <time>2021-08-10 11:05:18</time>
      </trkpt>
      <trkpt lat="42.83454" lon="-0.44968">
        <ele>1932.2</ele>
        <time>2021-08-10 11:05:19</time>
      </trkpt>
      <trkpt lat="42.83454" lon="-0.44967">
        <ele>1932</ele>
        <time>2021-08-10 11:05:20</time>
      </trkpt>
      <trkpt lat="42.83454" lon="-0.44965">
        <ele>1932.2</ele>
        <time>2021-08-10 11:05:21</time>
      </trkpt>
      <trkpt lat="42.83453" lon="-0.44963">
        <ele>1932.2</ele>
        <time>2021-08-10 11:05:22</time>
      </trkpt>
      <trkpt lat="42.83452" lon="-0.44962">
        <ele>1932.2</ele>
        <time>2021-08-10 11:05:23</time>
      </trkpt>
      <trkpt lat="42.83452" lon="-0.44962">
        <ele>1932.2</ele>
        <time>2021-08-10 11:05:24</time>
      </trkpt>
      <trkpt lat="42.83452" lon="-0.44961">
        <ele>1932</ele>
        <time>2021-08-10 11:05:25</time>
      </trkpt>
      <trkpt lat="42.83452" lon="-0.4496">
        <ele>1932.2</ele>
        <time>2021-08-10 11:05:26</time>
      </trkpt>
      <trkpt lat="42.83451" lon="-0.44958">
        <ele>1932.2</ele>
        <time>2021-08-10 11:05:27</time>
      </trkpt>
      <trkpt lat="42.83452" lon="-0.44957">
        <ele>1932.2</ele>
        <time>2021-08-10 11:05:28</time>
      </trkpt>
      <trkpt lat="42.83451" lon="-0.44955">
        <ele>1932.2</ele>
        <time>2021-08-10 11:05:29</time>
      </trkpt>
      <trkpt lat="42.83451" lon="-0.44954">
        <ele>1932.2</ele>
        <time>2021-08-10 11:05:30</time>
      </trkpt>
      <trkpt lat="42.8345" lon="-0.44953">
        <ele>1932.2</ele>
        <time>2021-08-10 11:05:31</time>
      </trkpt>
      <trkpt lat="42.8345" lon="-0.44952">
        <ele>1932.4</ele>
        <time>2021-08-10 11:05:32</time>
      </trkpt>
      <trkpt lat="42.83449" lon="-0.4495">
        <ele>1932.2</ele>
        <time>2021-08-10 11:05:33</time>
      </trkpt>
      <trkpt lat="42.83449" lon="-0.44949">
        <ele>1932.2</ele>
        <time>2021-08-10 11:05:34</time>
      </trkpt>
      <trkpt lat="42.83449" lon="-0.44947">
        <ele>1932</ele>
        <time>2021-08-10 11:05:35</time>
      </trkpt>
      <trkpt lat="42.83449" lon="-0.44946">
        <ele>1932</ele>
        <time>2021-08-10 11:05:36</time>
      </trkpt>
      <trkpt lat="42.83448" lon="-0.44944">
        <ele>1932</ele>
        <time>2021-08-10 11:05:37</time>
      </trkpt>
      <trkpt lat="42.83448" lon="-0.44943">
        <ele>1932</ele>
        <time>2021-08-10 11:05:38</time>
      </trkpt>
      <trkpt lat="42.83448" lon="-0.44942">
        <ele>1932.2</ele>
        <time>2021-08-10 11:05:39</time>
      </trkpt>
      <trkpt lat="42.83448" lon="-0.4494">
        <ele>1932.2</ele>
        <time>2021-08-10 11:05:40</time>
      </trkpt>
      <trkpt lat="42.83447" lon="-0.44939">
        <ele>1932</ele>
        <time>2021-08-10 11:05:41</time>
      </trkpt>
      <trkpt lat="42.83447" lon="-0.44937">
        <ele>1932</ele>
        <time>2021-08-10 11:05:42</time>
      </trkpt>
      <trkpt lat="42.83446" lon="-0.44936">
        <ele>1932</ele>
        <time>2021-08-10 11:05:43</time>
      </trkpt>
      <trkpt lat="42.83446" lon="-0.44935">
        <ele>1932</ele>
        <time>2021-08-10 11:05:44</time>
      </trkpt>
      <trkpt lat="42.83446" lon="-0.44933">
        <ele>1932</ele>
        <time>2021-08-10 11:05:45</time>
      </trkpt>
      <trkpt lat="42.83445" lon="-0.44931">
        <ele>1931.8</ele>
        <time>2021-08-10 11:05:46</time>
      </trkpt>
      <trkpt lat="42.83445" lon="-0.4493">
        <ele>1932</ele>
        <time>2021-08-10 11:05:47</time>
      </trkpt>
      <trkpt lat="42.83444" lon="-0.44929">
        <ele>1932</ele>
        <time>2021-08-10 11:05:48</time>
      </trkpt>
      <trkpt lat="42.83444" lon="-0.44927">
        <ele>1932.2</ele>
        <time>2021-08-10 11:05:49</time>
      </trkpt>
      <trkpt lat="42.83444" lon="-0.44926">
        <ele>1932.2</ele>
        <time>2021-08-10 11:05:50</time>
      </trkpt>
      <trkpt lat="42.83443" lon="-0.44925">
        <ele>1932.2</ele>
        <time>2021-08-10 11:05:51</time>
      </trkpt>
      <trkpt lat="42.83443" lon="-0.44923">
        <ele>1932.4</ele>
        <time>2021-08-10 11:05:52</time>
      </trkpt>
      <trkpt lat="42.83443" lon="-0.44922">
        <ele>1932.2</ele>
        <time>2021-08-10 11:05:53</time>
      </trkpt>
      <trkpt lat="42.83443" lon="-0.44921">
        <ele>1932.4</ele>
        <time>2021-08-10 11:05:54</time>
      </trkpt>
      <trkpt lat="42.83442" lon="-0.4492">
        <ele>1932.2</ele>
        <time>2021-08-10 11:05:55</time>
      </trkpt>
      <trkpt lat="42.83442" lon="-0.44918">
        <ele>1932.2</ele>
        <time>2021-08-10 11:05:56</time>
      </trkpt>
      <trkpt lat="42.83441" lon="-0.44917">
        <ele>1932.2</ele>
        <time>2021-08-10 11:05:57</time>
      </trkpt>
      <trkpt lat="42.83441" lon="-0.44916">
        <ele>1932.2</ele>
        <time>2021-08-10 11:05:58</time>
      </trkpt>
      <trkpt lat="42.8344" lon="-0.44915">
        <ele>1932.4</ele>
      </trkpt>
      <trkpt lat="42.8344" lon="-0.44913">
        <ele>1932.2</ele>
        <time>2021-08-10 11:05:59</time>
      </trkpt>
      <trkpt lat="42.8344" lon="-0.44912">
        <ele>1932.2</ele>
        <time>2021-08-10 11:06:00</time>
      </trkpt>
      <trkpt lat="42.83439" lon="-0.44911">
        <ele>1932.2</ele>
        <time>2021-08-10 11:06:01</time>
      </trkpt>
      <trkpt lat="42.83438" lon="-0.4491">
        <ele>1932.2</ele>
        <time>2021-08-10 11:06:02</time>
      </trkpt>
      <trkpt lat="42.83438" lon="-0.44908">
        <ele>1932.2</ele>
        <time>2021-08-10 11:06:03</time>
      </trkpt>
      <trkpt lat="42.83437" lon="-0.44907">
        <ele>1932.2</ele>
        <time>2021-08-10 11:06:04</time>
      </trkpt>
      <trkpt lat="42.83437" lon="-0.44906">
        <ele>1932</ele>
        <time>2021-08-10 11:06:06</time>
      </trkpt>
      <trkpt lat="42.83437" lon="-0.44905">
        <ele>1932</ele>
      </trkpt>
      <trkpt lat="42.83437" lon="-0.44903">
        <ele>1932</ele>
        <time>2021-08-10 11:06:07</time>
      </trkpt>
      <trkpt lat="42.83437" lon="-0.44901">
        <ele>1932</ele>
        <time>2021-08-10 11:06:08</time>
      </trkpt>
      <trkpt lat="42.83436" lon="-0.449">
        <ele>1931.8</ele>
        <time>2021-08-10 11:06:09</time>
      </trkpt>
      <trkpt lat="42.83436" lon="-0.44899">
        <ele>1932</ele>
        <time>2021-08-10 11:06:10</time>
      </trkpt>
      <trkpt lat="42.83436" lon="-0.44897">
        <ele>1932</ele>
        <time>2021-08-10 11:06:11</time>
      </trkpt>
      <trkpt lat="42.83436" lon="-0.44896">
        <ele>1931.8</ele>
        <time>2021-08-10 11:06:12</time>
      </trkpt>
      <trkpt lat="42.83436" lon="-0.44895">
        <ele>1931.8</ele>
        <time>2021-08-10 11:06:13</time>
      </trkpt>
      <trkpt lat="42.83435" lon="-0.44894">
        <ele>1931.8</ele>
        <time>2021-08-10 11:06:14</time>
      </trkpt>
      <trkpt lat="42.83435" lon="-0.44892">
        <ele>1932</ele>
        <time>2021-08-10 11:06:15</time>
      </trkpt>
      <trkpt lat="42.83434" lon="-0.4489">
        <ele>1932</ele>
        <time>2021-08-10 11:06:16</time>
      </trkpt>
      <trkpt lat="42.83434" lon="-0.44889">
        <ele>1932</ele>
        <time>2021-08-10 11:06:17</time>
      </trkpt>
      <trkpt lat="42.83433" lon="-0.44888">
        <ele>1932</ele>
        <time>2021-08-10 11:06:18</time>
      </trkpt>
      <trkpt lat="42.83433" lon="-0.44887">
        <ele>1932</ele>
        <time>2021-08-10 11:06:19</time>
      </trkpt>
      <trkpt lat="42.83432" lon="-0.44886">
        <ele>1931.8</ele>
        <time>2021-08-10 11:06:20</time>
      </trkpt>
      <trkpt lat="42.83433" lon="-0.44884">
        <ele>1931.8</ele>
        <time>2021-08-10 11:06:21</time>
      </trkpt>
      <trkpt lat="42.83433" lon="-0.44883">
        <ele>1931.8</ele>
        <time>2021-08-10 11:06:22</time>
      </trkpt>
      <trkpt lat="42.83433" lon="-0.44882">
        <ele>1931.8</ele>
        <time>2021-08-10 11:06:23</time>
      </trkpt>
      <trkpt lat="42.83433" lon="-0.4488">
        <ele>1931.8</ele>
        <time>2021-08-10 11:06:24</time>
      </trkpt>
      <trkpt lat="42.83433" lon="-0.4488">
        <ele>1931.6</ele>
        <time>2021-08-10 11:06:26</time>
      </trkpt>
      <trkpt lat="42.83433" lon="-0.44879">
        <ele>1931.8</ele>
      </trkpt>
      <trkpt lat="42.83433" lon="-0.44879">
        <ele>1931.8</ele>
        <time>2021-08-10 11:06:27</time>
      </trkpt>
      <trkpt lat="42.83433" lon="-0.44879">
        <ele>1931.6</ele>
        <time>2021-08-10 11:06:28</time>
      </trkpt>
      <trkpt lat="42.83434" lon="-0.44878">
        <ele>1931.4</ele>
        <time>2021-08-10 11:06:29</time>
      </trkpt>
      <trkpt lat="42.83434" lon="-0.44878">
        <ele>1931.4</ele>
        <time>2021-08-10 11:06:30</time>
      </trkpt>
      <trkpt lat="42.83434" lon="-0.44878">
        <ele>1931.2</ele>
        <time>2021-08-10 11:06:31</time>
      </trkpt>
      <trkpt lat="42.83434" lon="-0.44878">
        <ele>1931</ele>
        <time>2021-08-10 11:06:32</time>
      </trkpt>
      <trkpt lat="42.83434" lon="-0.44878">
        <ele>1930.6</ele>
        <time>2021-08-10 11:06:33</time>
      </trkpt>
      <trkpt lat="42.83436" lon="-0.44879">
        <ele>1931</ele>
        <time>2021-08-10 11:06:34</time>
      </trkpt>
      <trkpt lat="42.83436" lon="-0.4488">
        <ele>1931.2</ele>
        <time>2021-08-10 11:06:35</time>
      </trkpt>
      <trkpt lat="42.83435" lon="-0.44879">
        <ele>1931</ele>
        <time>2021-08-10 11:06:36</time>
      </trkpt>
      <trkpt lat="42.83435" lon="-0.44879">
        <ele>1931</ele>
        <time>2021-08-10 11:06:37</time>
      </trkpt>
      <trkpt lat="42.83435" lon="-0.44879">
        <ele>1931</ele>
        <time>2021-08-10 11:06:38</time>
      </trkpt>
      <trkpt lat="42.83435" lon="-0.44879">
        <ele>1931</ele>
        <time>2021-08-10 11:06:39</time>
      </trkpt>
      <trkpt lat="42.83435" lon="-0.44879">
        <ele>1931</ele>
        <time>2021-08-10 11:06:40</time>
      </trkpt>
      <trkpt lat="42.83435" lon="-0.44879">
        <ele>1931</ele>
        <time>2021-08-10 11:06:41</time>
      </trkpt>
      <trkpt lat="42.83433" lon="-0.44878">
        <ele>1930</ele>
        <time>2021-08-10 11:06:42</time>
      </trkpt>
      <trkpt lat="42.83432" lon="-0.44878">
        <ele>1930.4</ele>
        <time>2021-08-10 11:06:43</time>
      </trkpt>
      <trkpt lat="42.83432" lon="-0.44878">
        <ele>1930.2</ele>
        <time>2021-08-10 11:06:44</time>
      </trkpt>
      <trkpt lat="42.83438" lon="-0.44878">
        <ele>1930.6</ele>
        <time>2021-08-10 11:06:45</time>
      </trkpt>
      <trkpt lat="42.83438" lon="-0.44878">
        <ele>1930.8</ele>
        <time>2021-08-10 11:06:46</time>
      </trkpt>
      <trkpt lat="42.83438" lon="-0.44878">
        <ele>1930.8</ele>
        <time>2021-08-10 11:06:47</time>
      </trkpt>
      <trkpt lat="42.83449" lon="-0.44881">
        <ele>1931.2</ele>
        <time>2021-08-10 11:06:48</time>
      </trkpt>
      <trkpt lat="42.83449" lon="-0.44881">
        <ele>1931.2</ele>
        <time>2021-08-10 11:06:49</time>
      </trkpt>
      <trkpt lat="42.83449" lon="-0.44881">
        <ele>1931.4</ele>
        <time>2021-08-10 11:06:50</time>
      </trkpt>
      <trkpt lat="42.83441" lon="-0.4488">
        <ele>1931.4</ele>
        <time>2021-08-10 11:06:51</time>
      </trkpt>
      <trkpt lat="42.8344" lon="-0.4488">
        <ele>1931.4</ele>
        <time>2021-08-10 11:06:52</time>
      </trkpt>
      <trkpt lat="42.8344" lon="-0.4488">
        <ele>1931.4</ele>
        <time>2021-08-10 11:06:53</time>
      </trkpt>
      <trkpt lat="42.83441" lon="-0.44881">
        <ele>1931</ele>
        <time>2021-08-10 11:06:54</time>
      </trkpt>
      <trkpt lat="42.83441" lon="-0.44881">
        <ele>1930.8</ele>
        <time>2021-08-10 11:06:55</time>
      </trkpt>
      <trkpt lat="42.83441" lon="-0.44881">
        <ele>1931.2</ele>
        <time>2021-08-10 11:06:56</time>
      </trkpt>
      <trkpt lat="42.83439" lon="-0.4488">
        <ele>1931.2</ele>
        <time>2021-08-10 11:06:57</time>
      </trkpt>
      <trkpt lat="42.83441" lon="-0.44881">
        <ele>1931.2</ele>
        <time>2021-08-10 11:06:58</time>
      </trkpt>
      <trkpt lat="42.83445" lon="-0.44882">
        <ele>1931.6</ele>
        <time>2021-08-10 11:06:59</time>
      </trkpt>
      <trkpt lat="42.83444" lon="-0.44882">
        <ele>1931.6</ele>
        <time>2021-08-10 11:07:00</time>
      </trkpt>
      <trkpt lat="42.83444" lon="-0.44882">
        <ele>1931.6</ele>
        <time>2021-08-10 11:07:01</time>
      </trkpt>
      <trkpt lat="42.83433" lon="-0.44878">
        <ele>1931.4</ele>
        <time>2021-08-10 11:07:02</time>
      </trkpt>
      <trkpt lat="42.83433" lon="-0.44878">
        <ele>1931.2</ele>
        <time>2021-08-10 11:07:03</time>
      </trkpt>
      <trkpt lat="42.83433" lon="-0.44878">
        <ele>1931.2</ele>
        <time>2021-08-10 11:07:05</time>
      </trkpt>
      <trkpt lat="42.83431" lon="-0.44878">
        <ele>1931.6</ele>
      </trkpt>
      <trkpt lat="42.83431" lon="-0.44877">
        <ele>1931.4</ele>
        <time>2021-08-10 11:07:06</time>
      </trkpt>
      <trkpt lat="42.83431" lon="-0.44877">
        <ele>1931.4</ele>
        <time>2021-08-10 11:07:07</time>
      </trkpt>
      <trkpt lat="42.83433" lon="-0.44877">
        <ele>1931.6</ele>
        <time>2021-08-10 11:07:08</time>
      </trkpt>
      <trkpt lat="42.83432" lon="-0.44877">
        <ele>1932</ele>
        <time>2021-08-10 11:07:09</time>
      </trkpt>
      <trkpt lat="42.83431" lon="-0.44876">
        <ele>1932.2</ele>
        <time>2021-08-10 11:07:10</time>
      </trkpt>
      <trkpt lat="42.83433" lon="-0.44876">
        <ele>1932.2</ele>
        <time>2021-08-10 11:07:11</time>
      </trkpt>
      <trkpt lat="42.83433" lon="-0.44877">
        <ele>1932.2</ele>
        <time>2021-08-10 11:07:12</time>
      </trkpt>
      <trkpt lat="42.83432" lon="-0.44877">
        <ele>1932.2</ele>
        <time>2021-08-10 11:07:13</time>
      </trkpt>
      <trkpt lat="42.83432" lon="-0.44877">
        <ele>1932.2</ele>
        <time>2021-08-10 11:07:14</time>
      </trkpt>
      <trkpt lat="42.83433" lon="-0.44878">
        <ele>1932.2</ele>
        <time>2021-08-10 11:07:15</time>
      </trkpt>
      <trkpt lat="42.83433" lon="-0.44878">
        <ele>1932.6</ele>
        <time>2021-08-10 11:07:16</time>
      </trkpt>
      <trkpt lat="42.83433" lon="-0.44878">
        <ele>1932.6</ele>
        <time>2021-08-10 11:07:17</time>
      </trkpt>
      <trkpt lat="42.83433" lon="-0.44878">
        <ele>1932.6</ele>
        <time>2021-08-10 11:07:18</time>
      </trkpt>
      <trkpt lat="42.83434" lon="-0.44878">
        <ele>1932.4</ele>
        <time>2021-08-10 11:07:19</time>
      </trkpt>
      <trkpt lat="42.83433" lon="-0.44877">
        <ele>1932.4</ele>
        <time>2021-08-10 11:07:20</time>
      </trkpt>
      <trkpt lat="42.83434" lon="-0.44877">
        <ele>1932.6</ele>
        <time>2021-08-10 11:07:21</time>
      </trkpt>
      <trkpt lat="42.83434" lon="-0.44877">
        <ele>1932.6</ele>
        <time>2021-08-10 11:07:22</time>
      </trkpt>
      <trkpt lat="42.83435" lon="-0.44876">
        <ele>1932.4</ele>
        <time>2021-08-10 11:07:23</time>
      </trkpt>
      <trkpt lat="42.83434" lon="-0.44876">
        <ele>1932.4</ele>
        <time>2021-08-10 11:07:24</time>
      </trkpt>
      <trkpt lat="42.83434" lon="-0.44877">
        <ele>1932.4</ele>
        <time>2021-08-10 11:07:25</time>
      </trkpt>
      <trkpt lat="42.83434" lon="-0.44877">
        <ele>1932.4</ele>
        <time>2021-08-10 11:07:26</time>
      </trkpt>
      <trkpt lat="42.83433" lon="-0.44876">
        <ele>1932.6</ele>
        <time>2021-08-10 11:07:27</time>
      </trkpt>
      <trkpt lat="42.83432" lon="-0.44877">
        <ele>1932.8</ele>
        <time>2021-08-10 11:07:28</time>
      </trkpt>
      <trkpt lat="42.83433" lon="-0.44877">
        <ele>1932.6</ele>
        <time>2021-08-10 11:07:29</time>
      </trkpt>
      <trkpt lat="42.83432" lon="-0.44879">
        <ele>1932.8</ele>
        <time>2021-08-10 11:07:30</time>
      </trkpt>
      <trkpt lat="42.83431" lon="-0.44879">
        <ele>1932.6</ele>
        <time>2021-08-10 11:07:31</time>
      </trkpt>
      <trkpt lat="42.83431" lon="-0.44879">
        <ele>1932.8</ele>
        <time>2021-08-10 11:07:32</time>
      </trkpt>
      <trkpt lat="42.8343" lon="-0.4488">
        <ele>1932.8</ele>
        <time>2021-08-10 11:07:33</time>
      </trkpt>
      <trkpt lat="42.83429" lon="-0.4488">
        <ele>1933</ele>
        <time>2021-08-10 11:07:34</time>
      </trkpt>
      <trkpt lat="42.83429" lon="-0.4488">
        <ele>1933</ele>
        <time>2021-08-10 11:07:35</time>
      </trkpt>
      <trkpt lat="42.83428" lon="-0.44881">
        <ele>1933</ele>
        <time>2021-08-10 11:07:36</time>
      </trkpt>
      <trkpt lat="42.83427" lon="-0.44881">
        <ele>1933</ele>
        <time>2021-08-10 11:07:37</time>
      </trkpt>
      <trkpt lat="42.83426" lon="-0.44882">
        <ele>1933</ele>
        <time>2021-08-10 11:07:38</time>
      </trkpt>
      <trkpt lat="42.83425" lon="-0.44883">
        <ele>1933.2</ele>
        <time>2021-08-10 11:07:39</time>
      </trkpt>
      <trkpt lat="42.83425" lon="-0.44884">
        <ele>1933</ele>
        <time>2021-08-10 11:07:40</time>
      </trkpt>
      <trkpt lat="42.83423" lon="-0.44885">
        <ele>1933.2</ele>
        <time>2021-08-10 11:07:41</time>
      </trkpt>
      <trkpt lat="42.83423" lon="-0.44885">
        <ele>1933.2</ele>
        <time>2021-08-10 11:07:42</time>
      </trkpt>
      <trkpt lat="42.83421" lon="-0.44886">
        <ele>1933.2</ele>
        <time>2021-08-10 11:07:43</time>
      </trkpt>
      <trkpt lat="42.8342" lon="-0.44886">
        <ele>1933.2</ele>
        <time>2021-08-10 11:07:44</time>
      </trkpt>
      <trkpt lat="42.83419" lon="-0.44885">
        <ele>1933.4</ele>
        <time>2021-08-10 11:07:45</time>
      </trkpt>
      <trkpt lat="42.83417" lon="-0.44886">
        <ele>1933.4</ele>
        <time>2021-08-10 11:07:46</time>
      </trkpt>
      <trkpt lat="42.83417" lon="-0.44886">
        <ele>1933.4</ele>
        <time>2021-08-10 11:07:47</time>
      </trkpt>
      <trkpt lat="42.83416" lon="-0.44885">
        <ele>1933.2</ele>
        <time>2021-08-10 11:07:48</time>
      </trkpt>
      <trkpt lat="42.83415" lon="-0.44886">
        <ele>1933.4</ele>
        <time>2021-08-10 11:07:49</time>
      </trkpt>
      <trkpt lat="42.83414" lon="-0.44886">
        <ele>1933.6</ele>
        <time>2021-08-10 11:07:50</time>
      </trkpt>
      <trkpt lat="42.83413" lon="-0.44886">
        <ele>1933.6</ele>
        <time>2021-08-10 11:07:51</time>
      </trkpt>
      <trkpt lat="42.83413" lon="-0.44886">
        <ele>1933.8</ele>
        <time>2021-08-10 11:07:52</time>
      </trkpt>
      <trkpt lat="42.83412" lon="-0.44886">
        <ele>1933.8</ele>
        <time>2021-08-10 11:07:53</time>
      </trkpt>
      <trkpt lat="42.83411" lon="-0.44886">
        <ele>1933.8</ele>
        <time>2021-08-10 11:19:25</time>
      </trkpt>
      <trkpt lat="42.8341" lon="-0.44886">
        <ele>1933.6</ele>
        <time>2021-08-10 11:19:26</time>
      </trkpt>
      <trkpt lat="42.83409" lon="-0.44885">
        <ele>1933.6</ele>
        <time>2021-08-10 11:19:27</time>
      </trkpt>
      <trkpt lat="42.83409" lon="-0.44885">
        <ele>1933.6</ele>
        <time>2021-08-10 11:19:28</time>
      </trkpt>
      <trkpt lat="42.83407" lon="-0.44885">
        <ele>1933.6</ele>
        <time>2021-08-10 11:19:29</time>
      </trkpt>
      <trkpt lat="42.83406" lon="-0.44885">
        <ele>1933.6</ele>
        <time>2021-08-10 11:21:00</time>
      </trkpt>
      <trkpt lat="42.83405" lon="-0.44885">
        <ele>1933.6</ele>
        <time>2021-08-10 11:21:01</time>
      </trkpt>
      <trkpt lat="42.83404" lon="-0.44885">
        <ele>1933.4</ele>
        <time>2021-08-10 11:21:02</time>
      </trkpt>
      <trkpt lat="42.83403" lon="-0.44885">
        <ele>1933.4</ele>
        <time>2021-08-10 11:25:37</time>
      </trkpt>
      <trkpt lat="42.83403" lon="-0.44885">
        <ele>1933.4</ele>
        <time>2021-08-10 11:25:38</time>
      </trkpt>
      <trkpt lat="42.83402" lon="-0.44884">
        <ele>1933</ele>
        <time>2021-08-10 11:25:39</time>
      </trkpt>
      <trkpt lat="42.83401" lon="-0.44885">
        <ele>1933.4</ele>
        <time>2021-08-10 11:34:45</time>
      </trkpt>
      <trkpt lat="42.83401" lon="-0.44884">
        <ele>1933.4</ele>
        <time>2021-08-10 11:34:46</time>
      </trkpt>
      <trkpt lat="42.834" lon="-0.44883">
        <ele>1933.2</ele>
        <time>2021-08-10 11:34:47</time>
      </trkpt>
      <trkpt lat="42.83399" lon="-0.44883">
        <ele>1933.2</ele>
        <time>2021-08-10 11:37:39</time>
      </trkpt>
      <trkpt lat="42.83398" lon="-0.44885">
        <ele>1933</ele>
        <time>2021-08-10 11:37:40</time>
      </trkpt>
      <trkpt lat="42.83397" lon="-0.44885">
        <ele>1932.6</ele>
        <time>2021-08-10 11:37:41</time>
      </trkpt>
      <trkpt lat="42.83397" lon="-0.44885">
        <ele>1932.8</ele>
        <time>2021-08-10 11:40:48</time>
      </trkpt>
      <trkpt lat="42.83396" lon="-0.44884">
        <ele>1933</ele>
        <time>2021-08-10 11:40:49</time>
      </trkpt>
      <trkpt lat="42.83396" lon="-0.44885">
        <ele>1933.2</ele>
        <time>2021-08-10 11:40:50</time>
      </trkpt>
      <trkpt lat="42.83395" lon="-0.44885">
        <ele>1932.8</ele>
        <time>2021-08-10 11:40:51</time>
      </trkpt>
      <trkpt lat="42.83395" lon="-0.44885">
        <ele>1933.4</ele>
        <time>2021-08-10 11:40:52</time>
      </trkpt>
      <trkpt lat="42.83394" lon="-0.44885">
        <ele>1933.8</ele>
        <time>2021-08-10 11:40:53</time>
      </trkpt>
      <trkpt lat="42.83394" lon="-0.44885">
        <ele>1933.8</ele>
        <time>2021-08-10 11:40:54</time>
      </trkpt>
      <trkpt lat="42.83393" lon="-0.44886">
        <ele>1933.8</ele>
        <time>2021-08-10 11:40:55</time>
      </trkpt>
      <trkpt lat="42.83393" lon="-0.44886">
        <ele>1933.8</ele>
        <time>2021-08-10 11:41:51</time>
      </trkpt>
      <trkpt lat="42.83392" lon="-0.44885">
        <ele>1934.2</ele>
        <time>2021-08-10 11:41:52</time>
      </trkpt>
      <trkpt lat="42.83392" lon="-0.44884">
        <ele>1934.2</ele>
        <time>2021-08-10 11:41:53</time>
      </trkpt>
      <trkpt lat="42.83391" lon="-0.44884">
        <ele>1934.4</ele>
        <time>2021-08-10 11:55:21</time>
      </trkpt>
      <trkpt lat="42.83391" lon="-0.44883">
        <ele>1934.4</ele>
        <time>2021-08-10 11:55:22</time>
      </trkpt>
      <trkpt lat="42.83391" lon="-0.44884">
        <ele>1934.8</ele>
        <time>2021-08-10 11:55:23</time>
      </trkpt>
      <trkpt lat="42.8339" lon="-0.44884">
        <ele>1935</ele>
        <time>2021-08-10 11:55:28</time>
      </trkpt>
      <trkpt lat="42.8339" lon="-0.44884">
        <ele>1935</ele>
        <time>2021-08-10 11:55:29</time>
      </trkpt>
      <trkpt lat="42.83389" lon="-0.44883">
        <ele>1935.4</ele>
        <time>2021-08-10 11:55:30</time>
      </trkpt>
      <trkpt lat="42.8339" lon="-0.44883">
        <ele>1935.4</ele>
        <time>2021-08-10 11:55:35</time>
      </trkpt>
      <trkpt lat="42.83389" lon="-0.44883">
        <ele>1935.4</ele>
        <time>2021-08-10 11:55:36</time>
      </trkpt>
      <trkpt lat="42.83389" lon="-0.44884">
        <ele>1935.6</ele>
        <time>2021-08-10 11:55:37</time>
      </trkpt>
      <trkpt lat="42.83388" lon="-0.44883">
        <ele>1935.8</ele>
        <time>2021-08-10 11:55:38</time>
      </trkpt>
      <trkpt lat="42.83387" lon="-0.44883">
        <ele>1936</ele>
        <time>2021-08-10 11:55:39</time>
      </trkpt>
      <trkpt lat="42.83387" lon="-0.44883">
        <ele>1936</ele>
        <time>2021-08-10 11:55:40</time>
      </trkpt>
      <trkpt lat="42.83386" lon="-0.44883">
        <ele>1936.2</ele>
        <time>2021-08-10 11:55:41</time>
      </trkpt>
      <trkpt lat="42.83385" lon="-0.44883">
        <ele>1936.4</ele>
        <time>2021-08-10 11:55:42</time>
      </trkpt>
      <trkpt lat="42.83384" lon="-0.44883">
        <ele>1936.8</ele>
        <time>2021-08-10 11:55:48</time>
      </trkpt>
      <trkpt lat="42.83383" lon="-0.44883">
        <ele>1936.8</ele>
        <time>2021-08-10 11:55:49</time>
      </trkpt>
      <trkpt lat="42.83383" lon="-0.44884">
        <ele>1936.8</ele>
        <time>2021-08-10 11:55:50</time>
      </trkpt>
      <trkpt lat="42.83382" lon="-0.44883">
        <ele>1937</ele>
        <time>2021-08-10 11:55:53</time>
      </trkpt>
      <trkpt lat="42.83381" lon="-0.44883">
        <ele>1937</ele>
        <time>2021-08-10 11:55:54</time>
      </trkpt>
      <trkpt lat="42.83381" lon="-0.44882">
        <ele>1937.2</ele>
        <time>2021-08-10 11:55:55</time>
      </trkpt>
      <trkpt lat="42.83381" lon="-0.44881">
        <ele>1937.4</ele>
        <time>2021-08-10 11:55:56</time>
      </trkpt>
      <trkpt lat="42.8338" lon="-0.4488">
        <ele>1937.6</ele>
        <time>2021-08-10 11:56:01</time>
      </trkpt>
      <trkpt lat="42.8338" lon="-0.44879">
        <ele>1937.4</ele>
        <time>2021-08-10 11:56:02</time>
      </trkpt>
      <trkpt lat="42.83379" lon="-0.44878">
        <ele>1937.4</ele>
        <time>2021-08-10 11:56:03</time>
      </trkpt>
      <trkpt lat="42.83379" lon="-0.44878">
        <ele>1937.4</ele>
        <time>2021-08-10 11:56:04</time>
      </trkpt>
      <trkpt lat="42.83378" lon="-0.44877">
        <ele>1937.4</ele>
        <time>2021-08-10 11:56:05</time>
      </trkpt>
      <trkpt lat="42.83378" lon="-0.44876">
        <ele>1937.4</ele>
        <time>2021-08-10 11:56:06</time>
      </trkpt>
      <trkpt lat="42.83378" lon="-0.44876">
        <ele>1937.6</ele>
        <time>2021-08-10 11:56:07</time>
      </trkpt>
      <trkpt lat="42.83377" lon="-0.44875">
        <ele>1937.8</ele>
        <time>2021-08-10 11:56:16</time>
      </trkpt>
      <trkpt lat="42.83377" lon="-0.44874">
        <ele>1937.8</ele>
        <time>2021-08-10 11:56:17</time>
      </trkpt>
      <trkpt lat="42.83376" lon="-0.44873">
        <ele>1937.8</ele>
        <time>2021-08-10 11:56:18</time>
      </trkpt>
      <trkpt lat="42.83376" lon="-0.44873">
        <ele>1938</ele>
        <time>2021-08-10 11:56:19</time>
      </trkpt>
      <trkpt lat="42.83376" lon="-0.44872">
        <ele>1938</ele>
        <time>2021-08-10 11:56:20</time>
      </trkpt>
      <trkpt lat="42.83375" lon="-0.44871">
        <ele>1938.2</ele>
        <time>2021-08-10 11:56:21</time>
      </trkpt>
      <trkpt lat="42.83375" lon="-0.4487">
        <ele>1938.4</ele>
        <time>2021-08-10 11:56:22</time>
      </trkpt>
      <trkpt lat="42.83374" lon="-0.44869">
        <ele>1938.4</ele>
        <time>2021-08-10 11:56:23</time>
      </trkpt>
      <trkpt lat="42.83373" lon="-0.44869">
        <ele>1938.4</ele>
        <time>2021-08-10 11:56:24</time>
      </trkpt>
      <trkpt lat="42.83372" lon="-0.44868">
        <ele>1938.6</ele>
        <time>2021-08-10 11:56:25</time>
      </trkpt>
      <trkpt lat="42.83372" lon="-0.44867">
        <ele>1938.6</ele>
        <time>2021-08-10 11:56:26</time>
      </trkpt>
      <trkpt lat="42.83372" lon="-0.44866">
        <ele>1938.6</ele>
        <time>2021-08-10 11:56:27</time>
      </trkpt>
      <trkpt lat="42.83371" lon="-0.44865">
        <ele>1938.8</ele>
        <time>2021-08-10 11:56:28</time>
      </trkpt>
      <trkpt lat="42.8337" lon="-0.44865">
        <ele>1939</ele>
        <time>2021-08-10 11:56:29</time>
      </trkpt>
      <trkpt lat="42.8337" lon="-0.44864">
        <ele>1939.2</ele>
      </trkpt>
      <trkpt lat="42.83369" lon="-0.44863">
        <ele>1939.4</ele>
        <time>2021-08-10 11:56:30</time>
      </trkpt>
      <trkpt lat="42.83369" lon="-0.44862">
        <ele>1939.6</ele>
        <time>2021-08-10 11:56:31</time>
      </trkpt>
      <trkpt lat="42.83368" lon="-0.44862">
        <ele>1939.6</ele>
        <time>2021-08-10 11:56:32</time>
      </trkpt>
      <trkpt lat="42.83368" lon="-0.44862">
        <ele>1939.6</ele>
        <time>2021-08-10 11:56:33</time>
      </trkpt>
      <trkpt lat="42.83368" lon="-0.44861">
        <ele>1939.8</ele>
        <time>2021-08-10 11:56:34</time>
      </trkpt>
      <trkpt lat="42.83367" lon="-0.4486">
        <ele>1940</ele>
        <time>2021-08-10 11:56:35</time>
      </trkpt>
      <trkpt lat="42.83367" lon="-0.44859">
        <ele>1940</ele>
        <time>2021-08-10 11:56:36</time>
      </trkpt>
      <trkpt lat="42.83367" lon="-0.44858">
        <ele>1940.4</ele>
        <time>2021-08-10 11:56:37</time>
      </trkpt>
      <trkpt lat="42.83367" lon="-0.44858">
        <ele>1940.2</ele>
        <time>2021-08-10 11:56:38</time>
      </trkpt>
      <trkpt lat="42.83365" lon="-0.44858">
        <ele>1940.6</ele>
        <time>2021-08-10 11:56:39</time>
      </trkpt>
      <trkpt lat="42.83365" lon="-0.44857">
        <ele>1940.6</ele>
        <time>2021-08-10 11:56:40</time>
      </trkpt>
      <trkpt lat="42.83365" lon="-0.44857">
        <ele>1940.8</ele>
        <time>2021-08-10 11:56:41</time>
      </trkpt>
      <trkpt lat="42.83365" lon="-0.44856">
        <ele>1940.8</ele>
        <time>2021-08-10 11:56:42</time>
      </trkpt>
      <trkpt lat="42.83365" lon="-0.44856">
        <ele>1940.8</ele>
        <time>2021-08-10 11:56:43</time>
      </trkpt>
      <trkpt lat="42.83365" lon="-0.44856">
        <ele>1940.8</ele>
        <time>2021-08-10 11:56:44</time>
      </trkpt>
      <trkpt lat="42.83363" lon="-0.44857">
        <ele>1940.8</ele>
        <time>2021-08-10 11:56:45</time>
      </trkpt>
      <trkpt lat="42.83363" lon="-0.44857">
        <ele>1940.6</ele>
        <time>2021-08-10 11:56:46</time>
      </trkpt>
      <trkpt lat="42.83362" lon="-0.44857">
        <ele>1941</ele>
        <time>2021-08-10 11:56:48</time>
      </trkpt>
      <trkpt lat="42.83362" lon="-0.44857">
        <ele>1941.2</ele>
      </trkpt>
      <trkpt lat="42.83361" lon="-0.44856">
        <ele>1941</ele>
        <time>2021-08-10 11:56:49</time>
      </trkpt>
      <trkpt lat="42.83361" lon="-0.44856">
        <ele>1940.8</ele>
        <time>2021-08-10 11:56:50</time>
      </trkpt>
      <trkpt lat="42.8336" lon="-0.44856">
        <ele>1940.8</ele>
        <time>2021-08-10 11:56:51</time>
      </trkpt>
      <trkpt lat="42.83359" lon="-0.44855">
        <ele>1941</ele>
        <time>2021-08-10 11:56:52</time>
      </trkpt>
      <trkpt lat="42.83359" lon="-0.44854">
        <ele>1941</ele>
        <time>2021-08-10 11:56:53</time>
      </trkpt>
      <trkpt lat="42.83358" lon="-0.44853">
        <ele>1941</ele>
        <time>2021-08-10 11:56:54</time>
      </trkpt>
      <trkpt lat="42.83357" lon="-0.44852">
        <ele>1940.8</ele>
        <time>2021-08-10 11:56:55</time>
      </trkpt>
      <trkpt lat="42.83357" lon="-0.44851">
        <ele>1941</ele>
        <time>2021-08-10 11:56:56</time>
      </trkpt>
      <trkpt lat="42.83356" lon="-0.44851">
        <ele>1940.8</ele>
        <time>2021-08-10 11:56:57</time>
      </trkpt>
      <trkpt lat="42.83356" lon="-0.44849">
        <ele>1940.8</ele>
        <time>2021-08-10 11:56:58</time>
      </trkpt>
      <trkpt lat="42.83355" lon="-0.44849">
        <ele>1941</ele>
        <time>2021-08-10 11:56:59</time>
      </trkpt>
      <trkpt lat="42.83354" lon="-0.44849">
        <ele>1941</ele>
        <time>2021-08-10 11:57:00</time>
      </trkpt>
      <trkpt lat="42.83353" lon="-0.44848">
        <ele>1941.2</ele>
        <time>2021-08-10 11:57:01</time>
      </trkpt>
      <trkpt lat="42.83353" lon="-0.44847">
        <ele>1941.4</ele>
        <time>2021-08-10 11:57:02</time>
      </trkpt>
      <trkpt lat="42.83353" lon="-0.44847">
        <ele>1941.2</ele>
        <time>2021-08-10 11:57:03</time>
      </trkpt>
      <trkpt lat="42.83352" lon="-0.44847">
        <ele>1941.4</ele>
        <time>2021-08-10 11:57:04</time>
      </trkpt>
      <trkpt lat="42.83352" lon="-0.44846">
        <ele>1941.4</ele>
        <time>2021-08-10 11:57:05</time>
      </trkpt>
      <trkpt lat="42.83351" lon="-0.44846">
        <ele>1941.6</ele>
        <time>2021-08-10 11:57:06</time>
      </trkpt>
      <trkpt lat="42.83351" lon="-0.44845">
        <ele>1941.6</ele>
        <time>2021-08-10 11:57:08</time>
      </trkpt>
      <trkpt lat="42.8335" lon="-0.44844">
        <ele>1941.8</ele>
      </trkpt>
      <trkpt lat="42.8335" lon="-0.44844">
        <ele>1941.8</ele>
        <time>2021-08-10 11:57:09</time>
      </trkpt>
      <trkpt lat="42.83349" lon="-0.44844">
        <ele>1941.8</ele>
        <time>2021-08-10 11:57:10</time>
      </trkpt>
      <trkpt lat="42.83349" lon="-0.44843">
        <ele>1942.2</ele>
        <time>2021-08-10 11:57:11</time>
      </trkpt>
      <trkpt lat="42.83348" lon="-0.44843">
        <ele>1942.2</ele>
        <time>2021-08-10 11:57:12</time>
      </trkpt>
      <trkpt lat="42.83347" lon="-0.44842">
        <ele>1942.4</ele>
        <time>2021-08-10 11:57:13</time>
      </trkpt>
      <trkpt lat="42.83347" lon="-0.44841">
        <ele>1942.6</ele>
        <time>2021-08-10 11:57:14</time>
      </trkpt>
      <trkpt lat="42.83346" lon="-0.44841">
        <ele>1942.8</ele>
        <time>2021-08-10 11:57:15</time>
      </trkpt>
      <trkpt lat="42.83345" lon="-0.4484">
        <ele>1943</ele>
        <time>2021-08-10 11:57:16</time>
      </trkpt>
      <trkpt lat="42.83345" lon="-0.4484">
        <ele>1943</ele>
        <time>2021-08-10 11:57:17</time>
      </trkpt>
      <trkpt lat="42.83344" lon="-0.44839">
        <ele>1943</ele>
        <time>2021-08-10 11:57:18</time>
      </trkpt>
      <trkpt lat="42.83344" lon="-0.44839">
        <ele>1943.4</ele>
        <time>2021-08-10 11:57:19</time>
      </trkpt>
      <trkpt lat="42.83343" lon="-0.44838">
        <ele>1943.4</ele>
        <time>2021-08-10 11:57:20</time>
      </trkpt>
      <trkpt lat="42.83343" lon="-0.44837">
        <ele>1943.6</ele>
        <time>2021-08-10 11:57:21</time>
      </trkpt>
      <trkpt lat="42.83342" lon="-0.44836">
        <ele>1943.8</ele>
        <time>2021-08-10 11:57:22</time>
      </trkpt>
      <trkpt lat="42.83341" lon="-0.44836">
        <ele>1943.8</ele>
        <time>2021-08-10 11:57:23</time>
      </trkpt>
      <trkpt lat="42.83341" lon="-0.44835">
        <ele>1944</ele>
        <time>2021-08-10 11:57:24</time>
      </trkpt>
      <trkpt lat="42.83341" lon="-0.44835">
        <ele>1944</ele>
        <time>2021-08-10 11:57:25</time>
      </trkpt>
      <trkpt lat="42.83341" lon="-0.44834">
        <ele>1944</ele>
        <time>2021-08-10 11:57:26</time>
      </trkpt>
      <trkpt lat="42.8334" lon="-0.44833">
        <ele>1944</ele>
        <time>2021-08-10 11:57:27</time>
      </trkpt>
      <trkpt lat="42.8334" lon="-0.44833">
        <ele>1944.2</ele>
        <time>2021-08-10 11:57:28</time>
      </trkpt>
      <trkpt lat="42.83339" lon="-0.44832">
        <ele>1944.4</ele>
        <time>2021-08-10 11:57:29</time>
      </trkpt>
      <trkpt lat="42.83339" lon="-0.44831">
        <ele>1944.4</ele>
        <time>2021-08-10 11:57:30</time>
      </trkpt>
      <trkpt lat="42.83339" lon="-0.4483">
        <ele>1944.4</ele>
        <time>2021-08-10 11:57:31</time>
      </trkpt>
      <trkpt lat="42.83339" lon="-0.4483">
        <ele>1944.4</ele>
        <time>2021-08-10 11:57:32</time>
      </trkpt>
      <trkpt lat="42.83338" lon="-0.44829">
        <ele>1944.4</ele>
        <time>2021-08-10 11:57:33</time>
      </trkpt>
      <trkpt lat="42.83338" lon="-0.44828">
        <ele>1944.6</ele>
        <time>2021-08-10 11:57:34</time>
      </trkpt>
      <trkpt lat="42.83338" lon="-0.44828">
        <ele>1944.8</ele>
        <time>2021-08-10 11:57:35</time>
      </trkpt>
      <trkpt lat="42.83338" lon="-0.44827">
        <ele>1945</ele>
        <time>2021-08-10 11:57:36</time>
      </trkpt>
      <trkpt lat="42.83338" lon="-0.44827">
        <ele>1945</ele>
        <time>2021-08-10 11:57:37</time>
      </trkpt>
      <trkpt lat="42.83337" lon="-0.44826">
        <ele>1945</ele>
        <time>2021-08-10 11:57:38</time>
      </trkpt>
      <trkpt lat="42.83337" lon="-0.44825">
        <ele>1945.2</ele>
        <time>2021-08-10 11:57:39</time>
      </trkpt>
      <trkpt lat="42.83337" lon="-0.44825">
        <ele>1945.4</ele>
        <time>2021-08-10 11:57:40</time>
      </trkpt>
      <trkpt lat="42.83337" lon="-0.44825">
        <ele>1945.4</ele>
        <time>2021-08-10 11:57:41</time>
      </trkpt>
      <trkpt lat="42.83337" lon="-0.44824">
        <ele>1945.6</ele>
        <time>2021-08-10 11:57:42</time>
      </trkpt>
      <trkpt lat="42.83337" lon="-0.44824">
        <ele>1946</ele>
        <time>2021-08-10 11:57:43</time>
      </trkpt>
      <trkpt lat="42.83337" lon="-0.44823">
        <ele>1946.2</ele>
        <time>2021-08-10 11:57:44</time>
      </trkpt>
      <trkpt lat="42.83337" lon="-0.44821">
        <ele>1946.2</ele>
        <time>2021-08-10 11:57:45</time>
      </trkpt>
      <trkpt lat="42.83336" lon="-0.44821">
        <ele>1946.6</ele>
        <time>2021-08-10 11:57:46</time>
      </trkpt>
      <trkpt lat="42.83337" lon="-0.4482">
        <ele>1946.6</ele>
        <time>2021-08-10 11:57:47</time>
      </trkpt>
      <trkpt lat="42.83336" lon="-0.4482">
        <ele>1946.6</ele>
        <time>2021-08-10 11:57:48</time>
      </trkpt>
      <trkpt lat="42.83336" lon="-0.44819">
        <ele>1946.4</ele>
        <time>2021-08-10 11:57:49</time>
      </trkpt>
      <trkpt lat="42.83335" lon="-0.44818">
        <ele>1946.6</ele>
        <time>2021-08-10 11:57:50</time>
      </trkpt>
      <trkpt lat="42.83335" lon="-0.44817">
        <ele>1946.8</ele>
        <time>2021-08-10 11:57:51</time>
      </trkpt>
      <trkpt lat="42.83335" lon="-0.44815">
        <ele>1947.2</ele>
        <time>2021-08-10 11:57:52</time>
      </trkpt>
      <trkpt lat="42.83334" lon="-0.44815">
        <ele>1947.4</ele>
        <time>2021-08-10 11:57:53</time>
      </trkpt>
      <trkpt lat="42.83334" lon="-0.44815">
        <ele>1947.4</ele>
        <time>2021-08-10 11:57:54</time>
      </trkpt>
      <trkpt lat="42.83334" lon="-0.44814">
        <ele>1947.4</ele>
        <time>2021-08-10 11:57:55</time>
      </trkpt>
      <trkpt lat="42.83334" lon="-0.44814">
        <ele>1947.6</ele>
        <time>2021-08-10 11:57:56</time>
      </trkpt>
      <trkpt lat="42.83333" lon="-0.44813">
        <ele>1947.6</ele>
        <time>2021-08-10 11:57:57</time>
      </trkpt>
      <trkpt lat="42.83333" lon="-0.44812">
        <ele>1947.8</ele>
        <time>2021-08-10 11:57:58</time>
      </trkpt>
      <trkpt lat="42.83336" lon="-0.4481">
        <ele>1948</ele>
        <time>2021-08-10 11:57:59</time>
      </trkpt>
      <trkpt lat="42.83336" lon="-0.4481">
        <ele>1948.2</ele>
        <time>2021-08-10 11:58:00</time>
      </trkpt>
      <trkpt lat="42.83335" lon="-0.44809">
        <ele>1948</ele>
        <time>2021-08-10 11:58:01</time>
      </trkpt>
      <trkpt lat="42.83335" lon="-0.44809">
        <ele>1947.8</ele>
        <time>2021-08-10 11:58:02</time>
      </trkpt>
      <trkpt lat="42.83335" lon="-0.44809">
        <ele>1948</ele>
        <time>2021-08-10 11:58:03</time>
      </trkpt>
      <trkpt lat="42.83335" lon="-0.44808">
        <ele>1948</ele>
        <time>2021-08-10 11:58:04</time>
      </trkpt>
      <trkpt lat="42.83335" lon="-0.44808">
        <ele>1948.2</ele>
        <time>2021-08-10 11:58:05</time>
      </trkpt>
      <trkpt lat="42.83337" lon="-0.44806">
        <ele>1948.2</ele>
        <time>2021-08-10 11:58:06</time>
      </trkpt>
      <trkpt lat="42.83336" lon="-0.44805">
        <ele>1948.2</ele>
        <time>2021-08-10 11:58:07</time>
      </trkpt>
      <trkpt lat="42.83336" lon="-0.44805">
        <ele>1948</ele>
        <time>2021-08-10 11:58:08</time>
      </trkpt>
      <trkpt lat="42.83335" lon="-0.44804">
        <ele>1948.2</ele>
        <time>2021-08-10 11:58:09</time>
      </trkpt>
      <trkpt lat="42.83335" lon="-0.44803">
        <ele>1948.4</ele>
        <time>2021-08-10 11:58:11</time>
      </trkpt>
      <trkpt lat="42.83335" lon="-0.44802">
        <ele>1948.4</ele>
        <time>2021-08-10 11:58:12</time>
      </trkpt>
      <trkpt lat="42.83335" lon="-0.44802">
        <ele>1948.6</ele>
        <time>2021-08-10 11:58:13</time>
      </trkpt>
      <trkpt lat="42.83335" lon="-0.44801">
        <ele>1948.8</ele>
        <time>2021-08-10 11:58:14</time>
      </trkpt>
      <trkpt lat="42.83335" lon="-0.448">
        <ele>1949</ele>
        <time>2021-08-10 11:58:15</time>
      </trkpt>
      <trkpt lat="42.83337" lon="-0.448">
        <ele>1949</ele>
        <time>2021-08-10 11:58:16</time>
      </trkpt>
      <trkpt lat="42.83338" lon="-0.448">
        <ele>1949</ele>
        <time>2021-08-10 11:58:17</time>
      </trkpt>
      <trkpt lat="42.83338" lon="-0.448">
        <ele>1949.2</ele>
        <time>2021-08-10 11:58:18</time>
      </trkpt>
      <trkpt lat="42.83338" lon="-0.44799">
        <ele>1949.2</ele>
        <time>2021-08-10 11:58:19</time>
      </trkpt>
      <trkpt lat="42.83338" lon="-0.44798">
        <ele>1949.4</ele>
        <time>2021-08-10 11:58:20</time>
      </trkpt>
      <trkpt lat="42.83338" lon="-0.44798">
        <ele>1949.4</ele>
        <time>2021-08-10 11:58:21</time>
      </trkpt>
      <trkpt lat="42.83339" lon="-0.44797">
        <ele>1949.6</ele>
        <time>2021-08-10 11:58:22</time>
      </trkpt>
      <trkpt lat="42.83339" lon="-0.44796">
        <ele>1949.6</ele>
        <time>2021-08-10 11:58:23</time>
      </trkpt>
      <trkpt lat="42.83339" lon="-0.44796">
        <ele>1949.8</ele>
        <time>2021-08-10 11:58:24</time>
      </trkpt>
      <trkpt lat="42.83339" lon="-0.44795">
        <ele>1949.8</ele>
        <time>2021-08-10 11:58:25</time>
      </trkpt>
      <trkpt lat="42.8334" lon="-0.44793">
        <ele>1950</ele>
        <time>2021-08-10 11:58:26</time>
      </trkpt>
      <trkpt lat="42.8334" lon="-0.44793">
        <ele>1950</ele>
        <time>2021-08-10 11:58:27</time>
      </trkpt>
      <trkpt lat="42.8334" lon="-0.44792">
        <ele>1950.2</ele>
        <time>2021-08-10 11:58:28</time>
      </trkpt>
      <trkpt lat="42.83339" lon="-0.44791">
        <ele>1950.2</ele>
        <time>2021-08-10 11:58:29</time>
      </trkpt>
      <trkpt lat="42.83339" lon="-0.4479">
        <ele>1950.2</ele>
        <time>2021-08-10 11:58:30</time>
      </trkpt>
      <trkpt lat="42.83339" lon="-0.44789">
        <ele>1950.4</ele>
        <time>2021-08-10 11:58:31</time>
      </trkpt>
      <trkpt lat="42.83339" lon="-0.44789">
        <ele>1950.8</ele>
        <time>2021-08-10 11:58:32</time>
      </trkpt>
      <trkpt lat="42.83339" lon="-0.44788">
        <ele>1950.8</ele>
        <time>2021-08-10 11:58:33</time>
      </trkpt>
      <trkpt lat="42.8334" lon="-0.44788">
        <ele>1951</ele>
        <time>2021-08-10 11:58:34</time>
      </trkpt>
      <trkpt lat="42.8334" lon="-0.44788">
        <ele>1951.2</ele>
        <time>2021-08-10 11:58:35</time>
      </trkpt>
      <trkpt lat="42.83341" lon="-0.44787">
        <ele>1951.2</ele>
        <time>2021-08-10 11:58:36</time>
      </trkpt>
      <trkpt lat="42.83342" lon="-0.44787">
        <ele>1951.4</ele>
        <time>2021-08-10 11:58:37</time>
      </trkpt>
      <trkpt lat="42.83341" lon="-0.44786">
        <ele>1951.4</ele>
        <time>2021-08-10 11:58:38</time>
      </trkpt>
      <trkpt lat="42.83341" lon="-0.44786">
        <ele>1951.4</ele>
        <time>2021-08-10 11:58:39</time>
      </trkpt>
      <trkpt lat="42.83341" lon="-0.44785">
        <ele>1951.6</ele>
        <time>2021-08-10 11:58:40</time>
      </trkpt>
      <trkpt lat="42.83341" lon="-0.44785">
        <ele>1952</ele>
        <time>2021-08-10 11:58:41</time>
      </trkpt>
      <trkpt lat="42.83341" lon="-0.44783">
        <ele>1952</ele>
        <time>2021-08-10 11:58:42</time>
      </trkpt>
      <trkpt lat="42.83342" lon="-0.44783">
        <ele>1952.2</ele>
        <time>2021-08-10 11:58:43</time>
      </trkpt>
      <trkpt lat="42.83342" lon="-0.44782">
        <ele>1952.4</ele>
        <time>2021-08-10 11:58:44</time>
      </trkpt>
      <trkpt lat="42.83341" lon="-0.44781">
        <ele>1952.6</ele>
        <time>2021-08-10 11:58:45</time>
      </trkpt>
      <trkpt lat="42.83342" lon="-0.44781">
        <ele>1952.6</ele>
        <time>2021-08-10 11:58:46</time>
      </trkpt>
      <trkpt lat="42.83342" lon="-0.4478">
        <ele>1952.6</ele>
        <time>2021-08-10 11:58:47</time>
      </trkpt>
      <trkpt lat="42.83343" lon="-0.4478">
        <ele>1952.8</ele>
        <time>2021-08-10 11:58:48</time>
      </trkpt>
      <trkpt lat="42.83343" lon="-0.44779">
        <ele>1952.8</ele>
        <time>2021-08-10 11:58:49</time>
      </trkpt>
      <trkpt lat="42.83342" lon="-0.44778">
        <ele>1952.8</ele>
        <time>2021-08-10 11:58:50</time>
      </trkpt>
      <trkpt lat="42.83342" lon="-0.44777">
        <ele>1953.2</ele>
        <time>2021-08-10 11:58:51</time>
      </trkpt>
      <trkpt lat="42.83343" lon="-0.44776">
        <ele>1953.2</ele>
        <time>2021-08-10 11:58:52</time>
      </trkpt>
      <trkpt lat="42.83343" lon="-0.44776">
        <ele>1953.4</ele>
        <time>2021-08-10 11:58:53</time>
      </trkpt>
      <trkpt lat="42.83343" lon="-0.44776">
        <ele>1953.4</ele>
        <time>2021-08-10 11:58:54</time>
      </trkpt>
      <trkpt lat="42.83342" lon="-0.44776">
        <ele>1953.4</ele>
        <time>2021-08-10 11:58:55</time>
      </trkpt>
      <trkpt lat="42.83341" lon="-0.44776">
        <ele>1953.4</ele>
        <time>2021-08-10 11:58:56</time>
      </trkpt>
      <trkpt lat="42.83342" lon="-0.44773">
        <ele>1953.4</ele>
        <time>2021-08-10 11:58:57</time>
      </trkpt>
      <trkpt lat="42.83343" lon="-0.44772">
        <ele>1953.6</ele>
        <time>2021-08-10 11:58:58</time>
      </trkpt>
      <trkpt lat="42.83343" lon="-0.44771">
        <ele>1953.6</ele>
        <time>2021-08-10 11:58:59</time>
      </trkpt>
      <trkpt lat="42.83343" lon="-0.4477">
        <ele>1953.6</ele>
        <time>2021-08-10 11:59:00</time>
      </trkpt>
      <trkpt lat="42.83344" lon="-0.4477">
        <ele>1953.6</ele>
        <time>2021-08-10 11:59:01</time>
      </trkpt>
      <trkpt lat="42.83345" lon="-0.4477">
        <ele>1953.8</ele>
        <time>2021-08-10 11:59:02</time>
      </trkpt>
      <trkpt lat="42.83345" lon="-0.44769">
        <ele>1953.8</ele>
        <time>2021-08-10 11:59:03</time>
      </trkpt>
      <trkpt lat="42.83345" lon="-0.44768">
        <ele>1954.2</ele>
        <time>2021-08-10 11:59:04</time>
      </trkpt>
      <trkpt lat="42.83346" lon="-0.44769">
        <ele>1954.4</ele>
        <time>2021-08-10 11:59:05</time>
      </trkpt>
      <trkpt lat="42.83346" lon="-0.44768">
        <ele>1954.4</ele>
        <time>2021-08-10 11:59:06</time>
      </trkpt>
      <trkpt lat="42.83347" lon="-0.44768">
        <ele>1954.2</ele>
        <time>2021-08-10 11:59:07</time>
      </trkpt>
      <trkpt lat="42.83347" lon="-0.44768">
        <ele>1954.4</ele>
        <time>2021-08-10 11:59:08</time>
      </trkpt>
      <trkpt lat="42.83347" lon="-0.44767">
        <ele>1954.4</ele>
        <time>2021-08-10 11:59:09</time>
      </trkpt>
      <trkpt lat="42.83347" lon="-0.44766">
        <ele>1954.6</ele>
        <time>2021-08-10 11:59:10</time>
      </trkpt>
      <trkpt lat="42.83346" lon="-0.44765">
        <ele>1954.6</ele>
        <time>2021-08-10 11:59:11</time>
      </trkpt>
      <trkpt lat="42.83345" lon="-0.44764">
        <ele>1954.8</ele>
        <time>2021-08-10 11:59:12</time>
      </trkpt>
      <trkpt lat="42.83345" lon="-0.44763">
        <ele>1955</ele>
        <time>2021-08-10 11:59:13</time>
      </trkpt>
      <trkpt lat="42.83345" lon="-0.44762">
        <ele>1955.4</ele>
        <time>2021-08-10 11:59:14</time>
      </trkpt>
      <trkpt lat="42.83345" lon="-0.44761">
        <ele>1955.4</ele>
        <time>2021-08-10 11:59:15</time>
      </trkpt>
      <trkpt lat="42.83345" lon="-0.44761">
        <ele>1955.2</ele>
        <time>2021-08-10 11:59:16</time>
      </trkpt>
      <trkpt lat="42.83344" lon="-0.4476">
        <ele>1955.4</ele>
        <time>2021-08-10 11:59:17</time>
      </trkpt>
      <trkpt lat="42.83344" lon="-0.44759">
        <ele>1955.4</ele>
        <time>2021-08-10 11:59:18</time>
      </trkpt>
      <trkpt lat="42.83344" lon="-0.44758">
        <ele>1955.6</ele>
        <time>2021-08-10 11:59:19</time>
      </trkpt>
      <trkpt lat="42.83344" lon="-0.44759">
        <ele>1955.8</ele>
        <time>2021-08-10 11:59:20</time>
      </trkpt>
      <trkpt lat="42.83344" lon="-0.44758">
        <ele>1956</ele>
        <time>2021-08-10 11:59:21</time>
      </trkpt>
      <trkpt lat="42.83344" lon="-0.44757">
        <ele>1956</ele>
        <time>2021-08-10 11:59:22</time>
      </trkpt>
      <trkpt lat="42.83344" lon="-0.44756">
        <ele>1956.4</ele>
        <time>2021-08-10 11:59:23</time>
      </trkpt>
      <trkpt lat="42.83345" lon="-0.44756">
        <ele>1956.6</ele>
        <time>2021-08-10 11:59:24</time>
      </trkpt>
      <trkpt lat="42.83346" lon="-0.44755">
        <ele>1956.6</ele>
        <time>2021-08-10 11:59:25</time>
      </trkpt>
      <trkpt lat="42.83345" lon="-0.44754">
        <ele>1956.6</ele>
        <time>2021-08-10 11:59:26</time>
      </trkpt>
      <trkpt lat="42.83346" lon="-0.44754">
        <ele>1956.8</ele>
        <time>2021-08-10 11:59:27</time>
      </trkpt>
      <trkpt lat="42.83345" lon="-0.44752">
        <ele>1957</ele>
        <time>2021-08-10 11:59:28</time>
      </trkpt>
      <trkpt lat="42.83345" lon="-0.44751">
        <ele>1957.2</ele>
        <time>2021-08-10 11:59:29</time>
      </trkpt>
      <trkpt lat="42.83345" lon="-0.4475">
        <ele>1957.2</ele>
        <time>2021-08-10 11:59:30</time>
      </trkpt>
      <trkpt lat="42.83345" lon="-0.4475">
        <ele>1957.4</ele>
        <time>2021-08-10 11:59:31</time>
      </trkpt>
      <trkpt lat="42.83345" lon="-0.44749">
        <ele>1957.6</ele>
        <time>2021-08-10 11:59:32</time>
      </trkpt>
      <trkpt lat="42.83345" lon="-0.44748">
        <ele>1957.6</ele>
        <time>2021-08-10 11:59:33</time>
      </trkpt>
      <trkpt lat="42.83346" lon="-0.44748">
        <ele>1957.8</ele>
        <time>2021-08-10 11:59:34</time>
      </trkpt>
      <trkpt lat="42.83347" lon="-0.44747">
        <ele>1957.8</ele>
        <time>2021-08-10 11:59:35</time>
      </trkpt>
      <trkpt lat="42.83347" lon="-0.44746">
        <ele>1958</ele>
        <time>2021-08-10 11:59:36</time>
      </trkpt>
      <trkpt lat="42.83347" lon="-0.44745">
        <ele>1958</ele>
        <time>2021-08-10 11:59:37</time>
      </trkpt>
      <trkpt lat="42.83347" lon="-0.44744">
        <ele>1958.2</ele>
        <time>2021-08-10 11:59:38</time>
      </trkpt>
      <trkpt lat="42.83347" lon="-0.44744">
        <ele>1958.2</ele>
        <time>2021-08-10 11:59:39</time>
      </trkpt>
      <trkpt lat="42.83347" lon="-0.44744">
        <ele>1958.4</ele>
        <time>2021-08-10 11:59:40</time>
      </trkpt>
      <trkpt lat="42.83347" lon="-0.44743">
        <ele>1958.2</ele>
        <time>2021-08-10 11:59:41</time>
      </trkpt>
      <trkpt lat="42.83347" lon="-0.44742">
        <ele>1958.4</ele>
        <time>2021-08-10 11:59:42</time>
      </trkpt>
      <trkpt lat="42.83347" lon="-0.44742">
        <ele>1958.6</ele>
        <time>2021-08-10 11:59:43</time>
      </trkpt>
      <trkpt lat="42.83348" lon="-0.44741">
        <ele>1958.6</ele>
        <time>2021-08-10 11:59:44</time>
      </trkpt>
      <trkpt lat="42.83348" lon="-0.44741">
        <ele>1959</ele>
        <time>2021-08-10 11:59:45</time>
      </trkpt>
      <trkpt lat="42.83348" lon="-0.44741">
        <ele>1959</ele>
        <time>2021-08-10 11:59:46</time>
      </trkpt>
      <trkpt lat="42.8335" lon="-0.44741">
        <ele>1959.2</ele>
        <time>2021-08-10 11:59:47</time>
      </trkpt>
      <trkpt lat="42.8335" lon="-0.44741">
        <ele>1959.6</ele>
        <time>2021-08-10 11:59:48</time>
      </trkpt>
      <trkpt lat="42.83351" lon="-0.44741">
        <ele>1959.6</ele>
        <time>2021-08-10 11:59:49</time>
      </trkpt>
      <trkpt lat="42.83351" lon="-0.44741">
        <ele>1959.6</ele>
        <time>2021-08-10 11:59:50</time>
      </trkpt>
      <trkpt lat="42.83351" lon="-0.4474">
        <ele>1959.6</ele>
        <time>2021-08-10 11:59:51</time>
      </trkpt>
      <trkpt lat="42.83352" lon="-0.44741">
        <ele>1959.8</ele>
        <time>2021-08-10 11:59:52</time>
      </trkpt>
      <trkpt lat="42.83352" lon="-0.44741">
        <ele>1960</ele>
        <time>2021-08-10 11:59:53</time>
      </trkpt>
      <trkpt lat="42.83352" lon="-0.4474">
        <ele>1960</ele>
        <time>2021-08-10 11:59:54</time>
      </trkpt>
      <trkpt lat="42.83352" lon="-0.44739">
        <ele>1960.4</ele>
        <time>2021-08-10 11:59:55</time>
      </trkpt>
      <trkpt lat="42.83353" lon="-0.44739">
        <ele>1960.4</ele>
        <time>2021-08-10 11:59:56</time>
      </trkpt>
      <trkpt lat="42.83353" lon="-0.44739">
        <ele>1960.6</ele>
        <time>2021-08-10 11:59:57</time>
      </trkpt>
      <trkpt lat="42.83354" lon="-0.44739">
        <ele>1960.8</ele>
        <time>2021-08-10 11:59:58</time>
      </trkpt>
      <trkpt lat="42.83354" lon="-0.44738">
        <ele>1960.6</ele>
        <time>2021-08-10 11:59:59</time>
      </trkpt>
      <trkpt lat="42.83355" lon="-0.44738">
        <ele>1960.6</ele>
        <time>2021-08-10 12:00:00</time>
      </trkpt>
      <trkpt lat="42.83356" lon="-0.44737">
        <ele>1960.4</ele>
        <time>2021-08-10 12:00:01</time>
      </trkpt>
      <trkpt lat="42.83357" lon="-0.44737">
        <ele>1960.4</ele>
        <time>2021-08-10 12:00:02</time>
      </trkpt>
      <trkpt lat="42.83357" lon="-0.44736">
        <ele>1960.6</ele>
        <time>2021-08-10 12:00:03</time>
      </trkpt>
      <trkpt lat="42.83358" lon="-0.44736">
        <ele>1960.6</ele>
        <time>2021-08-10 12:00:04</time>
      </trkpt>
      <trkpt lat="42.83359" lon="-0.44736">
        <ele>1960.4</ele>
        <time>2021-08-10 12:00:05</time>
      </trkpt>
      <trkpt lat="42.8336" lon="-0.44735">
        <ele>1960.4</ele>
        <time>2021-08-10 12:00:06</time>
      </trkpt>
      <trkpt lat="42.8336" lon="-0.44736">
        <ele>1960</ele>
        <time>2021-08-10 12:00:07</time>
      </trkpt>
      <trkpt lat="42.83361" lon="-0.44736">
        <ele>1960</ele>
        <time>2021-08-10 12:00:08</time>
      </trkpt>
      <trkpt lat="42.83361" lon="-0.44736">
        <ele>1960</ele>
        <time>2021-08-10 12:00:09</time>
      </trkpt>
      <trkpt lat="42.83361" lon="-0.44736">
        <ele>1960.4</ele>
        <time>2021-08-10 12:00:10</time>
      </trkpt>
      <trkpt lat="42.83362" lon="-0.44736">
        <ele>1960.6</ele>
        <time>2021-08-10 12:00:11</time>
      </trkpt>
      <trkpt lat="42.83362" lon="-0.44735">
        <ele>1960.6</ele>
        <time>2021-08-10 12:00:12</time>
      </trkpt>
      <trkpt lat="42.83363" lon="-0.44735">
        <ele>1960.8</ele>
        <time>2021-08-10 12:00:13</time>
      </trkpt>
      <trkpt lat="42.83366" lon="-0.44735">
        <ele>1960.8</ele>
        <time>2021-08-10 12:00:14</time>
      </trkpt>
      <trkpt lat="42.83365" lon="-0.44734">
        <ele>1960.6</ele>
        <time>2021-08-10 12:00:15</time>
      </trkpt>
      <trkpt lat="42.83365" lon="-0.44733">
        <ele>1960.8</ele>
        <time>2021-08-10 12:00:16</time>
      </trkpt>
      <trkpt lat="42.83365" lon="-0.44732">
        <ele>1961</ele>
        <time>2021-08-10 12:00:17</time>
      </trkpt>
      <trkpt lat="42.83364" lon="-0.44731">
        <ele>1961.2</ele>
        <time>2021-08-10 12:00:18</time>
      </trkpt>
      <trkpt lat="42.83365" lon="-0.4473">
        <ele>1961</ele>
        <time>2021-08-10 12:00:19</time>
      </trkpt>
      <trkpt lat="42.83365" lon="-0.44729">
        <ele>1961.2</ele>
        <time>2021-08-10 12:00:31</time>
      </trkpt>
      <trkpt lat="42.83366" lon="-0.44728">
        <ele>1961.4</ele>
        <time>2021-08-10 12:00:32</time>
      </trkpt>
      <trkpt lat="42.83366" lon="-0.44728">
        <ele>1961.4</ele>
        <time>2021-08-10 12:00:33</time>
      </trkpt>
      <trkpt lat="42.83367" lon="-0.44727">
        <ele>1961.6</ele>
        <time>2021-08-10 12:00:34</time>
      </trkpt>
      <trkpt lat="42.83367" lon="-0.44727">
        <ele>1961.6</ele>
        <time>2021-08-10 12:00:35</time>
      </trkpt>
      <trkpt lat="42.83367" lon="-0.44727">
        <ele>1961.6</ele>
        <time>2021-08-10 12:00:36</time>
      </trkpt>
      <trkpt lat="42.83367" lon="-0.44726">
        <ele>1961.6</ele>
        <time>2021-08-10 12:00:37</time>
      </trkpt>
      <trkpt lat="42.83368" lon="-0.44726">
        <ele>1961.6</ele>
        <time>2021-08-10 12:00:38</time>
      </trkpt>
      <trkpt lat="42.83368" lon="-0.44726">
        <ele>1961.8</ele>
        <time>2021-08-10 12:00:39</time>
      </trkpt>
      <trkpt lat="42.83369" lon="-0.44725">
        <ele>1961.8</ele>
        <time>2021-08-10 12:00:40</time>
      </trkpt>
      <trkpt lat="42.83369" lon="-0.44724">
        <ele>1961.8</ele>
        <time>2021-08-10 12:00:41</time>
      </trkpt>
      <trkpt lat="42.8337" lon="-0.44724">
        <ele>1962</ele>
        <time>2021-08-10 12:00:42</time>
      </trkpt>
      <trkpt lat="42.8337" lon="-0.44723">
        <ele>1962</ele>
        <time>2021-08-10 12:00:43</time>
      </trkpt>
      <trkpt lat="42.83371" lon="-0.44724">
        <ele>1962.2</ele>
        <time>2021-08-10 12:00:44</time>
      </trkpt>
      <trkpt lat="42.83371" lon="-0.44724">
        <ele>1962.2</ele>
        <time>2021-08-10 12:00:45</time>
      </trkpt>
      <trkpt lat="42.83372" lon="-0.44723">
        <ele>1962.2</ele>
        <time>2021-08-10 12:00:46</time>
      </trkpt>
      <trkpt lat="42.83372" lon="-0.44723">
        <ele>1962.2</ele>
      </trkpt>
      <trkpt lat="42.83372" lon="-0.44722">
        <ele>1962.4</ele>
        <time>2021-08-10 12:00:47</time>
      </trkpt>
      <trkpt lat="42.83372" lon="-0.44722">
        <ele>1962.4</ele>
        <time>2021-08-10 12:00:48</time>
      </trkpt>
      <trkpt lat="42.83373" lon="-0.44721">
        <ele>1962.8</ele>
        <time>2021-08-10 12:00:49</time>
      </trkpt>
      <trkpt lat="42.83374" lon="-0.44721">
        <ele>1962.6</ele>
        <time>2021-08-10 12:00:50</time>
      </trkpt>
      <trkpt lat="42.83374" lon="-0.4472">
        <ele>1962.8</ele>
        <time>2021-08-10 12:00:51</time>
      </trkpt>
      <trkpt lat="42.83375" lon="-0.4472">
        <ele>1963</ele>
        <time>2021-08-10 12:00:52</time>
      </trkpt>
      <trkpt lat="42.83375" lon="-0.44721">
        <ele>1963</ele>
        <time>2021-08-10 12:00:53</time>
      </trkpt>
      <trkpt lat="42.83376" lon="-0.44721">
        <ele>1963.2</ele>
        <time>2021-08-10 12:00:54</time>
      </trkpt>
      <trkpt lat="42.83377" lon="-0.44721">
        <ele>1963.4</ele>
        <time>2021-08-10 12:00:56</time>
      </trkpt>
      <trkpt lat="42.83377" lon="-0.44721">
        <ele>1963.4</ele>
      </trkpt>
      <trkpt lat="42.8338" lon="-0.44721">
        <ele>1963.6</ele>
        <time>2021-08-10 12:00:57</time>
      </trkpt>
      <trkpt lat="42.8338" lon="-0.44721">
        <ele>1963.4</ele>
        <time>2021-08-10 12:00:58</time>
      </trkpt>
      <trkpt lat="42.83381" lon="-0.44721">
        <ele>1963.4</ele>
        <time>2021-08-10 12:00:59</time>
      </trkpt>
      <trkpt lat="42.83381" lon="-0.44721">
        <ele>1963.6</ele>
        <time>2021-08-10 12:01:00</time>
      </trkpt>
      <trkpt lat="42.83382" lon="-0.4472">
        <ele>1963.6</ele>
        <time>2021-08-10 12:01:01</time>
      </trkpt>
      <trkpt lat="42.83382" lon="-0.44719">
        <ele>1963.6</ele>
        <time>2021-08-10 12:01:02</time>
      </trkpt>
      <trkpt lat="42.83382" lon="-0.44718">
        <ele>1964</ele>
        <time>2021-08-10 12:01:03</time>
      </trkpt>
      <trkpt lat="42.83382" lon="-0.44717">
        <ele>1964</ele>
        <time>2021-08-10 12:01:04</time>
      </trkpt>
      <trkpt lat="42.83383" lon="-0.44716">
        <ele>1964.2</ele>
        <time>2021-08-10 12:01:05</time>
      </trkpt>
      <trkpt lat="42.83384" lon="-0.44715">
        <ele>1964.2</ele>
        <time>2021-08-10 12:01:06</time>
      </trkpt>
      <trkpt lat="42.83384" lon="-0.44715">
        <ele>1964.2</ele>
        <time>2021-08-10 12:01:07</time>
      </trkpt>
      <trkpt lat="42.83385" lon="-0.44714">
        <ele>1964.2</ele>
        <time>2021-08-10 12:01:08</time>
      </trkpt>
      <trkpt lat="42.83385" lon="-0.44713">
        <ele>1964.6</ele>
        <time>2021-08-10 12:01:09</time>
      </trkpt>
      <trkpt lat="42.83385" lon="-0.44713">
        <ele>1964.6</ele>
        <time>2021-08-10 12:01:10</time>
      </trkpt>
      <trkpt lat="42.83386" lon="-0.44712">
        <ele>1964.6</ele>
        <time>2021-08-10 12:01:11</time>
      </trkpt>
      <trkpt lat="42.83387" lon="-0.44711">
        <ele>1965</ele>
        <time>2021-08-10 12:01:12</time>
      </trkpt>
      <trkpt lat="42.83387" lon="-0.44711">
        <ele>1965.2</ele>
        <time>2021-08-10 12:01:13</time>
      </trkpt>
      <trkpt lat="42.83388" lon="-0.44711">
        <ele>1965.2</ele>
        <time>2021-08-10 12:01:14</time>
      </trkpt>
      <trkpt lat="42.83388" lon="-0.44711">
        <ele>1965.6</ele>
        <time>2021-08-10 12:01:15</time>
      </trkpt>
      <trkpt lat="42.83388" lon="-0.44711">
        <ele>1965.6</ele>
        <time>2021-08-10 12:01:16</time>
      </trkpt>
      <trkpt lat="42.83389" lon="-0.44711">
        <ele>1965.8</ele>
        <time>2021-08-10 12:01:17</time>
      </trkpt>
      <trkpt lat="42.8339" lon="-0.4471">
        <ele>1966</ele>
        <time>2021-08-10 12:01:18</time>
      </trkpt>
      <trkpt lat="42.8339" lon="-0.4471">
        <ele>1966.2</ele>
        <time>2021-08-10 12:01:19</time>
      </trkpt>
      <trkpt lat="42.83391" lon="-0.44709">
        <ele>1966.2</ele>
        <time>2021-08-10 12:01:20</time>
      </trkpt>
      <trkpt lat="42.83391" lon="-0.44708">
        <ele>1966.2</ele>
        <time>2021-08-10 12:01:21</time>
      </trkpt>
      <trkpt lat="42.83391" lon="-0.44708">
        <ele>1966.4</ele>
        <time>2021-08-10 12:01:22</time>
      </trkpt>
      <trkpt lat="42.83391" lon="-0.44707">
        <ele>1966.4</ele>
        <time>2021-08-10 12:01:23</time>
      </trkpt>
      <trkpt lat="42.83392" lon="-0.44707">
        <ele>1966.6</ele>
        <time>2021-08-10 12:01:24</time>
      </trkpt>
      <trkpt lat="42.83392" lon="-0.44706">
        <ele>1966.8</ele>
        <time>2021-08-10 12:01:25</time>
      </trkpt>
      <trkpt lat="42.83392" lon="-0.44705">
        <ele>1967</ele>
        <time>2021-08-10 12:01:26</time>
      </trkpt>
      <trkpt lat="42.83392" lon="-0.44704">
        <ele>1967</ele>
        <time>2021-08-10 12:01:27</time>
      </trkpt>
      <trkpt lat="42.83392" lon="-0.44703">
        <ele>1967.2</ele>
        <time>2021-08-10 12:01:28</time>
      </trkpt>
      <trkpt lat="42.83393" lon="-0.44703">
        <ele>1967.2</ele>
        <time>2021-08-10 12:01:29</time>
      </trkpt>
      <trkpt lat="42.83393" lon="-0.44702">
        <ele>1967.6</ele>
        <time>2021-08-10 12:01:30</time>
      </trkpt>
      <trkpt lat="42.83393" lon="-0.44702">
        <ele>1967.6</ele>
        <time>2021-08-10 12:01:31</time>
      </trkpt>
      <trkpt lat="42.83394" lon="-0.44701">
        <ele>1967.8</ele>
        <time>2021-08-10 12:01:32</time>
      </trkpt>
      <trkpt lat="42.83394" lon="-0.44701">
        <ele>1968</ele>
        <time>2021-08-10 12:01:33</time>
      </trkpt>
      <trkpt lat="42.83394" lon="-0.447">
        <ele>1968</ele>
        <time>2021-08-10 12:01:34</time>
      </trkpt>
      <trkpt lat="42.83394" lon="-0.44699">
        <ele>1968.2</ele>
        <time>2021-08-10 12:01:35</time>
      </trkpt>
      <trkpt lat="42.83395" lon="-0.44698">
        <ele>1968</ele>
        <time>2021-08-10 12:01:36</time>
      </trkpt>
      <trkpt lat="42.83395" lon="-0.44698">
        <ele>1967.8</ele>
        <time>2021-08-10 12:01:37</time>
      </trkpt>
      <trkpt lat="42.83396" lon="-0.44697">
        <ele>1967.8</ele>
        <time>2021-08-10 12:01:38</time>
      </trkpt>
      <trkpt lat="42.83396" lon="-0.44697">
        <ele>1967.8</ele>
        <time>2021-08-10 12:01:39</time>
      </trkpt>
      <trkpt lat="42.83397" lon="-0.44696">
        <ele>1967.8</ele>
        <time>2021-08-10 12:01:40</time>
      </trkpt>
      <trkpt lat="42.83398" lon="-0.44695">
        <ele>1967.8</ele>
        <time>2021-08-10 12:01:41</time>
      </trkpt>
      <trkpt lat="42.83398" lon="-0.44695">
        <ele>1968</ele>
        <time>2021-08-10 12:01:42</time>
      </trkpt>
      <trkpt lat="42.83398" lon="-0.44694">
        <ele>1968.2</ele>
        <time>2021-08-10 12:01:43</time>
      </trkpt>
      <trkpt lat="42.83399" lon="-0.44694">
        <ele>1968.2</ele>
        <time>2021-08-10 12:01:44</time>
      </trkpt>
      <trkpt lat="42.83399" lon="-0.44693">
        <ele>1968.2</ele>
        <time>2021-08-10 12:01:45</time>
      </trkpt>
      <trkpt lat="42.834" lon="-0.44692">
        <ele>1968</ele>
        <time>2021-08-10 12:01:46</time>
      </trkpt>
      <trkpt lat="42.834" lon="-0.44692">
        <ele>1968.2</ele>
        <time>2021-08-10 12:01:47</time>
      </trkpt>
      <trkpt lat="42.834" lon="-0.44692">
        <ele>1968.4</ele>
        <time>2021-08-10 12:01:48</time>
      </trkpt>
      <trkpt lat="42.83401" lon="-0.44692">
        <ele>1968.4</ele>
        <time>2021-08-10 12:01:49</time>
      </trkpt>
      <trkpt lat="42.83402" lon="-0.44692">
        <ele>1968.2</ele>
        <time>2021-08-10 12:01:50</time>
      </trkpt>
      <trkpt lat="42.83402" lon="-0.44691">
        <ele>1968.4</ele>
        <time>2021-08-10 12:01:51</time>
      </trkpt>
      <trkpt lat="42.83402" lon="-0.44691">
        <ele>1968.4</ele>
        <time>2021-08-10 12:01:52</time>
      </trkpt>
      <trkpt lat="42.83403" lon="-0.4469">
        <ele>1968.6</ele>
        <time>2021-08-10 12:01:53</time>
      </trkpt>
      <trkpt lat="42.83404" lon="-0.4469">
        <ele>1968.6</ele>
        <time>2021-08-10 12:01:54</time>
      </trkpt>
      <trkpt lat="42.83405" lon="-0.4469">
        <ele>1968.8</ele>
        <time>2021-08-10 12:01:55</time>
      </trkpt>
      <trkpt lat="42.83405" lon="-0.44689">
        <ele>1968.6</ele>
        <time>2021-08-10 12:01:56</time>
      </trkpt>
      <trkpt lat="42.83406" lon="-0.44689">
        <ele>1968.6</ele>
        <time>2021-08-10 12:01:57</time>
      </trkpt>
      <trkpt lat="42.83407" lon="-0.44689">
        <ele>1968.6</ele>
        <time>2021-08-10 12:01:58</time>
      </trkpt>
      <trkpt lat="42.83408" lon="-0.44689">
        <ele>1968.8</ele>
        <time>2021-08-10 12:01:59</time>
      </trkpt>
      <trkpt lat="42.83409" lon="-0.44689">
        <ele>1968.6</ele>
        <time>2021-08-10 12:02:00</time>
      </trkpt>
      <trkpt lat="42.83409" lon="-0.44689">
        <ele>1968.8</ele>
        <time>2021-08-10 12:02:01</time>
      </trkpt>
      <trkpt lat="42.8341" lon="-0.44689">
        <ele>1968.8</ele>
        <time>2021-08-10 12:02:02</time>
      </trkpt>
      <trkpt lat="42.83411" lon="-0.44688">
        <ele>1969</ele>
        <time>2021-08-10 12:02:03</time>
      </trkpt>
      <trkpt lat="42.83411" lon="-0.44688">
        <ele>1969</ele>
        <time>2021-08-10 12:02:04</time>
      </trkpt>
      <trkpt lat="42.83412" lon="-0.44688">
        <ele>1969</ele>
        <time>2021-08-10 12:02:05</time>
      </trkpt>
      <trkpt lat="42.83413" lon="-0.44688">
        <ele>1969</ele>
        <time>2021-08-10 12:02:06</time>
      </trkpt>
      <trkpt lat="42.83414" lon="-0.44687">
        <ele>1969.2</ele>
        <time>2021-08-10 12:02:07</time>
      </trkpt>
      <trkpt lat="42.83414" lon="-0.44687">
        <ele>1969</ele>
        <time>2021-08-10 12:02:08</time>
      </trkpt>
      <trkpt lat="42.83415" lon="-0.44687">
        <ele>1969</ele>
        <time>2021-08-10 12:02:09</time>
      </trkpt>
      <trkpt lat="42.83416" lon="-0.44686">
        <ele>1969</ele>
        <time>2021-08-10 12:02:10</time>
      </trkpt>
      <trkpt lat="42.83416" lon="-0.44686">
        <ele>1969</ele>
        <time>2021-08-10 12:02:11</time>
      </trkpt>
      <trkpt lat="42.83417" lon="-0.44686">
        <ele>1969</ele>
        <time>2021-08-10 12:02:12</time>
      </trkpt>
      <trkpt lat="42.83417" lon="-0.44685">
        <ele>1969</ele>
        <time>2021-08-10 12:02:13</time>
      </trkpt>
      <trkpt lat="42.83417" lon="-0.44684">
        <ele>1969</ele>
        <time>2021-08-10 12:02:14</time>
      </trkpt>
      <trkpt lat="42.83418" lon="-0.44683">
        <ele>1968.8</ele>
        <time>2021-08-10 12:02:15</time>
      </trkpt>
      <trkpt lat="42.83418" lon="-0.44683">
        <ele>1969</ele>
        <time>2021-08-10 12:02:16</time>
      </trkpt>
      <trkpt lat="42.83419" lon="-0.44682">
        <ele>1968.8</ele>
        <time>2021-08-10 12:02:17</time>
      </trkpt>
      <trkpt lat="42.83419" lon="-0.44681">
        <ele>1968.8</ele>
        <time>2021-08-10 12:02:18</time>
      </trkpt>
      <trkpt lat="42.8342" lon="-0.44681">
        <ele>1968.8</ele>
        <time>2021-08-10 12:02:19</time>
      </trkpt>
      <trkpt lat="42.8342" lon="-0.4468">
        <ele>1969</ele>
        <time>2021-08-10 12:02:20</time>
      </trkpt>
      <trkpt lat="42.83421" lon="-0.44679">
        <ele>1969</ele>
        <time>2021-08-10 12:02:21</time>
      </trkpt>
      <trkpt lat="42.83421" lon="-0.44679">
        <ele>1969.2</ele>
        <time>2021-08-10 12:02:22</time>
      </trkpt>
      <trkpt lat="42.83422" lon="-0.44679">
        <ele>1969.2</ele>
        <time>2021-08-10 12:02:23</time>
      </trkpt>
      <trkpt lat="42.83423" lon="-0.44679">
        <ele>1969.2</ele>
        <time>2021-08-10 12:02:24</time>
      </trkpt>
      <trkpt lat="42.83424" lon="-0.44679">
        <ele>1968.8</ele>
        <time>2021-08-10 12:02:25</time>
      </trkpt>
      <trkpt lat="42.83425" lon="-0.44679">
        <ele>1969.2</ele>
        <time>2021-08-10 12:02:26</time>
      </trkpt>
      <trkpt lat="42.83426" lon="-0.44679">
        <ele>1969.2</ele>
        <time>2021-08-10 12:02:27</time>
      </trkpt>
      <trkpt lat="42.83427" lon="-0.44678">
        <ele>1969.2</ele>
        <time>2021-08-10 12:02:28</time>
      </trkpt>
      <trkpt lat="42.83427" lon="-0.44678">
        <ele>1969.2</ele>
        <time>2021-08-10 12:02:29</time>
      </trkpt>
      <trkpt lat="42.83428" lon="-0.44677">
        <ele>1969.2</ele>
        <time>2021-08-10 12:02:30</time>
      </trkpt>
      <trkpt lat="42.83428" lon="-0.44677">
        <ele>1969.4</ele>
        <time>2021-08-10 12:02:31</time>
      </trkpt>
      <trkpt lat="42.83429" lon="-0.44678">
        <ele>1969.6</ele>
        <time>2021-08-10 12:02:32</time>
      </trkpt>
      <trkpt lat="42.8343" lon="-0.44677">
        <ele>1969.6</ele>
        <time>2021-08-10 12:02:33</time>
      </trkpt>
      <trkpt lat="42.8343" lon="-0.44676">
        <ele>1969.8</ele>
        <time>2021-08-10 12:02:34</time>
      </trkpt>
      <trkpt lat="42.8343" lon="-0.44675">
        <ele>1970.2</ele>
        <time>2021-08-10 12:02:35</time>
      </trkpt>
      <trkpt lat="42.83431" lon="-0.44675">
        <ele>1970.2</ele>
        <time>2021-08-10 12:02:36</time>
      </trkpt>
      <trkpt lat="42.83432" lon="-0.44674">
        <ele>1970.4</ele>
        <time>2021-08-10 12:02:37</time>
      </trkpt>
      <trkpt lat="42.83432" lon="-0.44674">
        <ele>1970.4</ele>
        <time>2021-08-10 12:02:38</time>
      </trkpt>
      <trkpt lat="42.83433" lon="-0.44673">
        <ele>1970.4</ele>
        <time>2021-08-10 12:02:39</time>
      </trkpt>
      <trkpt lat="42.83433" lon="-0.44674">
        <ele>1970.4</ele>
        <time>2021-08-10 12:02:40</time>
      </trkpt>
      <trkpt lat="42.83433" lon="-0.44673">
        <ele>1971</ele>
        <time>2021-08-10 12:02:41</time>
      </trkpt>
      <trkpt lat="42.83433" lon="-0.44673">
        <ele>1971</ele>
        <time>2021-08-10 12:02:42</time>
      </trkpt>
      <trkpt lat="42.83434" lon="-0.44672">
        <ele>1971.2</ele>
        <time>2021-08-10 12:02:43</time>
      </trkpt>
      <trkpt lat="42.83434" lon="-0.44671">
        <ele>1971</ele>
        <time>2021-08-10 12:02:44</time>
      </trkpt>
      <trkpt lat="42.83434" lon="-0.4467">
        <ele>1971</ele>
        <time>2021-08-10 12:02:45</time>
      </trkpt>
      <trkpt lat="42.83434" lon="-0.44671">
        <ele>1971.4</ele>
        <time>2021-08-10 12:02:46</time>
      </trkpt>
      <trkpt lat="42.83435" lon="-0.4467">
        <ele>1971.6</ele>
        <time>2021-08-10 12:02:47</time>
      </trkpt>
      <trkpt lat="42.83434" lon="-0.44669">
        <ele>1972</ele>
        <time>2021-08-10 12:02:48</time>
      </trkpt>
      <trkpt lat="42.83435" lon="-0.44669">
        <ele>1972.2</ele>
        <time>2021-08-10 12:02:49</time>
      </trkpt>
      <trkpt lat="42.83435" lon="-0.44668">
        <ele>1972</ele>
        <time>2021-08-10 12:02:50</time>
      </trkpt>
      <trkpt lat="42.83435" lon="-0.44667">
        <ele>1972.4</ele>
        <time>2021-08-10 12:02:51</time>
      </trkpt>
      <trkpt lat="42.83436" lon="-0.44667">
        <ele>1972.4</ele>
        <time>2021-08-10 12:02:52</time>
      </trkpt>
      <trkpt lat="42.83437" lon="-0.44666">
        <ele>1972.8</ele>
        <time>2021-08-10 12:02:53</time>
      </trkpt>
      <trkpt lat="42.83437" lon="-0.44665">
        <ele>1973</ele>
        <time>2021-08-10 12:02:54</time>
      </trkpt>
      <trkpt lat="42.83437" lon="-0.44665">
        <ele>1973</ele>
        <time>2021-08-10 12:02:55</time>
      </trkpt>
      <trkpt lat="42.83438" lon="-0.44665">
        <ele>1973.4</ele>
        <time>2021-08-10 12:02:56</time>
      </trkpt>
      <trkpt lat="42.83438" lon="-0.44665">
        <ele>1973.4</ele>
        <time>2021-08-10 12:02:57</time>
      </trkpt>
      <trkpt lat="42.83439" lon="-0.44665">
        <ele>1973.6</ele>
        <time>2021-08-10 12:02:58</time>
      </trkpt>
      <trkpt lat="42.83439" lon="-0.44664">
        <ele>1973.6</ele>
        <time>2021-08-10 12:02:59</time>
      </trkpt>
      <trkpt lat="42.8344" lon="-0.44664">
        <ele>1973.8</ele>
        <time>2021-08-10 12:03:00</time>
      </trkpt>
      <trkpt lat="42.8344" lon="-0.44664">
        <ele>1974</ele>
        <time>2021-08-10 12:03:01</time>
      </trkpt>
      <trkpt lat="42.8344" lon="-0.44663">
        <ele>1974.2</ele>
        <time>2021-08-10 12:03:02</time>
      </trkpt>
      <trkpt lat="42.83441" lon="-0.44662">
        <ele>1974.2</ele>
        <time>2021-08-10 12:03:03</time>
      </trkpt>
      <trkpt lat="42.83442" lon="-0.44662">
        <ele>1974.6</ele>
        <time>2021-08-10 12:03:04</time>
      </trkpt>
      <trkpt lat="42.83442" lon="-0.44662">
        <ele>1974.6</ele>
        <time>2021-08-10 12:03:05</time>
      </trkpt>
      <trkpt lat="42.83443" lon="-0.44662">
        <ele>1974.8</ele>
        <time>2021-08-10 12:03:06</time>
      </trkpt>
      <trkpt lat="42.83443" lon="-0.44661">
        <ele>1975</ele>
        <time>2021-08-10 12:03:07</time>
      </trkpt>
      <trkpt lat="42.83443" lon="-0.44661">
        <ele>1975</ele>
        <time>2021-08-10 12:03:08</time>
      </trkpt>
      <trkpt lat="42.83444" lon="-0.4466">
        <ele>1975.2</ele>
        <time>2021-08-10 12:03:09</time>
      </trkpt>
      <trkpt lat="42.83444" lon="-0.44659">
        <ele>1975.2</ele>
        <time>2021-08-10 12:03:10</time>
      </trkpt>
      <trkpt lat="42.83444" lon="-0.44659">
        <ele>1975.2</ele>
        <time>2021-08-10 12:03:11</time>
      </trkpt>
      <trkpt lat="42.83444" lon="-0.44658">
        <ele>1975.6</ele>
        <time>2021-08-10 12:03:12</time>
      </trkpt>
      <trkpt lat="42.83444" lon="-0.44657">
        <ele>1975.8</ele>
        <time>2021-08-10 12:03:13</time>
      </trkpt>
      <trkpt lat="42.83445" lon="-0.44657">
        <ele>1976</ele>
        <time>2021-08-10 12:03:14</time>
      </trkpt>
      <trkpt lat="42.83445" lon="-0.44656">
        <ele>1976.2</ele>
        <time>2021-08-10 12:03:15</time>
      </trkpt>
      <trkpt lat="42.83446" lon="-0.44656">
        <ele>1976.2</ele>
        <time>2021-08-10 12:03:16</time>
      </trkpt>
      <trkpt lat="42.83446" lon="-0.44656">
        <ele>1976.4</ele>
        <time>2021-08-10 12:03:17</time>
      </trkpt>
      <trkpt lat="42.83446" lon="-0.44655">
        <ele>1976.4</ele>
        <time>2021-08-10 12:03:18</time>
      </trkpt>
      <trkpt lat="42.83447" lon="-0.44655">
        <ele>1976.6</ele>
        <time>2021-08-10 12:03:19</time>
      </trkpt>
      <trkpt lat="42.83448" lon="-0.44655">
        <ele>1976.8</ele>
        <time>2021-08-10 12:03:20</time>
      </trkpt>
      <trkpt lat="42.83448" lon="-0.44654">
        <ele>1976.8</ele>
        <time>2021-08-10 12:03:21</time>
      </trkpt>
      <trkpt lat="42.83448" lon="-0.44654">
        <ele>1977</ele>
        <time>2021-08-10 12:03:22</time>
      </trkpt>
      <trkpt lat="42.83449" lon="-0.44654">
        <ele>1977</ele>
        <time>2021-08-10 12:03:23</time>
      </trkpt>
      <trkpt lat="42.8345" lon="-0.44653">
        <ele>1977.2</ele>
        <time>2021-08-10 12:03:24</time>
      </trkpt>
      <trkpt lat="42.8345" lon="-0.44653">
        <ele>1977.4</ele>
        <time>2021-08-10 12:03:25</time>
      </trkpt>
      <trkpt lat="42.83451" lon="-0.44653">
        <ele>1977.6</ele>
        <time>2021-08-10 12:03:26</time>
      </trkpt>
      <trkpt lat="42.83451" lon="-0.44652">
        <ele>1977.8</ele>
        <time>2021-08-10 12:03:27</time>
      </trkpt>
      <trkpt lat="42.83452" lon="-0.44652">
        <ele>1978</ele>
        <time>2021-08-10 12:03:28</time>
      </trkpt>
      <trkpt lat="42.83452" lon="-0.44651">
        <ele>1977.8</ele>
        <time>2021-08-10 12:03:29</time>
      </trkpt>
      <trkpt lat="42.83453" lon="-0.44651">
        <ele>1978</ele>
        <time>2021-08-10 12:03:30</time>
      </trkpt>
      <trkpt lat="42.83453" lon="-0.44651">
        <ele>1978</ele>
        <time>2021-08-10 12:03:31</time>
      </trkpt>
      <trkpt lat="42.83453" lon="-0.44651">
        <ele>1978.2</ele>
        <time>2021-08-10 12:03:32</time>
      </trkpt>
      <trkpt lat="42.83453" lon="-0.44651">
        <ele>1978.2</ele>
        <time>2021-08-10 12:03:33</time>
      </trkpt>
      <trkpt lat="42.83453" lon="-0.44651">
        <ele>1978.4</ele>
        <time>2021-08-10 12:03:34</time>
      </trkpt>
      <trkpt lat="42.83454" lon="-0.44651">
        <ele>1978.4</ele>
        <time>2021-08-10 12:03:35</time>
      </trkpt>
      <trkpt lat="42.83455" lon="-0.44652">
        <ele>1978.4</ele>
        <time>2021-08-10 12:03:36</time>
      </trkpt>
      <trkpt lat="42.83455" lon="-0.44653">
        <ele>1978.4</ele>
        <time>2021-08-10 12:03:37</time>
      </trkpt>
      <trkpt lat="42.83455" lon="-0.44653">
        <ele>1978.2</ele>
        <time>2021-08-10 12:03:38</time>
      </trkpt>
      <trkpt lat="42.83455" lon="-0.44653">
        <ele>1978.2</ele>
        <time>2021-08-10 12:03:39</time>
      </trkpt>
      <trkpt lat="42.83455" lon="-0.44652">
        <ele>1978</ele>
        <time>2021-08-10 12:03:40</time>
      </trkpt>
      <trkpt lat="42.83454" lon="-0.44652">
        <ele>1978.2</ele>
        <time>2021-08-10 12:03:41</time>
      </trkpt>
      <trkpt lat="42.83455" lon="-0.44652">
        <ele>1978.2</ele>
        <time>2021-08-10 12:03:42</time>
      </trkpt>
      <trkpt lat="42.83456" lon="-0.44651">
        <ele>1978.2</ele>
        <time>2021-08-10 12:03:43</time>
      </trkpt>
      <trkpt lat="42.83456" lon="-0.4465">
        <ele>1978.2</ele>
        <time>2021-08-10 12:03:44</time>
      </trkpt>
      <trkpt lat="42.83456" lon="-0.44649">
        <ele>1978.4</ele>
        <time>2021-08-10 12:03:45</time>
      </trkpt>
      <trkpt lat="42.83456" lon="-0.44649">
        <ele>1978.4</ele>
        <time>2021-08-10 12:03:46</time>
      </trkpt>
      <trkpt lat="42.83456" lon="-0.44649">
        <ele>1978.6</ele>
        <time>2021-08-10 12:03:47</time>
      </trkpt>
      <trkpt lat="42.83456" lon="-0.44649">
        <ele>1978.6</ele>
        <time>2021-08-10 12:03:48</time>
      </trkpt>
      <trkpt lat="42.83455" lon="-0.44649">
        <ele>1978.4</ele>
        <time>2021-08-10 12:03:49</time>
      </trkpt>
      <trkpt lat="42.83455" lon="-0.44649">
        <ele>1978.6</ele>
        <time>2021-08-10 12:03:50</time>
      </trkpt>
      <trkpt lat="42.83455" lon="-0.44649">
        <ele>1978.6</ele>
        <time>2021-08-10 12:03:51</time>
      </trkpt>
      <trkpt lat="42.83455" lon="-0.44649">
        <ele>1978.6</ele>
        <time>2021-08-10 12:03:52</time>
      </trkpt>
      <trkpt lat="42.83454" lon="-0.44649">
        <ele>1978.4</ele>
        <time>2021-08-10 12:03:53</time>
      </trkpt>
      <trkpt lat="42.83454" lon="-0.44648">
        <ele>1978.4</ele>
        <time>2021-08-10 12:03:54</time>
      </trkpt>
      <trkpt lat="42.83454" lon="-0.44649">
        <ele>1978.6</ele>
        <time>2021-08-10 12:03:55</time>
      </trkpt>
      <trkpt lat="42.83455" lon="-0.44649">
        <ele>1978.4</ele>
        <time>2021-08-10 12:03:56</time>
      </trkpt>
      <trkpt lat="42.83454" lon="-0.44649">
        <ele>1978.6</ele>
        <time>2021-08-10 12:03:57</time>
      </trkpt>
      <trkpt lat="42.83454" lon="-0.44648">
        <ele>1978.4</ele>
        <time>2021-08-10 12:03:58</time>
      </trkpt>
      <trkpt lat="42.83455" lon="-0.44649">
        <ele>1978.4</ele>
        <time>2021-08-10 12:03:59</time>
      </trkpt>
      <trkpt lat="42.83456" lon="-0.44648">
        <ele>1978.2</ele>
        <time>2021-08-10 12:04:00</time>
      </trkpt>
      <trkpt lat="42.83456" lon="-0.44649">
        <ele>1978.2</ele>
        <time>2021-08-10 12:04:01</time>
      </trkpt>
      <trkpt lat="42.83456" lon="-0.44649">
        <ele>1978.4</ele>
        <time>2021-08-10 12:04:02</time>
      </trkpt>
      <trkpt lat="42.83457" lon="-0.44651">
        <ele>1978.4</ele>
        <time>2021-08-10 12:04:03</time>
      </trkpt>
      <trkpt lat="42.83456" lon="-0.44651">
        <ele>1978.4</ele>
        <time>2021-08-10 12:04:04</time>
      </trkpt>
      <trkpt lat="42.83455" lon="-0.44651">
        <ele>1978.4</ele>
        <time>2021-08-10 12:04:05</time>
      </trkpt>
      <trkpt lat="42.83455" lon="-0.44651">
        <ele>1978.4</ele>
        <time>2021-08-10 12:04:06</time>
      </trkpt>
      <trkpt lat="42.83455" lon="-0.44651">
        <ele>1978.6</ele>
        <time>2021-08-10 12:04:07</time>
      </trkpt>
      <trkpt lat="42.83455" lon="-0.44651">
        <ele>1978.4</ele>
        <time>2021-08-10 12:04:08</time>
      </trkpt>
      <trkpt lat="42.83454" lon="-0.44651">
        <ele>1978.4</ele>
        <time>2021-08-10 12:04:09</time>
      </trkpt>
      <trkpt lat="42.83454" lon="-0.44651">
        <ele>1978.4</ele>
        <time>2021-08-10 12:04:10</time>
      </trkpt>
      <trkpt lat="42.83454" lon="-0.44651">
        <ele>1978.2</ele>
        <time>2021-08-10 12:04:11</time>
      </trkpt>
      <trkpt lat="42.83454" lon="-0.44651">
        <ele>1977.8</ele>
        <time>2021-08-10 12:04:12</time>
      </trkpt>
      <trkpt lat="42.83454" lon="-0.44651">
        <ele>1977.6</ele>
        <time>2021-08-10 12:04:13</time>
      </trkpt>
      <trkpt lat="42.83453" lon="-0.4465">
        <ele>1978</ele>
        <time>2021-08-10 12:04:14</time>
      </trkpt>
      <trkpt lat="42.83453" lon="-0.4465">
        <ele>1978</ele>
        <time>2021-08-10 12:04:15</time>
      </trkpt>
      <trkpt lat="42.83453" lon="-0.4465">
        <ele>1978</ele>
        <time>2021-08-10 12:04:16</time>
      </trkpt>
      <trkpt lat="42.83452" lon="-0.44649">
        <ele>1978</ele>
        <time>2021-08-10 12:04:17</time>
      </trkpt>
      <trkpt lat="42.83452" lon="-0.44649">
        <ele>1978</ele>
        <time>2021-08-10 12:04:18</time>
      </trkpt>
      <trkpt lat="42.83452" lon="-0.44649">
        <ele>1978</ele>
        <time>2021-08-10 12:04:19</time>
      </trkpt>
      <trkpt lat="42.83452" lon="-0.44647">
        <ele>1978.8</ele>
        <time>2021-08-10 12:04:20</time>
      </trkpt>
      <trkpt lat="42.83452" lon="-0.44648">
        <ele>1978.6</ele>
        <time>2021-08-10 12:04:21</time>
      </trkpt>
      <trkpt lat="42.83452" lon="-0.44648">
        <ele>1978.6</ele>
        <time>2021-08-10 12:04:22</time>
      </trkpt>
      <trkpt lat="42.83452" lon="-0.44648">
        <ele>1978</ele>
        <time>2021-08-10 12:04:23</time>
      </trkpt>
      <trkpt lat="42.83453" lon="-0.44649">
        <ele>1978.4</ele>
        <time>2021-08-10 12:04:24</time>
      </trkpt>
      <trkpt lat="42.83453" lon="-0.44649">
        <ele>1978.4</ele>
        <time>2021-08-10 12:04:25</time>
      </trkpt>
      <trkpt lat="42.83454" lon="-0.44648">
        <ele>1978.2</ele>
        <time>2021-08-10 12:04:26</time>
      </trkpt>
      <trkpt lat="42.83454" lon="-0.44647">
        <ele>1978.4</ele>
        <time>2021-08-10 12:04:27</time>
      </trkpt>
      <trkpt lat="42.83454" lon="-0.44647">
        <ele>1978.4</ele>
        <time>2021-08-10 12:04:28</time>
      </trkpt>
      <trkpt lat="42.83454" lon="-0.44647">
        <ele>1978.4</ele>
        <time>2021-08-10 12:04:29</time>
      </trkpt>
      <trkpt lat="42.83455" lon="-0.44647">
        <ele>1978.4</ele>
        <time>2021-08-10 12:04:30</time>
      </trkpt>
      <trkpt lat="42.83454" lon="-0.44648">
        <ele>1978.4</ele>
        <time>2021-08-10 12:04:31</time>
      </trkpt>
      <trkpt lat="42.83454" lon="-0.44648">
        <ele>1978.2</ele>
        <time>2021-08-10 12:04:32</time>
      </trkpt>
      <trkpt lat="42.83454" lon="-0.44648">
        <ele>1978.4</ele>
        <time>2021-08-10 12:04:33</time>
      </trkpt>
      <trkpt lat="42.83454" lon="-0.44649">
        <ele>1978.2</ele>
        <time>2021-08-10 12:04:34</time>
      </trkpt>
      <trkpt lat="42.83454" lon="-0.44649">
        <ele>1978</ele>
        <time>2021-08-10 12:04:35</time>
      </trkpt>
      <trkpt lat="42.83454" lon="-0.44649">
        <ele>1978.4</ele>
        <time>2021-08-10 12:04:36</time>
      </trkpt>
      <trkpt lat="42.83455" lon="-0.44649">
        <ele>1978.2</ele>
        <time>2021-08-10 12:04:37</time>
      </trkpt>
      <trkpt lat="42.83455" lon="-0.44647">
        <ele>1978.2</ele>
        <time>2021-08-10 12:04:38</time>
      </trkpt>
      <trkpt lat="42.83455" lon="-0.44647">
        <ele>1978.4</ele>
        <time>2021-08-10 12:04:39</time>
      </trkpt>
      <trkpt lat="42.83455" lon="-0.44648">
        <ele>1978.4</ele>
        <time>2021-08-10 12:04:40</time>
      </trkpt>
      <trkpt lat="42.83455" lon="-0.44647">
        <ele>1978</ele>
        <time>2021-08-10 12:04:41</time>
      </trkpt>
      <trkpt lat="42.83455" lon="-0.44648">
        <ele>1978</ele>
        <time>2021-08-10 12:04:42</time>
      </trkpt>
      <trkpt lat="42.83455" lon="-0.44648">
        <ele>1978</ele>
        <time>2021-08-10 12:04:43</time>
      </trkpt>
      <trkpt lat="42.83455" lon="-0.44648">
        <ele>1978.2</ele>
        <time>2021-08-10 12:04:44</time>
      </trkpt>
      <trkpt lat="42.83455" lon="-0.44648">
        <ele>1978.4</ele>
        <time>2021-08-10 12:04:45</time>
      </trkpt>
      <trkpt lat="42.83454" lon="-0.44647">
        <ele>1978.4</ele>
        <time>2021-08-10 12:04:46</time>
      </trkpt>
      <trkpt lat="42.83453" lon="-0.44647">
        <ele>1978.4</ele>
        <time>2021-08-10 12:04:47</time>
      </trkpt>
      <trkpt lat="42.83454" lon="-0.44647">
        <ele>1978.4</ele>
        <time>2021-08-10 12:04:48</time>
      </trkpt>
      <trkpt lat="42.83455" lon="-0.44648">
        <ele>1978.4</ele>
        <time>2021-08-10 12:04:49</time>
      </trkpt>
      <trkpt lat="42.83456" lon="-0.44648">
        <ele>1978.4</ele>
        <time>2021-08-10 12:04:50</time>
      </trkpt>
      <trkpt lat="42.83456" lon="-0.44647">
        <ele>1978.6</ele>
        <time>2021-08-10 12:04:51</time>
      </trkpt>
      <trkpt lat="42.83457" lon="-0.44647">
        <ele>1978.4</ele>
        <time>2021-08-10 12:04:52</time>
      </trkpt>
      <trkpt lat="42.83458" lon="-0.44647">
        <ele>1978.6</ele>
        <time>2021-08-10 12:04:53</time>
      </trkpt>
      <trkpt lat="42.83458" lon="-0.44646">
        <ele>1978.8</ele>
        <time>2021-08-10 12:04:54</time>
      </trkpt>
      <trkpt lat="42.83458" lon="-0.44646">
        <ele>1979</ele>
        <time>2021-08-10 12:04:55</time>
      </trkpt>
      <trkpt lat="42.83459" lon="-0.44646">
        <ele>1979.2</ele>
        <time>2021-08-10 12:04:56</time>
      </trkpt>
      <trkpt lat="42.83459" lon="-0.44645">
        <ele>1979.4</ele>
        <time>2021-08-10 12:04:57</time>
      </trkpt>
      <trkpt lat="42.8346" lon="-0.44645">
        <ele>1979.4</ele>
        <time>2021-08-10 12:04:58</time>
      </trkpt>
      <trkpt lat="42.8346" lon="-0.44645">
        <ele>1979.2</ele>
        <time>2021-08-10 12:04:59</time>
      </trkpt>
      <trkpt lat="42.83461" lon="-0.44645">
        <ele>1979.4</ele>
        <time>2021-08-10 12:05:06</time>
      </trkpt>
      <trkpt lat="42.83462" lon="-0.44645">
        <ele>1979.6</ele>
        <time>2021-08-10 12:05:08</time>
      </trkpt>
      <trkpt lat="42.83462" lon="-0.44645">
        <ele>1979.6</ele>
        <time>2021-08-10 12:05:09</time>
      </trkpt>
      <trkpt lat="42.83463" lon="-0.44645">
        <ele>1979.8</ele>
        <time>2021-08-10 12:05:10</time>
      </trkpt>
      <trkpt lat="42.83463" lon="-0.44645">
        <ele>1979.8</ele>
        <time>2021-08-10 12:05:11</time>
      </trkpt>
      <trkpt lat="42.83464" lon="-0.44644">
        <ele>1979.8</ele>
        <time>2021-08-10 12:05:21</time>
      </trkpt>
      <trkpt lat="42.83465" lon="-0.44644">
        <ele>1980</ele>
        <time>2021-08-10 12:05:22</time>
      </trkpt>
      <trkpt lat="42.83466" lon="-0.44644">
        <ele>1980</ele>
        <time>2021-08-10 12:05:23</time>
      </trkpt>
      <trkpt lat="42.83466" lon="-0.44644">
        <ele>1980</ele>
        <time>2021-08-10 12:05:27</time>
      </trkpt>
      <trkpt lat="42.83467" lon="-0.44643">
        <ele>1980</ele>
      </trkpt>
      <trkpt lat="42.83468" lon="-0.44643">
        <ele>1980</ele>
        <time>2021-08-10 12:05:28</time>
      </trkpt>
      <trkpt lat="42.83468" lon="-0.44643">
        <ele>1979.8</ele>
        <time>2021-08-10 12:05:30</time>
      </trkpt>
      <trkpt lat="42.83469" lon="-0.44642">
        <ele>1980.2</ele>
      </trkpt>
      <trkpt lat="42.8347" lon="-0.44642">
        <ele>1980.2</ele>
        <time>2021-08-10 12:05:31</time>
      </trkpt>
      <trkpt lat="42.83471" lon="-0.44641">
        <ele>1980.4</ele>
        <time>2021-08-10 12:05:32</time>
      </trkpt>
      <trkpt lat="42.83471" lon="-0.44641">
        <ele>1980.4</ele>
        <time>2021-08-10 12:05:33</time>
      </trkpt>
      <trkpt lat="42.83471" lon="-0.44641">
        <ele>1980.6</ele>
        <time>2021-08-10 12:05:34</time>
      </trkpt>
      <trkpt lat="42.83472" lon="-0.4464">
        <ele>1980.8</ele>
        <time>2021-08-10 12:05:35</time>
      </trkpt>
      <trkpt lat="42.83472" lon="-0.4464">
        <ele>1981</ele>
        <time>2021-08-10 12:05:36</time>
      </trkpt>
      <trkpt lat="42.83473" lon="-0.4464">
        <ele>1981</ele>
        <time>2021-08-10 12:05:37</time>
      </trkpt>
      <trkpt lat="42.83473" lon="-0.4464">
        <ele>1981</ele>
        <time>2021-08-10 12:05:44</time>
      </trkpt>
      <trkpt lat="42.83475" lon="-0.4464">
        <ele>1981</ele>
        <time>2021-08-10 12:05:45</time>
      </trkpt>
      <trkpt lat="42.83475" lon="-0.44639">
        <ele>1981</ele>
        <time>2021-08-10 12:05:46</time>
      </trkpt>
      <trkpt lat="42.83476" lon="-0.44639">
        <ele>1981</ele>
        <time>2021-08-10 12:05:50</time>
      </trkpt>
      <trkpt lat="42.83477" lon="-0.44638">
        <ele>1981</ele>
        <time>2021-08-10 12:05:51</time>
      </trkpt>
      <trkpt lat="42.83478" lon="-0.44638">
        <ele>1981</ele>
        <time>2021-08-10 12:05:52</time>
      </trkpt>
      <trkpt lat="42.83478" lon="-0.44637">
        <ele>1981</ele>
        <time>2021-08-10 12:05:53</time>
      </trkpt>
      <trkpt lat="42.83478" lon="-0.44637">
        <ele>1981</ele>
        <time>2021-08-10 12:05:54</time>
      </trkpt>
      <trkpt lat="42.83479" lon="-0.44637">
        <ele>1981</ele>
        <time>2021-08-10 12:05:55</time>
      </trkpt>
      <trkpt lat="42.8348" lon="-0.44636">
        <ele>1981.2</ele>
        <time>2021-08-10 12:05:56</time>
      </trkpt>
      <trkpt lat="42.8348" lon="-0.44636">
        <ele>1981.2</ele>
        <time>2021-08-10 12:06:13</time>
      </trkpt>
      <trkpt lat="42.8348" lon="-0.44635">
        <ele>1980.8</ele>
        <time>2021-08-10 12:06:14</time>
      </trkpt>
      <trkpt lat="42.83481" lon="-0.44635">
        <ele>1981.4</ele>
        <time>2021-08-10 12:06:15</time>
      </trkpt>
      <trkpt lat="42.83481" lon="-0.44635">
        <ele>1981.4</ele>
        <time>2021-08-10 12:06:16</time>
      </trkpt>
      <trkpt lat="42.83482" lon="-0.44635">
        <ele>1981.6</ele>
        <time>2021-08-10 12:06:17</time>
      </trkpt>
      <trkpt lat="42.83482" lon="-0.44634">
        <ele>1981.4</ele>
        <time>2021-08-10 12:06:18</time>
      </trkpt>
      <trkpt lat="42.83483" lon="-0.44633">
        <ele>1981.6</ele>
        <time>2021-08-10 12:06:19</time>
      </trkpt>
      <trkpt lat="42.83484" lon="-0.44632">
        <ele>1981.4</ele>
        <time>2021-08-10 12:06:20</time>
      </trkpt>
      <trkpt lat="42.83484" lon="-0.44632">
        <ele>1981.6</ele>
        <time>2021-08-10 12:06:21</time>
      </trkpt>
      <trkpt lat="42.83485" lon="-0.44631">
        <ele>1982</ele>
        <time>2021-08-10 12:06:22</time>
      </trkpt>
      <trkpt lat="42.83485" lon="-0.44631">
        <ele>1982</ele>
        <time>2021-08-10 12:06:23</time>
      </trkpt>
      <trkpt lat="42.83486" lon="-0.4463">
        <ele>1982</ele>
        <time>2021-08-10 12:06:24</time>
      </trkpt>
      <trkpt lat="42.83487" lon="-0.4463">
        <ele>1982</ele>
        <time>2021-08-10 12:06:25</time>
      </trkpt>
      <trkpt lat="42.83487" lon="-0.44628">
        <ele>1982</ele>
        <time>2021-08-10 12:06:26</time>
      </trkpt>
      <trkpt lat="42.83488" lon="-0.44628">
        <ele>1982.4</ele>
        <time>2021-08-10 12:06:37</time>
      </trkpt>
      <trkpt lat="42.83488" lon="-0.44627">
        <ele>1982.4</ele>
        <time>2021-08-10 12:06:38</time>
      </trkpt>
      <trkpt lat="42.83489" lon="-0.44626">
        <ele>1982.8</ele>
        <time>2021-08-10 12:06:39</time>
      </trkpt>
      <trkpt lat="42.83489" lon="-0.44624">
        <ele>1982.6</ele>
        <time>2021-08-10 12:06:45</time>
      </trkpt>
      <trkpt lat="42.8349" lon="-0.44624">
        <ele>1982.8</ele>
        <time>2021-08-10 12:06:46</time>
      </trkpt>
      <trkpt lat="42.8349" lon="-0.44623">
        <ele>1983</ele>
        <time>2021-08-10 12:06:47</time>
      </trkpt>
      <trkpt lat="42.83491" lon="-0.44622">
        <ele>1983</ele>
        <time>2021-08-10 12:06:48</time>
      </trkpt>
      <trkpt lat="42.83491" lon="-0.44621">
        <ele>1983.2</ele>
        <time>2021-08-10 12:06:49</time>
      </trkpt>
      <trkpt lat="42.83491" lon="-0.4462">
        <ele>1983.2</ele>
        <time>2021-08-10 12:06:50</time>
      </trkpt>
      <trkpt lat="42.83492" lon="-0.4462">
        <ele>1983.4</ele>
        <time>2021-08-10 12:06:51</time>
      </trkpt>
      <trkpt lat="42.83493" lon="-0.44619">
        <ele>1983.6</ele>
        <time>2021-08-10 12:06:52</time>
      </trkpt>
      <trkpt lat="42.83493" lon="-0.44619">
        <ele>1983.6</ele>
        <time>2021-08-10 12:06:53</time>
      </trkpt>
      <trkpt lat="42.83494" lon="-0.44619">
        <ele>1983.8</ele>
        <time>2021-08-10 12:06:54</time>
      </trkpt>
      <trkpt lat="42.83494" lon="-0.44618">
        <ele>1984</ele>
        <time>2021-08-10 12:06:57</time>
      </trkpt>
      <trkpt lat="42.83495" lon="-0.44617">
        <ele>1984</ele>
        <time>2021-08-10 12:06:58</time>
      </trkpt>
      <trkpt lat="42.83495" lon="-0.44616">
        <ele>1984</ele>
        <time>2021-08-10 12:06:59</time>
      </trkpt>
      <trkpt lat="42.83496" lon="-0.44615">
        <ele>1984.2</ele>
        <time>2021-08-10 12:07:00</time>
      </trkpt>
      <trkpt lat="42.83496" lon="-0.44614">
        <ele>1984.4</ele>
        <time>2021-08-10 12:07:01</time>
      </trkpt>
      <trkpt lat="42.83496" lon="-0.44613">
        <ele>1984.6</ele>
        <time>2021-08-10 12:07:02</time>
      </trkpt>
      <trkpt lat="42.83497" lon="-0.44612">
        <ele>1984.8</ele>
        <time>2021-08-10 12:07:03</time>
      </trkpt>
      <trkpt lat="42.83497" lon="-0.44611">
        <ele>1985</ele>
        <time>2021-08-10 12:07:04</time>
      </trkpt>
      <trkpt lat="42.83497" lon="-0.44609">
        <ele>1985</ele>
        <time>2021-08-10 12:07:12</time>
      </trkpt>
      <trkpt lat="42.83498" lon="-0.44608">
        <ele>1985.2</ele>
        <time>2021-08-10 12:07:13</time>
      </trkpt>
      <trkpt lat="42.83498" lon="-0.44608">
        <ele>1985.4</ele>
        <time>2021-08-10 12:07:14</time>
      </trkpt>
      <trkpt lat="42.83499" lon="-0.44608">
        <ele>1984.8</ele>
        <time>2021-08-10 12:07:24</time>
      </trkpt>
      <trkpt lat="42.83499" lon="-0.44607">
        <ele>1985.2</ele>
        <time>2021-08-10 12:07:25</time>
      </trkpt>
      <trkpt lat="42.83499" lon="-0.44607">
        <ele>1985</ele>
        <time>2021-08-10 12:07:26</time>
      </trkpt>
      <trkpt lat="42.835" lon="-0.44606">
        <ele>1986</ele>
        <time>2021-08-10 12:07:29</time>
      </trkpt>
      <trkpt lat="42.835" lon="-0.44605">
        <ele>1986.2</ele>
        <time>2021-08-10 12:07:30</time>
      </trkpt>
      <trkpt lat="42.835" lon="-0.44604">
        <ele>1986.2</ele>
        <time>2021-08-10 12:07:31</time>
      </trkpt>
      <trkpt lat="42.83501" lon="-0.44603">
        <ele>1986.4</ele>
        <time>2021-08-10 12:07:32</time>
      </trkpt>
      <trkpt lat="42.83502" lon="-0.44602">
        <ele>1986.6</ele>
        <time>2021-08-10 12:07:33</time>
      </trkpt>
      <trkpt lat="42.83502" lon="-0.44601">
        <ele>1986.8</ele>
        <time>2021-08-10 12:07:34</time>
      </trkpt>
      <trkpt lat="42.83502" lon="-0.446">
        <ele>1986.8</ele>
        <time>2021-08-10 12:07:40</time>
      </trkpt>
      <trkpt lat="42.83503" lon="-0.446">
        <ele>1986.4</ele>
        <time>2021-08-10 12:07:41</time>
      </trkpt>
      <trkpt lat="42.83503" lon="-0.446">
        <ele>1986.6</ele>
        <time>2021-08-10 12:07:42</time>
      </trkpt>
      <trkpt lat="42.83503" lon="-0.446">
        <ele>1987.2</ele>
        <time>2021-08-10 12:07:43</time>
      </trkpt>
      <trkpt lat="42.83504" lon="-0.44599">
        <ele>1987.8</ele>
        <time>2021-08-10 12:07:44</time>
      </trkpt>
      <trkpt lat="42.83504" lon="-0.44598">
        <ele>1988</ele>
        <time>2021-08-10 12:07:45</time>
      </trkpt>
      <trkpt lat="42.83504" lon="-0.44598">
        <ele>1988</ele>
        <time>2021-08-10 12:07:46</time>
      </trkpt>
      <trkpt lat="42.83503" lon="-0.44597">
        <ele>1988</ele>
        <time>2021-08-10 12:07:47</time>
      </trkpt>
      <trkpt lat="42.83504" lon="-0.44596">
        <ele>1988.2</ele>
        <time>2021-08-10 12:07:48</time>
      </trkpt>
      <trkpt lat="42.83503" lon="-0.44595">
        <ele>1988.2</ele>
        <time>2021-08-10 12:07:49</time>
      </trkpt>
      <trkpt lat="42.83503" lon="-0.44596">
        <ele>1988.2</ele>
        <time>2021-08-10 12:07:50</time>
      </trkpt>
      <trkpt lat="42.83503" lon="-0.44595">
        <ele>1988.2</ele>
        <time>2021-08-10 12:07:51</time>
      </trkpt>
      <trkpt lat="42.83502" lon="-0.44595">
        <ele>1988</ele>
        <time>2021-08-10 12:07:52</time>
      </trkpt>
      <trkpt lat="42.83502" lon="-0.44595">
        <ele>1988</ele>
        <time>2021-08-10 12:07:53</time>
      </trkpt>
      <trkpt lat="42.83501" lon="-0.44595">
        <ele>1988.6</ele>
        <time>2021-08-10 12:07:54</time>
      </trkpt>
      <trkpt lat="42.83501" lon="-0.44595">
        <ele>1988</ele>
        <time>2021-08-10 12:07:55</time>
      </trkpt>
      <trkpt lat="42.83501" lon="-0.44595">
        <ele>1989</ele>
        <time>2021-08-10 12:07:56</time>
      </trkpt>
      <trkpt lat="42.835" lon="-0.44595">
        <ele>1989</ele>
        <time>2021-08-10 12:07:57</time>
      </trkpt>
      <trkpt lat="42.83499" lon="-0.44596">
        <ele>1989</ele>
        <time>2021-08-10 12:07:58</time>
      </trkpt>
      <trkpt lat="42.83498" lon="-0.44597">
        <ele>1989.6</ele>
        <time>2021-08-10 12:07:59</time>
      </trkpt>
      <trkpt lat="42.83497" lon="-0.44597">
        <ele>1989.6</ele>
        <time>2021-08-10 12:08:00</time>
      </trkpt>
      <trkpt lat="42.83497" lon="-0.44597">
        <ele>1989.6</ele>
        <time>2021-08-10 12:08:01</time>
      </trkpt>
      <trkpt lat="42.83497" lon="-0.44597">
        <ele>1989.8</ele>
        <time>2021-08-10 12:08:02</time>
      </trkpt>
      <trkpt lat="42.83497" lon="-0.44597">
        <ele>1989.8</ele>
        <time>2021-08-10 12:08:03</time>
      </trkpt>
      <trkpt lat="42.83496" lon="-0.44598">
        <ele>1990</ele>
        <time>2021-08-10 12:08:04</time>
      </trkpt>
      <trkpt lat="42.83496" lon="-0.44597">
        <ele>1990.4</ele>
        <time>2021-08-10 12:08:05</time>
      </trkpt>
      <trkpt lat="42.83495" lon="-0.44597">
        <ele>1990.4</ele>
        <time>2021-08-10 12:08:06</time>
      </trkpt>
      <trkpt lat="42.83496" lon="-0.44597">
        <ele>1990.2</ele>
        <time>2021-08-10 12:08:07</time>
      </trkpt>
      <trkpt lat="42.83494" lon="-0.44597">
        <ele>1990.4</ele>
        <time>2021-08-10 12:08:08</time>
      </trkpt>
      <trkpt lat="42.83494" lon="-0.44597">
        <ele>1990.6</ele>
        <time>2021-08-10 12:08:09</time>
      </trkpt>
      <trkpt lat="42.83493" lon="-0.44597">
        <ele>1990.8</ele>
        <time>2021-08-10 12:08:10</time>
      </trkpt>
      <trkpt lat="42.83493" lon="-0.44598">
        <ele>1990.8</ele>
        <time>2021-08-10 12:08:11</time>
      </trkpt>
      <trkpt lat="42.83493" lon="-0.44598">
        <ele>1991</ele>
        <time>2021-08-10 12:08:12</time>
      </trkpt>
      <trkpt lat="42.83493" lon="-0.44598">
        <ele>1991.4</ele>
        <time>2021-08-10 12:08:13</time>
      </trkpt>
      <trkpt lat="42.83492" lon="-0.44598">
        <ele>1991.6</ele>
        <time>2021-08-10 12:08:14</time>
      </trkpt>
      <trkpt lat="42.83491" lon="-0.44598">
        <ele>1991.4</ele>
        <time>2021-08-10 12:08:15</time>
      </trkpt>
      <trkpt lat="42.83491" lon="-0.44598">
        <ele>1991.8</ele>
        <time>2021-08-10 12:08:16</time>
      </trkpt>
      <trkpt lat="42.83491" lon="-0.44598">
        <ele>1992.6</ele>
        <time>2021-08-10 12:08:17</time>
      </trkpt>
      <trkpt lat="42.8349" lon="-0.44598">
        <ele>1992.2</ele>
        <time>2021-08-10 12:08:18</time>
      </trkpt>
      <trkpt lat="42.83489" lon="-0.44598">
        <ele>1992.2</ele>
        <time>2021-08-10 12:08:19</time>
      </trkpt>
      <trkpt lat="42.83489" lon="-0.44598">
        <ele>1992.2</ele>
        <time>2021-08-10 12:08:20</time>
      </trkpt>
      <trkpt lat="42.83489" lon="-0.44598">
        <ele>1992.4</ele>
        <time>2021-08-10 12:08:21</time>
      </trkpt>
      <trkpt lat="42.83489" lon="-0.44598">
        <ele>1992.6</ele>
        <time>2021-08-10 12:08:22</time>
      </trkpt>
      <trkpt lat="42.83488" lon="-0.44598">
        <ele>1992.4</ele>
        <time>2021-08-10 12:08:23</time>
      </trkpt>
      <trkpt lat="42.83488" lon="-0.44598">
        <ele>1992.6</ele>
        <time>2021-08-10 12:08:24</time>
      </trkpt>
      <trkpt lat="42.83488" lon="-0.44598">
        <ele>1992.6</ele>
        <time>2021-08-10 12:08:25</time>
      </trkpt>
      <trkpt lat="42.83488" lon="-0.44597">
        <ele>1992.8</ele>
        <time>2021-08-10 12:08:26</time>
      </trkpt>
      <trkpt lat="42.83487" lon="-0.44596">
        <ele>1993</ele>
        <time>2021-08-10 12:08:27</time>
      </trkpt>
      <trkpt lat="42.83487" lon="-0.44596">
        <ele>1993.4</ele>
        <time>2021-08-10 12:08:28</time>
      </trkpt>
      <trkpt lat="42.83487" lon="-0.44595">
        <ele>1993.8</ele>
        <time>2021-08-10 12:08:29</time>
      </trkpt>
      <trkpt lat="42.83486" lon="-0.44595">
        <ele>1993.8</ele>
        <time>2021-08-10 12:08:30</time>
      </trkpt>
      <trkpt lat="42.83485" lon="-0.44595">
        <ele>1994</ele>
        <time>2021-08-10 12:08:31</time>
      </trkpt>
      <trkpt lat="42.83484" lon="-0.44595">
        <ele>1994.2</ele>
        <time>2021-08-10 12:08:32</time>
      </trkpt>
      <trkpt lat="42.83482" lon="-0.44594">
        <ele>1994.4</ele>
        <time>2021-08-10 12:08:33</time>
      </trkpt>
      <trkpt lat="42.83482" lon="-0.44594">
        <ele>1994.6</ele>
        <time>2021-08-10 12:08:34</time>
      </trkpt>
      <trkpt lat="42.83481" lon="-0.44594">
        <ele>1994.8</ele>
        <time>2021-08-10 12:08:35</time>
      </trkpt>
      <trkpt lat="42.8348" lon="-0.44594">
        <ele>1994.8</ele>
        <time>2021-08-10 12:08:36</time>
      </trkpt>
      <trkpt lat="42.83479" lon="-0.44594">
        <ele>1995.2</ele>
        <time>2021-08-10 12:08:37</time>
      </trkpt>
      <trkpt lat="42.83478" lon="-0.44593">
        <ele>1995.2</ele>
        <time>2021-08-10 12:08:38</time>
      </trkpt>
      <trkpt lat="42.83477" lon="-0.44593">
        <ele>1995.4</ele>
        <time>2021-08-10 12:08:39</time>
      </trkpt>
      <trkpt lat="42.83476" lon="-0.44593">
        <ele>1995.6</ele>
        <time>2021-08-10 12:08:40</time>
      </trkpt>
      <trkpt lat="42.83475" lon="-0.44592">
        <ele>1995.4</ele>
        <time>2021-08-10 12:08:41</time>
      </trkpt>
      <trkpt lat="42.83475" lon="-0.44592">
        <ele>1995.8</ele>
        <time>2021-08-10 12:08:42</time>
      </trkpt>
      <trkpt lat="42.83474" lon="-0.44591">
        <ele>1995.8</ele>
        <time>2021-08-10 12:08:43</time>
      </trkpt>
      <trkpt lat="42.83474" lon="-0.44591">
        <ele>1996</ele>
        <time>2021-08-10 12:08:44</time>
      </trkpt>
      <trkpt lat="42.83473" lon="-0.4459">
        <ele>1996</ele>
        <time>2021-08-10 12:08:45</time>
      </trkpt>
      <trkpt lat="42.83473" lon="-0.4459">
        <ele>1996.2</ele>
        <time>2021-08-10 12:08:46</time>
      </trkpt>
      <trkpt lat="42.83472" lon="-0.4459">
        <ele>1996.4</ele>
        <time>2021-08-10 12:08:47</time>
      </trkpt>
      <trkpt lat="42.83476" lon="-0.44592">
        <ele>1996.6</ele>
        <time>2021-08-10 12:08:48</time>
      </trkpt>
      <trkpt lat="42.83476" lon="-0.44592">
        <ele>1996.6</ele>
        <time>2021-08-10 12:08:49</time>
      </trkpt>
      <trkpt lat="42.83476" lon="-0.44592">
        <ele>1996.4</ele>
        <time>2021-08-10 12:08:50</time>
      </trkpt>
      <trkpt lat="42.83475" lon="-0.44592">
        <ele>1996.4</ele>
        <time>2021-08-10 12:08:51</time>
      </trkpt>
      <trkpt lat="42.83475" lon="-0.44592">
        <ele>1996.6</ele>
        <time>2021-08-10 12:08:52</time>
      </trkpt>
      <trkpt lat="42.83476" lon="-0.44592">
        <ele>1996.4</ele>
        <time>2021-08-10 12:08:53</time>
      </trkpt>
      <trkpt lat="42.83476" lon="-0.44592">
        <ele>1996.4</ele>
        <time>2021-08-10 12:08:54</time>
      </trkpt>
      <trkpt lat="42.83476" lon="-0.44592">
        <ele>1996.6</ele>
        <time>2021-08-10 12:08:55</time>
      </trkpt>
      <trkpt lat="42.83478" lon="-0.44594">
        <ele>1996.8</ele>
        <time>2021-08-10 12:08:56</time>
      </trkpt>
      <trkpt lat="42.83477" lon="-0.44594">
        <ele>1996.8</ele>
        <time>2021-08-10 12:08:57</time>
      </trkpt>
      <trkpt lat="42.83476" lon="-0.44594">
        <ele>1997</ele>
        <time>2021-08-10 12:08:58</time>
      </trkpt>
      <trkpt lat="42.83474" lon="-0.44595">
        <ele>1997</ele>
        <time>2021-08-10 12:08:59</time>
      </trkpt>
      <trkpt lat="42.83472" lon="-0.44595">
        <ele>1997.2</ele>
        <time>2021-08-10 12:09:00</time>
      </trkpt>
      <trkpt lat="42.83471" lon="-0.44595">
        <ele>1997.2</ele>
        <time>2021-08-10 12:09:01</time>
      </trkpt>
      <trkpt lat="42.8347" lon="-0.44595">
        <ele>1997.2</ele>
        <time>2021-08-10 12:09:02</time>
      </trkpt>
      <trkpt lat="42.83469" lon="-0.44595">
        <ele>1997.4</ele>
        <time>2021-08-10 12:09:03</time>
      </trkpt>
      <trkpt lat="42.83468" lon="-0.44595">
        <ele>1997.6</ele>
        <time>2021-08-10 12:09:04</time>
      </trkpt>
      <trkpt lat="42.83467" lon="-0.44595">
        <ele>1997.8</ele>
        <time>2021-08-10 12:09:05</time>
      </trkpt>
      <trkpt lat="42.83466" lon="-0.44595">
        <ele>1998</ele>
        <time>2021-08-10 12:09:06</time>
      </trkpt>
      <trkpt lat="42.83466" lon="-0.44595">
        <ele>1998.2</ele>
        <time>2021-08-10 12:09:07</time>
      </trkpt>
      <trkpt lat="42.83465" lon="-0.44595">
        <ele>1998.2</ele>
        <time>2021-08-10 12:09:08</time>
      </trkpt>
      <trkpt lat="42.83465" lon="-0.44595">
        <ele>1998.4</ele>
        <time>2021-08-10 12:09:09</time>
      </trkpt>
      <trkpt lat="42.83465" lon="-0.44594">
        <ele>1998.4</ele>
        <time>2021-08-10 12:09:10</time>
      </trkpt>
      <trkpt lat="42.83465" lon="-0.44593">
        <ele>1998.6</ele>
        <time>2021-08-10 12:09:11</time>
      </trkpt>
      <trkpt lat="42.83464" lon="-0.44592">
        <ele>1998.8</ele>
        <time>2021-08-10 12:09:12</time>
      </trkpt>
      <trkpt lat="42.83464" lon="-0.44592">
        <ele>1998.8</ele>
        <time>2021-08-10 12:09:13</time>
      </trkpt>
      <trkpt lat="42.83464" lon="-0.44591">
        <ele>1999</ele>
        <time>2021-08-10 12:09:14</time>
      </trkpt>
      <trkpt lat="42.83464" lon="-0.4459">
        <ele>1999.2</ele>
        <time>2021-08-10 12:09:15</time>
      </trkpt>
      <trkpt lat="42.83463" lon="-0.44589">
        <ele>1999.4</ele>
        <time>2021-08-10 12:09:16</time>
      </trkpt>
      <trkpt lat="42.83463" lon="-0.44588">
        <ele>1999.4</ele>
        <time>2021-08-10 12:09:17</time>
      </trkpt>
      <trkpt lat="42.83463" lon="-0.44587">
        <ele>1999.4</ele>
        <time>2021-08-10 12:09:18</time>
      </trkpt>
      <trkpt lat="42.83463" lon="-0.44587">
        <ele>1999.6</ele>
        <time>2021-08-10 12:09:19</time>
      </trkpt>
      <trkpt lat="42.83463" lon="-0.44586">
        <ele>1999.6</ele>
        <time>2021-08-10 12:09:20</time>
      </trkpt>
      <trkpt lat="42.83462" lon="-0.44586">
        <ele>1999.8</ele>
        <time>2021-08-10 12:09:21</time>
      </trkpt>
      <trkpt lat="42.83462" lon="-0.44586">
        <ele>1999.8</ele>
        <time>2021-08-10 12:09:22</time>
      </trkpt>
      <trkpt lat="42.83461" lon="-0.44586">
        <ele>2000</ele>
        <time>2021-08-10 12:09:23</time>
      </trkpt>
      <trkpt lat="42.83461" lon="-0.44585">
        <ele>2000</ele>
        <time>2021-08-10 12:09:24</time>
      </trkpt>
      <trkpt lat="42.8346" lon="-0.44585">
        <ele>2000</ele>
        <time>2021-08-10 12:09:25</time>
      </trkpt>
      <trkpt lat="42.83459" lon="-0.44585">
        <ele>2000</ele>
        <time>2021-08-10 12:09:26</time>
      </trkpt>
      <trkpt lat="42.83459" lon="-0.44585">
        <ele>2000.2</ele>
        <time>2021-08-10 12:09:27</time>
      </trkpt>
      <trkpt lat="42.83458" lon="-0.44584">
        <ele>2000.4</ele>
        <time>2021-08-10 12:09:28</time>
      </trkpt>
      <trkpt lat="42.83458" lon="-0.44584">
        <ele>2000.4</ele>
        <time>2021-08-10 12:09:29</time>
      </trkpt>
      <trkpt lat="42.83457" lon="-0.44584">
        <ele>2000.4</ele>
        <time>2021-08-10 12:09:30</time>
      </trkpt>
      <trkpt lat="42.83457" lon="-0.44583">
        <ele>2000.6</ele>
        <time>2021-08-10 12:09:31</time>
      </trkpt>
      <trkpt lat="42.83456" lon="-0.44583">
        <ele>2000.6</ele>
        <time>2021-08-10 12:09:32</time>
      </trkpt>
      <trkpt lat="42.83457" lon="-0.44583">
        <ele>2000.8</ele>
        <time>2021-08-10 12:09:33</time>
      </trkpt>
      <trkpt lat="42.83456" lon="-0.44583">
        <ele>2001</ele>
        <time>2021-08-10 12:09:34</time>
      </trkpt>
      <trkpt lat="42.83456" lon="-0.44583">
        <ele>2001</ele>
        <time>2021-08-10 12:09:35</time>
      </trkpt>
      <trkpt lat="42.83456" lon="-0.44582">
        <ele>2001.2</ele>
        <time>2021-08-10 12:09:36</time>
      </trkpt>
      <trkpt lat="42.83455" lon="-0.44582">
        <ele>2001.2</ele>
        <time>2021-08-10 12:09:37</time>
      </trkpt>
      <trkpt lat="42.83455" lon="-0.44582">
        <ele>2001.4</ele>
        <time>2021-08-10 12:09:38</time>
      </trkpt>
      <trkpt lat="42.83455" lon="-0.44582">
        <ele>2001.8</ele>
        <time>2021-08-10 12:09:39</time>
      </trkpt>
      <trkpt lat="42.83454" lon="-0.44581">
        <ele>2002.8</ele>
        <time>2021-08-10 12:09:40</time>
      </trkpt>
      <trkpt lat="42.83455" lon="-0.44581">
        <ele>2002.4</ele>
        <time>2021-08-10 12:09:41</time>
      </trkpt>
      <trkpt lat="42.83454" lon="-0.44581">
        <ele>2002.8</ele>
        <time>2021-08-10 12:09:42</time>
      </trkpt>
      <trkpt lat="42.83454" lon="-0.4458">
        <ele>2002.6</ele>
        <time>2021-08-10 12:09:43</time>
      </trkpt>
      <trkpt lat="42.83454" lon="-0.44579">
        <ele>2003.2</ele>
        <time>2021-08-10 12:09:44</time>
      </trkpt>
      <trkpt lat="42.83453" lon="-0.44579">
        <ele>2003</ele>
        <time>2021-08-10 12:09:45</time>
      </trkpt>
      <trkpt lat="42.83453" lon="-0.44579">
        <ele>2003</ele>
        <time>2021-08-10 12:09:46</time>
      </trkpt>
      <trkpt lat="42.83453" lon="-0.44579">
        <ele>2003.2</ele>
        <time>2021-08-10 12:09:47</time>
      </trkpt>
      <trkpt lat="42.83453" lon="-0.44579">
        <ele>2003.2</ele>
        <time>2021-08-10 12:09:48</time>
      </trkpt>
      <trkpt lat="42.83452" lon="-0.44578">
        <ele>2003.4</ele>
        <time>2021-08-10 12:09:49</time>
      </trkpt>
      <trkpt lat="42.83452" lon="-0.44578">
        <ele>2003.8</ele>
        <time>2021-08-10 12:09:50</time>
      </trkpt>
      <trkpt lat="42.83451" lon="-0.44578">
        <ele>2003.6</ele>
        <time>2021-08-10 12:09:51</time>
      </trkpt>
      <trkpt lat="42.83451" lon="-0.44578">
        <ele>2003.8</ele>
        <time>2021-08-10 12:09:52</time>
      </trkpt>
      <trkpt lat="42.83451" lon="-0.44578">
        <ele>2004</ele>
        <time>2021-08-10 12:09:53</time>
      </trkpt>
      <trkpt lat="42.83451" lon="-0.44578">
        <ele>2004</ele>
        <time>2021-08-10 12:09:54</time>
      </trkpt>
      <trkpt lat="42.8345" lon="-0.44578">
        <ele>2004</ele>
        <time>2021-08-10 12:09:55</time>
      </trkpt>
      <trkpt lat="42.8345" lon="-0.44578">
        <ele>2004.2</ele>
        <time>2021-08-10 12:09:56</time>
      </trkpt>
      <trkpt lat="42.8345" lon="-0.44578">
        <ele>2004.4</ele>
        <time>2021-08-10 12:09:57</time>
      </trkpt>
      <trkpt lat="42.83449" lon="-0.44578">
        <ele>2004.4</ele>
        <time>2021-08-10 12:09:58</time>
      </trkpt>
      <trkpt lat="42.83449" lon="-0.44577">
        <ele>2004.4</ele>
        <time>2021-08-10 12:09:59</time>
      </trkpt>
      <trkpt lat="42.83449" lon="-0.44577">
        <ele>2004.4</ele>
      </trkpt>
      <trkpt lat="42.83449" lon="-0.44576">
        <ele>2004.6</ele>
        <time>2021-08-10 12:10:01</time>
      </trkpt>
      <trkpt lat="42.83449" lon="-0.44576">
        <ele>2005</ele>
        <time>2021-08-10 12:10:02</time>
      </trkpt>
      <trkpt lat="42.83449" lon="-0.44575">
        <ele>2005.2</ele>
        <time>2021-08-10 12:10:03</time>
      </trkpt>
      <trkpt lat="42.83448" lon="-0.44575">
        <ele>2005.2</ele>
        <time>2021-08-10 12:10:04</time>
      </trkpt>
      <trkpt lat="42.83448" lon="-0.44575">
        <ele>2005.2</ele>
        <time>2021-08-10 12:10:05</time>
      </trkpt>
      <trkpt lat="42.83448" lon="-0.44574">
        <ele>2005.4</ele>
        <time>2021-08-10 12:10:06</time>
      </trkpt>
      <trkpt lat="42.83447" lon="-0.44575">
        <ele>2005.6</ele>
        <time>2021-08-10 12:10:07</time>
      </trkpt>
      <trkpt lat="42.83447" lon="-0.44575">
        <ele>2005.8</ele>
        <time>2021-08-10 12:10:08</time>
      </trkpt>
      <trkpt lat="42.83447" lon="-0.44574">
        <ele>2006.2</ele>
        <time>2021-08-10 12:10:09</time>
      </trkpt>
      <trkpt lat="42.83447" lon="-0.44573">
        <ele>2006.2</ele>
        <time>2021-08-10 12:10:10</time>
      </trkpt>
      <trkpt lat="42.83446" lon="-0.44573">
        <ele>2005.8</ele>
        <time>2021-08-10 12:10:11</time>
      </trkpt>
      <trkpt lat="42.83446" lon="-0.44573">
        <ele>2006</ele>
        <time>2021-08-10 12:10:12</time>
      </trkpt>
      <trkpt lat="42.83447" lon="-0.44572">
        <ele>2006.4</ele>
        <time>2021-08-10 12:10:13</time>
      </trkpt>
      <trkpt lat="42.83447" lon="-0.44572">
        <ele>2006.8</ele>
        <time>2021-08-10 12:10:14</time>
      </trkpt>
      <trkpt lat="42.83446" lon="-0.44573">
        <ele>2006.8</ele>
        <time>2021-08-10 12:10:15</time>
      </trkpt>
      <trkpt lat="42.83447" lon="-0.44572">
        <ele>2006.6</ele>
        <time>2021-08-10 12:10:16</time>
      </trkpt>
      <trkpt lat="42.83448" lon="-0.44572">
        <ele>2006.6</ele>
        <time>2021-08-10 12:10:17</time>
      </trkpt>
      <trkpt lat="42.83447" lon="-0.44571">
        <ele>2006.6</ele>
        <time>2021-08-10 12:10:18</time>
      </trkpt>
      <trkpt lat="42.83447" lon="-0.44571">
        <ele>2006.6</ele>
        <time>2021-08-10 12:10:19</time>
      </trkpt>
      <trkpt lat="42.83446" lon="-0.4457">
        <ele>2006.4</ele>
        <time>2021-08-10 12:10:20</time>
      </trkpt>
      <trkpt lat="42.83446" lon="-0.44569">
        <ele>2006.4</ele>
        <time>2021-08-10 12:10:21</time>
      </trkpt>
      <trkpt lat="42.83446" lon="-0.44569">
        <ele>2006.6</ele>
        <time>2021-08-10 12:10:22</time>
      </trkpt>
      <trkpt lat="42.83446" lon="-0.44569">
        <ele>2006.6</ele>
      </trkpt>
      <trkpt lat="42.83444" lon="-0.44568">
        <ele>2006.4</ele>
        <time>2021-08-10 12:10:23</time>
      </trkpt>
      <trkpt lat="42.83444" lon="-0.44568">
        <ele>2006.6</ele>
        <time>2021-08-10 12:10:41</time>
      </trkpt>
      <trkpt lat="42.83444" lon="-0.44568">
        <ele>2006.6</ele>
        <time>2021-08-10 12:10:42</time>
      </trkpt>
      <trkpt lat="42.83444" lon="-0.44568">
        <ele>2006.8</ele>
        <time>2021-08-10 12:10:43</time>
      </trkpt>
      <trkpt lat="42.83445" lon="-0.44568">
        <ele>2007</ele>
        <time>2021-08-10 12:10:44</time>
      </trkpt>
      <trkpt lat="42.83444" lon="-0.44568">
        <ele>2007.2</ele>
        <time>2021-08-10 12:10:45</time>
      </trkpt>
      <trkpt lat="42.83444" lon="-0.44568">
        <ele>2007</ele>
        <time>2021-08-10 12:10:47</time>
      </trkpt>
      <trkpt lat="42.83443" lon="-0.44568">
        <ele>2007.4</ele>
      </trkpt>
      <trkpt lat="42.83442" lon="-0.44568">
        <ele>2007.6</ele>
        <time>2021-08-10 12:10:48</time>
      </trkpt>
      <trkpt lat="42.83441" lon="-0.44568">
        <ele>2007.8</ele>
        <time>2021-08-10 12:10:49</time>
      </trkpt>
      <trkpt lat="42.83441" lon="-0.44568">
        <ele>2008.2</ele>
        <time>2021-08-10 12:10:50</time>
      </trkpt>
      <trkpt lat="42.8344" lon="-0.44568">
        <ele>2008.2</ele>
        <time>2021-08-10 12:10:51</time>
      </trkpt>
      <trkpt lat="42.8344" lon="-0.44567">
        <ele>2008.4</ele>
        <time>2021-08-10 12:10:52</time>
      </trkpt>
      <trkpt lat="42.83439" lon="-0.44567">
        <ele>2008.4</ele>
        <time>2021-08-10 12:10:53</time>
      </trkpt>
      <trkpt lat="42.83439" lon="-0.44567">
        <ele>2008.6</ele>
        <time>2021-08-10 12:10:54</time>
      </trkpt>
      <trkpt lat="42.83439" lon="-0.44567">
        <ele>2008.6</ele>
        <time>2021-08-10 12:10:55</time>
      </trkpt>
      <trkpt lat="42.83438" lon="-0.44567">
        <ele>2008.8</ele>
        <time>2021-08-10 12:10:56</time>
      </trkpt>
      <trkpt lat="42.83438" lon="-0.44567">
        <ele>2009</ele>
        <time>2021-08-10 12:10:57</time>
      </trkpt>
      <trkpt lat="42.83437" lon="-0.44567">
        <ele>2009.2</ele>
        <time>2021-08-10 12:10:58</time>
      </trkpt>
      <trkpt lat="42.83437" lon="-0.44567">
        <ele>2009.4</ele>
        <time>2021-08-10 12:10:59</time>
      </trkpt>
      <trkpt lat="42.83436" lon="-0.44567">
        <ele>2009.6</ele>
        <time>2021-08-10 12:11:00</time>
      </trkpt>
      <trkpt lat="42.83436" lon="-0.44567">
        <ele>2009.6</ele>
        <time>2021-08-10 12:11:01</time>
      </trkpt>
      <trkpt lat="42.83436" lon="-0.44567">
        <ele>2009.8</ele>
        <time>2021-08-10 12:11:02</time>
      </trkpt>
      <trkpt lat="42.83436" lon="-0.44567">
        <ele>2009.8</ele>
        <time>2021-08-10 12:11:03</time>
      </trkpt>
      <trkpt lat="42.83435" lon="-0.44566">
        <ele>2010</ele>
        <time>2021-08-10 12:11:04</time>
      </trkpt>
      <trkpt lat="42.83435" lon="-0.44566">
        <ele>2010</ele>
        <time>2021-08-10 12:11:05</time>
      </trkpt>
      <trkpt lat="42.83434" lon="-0.44565">
        <ele>2010.2</ele>
        <time>2021-08-10 12:11:06</time>
      </trkpt>
      <trkpt lat="42.83434" lon="-0.44565">
        <ele>2010.4</ele>
        <time>2021-08-10 12:11:07</time>
      </trkpt>
      <trkpt lat="42.83433" lon="-0.44565">
        <ele>2010.6</ele>
        <time>2021-08-10 12:11:08</time>
      </trkpt>
      <trkpt lat="42.83433" lon="-0.44565">
        <ele>2010.6</ele>
        <time>2021-08-10 12:11:09</time>
      </trkpt>
      <trkpt lat="42.83432" lon="-0.44565">
        <ele>2011</ele>
        <time>2021-08-10 12:11:10</time>
      </trkpt>
      <trkpt lat="42.83432" lon="-0.44565">
        <ele>2011.2</ele>
        <time>2021-08-10 12:11:11</time>
      </trkpt>
      <trkpt lat="42.83432" lon="-0.44565">
        <ele>2011.4</ele>
        <time>2021-08-10 12:11:12</time>
      </trkpt>
      <trkpt lat="42.83431" lon="-0.44565">
        <ele>2011.6</ele>
        <time>2021-08-10 12:11:13</time>
      </trkpt>
      <trkpt lat="42.83431" lon="-0.44566">
        <ele>2011.2</ele>
        <time>2021-08-10 12:11:14</time>
      </trkpt>
      <trkpt lat="42.8343" lon="-0.44565">
        <ele>2011.6</ele>
        <time>2021-08-10 12:11:15</time>
      </trkpt>
      <trkpt lat="42.83431" lon="-0.44565">
        <ele>2011.4</ele>
        <time>2021-08-10 12:11:16</time>
      </trkpt>
      <trkpt lat="42.83431" lon="-0.44564">
        <ele>2011.6</ele>
        <time>2021-08-10 12:11:17</time>
      </trkpt>
      <trkpt lat="42.83432" lon="-0.44563">
        <ele>2012.2</ele>
        <time>2021-08-10 12:11:18</time>
      </trkpt>
      <trkpt lat="42.83433" lon="-0.44562">
        <ele>2012</ele>
        <time>2021-08-10 12:11:19</time>
      </trkpt>
      <trkpt lat="42.83433" lon="-0.44562">
        <ele>2012</ele>
        <time>2021-08-10 12:11:20</time>
      </trkpt>
      <trkpt lat="42.83433" lon="-0.44561">
        <ele>2012.4</ele>
        <time>2021-08-10 12:11:21</time>
      </trkpt>
      <trkpt lat="42.83433" lon="-0.44561">
        <ele>2012.4</ele>
        <time>2021-08-10 12:11:22</time>
      </trkpt>
      <trkpt lat="42.83434" lon="-0.44561">
        <ele>2012.4</ele>
        <time>2021-08-10 12:11:23</time>
      </trkpt>
      <trkpt lat="42.83434" lon="-0.4456">
        <ele>2012.6</ele>
        <time>2021-08-10 12:11:24</time>
      </trkpt>
      <trkpt lat="42.83434" lon="-0.4456">
        <ele>2012.8</ele>
        <time>2021-08-10 12:11:25</time>
      </trkpt>
      <trkpt lat="42.83434" lon="-0.44559">
        <ele>2013.2</ele>
        <time>2021-08-10 12:11:26</time>
      </trkpt>
      <trkpt lat="42.83434" lon="-0.44558">
        <ele>2013</ele>
        <time>2021-08-10 12:11:27</time>
      </trkpt>
      <trkpt lat="42.83434" lon="-0.44558">
        <ele>2013</ele>
        <time>2021-08-10 12:11:28</time>
      </trkpt>
      <trkpt lat="42.83433" lon="-0.44557">
        <ele>2013.2</ele>
        <time>2021-08-10 12:11:29</time>
      </trkpt>
      <trkpt lat="42.83432" lon="-0.44556">
        <ele>2013</ele>
        <time>2021-08-10 12:11:30</time>
      </trkpt>
      <trkpt lat="42.83432" lon="-0.44555">
        <ele>2013.2</ele>
        <time>2021-08-10 12:11:31</time>
      </trkpt>
      <trkpt lat="42.83431" lon="-0.44555">
        <ele>2013.4</ele>
        <time>2021-08-10 12:11:32</time>
      </trkpt>
      <trkpt lat="42.8343" lon="-0.44555">
        <ele>2013.6</ele>
        <time>2021-08-10 12:11:33</time>
      </trkpt>
      <trkpt lat="42.83429" lon="-0.44554">
        <ele>2013.8</ele>
        <time>2021-08-10 12:11:34</time>
      </trkpt>
      <trkpt lat="42.83429" lon="-0.44554">
        <ele>2014.2</ele>
        <time>2021-08-10 12:11:35</time>
      </trkpt>
      <trkpt lat="42.83428" lon="-0.44553">
        <ele>2014.2</ele>
        <time>2021-08-10 12:11:36</time>
      </trkpt>
      <trkpt lat="42.83428" lon="-0.44553">
        <ele>2014.4</ele>
        <time>2021-08-10 12:11:37</time>
      </trkpt>
      <trkpt lat="42.83428" lon="-0.44552">
        <ele>2014.6</ele>
        <time>2021-08-10 12:11:38</time>
      </trkpt>
      <trkpt lat="42.83427" lon="-0.44551">
        <ele>2014.6</ele>
        <time>2021-08-10 12:11:39</time>
      </trkpt>
      <trkpt lat="42.83427" lon="-0.44551">
        <ele>2014.6</ele>
        <time>2021-08-10 12:11:40</time>
      </trkpt>
      <trkpt lat="42.83426" lon="-0.4455">
        <ele>2014.6</ele>
        <time>2021-08-10 12:11:41</time>
      </trkpt>
      <trkpt lat="42.83426" lon="-0.44549">
        <ele>2015</ele>
        <time>2021-08-10 12:11:42</time>
      </trkpt>
      <trkpt lat="42.83425" lon="-0.44548">
        <ele>2015</ele>
        <time>2021-08-10 12:11:43</time>
      </trkpt>
      <trkpt lat="42.83425" lon="-0.44547">
        <ele>2015.6</ele>
        <time>2021-08-10 12:11:44</time>
      </trkpt>
      <trkpt lat="42.83425" lon="-0.44547">
        <ele>2015.2</ele>
        <time>2021-08-10 12:11:45</time>
      </trkpt>
      <trkpt lat="42.83424" lon="-0.44547">
        <ele>2015</ele>
        <time>2021-08-10 12:11:46</time>
      </trkpt>
      <trkpt lat="42.83424" lon="-0.44545">
        <ele>2015</ele>
        <time>2021-08-10 12:11:47</time>
      </trkpt>
      <trkpt lat="42.83423" lon="-0.44544">
        <ele>2015</ele>
        <time>2021-08-10 12:11:48</time>
      </trkpt>
      <trkpt lat="42.83423" lon="-0.44543">
        <ele>2015</ele>
        <time>2021-08-10 12:11:49</time>
      </trkpt>
      <trkpt lat="42.83423" lon="-0.44542">
        <ele>2015</ele>
        <time>2021-08-10 12:11:50</time>
      </trkpt>
      <trkpt lat="42.83422" lon="-0.44541">
        <ele>2015</ele>
        <time>2021-08-10 12:11:51</time>
      </trkpt>
      <trkpt lat="42.83422" lon="-0.4454">
        <ele>2014.8</ele>
        <time>2021-08-10 12:11:52</time>
      </trkpt>
      <trkpt lat="42.83421" lon="-0.44539">
        <ele>2014.8</ele>
        <time>2021-08-10 12:11:53</time>
      </trkpt>
      <trkpt lat="42.83422" lon="-0.44539">
        <ele>2014.6</ele>
        <time>2021-08-10 12:11:54</time>
      </trkpt>
      <trkpt lat="42.83422" lon="-0.44539">
        <ele>2014.6</ele>
        <time>2021-08-10 12:11:55</time>
      </trkpt>
      <trkpt lat="42.83421" lon="-0.44539">
        <ele>2014.6</ele>
        <time>2021-08-10 12:11:56</time>
      </trkpt>
      <trkpt lat="42.8342" lon="-0.44538">
        <ele>2014.6</ele>
        <time>2021-08-10 12:11:57</time>
      </trkpt>
      <trkpt lat="42.8342" lon="-0.44538">
        <ele>2014.6</ele>
        <time>2021-08-10 12:11:58</time>
      </trkpt>
      <trkpt lat="42.83419" lon="-0.44538">
        <ele>2014.2</ele>
        <time>2021-08-10 12:11:59</time>
      </trkpt>
      <trkpt lat="42.83418" lon="-0.44538">
        <ele>2014.6</ele>
        <time>2021-08-10 12:12:00</time>
      </trkpt>
      <trkpt lat="42.83417" lon="-0.44538">
        <ele>2014.4</ele>
        <time>2021-08-10 12:12:01</time>
      </trkpt>
      <trkpt lat="42.83416" lon="-0.44537">
        <ele>2014.6</ele>
        <time>2021-08-10 12:12:02</time>
      </trkpt>
      <trkpt lat="42.83416" lon="-0.44537">
        <ele>2014</ele>
        <time>2021-08-10 12:12:03</time>
      </trkpt>
      <trkpt lat="42.83416" lon="-0.44536">
        <ele>2014</ele>
        <time>2021-08-10 12:12:20</time>
      </trkpt>
      <trkpt lat="42.83415" lon="-0.44535">
        <ele>2014</ele>
        <time>2021-08-10 12:12:21</time>
      </trkpt>
      <trkpt lat="42.83415" lon="-0.44535">
        <ele>2014</ele>
        <time>2021-08-10 12:12:22</time>
      </trkpt>
      <trkpt lat="42.83414" lon="-0.44534">
        <ele>2013.8</ele>
        <time>2021-08-10 12:12:24</time>
      </trkpt>
      <trkpt lat="42.83413" lon="-0.44534">
        <ele>2013.6</ele>
        <time>2021-08-10 12:12:25</time>
      </trkpt>
      <trkpt lat="42.83413" lon="-0.44534">
        <ele>2013.4</ele>
        <time>2021-08-10 12:12:26</time>
      </trkpt>
      <trkpt lat="42.83412" lon="-0.44533">
        <ele>2013.4</ele>
        <time>2021-08-10 12:12:38</time>
      </trkpt>
      <trkpt lat="42.83411" lon="-0.44533">
        <ele>2013</ele>
        <time>2021-08-10 12:12:39</time>
      </trkpt>
      <trkpt lat="42.83411" lon="-0.44532">
        <ele>2012.8</ele>
        <time>2021-08-10 12:12:40</time>
      </trkpt>
      <trkpt lat="42.8341" lon="-0.44532">
        <ele>2012.6</ele>
        <time>2021-08-10 12:12:41</time>
      </trkpt>
      <trkpt lat="42.83409" lon="-0.44531">
        <ele>2012.6</ele>
        <time>2021-08-10 12:12:42</time>
      </trkpt>
      <trkpt lat="42.83408" lon="-0.44531">
        <ele>2012.6</ele>
        <time>2021-08-10 12:12:43</time>
      </trkpt>
      <trkpt lat="42.83407" lon="-0.44531">
        <ele>2013</ele>
        <time>2021-08-10 12:12:44</time>
      </trkpt>
      <trkpt lat="42.83406" lon="-0.44531">
        <ele>2013.2</ele>
        <time>2021-08-10 12:12:45</time>
      </trkpt>
      <trkpt lat="42.83405" lon="-0.44531">
        <ele>2012.6</ele>
        <time>2021-08-10 12:12:46</time>
      </trkpt>
      <trkpt lat="42.83404" lon="-0.4453">
        <ele>2012.8</ele>
        <time>2021-08-10 12:12:47</time>
      </trkpt>
      <trkpt lat="42.83403" lon="-0.4453">
        <ele>2012.4</ele>
        <time>2021-08-10 12:12:48</time>
      </trkpt>
      <trkpt lat="42.83402" lon="-0.4453">
        <ele>2012.6</ele>
        <time>2021-08-10 12:12:49</time>
      </trkpt>
      <trkpt lat="42.83401" lon="-0.4453">
        <ele>2012.8</ele>
        <time>2021-08-10 12:12:50</time>
      </trkpt>
      <trkpt lat="42.834" lon="-0.44529">
        <ele>2012.8</ele>
        <time>2021-08-10 12:12:51</time>
      </trkpt>
      <trkpt lat="42.83399" lon="-0.44528">
        <ele>2013</ele>
        <time>2021-08-10 12:12:52</time>
      </trkpt>
      <trkpt lat="42.83398" lon="-0.44528">
        <ele>2012.8</ele>
        <time>2021-08-10 12:12:53</time>
      </trkpt>
      <trkpt lat="42.83397" lon="-0.44527">
        <ele>2012.6</ele>
        <time>2021-08-10 12:12:54</time>
      </trkpt>
      <trkpt lat="42.83396" lon="-0.44527">
        <ele>2013</ele>
        <time>2021-08-10 12:12:55</time>
      </trkpt>
      <trkpt lat="42.83395" lon="-0.44527">
        <ele>2012.6</ele>
        <time>2021-08-10 12:12:56</time>
      </trkpt>
      <trkpt lat="42.83394" lon="-0.44527">
        <ele>2013.2</ele>
        <time>2021-08-10 12:12:57</time>
      </trkpt>
      <trkpt lat="42.83393" lon="-0.44527">
        <ele>2013.2</ele>
        <time>2021-08-10 12:12:58</time>
      </trkpt>
      <trkpt lat="42.83392" lon="-0.44527">
        <ele>2013.2</ele>
        <time>2021-08-10 12:12:59</time>
      </trkpt>
      <trkpt lat="42.83391" lon="-0.44527">
        <ele>2013.2</ele>
        <time>2021-08-10 12:13:00</time>
      </trkpt>
      <trkpt lat="42.8339" lon="-0.44526">
        <ele>2013.2</ele>
        <time>2021-08-10 12:13:01</time>
      </trkpt>
      <trkpt lat="42.83389" lon="-0.44526">
        <ele>2013.6</ele>
        <time>2021-08-10 12:13:02</time>
      </trkpt>
      <trkpt lat="42.83389" lon="-0.44526">
        <ele>2013.4</ele>
        <time>2021-08-10 12:13:03</time>
      </trkpt>
      <trkpt lat="42.83388" lon="-0.44525">
        <ele>2013.8</ele>
        <time>2021-08-10 12:13:04</time>
      </trkpt>
      <trkpt lat="42.83388" lon="-0.44524">
        <ele>2013.6</ele>
        <time>2021-08-10 12:13:05</time>
      </trkpt>
      <trkpt lat="42.83387" lon="-0.44524">
        <ele>2013.6</ele>
        <time>2021-08-10 12:13:06</time>
      </trkpt>
      <trkpt lat="42.83386" lon="-0.44523">
        <ele>2013.2</ele>
        <time>2021-08-10 12:13:07</time>
      </trkpt>
      <trkpt lat="42.83386" lon="-0.44523">
        <ele>2013.2</ele>
        <time>2021-08-10 12:13:08</time>
      </trkpt>
      <trkpt lat="42.83385" lon="-0.44521">
        <ele>2013.4</ele>
        <time>2021-08-10 12:13:09</time>
      </trkpt>
      <trkpt lat="42.83384" lon="-0.44521">
        <ele>2013.2</ele>
        <time>2021-08-10 12:13:10</time>
      </trkpt>
      <trkpt lat="42.83384" lon="-0.4452">
        <ele>2013.2</ele>
        <time>2021-08-10 12:13:11</time>
      </trkpt>
      <trkpt lat="42.83383" lon="-0.44518">
        <ele>2013.4</ele>
        <time>2021-08-10 12:13:12</time>
      </trkpt>
      <trkpt lat="42.83382" lon="-0.44517">
        <ele>2013.6</ele>
        <time>2021-08-10 12:13:13</time>
      </trkpt>
      <trkpt lat="42.83382" lon="-0.44516">
        <ele>2013.6</ele>
        <time>2021-08-10 12:13:14</time>
      </trkpt>
      <trkpt lat="42.83381" lon="-0.44515">
        <ele>2013.6</ele>
        <time>2021-08-10 12:13:15</time>
      </trkpt>
      <trkpt lat="42.8338" lon="-0.44515">
        <ele>2013.4</ele>
        <time>2021-08-10 12:13:18</time>
      </trkpt>
      <trkpt lat="42.83379" lon="-0.44514">
        <ele>2013.4</ele>
        <time>2021-08-10 12:13:19</time>
      </trkpt>
      <trkpt lat="42.83379" lon="-0.44513">
        <ele>2013.4</ele>
        <time>2021-08-10 12:13:20</time>
      </trkpt>
      <trkpt lat="42.83379" lon="-0.44512">
        <ele>2013.6</ele>
        <time>2021-08-10 12:13:21</time>
      </trkpt>
      <trkpt lat="42.83379" lon="-0.44511">
        <ele>2013.4</ele>
        <time>2021-08-10 12:13:22</time>
      </trkpt>
      <trkpt lat="42.83379" lon="-0.44509">
        <ele>2013.6</ele>
        <time>2021-08-10 12:13:23</time>
      </trkpt>
      <trkpt lat="42.8338" lon="-0.44508">
        <ele>2013.6</ele>
        <time>2021-08-10 12:13:24</time>
      </trkpt>
      <trkpt lat="42.8338" lon="-0.44508">
        <ele>2013.8</ele>
        <time>2021-08-10 12:13:25</time>
      </trkpt>
      <trkpt lat="42.83379" lon="-0.44506">
        <ele>2013.8</ele>
        <time>2021-08-10 12:13:26</time>
      </trkpt>
      <trkpt lat="42.83378" lon="-0.44505">
        <ele>2013.8</ele>
        <time>2021-08-10 12:13:27</time>
      </trkpt>
      <trkpt lat="42.83378" lon="-0.44504">
        <ele>2014</ele>
        <time>2021-08-10 12:13:28</time>
      </trkpt>
      <trkpt lat="42.83379" lon="-0.44503">
        <ele>2014</ele>
        <time>2021-08-10 12:13:29</time>
      </trkpt>
      <trkpt lat="42.83379" lon="-0.44502">
        <ele>2014</ele>
        <time>2021-08-10 12:13:30</time>
      </trkpt>
      <trkpt lat="42.83379" lon="-0.44501">
        <ele>2014</ele>
        <time>2021-08-10 12:13:31</time>
      </trkpt>
      <trkpt lat="42.83378" lon="-0.445">
        <ele>2014.4</ele>
        <time>2021-08-10 12:13:32</time>
      </trkpt>
      <trkpt lat="42.83378" lon="-0.44499">
        <ele>2014.4</ele>
        <time>2021-08-10 12:13:33</time>
      </trkpt>
      <trkpt lat="42.83378" lon="-0.44498">
        <ele>2015</ele>
        <time>2021-08-10 12:13:34</time>
      </trkpt>
      <trkpt lat="42.83377" lon="-0.44498">
        <ele>2015</ele>
        <time>2021-08-10 12:13:35</time>
      </trkpt>
      <trkpt lat="42.83376" lon="-0.44497">
        <ele>2015.2</ele>
        <time>2021-08-10 12:13:36</time>
      </trkpt>
      <trkpt lat="42.83376" lon="-0.44495">
        <ele>2015.2</ele>
        <time>2021-08-10 12:13:37</time>
      </trkpt>
      <trkpt lat="42.83375" lon="-0.44494">
        <ele>2015.4</ele>
        <time>2021-08-10 12:13:38</time>
      </trkpt>
      <trkpt lat="42.83375" lon="-0.44493">
        <ele>2015.4</ele>
        <time>2021-08-10 12:13:39</time>
      </trkpt>
      <trkpt lat="42.83374" lon="-0.44492">
        <ele>2015.6</ele>
        <time>2021-08-10 12:13:40</time>
      </trkpt>
      <trkpt lat="42.83374" lon="-0.44492">
        <ele>2015.8</ele>
        <time>2021-08-10 12:13:41</time>
      </trkpt>
      <trkpt lat="42.83374" lon="-0.44491">
        <ele>2016</ele>
        <time>2021-08-10 12:13:42</time>
      </trkpt>
      <trkpt lat="42.83373" lon="-0.4449">
        <ele>2016.2</ele>
        <time>2021-08-10 12:13:43</time>
      </trkpt>
      <trkpt lat="42.83372" lon="-0.4449">
        <ele>2016.4</ele>
        <time>2021-08-10 12:13:44</time>
      </trkpt>
      <trkpt lat="42.83371" lon="-0.44488">
        <ele>2016.6</ele>
        <time>2021-08-10 12:13:45</time>
      </trkpt>
      <trkpt lat="42.83371" lon="-0.44487">
        <ele>2016.8</ele>
        <time>2021-08-10 12:13:46</time>
      </trkpt>
      <trkpt lat="42.83371" lon="-0.44487">
        <ele>2017</ele>
        <time>2021-08-10 12:13:47</time>
      </trkpt>
      <trkpt lat="42.8337" lon="-0.44486">
        <ele>2017</ele>
        <time>2021-08-10 12:13:48</time>
      </trkpt>
      <trkpt lat="42.8337" lon="-0.44485">
        <ele>2017</ele>
        <time>2021-08-10 12:13:49</time>
      </trkpt>
      <trkpt lat="42.83369" lon="-0.44485">
        <ele>2017.6</ele>
        <time>2021-08-10 12:13:50</time>
      </trkpt>
      <trkpt lat="42.83369" lon="-0.44484">
        <ele>2017</ele>
        <time>2021-08-10 12:13:51</time>
      </trkpt>
      <trkpt lat="42.83368" lon="-0.44483">
        <ele>2017</ele>
        <time>2021-08-10 12:13:52</time>
      </trkpt>
      <trkpt lat="42.83368" lon="-0.44483">
        <ele>2017.2</ele>
        <time>2021-08-10 12:13:53</time>
      </trkpt>
      <trkpt lat="42.83368" lon="-0.44481">
        <ele>2017.8</ele>
        <time>2021-08-10 12:13:54</time>
      </trkpt>
      <trkpt lat="42.83367" lon="-0.44481">
        <ele>2017.8</ele>
        <time>2021-08-10 12:13:55</time>
      </trkpt>
      <trkpt lat="42.83366" lon="-0.4448">
        <ele>2018.2</ele>
        <time>2021-08-10 12:13:56</time>
      </trkpt>
      <trkpt lat="42.83366" lon="-0.4448">
        <ele>2018.2</ele>
        <time>2021-08-10 12:13:57</time>
      </trkpt>
      <trkpt lat="42.83365" lon="-0.44479">
        <ele>2018.4</ele>
        <time>2021-08-10 12:13:58</time>
      </trkpt>
      <trkpt lat="42.83365" lon="-0.44479">
        <ele>2018.6</ele>
        <time>2021-08-10 12:13:59</time>
      </trkpt>
      <trkpt lat="42.83364" lon="-0.44478">
        <ele>2018.8</ele>
        <time>2021-08-10 12:14:00</time>
      </trkpt>
      <trkpt lat="42.83364" lon="-0.44478">
        <ele>2019</ele>
        <time>2021-08-10 12:14:01</time>
      </trkpt>
      <trkpt lat="42.83364" lon="-0.44477">
        <ele>2019</ele>
        <time>2021-08-10 12:14:02</time>
      </trkpt>
      <trkpt lat="42.83365" lon="-0.44476">
        <ele>2019.2</ele>
        <time>2021-08-10 12:14:03</time>
      </trkpt>
      <trkpt lat="42.83366" lon="-0.44474">
        <ele>2019.4</ele>
        <time>2021-08-10 12:14:04</time>
      </trkpt>
      <trkpt lat="42.83366" lon="-0.44473">
        <ele>2019.4</ele>
        <time>2021-08-10 12:14:05</time>
      </trkpt>
      <trkpt lat="42.83366" lon="-0.44472">
        <ele>2019.6</ele>
        <time>2021-08-10 12:14:06</time>
      </trkpt>
      <trkpt lat="42.83367" lon="-0.4447">
        <ele>2019.4</ele>
        <time>2021-08-10 12:14:07</time>
      </trkpt>
      <trkpt lat="42.83367" lon="-0.4447">
        <ele>2019.4</ele>
        <time>2021-08-10 12:14:08</time>
      </trkpt>
      <trkpt lat="42.83367" lon="-0.44469">
        <ele>2019.4</ele>
        <time>2021-08-10 12:14:09</time>
      </trkpt>
      <trkpt lat="42.83368" lon="-0.44468">
        <ele>2019.2</ele>
        <time>2021-08-10 12:14:10</time>
      </trkpt>
      <trkpt lat="42.83368" lon="-0.44467">
        <ele>2019.4</ele>
        <time>2021-08-10 12:14:11</time>
      </trkpt>
      <trkpt lat="42.83368" lon="-0.44466">
        <ele>2019.4</ele>
        <time>2021-08-10 12:14:12</time>
      </trkpt>
      <trkpt lat="42.83369" lon="-0.44466">
        <ele>2019.4</ele>
        <time>2021-08-10 12:14:13</time>
      </trkpt>
      <trkpt lat="42.83369" lon="-0.44465">
        <ele>2019.2</ele>
        <time>2021-08-10 12:14:14</time>
      </trkpt>
      <trkpt lat="42.8337" lon="-0.44463">
        <ele>2019.6</ele>
        <time>2021-08-10 12:14:15</time>
      </trkpt>
      <trkpt lat="42.8337" lon="-0.44462">
        <ele>2019.6</ele>
        <time>2021-08-10 12:14:16</time>
      </trkpt>
      <trkpt lat="42.83371" lon="-0.44461">
        <ele>2019.6</ele>
        <time>2021-08-10 12:14:17</time>
      </trkpt>
      <trkpt lat="42.83371" lon="-0.4446">
        <ele>2019.4</ele>
        <time>2021-08-10 12:14:18</time>
      </trkpt>
      <trkpt lat="42.83372" lon="-0.4446">
        <ele>2020</ele>
        <time>2021-08-10 12:14:19</time>
      </trkpt>
      <trkpt lat="42.83373" lon="-0.44459">
        <ele>2020</ele>
        <time>2021-08-10 12:14:20</time>
      </trkpt>
      <trkpt lat="42.83374" lon="-0.44457">
        <ele>2020</ele>
        <time>2021-08-10 12:14:21</time>
      </trkpt>
      <trkpt lat="42.83375" lon="-0.44457">
        <ele>2019.8</ele>
        <time>2021-08-10 12:14:22</time>
      </trkpt>
      <trkpt lat="42.83376" lon="-0.44456">
        <ele>2020</ele>
        <time>2021-08-10 12:14:23</time>
      </trkpt>
      <trkpt lat="42.83376" lon="-0.44456">
        <ele>2020</ele>
        <time>2021-08-10 12:14:24</time>
      </trkpt>
      <trkpt lat="42.83376" lon="-0.44455">
        <ele>2020</ele>
        <time>2021-08-10 12:14:25</time>
      </trkpt>
      <trkpt lat="42.83377" lon="-0.44454">
        <ele>2019.8</ele>
        <time>2021-08-10 12:14:26</time>
      </trkpt>
      <trkpt lat="42.83377" lon="-0.44454">
        <ele>2019.8</ele>
        <time>2021-08-10 12:14:27</time>
      </trkpt>
      <trkpt lat="42.83377" lon="-0.44454">
        <ele>2019.8</ele>
        <time>2021-08-10 12:14:28</time>
      </trkpt>
      <trkpt lat="42.83377" lon="-0.44454">
        <ele>2019.8</ele>
        <time>2021-08-10 12:14:29</time>
      </trkpt>
      <trkpt lat="42.83377" lon="-0.44453">
        <ele>2020.2</ele>
        <time>2021-08-10 12:14:30</time>
      </trkpt>
      <trkpt lat="42.83377" lon="-0.44453">
        <ele>2020.2</ele>
        <time>2021-08-10 12:14:31</time>
      </trkpt>
      <trkpt lat="42.83377" lon="-0.44452">
        <ele>2020</ele>
        <time>2021-08-10 12:14:32</time>
      </trkpt>
      <trkpt lat="42.83377" lon="-0.44453">
        <ele>2020</ele>
        <time>2021-08-10 12:14:33</time>
      </trkpt>
      <trkpt lat="42.83377" lon="-0.44453">
        <ele>2019.8</ele>
        <time>2021-08-10 12:14:34</time>
      </trkpt>
      <trkpt lat="42.83375" lon="-0.44452">
        <ele>2020</ele>
        <time>2021-08-10 12:14:35</time>
      </trkpt>
      <trkpt lat="42.83375" lon="-0.44452">
        <ele>2020</ele>
        <time>2021-08-10 12:14:36</time>
      </trkpt>
      <trkpt lat="42.83375" lon="-0.44452">
        <ele>2020</ele>
        <time>2021-08-10 12:14:37</time>
      </trkpt>
      <trkpt lat="42.83374" lon="-0.4445">
        <ele>2020.2</ele>
        <time>2021-08-10 12:14:38</time>
      </trkpt>
      <trkpt lat="42.83374" lon="-0.44449">
        <ele>2020</ele>
        <time>2021-08-10 12:14:39</time>
      </trkpt>
      <trkpt lat="42.83374" lon="-0.44448">
        <ele>2020</ele>
        <time>2021-08-10 12:14:40</time>
      </trkpt>
      <trkpt lat="42.83374" lon="-0.44448">
        <ele>2019.8</ele>
        <time>2021-08-10 12:14:41</time>
      </trkpt>
      <trkpt lat="42.83377" lon="-0.44449">
        <ele>2019.8</ele>
        <time>2021-08-10 12:14:42</time>
      </trkpt>
      <trkpt lat="42.83376" lon="-0.44448">
        <ele>2019.8</ele>
        <time>2021-08-10 12:14:43</time>
      </trkpt>
      <trkpt lat="42.83377" lon="-0.44448">
        <ele>2019.8</ele>
        <time>2021-08-10 12:14:44</time>
      </trkpt>
      <trkpt lat="42.83378" lon="-0.44447">
        <ele>2019.8</ele>
        <time>2021-08-10 12:14:45</time>
      </trkpt>
      <trkpt lat="42.83379" lon="-0.44447">
        <ele>2019.8</ele>
        <time>2021-08-10 12:14:46</time>
      </trkpt>
      <trkpt lat="42.83379" lon="-0.44447">
        <ele>2019.8</ele>
        <time>2021-08-10 12:14:47</time>
      </trkpt>
      <trkpt lat="42.83378" lon="-0.44445">
        <ele>2019.6</ele>
        <time>2021-08-10 12:14:48</time>
      </trkpt>
      <trkpt lat="42.83378" lon="-0.44444">
        <ele>2019.6</ele>
        <time>2021-08-10 12:14:49</time>
      </trkpt>
      <trkpt lat="42.83377" lon="-0.44443">
        <ele>2019.8</ele>
        <time>2021-08-10 12:14:50</time>
      </trkpt>
      <trkpt lat="42.83377" lon="-0.44442">
        <ele>2019.8</ele>
        <time>2021-08-10 12:14:51</time>
      </trkpt>
      <trkpt lat="42.83376" lon="-0.44441">
        <ele>2019.6</ele>
        <time>2021-08-10 12:14:52</time>
      </trkpt>
      <trkpt lat="42.83375" lon="-0.4444">
        <ele>2019.6</ele>
        <time>2021-08-10 12:14:53</time>
      </trkpt>
      <trkpt lat="42.83375" lon="-0.44439">
        <ele>2019.6</ele>
        <time>2021-08-10 12:14:54</time>
      </trkpt>
      <trkpt lat="42.83375" lon="-0.44439">
        <ele>2019.6</ele>
        <time>2021-08-10 12:14:55</time>
      </trkpt>
      <trkpt lat="42.83374" lon="-0.44438">
        <ele>2019.6</ele>
        <time>2021-08-10 12:14:56</time>
      </trkpt>
      <trkpt lat="42.83373" lon="-0.44437">
        <ele>2019.6</ele>
        <time>2021-08-10 12:14:57</time>
      </trkpt>
      <trkpt lat="42.83374" lon="-0.44437">
        <ele>2019.6</ele>
        <time>2021-08-10 12:14:58</time>
      </trkpt>
      <trkpt lat="42.83374" lon="-0.44437">
        <ele>2019.6</ele>
        <time>2021-08-10 12:14:59</time>
      </trkpt>
      <trkpt lat="42.83373" lon="-0.44437">
        <ele>2019.4</ele>
        <time>2021-08-10 12:15:00</time>
      </trkpt>
      <trkpt lat="42.83371" lon="-0.44437">
        <ele>2019.4</ele>
        <time>2021-08-10 12:15:01</time>
      </trkpt>
      <trkpt lat="42.83371" lon="-0.44437">
        <ele>2019.6</ele>
        <time>2021-08-10 12:15:02</time>
      </trkpt>
      <trkpt lat="42.83371" lon="-0.44436">
        <ele>2019.6</ele>
        <time>2021-08-10 12:15:03</time>
      </trkpt>
      <trkpt lat="42.83372" lon="-0.44437">
        <ele>2019.6</ele>
        <time>2021-08-10 12:15:04</time>
      </trkpt>
      <trkpt lat="42.83372" lon="-0.44436">
        <ele>2019.6</ele>
        <time>2021-08-10 12:15:05</time>
      </trkpt>
      <trkpt lat="42.83371" lon="-0.44436">
        <ele>2019.6</ele>
        <time>2021-08-10 12:15:06</time>
      </trkpt>
      <trkpt lat="42.83372" lon="-0.44437">
        <ele>2019.4</ele>
        <time>2021-08-10 12:15:07</time>
      </trkpt>
      <trkpt lat="42.83372" lon="-0.44437">
        <ele>2019.6</ele>
        <time>2021-08-10 12:15:08</time>
      </trkpt>
      <trkpt lat="42.83373" lon="-0.44438">
        <ele>2019.4</ele>
        <time>2021-08-10 12:15:09</time>
      </trkpt>
      <trkpt lat="42.83373" lon="-0.44441">
        <ele>2019.6</ele>
        <time>2021-08-10 12:15:10</time>
      </trkpt>
      <trkpt lat="42.83374" lon="-0.44443">
        <ele>2019.6</ele>
        <time>2021-08-10 12:15:11</time>
      </trkpt>
      <trkpt lat="42.83375" lon="-0.44443">
        <ele>2019.6</ele>
        <time>2021-08-10 12:15:12</time>
      </trkpt>
      <trkpt lat="42.83376" lon="-0.44446">
        <ele>2019.6</ele>
        <time>2021-08-10 12:15:13</time>
      </trkpt>
      <trkpt lat="42.83376" lon="-0.44446">
        <ele>2019.6</ele>
        <time>2021-08-10 12:15:14</time>
      </trkpt>
      <trkpt lat="42.83375" lon="-0.44446">
        <ele>2019.6</ele>
        <time>2021-08-10 12:15:15</time>
      </trkpt>
      <trkpt lat="42.83375" lon="-0.44445">
        <ele>2019.4</ele>
        <time>2021-08-10 12:15:16</time>
      </trkpt>
      <trkpt lat="42.83375" lon="-0.44445">
        <ele>2019.4</ele>
        <time>2021-08-10 12:15:17</time>
      </trkpt>
      <trkpt lat="42.83374" lon="-0.44445">
        <ele>2019.2</ele>
        <time>2021-08-10 12:15:18</time>
      </trkpt>
      <trkpt lat="42.83374" lon="-0.44444">
        <ele>2019.4</ele>
        <time>2021-08-10 12:15:19</time>
      </trkpt>
      <trkpt lat="42.83374" lon="-0.44445">
        <ele>2019.2</ele>
        <time>2021-08-10 12:15:20</time>
      </trkpt>
      <trkpt lat="42.83373" lon="-0.44444">
        <ele>2019.2</ele>
        <time>2021-08-10 12:15:21</time>
      </trkpt>
      <trkpt lat="42.83373" lon="-0.44443">
        <ele>2019</ele>
        <time>2021-08-10 12:15:22</time>
      </trkpt>
      <trkpt lat="42.83373" lon="-0.44442">
        <ele>2019</ele>
        <time>2021-08-10 12:15:23</time>
      </trkpt>
      <trkpt lat="42.83372" lon="-0.44442">
        <ele>2018.8</ele>
        <time>2021-08-10 12:15:24</time>
      </trkpt>
      <trkpt lat="42.83372" lon="-0.44441">
        <ele>2018.6</ele>
        <time>2021-08-10 12:15:25</time>
      </trkpt>
      <trkpt lat="42.83372" lon="-0.4444">
        <ele>2018.8</ele>
        <time>2021-08-10 12:15:26</time>
      </trkpt>
      <trkpt lat="42.83372" lon="-0.44439">
        <ele>2018.6</ele>
        <time>2021-08-10 12:15:27</time>
      </trkpt>
      <trkpt lat="42.83372" lon="-0.44438">
        <ele>2018.6</ele>
        <time>2021-08-10 12:15:28</time>
      </trkpt>
      <trkpt lat="42.83372" lon="-0.44437">
        <ele>2018.6</ele>
        <time>2021-08-10 12:15:29</time>
      </trkpt>
      <trkpt lat="42.83372" lon="-0.44436">
        <ele>2018.6</ele>
        <time>2021-08-10 12:15:30</time>
      </trkpt>
      <trkpt lat="42.83372" lon="-0.44435">
        <ele>2018.6</ele>
        <time>2021-08-10 12:15:31</time>
      </trkpt>
      <trkpt lat="42.83372" lon="-0.44434">
        <ele>2018.6</ele>
        <time>2021-08-10 12:15:32</time>
      </trkpt>
      <trkpt lat="42.83372" lon="-0.44433">
        <ele>2018.2</ele>
        <time>2021-08-10 12:15:33</time>
      </trkpt>
      <trkpt lat="42.83372" lon="-0.44432">
        <ele>2018.2</ele>
        <time>2021-08-10 12:15:34</time>
      </trkpt>
      <trkpt lat="42.83372" lon="-0.44432">
        <ele>2018</ele>
      </trkpt>
      <trkpt lat="42.83372" lon="-0.44432">
        <ele>2018.2</ele>
        <time>2021-08-10 12:15:35</time>
      </trkpt>
      <trkpt lat="42.83373" lon="-0.44432">
        <ele>2018.2</ele>
        <time>2021-08-10 12:15:36</time>
      </trkpt>
      <trkpt lat="42.83372" lon="-0.44431">
        <ele>2018</ele>
        <time>2021-08-10 12:15:37</time>
      </trkpt>
      <trkpt lat="42.83372" lon="-0.44431">
        <ele>2018</ele>
        <time>2021-08-10 12:15:38</time>
      </trkpt>
      <trkpt lat="42.83373" lon="-0.44431">
        <ele>2018</ele>
        <time>2021-08-10 12:15:39</time>
      </trkpt>
      <trkpt lat="42.83373" lon="-0.44431">
        <ele>2018</ele>
        <time>2021-08-10 12:15:40</time>
      </trkpt>
      <trkpt lat="42.83373" lon="-0.44431">
        <ele>2018.2</ele>
        <time>2021-08-10 12:15:41</time>
      </trkpt>
      <trkpt lat="42.83373" lon="-0.4443">
        <ele>2018</ele>
        <time>2021-08-10 12:15:42</time>
      </trkpt>
      <trkpt lat="42.83373" lon="-0.44429">
        <ele>2017.8</ele>
        <time>2021-08-10 12:15:43</time>
      </trkpt>
      <trkpt lat="42.83373" lon="-0.44429">
        <ele>2017.6</ele>
        <time>2021-08-10 12:15:44</time>
      </trkpt>
      <trkpt lat="42.83372" lon="-0.44429">
        <ele>2017.6</ele>
        <time>2021-08-10 12:15:45</time>
      </trkpt>
      <trkpt lat="42.83372" lon="-0.44428">
        <ele>2017.4</ele>
        <time>2021-08-10 12:15:46</time>
      </trkpt>
      <trkpt lat="42.83371" lon="-0.44428">
        <ele>2017.4</ele>
        <time>2021-08-10 12:15:47</time>
      </trkpt>
      <trkpt lat="42.83371" lon="-0.44428">
        <ele>2017.2</ele>
        <time>2021-08-10 12:15:48</time>
      </trkpt>
      <trkpt lat="42.83372" lon="-0.44428">
        <ele>2017.2</ele>
        <time>2021-08-10 12:15:49</time>
      </trkpt>
      <trkpt lat="42.83371" lon="-0.44428">
        <ele>2017.2</ele>
        <time>2021-08-10 12:15:50</time>
      </trkpt>
      <trkpt lat="42.83372" lon="-0.44427">
        <ele>2017</ele>
        <time>2021-08-10 12:15:52</time>
      </trkpt>
      <trkpt lat="42.83372" lon="-0.44427">
        <ele>2017</ele>
      </trkpt>
      <trkpt lat="42.83371" lon="-0.44427">
        <ele>2016.8</ele>
        <time>2021-08-10 12:15:53</time>
      </trkpt>
      <trkpt lat="42.83371" lon="-0.44427">
        <ele>2016.8</ele>
        <time>2021-08-10 12:15:54</time>
      </trkpt>
      <trkpt lat="42.83371" lon="-0.44426">
        <ele>2016.6</ele>
        <time>2021-08-10 12:15:55</time>
      </trkpt>
      <trkpt lat="42.83371" lon="-0.44426">
        <ele>2016.4</ele>
        <time>2021-08-10 12:15:56</time>
      </trkpt>
      <trkpt lat="42.83371" lon="-0.44426">
        <ele>2016.4</ele>
        <time>2021-08-10 12:15:57</time>
      </trkpt>
      <trkpt lat="42.83373" lon="-0.44424">
        <ele>2016</ele>
        <time>2021-08-10 12:15:58</time>
      </trkpt>
      <trkpt lat="42.83372" lon="-0.44423">
        <ele>2016</ele>
        <time>2021-08-10 12:15:59</time>
      </trkpt>
      <trkpt lat="42.83373" lon="-0.44423">
        <ele>2015.8</ele>
        <time>2021-08-10 12:16:00</time>
      </trkpt>
      <trkpt lat="42.83373" lon="-0.44423">
        <ele>2015.8</ele>
        <time>2021-08-10 12:16:01</time>
      </trkpt>
      <trkpt lat="42.83373" lon="-0.44422">
        <ele>2015.8</ele>
        <time>2021-08-10 12:16:02</time>
      </trkpt>
      <trkpt lat="42.83373" lon="-0.44421">
        <ele>2015.4</ele>
        <time>2021-08-10 12:16:03</time>
      </trkpt>
      <trkpt lat="42.83372" lon="-0.4442">
        <ele>2015.4</ele>
        <time>2021-08-10 12:16:04</time>
      </trkpt>
      <trkpt lat="42.83372" lon="-0.4442">
        <ele>2015.4</ele>
        <time>2021-08-10 12:16:05</time>
      </trkpt>
      <trkpt lat="42.83372" lon="-0.44419">
        <ele>2015.2</ele>
        <time>2021-08-10 12:16:10</time>
      </trkpt>
      <trkpt lat="42.83372" lon="-0.44419">
        <ele>2015.2</ele>
        <time>2021-08-10 12:16:11</time>
      </trkpt>
      <trkpt lat="42.83372" lon="-0.44418">
        <ele>2015</ele>
        <time>2021-08-10 12:16:12</time>
      </trkpt>
      <trkpt lat="42.83372" lon="-0.44417">
        <ele>2015</ele>
        <time>2021-08-10 12:16:24</time>
      </trkpt>
      <trkpt lat="42.83372" lon="-0.44417">
        <ele>2014.8</ele>
        <time>2021-08-10 12:16:25</time>
      </trkpt>
      <trkpt lat="42.83371" lon="-0.44417">
        <ele>2014.6</ele>
        <time>2021-08-10 12:16:26</time>
      </trkpt>
      <trkpt lat="42.83371" lon="-0.44417">
        <ele>2014.4</ele>
        <time>2021-08-10 12:16:27</time>
      </trkpt>
      <trkpt lat="42.83371" lon="-0.44416">
        <ele>2014.4</ele>
        <time>2021-08-10 12:16:28</time>
      </trkpt>
      <trkpt lat="42.8337" lon="-0.44416">
        <ele>2014.2</ele>
        <time>2021-08-10 12:16:29</time>
      </trkpt>
      <trkpt lat="42.8337" lon="-0.44415">
        <ele>2014.2</ele>
        <time>2021-08-10 12:16:30</time>
      </trkpt>
      <trkpt lat="42.8337" lon="-0.44415">
        <ele>2014</ele>
        <time>2021-08-10 12:16:58</time>
      </trkpt>
      <trkpt lat="42.83369" lon="-0.44414">
        <ele>2014</ele>
        <time>2021-08-10 12:16:59</time>
      </trkpt>
      <trkpt lat="42.83369" lon="-0.44413">
        <ele>2013.8</ele>
        <time>2021-08-10 12:17:00</time>
      </trkpt>
      <trkpt lat="42.83369" lon="-0.44412">
        <ele>2013.8</ele>
        <time>2021-08-10 12:17:02</time>
      </trkpt>
      <trkpt lat="42.83369" lon="-0.44411">
        <ele>2013.8</ele>
        <time>2021-08-10 12:17:03</time>
      </trkpt>
      <trkpt lat="42.8337" lon="-0.44411">
        <ele>2013.6</ele>
        <time>2021-08-10 12:17:04</time>
      </trkpt>
      <trkpt lat="42.8337" lon="-0.4441">
        <ele>2013.2</ele>
        <time>2021-08-10 12:17:05</time>
      </trkpt>
      <trkpt lat="42.8337" lon="-0.44409">
        <ele>2013.6</ele>
        <time>2021-08-10 12:17:06</time>
      </trkpt>
      <trkpt lat="42.83371" lon="-0.44408">
        <ele>2013.6</ele>
        <time>2021-08-10 12:17:07</time>
      </trkpt>
      <trkpt lat="42.83371" lon="-0.44408">
        <ele>2013.4</ele>
        <time>2021-08-10 12:17:08</time>
      </trkpt>
      <trkpt lat="42.83371" lon="-0.44407">
        <ele>2013</ele>
        <time>2021-08-10 12:17:09</time>
      </trkpt>
      <trkpt lat="42.83371" lon="-0.44406">
        <ele>2013.4</ele>
        <time>2021-08-10 12:17:10</time>
      </trkpt>
      <trkpt lat="42.83371" lon="-0.44406">
        <ele>2013.4</ele>
        <time>2021-08-10 12:17:11</time>
      </trkpt>
      <trkpt lat="42.83372" lon="-0.44406">
        <ele>2013.2</ele>
        <time>2021-08-10 12:17:12</time>
      </trkpt>
      <trkpt lat="42.83372" lon="-0.44405">
        <ele>2013.4</ele>
        <time>2021-08-10 12:17:13</time>
      </trkpt>
      <trkpt lat="42.83373" lon="-0.44405">
        <ele>2013.6</ele>
        <time>2021-08-10 12:17:14</time>
      </trkpt>
      <trkpt lat="42.83373" lon="-0.44404">
        <ele>2013.4</ele>
        <time>2021-08-10 12:17:23</time>
      </trkpt>
      <trkpt lat="42.83373" lon="-0.44403">
        <ele>2013.2</ele>
        <time>2021-08-10 12:17:24</time>
      </trkpt>
      <trkpt lat="42.83372" lon="-0.44402">
        <ele>2013.2</ele>
        <time>2021-08-10 12:17:25</time>
      </trkpt>
      <trkpt lat="42.83373" lon="-0.44401">
        <ele>2013.6</ele>
        <time>2021-08-10 12:17:34</time>
      </trkpt>
      <trkpt lat="42.83373" lon="-0.44401">
        <ele>2013.8</ele>
        <time>2021-08-10 12:17:35</time>
      </trkpt>
      <trkpt lat="42.83373" lon="-0.444">
        <ele>2014</ele>
        <time>2021-08-10 12:17:36</time>
      </trkpt>
      <trkpt lat="42.83373" lon="-0.444">
        <ele>2013.8</ele>
        <time>2021-08-10 12:17:39</time>
      </trkpt>
      <trkpt lat="42.83373" lon="-0.444">
        <ele>2013.6</ele>
        <time>2021-08-10 12:17:40</time>
      </trkpt>
      <trkpt lat="42.83373" lon="-0.444">
        <ele>2013.6</ele>
        <time>2021-08-10 12:17:41</time>
      </trkpt>
      <trkpt lat="42.83373" lon="-0.44399">
        <ele>2013.6</ele>
        <time>2021-08-10 12:17:52</time>
      </trkpt>
      <trkpt lat="42.83374" lon="-0.44398">
        <ele>2013.6</ele>
        <time>2021-08-10 12:17:53</time>
      </trkpt>
      <trkpt lat="42.83374" lon="-0.44397">
        <ele>2013.8</ele>
        <time>2021-08-10 12:17:54</time>
      </trkpt>
      <trkpt lat="42.83375" lon="-0.44397">
        <ele>2013.6</ele>
        <time>2021-08-10 12:18:00</time>
      </trkpt>
      <trkpt lat="42.83375" lon="-0.44397">
        <ele>2013.6</ele>
        <time>2021-08-10 12:18:01</time>
      </trkpt>
      <trkpt lat="42.83376" lon="-0.44397">
        <ele>2013.4</ele>
        <time>2021-08-10 12:18:02</time>
      </trkpt>
      <trkpt lat="42.83376" lon="-0.44397">
        <ele>2013.6</ele>
        <time>2021-08-10 12:18:03</time>
      </trkpt>
      <trkpt lat="42.83377" lon="-0.44397">
        <ele>2013.8</ele>
        <time>2021-08-10 12:18:04</time>
      </trkpt>
      <trkpt lat="42.83377" lon="-0.44396">
        <ele>2013.6</ele>
        <time>2021-08-10 12:18:05</time>
      </trkpt>
      <trkpt lat="42.83377" lon="-0.44395">
        <ele>2013.8</ele>
        <time>2021-08-10 12:18:06</time>
      </trkpt>
      <trkpt lat="42.83377" lon="-0.44394">
        <ele>2013.6</ele>
        <time>2021-08-10 12:18:07</time>
      </trkpt>
      <trkpt lat="42.83378" lon="-0.44394">
        <ele>2014</ele>
        <time>2021-08-10 12:18:08</time>
      </trkpt>
      <trkpt lat="42.83378" lon="-0.44393">
        <ele>2014.2</ele>
        <time>2021-08-10 12:18:09</time>
      </trkpt>
      <trkpt lat="42.83378" lon="-0.44393">
        <ele>2014.4</ele>
        <time>2021-08-10 12:18:10</time>
      </trkpt>
      <trkpt lat="42.83379" lon="-0.44392">
        <ele>2014.4</ele>
        <time>2021-08-10 12:18:11</time>
      </trkpt>
      <trkpt lat="42.83379" lon="-0.44392">
        <ele>2014.2</ele>
        <time>2021-08-10 12:18:12</time>
      </trkpt>
      <trkpt lat="42.83379" lon="-0.44391">
        <ele>2014.2</ele>
        <time>2021-08-10 12:18:13</time>
      </trkpt>
      <trkpt lat="42.8338" lon="-0.44391">
        <ele>2014.2</ele>
        <time>2021-08-10 12:18:14</time>
      </trkpt>
      <trkpt lat="42.8338" lon="-0.44391">
        <ele>2014.2</ele>
        <time>2021-08-10 12:18:15</time>
      </trkpt>
      <trkpt lat="42.8338" lon="-0.4439">
        <ele>2014.2</ele>
        <time>2021-08-10 12:18:16</time>
      </trkpt>
      <trkpt lat="42.83381" lon="-0.4439">
        <ele>2014.2</ele>
        <time>2021-08-10 12:18:17</time>
      </trkpt>
      <trkpt lat="42.83381" lon="-0.4439">
        <ele>2014.2</ele>
        <time>2021-08-10 12:18:18</time>
      </trkpt>
      <trkpt lat="42.83382" lon="-0.44389">
        <ele>2014</ele>
        <time>2021-08-10 12:18:19</time>
      </trkpt>
      <trkpt lat="42.83381" lon="-0.44389">
        <ele>2014</ele>
        <time>2021-08-10 12:18:20</time>
      </trkpt>
      <trkpt lat="42.83381" lon="-0.44388">
        <ele>2014.2</ele>
        <time>2021-08-10 12:18:21</time>
      </trkpt>
      <trkpt lat="42.83381" lon="-0.44388">
        <ele>2014.2</ele>
        <time>2021-08-10 12:18:22</time>
      </trkpt>
      <trkpt lat="42.83381" lon="-0.44388">
        <ele>2014.2</ele>
        <time>2021-08-10 12:18:23</time>
      </trkpt>
      <trkpt lat="42.83382" lon="-0.44387">
        <ele>2014.4</ele>
        <time>2021-08-10 12:18:24</time>
      </trkpt>
      <trkpt lat="42.83382" lon="-0.44387">
        <ele>2014.4</ele>
        <time>2021-08-10 12:18:25</time>
      </trkpt>
      <trkpt lat="42.83383" lon="-0.44387">
        <ele>2014.4</ele>
        <time>2021-08-10 12:18:26</time>
      </trkpt>
      <trkpt lat="42.83383" lon="-0.44386">
        <ele>2014.2</ele>
        <time>2021-08-10 12:18:27</time>
      </trkpt>
      <trkpt lat="42.83383" lon="-0.44386">
        <ele>2014.2</ele>
        <time>2021-08-10 12:18:28</time>
      </trkpt>
      <trkpt lat="42.83384" lon="-0.44386">
        <ele>2014.4</ele>
        <time>2021-08-10 12:18:37</time>
      </trkpt>
      <trkpt lat="42.83384" lon="-0.44385">
        <ele>2014.4</ele>
        <time>2021-08-10 12:18:38</time>
      </trkpt>
      <trkpt lat="42.83384" lon="-0.44384">
        <ele>2014.2</ele>
        <time>2021-08-10 12:18:39</time>
      </trkpt>
      <trkpt lat="42.83384" lon="-0.44384">
        <ele>2014.4</ele>
        <time>2021-08-10 12:18:40</time>
      </trkpt>
      <trkpt lat="42.83386" lon="-0.44383">
        <ele>2014.6</ele>
        <time>2021-08-10 12:18:41</time>
      </trkpt>
      <trkpt lat="42.83386" lon="-0.44383">
        <ele>2014.8</ele>
        <time>2021-08-10 12:18:42</time>
      </trkpt>
      <trkpt lat="42.83387" lon="-0.44383">
        <ele>2014.6</ele>
        <time>2021-08-10 12:18:43</time>
      </trkpt>
      <trkpt lat="42.83388" lon="-0.44383">
        <ele>2014.6</ele>
        <time>2021-08-10 12:18:44</time>
      </trkpt>
      <trkpt lat="42.83388" lon="-0.44382">
        <ele>2014.8</ele>
        <time>2021-08-10 12:18:45</time>
      </trkpt>
      <trkpt lat="42.83388" lon="-0.44382">
        <ele>2014.6</ele>
        <time>2021-08-10 12:18:46</time>
      </trkpt>
      <trkpt lat="42.83387" lon="-0.44382">
        <ele>2014.8</ele>
        <time>2021-08-10 12:18:47</time>
      </trkpt>
      <trkpt lat="42.83387" lon="-0.44382">
        <ele>2015</ele>
        <time>2021-08-10 12:18:48</time>
      </trkpt>
      <trkpt lat="42.83388" lon="-0.44381">
        <ele>2015.4</ele>
        <time>2021-08-10 12:18:49</time>
      </trkpt>
      <trkpt lat="42.83387" lon="-0.4438">
        <ele>2015.4</ele>
        <time>2021-08-10 12:18:50</time>
      </trkpt>
      <trkpt lat="42.83388" lon="-0.4438">
        <ele>2015.2</ele>
        <time>2021-08-10 12:18:51</time>
      </trkpt>
      <trkpt lat="42.83387" lon="-0.44379">
        <ele>2015.2</ele>
        <time>2021-08-10 12:18:52</time>
      </trkpt>
      <trkpt lat="42.83387" lon="-0.44378">
        <ele>2014.8</ele>
        <time>2021-08-10 12:18:53</time>
      </trkpt>
      <trkpt lat="42.83386" lon="-0.44377">
        <ele>2015</ele>
        <time>2021-08-10 12:18:54</time>
      </trkpt>
      <trkpt lat="42.83387" lon="-0.44376">
        <ele>2015</ele>
        <time>2021-08-10 12:18:55</time>
      </trkpt>
      <trkpt lat="42.83387" lon="-0.44376">
        <ele>2015.2</ele>
        <time>2021-08-10 12:18:56</time>
      </trkpt>
      <trkpt lat="42.83387" lon="-0.44375">
        <ele>2015.2</ele>
        <time>2021-08-10 12:18:57</time>
      </trkpt>
      <trkpt lat="42.83387" lon="-0.44375">
        <ele>2015</ele>
        <time>2021-08-10 12:18:58</time>
      </trkpt>
      <trkpt lat="42.83387" lon="-0.44374">
        <ele>2015</ele>
        <time>2021-08-10 12:18:59</time>
      </trkpt>
      <trkpt lat="42.83388" lon="-0.44375">
        <ele>2015</ele>
        <time>2021-08-10 12:19:00</time>
      </trkpt>
      <trkpt lat="42.83389" lon="-0.44375">
        <ele>2015</ele>
        <time>2021-08-10 12:19:01</time>
      </trkpt>
      <trkpt lat="42.83389" lon="-0.44374">
        <ele>2015</ele>
        <time>2021-08-10 12:19:02</time>
      </trkpt>
      <trkpt lat="42.83389" lon="-0.44374">
        <ele>2015.2</ele>
        <time>2021-08-10 12:19:03</time>
      </trkpt>
      <trkpt lat="42.83389" lon="-0.44375">
        <ele>2015.2</ele>
        <time>2021-08-10 12:19:04</time>
      </trkpt>
      <trkpt lat="42.83389" lon="-0.44374">
        <ele>2015.2</ele>
        <time>2021-08-10 12:19:05</time>
      </trkpt>
      <trkpt lat="42.83389" lon="-0.44374">
        <ele>2015.2</ele>
        <time>2021-08-10 12:19:06</time>
      </trkpt>
      <trkpt lat="42.83389" lon="-0.44374">
        <ele>2015.4</ele>
        <time>2021-08-10 12:19:07</time>
      </trkpt>
      <trkpt lat="42.83388" lon="-0.44374">
        <ele>2015.2</ele>
        <time>2021-08-10 12:19:08</time>
      </trkpt>
      <trkpt lat="42.83388" lon="-0.44374">
        <ele>2015.4</ele>
        <time>2021-08-10 12:19:09</time>
      </trkpt>
      <trkpt lat="42.83388" lon="-0.44374">
        <ele>2015.6</ele>
        <time>2021-08-10 12:19:10</time>
      </trkpt>
      <trkpt lat="42.83388" lon="-0.44373">
        <ele>2015.8</ele>
        <time>2021-08-10 12:19:11</time>
      </trkpt>
      <trkpt lat="42.83388" lon="-0.44373">
        <ele>2016</ele>
        <time>2021-08-10 12:19:12</time>
      </trkpt>
      <trkpt lat="42.83388" lon="-0.44373">
        <ele>2015.8</ele>
        <time>2021-08-10 12:19:13</time>
      </trkpt>
      <trkpt lat="42.83388" lon="-0.44372">
        <ele>2016</ele>
        <time>2021-08-10 12:19:14</time>
      </trkpt>
      <trkpt lat="42.83388" lon="-0.44372">
        <ele>2015.8</ele>
        <time>2021-08-10 12:19:15</time>
      </trkpt>
      <trkpt lat="42.83388" lon="-0.44372">
        <ele>2016</ele>
        <time>2021-08-10 12:19:16</time>
      </trkpt>
      <trkpt lat="42.83388" lon="-0.44372">
        <ele>2016.2</ele>
        <time>2021-08-10 12:19:17</time>
      </trkpt>
      <trkpt lat="42.83388" lon="-0.44371">
        <ele>2016.2</ele>
        <time>2021-08-10 12:19:18</time>
      </trkpt>
      <trkpt lat="42.83388" lon="-0.44371">
        <ele>2016.4</ele>
        <time>2021-08-10 12:19:19</time>
      </trkpt>
      <trkpt lat="42.83389" lon="-0.4437">
        <ele>2016.4</ele>
        <time>2021-08-10 12:19:20</time>
      </trkpt>
      <trkpt lat="42.83389" lon="-0.4437">
        <ele>2016.6</ele>
        <time>2021-08-10 12:19:21</time>
      </trkpt>
      <trkpt lat="42.83389" lon="-0.44369">
        <ele>2016.8</ele>
        <time>2021-08-10 12:19:22</time>
      </trkpt>
      <trkpt lat="42.8339" lon="-0.44369">
        <ele>2017.2</ele>
        <time>2021-08-10 12:19:23</time>
      </trkpt>
      <trkpt lat="42.8339" lon="-0.44368">
        <ele>2017.6</ele>
        <time>2021-08-10 12:19:24</time>
      </trkpt>
      <trkpt lat="42.83389" lon="-0.44368">
        <ele>2017.4</ele>
        <time>2021-08-10 12:19:25</time>
      </trkpt>
      <trkpt lat="42.83389" lon="-0.44367">
        <ele>2017.4</ele>
        <time>2021-08-10 12:19:26</time>
      </trkpt>
      <trkpt lat="42.83389" lon="-0.44367">
        <ele>2017.6</ele>
        <time>2021-08-10 12:19:27</time>
      </trkpt>
      <trkpt lat="42.83389" lon="-0.44367">
        <ele>2017.8</ele>
        <time>2021-08-10 12:19:28</time>
      </trkpt>
      <trkpt lat="42.83389" lon="-0.44366">
        <ele>2017.8</ele>
        <time>2021-08-10 12:19:29</time>
      </trkpt>
      <trkpt lat="42.83389" lon="-0.44366">
        <ele>2018</ele>
        <time>2021-08-10 12:19:30</time>
      </trkpt>
      <trkpt lat="42.83389" lon="-0.44366">
        <ele>2018.2</ele>
        <time>2021-08-10 12:19:31</time>
      </trkpt>
      <trkpt lat="42.83389" lon="-0.44365">
        <ele>2018.2</ele>
        <time>2021-08-10 12:19:32</time>
      </trkpt>
      <trkpt lat="42.83388" lon="-0.44365">
        <ele>2018.2</ele>
        <time>2021-08-10 12:19:33</time>
      </trkpt>
      <trkpt lat="42.83388" lon="-0.44364">
        <ele>2018.4</ele>
        <time>2021-08-10 12:19:34</time>
      </trkpt>
      <trkpt lat="42.83387" lon="-0.44364">
        <ele>2018.6</ele>
        <time>2021-08-10 12:19:35</time>
      </trkpt>
      <trkpt lat="42.83387" lon="-0.44364">
        <ele>2018.6</ele>
        <time>2021-08-10 12:19:36</time>
      </trkpt>
      <trkpt lat="42.83386" lon="-0.44364">
        <ele>2018.6</ele>
        <time>2021-08-10 12:19:37</time>
      </trkpt>
      <trkpt lat="42.83386" lon="-0.44364">
        <ele>2018.6</ele>
        <time>2021-08-10 12:19:38</time>
      </trkpt>
      <trkpt lat="42.83386" lon="-0.44364">
        <ele>2018.8</ele>
        <time>2021-08-10 12:19:39</time>
      </trkpt>
      <trkpt lat="42.83386" lon="-0.44364">
        <ele>2018.6</ele>
        <time>2021-08-10 12:19:40</time>
      </trkpt>
      <trkpt lat="42.83386" lon="-0.44365">
        <ele>2018.8</ele>
        <time>2021-08-10 12:19:41</time>
      </trkpt>
      <trkpt lat="42.83386" lon="-0.44364">
        <ele>2018.8</ele>
        <time>2021-08-10 12:19:42</time>
      </trkpt>
      <trkpt lat="42.83385" lon="-0.44364">
        <ele>2018.8</ele>
        <time>2021-08-10 12:19:43</time>
      </trkpt>
      <trkpt lat="42.83385" lon="-0.44364">
        <ele>2019</ele>
        <time>2021-08-10 12:19:44</time>
      </trkpt>
      <trkpt lat="42.83384" lon="-0.44365">
        <ele>2019.2</ele>
        <time>2021-08-10 12:19:45</time>
      </trkpt>
      <trkpt lat="42.83384" lon="-0.44365">
        <ele>2019.4</ele>
        <time>2021-08-10 12:19:46</time>
      </trkpt>
      <trkpt lat="42.83384" lon="-0.44365">
        <ele>2019.6</ele>
        <time>2021-08-10 12:19:47</time>
      </trkpt>
      <trkpt lat="42.83384" lon="-0.44364">
        <ele>2019.4</ele>
        <time>2021-08-10 12:19:48</time>
      </trkpt>
      <trkpt lat="42.83383" lon="-0.44363">
        <ele>2019.6</ele>
        <time>2021-08-10 12:19:49</time>
      </trkpt>
      <trkpt lat="42.83383" lon="-0.44363">
        <ele>2019.8</ele>
        <time>2021-08-10 12:19:50</time>
      </trkpt>
      <trkpt lat="42.83382" lon="-0.44363">
        <ele>2020</ele>
        <time>2021-08-10 12:19:51</time>
      </trkpt>
      <trkpt lat="42.83383" lon="-0.44363">
        <ele>2020.4</ele>
        <time>2021-08-10 12:19:52</time>
      </trkpt>
      <trkpt lat="42.83383" lon="-0.44362">
        <ele>2018.8</ele>
        <time>2021-08-10 12:19:53</time>
      </trkpt>
      <trkpt lat="42.83382" lon="-0.44362">
        <ele>2020</ele>
        <time>2021-08-10 12:19:54</time>
      </trkpt>
      <trkpt lat="42.83383" lon="-0.44362">
        <ele>2020</ele>
        <time>2021-08-10 12:19:55</time>
      </trkpt>
      <trkpt lat="42.83383" lon="-0.44361">
        <ele>2020.4</ele>
        <time>2021-08-10 12:19:56</time>
      </trkpt>
      <trkpt lat="42.83383" lon="-0.44361">
        <ele>2020.6</ele>
        <time>2021-08-10 12:19:57</time>
      </trkpt>
      <trkpt lat="42.83381" lon="-0.4436">
        <ele>2020.8</ele>
        <time>2021-08-10 12:19:58</time>
      </trkpt>
      <trkpt lat="42.83381" lon="-0.44359">
        <ele>2021</ele>
        <time>2021-08-10 12:19:59</time>
      </trkpt>
      <trkpt lat="42.8338" lon="-0.44359">
        <ele>2021</ele>
        <time>2021-08-10 12:20:00</time>
      </trkpt>
      <trkpt lat="42.8338" lon="-0.44359">
        <ele>2021.2</ele>
        <time>2021-08-10 12:20:01</time>
      </trkpt>
      <trkpt lat="42.8338" lon="-0.44359">
        <ele>2021.2</ele>
        <time>2021-08-10 12:20:02</time>
      </trkpt>
      <trkpt lat="42.83379" lon="-0.44358">
        <ele>2021.2</ele>
        <time>2021-08-10 12:20:03</time>
      </trkpt>
      <trkpt lat="42.83379" lon="-0.44358">
        <ele>2021.2</ele>
        <time>2021-08-10 12:20:04</time>
      </trkpt>
      <trkpt lat="42.83378" lon="-0.44358">
        <ele>2021.2</ele>
        <time>2021-08-10 12:20:05</time>
      </trkpt>
      <trkpt lat="42.83378" lon="-0.44358">
        <ele>2021.6</ele>
        <time>2021-08-10 12:20:06</time>
      </trkpt>
      <trkpt lat="42.83378" lon="-0.44358">
        <ele>2022</ele>
        <time>2021-08-10 12:20:07</time>
      </trkpt>
      <trkpt lat="42.83378" lon="-0.44358">
        <ele>2022</ele>
        <time>2021-08-10 12:20:08</time>
      </trkpt>
      <trkpt lat="42.83378" lon="-0.44358">
        <ele>2022.2</ele>
        <time>2021-08-10 12:20:09</time>
      </trkpt>
      <trkpt lat="42.83378" lon="-0.44358">
        <ele>2022.2</ele>
        <time>2021-08-10 12:20:10</time>
      </trkpt>
      <trkpt lat="42.83378" lon="-0.44357">
        <ele>2022.2</ele>
        <time>2021-08-10 12:20:11</time>
      </trkpt>
      <trkpt lat="42.83377" lon="-0.44357">
        <ele>2022</ele>
        <time>2021-08-10 12:20:12</time>
      </trkpt>
      <trkpt lat="42.83377" lon="-0.44357">
        <ele>2022</ele>
        <time>2021-08-10 12:20:13</time>
      </trkpt>
      <trkpt lat="42.83377" lon="-0.44356">
        <ele>2022.4</ele>
        <time>2021-08-10 12:20:14</time>
      </trkpt>
      <trkpt lat="42.83377" lon="-0.44354">
        <ele>2022.8</ele>
        <time>2021-08-10 12:20:15</time>
      </trkpt>
      <trkpt lat="42.83377" lon="-0.44354">
        <ele>2022.6</ele>
        <time>2021-08-10 12:20:16</time>
      </trkpt>
      <trkpt lat="42.83377" lon="-0.44354">
        <ele>2022.8</ele>
        <time>2021-08-10 12:20:17</time>
      </trkpt>
      <trkpt lat="42.83377" lon="-0.44353">
        <ele>2022.8</ele>
        <time>2021-08-10 12:20:18</time>
      </trkpt>
      <trkpt lat="42.83378" lon="-0.44352">
        <ele>2022.8</ele>
        <time>2021-08-10 12:20:19</time>
      </trkpt>
      <trkpt lat="42.83378" lon="-0.44351">
        <ele>2023</ele>
        <time>2021-08-10 12:20:20</time>
      </trkpt>
      <trkpt lat="42.83378" lon="-0.44351">
        <ele>2023</ele>
        <time>2021-08-10 12:20:22</time>
      </trkpt>
      <trkpt lat="42.83378" lon="-0.4435">
        <ele>2023</ele>
        <time>2021-08-10 12:20:23</time>
      </trkpt>
      <trkpt lat="42.83377" lon="-0.4435">
        <ele>2023.2</ele>
        <time>2021-08-10 12:20:24</time>
      </trkpt>
      <trkpt lat="42.83377" lon="-0.44349">
        <ele>2023</ele>
        <time>2021-08-10 12:20:25</time>
      </trkpt>
      <trkpt lat="42.83377" lon="-0.44349">
        <ele>2023.2</ele>
        <time>2021-08-10 12:20:26</time>
      </trkpt>
      <trkpt lat="42.83377" lon="-0.44348">
        <ele>2023.4</ele>
        <time>2021-08-10 12:20:27</time>
      </trkpt>
      <trkpt lat="42.83377" lon="-0.44348">
        <ele>2023.6</ele>
        <time>2021-08-10 12:20:28</time>
      </trkpt>
      <trkpt lat="42.83378" lon="-0.44348">
        <ele>2023.6</ele>
        <time>2021-08-10 12:20:29</time>
      </trkpt>
      <trkpt lat="42.83378" lon="-0.44348">
        <ele>2023.6</ele>
        <time>2021-08-10 12:20:30</time>
      </trkpt>
      <trkpt lat="42.83378" lon="-0.44347">
        <ele>2023.8</ele>
        <time>2021-08-10 12:20:31</time>
      </trkpt>
      <trkpt lat="42.83379" lon="-0.44347">
        <ele>2024</ele>
        <time>2021-08-10 12:20:32</time>
      </trkpt>
      <trkpt lat="42.83379" lon="-0.44347">
        <ele>2023.8</ele>
        <time>2021-08-10 12:20:33</time>
      </trkpt>
      <trkpt lat="42.83379" lon="-0.44347">
        <ele>2023.6</ele>
        <time>2021-08-10 12:20:34</time>
      </trkpt>
      <trkpt lat="42.83378" lon="-0.44347">
        <ele>2023.8</ele>
        <time>2021-08-10 12:20:35</time>
      </trkpt>
      <trkpt lat="42.83378" lon="-0.44346">
        <ele>2023.8</ele>
        <time>2021-08-10 12:20:36</time>
      </trkpt>
      <trkpt lat="42.83378" lon="-0.44346">
        <ele>2023.8</ele>
        <time>2021-08-10 12:20:37</time>
      </trkpt>
      <trkpt lat="42.83378" lon="-0.44346">
        <ele>2023.8</ele>
        <time>2021-08-10 12:20:39</time>
      </trkpt>
      <trkpt lat="42.83378" lon="-0.44345">
        <ele>2023.8</ele>
        <time>2021-08-10 12:20:40</time>
      </trkpt>
      <trkpt lat="42.83379" lon="-0.44345">
        <ele>2023.6</ele>
        <time>2021-08-10 12:20:41</time>
      </trkpt>
      <trkpt lat="42.83379" lon="-0.44345">
        <ele>2024</ele>
        <time>2021-08-10 12:20:43</time>
      </trkpt>
      <trkpt lat="42.83379" lon="-0.44345">
        <ele>2024</ele>
        <time>2021-08-10 12:20:44</time>
      </trkpt>
      <trkpt lat="42.83379" lon="-0.44345">
        <ele>2024.4</ele>
        <time>2021-08-10 12:20:45</time>
      </trkpt>
      <trkpt lat="42.83379" lon="-0.44345">
        <ele>2024.6</ele>
        <time>2021-08-10 12:20:46</time>
      </trkpt>
      <trkpt lat="42.83378" lon="-0.44344">
        <ele>2024.8</ele>
        <time>2021-08-10 12:20:47</time>
      </trkpt>
      <trkpt lat="42.83379" lon="-0.44344">
        <ele>2025.2</ele>
        <time>2021-08-10 12:20:49</time>
      </trkpt>
      <trkpt lat="42.83379" lon="-0.44343">
        <ele>2025.2</ele>
        <time>2021-08-10 12:20:50</time>
      </trkpt>
      <trkpt lat="42.83379" lon="-0.44343">
        <ele>2025.2</ele>
        <time>2021-08-10 12:20:51</time>
      </trkpt>
      <trkpt lat="42.83379" lon="-0.44343">
        <ele>2025.2</ele>
        <time>2021-08-10 12:20:52</time>
      </trkpt>
      <trkpt lat="42.83378" lon="-0.44342">
        <ele>2025</ele>
        <time>2021-08-10 12:20:53</time>
      </trkpt>
      <trkpt lat="42.83378" lon="-0.44341">
        <ele>2025</ele>
        <time>2021-08-10 12:20:54</time>
      </trkpt>
      <trkpt lat="42.83378" lon="-0.44341">
        <ele>2025.2</ele>
        <time>2021-08-10 12:20:55</time>
      </trkpt>
      <trkpt lat="42.83378" lon="-0.4434">
        <ele>2025.2</ele>
        <time>2021-08-10 12:20:56</time>
      </trkpt>
      <trkpt lat="42.83378" lon="-0.4434">
        <ele>2025.4</ele>
        <time>2021-08-10 12:20:57</time>
      </trkpt>
      <trkpt lat="42.83378" lon="-0.44339">
        <ele>2025.6</ele>
        <time>2021-08-10 12:20:58</time>
      </trkpt>
      <trkpt lat="42.83378" lon="-0.44339">
        <ele>2025.6</ele>
        <time>2021-08-10 12:20:59</time>
      </trkpt>
      <trkpt lat="42.83378" lon="-0.44338">
        <ele>2025.6</ele>
      </trkpt>
      <trkpt lat="42.83378" lon="-0.44337">
        <ele>2026</ele>
        <time>2021-08-10 12:21:01</time>
      </trkpt>
      <trkpt lat="42.83378" lon="-0.44337">
        <ele>2026</ele>
        <time>2021-08-10 12:21:02</time>
      </trkpt>
      <trkpt lat="42.83378" lon="-0.44337">
        <ele>2026.2</ele>
        <time>2021-08-10 12:21:04</time>
      </trkpt>
      <trkpt lat="42.83378" lon="-0.44336">
        <ele>2026.2</ele>
        <time>2021-08-10 12:21:05</time>
      </trkpt>
      <trkpt lat="42.83378" lon="-0.44336">
        <ele>2026.4</ele>
        <time>2021-08-10 12:21:06</time>
      </trkpt>
      <trkpt lat="42.83378" lon="-0.44335">
        <ele>2026.6</ele>
        <time>2021-08-10 12:21:07</time>
      </trkpt>
      <trkpt lat="42.83378" lon="-0.44335">
        <ele>2026.4</ele>
        <time>2021-08-10 12:21:09</time>
      </trkpt>
      <trkpt lat="42.83378" lon="-0.44335">
        <ele>2026.6</ele>
      </trkpt>
      <trkpt lat="42.83379" lon="-0.44334">
        <ele>2027</ele>
        <time>2021-08-10 12:21:10</time>
      </trkpt>
      <trkpt lat="42.83379" lon="-0.44334">
        <ele>2027</ele>
        <time>2021-08-10 12:21:11</time>
      </trkpt>
      <trkpt lat="42.83379" lon="-0.44333">
        <ele>2027</ele>
        <time>2021-08-10 12:21:14</time>
      </trkpt>
      <trkpt lat="42.83378" lon="-0.44333">
        <ele>2027</ele>
        <time>2021-08-10 12:21:15</time>
      </trkpt>
      <trkpt lat="42.83378" lon="-0.44332">
        <ele>2027.2</ele>
        <time>2021-08-10 12:21:16</time>
      </trkpt>
      <trkpt lat="42.83378" lon="-0.44332">
        <ele>2027.4</ele>
        <time>2021-08-10 12:21:17</time>
      </trkpt>
      <trkpt lat="42.83378" lon="-0.44331">
        <ele>2027.6</ele>
        <time>2021-08-10 12:21:19</time>
      </trkpt>
      <trkpt lat="42.83378" lon="-0.44332">
        <ele>2027.8</ele>
      </trkpt>
      <trkpt lat="42.83379" lon="-0.44331">
        <ele>2027.8</ele>
        <time>2021-08-10 12:21:20</time>
      </trkpt>
      <trkpt lat="42.83379" lon="-0.44331">
        <ele>2028</ele>
        <time>2021-08-10 12:21:21</time>
      </trkpt>
      <trkpt lat="42.83379" lon="-0.44331">
        <ele>2028.2</ele>
        <time>2021-08-10 12:21:22</time>
      </trkpt>
      <trkpt lat="42.83379" lon="-0.44331">
        <ele>2028</ele>
        <time>2021-08-10 12:21:23</time>
      </trkpt>
      <trkpt lat="42.8338" lon="-0.44331">
        <ele>2028</ele>
        <time>2021-08-10 12:21:24</time>
      </trkpt>
      <trkpt lat="42.8338" lon="-0.44331">
        <ele>2028.2</ele>
        <time>2021-08-10 12:21:25</time>
      </trkpt>
      <trkpt lat="42.8338" lon="-0.44331">
        <ele>2028.4</ele>
        <time>2021-08-10 12:21:26</time>
      </trkpt>
      <trkpt lat="42.8338" lon="-0.44331">
        <ele>2028.4</ele>
        <time>2021-08-10 12:21:27</time>
      </trkpt>
      <trkpt lat="42.8338" lon="-0.44331">
        <ele>2028.4</ele>
        <time>2021-08-10 12:21:28</time>
      </trkpt>
      <trkpt lat="42.8338" lon="-0.4433">
        <ele>2028.6</ele>
        <time>2021-08-10 12:21:29</time>
      </trkpt>
      <trkpt lat="42.8338" lon="-0.4433">
        <ele>2028.8</ele>
        <time>2021-08-10 12:21:32</time>
      </trkpt>
      <trkpt lat="42.8338" lon="-0.44329">
        <ele>2029</ele>
        <time>2021-08-10 12:21:33</time>
      </trkpt>
      <trkpt lat="42.83381" lon="-0.4433">
        <ele>2029.2</ele>
        <time>2021-08-10 12:21:34</time>
      </trkpt>
      <trkpt lat="42.83381" lon="-0.4433">
        <ele>2029.4</ele>
        <time>2021-08-10 12:21:35</time>
      </trkpt>
      <trkpt lat="42.83382" lon="-0.44331">
        <ele>2029.2</ele>
        <time>2021-08-10 12:21:36</time>
      </trkpt>
      <trkpt lat="42.83382" lon="-0.44331">
        <ele>2029.6</ele>
        <time>2021-08-10 12:21:37</time>
      </trkpt>
      <trkpt lat="42.83382" lon="-0.4433">
        <ele>2029.6</ele>
        <time>2021-08-10 12:21:38</time>
      </trkpt>
      <trkpt lat="42.83383" lon="-0.44331">
        <ele>2029.6</ele>
        <time>2021-08-10 12:21:39</time>
      </trkpt>
      <trkpt lat="42.83383" lon="-0.4433">
        <ele>2029.6</ele>
        <time>2021-08-10 12:21:42</time>
      </trkpt>
      <trkpt lat="42.83383" lon="-0.4433">
        <ele>2029.6</ele>
        <time>2021-08-10 12:21:43</time>
      </trkpt>
      <trkpt lat="42.83383" lon="-0.4433">
        <ele>2029.6</ele>
        <time>2021-08-10 12:21:44</time>
      </trkpt>
      <trkpt lat="42.83383" lon="-0.4433">
        <ele>2030</ele>
        <time>2021-08-10 12:21:45</time>
      </trkpt>
      <trkpt lat="42.83383" lon="-0.44329">
        <ele>2030</ele>
        <time>2021-08-10 12:21:46</time>
      </trkpt>
      <trkpt lat="42.83383" lon="-0.44328">
        <ele>2030</ele>
        <time>2021-08-10 12:21:47</time>
      </trkpt>
      <trkpt lat="42.83383" lon="-0.44328">
        <ele>2030.2</ele>
        <time>2021-08-10 12:21:48</time>
      </trkpt>
      <trkpt lat="42.83383" lon="-0.44328">
        <ele>2030.2</ele>
        <time>2021-08-10 12:21:49</time>
      </trkpt>
      <trkpt lat="42.83383" lon="-0.44328">
        <ele>2030.4</ele>
        <time>2021-08-10 12:21:50</time>
      </trkpt>
      <trkpt lat="42.83383" lon="-0.44328">
        <ele>2030.2</ele>
        <time>2021-08-10 12:21:51</time>
      </trkpt>
      <trkpt lat="42.83383" lon="-0.44328">
        <ele>2030.4</ele>
        <time>2021-08-10 12:21:52</time>
      </trkpt>
      <trkpt lat="42.83383" lon="-0.44328">
        <ele>2030.6</ele>
        <time>2021-08-10 12:21:53</time>
      </trkpt>
      <trkpt lat="42.83384" lon="-0.44327">
        <ele>2030.6</ele>
        <time>2021-08-10 12:21:54</time>
      </trkpt>
      <trkpt lat="42.83384" lon="-0.44327">
        <ele>2030.6</ele>
        <time>2021-08-10 12:21:55</time>
      </trkpt>
      <trkpt lat="42.83384" lon="-0.44327">
        <ele>2030.6</ele>
        <time>2021-08-10 12:21:56</time>
      </trkpt>
      <trkpt lat="42.83384" lon="-0.44327">
        <ele>2031</ele>
        <time>2021-08-10 12:21:57</time>
      </trkpt>
      <trkpt lat="42.83385" lon="-0.44326">
        <ele>2031.4</ele>
        <time>2021-08-10 12:21:58</time>
      </trkpt>
      <trkpt lat="42.83385" lon="-0.44326">
        <ele>2031.4</ele>
        <time>2021-08-10 12:21:59</time>
      </trkpt>
      <trkpt lat="42.83385" lon="-0.44325">
        <ele>2031.4</ele>
        <time>2021-08-10 12:22:00</time>
      </trkpt>
      <trkpt lat="42.83385" lon="-0.44325">
        <ele>2031.2</ele>
        <time>2021-08-10 12:22:02</time>
      </trkpt>
      <trkpt lat="42.83386" lon="-0.44326">
        <ele>2031.4</ele>
      </trkpt>
      <trkpt lat="42.83387" lon="-0.44326">
        <ele>2031.4</ele>
        <time>2021-08-10 12:22:03</time>
      </trkpt>
      <trkpt lat="42.83387" lon="-0.44325">
        <ele>2031.6</ele>
        <time>2021-08-10 12:22:04</time>
      </trkpt>
      <trkpt lat="42.83387" lon="-0.44325">
        <ele>2031.6</ele>
        <time>2021-08-10 12:22:05</time>
      </trkpt>
      <trkpt lat="42.83387" lon="-0.44325">
        <ele>2031.6</ele>
        <time>2021-08-10 12:22:07</time>
      </trkpt>
      <trkpt lat="42.83388" lon="-0.44325">
        <ele>2031.8</ele>
        <time>2021-08-10 12:22:08</time>
      </trkpt>
      <trkpt lat="42.83388" lon="-0.44325">
        <ele>2031.8</ele>
        <time>2021-08-10 12:22:09</time>
      </trkpt>
      <trkpt lat="42.83388" lon="-0.44324">
        <ele>2032</ele>
        <time>2021-08-10 12:22:10</time>
      </trkpt>
      <trkpt lat="42.83388" lon="-0.44325">
        <ele>2032</ele>
        <time>2021-08-10 12:22:11</time>
      </trkpt>
      <trkpt lat="42.83388" lon="-0.44322">
        <ele>2031.8</ele>
        <time>2021-08-10 12:22:12</time>
      </trkpt>
      <trkpt lat="42.83388" lon="-0.44322">
        <ele>2032.4</ele>
        <time>2021-08-10 12:22:13</time>
      </trkpt>
      <trkpt lat="42.83388" lon="-0.44322">
        <ele>2032.4</ele>
        <time>2021-08-10 12:22:14</time>
      </trkpt>
      <trkpt lat="42.83388" lon="-0.4432">
        <ele>2032.4</ele>
        <time>2021-08-10 12:22:15</time>
      </trkpt>
      <trkpt lat="42.83388" lon="-0.4432">
        <ele>2032.2</ele>
        <time>2021-08-10 12:22:16</time>
      </trkpt>
      <trkpt lat="42.83389" lon="-0.4432">
        <ele>2032.6</ele>
        <time>2021-08-10 12:22:17</time>
      </trkpt>
      <trkpt lat="42.83389" lon="-0.4432">
        <ele>2032.6</ele>
        <time>2021-08-10 12:22:18</time>
      </trkpt>
      <trkpt lat="42.83389" lon="-0.4432">
        <ele>2032.8</ele>
        <time>2021-08-10 12:22:19</time>
      </trkpt>
      <trkpt lat="42.83389" lon="-0.4432">
        <ele>2033</ele>
        <time>2021-08-10 12:22:20</time>
      </trkpt>
      <trkpt lat="42.83389" lon="-0.4432">
        <ele>2032.8</ele>
        <time>2021-08-10 12:22:21</time>
      </trkpt>
      <trkpt lat="42.83389" lon="-0.4432">
        <ele>2033</ele>
        <time>2021-08-10 12:22:24</time>
      </trkpt>
      <trkpt lat="42.8339" lon="-0.4432">
        <ele>2033.2</ele>
        <time>2021-08-10 12:22:25</time>
      </trkpt>
      <trkpt lat="42.8339" lon="-0.44319">
        <ele>2032.8</ele>
        <time>2021-08-10 12:22:26</time>
      </trkpt>
      <trkpt lat="42.8339" lon="-0.44319">
        <ele>2033</ele>
        <time>2021-08-10 12:22:28</time>
      </trkpt>
      <trkpt lat="42.8339" lon="-0.44319">
        <ele>2032.8</ele>
        <time>2021-08-10 12:22:29</time>
      </trkpt>
      <trkpt lat="42.83391" lon="-0.44319">
        <ele>2032.8</ele>
        <time>2021-08-10 12:22:30</time>
      </trkpt>
      <trkpt lat="42.83391" lon="-0.44319">
        <ele>2032.8</ele>
        <time>2021-08-10 12:22:31</time>
      </trkpt>
      <trkpt lat="42.83391" lon="-0.44318">
        <ele>2033</ele>
        <time>2021-08-10 12:22:32</time>
      </trkpt>
      <trkpt lat="42.83391" lon="-0.44318">
        <ele>2033</ele>
        <time>2021-08-10 12:22:33</time>
      </trkpt>
      <trkpt lat="42.83391" lon="-0.44317">
        <ele>2033.2</ele>
        <time>2021-08-10 12:22:34</time>
      </trkpt>
      <trkpt lat="42.83391" lon="-0.44317">
        <ele>2033.6</ele>
        <time>2021-08-10 12:22:35</time>
      </trkpt>
      <trkpt lat="42.83391" lon="-0.44317">
        <ele>2033.6</ele>
        <time>2021-08-10 12:22:36</time>
      </trkpt>
      <trkpt lat="42.83392" lon="-0.44316">
        <ele>2033.8</ele>
        <time>2021-08-10 12:22:37</time>
      </trkpt>
      <trkpt lat="42.83392" lon="-0.44316">
        <ele>2033.8</ele>
        <time>2021-08-10 12:22:38</time>
      </trkpt>
      <trkpt lat="42.83392" lon="-0.44316">
        <ele>2034</ele>
        <time>2021-08-10 12:22:39</time>
      </trkpt>
      <trkpt lat="42.83392" lon="-0.44316">
        <ele>2034</ele>
        <time>2021-08-10 12:22:43</time>
      </trkpt>
      <trkpt lat="42.83393" lon="-0.44316">
        <ele>2034</ele>
        <time>2021-08-10 12:22:44</time>
      </trkpt>
      <trkpt lat="42.83393" lon="-0.44315">
        <ele>2034</ele>
        <time>2021-08-10 12:22:45</time>
      </trkpt>
      <trkpt lat="42.83393" lon="-0.44315">
        <ele>2034.2</ele>
        <time>2021-08-10 12:22:46</time>
      </trkpt>
      <trkpt lat="42.83393" lon="-0.44315">
        <ele>2034.4</ele>
        <time>2021-08-10 12:22:47</time>
      </trkpt>
      <trkpt lat="42.83394" lon="-0.44314">
        <ele>2034.8</ele>
        <time>2021-08-10 12:22:48</time>
      </trkpt>
      <trkpt lat="42.83394" lon="-0.44314">
        <ele>2035</ele>
        <time>2021-08-10 12:22:49</time>
      </trkpt>
      <trkpt lat="42.83394" lon="-0.44314">
        <ele>2035</ele>
        <time>2021-08-10 12:22:50</time>
      </trkpt>
      <trkpt lat="42.83394" lon="-0.44314">
        <ele>2035</ele>
        <time>2021-08-10 12:22:51</time>
      </trkpt>
      <trkpt lat="42.83394" lon="-0.44314">
        <ele>2034.8</ele>
        <time>2021-08-10 12:22:52</time>
      </trkpt>
      <trkpt lat="42.83395" lon="-0.44313">
        <ele>2034.8</ele>
        <time>2021-08-10 12:22:53</time>
      </trkpt>
      <trkpt lat="42.83395" lon="-0.44313">
        <ele>2034.8</ele>
        <time>2021-08-10 12:22:54</time>
      </trkpt>
      <trkpt lat="42.83395" lon="-0.44313">
        <ele>2035.2</ele>
        <time>2021-08-10 12:22:55</time>
      </trkpt>
      <trkpt lat="42.83396" lon="-0.44312">
        <ele>2035.2</ele>
        <time>2021-08-10 12:22:56</time>
      </trkpt>
      <trkpt lat="42.83396" lon="-0.44312">
        <ele>2035.4</ele>
        <time>2021-08-10 12:22:57</time>
      </trkpt>
      <trkpt lat="42.83396" lon="-0.44312">
        <ele>2035.2</ele>
        <time>2021-08-10 12:22:58</time>
      </trkpt>
      <trkpt lat="42.83397" lon="-0.44311">
        <ele>2035.4</ele>
        <time>2021-08-10 12:23:00</time>
      </trkpt>
      <trkpt lat="42.83397" lon="-0.44311">
        <ele>2035.6</ele>
        <time>2021-08-10 12:23:01</time>
      </trkpt>
      <trkpt lat="42.83397" lon="-0.4431">
        <ele>2035.8</ele>
        <time>2021-08-10 12:23:02</time>
      </trkpt>
      <trkpt lat="42.83397" lon="-0.4431">
        <ele>2035.8</ele>
        <time>2021-08-10 12:23:03</time>
      </trkpt>
      <trkpt lat="42.83397" lon="-0.4431">
        <ele>2035.8</ele>
        <time>2021-08-10 12:23:04</time>
      </trkpt>
      <trkpt lat="42.83397" lon="-0.44309">
        <ele>2036.2</ele>
        <time>2021-08-10 12:23:05</time>
      </trkpt>
      <trkpt lat="42.83397" lon="-0.44309">
        <ele>2036.4</ele>
        <time>2021-08-10 12:23:06</time>
      </trkpt>
      <trkpt lat="42.83398" lon="-0.44309">
        <ele>2036.4</ele>
        <time>2021-08-10 12:23:07</time>
      </trkpt>
      <trkpt lat="42.83398" lon="-0.44308">
        <ele>2036.8</ele>
        <time>2021-08-10 12:23:08</time>
      </trkpt>
      <trkpt lat="42.83398" lon="-0.44308">
        <ele>2037</ele>
        <time>2021-08-10 12:23:09</time>
      </trkpt>
      <trkpt lat="42.83398" lon="-0.44308">
        <ele>2037.2</ele>
        <time>2021-08-10 12:23:10</time>
      </trkpt>
      <trkpt lat="42.83399" lon="-0.44311">
        <ele>2037</ele>
        <time>2021-08-10 12:23:11</time>
      </trkpt>
      <trkpt lat="42.83399" lon="-0.44311">
        <ele>2037</ele>
        <time>2021-08-10 12:23:12</time>
      </trkpt>
      <trkpt lat="42.83399" lon="-0.4431">
        <ele>2037</ele>
        <time>2021-08-10 12:23:13</time>
      </trkpt>
      <trkpt lat="42.834" lon="-0.44308">
        <ele>2037.2</ele>
        <time>2021-08-10 12:23:14</time>
      </trkpt>
      <trkpt lat="42.834" lon="-0.44308">
        <ele>2037.4</ele>
        <time>2021-08-10 12:23:15</time>
      </trkpt>
      <trkpt lat="42.834" lon="-0.44307">
        <ele>2037.4</ele>
        <time>2021-08-10 12:23:16</time>
      </trkpt>
      <trkpt lat="42.83401" lon="-0.44307">
        <ele>2037.8</ele>
        <time>2021-08-10 12:23:17</time>
      </trkpt>
      <trkpt lat="42.83401" lon="-0.44306">
        <ele>2038</ele>
        <time>2021-08-10 12:23:18</time>
      </trkpt>
      <trkpt lat="42.83401" lon="-0.44306">
        <ele>2038</ele>
        <time>2021-08-10 12:23:19</time>
      </trkpt>
      <trkpt lat="42.83402" lon="-0.44306">
        <ele>2038</ele>
        <time>2021-08-10 12:23:20</time>
      </trkpt>
      <trkpt lat="42.83403" lon="-0.44305">
        <ele>2038.2</ele>
        <time>2021-08-10 12:23:21</time>
      </trkpt>
      <trkpt lat="42.83403" lon="-0.44305">
        <ele>2038.4</ele>
        <time>2021-08-10 12:23:22</time>
      </trkpt>
      <trkpt lat="42.83403" lon="-0.44305">
        <ele>2038.4</ele>
        <time>2021-08-10 12:23:23</time>
      </trkpt>
      <trkpt lat="42.83403" lon="-0.44305">
        <ele>2038.4</ele>
        <time>2021-08-10 12:23:24</time>
      </trkpt>
      <trkpt lat="42.83403" lon="-0.44305">
        <ele>2038.4</ele>
        <time>2021-08-10 12:23:25</time>
      </trkpt>
      <trkpt lat="42.83403" lon="-0.44305">
        <ele>2038.2</ele>
        <time>2021-08-10 12:23:26</time>
      </trkpt>
      <trkpt lat="42.83404" lon="-0.44305">
        <ele>2038.2</ele>
        <time>2021-08-10 12:23:28</time>
      </trkpt>
      <trkpt lat="42.83403" lon="-0.44304">
        <ele>2038.4</ele>
        <time>2021-08-10 12:23:29</time>
      </trkpt>
      <trkpt lat="42.83404" lon="-0.44303">
        <ele>2038.4</ele>
        <time>2021-08-10 12:23:30</time>
      </trkpt>
      <trkpt lat="42.83404" lon="-0.44303">
        <ele>2038.6</ele>
        <time>2021-08-10 12:23:31</time>
      </trkpt>
      <trkpt lat="42.83405" lon="-0.44303">
        <ele>2038.6</ele>
        <time>2021-08-10 12:23:32</time>
      </trkpt>
      <trkpt lat="42.83404" lon="-0.44303">
        <ele>2038.4</ele>
        <time>2021-08-10 12:23:33</time>
      </trkpt>
      <trkpt lat="42.83405" lon="-0.44302">
        <ele>2038.6</ele>
        <time>2021-08-10 12:23:34</time>
      </trkpt>
      <trkpt lat="42.83406" lon="-0.44302">
        <ele>2038.6</ele>
        <time>2021-08-10 12:23:37</time>
      </trkpt>
      <trkpt lat="42.83406" lon="-0.44302">
        <ele>2038.6</ele>
        <time>2021-08-10 12:23:38</time>
      </trkpt>
      <trkpt lat="42.83406" lon="-0.44302">
        <ele>2038.8</ele>
        <time>2021-08-10 12:23:39</time>
      </trkpt>
      <trkpt lat="42.83406" lon="-0.44301">
        <ele>2039</ele>
        <time>2021-08-10 12:23:40</time>
      </trkpt>
      <trkpt lat="42.83406" lon="-0.443">
        <ele>2039.2</ele>
        <time>2021-08-10 12:23:41</time>
      </trkpt>
      <trkpt lat="42.83406" lon="-0.44301">
        <ele>2039</ele>
        <time>2021-08-10 12:23:42</time>
      </trkpt>
      <trkpt lat="42.83406" lon="-0.44301">
        <ele>2039.2</ele>
        <time>2021-08-10 12:23:43</time>
      </trkpt>
      <trkpt lat="42.83406" lon="-0.443">
        <ele>2039.8</ele>
        <time>2021-08-10 12:23:44</time>
      </trkpt>
      <trkpt lat="42.83406" lon="-0.44299">
        <ele>2040.2</ele>
        <time>2021-08-10 12:23:45</time>
      </trkpt>
      <trkpt lat="42.83406" lon="-0.44298">
        <ele>2040.4</ele>
        <time>2021-08-10 12:23:46</time>
      </trkpt>
      <trkpt lat="42.83406" lon="-0.44297">
        <ele>2040.8</ele>
        <time>2021-08-10 12:23:47</time>
      </trkpt>
      <trkpt lat="42.83406" lon="-0.44297">
        <ele>2041</ele>
        <time>2021-08-10 12:23:48</time>
      </trkpt>
      <trkpt lat="42.83406" lon="-0.44296">
        <ele>2041.2</ele>
        <time>2021-08-10 12:23:59</time>
      </trkpt>
      <trkpt lat="42.83406" lon="-0.44295">
        <ele>2041.4</ele>
        <time>2021-08-10 12:24:00</time>
      </trkpt>
      <trkpt lat="42.83407" lon="-0.44294">
        <ele>2041.6</ele>
        <time>2021-08-10 12:24:01</time>
      </trkpt>
      <trkpt lat="42.83407" lon="-0.44294">
        <ele>2041.6</ele>
        <time>2021-08-10 12:24:02</time>
      </trkpt>
      <trkpt lat="42.83407" lon="-0.44293">
        <ele>2041.8</ele>
        <time>2021-08-10 12:24:03</time>
      </trkpt>
      <trkpt lat="42.83408" lon="-0.44293">
        <ele>2041.8</ele>
        <time>2021-08-10 12:24:04</time>
      </trkpt>
      <trkpt lat="42.83408" lon="-0.44293">
        <ele>2042.2</ele>
        <time>2021-08-10 12:24:05</time>
      </trkpt>
      <trkpt lat="42.83409" lon="-0.44293">
        <ele>2042</ele>
        <time>2021-08-10 12:24:06</time>
      </trkpt>
      <trkpt lat="42.83409" lon="-0.44293">
        <ele>2042.2</ele>
        <time>2021-08-10 12:24:07</time>
      </trkpt>
      <trkpt lat="42.83409" lon="-0.44292">
        <ele>2042.4</ele>
        <time>2021-08-10 12:24:15</time>
      </trkpt>
      <trkpt lat="42.83409" lon="-0.44292">
        <ele>2042.8</ele>
        <time>2021-08-10 12:24:16</time>
      </trkpt>
      <trkpt lat="42.83409" lon="-0.44292">
        <ele>2043</ele>
        <time>2021-08-10 12:24:17</time>
      </trkpt>
      <trkpt lat="42.83409" lon="-0.4429">
        <ele>2043</ele>
        <time>2021-08-10 12:24:21</time>
      </trkpt>
      <trkpt lat="42.8341" lon="-0.44291">
        <ele>2043</ele>
        <time>2021-08-10 12:24:22</time>
      </trkpt>
      <trkpt lat="42.8341" lon="-0.44291">
        <ele>2043</ele>
        <time>2021-08-10 12:24:23</time>
      </trkpt>
      <trkpt lat="42.8341" lon="-0.44292">
        <ele>2043</ele>
        <time>2021-08-10 12:24:24</time>
      </trkpt>
      <trkpt lat="42.8341" lon="-0.4429">
        <ele>2043.4</ele>
        <time>2021-08-10 12:24:25</time>
      </trkpt>
      <trkpt lat="42.8341" lon="-0.4429">
        <ele>2043.4</ele>
        <time>2021-08-10 12:24:26</time>
      </trkpt>
      <trkpt lat="42.8341" lon="-0.44289">
        <ele>2043.8</ele>
        <time>2021-08-10 12:24:27</time>
      </trkpt>
      <trkpt lat="42.8341" lon="-0.44289">
        <ele>2043.8</ele>
        <time>2021-08-10 12:24:28</time>
      </trkpt>
      <trkpt lat="42.8341" lon="-0.44289">
        <ele>2044</ele>
        <time>2021-08-10 12:24:30</time>
      </trkpt>
      <trkpt lat="42.8341" lon="-0.44286">
        <ele>2044.2</ele>
        <time>2021-08-10 12:24:31</time>
      </trkpt>
      <trkpt lat="42.8341" lon="-0.44286">
        <ele>2044.4</ele>
        <time>2021-08-10 12:24:32</time>
      </trkpt>
      <trkpt lat="42.8341" lon="-0.44286">
        <ele>2044.4</ele>
        <time>2021-08-10 12:24:33</time>
      </trkpt>
      <trkpt lat="42.8341" lon="-0.44285">
        <ele>2044.2</ele>
        <time>2021-08-10 12:24:34</time>
      </trkpt>
      <trkpt lat="42.83407" lon="-0.44284">
        <ele>2044.4</ele>
        <time>2021-08-10 12:24:36</time>
      </trkpt>
      <trkpt lat="42.83407" lon="-0.44284">
        <ele>2044.6</ele>
        <time>2021-08-10 12:24:37</time>
      </trkpt>
      <trkpt lat="42.83407" lon="-0.44284">
        <ele>2044.8</ele>
        <time>2021-08-10 12:24:38</time>
      </trkpt>
      <trkpt lat="42.83407" lon="-0.44284">
        <ele>2044.6</ele>
        <time>2021-08-10 12:24:39</time>
      </trkpt>
      <trkpt lat="42.83407" lon="-0.44283">
        <ele>2044.6</ele>
        <time>2021-08-10 12:24:40</time>
      </trkpt>
      <trkpt lat="42.83407" lon="-0.44283">
        <ele>2044.6</ele>
        <time>2021-08-10 12:24:41</time>
      </trkpt>
      <trkpt lat="42.83408" lon="-0.44283">
        <ele>2044.8</ele>
        <time>2021-08-10 12:24:42</time>
      </trkpt>
      <trkpt lat="42.83408" lon="-0.44282">
        <ele>2045</ele>
        <time>2021-08-10 12:24:43</time>
      </trkpt>
      <trkpt lat="42.83408" lon="-0.44282">
        <ele>2045</ele>
        <time>2021-08-10 12:24:44</time>
      </trkpt>
      <trkpt lat="42.83408" lon="-0.44281">
        <ele>2045</ele>
        <time>2021-08-10 12:24:45</time>
      </trkpt>
      <trkpt lat="42.83408" lon="-0.44281">
        <ele>2045</ele>
        <time>2021-08-10 12:24:46</time>
      </trkpt>
      <trkpt lat="42.83408" lon="-0.4428">
        <ele>2045.2</ele>
        <time>2021-08-10 12:24:47</time>
      </trkpt>
      <trkpt lat="42.83408" lon="-0.44279">
        <ele>2045.2</ele>
        <time>2021-08-10 12:24:48</time>
      </trkpt>
      <trkpt lat="42.83408" lon="-0.44279">
        <ele>2045.2</ele>
        <time>2021-08-10 12:24:49</time>
      </trkpt>
      <trkpt lat="42.83408" lon="-0.44279">
        <ele>2045.4</ele>
        <time>2021-08-10 12:24:52</time>
      </trkpt>
      <trkpt lat="42.83408" lon="-0.44278">
        <ele>2045.6</ele>
        <time>2021-08-10 12:24:53</time>
      </trkpt>
      <trkpt lat="42.83408" lon="-0.44277">
        <ele>2045.8</ele>
        <time>2021-08-10 12:24:54</time>
      </trkpt>
      <trkpt lat="42.83409" lon="-0.44277">
        <ele>2046</ele>
        <time>2021-08-10 12:24:55</time>
      </trkpt>
      <trkpt lat="42.83409" lon="-0.44276">
        <ele>2046</ele>
        <time>2021-08-10 12:24:56</time>
      </trkpt>
      <trkpt lat="42.83409" lon="-0.44276">
        <ele>2046</ele>
        <time>2021-08-10 12:24:57</time>
      </trkpt>
      <trkpt lat="42.83409" lon="-0.44276">
        <ele>2046.2</ele>
        <time>2021-08-10 12:24:58</time>
      </trkpt>
      <trkpt lat="42.83409" lon="-0.44276">
        <ele>2046</ele>
        <time>2021-08-10 12:24:59</time>
      </trkpt>
      <trkpt lat="42.83409" lon="-0.44276">
        <ele>2046</ele>
        <time>2021-08-10 12:25:00</time>
      </trkpt>
      <trkpt lat="42.83408" lon="-0.44277">
        <ele>2046</ele>
        <time>2021-08-10 12:25:01</time>
      </trkpt>
      <trkpt lat="42.83407" lon="-0.44277">
        <ele>2046.2</ele>
        <time>2021-08-10 12:25:02</time>
      </trkpt>
      <trkpt lat="42.83407" lon="-0.44276">
        <ele>2046.4</ele>
        <time>2021-08-10 12:25:03</time>
      </trkpt>
      <trkpt lat="42.83407" lon="-0.44276">
        <ele>2046.8</ele>
        <time>2021-08-10 12:25:04</time>
      </trkpt>
      <trkpt lat="42.83407" lon="-0.44276">
        <ele>2047</ele>
        <time>2021-08-10 12:25:05</time>
      </trkpt>
      <trkpt lat="42.83407" lon="-0.44276">
        <ele>2047</ele>
        <time>2021-08-10 12:25:06</time>
      </trkpt>
      <trkpt lat="42.83407" lon="-0.44277">
        <ele>2046.8</ele>
        <time>2021-08-10 12:25:07</time>
      </trkpt>
      <trkpt lat="42.83407" lon="-0.44277">
        <ele>2047</ele>
        <time>2021-08-10 12:25:08</time>
      </trkpt>
      <trkpt lat="42.83407" lon="-0.44277">
        <ele>2047.2</ele>
        <time>2021-08-10 12:25:09</time>
      </trkpt>
      <trkpt lat="42.83407" lon="-0.44277">
        <ele>2047.4</ele>
        <time>2021-08-10 12:25:10</time>
      </trkpt>
      <trkpt lat="42.83407" lon="-0.44277">
        <ele>2047.6</ele>
        <time>2021-08-10 12:25:11</time>
      </trkpt>
      <trkpt lat="42.83407" lon="-0.44276">
        <ele>2047.6</ele>
        <time>2021-08-10 12:25:12</time>
      </trkpt>
      <trkpt lat="42.83407" lon="-0.44276">
        <ele>2047.6</ele>
        <time>2021-08-10 12:25:13</time>
      </trkpt>
      <trkpt lat="42.83406" lon="-0.44275">
        <ele>2048</ele>
        <time>2021-08-10 12:25:29</time>
      </trkpt>
      <trkpt lat="42.83406" lon="-0.44275">
        <ele>2048</ele>
        <time>2021-08-10 12:25:30</time>
      </trkpt>
      <trkpt lat="42.83406" lon="-0.44275">
        <ele>2048.4</ele>
        <time>2021-08-10 12:25:31</time>
      </trkpt>
      <trkpt lat="42.83406" lon="-0.44274">
        <ele>2048.6</ele>
        <time>2021-08-10 12:26:03</time>
      </trkpt>
      <trkpt lat="42.83406" lon="-0.44274">
        <ele>2048.6</ele>
        <time>2021-08-10 12:26:04</time>
      </trkpt>
      <trkpt lat="42.83406" lon="-0.44273">
        <ele>2048.8</ele>
        <time>2021-08-10 12:26:05</time>
      </trkpt>
      <trkpt lat="42.83405" lon="-0.44273">
        <ele>2048.8</ele>
        <time>2021-08-10 12:26:06</time>
      </trkpt>
      <trkpt lat="42.83405" lon="-0.44273">
        <ele>2049.2</ele>
        <time>2021-08-10 12:26:07</time>
      </trkpt>
      <trkpt lat="42.83406" lon="-0.44273">
        <ele>2049.2</ele>
        <time>2021-08-10 12:26:08</time>
      </trkpt>
      <trkpt lat="42.83405" lon="-0.44272">
        <ele>2049</ele>
        <time>2021-08-10 12:26:09</time>
      </trkpt>
      <trkpt lat="42.83405" lon="-0.44272">
        <ele>2049.2</ele>
        <time>2021-08-10 12:26:10</time>
      </trkpt>
      <trkpt lat="42.83404" lon="-0.44272">
        <ele>2049.2</ele>
        <time>2021-08-10 12:26:11</time>
      </trkpt>
      <trkpt lat="42.83403" lon="-0.44272">
        <ele>2049.4</ele>
        <time>2021-08-10 12:26:12</time>
      </trkpt>
      <trkpt lat="42.83404" lon="-0.44271">
        <ele>2049.6</ele>
        <time>2021-08-10 12:26:13</time>
      </trkpt>
      <trkpt lat="42.83405" lon="-0.4427">
        <ele>2049.6</ele>
        <time>2021-08-10 12:26:14</time>
      </trkpt>
      <trkpt lat="42.83405" lon="-0.4427">
        <ele>2049.8</ele>
        <time>2021-08-10 12:26:15</time>
      </trkpt>
      <trkpt lat="42.83405" lon="-0.4427">
        <ele>2049.8</ele>
        <time>2021-08-10 12:26:16</time>
      </trkpt>
      <trkpt lat="42.83405" lon="-0.44269">
        <ele>2050.2</ele>
        <time>2021-08-10 12:26:17</time>
      </trkpt>
      <trkpt lat="42.83405" lon="-0.44269">
        <ele>2050.4</ele>
        <time>2021-08-10 12:26:18</time>
      </trkpt>
      <trkpt lat="42.83405" lon="-0.44269">
        <ele>2050.6</ele>
        <time>2021-08-10 12:26:19</time>
      </trkpt>
      <trkpt lat="42.83405" lon="-0.44268">
        <ele>2050.6</ele>
        <time>2021-08-10 12:26:20</time>
      </trkpt>
      <trkpt lat="42.83405" lon="-0.44267">
        <ele>2050.6</ele>
        <time>2021-08-10 12:26:21</time>
      </trkpt>
      <trkpt lat="42.83405" lon="-0.44267">
        <ele>2050.8</ele>
        <time>2021-08-10 12:26:33</time>
      </trkpt>
      <trkpt lat="42.83404" lon="-0.44267">
        <ele>2051</ele>
        <time>2021-08-10 12:26:34</time>
      </trkpt>
      <trkpt lat="42.83404" lon="-0.44266">
        <ele>2051.2</ele>
        <time>2021-08-10 12:26:35</time>
      </trkpt>
      <trkpt lat="42.83404" lon="-0.44266">
        <ele>2051.2</ele>
        <time>2021-08-10 12:26:40</time>
      </trkpt>
      <trkpt lat="42.83405" lon="-0.44266">
        <ele>2051.4</ele>
        <time>2021-08-10 12:26:41</time>
      </trkpt>
      <trkpt lat="42.83405" lon="-0.44266">
        <ele>2051.8</ele>
        <time>2021-08-10 12:26:42</time>
      </trkpt>
      <trkpt lat="42.83404" lon="-0.44265">
        <ele>2052</ele>
        <time>2021-08-10 12:26:43</time>
      </trkpt>
      <trkpt lat="42.83405" lon="-0.44265">
        <ele>2052</ele>
        <time>2021-08-10 12:26:44</time>
      </trkpt>
      <trkpt lat="42.83405" lon="-0.44266">
        <ele>2052.2</ele>
        <time>2021-08-10 12:26:47</time>
      </trkpt>
      <trkpt lat="42.83406" lon="-0.44266">
        <ele>2052.2</ele>
        <time>2021-08-10 12:26:48</time>
      </trkpt>
      <trkpt lat="42.83406" lon="-0.44266">
        <ele>2052.4</ele>
        <time>2021-08-10 12:26:49</time>
      </trkpt>
      <trkpt lat="42.83406" lon="-0.44267">
        <ele>2052.4</ele>
        <time>2021-08-10 12:26:50</time>
      </trkpt>
      <trkpt lat="42.83405" lon="-0.44267">
        <ele>2052.6</ele>
        <time>2021-08-10 12:26:51</time>
      </trkpt>
      <trkpt lat="42.83405" lon="-0.44267">
        <ele>2052.6</ele>
        <time>2021-08-10 12:26:52</time>
      </trkpt>
      <trkpt lat="42.83405" lon="-0.44266">
        <ele>2052.8</ele>
        <time>2021-08-10 12:26:53</time>
      </trkpt>
      <trkpt lat="42.83405" lon="-0.44266">
        <ele>2053</ele>
        <time>2021-08-10 12:26:54</time>
      </trkpt>
      <trkpt lat="42.83405" lon="-0.44266">
        <ele>2053.4</ele>
        <time>2021-08-10 12:26:55</time>
      </trkpt>
      <trkpt lat="42.83405" lon="-0.44266">
        <ele>2053.4</ele>
        <time>2021-08-10 12:26:56</time>
      </trkpt>
      <trkpt lat="42.83405" lon="-0.44266">
        <ele>2053.4</ele>
        <time>2021-08-10 12:26:57</time>
      </trkpt>
      <trkpt lat="42.83405" lon="-0.44265">
        <ele>2053.4</ele>
        <time>2021-08-10 12:26:58</time>
      </trkpt>
      <trkpt lat="42.83405" lon="-0.44265">
        <ele>2053.4</ele>
      </trkpt>
      <trkpt lat="42.83404" lon="-0.44264">
        <ele>2054</ele>
        <time>2021-08-10 12:26:59</time>
      </trkpt>
      <trkpt lat="42.83405" lon="-0.44264">
        <ele>2054.2</ele>
        <time>2021-08-10 12:27:00</time>
      </trkpt>
      <trkpt lat="42.83405" lon="-0.44264">
        <ele>2054.2</ele>
        <time>2021-08-10 12:27:01</time>
      </trkpt>
      <trkpt lat="42.83406" lon="-0.44264">
        <ele>2054.2</ele>
        <time>2021-08-10 12:27:02</time>
      </trkpt>
      <trkpt lat="42.83406" lon="-0.44264">
        <ele>2054.2</ele>
        <time>2021-08-10 12:27:03</time>
      </trkpt>
      <trkpt lat="42.83406" lon="-0.44264">
        <ele>2054.2</ele>
        <time>2021-08-10 12:27:11</time>
      </trkpt>
      <trkpt lat="42.83407" lon="-0.44267">
        <ele>2053.8</ele>
        <time>2021-08-10 12:27:12</time>
      </trkpt>
      <trkpt lat="42.83407" lon="-0.44267">
        <ele>2054</ele>
        <time>2021-08-10 12:27:13</time>
      </trkpt>
      <trkpt lat="42.83407" lon="-0.44267">
        <ele>2054</ele>
        <time>2021-08-10 12:27:14</time>
      </trkpt>
      <trkpt lat="42.83405" lon="-0.44265">
        <ele>2054.2</ele>
        <time>2021-08-10 12:27:28</time>
      </trkpt>
      <trkpt lat="42.83405" lon="-0.44265">
        <ele>2054.2</ele>
        <time>2021-08-10 12:27:29</time>
      </trkpt>
      <trkpt lat="42.83405" lon="-0.44264">
        <ele>2054.4</ele>
        <time>2021-08-10 12:27:30</time>
      </trkpt>
      <trkpt lat="42.83405" lon="-0.44264">
        <ele>2054.2</ele>
        <time>2021-08-10 12:27:31</time>
      </trkpt>
      <trkpt lat="42.83405" lon="-0.44263">
        <ele>2054.4</ele>
        <time>2021-08-10 12:27:32</time>
      </trkpt>
      <trkpt lat="42.83405" lon="-0.44263">
        <ele>2054.8</ele>
        <time>2021-08-10 12:27:40</time>
      </trkpt>
      <trkpt lat="42.83406" lon="-0.44262">
        <ele>2055.6</ele>
        <time>2021-08-10 12:27:41</time>
      </trkpt>
      <trkpt lat="42.83406" lon="-0.44262">
        <ele>2055.2</ele>
        <time>2021-08-10 12:27:42</time>
      </trkpt>
      <trkpt lat="42.83406" lon="-0.44262">
        <ele>2054.8</ele>
        <time>2021-08-10 12:27:43</time>
      </trkpt>
      <trkpt lat="42.83406" lon="-0.44262">
        <ele>2055</ele>
        <time>2021-08-10 12:27:59</time>
      </trkpt>
      <trkpt lat="42.83406" lon="-0.44262">
        <ele>2055</ele>
        <time>2021-08-10 12:28:00</time>
      </trkpt>
      <trkpt lat="42.83406" lon="-0.44261">
        <ele>2055.2</ele>
        <time>2021-08-10 12:28:01</time>
      </trkpt>
      <trkpt lat="42.83405" lon="-0.4426">
        <ele>2055.4</ele>
        <time>2021-08-10 12:28:02</time>
      </trkpt>
      <trkpt lat="42.83405" lon="-0.44259">
        <ele>2055.4</ele>
        <time>2021-08-10 12:28:03</time>
      </trkpt>
      <trkpt lat="42.83405" lon="-0.44259">
        <ele>2055.6</ele>
        <time>2021-08-10 12:28:04</time>
      </trkpt>
      <trkpt lat="42.83404" lon="-0.44258">
        <ele>2055.8</ele>
        <time>2021-08-10 12:28:05</time>
      </trkpt>
      <trkpt lat="42.83404" lon="-0.44258">
        <ele>2056</ele>
        <time>2021-08-10 12:28:06</time>
      </trkpt>
      <trkpt lat="42.83404" lon="-0.44257">
        <ele>2056.4</ele>
        <time>2021-08-10 12:28:07</time>
      </trkpt>
      <trkpt lat="42.83404" lon="-0.44257">
        <ele>2056.4</ele>
        <time>2021-08-10 12:28:08</time>
      </trkpt>
      <trkpt lat="42.83404" lon="-0.44256">
        <ele>2056.6</ele>
        <time>2021-08-10 12:28:09</time>
      </trkpt>
      <trkpt lat="42.83404" lon="-0.44255">
        <ele>2056.8</ele>
        <time>2021-08-10 12:28:10</time>
      </trkpt>
      <trkpt lat="42.83404" lon="-0.44254">
        <ele>2056.8</ele>
        <time>2021-08-10 12:28:11</time>
      </trkpt>
      <trkpt lat="42.83405" lon="-0.44254">
        <ele>2057</ele>
        <time>2021-08-10 12:28:12</time>
      </trkpt>
      <trkpt lat="42.83405" lon="-0.44254">
        <ele>2057</ele>
        <time>2021-08-10 12:28:13</time>
      </trkpt>
      <trkpt lat="42.83405" lon="-0.44254">
        <ele>2057</ele>
        <time>2021-08-10 12:28:20</time>
      </trkpt>
      <trkpt lat="42.83405" lon="-0.44253">
        <ele>2057</ele>
        <time>2021-08-10 12:28:21</time>
      </trkpt>
      <trkpt lat="42.83405" lon="-0.44253">
        <ele>2057.2</ele>
        <time>2021-08-10 12:28:22</time>
      </trkpt>
      <trkpt lat="42.83406" lon="-0.44255">
        <ele>2057.4</ele>
        <time>2021-08-10 12:28:23</time>
      </trkpt>
      <trkpt lat="42.83407" lon="-0.44255">
        <ele>2057.2</ele>
        <time>2021-08-10 12:28:24</time>
      </trkpt>
      <trkpt lat="42.83407" lon="-0.44255">
        <ele>2057.2</ele>
        <time>2021-08-10 12:28:25</time>
      </trkpt>
      <trkpt lat="42.83407" lon="-0.44254">
        <ele>2057.4</ele>
        <time>2021-08-10 12:28:26</time>
      </trkpt>
      <trkpt lat="42.83408" lon="-0.44255">
        <ele>2057.4</ele>
        <time>2021-08-10 12:28:27</time>
      </trkpt>
      <trkpt lat="42.83408" lon="-0.44254">
        <ele>2057.6</ele>
        <time>2021-08-10 12:28:33</time>
      </trkpt>
      <trkpt lat="42.83407" lon="-0.44253">
        <ele>2057.4</ele>
        <time>2021-08-10 12:28:34</time>
      </trkpt>
      <trkpt lat="42.83407" lon="-0.44253">
        <ele>2057.4</ele>
        <time>2021-08-10 12:28:35</time>
      </trkpt>
      <trkpt lat="42.83407" lon="-0.44253">
        <ele>2057.4</ele>
        <time>2021-08-10 12:28:36</time>
      </trkpt>
      <trkpt lat="42.83407" lon="-0.44252">
        <ele>2057.8</ele>
        <time>2021-08-10 12:28:37</time>
      </trkpt>
      <trkpt lat="42.83406" lon="-0.44251">
        <ele>2058.2</ele>
        <time>2021-08-10 12:28:38</time>
      </trkpt>
      <trkpt lat="42.83406" lon="-0.44251">
        <ele>2058.2</ele>
        <time>2021-08-10 12:28:48</time>
      </trkpt>
      <trkpt lat="42.83406" lon="-0.44251">
        <ele>2058.2</ele>
        <time>2021-08-10 12:28:49</time>
      </trkpt>
      <trkpt lat="42.83406" lon="-0.4425">
        <ele>2058.2</ele>
        <time>2021-08-10 12:28:50</time>
      </trkpt>
      <trkpt lat="42.83406" lon="-0.4425">
        <ele>2058.6</ele>
        <time>2021-08-10 12:28:51</time>
      </trkpt>
      <trkpt lat="42.83406" lon="-0.4425">
        <ele>2058.6</ele>
        <time>2021-08-10 12:28:52</time>
      </trkpt>
      <trkpt lat="42.83406" lon="-0.44249">
        <ele>2058.4</ele>
        <time>2021-08-10 12:28:53</time>
      </trkpt>
      <trkpt lat="42.83406" lon="-0.44249">
        <ele>2058.6</ele>
        <time>2021-08-10 12:28:54</time>
      </trkpt>
      <trkpt lat="42.83406" lon="-0.44249">
        <ele>2058.6</ele>
        <time>2021-08-10 12:28:55</time>
      </trkpt>
      <trkpt lat="42.83406" lon="-0.44249">
        <ele>2058.6</ele>
        <time>2021-08-10 12:28:56</time>
      </trkpt>
      <trkpt lat="42.83406" lon="-0.44249">
        <ele>2058.8</ele>
        <time>2021-08-10 12:28:57</time>
      </trkpt>
      <trkpt lat="42.83406" lon="-0.44248">
        <ele>2059</ele>
        <time>2021-08-10 12:28:58</time>
      </trkpt>
      <trkpt lat="42.83406" lon="-0.44248">
        <ele>2059</ele>
        <time>2021-08-10 12:28:59</time>
      </trkpt>
      <trkpt lat="42.83406" lon="-0.44248">
        <ele>2059</ele>
        <time>2021-08-10 12:29:00</time>
      </trkpt>
      <trkpt lat="42.83406" lon="-0.44248">
        <ele>2059.2</ele>
        <time>2021-08-10 12:29:01</time>
      </trkpt>
      <trkpt lat="42.83407" lon="-0.44247">
        <ele>2059.2</ele>
        <time>2021-08-10 12:29:02</time>
      </trkpt>
      <trkpt lat="42.83406" lon="-0.44245">
        <ele>2059.2</ele>
        <time>2021-08-10 12:29:03</time>
      </trkpt>
      <trkpt lat="42.83406" lon="-0.44245">
        <ele>2059.2</ele>
        <time>2021-08-10 12:29:05</time>
      </trkpt>
      <trkpt lat="42.83407" lon="-0.44244">
        <ele>2059.2</ele>
        <time>2021-08-10 12:29:06</time>
      </trkpt>
      <trkpt lat="42.83408" lon="-0.44244">
        <ele>2059.6</ele>
        <time>2021-08-10 12:29:07</time>
      </trkpt>
      <trkpt lat="42.83408" lon="-0.44244">
        <ele>2059.6</ele>
        <time>2021-08-10 12:29:08</time>
      </trkpt>
      <trkpt lat="42.83407" lon="-0.44242">
        <ele>2059.4</ele>
        <time>2021-08-10 12:29:09</time>
      </trkpt>
      <trkpt lat="42.83407" lon="-0.44242">
        <ele>2059.6</ele>
        <time>2021-08-10 12:29:10</time>
      </trkpt>
      <trkpt lat="42.83407" lon="-0.44242">
        <ele>2059.8</ele>
        <time>2021-08-10 12:29:11</time>
      </trkpt>
      <trkpt lat="42.83408" lon="-0.44241">
        <ele>2059.6</ele>
        <time>2021-08-10 12:29:16</time>
      </trkpt>
      <trkpt lat="42.83408" lon="-0.44241">
        <ele>2059.6</ele>
        <time>2021-08-10 12:29:17</time>
      </trkpt>
      <trkpt lat="42.83408" lon="-0.4424">
        <ele>2059.8</ele>
        <time>2021-08-10 12:29:18</time>
      </trkpt>
      <trkpt lat="42.83408" lon="-0.4424">
        <ele>2059.8</ele>
        <time>2021-08-10 12:29:19</time>
      </trkpt>
      <trkpt lat="42.83408" lon="-0.4424">
        <ele>2059.8</ele>
        <time>2021-08-10 12:29:20</time>
      </trkpt>
      <trkpt lat="42.83408" lon="-0.4424">
        <ele>2060</ele>
        <time>2021-08-10 12:29:21</time>
      </trkpt>
      <trkpt lat="42.83409" lon="-0.44239">
        <ele>2060</ele>
        <time>2021-08-10 12:29:22</time>
      </trkpt>
      <trkpt lat="42.83408" lon="-0.44239">
        <ele>2060.2</ele>
        <time>2021-08-10 12:29:23</time>
      </trkpt>
      <trkpt lat="42.83408" lon="-0.44239">
        <ele>2060.4</ele>
        <time>2021-08-10 12:29:24</time>
      </trkpt>
      <trkpt lat="42.83408" lon="-0.44238">
        <ele>2060.4</ele>
        <time>2021-08-10 12:29:25</time>
      </trkpt>
      <trkpt lat="42.83409" lon="-0.44238">
        <ele>2060.6</ele>
        <time>2021-08-10 12:29:26</time>
      </trkpt>
      <trkpt lat="42.83409" lon="-0.44237">
        <ele>2060.6</ele>
        <time>2021-08-10 12:29:27</time>
      </trkpt>
      <trkpt lat="42.83409" lon="-0.44237">
        <ele>2060.4</ele>
        <time>2021-08-10 12:29:28</time>
      </trkpt>
      <trkpt lat="42.83409" lon="-0.44236">
        <ele>2060.4</ele>
        <time>2021-08-10 12:29:29</time>
      </trkpt>
      <trkpt lat="42.8341" lon="-0.44237">
        <ele>2060.4</ele>
        <time>2021-08-10 12:29:30</time>
      </trkpt>
      <trkpt lat="42.8341" lon="-0.44236">
        <ele>2060.6</ele>
        <time>2021-08-10 12:29:31</time>
      </trkpt>
      <trkpt lat="42.8341" lon="-0.44234">
        <ele>2060.6</ele>
        <time>2021-08-10 12:29:32</time>
      </trkpt>
      <trkpt lat="42.8341" lon="-0.44235">
        <ele>2060.4</ele>
        <time>2021-08-10 12:29:33</time>
      </trkpt>
      <trkpt lat="42.83412" lon="-0.44235">
        <ele>2060.4</ele>
        <time>2021-08-10 12:29:34</time>
      </trkpt>
      <trkpt lat="42.83412" lon="-0.44236">
        <ele>2060.6</ele>
        <time>2021-08-10 12:29:35</time>
      </trkpt>
      <trkpt lat="42.83412" lon="-0.44236">
        <ele>2060.6</ele>
        <time>2021-08-10 12:29:36</time>
      </trkpt>
      <trkpt lat="42.83413" lon="-0.44234">
        <ele>2060.4</ele>
        <time>2021-08-10 12:29:37</time>
      </trkpt>
      <trkpt lat="42.83413" lon="-0.44234">
        <ele>2060.4</ele>
        <time>2021-08-10 12:29:38</time>
      </trkpt>
      <trkpt lat="42.83412" lon="-0.44233">
        <ele>2060.4</ele>
        <time>2021-08-10 12:29:39</time>
      </trkpt>
      <trkpt lat="42.83413" lon="-0.44233">
        <ele>2060.4</ele>
        <time>2021-08-10 12:29:40</time>
      </trkpt>
      <trkpt lat="42.83413" lon="-0.44233">
        <ele>2060.4</ele>
        <time>2021-08-10 12:29:41</time>
      </trkpt>
      <trkpt lat="42.83414" lon="-0.44233">
        <ele>2060</ele>
        <time>2021-08-10 12:29:42</time>
      </trkpt>
      <trkpt lat="42.83415" lon="-0.44233">
        <ele>2059.8</ele>
        <time>2021-08-10 12:29:43</time>
      </trkpt>
      <trkpt lat="42.83416" lon="-0.44234">
        <ele>2059.8</ele>
        <time>2021-08-10 12:29:44</time>
      </trkpt>
      <trkpt lat="42.83415" lon="-0.44233">
        <ele>2059.8</ele>
        <time>2021-08-10 12:29:45</time>
      </trkpt>
      <trkpt lat="42.83415" lon="-0.44233">
        <ele>2059.8</ele>
        <time>2021-08-10 12:29:46</time>
      </trkpt>
      <trkpt lat="42.83416" lon="-0.44233">
        <ele>2060</ele>
        <time>2021-08-10 12:29:47</time>
      </trkpt>
      <trkpt lat="42.83416" lon="-0.44232">
        <ele>2060.2</ele>
        <time>2021-08-10 12:29:48</time>
      </trkpt>
      <trkpt lat="42.83417" lon="-0.44232">
        <ele>2060.2</ele>
        <time>2021-08-10 12:30:17</time>
      </trkpt>
      <trkpt lat="42.83417" lon="-0.44232">
        <ele>2060</ele>
        <time>2021-08-10 12:30:18</time>
      </trkpt>
      <trkpt lat="42.83417" lon="-0.44231">
        <ele>2060</ele>
        <time>2021-08-10 12:30:19</time>
      </trkpt>
      <trkpt lat="42.83417" lon="-0.4423">
        <ele>2060</ele>
        <time>2021-08-10 12:30:45</time>
      </trkpt>
      <trkpt lat="42.83416" lon="-0.44228">
        <ele>2060</ele>
        <time>2021-08-10 12:30:46</time>
      </trkpt>
      <trkpt lat="42.83417" lon="-0.44227">
        <ele>2060</ele>
        <time>2021-08-10 12:30:47</time>
      </trkpt>
      <trkpt lat="42.83416" lon="-0.44227">
        <ele>2060.2</ele>
        <time>2021-08-10 12:30:48</time>
      </trkpt>
      <trkpt lat="42.83416" lon="-0.44227">
        <ele>2060.4</ele>
        <time>2021-08-10 12:30:49</time>
      </trkpt>
      <trkpt lat="42.83416" lon="-0.44226">
        <ele>2060.4</ele>
        <time>2021-08-10 12:30:50</time>
      </trkpt>
      <trkpt lat="42.83416" lon="-0.44226">
        <ele>2060.8</ele>
        <time>2021-08-10 12:30:57</time>
      </trkpt>
      <trkpt lat="42.83416" lon="-0.44226">
        <ele>2061</ele>
        <time>2021-08-10 12:30:58</time>
      </trkpt>
      <trkpt lat="42.83416" lon="-0.44226">
        <ele>2060.8</ele>
        <time>2021-08-10 12:30:59</time>
      </trkpt>
      <trkpt lat="42.83416" lon="-0.44225">
        <ele>2060.8</ele>
        <time>2021-08-10 12:31:00</time>
      </trkpt>
      <trkpt lat="42.83416" lon="-0.44223">
        <ele>2060.8</ele>
        <time>2021-08-10 12:31:01</time>
      </trkpt>
      <trkpt lat="42.83415" lon="-0.44223">
        <ele>2060.8</ele>
        <time>2021-08-10 12:31:02</time>
      </trkpt>
      <trkpt lat="42.83416" lon="-0.44223">
        <ele>2060.6</ele>
        <time>2021-08-10 12:31:03</time>
      </trkpt>
      <trkpt lat="42.83416" lon="-0.44222">
        <ele>2060.8</ele>
        <time>2021-08-10 12:31:04</time>
      </trkpt>
      <trkpt lat="42.83417" lon="-0.44222">
        <ele>2061</ele>
        <time>2021-08-10 12:31:05</time>
      </trkpt>
      <trkpt lat="42.83416" lon="-0.4422">
        <ele>2061</ele>
        <time>2021-08-10 12:31:06</time>
      </trkpt>
      <trkpt lat="42.83416" lon="-0.4422">
        <ele>2061</ele>
        <time>2021-08-10 12:31:07</time>
      </trkpt>
      <trkpt lat="42.83416" lon="-0.44219">
        <ele>2061.2</ele>
        <time>2021-08-10 12:31:08</time>
      </trkpt>
      <trkpt lat="42.83416" lon="-0.44218">
        <ele>2061.6</ele>
        <time>2021-08-10 12:31:09</time>
      </trkpt>
      <trkpt lat="42.83415" lon="-0.44218">
        <ele>2062</ele>
        <time>2021-08-10 12:31:10</time>
      </trkpt>
      <trkpt lat="42.83414" lon="-0.44217">
        <ele>2062</ele>
        <time>2021-08-10 12:31:11</time>
      </trkpt>
      <trkpt lat="42.83413" lon="-0.44215">
        <ele>2062.4</ele>
        <time>2021-08-10 12:31:12</time>
      </trkpt>
      <trkpt lat="42.83413" lon="-0.44214">
        <ele>2062.4</ele>
        <time>2021-08-10 12:31:13</time>
      </trkpt>
      <trkpt lat="42.83413" lon="-0.44213">
        <ele>2062.4</ele>
        <time>2021-08-10 12:31:14</time>
      </trkpt>
      <trkpt lat="42.83414" lon="-0.44213">
        <ele>2062.6</ele>
        <time>2021-08-10 12:31:15</time>
      </trkpt>
      <trkpt lat="42.83413" lon="-0.44212">
        <ele>2062.6</ele>
        <time>2021-08-10 12:31:16</time>
      </trkpt>
      <trkpt lat="42.83414" lon="-0.44211">
        <ele>2063</ele>
        <time>2021-08-10 12:31:17</time>
      </trkpt>
      <trkpt lat="42.83414" lon="-0.44211">
        <ele>2063.2</ele>
        <time>2021-08-10 12:31:20</time>
      </trkpt>
      <trkpt lat="42.83414" lon="-0.4421">
        <ele>2063.6</ele>
        <time>2021-08-10 12:31:21</time>
      </trkpt>
      <trkpt lat="42.83414" lon="-0.44209">
        <ele>2064</ele>
        <time>2021-08-10 12:31:22</time>
      </trkpt>
      <trkpt lat="42.83414" lon="-0.44209">
        <ele>2064</ele>
        <time>2021-08-10 12:31:23</time>
      </trkpt>
      <trkpt lat="42.83413" lon="-0.44207">
        <ele>2064.2</ele>
        <time>2021-08-10 12:31:24</time>
      </trkpt>
      <trkpt lat="42.83413" lon="-0.44207">
        <ele>2064.2</ele>
        <time>2021-08-10 12:31:25</time>
      </trkpt>
      <trkpt lat="42.83413" lon="-0.44207">
        <ele>2064.4</ele>
        <time>2021-08-10 12:31:29</time>
      </trkpt>
      <trkpt lat="42.83413" lon="-0.44208">
        <ele>2064.6</ele>
        <time>2021-08-10 12:31:30</time>
      </trkpt>
      <trkpt lat="42.83413" lon="-0.44208">
        <ele>2064.6</ele>
        <time>2021-08-10 12:31:31</time>
      </trkpt>
      <trkpt lat="42.83412" lon="-0.44207">
        <ele>2064.8</ele>
        <time>2021-08-10 12:31:32</time>
      </trkpt>
      <trkpt lat="42.83412" lon="-0.44207">
        <ele>2065</ele>
        <time>2021-08-10 12:31:33</time>
      </trkpt>
      <trkpt lat="42.83412" lon="-0.44206">
        <ele>2065.2</ele>
        <time>2021-08-10 12:31:34</time>
      </trkpt>
      <trkpt lat="42.83412" lon="-0.44206">
        <ele>2065.2</ele>
        <time>2021-08-10 12:31:35</time>
      </trkpt>
      <trkpt lat="42.83412" lon="-0.44205">
        <ele>2065.4</ele>
        <time>2021-08-10 12:31:36</time>
      </trkpt>
      <trkpt lat="42.83412" lon="-0.44204">
        <ele>2065.4</ele>
        <time>2021-08-10 12:31:37</time>
      </trkpt>
      <trkpt lat="42.83412" lon="-0.44203">
        <ele>2065.6</ele>
        <time>2021-08-10 12:31:38</time>
      </trkpt>
      <trkpt lat="42.83411" lon="-0.44203">
        <ele>2065.8</ele>
        <time>2021-08-10 12:31:39</time>
      </trkpt>
      <trkpt lat="42.83411" lon="-0.44204">
        <ele>2066</ele>
        <time>2021-08-10 12:31:40</time>
      </trkpt>
      <trkpt lat="42.83412" lon="-0.44204">
        <ele>2065.8</ele>
        <time>2021-08-10 12:31:41</time>
      </trkpt>
      <trkpt lat="42.8341" lon="-0.44203">
        <ele>2066.8</ele>
        <time>2021-08-10 12:31:42</time>
      </trkpt>
      <trkpt lat="42.8341" lon="-0.44203">
        <ele>2066.6</ele>
        <time>2021-08-10 12:31:43</time>
      </trkpt>
      <trkpt lat="42.8341" lon="-0.44202">
        <ele>2066.6</ele>
        <time>2021-08-10 12:31:44</time>
      </trkpt>
      <trkpt lat="42.8341" lon="-0.44201">
        <ele>2066.2</ele>
        <time>2021-08-10 12:31:45</time>
      </trkpt>
      <trkpt lat="42.8341" lon="-0.442">
        <ele>2066.4</ele>
        <time>2021-08-10 12:31:46</time>
      </trkpt>
      <trkpt lat="42.8341" lon="-0.442">
        <ele>2066.6</ele>
        <time>2021-08-10 12:31:47</time>
      </trkpt>
      <trkpt lat="42.8341" lon="-0.44199">
        <ele>2067</ele>
        <time>2021-08-10 12:31:48</time>
      </trkpt>
      <trkpt lat="42.83409" lon="-0.44198">
        <ele>2067.2</ele>
        <time>2021-08-10 12:31:49</time>
      </trkpt>
      <trkpt lat="42.83408" lon="-0.44197">
        <ele>2067.2</ele>
        <time>2021-08-10 12:31:50</time>
      </trkpt>
      <trkpt lat="42.83407" lon="-0.44199">
        <ele>2067</ele>
        <time>2021-08-10 12:31:51</time>
      </trkpt>
      <trkpt lat="42.83407" lon="-0.44198">
        <ele>2067.2</ele>
        <time>2021-08-10 12:31:52</time>
      </trkpt>
      <trkpt lat="42.83406" lon="-0.44196">
        <ele>2067.4</ele>
        <time>2021-08-10 12:31:53</time>
      </trkpt>
      <trkpt lat="42.83404" lon="-0.44193">
        <ele>2067.6</ele>
        <time>2021-08-10 12:31:54</time>
      </trkpt>
      <trkpt lat="42.83405" lon="-0.44192">
        <ele>2067.6</ele>
        <time>2021-08-10 12:31:55</time>
      </trkpt>
      <trkpt lat="42.83405" lon="-0.44192">
        <ele>2067.6</ele>
        <time>2021-08-10 12:31:56</time>
      </trkpt>
      <trkpt lat="42.83405" lon="-0.44191">
        <ele>2068</ele>
        <time>2021-08-10 12:31:57</time>
      </trkpt>
      <trkpt lat="42.83406" lon="-0.44189">
        <ele>2068.6</ele>
        <time>2021-08-10 12:31:58</time>
      </trkpt>
      <trkpt lat="42.83406" lon="-0.44188">
        <ele>2068.4</ele>
        <time>2021-08-10 12:31:59</time>
      </trkpt>
      <trkpt lat="42.83407" lon="-0.44189">
        <ele>2068.4</ele>
        <time>2021-08-10 12:32:00</time>
      </trkpt>
      <trkpt lat="42.83408" lon="-0.44187">
        <ele>2068.6</ele>
        <time>2021-08-10 12:32:01</time>
      </trkpt>
      <trkpt lat="42.83409" lon="-0.44187">
        <ele>2068.6</ele>
        <time>2021-08-10 12:32:02</time>
      </trkpt>
      <trkpt lat="42.8341" lon="-0.44186">
        <ele>2068.8</ele>
        <time>2021-08-10 12:32:03</time>
      </trkpt>
      <trkpt lat="42.8341" lon="-0.44186">
        <ele>2069.2</ele>
        <time>2021-08-10 12:32:04</time>
      </trkpt>
      <trkpt lat="42.8341" lon="-0.44186">
        <ele>2069.4</ele>
        <time>2021-08-10 12:32:05</time>
      </trkpt>
      <trkpt lat="42.83411" lon="-0.44185">
        <ele>2069.6</ele>
        <time>2021-08-10 12:32:06</time>
      </trkpt>
      <trkpt lat="42.83411" lon="-0.44185">
        <ele>2069.8</ele>
        <time>2021-08-10 12:32:07</time>
      </trkpt>
      <trkpt lat="42.83411" lon="-0.44185">
        <ele>2069.8</ele>
        <time>2021-08-10 12:32:08</time>
      </trkpt>
      <trkpt lat="42.83411" lon="-0.44184">
        <ele>2070</ele>
        <time>2021-08-10 12:32:09</time>
      </trkpt>
      <trkpt lat="42.83411" lon="-0.44184">
        <ele>2070</ele>
        <time>2021-08-10 12:32:10</time>
      </trkpt>
      <trkpt lat="42.83412" lon="-0.44185">
        <ele>2070.2</ele>
        <time>2021-08-10 12:32:11</time>
      </trkpt>
      <trkpt lat="42.83413" lon="-0.44185">
        <ele>2070.8</ele>
        <time>2021-08-10 12:32:12</time>
      </trkpt>
      <trkpt lat="42.83413" lon="-0.44185">
        <ele>2070.8</ele>
        <time>2021-08-10 12:32:13</time>
      </trkpt>
      <trkpt lat="42.83414" lon="-0.44185">
        <ele>2070.8</ele>
        <time>2021-08-10 12:32:14</time>
      </trkpt>
      <trkpt lat="42.83414" lon="-0.44185">
        <ele>2071</ele>
        <time>2021-08-10 12:32:17</time>
      </trkpt>
      <trkpt lat="42.83415" lon="-0.44185">
        <ele>2071</ele>
        <time>2021-08-10 12:32:18</time>
      </trkpt>
      <trkpt lat="42.83415" lon="-0.44185">
        <ele>2071.2</ele>
        <time>2021-08-10 12:32:19</time>
      </trkpt>
      <trkpt lat="42.83415" lon="-0.44184">
        <ele>2071.4</ele>
        <time>2021-08-10 12:32:25</time>
      </trkpt>
      <trkpt lat="42.83415" lon="-0.44184">
        <ele>2071.4</ele>
        <time>2021-08-10 12:32:26</time>
      </trkpt>
      <trkpt lat="42.83415" lon="-0.44184">
        <ele>2071.4</ele>
        <time>2021-08-10 12:32:27</time>
      </trkpt>
      <trkpt lat="42.83415" lon="-0.44183">
        <ele>2071.6</ele>
        <time>2021-08-10 12:32:28</time>
      </trkpt>
      <trkpt lat="42.83414" lon="-0.44183">
        <ele>2071.6</ele>
        <time>2021-08-10 12:32:29</time>
      </trkpt>
      <trkpt lat="42.83414" lon="-0.44182">
        <ele>2072</ele>
        <time>2021-08-10 12:32:30</time>
      </trkpt>
      <trkpt lat="42.83414" lon="-0.44181">
        <ele>2072.2</ele>
        <time>2021-08-10 12:32:31</time>
      </trkpt>
      <trkpt lat="42.83413" lon="-0.4418">
        <ele>2072.4</ele>
        <time>2021-08-10 12:32:32</time>
      </trkpt>
      <trkpt lat="42.83413" lon="-0.4418">
        <ele>2072.4</ele>
        <time>2021-08-10 12:32:33</time>
      </trkpt>
      <trkpt lat="42.83413" lon="-0.4418">
        <ele>2072.6</ele>
        <time>2021-08-10 12:32:34</time>
      </trkpt>
      <trkpt lat="42.83413" lon="-0.4418">
        <ele>2072.6</ele>
        <time>2021-08-10 12:32:35</time>
      </trkpt>
      <trkpt lat="42.83413" lon="-0.4418">
        <ele>2072.6</ele>
        <time>2021-08-10 12:32:36</time>
      </trkpt>
      <trkpt lat="42.83414" lon="-0.4418">
        <ele>2072.8</ele>
        <time>2021-08-10 12:32:37</time>
      </trkpt>
      <trkpt lat="42.83413" lon="-0.44179">
        <ele>2073.2</ele>
        <time>2021-08-10 12:32:38</time>
      </trkpt>
      <trkpt lat="42.83414" lon="-0.44179">
        <ele>2073.2</ele>
        <time>2021-08-10 12:32:39</time>
      </trkpt>
      <trkpt lat="42.83414" lon="-0.4418">
        <ele>2073.4</ele>
        <time>2021-08-10 12:32:40</time>
      </trkpt>
      <trkpt lat="42.83414" lon="-0.44182">
        <ele>2073.6</ele>
        <time>2021-08-10 12:32:41</time>
      </trkpt>
      <trkpt lat="42.83414" lon="-0.44183">
        <ele>2073.6</ele>
        <time>2021-08-10 12:32:42</time>
      </trkpt>
      <trkpt lat="42.83414" lon="-0.44184">
        <ele>2073.6</ele>
        <time>2021-08-10 12:32:43</time>
      </trkpt>
      <trkpt lat="42.83414" lon="-0.44184">
        <ele>2073.6</ele>
        <time>2021-08-10 12:32:44</time>
      </trkpt>
      <trkpt lat="42.83414" lon="-0.44185">
        <ele>2073.6</ele>
        <time>2021-08-10 12:32:45</time>
      </trkpt>
      <trkpt lat="42.83414" lon="-0.44185">
        <ele>2073.6</ele>
        <time>2021-08-10 12:32:46</time>
      </trkpt>
      <trkpt lat="42.83414" lon="-0.44185">
        <ele>2073.8</ele>
        <time>2021-08-10 12:32:47</time>
      </trkpt>
      <trkpt lat="42.83414" lon="-0.44185">
        <ele>2073.8</ele>
        <time>2021-08-10 12:32:48</time>
      </trkpt>
      <trkpt lat="42.83414" lon="-0.44184">
        <ele>2074.2</ele>
        <time>2021-08-10 12:32:49</time>
      </trkpt>
      <trkpt lat="42.83414" lon="-0.44183">
        <ele>2074.4</ele>
        <time>2021-08-10 12:32:50</time>
      </trkpt>
      <trkpt lat="42.83414" lon="-0.44182">
        <ele>2074.6</ele>
        <time>2021-08-10 12:32:51</time>
      </trkpt>
      <trkpt lat="42.83414" lon="-0.44182">
        <ele>2074.6</ele>
        <time>2021-08-10 12:32:52</time>
      </trkpt>
      <trkpt lat="42.83413" lon="-0.44182">
        <ele>2074.4</ele>
        <time>2021-08-10 12:32:53</time>
      </trkpt>
      <trkpt lat="42.83413" lon="-0.44183">
        <ele>2074</ele>
        <time>2021-08-10 12:32:54</time>
      </trkpt>
      <trkpt lat="42.83415" lon="-0.44183">
        <ele>2073.8</ele>
        <time>2021-08-10 12:32:55</time>
      </trkpt>
      <trkpt lat="42.83415" lon="-0.44184">
        <ele>2074</ele>
        <time>2021-08-10 12:32:56</time>
      </trkpt>
      <trkpt lat="42.83415" lon="-0.44183">
        <ele>2074</ele>
        <time>2021-08-10 12:32:57</time>
      </trkpt>
      <trkpt lat="42.83415" lon="-0.44183">
        <ele>2074.6</ele>
        <time>2021-08-10 12:32:58</time>
      </trkpt>
      <trkpt lat="42.83415" lon="-0.44182">
        <ele>2074.2</ele>
        <time>2021-08-10 12:32:59</time>
      </trkpt>
      <trkpt lat="42.83414" lon="-0.44182">
        <ele>2074.4</ele>
      </trkpt>
      <trkpt lat="42.83414" lon="-0.44182">
        <ele>2074.2</ele>
        <time>2021-08-10 12:33:01</time>
      </trkpt>
      <trkpt lat="42.83414" lon="-0.44183">
        <ele>2074</ele>
        <time>2021-08-10 12:33:02</time>
      </trkpt>
      <trkpt lat="42.83414" lon="-0.44185">
        <ele>2074.2</ele>
      </trkpt>
      <trkpt lat="42.83414" lon="-0.44185">
        <ele>2073.6</ele>
        <time>2021-08-10 12:33:03</time>
      </trkpt>
      <trkpt lat="42.83414" lon="-0.44185">
        <ele>2073.2</ele>
        <time>2021-08-10 12:33:04</time>
      </trkpt>
      <trkpt lat="42.83414" lon="-0.44184">
        <ele>2073.4</ele>
        <time>2021-08-10 12:33:05</time>
      </trkpt>
      <trkpt lat="42.83415" lon="-0.44184">
        <ele>2074</ele>
        <time>2021-08-10 12:33:06</time>
      </trkpt>
      <trkpt lat="42.83415" lon="-0.44184">
        <ele>2074</ele>
        <time>2021-08-10 12:33:07</time>
      </trkpt>
      <trkpt lat="42.83415" lon="-0.44184">
        <ele>2074.2</ele>
        <time>2021-08-10 12:33:08</time>
      </trkpt>
      <trkpt lat="42.83427" lon="-0.44188">
        <ele>2074</ele>
        <time>2021-08-10 12:33:10</time>
      </trkpt>
      <trkpt lat="42.83427" lon="-0.44189">
        <ele>2074</ele>
      </trkpt>
      <trkpt lat="42.83427" lon="-0.44189">
        <ele>2073.8</ele>
        <time>2021-08-10 12:33:11</time>
      </trkpt>
      <trkpt lat="42.83428" lon="-0.44189">
        <ele>2074</ele>
        <time>2021-08-10 12:33:12</time>
      </trkpt>
      <trkpt lat="42.83423" lon="-0.44184">
        <ele>2073.6</ele>
        <time>2021-08-10 12:33:13</time>
      </trkpt>
      <trkpt lat="42.83423" lon="-0.44184">
        <ele>2073.6</ele>
        <time>2021-08-10 12:33:14</time>
      </trkpt>
      <trkpt lat="42.83423" lon="-0.44184">
        <ele>2073.6</ele>
        <time>2021-08-10 12:33:15</time>
      </trkpt>
      <trkpt lat="42.83423" lon="-0.44185">
        <ele>2073.6</ele>
        <time>2021-08-10 12:33:16</time>
      </trkpt>
      <trkpt lat="42.83423" lon="-0.44185">
        <ele>2073.4</ele>
        <time>2021-08-10 12:33:17</time>
      </trkpt>
      <trkpt lat="42.83422" lon="-0.44185">
        <ele>2073.6</ele>
        <time>2021-08-10 12:33:18</time>
      </trkpt>
      <trkpt lat="42.83423" lon="-0.44186">
        <ele>2073.6</ele>
        <time>2021-08-10 12:33:19</time>
      </trkpt>
      <trkpt lat="42.83423" lon="-0.44186">
        <ele>2073.4</ele>
        <time>2021-08-10 12:33:20</time>
      </trkpt>
      <trkpt lat="42.83423" lon="-0.44186">
        <ele>2073.6</ele>
        <time>2021-08-10 12:33:21</time>
      </trkpt>
      <trkpt lat="42.83423" lon="-0.44188">
        <ele>2073.6</ele>
        <time>2021-08-10 12:33:22</time>
      </trkpt>
      <trkpt lat="42.83423" lon="-0.44189">
        <ele>2073.6</ele>
        <time>2021-08-10 12:33:23</time>
      </trkpt>
      <trkpt lat="42.83423" lon="-0.4419">
        <ele>2073.6</ele>
        <time>2021-08-10 12:33:24</time>
      </trkpt>
      <trkpt lat="42.83421" lon="-0.44193">
        <ele>2073.6</ele>
        <time>2021-08-10 12:33:25</time>
      </trkpt>
      <trkpt lat="42.83421" lon="-0.44194">
        <ele>2073.8</ele>
        <time>2021-08-10 12:33:26</time>
      </trkpt>
      <trkpt lat="42.83421" lon="-0.44193">
        <ele>2073.8</ele>
        <time>2021-08-10 12:33:27</time>
      </trkpt>
      <trkpt lat="42.83421" lon="-0.4419">
        <ele>2073.8</ele>
        <time>2021-08-10 12:33:29</time>
      </trkpt>
      <trkpt lat="42.83421" lon="-0.44188">
        <ele>2073.8</ele>
      </trkpt>
      <trkpt lat="42.83421" lon="-0.44188">
        <ele>2074</ele>
        <time>2021-08-10 12:33:30</time>
      </trkpt>
      <trkpt lat="42.8342" lon="-0.44188">
        <ele>2073.6</ele>
        <time>2021-08-10 12:33:31</time>
      </trkpt>
      <trkpt lat="42.8342" lon="-0.44188">
        <ele>2074</ele>
        <time>2021-08-10 12:33:32</time>
      </trkpt>
      <trkpt lat="42.8342" lon="-0.44187">
        <ele>2074</ele>
        <time>2021-08-10 12:33:33</time>
      </trkpt>
      <trkpt lat="42.8342" lon="-0.44187">
        <ele>2073.8</ele>
        <time>2021-08-10 12:33:34</time>
      </trkpt>
      <trkpt lat="42.8342" lon="-0.44186">
        <ele>2074.8</ele>
        <time>2021-08-10 12:33:35</time>
      </trkpt>
      <trkpt lat="42.8342" lon="-0.44186">
        <ele>2073.8</ele>
        <time>2021-08-10 12:33:37</time>
      </trkpt>
      <trkpt lat="42.8342" lon="-0.44186">
        <ele>2073.6</ele>
        <time>2021-08-10 12:33:38</time>
      </trkpt>
      <trkpt lat="42.8342" lon="-0.44186">
        <ele>2074</ele>
        <time>2021-08-10 12:33:39</time>
      </trkpt>
      <trkpt lat="42.8342" lon="-0.44185">
        <ele>2074</ele>
        <time>2021-08-10 12:33:40</time>
      </trkpt>
      <trkpt lat="42.8342" lon="-0.44186">
        <ele>2074</ele>
        <time>2021-08-10 12:33:41</time>
      </trkpt>
      <trkpt lat="42.8342" lon="-0.44186">
        <ele>2073.8</ele>
        <time>2021-08-10 12:33:42</time>
      </trkpt>
      <trkpt lat="42.8342" lon="-0.44186">
        <ele>2073.8</ele>
        <time>2021-08-10 12:33:43</time>
      </trkpt>
      <trkpt lat="42.8342" lon="-0.44187">
        <ele>2073.6</ele>
        <time>2021-08-10 12:33:44</time>
      </trkpt>
      <trkpt lat="42.8342" lon="-0.44186">
        <ele>2073.8</ele>
        <time>2021-08-10 12:33:45</time>
      </trkpt>
      <trkpt lat="42.8342" lon="-0.44184">
        <ele>2074</ele>
        <time>2021-08-10 12:33:46</time>
      </trkpt>
      <trkpt lat="42.83419" lon="-0.44183">
        <ele>2074</ele>
        <time>2021-08-10 12:33:47</time>
      </trkpt>
      <trkpt lat="42.83419" lon="-0.44183">
        <ele>2074</ele>
        <time>2021-08-10 12:33:48</time>
      </trkpt>
      <trkpt lat="42.83418" lon="-0.44182">
        <ele>2073.8</ele>
        <time>2021-08-10 12:33:50</time>
      </trkpt>
      <trkpt lat="42.83418" lon="-0.44182">
        <ele>2073.8</ele>
      </trkpt>
      <trkpt lat="42.83418" lon="-0.44182">
        <ele>2073.8</ele>
        <time>2021-08-10 12:33:51</time>
      </trkpt>
      <trkpt lat="42.83418" lon="-0.44181">
        <ele>2074</ele>
        <time>2021-08-10 12:33:52</time>
      </trkpt>
      <trkpt lat="42.83424" lon="-0.44182">
        <ele>2073.8</ele>
        <time>2021-08-10 12:33:53</time>
      </trkpt>
      <trkpt lat="42.83423" lon="-0.44182">
        <ele>2074</ele>
        <time>2021-08-10 12:33:54</time>
      </trkpt>
      <trkpt lat="42.83423" lon="-0.44182">
        <ele>2074</ele>
        <time>2021-08-10 12:33:55</time>
      </trkpt>
      <trkpt lat="42.83423" lon="-0.44182">
        <ele>2074.2</ele>
        <time>2021-08-10 12:33:56</time>
      </trkpt>
      <trkpt lat="42.83423" lon="-0.44181">
        <ele>2074.2</ele>
        <time>2021-08-10 12:33:57</time>
      </trkpt>
      <trkpt lat="42.83422" lon="-0.44181">
        <ele>2074.4</ele>
        <time>2021-08-10 12:33:58</time>
      </trkpt>
      <trkpt lat="42.83422" lon="-0.44181">
        <ele>2074.6</ele>
        <time>2021-08-10 12:33:59</time>
      </trkpt>
      <trkpt lat="42.83419" lon="-0.4418">
        <ele>2074.6</ele>
        <time>2021-08-10 12:34:00</time>
      </trkpt>
      <trkpt lat="42.83419" lon="-0.4418">
        <ele>2074.8</ele>
        <time>2021-08-10 12:34:01</time>
      </trkpt>
      <trkpt lat="42.83418" lon="-0.44179">
        <ele>2075</ele>
        <time>2021-08-10 12:34:02</time>
      </trkpt>
      <trkpt lat="42.83418" lon="-0.44179">
        <ele>2075.2</ele>
        <time>2021-08-10 12:34:03</time>
      </trkpt>
      <trkpt lat="42.83418" lon="-0.44178">
        <ele>2075.2</ele>
        <time>2021-08-10 12:34:04</time>
      </trkpt>
      <trkpt lat="42.83419" lon="-0.44178">
        <ele>2075.4</ele>
        <time>2021-08-10 12:34:05</time>
      </trkpt>
      <trkpt lat="42.83419" lon="-0.44177">
        <ele>2075.4</ele>
        <time>2021-08-10 12:34:06</time>
      </trkpt>
      <trkpt lat="42.83419" lon="-0.44177">
        <ele>2075.6</ele>
        <time>2021-08-10 12:34:07</time>
      </trkpt>
      <trkpt lat="42.83419" lon="-0.44177">
        <ele>2075.6</ele>
        <time>2021-08-10 12:34:08</time>
      </trkpt>
      <trkpt lat="42.83419" lon="-0.44176">
        <ele>2075.8</ele>
        <time>2021-08-10 12:34:09</time>
      </trkpt>
      <trkpt lat="42.83419" lon="-0.44177">
        <ele>2076</ele>
        <time>2021-08-10 12:34:10</time>
      </trkpt>
      <trkpt lat="42.8342" lon="-0.44176">
        <ele>2076.2</ele>
        <time>2021-08-10 12:34:11</time>
      </trkpt>
      <trkpt lat="42.8342" lon="-0.44176">
        <ele>2076.6</ele>
        <time>2021-08-10 12:34:12</time>
      </trkpt>
      <trkpt lat="42.8342" lon="-0.44176">
        <ele>2076.8</ele>
        <time>2021-08-10 12:34:13</time>
      </trkpt>
      <trkpt lat="42.83419" lon="-0.44176">
        <ele>2077</ele>
        <time>2021-08-10 12:34:14</time>
      </trkpt>
      <trkpt lat="42.8342" lon="-0.44176">
        <ele>2077</ele>
        <time>2021-08-10 12:34:15</time>
      </trkpt>
      <trkpt lat="42.8342" lon="-0.44176">
        <ele>2077</ele>
        <time>2021-08-10 12:34:16</time>
      </trkpt>
      <trkpt lat="42.8342" lon="-0.44176">
        <ele>2077.2</ele>
        <time>2021-08-10 12:34:17</time>
      </trkpt>
      <trkpt lat="42.83419" lon="-0.44176">
        <ele>2077.6</ele>
        <time>2021-08-10 12:34:18</time>
      </trkpt>
      <trkpt lat="42.83419" lon="-0.44177">
        <ele>2077.8</ele>
        <time>2021-08-10 12:34:19</time>
      </trkpt>
      <trkpt lat="42.83419" lon="-0.44179">
        <ele>2078</ele>
        <time>2021-08-10 12:34:20</time>
      </trkpt>
      <trkpt lat="42.83419" lon="-0.4418">
        <ele>2078.2</ele>
        <time>2021-08-10 12:34:21</time>
      </trkpt>
      <trkpt lat="42.83418" lon="-0.44179">
        <ele>2078.4</ele>
        <time>2021-08-10 12:34:22</time>
      </trkpt>
      <trkpt lat="42.83417" lon="-0.44179">
        <ele>2078.4</ele>
        <time>2021-08-10 12:34:23</time>
      </trkpt>
      <trkpt lat="42.83417" lon="-0.44179">
        <ele>2078.6</ele>
        <time>2021-08-10 12:34:24</time>
      </trkpt>
      <trkpt lat="42.83417" lon="-0.44179">
        <ele>2078.6</ele>
        <time>2021-08-10 12:34:25</time>
      </trkpt>
      <trkpt lat="42.83416" lon="-0.44179">
        <ele>2078.8</ele>
        <time>2021-08-10 12:34:26</time>
      </trkpt>
      <trkpt lat="42.83416" lon="-0.44178">
        <ele>2079.2</ele>
        <time>2021-08-10 12:34:28</time>
      </trkpt>
      <trkpt lat="42.83415" lon="-0.44178">
        <ele>2079.4</ele>
        <time>2021-08-10 12:34:29</time>
      </trkpt>
      <trkpt lat="42.83415" lon="-0.44177">
        <ele>2079.6</ele>
        <time>2021-08-10 12:34:30</time>
      </trkpt>
      <trkpt lat="42.83415" lon="-0.44176">
        <ele>2079.6</ele>
        <time>2021-08-10 12:34:33</time>
      </trkpt>
      <trkpt lat="42.83416" lon="-0.44176">
        <ele>2079.8</ele>
        <time>2021-08-10 12:34:34</time>
      </trkpt>
      <trkpt lat="42.83416" lon="-0.44176">
        <ele>2079.8</ele>
        <time>2021-08-10 12:34:35</time>
      </trkpt>
      <trkpt lat="42.83417" lon="-0.44175">
        <ele>2080</ele>
        <time>2021-08-10 12:34:36</time>
      </trkpt>
      <trkpt lat="42.83417" lon="-0.44175">
        <ele>2080.4</ele>
        <time>2021-08-10 12:34:37</time>
      </trkpt>
      <trkpt lat="42.83418" lon="-0.44175">
        <ele>2080.4</ele>
        <time>2021-08-10 12:34:38</time>
      </trkpt>
      <trkpt lat="42.83418" lon="-0.44175">
        <ele>2080.6</ele>
        <time>2021-08-10 12:34:39</time>
      </trkpt>
      <trkpt lat="42.83419" lon="-0.44173">
        <ele>2080.6</ele>
        <time>2021-08-10 12:34:40</time>
      </trkpt>
      <trkpt lat="42.8342" lon="-0.44172">
        <ele>2080.6</ele>
        <time>2021-08-10 12:34:41</time>
      </trkpt>
      <trkpt lat="42.8342" lon="-0.44172">
        <ele>2080.6</ele>
        <time>2021-08-10 12:34:42</time>
      </trkpt>
      <trkpt lat="42.83421" lon="-0.44171">
        <ele>2080.8</ele>
        <time>2021-08-10 12:34:43</time>
      </trkpt>
      <trkpt lat="42.83422" lon="-0.44171">
        <ele>2081</ele>
        <time>2021-08-10 12:34:44</time>
      </trkpt>
      <trkpt lat="42.83422" lon="-0.44169">
        <ele>2081.2</ele>
        <time>2021-08-10 12:34:45</time>
      </trkpt>
      <trkpt lat="42.83423" lon="-0.44169">
        <ele>2081.2</ele>
        <time>2021-08-10 12:34:46</time>
      </trkpt>
      <trkpt lat="42.83423" lon="-0.44169">
        <ele>2081.2</ele>
        <time>2021-08-10 12:34:47</time>
      </trkpt>
      <trkpt lat="42.83423" lon="-0.44169">
        <ele>2081.4</ele>
        <time>2021-08-10 12:34:49</time>
      </trkpt>
      <trkpt lat="42.83423" lon="-0.44169">
        <ele>2081.6</ele>
        <time>2021-08-10 12:34:50</time>
      </trkpt>
      <trkpt lat="42.83424" lon="-0.44169">
        <ele>2082</ele>
        <time>2021-08-10 12:34:51</time>
      </trkpt>
      <trkpt lat="42.83424" lon="-0.44169">
        <ele>2082</ele>
        <time>2021-08-10 12:34:52</time>
      </trkpt>
      <trkpt lat="42.83424" lon="-0.44169">
        <ele>2082</ele>
        <time>2021-08-10 12:34:53</time>
      </trkpt>
      <trkpt lat="42.83424" lon="-0.44169">
        <ele>2082.4</ele>
        <time>2021-08-10 12:34:54</time>
      </trkpt>
      <trkpt lat="42.83424" lon="-0.44169">
        <ele>2082.4</ele>
        <time>2021-08-10 12:34:55</time>
      </trkpt>
      <trkpt lat="42.83424" lon="-0.44168">
        <ele>2082.4</ele>
        <time>2021-08-10 12:35:34</time>
      </trkpt>
      <trkpt lat="42.83424" lon="-0.44168">
        <ele>2082.6</ele>
        <time>2021-08-10 12:35:35</time>
      </trkpt>
      <trkpt lat="42.83423" lon="-0.44167">
        <ele>2083</ele>
        <time>2021-08-10 12:35:36</time>
      </trkpt>
      <trkpt lat="42.83423" lon="-0.44166">
        <ele>2083</ele>
        <time>2021-08-10 12:35:37</time>
      </trkpt>
      <trkpt lat="42.83423" lon="-0.44165">
        <ele>2083</ele>
        <time>2021-08-10 12:36:20</time>
      </trkpt>
      <trkpt lat="42.83423" lon="-0.44165">
        <ele>2083</ele>
        <time>2021-08-10 12:36:21</time>
      </trkpt>
      <trkpt lat="42.83423" lon="-0.44165">
        <ele>2083.2</ele>
        <time>2021-08-10 12:36:22</time>
      </trkpt>
      <trkpt lat="42.83422" lon="-0.44164">
        <ele>2083.4</ele>
        <time>2021-08-10 12:36:23</time>
      </trkpt>
      <trkpt lat="42.83422" lon="-0.44164">
        <ele>2083.6</ele>
        <time>2021-08-10 12:36:24</time>
      </trkpt>
      <trkpt lat="42.83422" lon="-0.44164">
        <ele>2083.8</ele>
        <time>2021-08-10 12:36:25</time>
      </trkpt>
      <trkpt lat="42.83422" lon="-0.44164">
        <ele>2084</ele>
        <time>2021-08-10 12:36:27</time>
      </trkpt>
      <trkpt lat="42.83422" lon="-0.44164">
        <ele>2084.4</ele>
        <time>2021-08-10 12:36:28</time>
      </trkpt>
      <trkpt lat="42.83422" lon="-0.44164">
        <ele>2084.6</ele>
        <time>2021-08-10 12:36:29</time>
      </trkpt>
      <trkpt lat="42.83422" lon="-0.44163">
        <ele>2084.8</ele>
        <time>2021-08-10 12:36:35</time>
      </trkpt>
      <trkpt lat="42.83422" lon="-0.44162">
        <ele>2085</ele>
        <time>2021-08-10 12:36:36</time>
      </trkpt>
      <trkpt lat="42.83421" lon="-0.44162">
        <ele>2085.2</ele>
        <time>2021-08-10 12:36:37</time>
      </trkpt>
      <trkpt lat="42.83421" lon="-0.44161">
        <ele>2085.2</ele>
        <time>2021-08-10 12:36:47</time>
      </trkpt>
      <trkpt lat="42.83421" lon="-0.44161">
        <ele>2085.6</ele>
        <time>2021-08-10 12:36:48</time>
      </trkpt>
      <trkpt lat="42.8342" lon="-0.4416">
        <ele>2085.2</ele>
        <time>2021-08-10 12:36:49</time>
      </trkpt>
      <trkpt lat="42.8342" lon="-0.4416">
        <ele>2085.8</ele>
        <time>2021-08-10 12:36:51</time>
      </trkpt>
      <trkpt lat="42.8342" lon="-0.4416">
        <ele>2085.4</ele>
        <time>2021-08-10 12:36:52</time>
      </trkpt>
      <trkpt lat="42.83419" lon="-0.4416">
        <ele>2085.8</ele>
        <time>2021-08-10 12:36:53</time>
      </trkpt>
      <trkpt lat="42.83419" lon="-0.44159">
        <ele>2085.8</ele>
        <time>2021-08-10 12:36:56</time>
      </trkpt>
      <trkpt lat="42.83419" lon="-0.44159">
        <ele>2086.2</ele>
        <time>2021-08-10 12:36:57</time>
      </trkpt>
      <trkpt lat="42.83418" lon="-0.44159">
        <ele>2085.8</ele>
        <time>2021-08-10 12:36:58</time>
      </trkpt>
      <trkpt lat="42.83418" lon="-0.44158">
        <ele>2086.6</ele>
        <time>2021-08-10 12:36:59</time>
      </trkpt>
      <trkpt lat="42.83418" lon="-0.44157">
        <ele>2086.8</ele>
        <time>2021-08-10 12:37:00</time>
      </trkpt>
      <trkpt lat="42.83418" lon="-0.44157">
        <ele>2087</ele>
        <time>2021-08-10 12:37:01</time>
      </trkpt>
      <trkpt lat="42.83418" lon="-0.44156">
        <ele>2087</ele>
        <time>2021-08-10 12:37:02</time>
      </trkpt>
      <trkpt lat="42.83417" lon="-0.44156">
        <ele>2087.2</ele>
        <time>2021-08-10 12:37:07</time>
      </trkpt>
      <trkpt lat="42.83417" lon="-0.44156">
        <ele>2087.6</ele>
        <time>2021-08-10 12:37:08</time>
      </trkpt>
      <trkpt lat="42.83417" lon="-0.44155">
        <ele>2087.4</ele>
        <time>2021-08-10 12:37:09</time>
      </trkpt>
      <trkpt lat="42.83416" lon="-0.44154">
        <ele>2087.8</ele>
        <time>2021-08-10 12:37:10</time>
      </trkpt>
      <trkpt lat="42.83416" lon="-0.44153">
        <ele>2088</ele>
        <time>2021-08-10 12:37:11</time>
      </trkpt>
      <trkpt lat="42.83416" lon="-0.44153">
        <ele>2087.8</ele>
        <time>2021-08-10 12:37:12</time>
      </trkpt>
      <trkpt lat="42.83416" lon="-0.44153">
        <ele>2088</ele>
        <time>2021-08-10 12:37:13</time>
      </trkpt>
      <trkpt lat="42.83417" lon="-0.44153">
        <ele>2088</ele>
        <time>2021-08-10 12:37:14</time>
      </trkpt>
      <trkpt lat="42.83417" lon="-0.44153">
        <ele>2088.2</ele>
        <time>2021-08-10 12:37:15</time>
      </trkpt>
      <trkpt lat="42.83418" lon="-0.44152">
        <ele>2088.6</ele>
        <time>2021-08-10 12:37:16</time>
      </trkpt>
      <trkpt lat="42.83419" lon="-0.44152">
        <ele>2088.8</ele>
        <time>2021-08-10 12:37:17</time>
      </trkpt>
      <trkpt lat="42.83419" lon="-0.44151">
        <ele>2088.8</ele>
        <time>2021-08-10 12:37:18</time>
      </trkpt>
      <trkpt lat="42.83419" lon="-0.44151">
        <ele>2088.8</ele>
        <time>2021-08-10 12:37:19</time>
      </trkpt>
      <trkpt lat="42.83419" lon="-0.44151">
        <ele>2089</ele>
        <time>2021-08-10 12:37:20</time>
      </trkpt>
      <trkpt lat="42.83418" lon="-0.4415">
        <ele>2088.8</ele>
        <time>2021-08-10 12:37:43</time>
      </trkpt>
      <trkpt lat="42.83419" lon="-0.4415">
        <ele>2089</ele>
        <time>2021-08-10 12:37:44</time>
      </trkpt>
      <trkpt lat="42.83419" lon="-0.44149">
        <ele>2089</ele>
        <time>2021-08-10 12:37:45</time>
      </trkpt>
      <trkpt lat="42.83418" lon="-0.4415">
        <ele>2089.2</ele>
        <time>2021-08-10 12:37:46</time>
      </trkpt>
      <trkpt lat="42.83417" lon="-0.4415">
        <ele>2089</ele>
        <time>2021-08-10 12:37:47</time>
      </trkpt>
      <trkpt lat="42.83417" lon="-0.44149">
        <ele>2089.4</ele>
        <time>2021-08-10 12:37:48</time>
      </trkpt>
      <trkpt lat="42.83416" lon="-0.44148">
        <ele>2089.8</ele>
        <time>2021-08-10 12:37:49</time>
      </trkpt>
      <trkpt lat="42.83415" lon="-0.44148">
        <ele>2090</ele>
        <time>2021-08-10 12:37:50</time>
      </trkpt>
      <trkpt lat="42.83416" lon="-0.44147">
        <ele>2090.2</ele>
        <time>2021-08-10 12:37:51</time>
      </trkpt>
      <trkpt lat="42.83415" lon="-0.44147">
        <ele>2090.2</ele>
        <time>2021-08-10 12:37:52</time>
      </trkpt>
      <trkpt lat="42.83415" lon="-0.44146">
        <ele>2090.4</ele>
        <time>2021-08-10 12:37:53</time>
      </trkpt>
      <trkpt lat="42.83415" lon="-0.44146">
        <ele>2090.6</ele>
        <time>2021-08-10 12:37:54</time>
      </trkpt>
      <trkpt lat="42.83415" lon="-0.44146">
        <ele>2090.8</ele>
        <time>2021-08-10 12:37:55</time>
      </trkpt>
      <trkpt lat="42.83415" lon="-0.44145">
        <ele>2091</ele>
        <time>2021-08-10 12:37:56</time>
      </trkpt>
      <trkpt lat="42.83415" lon="-0.44145">
        <ele>2091.2</ele>
        <time>2021-08-10 12:37:57</time>
      </trkpt>
      <trkpt lat="42.83415" lon="-0.44145">
        <ele>2091.4</ele>
        <time>2021-08-10 12:37:58</time>
      </trkpt>
      <trkpt lat="42.83414" lon="-0.44144">
        <ele>2091.6</ele>
        <time>2021-08-10 12:37:59</time>
      </trkpt>
      <trkpt lat="42.83413" lon="-0.44142">
        <ele>2091.4</ele>
        <time>2021-08-10 12:38:00</time>
      </trkpt>
      <trkpt lat="42.83413" lon="-0.44141">
        <ele>2091.8</ele>
        <time>2021-08-10 12:38:01</time>
      </trkpt>
      <trkpt lat="42.83414" lon="-0.44142">
        <ele>2092</ele>
        <time>2021-08-10 12:38:02</time>
      </trkpt>
      <trkpt lat="42.83417" lon="-0.4414">
        <ele>2092</ele>
        <time>2021-08-10 12:38:03</time>
      </trkpt>
      <trkpt lat="42.83417" lon="-0.4414">
        <ele>2092</ele>
        <time>2021-08-10 12:38:04</time>
      </trkpt>
      <trkpt lat="42.83417" lon="-0.4414">
        <ele>2092.2</ele>
        <time>2021-08-10 12:38:05</time>
      </trkpt>
      <trkpt lat="42.83417" lon="-0.4414">
        <ele>2092.4</ele>
        <time>2021-08-10 12:38:06</time>
      </trkpt>
      <trkpt lat="42.83417" lon="-0.44139">
        <ele>2092.4</ele>
        <time>2021-08-10 12:38:07</time>
      </trkpt>
      <trkpt lat="42.83417" lon="-0.44139">
        <ele>2092.4</ele>
        <time>2021-08-10 12:38:09</time>
      </trkpt>
      <trkpt lat="42.83417" lon="-0.44139">
        <ele>2092.8</ele>
        <time>2021-08-10 12:38:10</time>
      </trkpt>
      <trkpt lat="42.83417" lon="-0.44139">
        <ele>2093</ele>
        <time>2021-08-10 12:38:11</time>
      </trkpt>
      <trkpt lat="42.83418" lon="-0.44138">
        <ele>2093</ele>
        <time>2021-08-10 12:38:12</time>
      </trkpt>
      <trkpt lat="42.83419" lon="-0.44138">
        <ele>2093.2</ele>
        <time>2021-08-10 12:38:13</time>
      </trkpt>
      <trkpt lat="42.83419" lon="-0.44138">
        <ele>2093.6</ele>
        <time>2021-08-10 12:38:14</time>
      </trkpt>
      <trkpt lat="42.8342" lon="-0.44138">
        <ele>2093</ele>
        <time>2021-08-10 12:38:15</time>
      </trkpt>
      <trkpt lat="42.8342" lon="-0.44138">
        <ele>2093.4</ele>
        <time>2021-08-10 12:38:16</time>
      </trkpt>
      <trkpt lat="42.83421" lon="-0.44138">
        <ele>2093.6</ele>
        <time>2021-08-10 12:38:17</time>
      </trkpt>
      <trkpt lat="42.83422" lon="-0.44138">
        <ele>2093.6</ele>
        <time>2021-08-10 12:38:18</time>
      </trkpt>
      <trkpt lat="42.83423" lon="-0.44137">
        <ele>2093.8</ele>
        <time>2021-08-10 12:38:19</time>
      </trkpt>
      <trkpt lat="42.83423" lon="-0.44138">
        <ele>2093.8</ele>
        <time>2021-08-10 12:38:20</time>
      </trkpt>
      <trkpt lat="42.83425" lon="-0.44138">
        <ele>2094</ele>
        <time>2021-08-10 12:38:21</time>
      </trkpt>
      <trkpt lat="42.83425" lon="-0.44138">
        <ele>2094</ele>
        <time>2021-08-10 12:38:22</time>
      </trkpt>
      <trkpt lat="42.83425" lon="-0.44139">
        <ele>2094.2</ele>
        <time>2021-08-10 12:38:23</time>
      </trkpt>
      <trkpt lat="42.83425" lon="-0.44139">
        <ele>2094</ele>
        <time>2021-08-10 12:38:24</time>
      </trkpt>
      <trkpt lat="42.83426" lon="-0.44138">
        <ele>2094.4</ele>
        <time>2021-08-10 12:38:25</time>
      </trkpt>
      <trkpt lat="42.83426" lon="-0.44138">
        <ele>2094.4</ele>
        <time>2021-08-10 12:38:26</time>
      </trkpt>
      <trkpt lat="42.83427" lon="-0.44138">
        <ele>2094.6</ele>
        <time>2021-08-10 12:38:27</time>
      </trkpt>
      <trkpt lat="42.83427" lon="-0.44138">
        <ele>2094.6</ele>
        <time>2021-08-10 12:38:28</time>
      </trkpt>
      <trkpt lat="42.83428" lon="-0.44138">
        <ele>2094.8</ele>
        <time>2021-08-10 12:38:29</time>
      </trkpt>
      <trkpt lat="42.83428" lon="-0.44139">
        <ele>2095.2</ele>
        <time>2021-08-10 12:38:30</time>
      </trkpt>
      <trkpt lat="42.83428" lon="-0.44139">
        <ele>2095.2</ele>
        <time>2021-08-10 12:38:31</time>
      </trkpt>
      <trkpt lat="42.83429" lon="-0.44139">
        <ele>2095.2</ele>
        <time>2021-08-10 12:38:32</time>
      </trkpt>
      <trkpt lat="42.8343" lon="-0.44138">
        <ele>2095.4</ele>
        <time>2021-08-10 12:38:33</time>
      </trkpt>
      <trkpt lat="42.8343" lon="-0.44139">
        <ele>2095.4</ele>
        <time>2021-08-10 12:38:34</time>
      </trkpt>
      <trkpt lat="42.8343" lon="-0.44138">
        <ele>2095.6</ele>
        <time>2021-08-10 12:38:35</time>
      </trkpt>
      <trkpt lat="42.8343" lon="-0.44138">
        <ele>2095.8</ele>
        <time>2021-08-10 12:38:36</time>
      </trkpt>
      <trkpt lat="42.83431" lon="-0.44138">
        <ele>2095.8</ele>
        <time>2021-08-10 12:38:37</time>
      </trkpt>
      <trkpt lat="42.83431" lon="-0.44137">
        <ele>2096</ele>
        <time>2021-08-10 12:38:38</time>
      </trkpt>
      <trkpt lat="42.8343" lon="-0.44136">
        <ele>2095.8</ele>
        <time>2021-08-10 12:38:39</time>
      </trkpt>
      <trkpt lat="42.8343" lon="-0.44135">
        <ele>2096.2</ele>
        <time>2021-08-10 12:38:40</time>
      </trkpt>
      <trkpt lat="42.83429" lon="-0.44135">
        <ele>2096.2</ele>
        <time>2021-08-10 12:38:46</time>
      </trkpt>
      <trkpt lat="42.83429" lon="-0.44135">
        <ele>2096.6</ele>
        <time>2021-08-10 12:38:47</time>
      </trkpt>
      <trkpt lat="42.83428" lon="-0.44135">
        <ele>2096.6</ele>
        <time>2021-08-10 12:38:48</time>
      </trkpt>
      <trkpt lat="42.83428" lon="-0.44134">
        <ele>2096.8</ele>
        <time>2021-08-10 12:38:49</time>
      </trkpt>
      <trkpt lat="42.83427" lon="-0.44134">
        <ele>2097</ele>
        <time>2021-08-10 12:38:50</time>
      </trkpt>
      <trkpt lat="42.83428" lon="-0.44133">
        <ele>2097</ele>
        <time>2021-08-10 12:38:51</time>
      </trkpt>
      <trkpt lat="42.83428" lon="-0.44132">
        <ele>2097.2</ele>
        <time>2021-08-10 12:38:52</time>
      </trkpt>
      <trkpt lat="42.83429" lon="-0.44132">
        <ele>2097.2</ele>
        <time>2021-08-10 12:38:53</time>
      </trkpt>
      <trkpt lat="42.83429" lon="-0.44132">
        <ele>2097.6</ele>
        <time>2021-08-10 12:38:54</time>
      </trkpt>
      <trkpt lat="42.83429" lon="-0.44132">
        <ele>2097.6</ele>
        <time>2021-08-10 12:38:55</time>
      </trkpt>
      <trkpt lat="42.83429" lon="-0.44132">
        <ele>2098</ele>
        <time>2021-08-10 12:38:56</time>
      </trkpt>
      <trkpt lat="42.83428" lon="-0.44132">
        <ele>2098.2</ele>
        <time>2021-08-10 12:38:57</time>
      </trkpt>
      <trkpt lat="42.83428" lon="-0.44131">
        <ele>2098.2</ele>
        <time>2021-08-10 12:38:58</time>
      </trkpt>
      <trkpt lat="42.83427" lon="-0.44132">
        <ele>2098.2</ele>
        <time>2021-08-10 12:38:59</time>
      </trkpt>
      <trkpt lat="42.83427" lon="-0.44131">
        <ele>2098.6</ele>
      </trkpt>
      <trkpt lat="42.83426" lon="-0.44131">
        <ele>2098.8</ele>
        <time>2021-08-10 12:39:01</time>
      </trkpt>
      <trkpt lat="42.83426" lon="-0.44131">
        <ele>2098.8</ele>
        <time>2021-08-10 12:39:02</time>
      </trkpt>
      <trkpt lat="42.83426" lon="-0.4413">
        <ele>2098.8</ele>
        <time>2021-08-10 12:39:03</time>
      </trkpt>
      <trkpt lat="42.83426" lon="-0.4413">
        <ele>2098.6</ele>
        <time>2021-08-10 12:39:04</time>
      </trkpt>
      <trkpt lat="42.83425" lon="-0.4413">
        <ele>2098.8</ele>
        <time>2021-08-10 12:39:05</time>
      </trkpt>
      <trkpt lat="42.83425" lon="-0.44129">
        <ele>2099</ele>
        <time>2021-08-10 12:39:06</time>
      </trkpt>
      <trkpt lat="42.83426" lon="-0.44129">
        <ele>2099.2</ele>
        <time>2021-08-10 12:39:07</time>
      </trkpt>
      <trkpt lat="42.83427" lon="-0.44129">
        <ele>2099.2</ele>
        <time>2021-08-10 12:39:08</time>
      </trkpt>
      <trkpt lat="42.83427" lon="-0.44128">
        <ele>2099.2</ele>
        <time>2021-08-10 12:39:09</time>
      </trkpt>
      <trkpt lat="42.83428" lon="-0.44129">
        <ele>2099.4</ele>
        <time>2021-08-10 12:39:10</time>
      </trkpt>
      <trkpt lat="42.83428" lon="-0.44129">
        <ele>2099.2</ele>
        <time>2021-08-10 12:39:11</time>
      </trkpt>
      <trkpt lat="42.83429" lon="-0.44129">
        <ele>2099.2</ele>
        <time>2021-08-10 12:39:12</time>
      </trkpt>
      <trkpt lat="42.8343" lon="-0.44129">
        <ele>2099.2</ele>
        <time>2021-08-10 12:39:13</time>
      </trkpt>
      <trkpt lat="42.83431" lon="-0.44129">
        <ele>2099.2</ele>
        <time>2021-08-10 12:39:14</time>
      </trkpt>
      <trkpt lat="42.83431" lon="-0.44129">
        <ele>2099.4</ele>
      </trkpt>
      <trkpt lat="42.83432" lon="-0.44129">
        <ele>2099.8</ele>
        <time>2021-08-10 12:39:15</time>
      </trkpt>
      <trkpt lat="42.83432" lon="-0.44129">
        <ele>2099.8</ele>
        <time>2021-08-10 12:39:16</time>
      </trkpt>
      <trkpt lat="42.83432" lon="-0.44129">
        <ele>2100</ele>
        <time>2021-08-10 12:39:17</time>
      </trkpt>
      <trkpt lat="42.83432" lon="-0.44128">
        <ele>2100.2</ele>
        <time>2021-08-10 12:39:18</time>
      </trkpt>
      <trkpt lat="42.83432" lon="-0.44128">
        <ele>2100.4</ele>
        <time>2021-08-10 12:39:20</time>
      </trkpt>
      <trkpt lat="42.83433" lon="-0.44128">
        <ele>2100.4</ele>
      </trkpt>
      <trkpt lat="42.83433" lon="-0.44128">
        <ele>2100.4</ele>
        <time>2021-08-10 12:39:21</time>
      </trkpt>
      <trkpt lat="42.83434" lon="-0.44129">
        <ele>2100.6</ele>
        <time>2021-08-10 12:39:22</time>
      </trkpt>
      <trkpt lat="42.83434" lon="-0.44129">
        <ele>2100.8</ele>
        <time>2021-08-10 12:39:23</time>
      </trkpt>
      <trkpt lat="42.83435" lon="-0.44129">
        <ele>2100.8</ele>
        <time>2021-08-10 12:39:24</time>
      </trkpt>
      <trkpt lat="42.83435" lon="-0.44129">
        <ele>2100.8</ele>
        <time>2021-08-10 12:39:25</time>
      </trkpt>
      <trkpt lat="42.83435" lon="-0.44129">
        <ele>2100.8</ele>
        <time>2021-08-10 12:39:26</time>
      </trkpt>
      <trkpt lat="42.83435" lon="-0.44129">
        <ele>2100.8</ele>
        <time>2021-08-10 12:39:27</time>
      </trkpt>
      <trkpt lat="42.83435" lon="-0.44129">
        <ele>2100.8</ele>
        <time>2021-08-10 12:39:28</time>
      </trkpt>
      <trkpt lat="42.83435" lon="-0.44129">
        <ele>2100.8</ele>
        <time>2021-08-10 12:39:29</time>
      </trkpt>
      <trkpt lat="42.83436" lon="-0.44129">
        <ele>2100.8</ele>
        <time>2021-08-10 12:39:30</time>
      </trkpt>
      <trkpt lat="42.83436" lon="-0.44128">
        <ele>2101</ele>
        <time>2021-08-10 12:39:31</time>
      </trkpt>
      <trkpt lat="42.83436" lon="-0.44128">
        <ele>2101.2</ele>
        <time>2021-08-10 12:39:32</time>
      </trkpt>
      <trkpt lat="42.83436" lon="-0.44127">
        <ele>2101.6</ele>
        <time>2021-08-10 12:39:35</time>
      </trkpt>
      <trkpt lat="42.83436" lon="-0.44126">
        <ele>2101.8</ele>
        <time>2021-08-10 12:39:36</time>
      </trkpt>
      <trkpt lat="42.83436" lon="-0.44126">
        <ele>2102</ele>
        <time>2021-08-10 12:39:37</time>
      </trkpt>
      <trkpt lat="42.83436" lon="-0.44125">
        <ele>2102.4</ele>
        <time>2021-08-10 12:39:38</time>
      </trkpt>
      <trkpt lat="42.83436" lon="-0.44124">
        <ele>2102.4</ele>
        <time>2021-08-10 12:39:41</time>
      </trkpt>
      <trkpt lat="42.83435" lon="-0.44123">
        <ele>2102.6</ele>
        <time>2021-08-10 12:39:42</time>
      </trkpt>
      <trkpt lat="42.83435" lon="-0.44123">
        <ele>2102.4</ele>
        <time>2021-08-10 12:39:44</time>
      </trkpt>
      <trkpt lat="42.83435" lon="-0.44123">
        <ele>2102.4</ele>
      </trkpt>
      <trkpt lat="42.83435" lon="-0.44122">
        <ele>2102.6</ele>
        <time>2021-08-10 12:39:45</time>
      </trkpt>
      <trkpt lat="42.83435" lon="-0.44121">
        <ele>2102.8</ele>
        <time>2021-08-10 12:39:46</time>
      </trkpt>
      <trkpt lat="42.83435" lon="-0.4412">
        <ele>2103.2</ele>
        <time>2021-08-10 12:39:47</time>
      </trkpt>
      <trkpt lat="42.83435" lon="-0.4412">
        <ele>2103.4</ele>
        <time>2021-08-10 12:39:48</time>
      </trkpt>
      <trkpt lat="42.83435" lon="-0.4412">
        <ele>2103.4</ele>
        <time>2021-08-10 12:39:49</time>
      </trkpt>
      <trkpt lat="42.83436" lon="-0.4412">
        <ele>2103.2</ele>
        <time>2021-08-10 12:39:50</time>
      </trkpt>
      <trkpt lat="42.83436" lon="-0.44119">
        <ele>2103.4</ele>
        <time>2021-08-10 12:39:51</time>
      </trkpt>
      <trkpt lat="42.83437" lon="-0.44119">
        <ele>2103.6</ele>
        <time>2021-08-10 12:39:52</time>
      </trkpt>
      <trkpt lat="42.83437" lon="-0.44119">
        <ele>2103.8</ele>
        <time>2021-08-10 12:39:53</time>
      </trkpt>
      <trkpt lat="42.83438" lon="-0.44119">
        <ele>2104</ele>
        <time>2021-08-10 12:39:54</time>
      </trkpt>
      <trkpt lat="42.83438" lon="-0.44119">
        <ele>2104.2</ele>
        <time>2021-08-10 12:39:57</time>
      </trkpt>
      <trkpt lat="42.83439" lon="-0.44118">
        <ele>2104.4</ele>
        <time>2021-08-10 12:39:58</time>
      </trkpt>
      <trkpt lat="42.83439" lon="-0.44118">
        <ele>2104.4</ele>
        <time>2021-08-10 12:39:59</time>
      </trkpt>
      <trkpt lat="42.83439" lon="-0.44118">
        <ele>2104.4</ele>
        <time>2021-08-10 12:40:00</time>
      </trkpt>
      <trkpt lat="42.83438" lon="-0.4412">
        <ele>2104.6</ele>
        <time>2021-08-10 12:40:01</time>
      </trkpt>
      <trkpt lat="42.83438" lon="-0.44119">
        <ele>2104.6</ele>
        <time>2021-08-10 12:40:02</time>
      </trkpt>
      <trkpt lat="42.83438" lon="-0.44119">
        <ele>2105</ele>
        <time>2021-08-10 12:40:03</time>
      </trkpt>
      <trkpt lat="42.83438" lon="-0.4412">
        <ele>2105</ele>
        <time>2021-08-10 12:40:04</time>
      </trkpt>
      <trkpt lat="42.83438" lon="-0.4412">
        <ele>2105.2</ele>
        <time>2021-08-10 12:40:05</time>
      </trkpt>
      <trkpt lat="42.83438" lon="-0.4412">
        <ele>2105</ele>
        <time>2021-08-10 12:40:06</time>
      </trkpt>
      <trkpt lat="42.83438" lon="-0.44121">
        <ele>2105.2</ele>
        <time>2021-08-10 12:40:07</time>
      </trkpt>
      <trkpt lat="42.83438" lon="-0.44121">
        <ele>2105.4</ele>
        <time>2021-08-10 12:40:08</time>
      </trkpt>
      <trkpt lat="42.83437" lon="-0.44121">
        <ele>2105.4</ele>
        <time>2021-08-10 12:40:09</time>
      </trkpt>
      <trkpt lat="42.83437" lon="-0.44121">
        <ele>2105.4</ele>
        <time>2021-08-10 12:40:10</time>
      </trkpt>
      <trkpt lat="42.83436" lon="-0.44121">
        <ele>2105.4</ele>
        <time>2021-08-10 12:40:11</time>
      </trkpt>
      <trkpt lat="42.83436" lon="-0.4412">
        <ele>2105.6</ele>
        <time>2021-08-10 12:40:12</time>
      </trkpt>
      <trkpt lat="42.83435" lon="-0.44119">
        <ele>2105.8</ele>
        <time>2021-08-10 12:40:13</time>
      </trkpt>
      <trkpt lat="42.83436" lon="-0.44119">
        <ele>2105.8</ele>
        <time>2021-08-10 12:40:14</time>
      </trkpt>
      <trkpt lat="42.83436" lon="-0.44118">
        <ele>2106</ele>
        <time>2021-08-10 12:40:15</time>
      </trkpt>
      <trkpt lat="42.83436" lon="-0.44117">
        <ele>2106.2</ele>
        <time>2021-08-10 12:40:16</time>
      </trkpt>
      <trkpt lat="42.83436" lon="-0.44117">
        <ele>2106.4</ele>
        <time>2021-08-10 12:40:19</time>
      </trkpt>
      <trkpt lat="42.83436" lon="-0.44116">
        <ele>2106.6</ele>
        <time>2021-08-10 12:40:20</time>
      </trkpt>
      <trkpt lat="42.83436" lon="-0.44116">
        <ele>2106.6</ele>
        <time>2021-08-10 12:40:21</time>
      </trkpt>
      <trkpt lat="42.83436" lon="-0.44116">
        <ele>2106.8</ele>
        <time>2021-08-10 12:40:22</time>
      </trkpt>
      <trkpt lat="42.83436" lon="-0.44116">
        <ele>2106.8</ele>
        <time>2021-08-10 12:40:23</time>
      </trkpt>
      <trkpt lat="42.83436" lon="-0.44116">
        <ele>2106.8</ele>
        <time>2021-08-10 12:40:24</time>
      </trkpt>
      <trkpt lat="42.83436" lon="-0.44116">
        <ele>2107</ele>
        <time>2021-08-10 12:40:25</time>
      </trkpt>
      <trkpt lat="42.83436" lon="-0.44116">
        <ele>2107.2</ele>
        <time>2021-08-10 12:40:26</time>
      </trkpt>
      <trkpt lat="42.83435" lon="-0.44115">
        <ele>2107.4</ele>
        <time>2021-08-10 12:40:27</time>
      </trkpt>
      <trkpt lat="42.83435" lon="-0.44115">
        <ele>2107.4</ele>
        <time>2021-08-10 12:40:28</time>
      </trkpt>
      <trkpt lat="42.83435" lon="-0.44114">
        <ele>2107.8</ele>
        <time>2021-08-10 12:40:29</time>
      </trkpt>
      <trkpt lat="42.83434" lon="-0.44113">
        <ele>2107.8</ele>
        <time>2021-08-10 12:40:30</time>
      </trkpt>
      <trkpt lat="42.83435" lon="-0.44113">
        <ele>2107.8</ele>
        <time>2021-08-10 12:40:31</time>
      </trkpt>
      <trkpt lat="42.83435" lon="-0.44112">
        <ele>2107.8</ele>
        <time>2021-08-10 12:40:32</time>
      </trkpt>
      <trkpt lat="42.83435" lon="-0.44112">
        <ele>2108.2</ele>
        <time>2021-08-10 12:40:33</time>
      </trkpt>
      <trkpt lat="42.83434" lon="-0.44111">
        <ele>2108</ele>
        <time>2021-08-10 12:40:34</time>
      </trkpt>
      <trkpt lat="42.83434" lon="-0.44111">
        <ele>2108.6</ele>
        <time>2021-08-10 12:40:35</time>
      </trkpt>
      <trkpt lat="42.83434" lon="-0.4411">
        <ele>2108.4</ele>
        <time>2021-08-10 12:40:36</time>
      </trkpt>
      <trkpt lat="42.83434" lon="-0.4411">
        <ele>2109.4</ele>
        <time>2021-08-10 12:40:37</time>
      </trkpt>
      <trkpt lat="42.83434" lon="-0.4411">
        <ele>2109</ele>
        <time>2021-08-10 12:40:38</time>
      </trkpt>
      <trkpt lat="42.83434" lon="-0.4411">
        <ele>2109.4</ele>
        <time>2021-08-10 12:40:39</time>
      </trkpt>
      <trkpt lat="42.83433" lon="-0.44109">
        <ele>2109</ele>
        <time>2021-08-10 12:40:40</time>
      </trkpt>
      <trkpt lat="42.83434" lon="-0.44109">
        <ele>2109.4</ele>
        <time>2021-08-10 12:40:41</time>
      </trkpt>
      <trkpt lat="42.83434" lon="-0.44108">
        <ele>2109</ele>
        <time>2021-08-10 12:40:42</time>
      </trkpt>
      <trkpt lat="42.83435" lon="-0.44107">
        <ele>2109.2</ele>
        <time>2021-08-10 12:40:43</time>
      </trkpt>
      <trkpt lat="42.83436" lon="-0.44106">
        <ele>2109.4</ele>
        <time>2021-08-10 12:40:44</time>
      </trkpt>
      <trkpt lat="42.83436" lon="-0.44105">
        <ele>2109.6</ele>
        <time>2021-08-10 12:40:45</time>
      </trkpt>
      <trkpt lat="42.83436" lon="-0.44105">
        <ele>2109.8</ele>
        <time>2021-08-10 12:40:46</time>
      </trkpt>
      <trkpt lat="42.83437" lon="-0.44105">
        <ele>2109.8</ele>
        <time>2021-08-10 12:40:47</time>
      </trkpt>
      <trkpt lat="42.83437" lon="-0.44104">
        <ele>2109.8</ele>
        <time>2021-08-10 12:40:48</time>
      </trkpt>
      <trkpt lat="42.83438" lon="-0.44103">
        <ele>2110.2</ele>
        <time>2021-08-10 12:40:50</time>
      </trkpt>
      <trkpt lat="42.83438" lon="-0.44103">
        <ele>2110.4</ele>
        <time>2021-08-10 12:40:51</time>
      </trkpt>
      <trkpt lat="42.83439" lon="-0.44102">
        <ele>2110.8</ele>
        <time>2021-08-10 12:40:52</time>
      </trkpt>
      <trkpt lat="42.83439" lon="-0.44101">
        <ele>2111</ele>
        <time>2021-08-10 12:40:53</time>
      </trkpt>
      <trkpt lat="42.83439" lon="-0.44101">
        <ele>2111</ele>
        <time>2021-08-10 12:40:54</time>
      </trkpt>
      <trkpt lat="42.83439" lon="-0.44101">
        <ele>2111.4</ele>
        <time>2021-08-10 12:40:55</time>
      </trkpt>
      <trkpt lat="42.83439" lon="-0.441">
        <ele>2111</ele>
        <time>2021-08-10 12:40:56</time>
      </trkpt>
      <trkpt lat="42.83439" lon="-0.441">
        <ele>2111.2</ele>
        <time>2021-08-10 12:40:57</time>
      </trkpt>
      <trkpt lat="42.83439" lon="-0.44099">
        <ele>2111.4</ele>
        <time>2021-08-10 12:40:58</time>
      </trkpt>
      <trkpt lat="42.83439" lon="-0.44099">
        <ele>2111.4</ele>
        <time>2021-08-10 12:41:01</time>
      </trkpt>
      <trkpt lat="42.83439" lon="-0.44098">
        <ele>2111.4</ele>
        <time>2021-08-10 12:41:02</time>
      </trkpt>
      <trkpt lat="42.83439" lon="-0.44098">
        <ele>2111.4</ele>
        <time>2021-08-10 12:41:03</time>
      </trkpt>
      <trkpt lat="42.8344" lon="-0.44097">
        <ele>2111.6</ele>
        <time>2021-08-10 12:41:04</time>
      </trkpt>
      <trkpt lat="42.8344" lon="-0.44096">
        <ele>2111.2</ele>
        <time>2021-08-10 12:41:05</time>
      </trkpt>
      <trkpt lat="42.8344" lon="-0.44096">
        <ele>2111.4</ele>
        <time>2021-08-10 12:41:06</time>
      </trkpt>
      <trkpt lat="42.83441" lon="-0.44095">
        <ele>2111.8</ele>
        <time>2021-08-10 12:41:07</time>
      </trkpt>
      <trkpt lat="42.83442" lon="-0.44095">
        <ele>2112</ele>
        <time>2021-08-10 12:41:08</time>
      </trkpt>
      <trkpt lat="42.83442" lon="-0.44094">
        <ele>2112</ele>
        <time>2021-08-10 12:41:22</time>
      </trkpt>
      <trkpt lat="42.83442" lon="-0.44093">
        <ele>2111.8</ele>
        <time>2021-08-10 12:41:23</time>
      </trkpt>
      <trkpt lat="42.83443" lon="-0.44093">
        <ele>2111.8</ele>
        <time>2021-08-10 12:41:24</time>
      </trkpt>
      <trkpt lat="42.83443" lon="-0.44092">
        <ele>2112</ele>
        <time>2021-08-10 12:41:25</time>
      </trkpt>
      <trkpt lat="42.83444" lon="-0.44091">
        <ele>2112</ele>
        <time>2021-08-10 12:41:26</time>
      </trkpt>
      <trkpt lat="42.83444" lon="-0.44091">
        <ele>2112</ele>
        <time>2021-08-10 12:41:27</time>
      </trkpt>
      <trkpt lat="42.83444" lon="-0.44091">
        <ele>2112</ele>
        <time>2021-08-10 12:41:28</time>
      </trkpt>
      <trkpt lat="42.83444" lon="-0.44091">
        <ele>2112</ele>
        <time>2021-08-10 12:41:29</time>
      </trkpt>
      <trkpt lat="42.83444" lon="-0.44091">
        <ele>2112.2</ele>
        <time>2021-08-10 12:41:30</time>
      </trkpt>
      <trkpt lat="42.83444" lon="-0.44091">
        <ele>2112.4</ele>
        <time>2021-08-10 12:41:31</time>
      </trkpt>
      <trkpt lat="42.83444" lon="-0.44091">
        <ele>2112</ele>
        <time>2021-08-10 12:41:32</time>
      </trkpt>
      <trkpt lat="42.83444" lon="-0.44091">
        <ele>2112</ele>
        <time>2021-08-10 12:41:33</time>
      </trkpt>
      <trkpt lat="42.83443" lon="-0.44092">
        <ele>2112</ele>
        <time>2021-08-10 12:41:34</time>
      </trkpt>
      <trkpt lat="42.83443" lon="-0.44092">
        <ele>2112</ele>
        <time>2021-08-10 12:41:35</time>
      </trkpt>
      <trkpt lat="42.83443" lon="-0.44093">
        <ele>2112</ele>
        <time>2021-08-10 12:41:36</time>
      </trkpt>
      <trkpt lat="42.83442" lon="-0.44093">
        <ele>2111.8</ele>
        <time>2021-08-10 12:41:37</time>
      </trkpt>
      <trkpt lat="42.83443" lon="-0.44093">
        <ele>2111.6</ele>
        <time>2021-08-10 12:41:38</time>
      </trkpt>
      <trkpt lat="42.83443" lon="-0.44093">
        <ele>2111.6</ele>
        <time>2021-08-10 12:41:39</time>
      </trkpt>
      <trkpt lat="42.83443" lon="-0.44093">
        <ele>2111.6</ele>
        <time>2021-08-10 12:41:40</time>
      </trkpt>
      <trkpt lat="42.83445" lon="-0.44093">
        <ele>2112.4</ele>
        <time>2021-08-10 12:41:41</time>
      </trkpt>
      <trkpt lat="42.83445" lon="-0.44093">
        <ele>2112.6</ele>
        <time>2021-08-10 12:41:42</time>
      </trkpt>
      <trkpt lat="42.83445" lon="-0.44093">
        <ele>2112.4</ele>
        <time>2021-08-10 12:41:43</time>
      </trkpt>
      <trkpt lat="42.83445" lon="-0.44092">
        <ele>2113.2</ele>
        <time>2021-08-10 12:41:44</time>
      </trkpt>
      <trkpt lat="42.83445" lon="-0.44092">
        <ele>2113.2</ele>
        <time>2021-08-10 12:41:45</time>
      </trkpt>
      <trkpt lat="42.83445" lon="-0.44092">
        <ele>2113.2</ele>
        <time>2021-08-10 12:41:46</time>
      </trkpt>
      <trkpt lat="42.83445" lon="-0.44092">
        <ele>2112.4</ele>
        <time>2021-08-10 12:41:47</time>
      </trkpt>
      <trkpt lat="42.83445" lon="-0.44093">
        <ele>2112.6</ele>
        <time>2021-08-10 12:41:48</time>
      </trkpt>
      <trkpt lat="42.83444" lon="-0.44092">
        <ele>2113</ele>
        <time>2021-08-10 12:41:49</time>
      </trkpt>
      <trkpt lat="42.83445" lon="-0.44092">
        <ele>2113.6</ele>
        <time>2021-08-10 12:41:50</time>
      </trkpt>
      <trkpt lat="42.83445" lon="-0.44092">
        <ele>2113.4</ele>
        <time>2021-08-10 12:41:51</time>
      </trkpt>
      <trkpt lat="42.83445" lon="-0.44092">
        <ele>2113.4</ele>
        <time>2021-08-10 12:41:52</time>
      </trkpt>
      <trkpt lat="42.83445" lon="-0.44092">
        <ele>2113.4</ele>
        <time>2021-08-10 12:41:53</time>
      </trkpt>
      <trkpt lat="42.83444" lon="-0.44091">
        <ele>2113.6</ele>
        <time>2021-08-10 12:41:54</time>
      </trkpt>
      <trkpt lat="42.83445" lon="-0.4409">
        <ele>2113.4</ele>
        <time>2021-08-10 12:41:55</time>
      </trkpt>
      <trkpt lat="42.83445" lon="-0.44089">
        <ele>2114</ele>
        <time>2021-08-10 12:41:56</time>
      </trkpt>
      <trkpt lat="42.83445" lon="-0.44089">
        <ele>2113.2</ele>
        <time>2021-08-10 12:41:57</time>
      </trkpt>
      <trkpt lat="42.83445" lon="-0.44088">
        <ele>2113</ele>
        <time>2021-08-10 12:41:58</time>
      </trkpt>
      <trkpt lat="42.83445" lon="-0.44088">
        <ele>2113.4</ele>
        <time>2021-08-10 12:41:59</time>
      </trkpt>
      <trkpt lat="42.83446" lon="-0.44088">
        <ele>2113.6</ele>
        <time>2021-08-10 12:42:00</time>
      </trkpt>
      <trkpt lat="42.83446" lon="-0.44087">
        <ele>2113.4</ele>
        <time>2021-08-10 12:42:01</time>
      </trkpt>
      <trkpt lat="42.83446" lon="-0.44087">
        <ele>2113.6</ele>
        <time>2021-08-10 12:42:02</time>
      </trkpt>
      <trkpt lat="42.83446" lon="-0.44087">
        <ele>2112.4</ele>
        <time>2021-08-10 12:42:03</time>
      </trkpt>
      <trkpt lat="42.83446" lon="-0.44086">
        <ele>2112.4</ele>
        <time>2021-08-10 12:42:04</time>
      </trkpt>
      <trkpt lat="42.83446" lon="-0.44086">
        <ele>2112.2</ele>
        <time>2021-08-10 12:42:14</time>
      </trkpt>
      <trkpt lat="42.83446" lon="-0.44086">
        <ele>2113.6</ele>
        <time>2021-08-10 12:42:15</time>
      </trkpt>
      <trkpt lat="42.83445" lon="-0.44087">
        <ele>2113.2</ele>
        <time>2021-08-10 12:42:16</time>
      </trkpt>
      <trkpt lat="42.83445" lon="-0.44086">
        <ele>2113.4</ele>
        <time>2021-08-10 12:42:18</time>
      </trkpt>
      <trkpt lat="42.83446" lon="-0.44086">
        <ele>2113.4</ele>
        <time>2021-08-10 12:42:19</time>
      </trkpt>
      <trkpt lat="42.83445" lon="-0.44086">
        <ele>2113</ele>
        <time>2021-08-10 12:42:20</time>
      </trkpt>
      <trkpt lat="42.83446" lon="-0.44087">
        <ele>2113.2</ele>
        <time>2021-08-10 12:42:21</time>
      </trkpt>
      <trkpt lat="42.83446" lon="-0.44087">
        <ele>2113.2</ele>
        <time>2021-08-10 12:42:22</time>
      </trkpt>
      <trkpt lat="42.83447" lon="-0.44086">
        <ele>2113.2</ele>
        <time>2021-08-10 12:42:23</time>
      </trkpt>
      <trkpt lat="42.83447" lon="-0.44085">
        <ele>2113.4</ele>
        <time>2021-08-10 12:42:26</time>
      </trkpt>
      <trkpt lat="42.83448" lon="-0.44084">
        <ele>2113.4</ele>
        <time>2021-08-10 12:42:27</time>
      </trkpt>
      <trkpt lat="42.83448" lon="-0.44083">
        <ele>2113.4</ele>
        <time>2021-08-10 12:42:28</time>
      </trkpt>
      <trkpt lat="42.83449" lon="-0.44083">
        <ele>2113.2</ele>
        <time>2021-08-10 12:42:29</time>
      </trkpt>
      <trkpt lat="42.83449" lon="-0.44082">
        <ele>2113.4</ele>
        <time>2021-08-10 12:42:30</time>
      </trkpt>
      <trkpt lat="42.8345" lon="-0.44081">
        <ele>2113.2</ele>
        <time>2021-08-10 12:42:31</time>
      </trkpt>
      <trkpt lat="42.83451" lon="-0.4408">
        <ele>2113.6</ele>
        <time>2021-08-10 12:42:32</time>
      </trkpt>
      <trkpt lat="42.83451" lon="-0.44078">
        <ele>2113.4</ele>
        <time>2021-08-10 12:42:33</time>
      </trkpt>
      <trkpt lat="42.83452" lon="-0.44077">
        <ele>2113.4</ele>
        <time>2021-08-10 12:42:34</time>
      </trkpt>
      <trkpt lat="42.83452" lon="-0.44077">
        <ele>2113.2</ele>
        <time>2021-08-10 12:42:35</time>
      </trkpt>
      <trkpt lat="42.83452" lon="-0.44076">
        <ele>2113.6</ele>
        <time>2021-08-10 12:42:36</time>
      </trkpt>
      <trkpt lat="42.83452" lon="-0.44075">
        <ele>2114</ele>
        <time>2021-08-10 12:42:37</time>
      </trkpt>
      <trkpt lat="42.83452" lon="-0.44073">
        <ele>2114.2</ele>
        <time>2021-08-10 12:42:38</time>
      </trkpt>
      <trkpt lat="42.83452" lon="-0.44072">
        <ele>2114.6</ele>
        <time>2021-08-10 12:42:39</time>
      </trkpt>
      <trkpt lat="42.83453" lon="-0.44072">
        <ele>2114.8</ele>
        <time>2021-08-10 12:42:40</time>
      </trkpt>
      <trkpt lat="42.83453" lon="-0.44071">
        <ele>2115</ele>
        <time>2021-08-10 12:42:41</time>
      </trkpt>
      <trkpt lat="42.83452" lon="-0.4407">
        <ele>2115.2</ele>
        <time>2021-08-10 12:42:42</time>
      </trkpt>
      <trkpt lat="42.83452" lon="-0.44069">
        <ele>2115.8</ele>
        <time>2021-08-10 12:42:43</time>
      </trkpt>
      <trkpt lat="42.83451" lon="-0.44069">
        <ele>2116</ele>
        <time>2021-08-10 12:42:44</time>
      </trkpt>
      <trkpt lat="42.83451" lon="-0.44068">
        <ele>2116.2</ele>
        <time>2021-08-10 12:42:45</time>
      </trkpt>
      <trkpt lat="42.83451" lon="-0.44068">
        <ele>2116.2</ele>
        <time>2021-08-10 12:42:46</time>
      </trkpt>
      <trkpt lat="42.8345" lon="-0.44068">
        <ele>2116</ele>
        <time>2021-08-10 12:42:47</time>
      </trkpt>
      <trkpt lat="42.8345" lon="-0.44068">
        <ele>2116.2</ele>
        <time>2021-08-10 12:42:48</time>
      </trkpt>
      <trkpt lat="42.8345" lon="-0.44067">
        <ele>2116.4</ele>
        <time>2021-08-10 12:42:49</time>
      </trkpt>
      <trkpt lat="42.83449" lon="-0.44067">
        <ele>2116.6</ele>
        <time>2021-08-10 12:42:50</time>
      </trkpt>
      <trkpt lat="42.83449" lon="-0.44067">
        <ele>2116.8</ele>
        <time>2021-08-10 12:42:51</time>
      </trkpt>
      <trkpt lat="42.83449" lon="-0.44067">
        <ele>2116.8</ele>
        <time>2021-08-10 12:42:52</time>
      </trkpt>
      <trkpt lat="42.8345" lon="-0.44066">
        <ele>2116.2</ele>
        <time>2021-08-10 12:42:53</time>
      </trkpt>
      <trkpt lat="42.8345" lon="-0.44066">
        <ele>2116.4</ele>
        <time>2021-08-10 12:42:54</time>
      </trkpt>
      <trkpt lat="42.8345" lon="-0.44065">
        <ele>2117</ele>
        <time>2021-08-10 12:42:55</time>
      </trkpt>
      <trkpt lat="42.8345" lon="-0.44064">
        <ele>2117.4</ele>
        <time>2021-08-10 12:42:56</time>
      </trkpt>
      <trkpt lat="42.83449" lon="-0.44064">
        <ele>2117.6</ele>
        <time>2021-08-10 12:43:02</time>
      </trkpt>
      <trkpt lat="42.83449" lon="-0.44063">
        <ele>2117.2</ele>
        <time>2021-08-10 12:43:03</time>
      </trkpt>
      <trkpt lat="42.83449" lon="-0.44063">
        <ele>2118</ele>
        <time>2021-08-10 12:43:04</time>
      </trkpt>
      <trkpt lat="42.83448" lon="-0.44063">
        <ele>2118.4</ele>
        <time>2021-08-10 12:43:05</time>
      </trkpt>
      <trkpt lat="42.83447" lon="-0.44063">
        <ele>2118.8</ele>
        <time>2021-08-10 12:43:06</time>
      </trkpt>
      <trkpt lat="42.83446" lon="-0.44062">
        <ele>2118.8</ele>
        <time>2021-08-10 12:43:07</time>
      </trkpt>
      <trkpt lat="42.83446" lon="-0.44061">
        <ele>2118.8</ele>
        <time>2021-08-10 12:43:08</time>
      </trkpt>
      <trkpt lat="42.83445" lon="-0.44061">
        <ele>2119.2</ele>
        <time>2021-08-10 12:43:09</time>
      </trkpt>
      <trkpt lat="42.83445" lon="-0.44061">
        <ele>2119.8</ele>
        <time>2021-08-10 12:43:10</time>
      </trkpt>
      <trkpt lat="42.83445" lon="-0.44061">
        <ele>2119.8</ele>
        <time>2021-08-10 12:43:11</time>
      </trkpt>
      <trkpt lat="42.83445" lon="-0.44061">
        <ele>2120.2</ele>
        <time>2021-08-10 12:43:12</time>
      </trkpt>
      <trkpt lat="42.83445" lon="-0.44061">
        <ele>2119.4</ele>
        <time>2021-08-10 12:43:13</time>
      </trkpt>
      <trkpt lat="42.83444" lon="-0.44062">
        <ele>2119.8</ele>
        <time>2021-08-10 12:43:14</time>
      </trkpt>
      <trkpt lat="42.83444" lon="-0.44062">
        <ele>2120</ele>
        <time>2021-08-10 12:43:15</time>
      </trkpt>
      <trkpt lat="42.83445" lon="-0.44062">
        <ele>2120.4</ele>
        <time>2021-08-10 12:43:16</time>
      </trkpt>
      <trkpt lat="42.83445" lon="-0.44062">
        <ele>2120.4</ele>
        <time>2021-08-10 12:43:17</time>
      </trkpt>
      <trkpt lat="42.83444" lon="-0.44062">
        <ele>2120.2</ele>
        <time>2021-08-10 12:43:18</time>
      </trkpt>
      <trkpt lat="42.83444" lon="-0.44061">
        <ele>2120.2</ele>
        <time>2021-08-10 12:43:19</time>
      </trkpt>
      <trkpt lat="42.83444" lon="-0.4406">
        <ele>2120.2</ele>
        <time>2021-08-10 12:43:20</time>
      </trkpt>
      <trkpt lat="42.83444" lon="-0.4406">
        <ele>2120.4</ele>
        <time>2021-08-10 12:43:21</time>
      </trkpt>
      <trkpt lat="42.83444" lon="-0.44059">
        <ele>2120.6</ele>
        <time>2021-08-10 12:43:22</time>
      </trkpt>
      <trkpt lat="42.83445" lon="-0.44058">
        <ele>2120.8</ele>
        <time>2021-08-10 12:43:23</time>
      </trkpt>
      <trkpt lat="42.83445" lon="-0.44057">
        <ele>2121</ele>
        <time>2021-08-10 12:43:24</time>
      </trkpt>
      <trkpt lat="42.83445" lon="-0.44057">
        <ele>2121</ele>
        <time>2021-08-10 12:43:25</time>
      </trkpt>
      <trkpt lat="42.83445" lon="-0.44056">
        <ele>2121.6</ele>
        <time>2021-08-10 12:43:26</time>
      </trkpt>
      <trkpt lat="42.83445" lon="-0.44055">
        <ele>2121.8</ele>
        <time>2021-08-10 12:43:27</time>
      </trkpt>
      <trkpt lat="42.83446" lon="-0.44055">
        <ele>2122.2</ele>
        <time>2021-08-10 12:43:28</time>
      </trkpt>
      <trkpt lat="42.83446" lon="-0.44054">
        <ele>2122.2</ele>
        <time>2021-08-10 12:43:29</time>
      </trkpt>
      <trkpt lat="42.83446" lon="-0.44054">
        <ele>2122.4</ele>
        <time>2021-08-10 12:43:30</time>
      </trkpt>
      <trkpt lat="42.83446" lon="-0.44054">
        <ele>2123</ele>
        <time>2021-08-10 12:43:31</time>
      </trkpt>
      <trkpt lat="42.83446" lon="-0.44053">
        <ele>2123.2</ele>
        <time>2021-08-10 12:43:32</time>
      </trkpt>
      <trkpt lat="42.83446" lon="-0.44053">
        <ele>2123.4</ele>
        <time>2021-08-10 12:43:33</time>
      </trkpt>
      <trkpt lat="42.83446" lon="-0.44053">
        <ele>2123.2</ele>
        <time>2021-08-10 12:43:34</time>
      </trkpt>
      <trkpt lat="42.83445" lon="-0.44053">
        <ele>2123.2</ele>
        <time>2021-08-10 12:43:42</time>
      </trkpt>
      <trkpt lat="42.83445" lon="-0.44053">
        <ele>2123.4</ele>
        <time>2021-08-10 12:43:43</time>
      </trkpt>
      <trkpt lat="42.83444" lon="-0.44053">
        <ele>2123.6</ele>
        <time>2021-08-10 12:43:44</time>
      </trkpt>
      <trkpt lat="42.83443" lon="-0.44052">
        <ele>2123.6</ele>
        <time>2021-08-10 12:43:45</time>
      </trkpt>
      <trkpt lat="42.83443" lon="-0.44052">
        <ele>2123.6</ele>
        <time>2021-08-10 12:43:46</time>
      </trkpt>
      <trkpt lat="42.83443" lon="-0.44052">
        <ele>2123.8</ele>
        <time>2021-08-10 12:43:47</time>
      </trkpt>
      <trkpt lat="42.83442" lon="-0.44052">
        <ele>2124</ele>
        <time>2021-08-10 12:43:48</time>
      </trkpt>
      <trkpt lat="42.83442" lon="-0.44052">
        <ele>2124.2</ele>
        <time>2021-08-10 12:43:49</time>
      </trkpt>
      <trkpt lat="42.83441" lon="-0.44051">
        <ele>2124.4</ele>
        <time>2021-08-10 12:43:50</time>
      </trkpt>
      <trkpt lat="42.83443" lon="-0.44051">
        <ele>2124.6</ele>
        <time>2021-08-10 12:46:41</time>
      </trkpt>
      <trkpt lat="42.83443" lon="-0.44051">
        <ele>2124.6</ele>
        <time>2021-08-10 12:46:42</time>
      </trkpt>
      <trkpt lat="42.83443" lon="-0.4405">
        <ele>2125</ele>
        <time>2021-08-10 12:46:43</time>
      </trkpt>
      <trkpt lat="42.83443" lon="-0.4405">
        <ele>2125.2</ele>
        <time>2021-08-10 12:48:57</time>
      </trkpt>
      <trkpt lat="42.83443" lon="-0.44049">
        <ele>2125.4</ele>
        <time>2021-08-10 12:48:58</time>
      </trkpt>
      <trkpt lat="42.83443" lon="-0.44048">
        <ele>2125.6</ele>
        <time>2021-08-10 12:48:59</time>
      </trkpt>
      <trkpt lat="42.83443" lon="-0.44048">
        <ele>2125.6</ele>
        <time>2021-08-10 12:49:49</time>
      </trkpt>
      <trkpt lat="42.83443" lon="-0.44047">
        <ele>2126</ele>
        <time>2021-08-10 12:49:50</time>
      </trkpt>
      <trkpt lat="42.83442" lon="-0.44047">
        <ele>2126.2</ele>
        <time>2021-08-10 12:49:51</time>
      </trkpt>
      <trkpt lat="42.83442" lon="-0.44047">
        <ele>2126.4</ele>
        <time>2021-08-10 12:49:52</time>
      </trkpt>
      <trkpt lat="42.83443" lon="-0.44046">
        <ele>2126.2</ele>
        <time>2021-08-10 12:49:53</time>
      </trkpt>
      <trkpt lat="42.83443" lon="-0.44046">
        <ele>2126.2</ele>
        <time>2021-08-10 12:49:54</time>
      </trkpt>
      <trkpt lat="42.83443" lon="-0.44046">
        <ele>2126.2</ele>
        <time>2021-08-10 12:49:55</time>
      </trkpt>
      <trkpt lat="42.83443" lon="-0.44045">
        <ele>2126.6</ele>
        <time>2021-08-10 12:49:58</time>
      </trkpt>
      <trkpt lat="42.83443" lon="-0.44045">
        <ele>2127</ele>
        <time>2021-08-10 12:49:59</time>
      </trkpt>
      <trkpt lat="42.83443" lon="-0.44044">
        <ele>2127.2</ele>
        <time>2021-08-10 12:50:00</time>
      </trkpt>
      <trkpt lat="42.83443" lon="-0.44043">
        <ele>2127.6</ele>
        <time>2021-08-10 12:50:01</time>
      </trkpt>
      <trkpt lat="42.83444" lon="-0.44043">
        <ele>2128</ele>
        <time>2021-08-10 12:50:02</time>
      </trkpt>
      <trkpt lat="42.83443" lon="-0.44042">
        <ele>2128.2</ele>
        <time>2021-08-10 12:50:03</time>
      </trkpt>
      <trkpt lat="42.83443" lon="-0.44042">
        <ele>2128</ele>
        <time>2021-08-10 12:50:04</time>
      </trkpt>
      <trkpt lat="42.83443" lon="-0.44043">
        <ele>2128</ele>
        <time>2021-08-10 12:50:09</time>
      </trkpt>
      <trkpt lat="42.83443" lon="-0.44043">
        <ele>2127.6</ele>
        <time>2021-08-10 12:50:10</time>
      </trkpt>
      <trkpt lat="42.83442" lon="-0.44043">
        <ele>2127.6</ele>
        <time>2021-08-10 12:50:11</time>
      </trkpt>
      <trkpt lat="42.83442" lon="-0.44044">
        <ele>2127.4</ele>
        <time>2021-08-10 12:50:12</time>
      </trkpt>
      <trkpt lat="42.83441" lon="-0.44044">
        <ele>2127.6</ele>
        <time>2021-08-10 12:50:13</time>
      </trkpt>
      <trkpt lat="42.8344" lon="-0.44044">
        <ele>2128</ele>
        <time>2021-08-10 12:50:14</time>
      </trkpt>
      <trkpt lat="42.8344" lon="-0.44045">
        <ele>2128.2</ele>
        <time>2021-08-10 12:50:15</time>
      </trkpt>
      <trkpt lat="42.83439" lon="-0.44044">
        <ele>2128.6</ele>
        <time>2021-08-10 12:50:16</time>
      </trkpt>
      <trkpt lat="42.83439" lon="-0.44044">
        <ele>2129</ele>
        <time>2021-08-10 12:50:17</time>
      </trkpt>
      <trkpt lat="42.83439" lon="-0.44043">
        <ele>2129.6</ele>
        <time>2021-08-10 12:50:18</time>
      </trkpt>
      <trkpt lat="42.83439" lon="-0.44043">
        <ele>2129.6</ele>
        <time>2021-08-10 12:50:57</time>
      </trkpt>
      <trkpt lat="42.83439" lon="-0.44042">
        <ele>2129.8</ele>
        <time>2021-08-10 12:50:58</time>
      </trkpt>
      <trkpt lat="42.83439" lon="-0.44042">
        <ele>2130</ele>
        <time>2021-08-10 12:50:59</time>
      </trkpt>
      <trkpt lat="42.83439" lon="-0.44041">
        <ele>2130.4</ele>
      </trkpt>
      <trkpt lat="42.83439" lon="-0.44041">
        <ele>2130</ele>
        <time>2021-08-10 12:51:01</time>
      </trkpt>
      <trkpt lat="42.83438" lon="-0.44041">
        <ele>2130</ele>
        <time>2021-08-10 12:51:02</time>
      </trkpt>
      <trkpt lat="42.83438" lon="-0.44041">
        <ele>2129.8</ele>
        <time>2021-08-10 12:51:03</time>
      </trkpt>
      <trkpt lat="42.83438" lon="-0.4404">
        <ele>2129.6</ele>
        <time>2021-08-10 12:51:04</time>
      </trkpt>
      <trkpt lat="42.83437" lon="-0.4404">
        <ele>2129.8</ele>
        <time>2021-08-10 12:51:05</time>
      </trkpt>
      <trkpt lat="42.83437" lon="-0.4404">
        <ele>2129.6</ele>
        <time>2021-08-10 12:51:06</time>
      </trkpt>
      <trkpt lat="42.83437" lon="-0.4404">
        <ele>2129.6</ele>
        <time>2021-08-10 12:51:07</time>
      </trkpt>
      <trkpt lat="42.83437" lon="-0.44039">
        <ele>2129.6</ele>
        <time>2021-08-10 12:51:08</time>
      </trkpt>
      <trkpt lat="42.83437" lon="-0.44039">
        <ele>2130</ele>
        <time>2021-08-10 12:51:09</time>
      </trkpt>
      <trkpt lat="42.83437" lon="-0.44039">
        <ele>2130.4</ele>
        <time>2021-08-10 12:51:10</time>
      </trkpt>
      <trkpt lat="42.83437" lon="-0.44039">
        <ele>2130</ele>
        <time>2021-08-10 12:51:11</time>
      </trkpt>
      <trkpt lat="42.83436" lon="-0.44038">
        <ele>2130.2</ele>
        <time>2021-08-10 12:51:12</time>
      </trkpt>
      <trkpt lat="42.83437" lon="-0.44037">
        <ele>2130.6</ele>
        <time>2021-08-10 12:51:13</time>
      </trkpt>
      <trkpt lat="42.83437" lon="-0.44037">
        <ele>2130.8</ele>
        <time>2021-08-10 12:51:14</time>
      </trkpt>
      <trkpt lat="42.83437" lon="-0.44036">
        <ele>2130.8</ele>
        <time>2021-08-10 12:51:15</time>
      </trkpt>
      <trkpt lat="42.83437" lon="-0.44036">
        <ele>2131.2</ele>
        <time>2021-08-10 12:51:16</time>
      </trkpt>
      <trkpt lat="42.83437" lon="-0.44036">
        <ele>2131.2</ele>
      </trkpt>
      <trkpt lat="42.83436" lon="-0.44036">
        <ele>2131</ele>
        <time>2021-08-10 12:51:17</time>
      </trkpt>
      <trkpt lat="42.83436" lon="-0.44037">
        <ele>2131.4</ele>
        <time>2021-08-10 12:51:19</time>
      </trkpt>
      <trkpt lat="42.83435" lon="-0.44037">
        <ele>2132</ele>
      </trkpt>
      <trkpt lat="42.83435" lon="-0.44036">
        <ele>2132.2</ele>
        <time>2021-08-10 12:51:20</time>
      </trkpt>
      <trkpt lat="42.83435" lon="-0.44035">
        <ele>2132.6</ele>
        <time>2021-08-10 12:51:21</time>
      </trkpt>
      <trkpt lat="42.83435" lon="-0.44034">
        <ele>2132.6</ele>
        <time>2021-08-10 12:51:22</time>
      </trkpt>
      <trkpt lat="42.83435" lon="-0.44033">
        <ele>2132.2</ele>
        <time>2021-08-10 12:51:23</time>
      </trkpt>
      <trkpt lat="42.83435" lon="-0.44033">
        <ele>2132.4</ele>
        <time>2021-08-10 12:51:24</time>
      </trkpt>
      <trkpt lat="42.83435" lon="-0.44032">
        <ele>2132.6</ele>
        <time>2021-08-10 12:51:25</time>
      </trkpt>
      <trkpt lat="42.83436" lon="-0.44031">
        <ele>2132.6</ele>
        <time>2021-08-10 12:51:26</time>
      </trkpt>
      <trkpt lat="42.83436" lon="-0.44031">
        <ele>2133</ele>
        <time>2021-08-10 12:51:30</time>
      </trkpt>
      <trkpt lat="42.83436" lon="-0.44031">
        <ele>2133</ele>
        <time>2021-08-10 12:51:31</time>
      </trkpt>
      <trkpt lat="42.83436" lon="-0.44031">
        <ele>2133.2</ele>
        <time>2021-08-10 12:51:32</time>
      </trkpt>
      <trkpt lat="42.83436" lon="-0.44031">
        <ele>2133.6</ele>
        <time>2021-08-10 12:51:33</time>
      </trkpt>
      <trkpt lat="42.83436" lon="-0.4403">
        <ele>2133.6</ele>
        <time>2021-08-10 12:51:34</time>
      </trkpt>
      <trkpt lat="42.83436" lon="-0.4403">
        <ele>2133.6</ele>
        <time>2021-08-10 12:51:35</time>
      </trkpt>
      <trkpt lat="42.83437" lon="-0.4403">
        <ele>2134.2</ele>
        <time>2021-08-10 12:51:36</time>
      </trkpt>
      <trkpt lat="42.83437" lon="-0.44029">
        <ele>2134</ele>
        <time>2021-08-10 12:51:37</time>
      </trkpt>
      <trkpt lat="42.83437" lon="-0.44028">
        <ele>2134</ele>
        <time>2021-08-10 12:51:38</time>
      </trkpt>
      <trkpt lat="42.83437" lon="-0.44027">
        <ele>2134.2</ele>
        <time>2021-08-10 12:51:39</time>
      </trkpt>
      <trkpt lat="42.83437" lon="-0.44026">
        <ele>2134.2</ele>
        <time>2021-08-10 12:51:41</time>
      </trkpt>
      <trkpt lat="42.83436" lon="-0.44025">
        <ele>2134.4</ele>
      </trkpt>
      <trkpt lat="42.83437" lon="-0.44025">
        <ele>2134.6</ele>
        <time>2021-08-10 12:51:42</time>
      </trkpt>
      <trkpt lat="42.83437" lon="-0.44024">
        <ele>2134.8</ele>
        <time>2021-08-10 12:51:43</time>
      </trkpt>
      <trkpt lat="42.83436" lon="-0.44024">
        <ele>2135</ele>
        <time>2021-08-10 12:51:44</time>
      </trkpt>
      <trkpt lat="42.83437" lon="-0.44023">
        <ele>2135.2</ele>
        <time>2021-08-10 12:51:45</time>
      </trkpt>
      <trkpt lat="42.83437" lon="-0.44022">
        <ele>2135.6</ele>
        <time>2021-08-10 12:51:46</time>
      </trkpt>
      <trkpt lat="42.83437" lon="-0.44022">
        <ele>2135.8</ele>
        <time>2021-08-10 12:51:47</time>
      </trkpt>
      <trkpt lat="42.83436" lon="-0.44021">
        <ele>2135.8</ele>
        <time>2021-08-10 12:51:48</time>
      </trkpt>
      <trkpt lat="42.83436" lon="-0.44021">
        <ele>2136.2</ele>
        <time>2021-08-10 12:51:49</time>
      </trkpt>
      <trkpt lat="42.83436" lon="-0.4402">
        <ele>2136.6</ele>
        <time>2021-08-10 12:51:50</time>
      </trkpt>
      <trkpt lat="42.83436" lon="-0.4402">
        <ele>2136.6</ele>
        <time>2021-08-10 12:51:51</time>
      </trkpt>
      <trkpt lat="42.83435" lon="-0.4402">
        <ele>2137</ele>
        <time>2021-08-10 12:51:52</time>
      </trkpt>
      <trkpt lat="42.83435" lon="-0.44019">
        <ele>2137.2</ele>
        <time>2021-08-10 12:51:53</time>
      </trkpt>
      <trkpt lat="42.83435" lon="-0.44018">
        <ele>2137.2</ele>
        <time>2021-08-10 12:51:54</time>
      </trkpt>
      <trkpt lat="42.83435" lon="-0.44018">
        <ele>2137.2</ele>
        <time>2021-08-10 12:51:55</time>
      </trkpt>
      <trkpt lat="42.83435" lon="-0.44018">
        <ele>2137.4</ele>
        <time>2021-08-10 12:51:56</time>
      </trkpt>
      <trkpt lat="42.83435" lon="-0.44017">
        <ele>2137.2</ele>
        <time>2021-08-10 12:51:57</time>
      </trkpt>
      <trkpt lat="42.83434" lon="-0.44017">
        <ele>2137.4</ele>
        <time>2021-08-10 12:51:58</time>
      </trkpt>
      <trkpt lat="42.83435" lon="-0.44021">
        <ele>2137.8</ele>
        <time>2021-08-10 12:51:59</time>
      </trkpt>
      <trkpt lat="42.83434" lon="-0.44021">
        <ele>2137.6</ele>
        <time>2021-08-10 12:52:00</time>
      </trkpt>
      <trkpt lat="42.83434" lon="-0.4402">
        <ele>2137.8</ele>
        <time>2021-08-10 12:52:01</time>
      </trkpt>
      <trkpt lat="42.83434" lon="-0.44018">
        <ele>2138</ele>
        <time>2021-08-10 12:52:02</time>
      </trkpt>
      <trkpt lat="42.83434" lon="-0.44018">
        <ele>2138.2</ele>
        <time>2021-08-10 12:52:03</time>
      </trkpt>
      <trkpt lat="42.83433" lon="-0.44017">
        <ele>2138.4</ele>
        <time>2021-08-10 12:52:04</time>
      </trkpt>
      <trkpt lat="42.83433" lon="-0.44016">
        <ele>2138.4</ele>
        <time>2021-08-10 12:52:05</time>
      </trkpt>
      <trkpt lat="42.83433" lon="-0.44015">
        <ele>2138.4</ele>
        <time>2021-08-10 12:52:06</time>
      </trkpt>
      <trkpt lat="42.83433" lon="-0.44015">
        <ele>2138.8</ele>
        <time>2021-08-10 12:52:07</time>
      </trkpt>
      <trkpt lat="42.83432" lon="-0.44013">
        <ele>2138.8</ele>
        <time>2021-08-10 12:52:08</time>
      </trkpt>
      <trkpt lat="42.83432" lon="-0.44013">
        <ele>2139.2</ele>
        <time>2021-08-10 12:52:09</time>
      </trkpt>
      <trkpt lat="42.83432" lon="-0.44012">
        <ele>2139.2</ele>
        <time>2021-08-10 12:52:11</time>
      </trkpt>
      <trkpt lat="42.83432" lon="-0.44011">
        <ele>2139</ele>
        <time>2021-08-10 12:52:12</time>
      </trkpt>
      <trkpt lat="42.83432" lon="-0.4401">
        <ele>2139</ele>
        <time>2021-08-10 12:52:13</time>
      </trkpt>
      <trkpt lat="42.83431" lon="-0.4401">
        <ele>2139.4</ele>
        <time>2021-08-10 12:52:14</time>
      </trkpt>
      <trkpt lat="42.83431" lon="-0.4401">
        <ele>2139.6</ele>
        <time>2021-08-10 12:52:15</time>
      </trkpt>
      <trkpt lat="42.83431" lon="-0.44009">
        <ele>2139.8</ele>
        <time>2021-08-10 12:52:16</time>
      </trkpt>
      <trkpt lat="42.83431" lon="-0.44009">
        <ele>2139.6</ele>
        <time>2021-08-10 12:52:17</time>
      </trkpt>
      <trkpt lat="42.83431" lon="-0.44008">
        <ele>2139.6</ele>
        <time>2021-08-10 12:52:18</time>
      </trkpt>
      <trkpt lat="42.8343" lon="-0.44008">
        <ele>2139.6</ele>
        <time>2021-08-10 12:52:19</time>
      </trkpt>
      <trkpt lat="42.8343" lon="-0.44007">
        <ele>2140</ele>
        <time>2021-08-10 12:52:20</time>
      </trkpt>
      <trkpt lat="42.83429" lon="-0.44007">
        <ele>2140.2</ele>
        <time>2021-08-10 12:52:21</time>
      </trkpt>
      <trkpt lat="42.83429" lon="-0.44006">
        <ele>2140.8</ele>
        <time>2021-08-10 12:52:22</time>
      </trkpt>
      <trkpt lat="42.83429" lon="-0.44005">
        <ele>2141</ele>
        <time>2021-08-10 12:52:23</time>
      </trkpt>
      <trkpt lat="42.83429" lon="-0.44005">
        <ele>2141</ele>
        <time>2021-08-10 12:52:24</time>
      </trkpt>
      <trkpt lat="42.83429" lon="-0.44004">
        <ele>2141</ele>
        <time>2021-08-10 12:52:25</time>
      </trkpt>
      <trkpt lat="42.83429" lon="-0.44002">
        <ele>2141</ele>
        <time>2021-08-10 12:52:26</time>
      </trkpt>
      <trkpt lat="42.83429" lon="-0.44001">
        <ele>2141.2</ele>
        <time>2021-08-10 12:52:27</time>
      </trkpt>
      <trkpt lat="42.83429" lon="-0.44001">
        <ele>2141.2</ele>
        <time>2021-08-10 12:52:28</time>
      </trkpt>
      <trkpt lat="42.83429" lon="-0.44">
        <ele>2141.2</ele>
        <time>2021-08-10 12:52:29</time>
      </trkpt>
      <trkpt lat="42.83429" lon="-0.43999">
        <ele>2141.6</ele>
        <time>2021-08-10 12:52:31</time>
      </trkpt>
      <trkpt lat="42.83429" lon="-0.43999">
        <ele>2141.6</ele>
        <time>2021-08-10 12:52:32</time>
      </trkpt>
      <trkpt lat="42.83428" lon="-0.43999">
        <ele>2141.8</ele>
        <time>2021-08-10 12:52:33</time>
      </trkpt>
      <trkpt lat="42.83429" lon="-0.43998">
        <ele>2141.8</ele>
        <time>2021-08-10 12:52:37</time>
      </trkpt>
      <trkpt lat="42.83428" lon="-0.43997">
        <ele>2141.8</ele>
        <time>2021-08-10 12:52:38</time>
      </trkpt>
      <trkpt lat="42.83429" lon="-0.43996">
        <ele>2142.2</ele>
        <time>2021-08-10 12:52:39</time>
      </trkpt>
      <trkpt lat="42.83428" lon="-0.43995">
        <ele>2142.4</ele>
        <time>2021-08-10 12:52:40</time>
      </trkpt>
      <trkpt lat="42.83428" lon="-0.43995">
        <ele>2142.6</ele>
        <time>2021-08-10 12:52:41</time>
      </trkpt>
      <trkpt lat="42.83428" lon="-0.43994">
        <ele>2142.8</ele>
        <time>2021-08-10 12:52:42</time>
      </trkpt>
      <trkpt lat="42.83428" lon="-0.43993">
        <ele>2142.8</ele>
        <time>2021-08-10 12:52:43</time>
      </trkpt>
      <trkpt lat="42.83428" lon="-0.43993">
        <ele>2143</ele>
        <time>2021-08-10 12:52:44</time>
      </trkpt>
      <trkpt lat="42.83428" lon="-0.43993">
        <ele>2143</ele>
        <time>2021-08-10 12:52:45</time>
      </trkpt>
      <trkpt lat="42.83428" lon="-0.43992">
        <ele>2142.8</ele>
        <time>2021-08-10 12:52:46</time>
      </trkpt>
      <trkpt lat="42.83428" lon="-0.43991">
        <ele>2143</ele>
        <time>2021-08-10 12:52:47</time>
      </trkpt>
      <trkpt lat="42.83428" lon="-0.43991">
        <ele>2143.2</ele>
        <time>2021-08-10 12:52:48</time>
      </trkpt>
      <trkpt lat="42.83428" lon="-0.4399">
        <ele>2143.2</ele>
        <time>2021-08-10 12:52:49</time>
      </trkpt>
      <trkpt lat="42.83429" lon="-0.4399">
        <ele>2143.2</ele>
        <time>2021-08-10 12:52:50</time>
      </trkpt>
      <trkpt lat="42.83429" lon="-0.43989">
        <ele>2143.4</ele>
        <time>2021-08-10 12:52:51</time>
      </trkpt>
      <trkpt lat="42.83429" lon="-0.43988">
        <ele>2143.4</ele>
        <time>2021-08-10 12:52:52</time>
      </trkpt>
      <trkpt lat="42.83429" lon="-0.43987">
        <ele>2144</ele>
        <time>2021-08-10 12:52:53</time>
      </trkpt>
      <trkpt lat="42.83429" lon="-0.43986">
        <ele>2144.4</ele>
        <time>2021-08-10 12:52:54</time>
      </trkpt>
      <trkpt lat="42.8343" lon="-0.43986">
        <ele>2144.4</ele>
        <time>2021-08-10 12:52:55</time>
      </trkpt>
      <trkpt lat="42.8343" lon="-0.43985">
        <ele>2144</ele>
        <time>2021-08-10 12:52:56</time>
      </trkpt>
      <trkpt lat="42.8343" lon="-0.43985">
        <ele>2144.2</ele>
        <time>2021-08-10 12:52:57</time>
      </trkpt>
      <trkpt lat="42.83431" lon="-0.43985">
        <ele>2144.6</ele>
        <time>2021-08-10 12:52:58</time>
      </trkpt>
      <trkpt lat="42.83431" lon="-0.43985">
        <ele>2144.8</ele>
        <time>2021-08-10 12:52:59</time>
      </trkpt>
      <trkpt lat="42.8343" lon="-0.43984">
        <ele>2144.6</ele>
        <time>2021-08-10 12:53:00</time>
      </trkpt>
      <trkpt lat="42.8343" lon="-0.43983">
        <ele>2144.6</ele>
        <time>2021-08-10 12:53:01</time>
      </trkpt>
      <trkpt lat="42.8343" lon="-0.43983">
        <ele>2144.6</ele>
        <time>2021-08-10 12:53:02</time>
      </trkpt>
      <trkpt lat="42.8343" lon="-0.43982">
        <ele>2144.8</ele>
        <time>2021-08-10 12:53:03</time>
      </trkpt>
      <trkpt lat="42.8343" lon="-0.43982">
        <ele>2145</ele>
        <time>2021-08-10 12:53:04</time>
      </trkpt>
      <trkpt lat="42.8343" lon="-0.43981">
        <ele>2145</ele>
        <time>2021-08-10 12:53:05</time>
      </trkpt>
      <trkpt lat="42.8343" lon="-0.4398">
        <ele>2145.4</ele>
        <time>2021-08-10 12:53:06</time>
      </trkpt>
      <trkpt lat="42.83429" lon="-0.43979">
        <ele>2145.6</ele>
        <time>2021-08-10 12:53:08</time>
      </trkpt>
      <trkpt lat="42.83429" lon="-0.43979">
        <ele>2145.6</ele>
        <time>2021-08-10 12:53:09</time>
      </trkpt>
      <trkpt lat="42.83429" lon="-0.43978">
        <ele>2146.4</ele>
        <time>2021-08-10 12:53:10</time>
      </trkpt>
      <trkpt lat="42.83428" lon="-0.43978">
        <ele>2146.2</ele>
        <time>2021-08-10 12:53:11</time>
      </trkpt>
      <trkpt lat="42.83428" lon="-0.43978">
        <ele>2146.6</ele>
        <time>2021-08-10 12:53:12</time>
      </trkpt>
      <trkpt lat="42.83427" lon="-0.43978">
        <ele>2146.8</ele>
        <time>2021-08-10 12:53:13</time>
      </trkpt>
      <trkpt lat="42.83427" lon="-0.43977">
        <ele>2146.8</ele>
        <time>2021-08-10 12:53:14</time>
      </trkpt>
      <trkpt lat="42.83426" lon="-0.43977">
        <ele>2146.8</ele>
        <time>2021-08-10 12:53:15</time>
      </trkpt>
      <trkpt lat="42.83425" lon="-0.43977">
        <ele>2146.8</ele>
        <time>2021-08-10 12:53:16</time>
      </trkpt>
      <trkpt lat="42.83425" lon="-0.43977">
        <ele>2146.8</ele>
        <time>2021-08-10 12:53:17</time>
      </trkpt>
      <trkpt lat="42.83424" lon="-0.43977">
        <ele>2147.2</ele>
        <time>2021-08-10 12:53:18</time>
      </trkpt>
      <trkpt lat="42.83424" lon="-0.43976">
        <ele>2147.4</ele>
        <time>2021-08-10 12:53:19</time>
      </trkpt>
      <trkpt lat="42.83424" lon="-0.43975">
        <ele>2146.8</ele>
        <time>2021-08-10 12:53:20</time>
      </trkpt>
      <trkpt lat="42.83424" lon="-0.43975">
        <ele>2147.2</ele>
        <time>2021-08-10 12:53:21</time>
      </trkpt>
      <trkpt lat="42.83424" lon="-0.43975">
        <ele>2147.2</ele>
        <time>2021-08-10 12:53:22</time>
      </trkpt>
      <trkpt lat="42.83423" lon="-0.43975">
        <ele>2148</ele>
        <time>2021-08-10 12:53:23</time>
      </trkpt>
      <trkpt lat="42.83422" lon="-0.43975">
        <ele>2148.4</ele>
        <time>2021-08-10 12:53:24</time>
      </trkpt>
      <trkpt lat="42.83422" lon="-0.43976">
        <ele>2148.4</ele>
        <time>2021-08-10 12:53:25</time>
      </trkpt>
      <trkpt lat="42.83421" lon="-0.43976">
        <ele>2148.6</ele>
        <time>2021-08-10 12:53:26</time>
      </trkpt>
      <trkpt lat="42.8342" lon="-0.43976">
        <ele>2148.8</ele>
        <time>2021-08-10 12:53:27</time>
      </trkpt>
      <trkpt lat="42.8342" lon="-0.43976">
        <ele>2149.2</ele>
        <time>2021-08-10 12:53:28</time>
      </trkpt>
      <trkpt lat="42.8342" lon="-0.43976">
        <ele>2149.2</ele>
        <time>2021-08-10 12:53:29</time>
      </trkpt>
      <trkpt lat="42.8342" lon="-0.43976">
        <ele>2149.4</ele>
        <time>2021-08-10 12:53:30</time>
      </trkpt>
      <trkpt lat="42.83419" lon="-0.43976">
        <ele>2149.8</ele>
        <time>2021-08-10 12:53:31</time>
      </trkpt>
      <trkpt lat="42.83419" lon="-0.43975">
        <ele>2150</ele>
        <time>2021-08-10 12:53:32</time>
      </trkpt>
      <trkpt lat="42.8342" lon="-0.43974">
        <ele>2149.8</ele>
        <time>2021-08-10 12:53:33</time>
      </trkpt>
      <trkpt lat="42.8342" lon="-0.43973">
        <ele>2150</ele>
        <time>2021-08-10 12:53:34</time>
      </trkpt>
      <trkpt lat="42.8342" lon="-0.43972">
        <ele>2150.2</ele>
        <time>2021-08-10 12:53:35</time>
      </trkpt>
      <trkpt lat="42.8342" lon="-0.43971">
        <ele>2150.4</ele>
        <time>2021-08-10 12:53:36</time>
      </trkpt>
      <trkpt lat="42.8342" lon="-0.43971">
        <ele>2150.4</ele>
        <time>2021-08-10 12:53:37</time>
      </trkpt>
      <trkpt lat="42.8342" lon="-0.4397">
        <ele>2150.6</ele>
        <time>2021-08-10 12:53:38</time>
      </trkpt>
      <trkpt lat="42.8342" lon="-0.43969">
        <ele>2150.8</ele>
        <time>2021-08-10 12:53:39</time>
      </trkpt>
      <trkpt lat="42.83421" lon="-0.43968">
        <ele>2151</ele>
        <time>2021-08-10 12:53:40</time>
      </trkpt>
      <trkpt lat="42.83421" lon="-0.43967">
        <ele>2151</ele>
        <time>2021-08-10 12:53:41</time>
      </trkpt>
      <trkpt lat="42.83421" lon="-0.43966">
        <ele>2151.2</ele>
        <time>2021-08-10 12:53:42</time>
      </trkpt>
      <trkpt lat="42.83421" lon="-0.43965">
        <ele>2151.2</ele>
        <time>2021-08-10 12:53:43</time>
      </trkpt>
      <trkpt lat="42.83421" lon="-0.43965">
        <ele>2151.4</ele>
        <time>2021-08-10 12:53:44</time>
      </trkpt>
      <trkpt lat="42.83422" lon="-0.43964">
        <ele>2151.6</ele>
        <time>2021-08-10 12:53:45</time>
      </trkpt>
      <trkpt lat="42.83422" lon="-0.43964">
        <ele>2151.6</ele>
        <time>2021-08-10 12:53:46</time>
      </trkpt>
      <trkpt lat="42.83422" lon="-0.43964">
        <ele>2151.6</ele>
        <time>2021-08-10 12:53:47</time>
      </trkpt>
      <trkpt lat="42.83422" lon="-0.43963">
        <ele>2151.8</ele>
        <time>2021-08-10 12:53:48</time>
      </trkpt>
      <trkpt lat="42.83422" lon="-0.43963">
        <ele>2152.2</ele>
        <time>2021-08-10 12:53:49</time>
      </trkpt>
      <trkpt lat="42.83423" lon="-0.43962">
        <ele>2152.2</ele>
        <time>2021-08-10 12:53:50</time>
      </trkpt>
      <trkpt lat="42.83423" lon="-0.43961">
        <ele>2152.6</ele>
        <time>2021-08-10 12:53:51</time>
      </trkpt>
      <trkpt lat="42.83423" lon="-0.4396">
        <ele>2152.8</ele>
        <time>2021-08-10 12:53:52</time>
      </trkpt>
      <trkpt lat="42.83423" lon="-0.43959">
        <ele>2152.8</ele>
        <time>2021-08-10 12:53:53</time>
      </trkpt>
      <trkpt lat="42.83423" lon="-0.43958">
        <ele>2153</ele>
        <time>2021-08-10 12:53:54</time>
      </trkpt>
      <trkpt lat="42.83423" lon="-0.43958">
        <ele>2153.2</ele>
        <time>2021-08-10 12:54:09</time>
      </trkpt>
      <trkpt lat="42.83423" lon="-0.43957">
        <ele>2153.4</ele>
        <time>2021-08-10 12:54:10</time>
      </trkpt>
      <trkpt lat="42.83423" lon="-0.43956">
        <ele>2153.6</ele>
        <time>2021-08-10 12:54:11</time>
      </trkpt>
      <trkpt lat="42.83423" lon="-0.43956">
        <ele>2153.8</ele>
        <time>2021-08-10 12:54:12</time>
      </trkpt>
      <trkpt lat="42.83423" lon="-0.43955">
        <ele>2153.8</ele>
        <time>2021-08-10 12:54:13</time>
      </trkpt>
      <trkpt lat="42.83423" lon="-0.43954">
        <ele>2154</ele>
        <time>2021-08-10 12:54:14</time>
      </trkpt>
      <trkpt lat="42.83423" lon="-0.43954">
        <ele>2154.2</ele>
        <time>2021-08-10 12:54:15</time>
      </trkpt>
      <trkpt lat="42.83423" lon="-0.43953">
        <ele>2154.6</ele>
        <time>2021-08-10 12:54:16</time>
      </trkpt>
      <trkpt lat="42.83423" lon="-0.43952">
        <ele>2154.6</ele>
        <time>2021-08-10 12:54:17</time>
      </trkpt>
      <trkpt lat="42.83422" lon="-0.43952">
        <ele>2154.8</ele>
        <time>2021-08-10 12:54:18</time>
      </trkpt>
      <trkpt lat="42.83423" lon="-0.43952">
        <ele>2154.8</ele>
        <time>2021-08-10 12:54:19</time>
      </trkpt>
      <trkpt lat="42.83422" lon="-0.43951">
        <ele>2155</ele>
        <time>2021-08-10 12:54:20</time>
      </trkpt>
      <trkpt lat="42.83422" lon="-0.4395">
        <ele>2155.2</ele>
        <time>2021-08-10 12:54:21</time>
      </trkpt>
      <trkpt lat="42.83422" lon="-0.4395">
        <ele>2155.4</ele>
        <time>2021-08-10 12:54:22</time>
      </trkpt>
      <trkpt lat="42.83422" lon="-0.43949">
        <ele>2155.4</ele>
        <time>2021-08-10 12:54:23</time>
      </trkpt>
      <trkpt lat="42.83422" lon="-0.43948">
        <ele>2155.8</ele>
        <time>2021-08-10 12:54:24</time>
      </trkpt>
      <trkpt lat="42.83422" lon="-0.43947">
        <ele>2156</ele>
        <time>2021-08-10 12:54:25</time>
      </trkpt>
      <trkpt lat="42.83422" lon="-0.43947">
        <ele>2156</ele>
        <time>2021-08-10 12:54:26</time>
      </trkpt>
      <trkpt lat="42.83422" lon="-0.43947">
        <ele>2156.4</ele>
        <time>2021-08-10 12:54:27</time>
      </trkpt>
      <trkpt lat="42.83422" lon="-0.43946">
        <ele>2156.6</ele>
        <time>2021-08-10 12:54:28</time>
      </trkpt>
      <trkpt lat="42.83421" lon="-0.43945">
        <ele>2157</ele>
        <time>2021-08-10 12:54:29</time>
      </trkpt>
      <trkpt lat="42.83421" lon="-0.43944">
        <ele>2157</ele>
        <time>2021-08-10 12:54:30</time>
      </trkpt>
      <trkpt lat="42.83421" lon="-0.43943">
        <ele>2157.4</ele>
        <time>2021-08-10 12:54:31</time>
      </trkpt>
      <trkpt lat="42.83421" lon="-0.43943">
        <ele>2157.6</ele>
        <time>2021-08-10 12:54:32</time>
      </trkpt>
      <trkpt lat="42.83421" lon="-0.43943">
        <ele>2157.8</ele>
        <time>2021-08-10 12:54:33</time>
      </trkpt>
      <trkpt lat="42.83421" lon="-0.43942">
        <ele>2158</ele>
        <time>2021-08-10 12:54:34</time>
      </trkpt>
      <trkpt lat="42.83421" lon="-0.43941">
        <ele>2157.8</ele>
        <time>2021-08-10 12:54:35</time>
      </trkpt>
      <trkpt lat="42.83421" lon="-0.43941">
        <ele>2157.6</ele>
        <time>2021-08-10 12:54:36</time>
      </trkpt>
      <trkpt lat="42.83421" lon="-0.43941">
        <ele>2157.6</ele>
        <time>2021-08-10 12:54:37</time>
      </trkpt>
      <trkpt lat="42.83421" lon="-0.43941">
        <ele>2157.8</ele>
        <time>2021-08-10 12:54:38</time>
      </trkpt>
      <trkpt lat="42.83421" lon="-0.43941">
        <ele>2157.8</ele>
        <time>2021-08-10 12:54:39</time>
      </trkpt>
      <trkpt lat="42.83421" lon="-0.43941">
        <ele>2157.8</ele>
        <time>2021-08-10 12:54:40</time>
      </trkpt>
      <trkpt lat="42.83421" lon="-0.4394">
        <ele>2157.8</ele>
        <time>2021-08-10 12:54:41</time>
      </trkpt>
      <trkpt lat="42.83421" lon="-0.4394">
        <ele>2157.8</ele>
        <time>2021-08-10 12:54:42</time>
      </trkpt>
      <trkpt lat="42.83421" lon="-0.43939">
        <ele>2157.6</ele>
        <time>2021-08-10 12:54:43</time>
      </trkpt>
      <trkpt lat="42.83421" lon="-0.43939">
        <ele>2157.8</ele>
        <time>2021-08-10 12:54:44</time>
      </trkpt>
      <trkpt lat="42.8342" lon="-0.43939">
        <ele>2157.6</ele>
        <time>2021-08-10 12:54:45</time>
      </trkpt>
      <trkpt lat="42.8342" lon="-0.43939">
        <ele>2157.6</ele>
        <time>2021-08-10 12:54:46</time>
      </trkpt>
      <trkpt lat="42.83419" lon="-0.43939">
        <ele>2157.4</ele>
        <time>2021-08-10 12:54:47</time>
      </trkpt>
      <trkpt lat="42.83419" lon="-0.43939">
        <ele>2157.2</ele>
        <time>2021-08-10 12:54:48</time>
      </trkpt>
      <trkpt lat="42.83418" lon="-0.43938">
        <ele>2157.2</ele>
        <time>2021-08-10 12:54:49</time>
      </trkpt>
      <trkpt lat="42.83418" lon="-0.43938">
        <ele>2157.2</ele>
        <time>2021-08-10 12:54:50</time>
      </trkpt>
      <trkpt lat="42.83417" lon="-0.43937">
        <ele>2157.2</ele>
        <time>2021-08-10 12:54:51</time>
      </trkpt>
      <trkpt lat="42.83416" lon="-0.43937">
        <ele>2157</ele>
        <time>2021-08-10 12:54:52</time>
      </trkpt>
      <trkpt lat="42.83415" lon="-0.43937">
        <ele>2157</ele>
        <time>2021-08-10 12:54:53</time>
      </trkpt>
      <trkpt lat="42.83415" lon="-0.43936">
        <ele>2157</ele>
        <time>2021-08-10 12:54:54</time>
      </trkpt>
      <trkpt lat="42.83414" lon="-0.43935">
        <ele>2157</ele>
        <time>2021-08-10 12:54:55</time>
      </trkpt>
      <trkpt lat="42.83414" lon="-0.43935">
        <ele>2156.8</ele>
        <time>2021-08-10 12:54:56</time>
      </trkpt>
      <trkpt lat="42.83413" lon="-0.43934">
        <ele>2156.4</ele>
        <time>2021-08-10 12:54:57</time>
      </trkpt>
      <trkpt lat="42.83413" lon="-0.43933">
        <ele>2156.4</ele>
        <time>2021-08-10 12:54:58</time>
      </trkpt>
      <trkpt lat="42.83412" lon="-0.43932">
        <ele>2156.4</ele>
        <time>2021-08-10 12:54:59</time>
      </trkpt>
      <trkpt lat="42.83411" lon="-0.43931">
        <ele>2156.4</ele>
        <time>2021-08-10 12:55:00</time>
      </trkpt>
      <trkpt lat="42.8341" lon="-0.43929">
        <ele>2157</ele>
        <time>2021-08-10 12:55:01</time>
      </trkpt>
      <trkpt lat="42.8341" lon="-0.43929">
        <ele>2157.2</ele>
        <time>2021-08-10 12:55:02</time>
      </trkpt>
      <trkpt lat="42.8341" lon="-0.43928">
        <ele>2157.2</ele>
        <time>2021-08-10 12:55:03</time>
      </trkpt>
      <trkpt lat="42.83411" lon="-0.43928">
        <ele>2156.4</ele>
        <time>2021-08-10 12:55:04</time>
      </trkpt>
      <trkpt lat="42.83411" lon="-0.43928">
        <ele>2156.2</ele>
        <time>2021-08-10 12:55:12</time>
      </trkpt>
      <trkpt lat="42.83411" lon="-0.43928">
        <ele>2156.4</ele>
        <time>2021-08-10 12:55:13</time>
      </trkpt>
      <trkpt lat="42.83412" lon="-0.43928">
        <ele>2156.4</ele>
        <time>2021-08-10 12:55:14</time>
      </trkpt>
      <trkpt lat="42.83412" lon="-0.43928">
        <ele>2156.4</ele>
        <time>2021-08-10 12:55:15</time>
      </trkpt>
      <trkpt lat="42.83412" lon="-0.43927">
        <ele>2156</ele>
        <time>2021-08-10 12:55:16</time>
      </trkpt>
      <trkpt lat="42.83412" lon="-0.43927">
        <ele>2155.8</ele>
        <time>2021-08-10 12:55:17</time>
      </trkpt>
      <trkpt lat="42.83411" lon="-0.43928">
        <ele>2155.4</ele>
        <time>2021-08-10 12:55:18</time>
      </trkpt>
      <trkpt lat="42.83411" lon="-0.43928">
        <ele>2155.4</ele>
        <time>2021-08-10 12:55:19</time>
      </trkpt>
      <trkpt lat="42.83411" lon="-0.43928">
        <ele>2155.2</ele>
        <time>2021-08-10 12:55:20</time>
      </trkpt>
      <trkpt lat="42.83412" lon="-0.43928">
        <ele>2153.2</ele>
        <time>2021-08-10 12:55:21</time>
      </trkpt>
      <trkpt lat="42.83412" lon="-0.43928">
        <ele>2153.2</ele>
        <time>2021-08-10 12:55:22</time>
      </trkpt>
      <trkpt lat="42.83412" lon="-0.43928">
        <ele>2153.2</ele>
        <time>2021-08-10 12:55:23</time>
      </trkpt>
      <trkpt lat="42.83412" lon="-0.43928">
        <ele>2153.2</ele>
        <time>2021-08-10 12:55:24</time>
      </trkpt>
      <trkpt lat="42.83412" lon="-0.43928">
        <ele>2153.4</ele>
        <time>2021-08-10 12:55:25</time>
      </trkpt>
      <trkpt lat="42.83412" lon="-0.43928">
        <ele>2153.4</ele>
        <time>2021-08-10 12:55:26</time>
      </trkpt>
      <trkpt lat="42.83412" lon="-0.43928">
        <ele>2153.4</ele>
        <time>2021-08-10 12:55:27</time>
      </trkpt>
      <trkpt lat="42.83412" lon="-0.43928">
        <ele>2154.2</ele>
        <time>2021-08-10 12:55:28</time>
      </trkpt>
      <trkpt lat="42.83412" lon="-0.43927">
        <ele>2154.4</ele>
        <time>2021-08-10 12:55:29</time>
      </trkpt>
      <trkpt lat="42.83412" lon="-0.43927">
        <ele>2154.6</ele>
        <time>2021-08-10 12:55:30</time>
      </trkpt>
      <trkpt lat="42.83412" lon="-0.43928">
        <ele>2154.6</ele>
        <time>2021-08-10 12:55:31</time>
      </trkpt>
      <trkpt lat="42.83412" lon="-0.43928">
        <ele>2154.6</ele>
        <time>2021-08-10 12:55:32</time>
      </trkpt>
      <trkpt lat="42.83412" lon="-0.43928">
        <ele>2154.8</ele>
        <time>2021-08-10 12:55:33</time>
      </trkpt>
      <trkpt lat="42.83412" lon="-0.43927">
        <ele>2154.4</ele>
        <time>2021-08-10 12:55:34</time>
      </trkpt>
      <trkpt lat="42.83412" lon="-0.43928">
        <ele>2154.2</ele>
        <time>2021-08-10 12:55:35</time>
      </trkpt>
      <trkpt lat="42.83412" lon="-0.43928">
        <ele>2154.8</ele>
        <time>2021-08-10 12:55:36</time>
      </trkpt>
      <trkpt lat="42.83412" lon="-0.43928">
        <ele>2154.8</ele>
        <time>2021-08-10 12:55:37</time>
      </trkpt>
      <trkpt lat="42.83412" lon="-0.43928">
        <ele>2154.8</ele>
        <time>2021-08-10 12:55:38</time>
      </trkpt>
      <trkpt lat="42.83412" lon="-0.43927">
        <ele>2154.6</ele>
        <time>2021-08-10 12:55:39</time>
      </trkpt>
      <trkpt lat="42.83412" lon="-0.43927">
        <ele>2153.6</ele>
        <time>2021-08-10 12:55:40</time>
      </trkpt>
      <trkpt lat="42.83412" lon="-0.43927">
        <ele>2153.4</ele>
        <time>2021-08-10 12:55:41</time>
      </trkpt>
      <trkpt lat="42.83412" lon="-0.43927">
        <ele>2153.4</ele>
        <time>2021-08-10 12:55:42</time>
      </trkpt>
      <trkpt lat="42.83413" lon="-0.43927">
        <ele>2154</ele>
        <time>2021-08-10 12:55:43</time>
      </trkpt>
      <trkpt lat="42.83413" lon="-0.43926">
        <ele>2153.6</ele>
        <time>2021-08-10 12:55:44</time>
      </trkpt>
      <trkpt lat="42.83413" lon="-0.43926">
        <ele>2153.8</ele>
        <time>2021-08-10 12:55:45</time>
      </trkpt>
      <trkpt lat="42.83414" lon="-0.43926">
        <ele>2153.4</ele>
        <time>2021-08-10 12:55:46</time>
      </trkpt>
      <trkpt lat="42.83414" lon="-0.43927">
        <ele>2153.4</ele>
        <time>2021-08-10 12:55:47</time>
      </trkpt>
      <trkpt lat="42.83415" lon="-0.43927">
        <ele>2153.2</ele>
        <time>2021-08-10 12:55:48</time>
      </trkpt>
      <trkpt lat="42.83415" lon="-0.43928">
        <ele>2153.2</ele>
        <time>2021-08-10 12:55:49</time>
      </trkpt>
      <trkpt lat="42.83415" lon="-0.43928">
        <ele>2153.2</ele>
        <time>2021-08-10 12:55:50</time>
      </trkpt>
      <trkpt lat="42.83415" lon="-0.43928">
        <ele>2153</ele>
        <time>2021-08-10 12:55:51</time>
      </trkpt>
      <trkpt lat="42.83415" lon="-0.43928">
        <ele>2153.2</ele>
        <time>2021-08-10 12:55:52</time>
      </trkpt>
      <trkpt lat="42.83415" lon="-0.43929">
        <ele>2153.2</ele>
        <time>2021-08-10 12:55:53</time>
      </trkpt>
      <trkpt lat="42.83415" lon="-0.43929">
        <ele>2153.2</ele>
        <time>2021-08-10 12:55:54</time>
      </trkpt>
      <trkpt lat="42.83415" lon="-0.43928">
        <ele>2153.4</ele>
        <time>2021-08-10 12:55:55</time>
      </trkpt>
      <trkpt lat="42.83415" lon="-0.43928">
        <ele>2153</ele>
        <time>2021-08-10 12:55:56</time>
      </trkpt>
      <trkpt lat="42.83415" lon="-0.43928">
        <ele>2153.4</ele>
        <time>2021-08-10 12:55:57</time>
      </trkpt>
      <trkpt lat="42.83415" lon="-0.43927">
        <ele>2153</ele>
        <time>2021-08-10 12:55:58</time>
      </trkpt>
      <trkpt lat="42.83416" lon="-0.43927">
        <ele>2153</ele>
        <time>2021-08-10 12:55:59</time>
      </trkpt>
      <trkpt lat="42.83416" lon="-0.43926">
        <ele>2153</ele>
        <time>2021-08-10 12:56:00</time>
      </trkpt>
      <trkpt lat="42.83417" lon="-0.43926">
        <ele>2153</ele>
        <time>2021-08-10 12:56:01</time>
      </trkpt>
      <trkpt lat="42.83417" lon="-0.43926">
        <ele>2152.6</ele>
        <time>2021-08-10 12:56:02</time>
      </trkpt>
      <trkpt lat="42.83418" lon="-0.43925">
        <ele>2152.4</ele>
        <time>2021-08-10 12:56:03</time>
      </trkpt>
      <trkpt lat="42.83418" lon="-0.43925">
        <ele>2152</ele>
        <time>2021-08-10 12:56:04</time>
      </trkpt>
      <trkpt lat="42.83419" lon="-0.43924">
        <ele>2152</ele>
        <time>2021-08-10 12:56:05</time>
      </trkpt>
      <trkpt lat="42.83419" lon="-0.43924">
        <ele>2151.8</ele>
        <time>2021-08-10 12:56:06</time>
      </trkpt>
      <trkpt lat="42.83419" lon="-0.43923">
        <ele>2151.8</ele>
        <time>2021-08-10 12:56:07</time>
      </trkpt>
      <trkpt lat="42.83419" lon="-0.43922">
        <ele>2151.8</ele>
        <time>2021-08-10 12:56:08</time>
      </trkpt>
      <trkpt lat="42.83419" lon="-0.43922">
        <ele>2151.8</ele>
        <time>2021-08-10 12:56:09</time>
      </trkpt>
      <trkpt lat="42.83419" lon="-0.43922">
        <ele>2151.8</ele>
        <time>2021-08-10 12:56:10</time>
      </trkpt>
      <trkpt lat="42.83418" lon="-0.43921">
        <ele>2151.6</ele>
        <time>2021-08-10 12:56:11</time>
      </trkpt>
      <trkpt lat="42.83418" lon="-0.43921">
        <ele>2151.4</ele>
        <time>2021-08-10 12:56:12</time>
      </trkpt>
      <trkpt lat="42.83418" lon="-0.4392">
        <ele>2151.2</ele>
        <time>2021-08-10 12:56:13</time>
      </trkpt>
      <trkpt lat="42.83418" lon="-0.4392">
        <ele>2151.2</ele>
        <time>2021-08-10 12:56:14</time>
      </trkpt>
      <trkpt lat="42.83418" lon="-0.43919">
        <ele>2151</ele>
        <time>2021-08-10 12:56:15</time>
      </trkpt>
      <trkpt lat="42.83418" lon="-0.43918">
        <ele>2150.6</ele>
        <time>2021-08-10 12:56:16</time>
      </trkpt>
      <trkpt lat="42.83418" lon="-0.43918">
        <ele>2150.6</ele>
        <time>2021-08-10 12:56:17</time>
      </trkpt>
      <trkpt lat="42.83419" lon="-0.43918">
        <ele>2150.4</ele>
        <time>2021-08-10 12:56:18</time>
      </trkpt>
      <trkpt lat="42.83419" lon="-0.43918">
        <ele>2150.4</ele>
        <time>2021-08-10 12:56:19</time>
      </trkpt>
      <trkpt lat="42.8342" lon="-0.43917">
        <ele>2150.2</ele>
        <time>2021-08-10 12:56:20</time>
      </trkpt>
      <trkpt lat="42.8342" lon="-0.43917">
        <ele>2150.2</ele>
        <time>2021-08-10 12:56:21</time>
      </trkpt>
      <trkpt lat="42.83419" lon="-0.43917">
        <ele>2150</ele>
        <time>2021-08-10 12:56:22</time>
      </trkpt>
      <trkpt lat="42.83419" lon="-0.43916">
        <ele>2150</ele>
        <time>2021-08-10 12:56:23</time>
      </trkpt>
      <trkpt lat="42.83419" lon="-0.43915">
        <ele>2150</ele>
        <time>2021-08-10 12:56:24</time>
      </trkpt>
      <trkpt lat="42.8342" lon="-0.43915">
        <ele>2149.6</ele>
        <time>2021-08-10 12:56:25</time>
      </trkpt>
      <trkpt lat="42.8342" lon="-0.43915">
        <ele>2149.2</ele>
        <time>2021-08-10 12:56:26</time>
      </trkpt>
      <trkpt lat="42.8342" lon="-0.43914">
        <ele>2149.2</ele>
        <time>2021-08-10 12:56:27</time>
      </trkpt>
      <trkpt lat="42.8342" lon="-0.43914">
        <ele>2149</ele>
        <time>2021-08-10 12:56:28</time>
      </trkpt>
      <trkpt lat="42.8342" lon="-0.43913">
        <ele>2148.8</ele>
        <time>2021-08-10 12:56:29</time>
      </trkpt>
      <trkpt lat="42.8342" lon="-0.43913">
        <ele>2148.8</ele>
        <time>2021-08-10 12:56:30</time>
      </trkpt>
      <trkpt lat="42.8342" lon="-0.43912">
        <ele>2148.6</ele>
        <time>2021-08-10 12:56:31</time>
      </trkpt>
      <trkpt lat="42.8342" lon="-0.43912">
        <ele>2148.6</ele>
        <time>2021-08-10 12:56:32</time>
      </trkpt>
      <trkpt lat="42.8342" lon="-0.43911">
        <ele>2148.6</ele>
        <time>2021-08-10 12:56:33</time>
      </trkpt>
      <trkpt lat="42.8342" lon="-0.43911">
        <ele>2148.6</ele>
        <time>2021-08-10 12:56:34</time>
      </trkpt>
      <trkpt lat="42.8342" lon="-0.43911">
        <ele>2148.2</ele>
        <time>2021-08-10 12:56:40</time>
      </trkpt>
      <trkpt lat="42.8342" lon="-0.4391">
        <ele>2148</ele>
        <time>2021-08-10 12:56:41</time>
      </trkpt>
      <trkpt lat="42.8342" lon="-0.4391">
        <ele>2148</ele>
        <time>2021-08-10 12:56:42</time>
      </trkpt>
      <trkpt lat="42.8342" lon="-0.4391">
        <ele>2148.2</ele>
        <time>2021-08-10 12:56:48</time>
      </trkpt>
      <trkpt lat="42.8342" lon="-0.43909">
        <ele>2148</ele>
        <time>2021-08-10 12:56:49</time>
      </trkpt>
      <trkpt lat="42.8342" lon="-0.43909">
        <ele>2147.8</ele>
        <time>2021-08-10 12:56:50</time>
      </trkpt>
      <trkpt lat="42.8342" lon="-0.43908">
        <ele>2147.8</ele>
        <time>2021-08-10 12:56:51</time>
      </trkpt>
      <trkpt lat="42.8342" lon="-0.43908">
        <ele>2147.8</ele>
        <time>2021-08-10 12:56:52</time>
      </trkpt>
      <trkpt lat="42.8342" lon="-0.43907">
        <ele>2147.8</ele>
        <time>2021-08-10 12:56:53</time>
      </trkpt>
      <trkpt lat="42.8342" lon="-0.43907">
        <ele>2147.6</ele>
        <time>2021-08-10 12:56:54</time>
      </trkpt>
      <trkpt lat="42.8342" lon="-0.43906">
        <ele>2147.4</ele>
        <time>2021-08-10 12:56:55</time>
      </trkpt>
      <trkpt lat="42.8342" lon="-0.43906">
        <ele>2147.2</ele>
        <time>2021-08-10 12:56:56</time>
      </trkpt>
      <trkpt lat="42.8342" lon="-0.43905">
        <ele>2147</ele>
        <time>2021-08-10 12:56:57</time>
      </trkpt>
      <trkpt lat="42.8342" lon="-0.43904">
        <ele>2146.8</ele>
        <time>2021-08-10 12:56:58</time>
      </trkpt>
      <trkpt lat="42.83419" lon="-0.43904">
        <ele>2146.8</ele>
        <time>2021-08-10 12:56:59</time>
      </trkpt>
      <trkpt lat="42.83419" lon="-0.43903">
        <ele>2146.6</ele>
      </trkpt>
      <trkpt lat="42.83419" lon="-0.43903">
        <ele>2146.6</ele>
        <time>2021-08-10 12:57:01</time>
      </trkpt>
      <trkpt lat="42.83419" lon="-0.43902">
        <ele>2146.8</ele>
        <time>2021-08-10 12:57:02</time>
      </trkpt>
      <trkpt lat="42.83418" lon="-0.43902">
        <ele>2146.8</ele>
        <time>2021-08-10 12:57:03</time>
      </trkpt>
      <trkpt lat="42.83419" lon="-0.43901">
        <ele>2146.6</ele>
        <time>2021-08-10 12:57:04</time>
      </trkpt>
      <trkpt lat="42.83418" lon="-0.43901">
        <ele>2146.4</ele>
        <time>2021-08-10 12:57:05</time>
      </trkpt>
      <trkpt lat="42.83418" lon="-0.439">
        <ele>2146.2</ele>
        <time>2021-08-10 12:57:06</time>
      </trkpt>
      <trkpt lat="42.83418" lon="-0.439">
        <ele>2145.6</ele>
        <time>2021-08-10 12:57:07</time>
      </trkpt>
      <trkpt lat="42.83418" lon="-0.439">
        <ele>2145.4</ele>
        <time>2021-08-10 12:57:08</time>
      </trkpt>
      <trkpt lat="42.83418" lon="-0.43899">
        <ele>2145</ele>
        <time>2021-08-10 12:57:09</time>
      </trkpt>
      <trkpt lat="42.83418" lon="-0.43898">
        <ele>2144.4</ele>
      </trkpt>
      <trkpt lat="42.83419" lon="-0.43898">
        <ele>2144</ele>
        <time>2021-08-10 12:57:10</time>
      </trkpt>
      <trkpt lat="42.83419" lon="-0.43898">
        <ele>2143.6</ele>
        <time>2021-08-10 12:57:11</time>
      </trkpt>
      <trkpt lat="42.83419" lon="-0.43898">
        <ele>2143.6</ele>
        <time>2021-08-10 12:57:13</time>
      </trkpt>
      <trkpt lat="42.8342" lon="-0.43898">
        <ele>2143.6</ele>
      </trkpt>
      <trkpt lat="42.83423" lon="-0.43869">
        <ele>2135.2</ele>
        <time>2021-08-10 12:57:14</time>
      </trkpt>
      <trkpt lat="42.8342" lon="-0.43897">
        <ele>2143.6</ele>
        <time>2021-08-10 12:57:15</time>
      </trkpt>
      <trkpt lat="42.8342" lon="-0.43897">
        <ele>2143.2</ele>
        <time>2021-08-10 12:57:17</time>
      </trkpt>
      <trkpt lat="42.83421" lon="-0.43897">
        <ele>2143.2</ele>
        <time>2021-08-10 12:57:18</time>
      </trkpt>
      <trkpt lat="42.83421" lon="-0.43897">
        <ele>2142.8</ele>
        <time>2021-08-10 12:57:19</time>
      </trkpt>
      <trkpt lat="42.83422" lon="-0.43897">
        <ele>2142.6</ele>
        <time>2021-08-10 12:57:20</time>
      </trkpt>
      <trkpt lat="42.83422" lon="-0.43897">
        <ele>2142.6</ele>
        <time>2021-08-10 12:59:53</time>
      </trkpt>
      <trkpt lat="42.83423" lon="-0.43897">
        <ele>2142.4</ele>
        <time>2021-08-10 12:59:54</time>
      </trkpt>
      <trkpt lat="42.83423" lon="-0.43897">
        <ele>2142.4</ele>
        <time>2021-08-10 12:59:55</time>
      </trkpt>
      <trkpt lat="42.83423" lon="-0.43897">
        <ele>2142.2</ele>
        <time>2021-08-10 13:18:52</time>
      </trkpt>
      <trkpt lat="42.83423" lon="-0.43897">
        <ele>2142.2</ele>
        <time>2021-08-10 13:18:53</time>
      </trkpt>
      <trkpt lat="42.83424" lon="-0.43897">
        <ele>2142.2</ele>
        <time>2021-08-10 13:18:54</time>
      </trkpt>
      <trkpt lat="42.83424" lon="-0.43897">
        <ele>2141.8</ele>
        <time>2021-08-10 13:18:55</time>
      </trkpt>
      <trkpt lat="42.83425" lon="-0.43897">
        <ele>2141.8</ele>
        <time>2021-08-10 13:18:57</time>
      </trkpt>
      <trkpt lat="42.83425" lon="-0.43896">
        <ele>2141.8</ele>
        <time>2021-08-10 13:18:58</time>
      </trkpt>
      <trkpt lat="42.83425" lon="-0.43896">
        <ele>2141.6</ele>
        <time>2021-08-10 13:18:59</time>
      </trkpt>
      <trkpt lat="42.83426" lon="-0.43895">
        <ele>2141.4</ele>
        <time>2021-08-10 13:19:06</time>
      </trkpt>
      <trkpt lat="42.83426" lon="-0.43895">
        <ele>2141.4</ele>
        <time>2021-08-10 13:19:07</time>
      </trkpt>
      <trkpt lat="42.83426" lon="-0.43894">
        <ele>2141</ele>
        <time>2021-08-10 13:19:08</time>
      </trkpt>
      <trkpt lat="42.83427" lon="-0.43893">
        <ele>2140.8</ele>
        <time>2021-08-10 13:19:09</time>
      </trkpt>
      <trkpt lat="42.83427" lon="-0.43893">
        <ele>2140.6</ele>
        <time>2021-08-10 13:19:10</time>
      </trkpt>
      <trkpt lat="42.83427" lon="-0.43892">
        <ele>2140.6</ele>
        <time>2021-08-10 13:19:11</time>
      </trkpt>
      <trkpt lat="42.83427" lon="-0.43891">
        <ele>2140.4</ele>
        <time>2021-08-10 13:19:13</time>
      </trkpt>
      <trkpt lat="42.83427" lon="-0.4389">
        <ele>2140.2</ele>
        <time>2021-08-10 13:19:14</time>
      </trkpt>
      <trkpt lat="42.83427" lon="-0.43889">
        <ele>2140</ele>
        <time>2021-08-10 13:19:15</time>
      </trkpt>
      <trkpt lat="42.83427" lon="-0.43888">
        <ele>2139.8</ele>
        <time>2021-08-10 13:19:16</time>
      </trkpt>
      <trkpt lat="42.83427" lon="-0.43887">
        <ele>2139.6</ele>
        <time>2021-08-10 13:19:18</time>
      </trkpt>
      <trkpt lat="42.83427" lon="-0.43887">
        <ele>2139.6</ele>
        <time>2021-08-10 13:19:19</time>
      </trkpt>
      <trkpt lat="42.83427" lon="-0.43886">
        <ele>2139</ele>
        <time>2021-08-10 13:19:20</time>
      </trkpt>
      <trkpt lat="42.83427" lon="-0.43885">
        <ele>2139</ele>
        <time>2021-08-10 13:19:21</time>
      </trkpt>
      <trkpt lat="42.83426" lon="-0.43884">
        <ele>2139</ele>
        <time>2021-08-10 13:19:22</time>
      </trkpt>
      <trkpt lat="42.83426" lon="-0.43883">
        <ele>2138.8</ele>
        <time>2021-08-10 13:19:23</time>
      </trkpt>
      <trkpt lat="42.83426" lon="-0.43881">
        <ele>2138.6</ele>
        <time>2021-08-10 13:19:26</time>
      </trkpt>
      <trkpt lat="42.83425" lon="-0.43881">
        <ele>2138.4</ele>
        <time>2021-08-10 13:19:27</time>
      </trkpt>
      <trkpt lat="42.83425" lon="-0.4388">
        <ele>2138.4</ele>
        <time>2021-08-10 13:19:28</time>
      </trkpt>
      <trkpt lat="42.83425" lon="-0.43879">
        <ele>2138.2</ele>
        <time>2021-08-10 13:19:29</time>
      </trkpt>
      <trkpt lat="42.83425" lon="-0.43878">
        <ele>2138.2</ele>
        <time>2021-08-10 13:19:30</time>
      </trkpt>
      <trkpt lat="42.83425" lon="-0.43877">
        <ele>2138</ele>
        <time>2021-08-10 13:19:31</time>
      </trkpt>
      <trkpt lat="42.83424" lon="-0.43877">
        <ele>2137.8</ele>
        <time>2021-08-10 13:19:32</time>
      </trkpt>
      <trkpt lat="42.83424" lon="-0.43876">
        <ele>2137.6</ele>
        <time>2021-08-10 13:19:33</time>
      </trkpt>
      <trkpt lat="42.83423" lon="-0.43876">
        <ele>2137.4</ele>
        <time>2021-08-10 13:19:35</time>
      </trkpt>
      <trkpt lat="42.83422" lon="-0.43876">
        <ele>2137.2</ele>
        <time>2021-08-10 13:19:36</time>
      </trkpt>
      <trkpt lat="42.83421" lon="-0.43875">
        <ele>2137</ele>
        <time>2021-08-10 13:19:37</time>
      </trkpt>
      <trkpt lat="42.83421" lon="-0.43875">
        <ele>2136.8</ele>
        <time>2021-08-10 13:19:50</time>
      </trkpt>
      <trkpt lat="42.83421" lon="-0.43874">
        <ele>2136.8</ele>
        <time>2021-08-10 13:19:51</time>
      </trkpt>
      <trkpt lat="42.83422" lon="-0.43873">
        <ele>2136.8</ele>
        <time>2021-08-10 13:19:52</time>
      </trkpt>
      <trkpt lat="42.83422" lon="-0.43873">
        <ele>2136.6</ele>
        <time>2021-08-10 13:19:53</time>
      </trkpt>
      <trkpt lat="42.83422" lon="-0.43874">
        <ele>2136.6</ele>
        <time>2021-08-10 13:19:54</time>
      </trkpt>
      <trkpt lat="42.83423" lon="-0.43873">
        <ele>2136.4</ele>
        <time>2021-08-10 13:19:55</time>
      </trkpt>
      <trkpt lat="42.83423" lon="-0.43872">
        <ele>2136.2</ele>
        <time>2021-08-10 13:19:56</time>
      </trkpt>
      <trkpt lat="42.83423" lon="-0.43872">
        <ele>2136.2</ele>
        <time>2021-08-10 13:19:57</time>
      </trkpt>
      <trkpt lat="42.83423" lon="-0.43871">
        <ele>2136</ele>
        <time>2021-08-10 13:19:58</time>
      </trkpt>
      <trkpt lat="42.83423" lon="-0.43871">
        <ele>2135.8</ele>
        <time>2021-08-10 13:19:59</time>
      </trkpt>
      <trkpt lat="42.83423" lon="-0.4387">
        <ele>2135.6</ele>
        <time>2021-08-10 13:20:00</time>
      </trkpt>
      <trkpt lat="42.83423" lon="-0.4387">
        <ele>2135.8</ele>
        <time>2021-08-10 13:20:01</time>
      </trkpt>
      <trkpt lat="42.83423" lon="-0.4387">
        <ele>2135.6</ele>
        <time>2021-08-10 13:20:02</time>
      </trkpt>
      <trkpt lat="42.83423" lon="-0.43869">
        <ele>2135.4</ele>
        <time>2021-08-10 13:20:03</time>
      </trkpt>
      <trkpt lat="42.83423" lon="-0.43868">
        <ele>2135.2</ele>
        <time>2021-08-10 13:20:04</time>
      </trkpt>
      <trkpt lat="42.83424" lon="-0.43868">
        <ele>2135</ele>
        <time>2021-08-10 13:20:05</time>
      </trkpt>
      <trkpt lat="42.83424" lon="-0.43868">
        <ele>2135</ele>
        <time>2021-08-10 13:20:06</time>
      </trkpt>
      <trkpt lat="42.83424" lon="-0.43868">
        <ele>2135</ele>
        <time>2021-08-10 13:20:07</time>
      </trkpt>
      <trkpt lat="42.83424" lon="-0.43867">
        <ele>2135.2</ele>
        <time>2021-08-10 13:20:08</time>
      </trkpt>
      <trkpt lat="42.83424" lon="-0.43867">
        <ele>2135.2</ele>
        <time>2021-08-10 13:20:09</time>
      </trkpt>
      <trkpt lat="42.83424" lon="-0.43867">
        <ele>2135.2</ele>
        <time>2021-08-10 13:20:10</time>
      </trkpt>
      <trkpt lat="42.83425" lon="-0.43867">
        <ele>2135</ele>
        <time>2021-08-10 13:20:11</time>
      </trkpt>
      <trkpt lat="42.83425" lon="-0.43866">
        <ele>2135</ele>
        <time>2021-08-10 13:20:12</time>
      </trkpt>
      <trkpt lat="42.83425" lon="-0.43866">
        <ele>2135</ele>
        <time>2021-08-10 13:20:13</time>
      </trkpt>
      <trkpt lat="42.83426" lon="-0.43866">
        <ele>2134.8</ele>
        <time>2021-08-10 13:20:14</time>
      </trkpt>
      <trkpt lat="42.83426" lon="-0.43865">
        <ele>2134.8</ele>
        <time>2021-08-10 13:20:15</time>
      </trkpt>
      <trkpt lat="42.83426" lon="-0.43865">
        <ele>2134.6</ele>
        <time>2021-08-10 13:20:16</time>
      </trkpt>
      <trkpt lat="42.83426" lon="-0.43865">
        <ele>2134.4</ele>
        <time>2021-08-10 13:20:17</time>
      </trkpt>
      <trkpt lat="42.83426" lon="-0.43864">
        <ele>2134.2</ele>
        <time>2021-08-10 13:20:18</time>
      </trkpt>
      <trkpt lat="42.83426" lon="-0.43863">
        <ele>2134.2</ele>
        <time>2021-08-10 13:20:19</time>
      </trkpt>
      <trkpt lat="42.83426" lon="-0.43863">
        <ele>2134.2</ele>
        <time>2021-08-10 13:20:20</time>
      </trkpt>
      <trkpt lat="42.83426" lon="-0.43863">
        <ele>2134.2</ele>
        <time>2021-08-10 13:20:21</time>
      </trkpt>
      <trkpt lat="42.83426" lon="-0.43862">
        <ele>2134</ele>
        <time>2021-08-10 13:20:22</time>
      </trkpt>
      <trkpt lat="42.83426" lon="-0.43862">
        <ele>2134</ele>
        <time>2021-08-10 13:20:23</time>
      </trkpt>
      <trkpt lat="42.83426" lon="-0.43861">
        <ele>2133.6</ele>
        <time>2021-08-10 13:20:24</time>
      </trkpt>
      <trkpt lat="42.83426" lon="-0.43861">
        <ele>2133.6</ele>
        <time>2021-08-10 13:20:25</time>
      </trkpt>
      <trkpt lat="42.83426" lon="-0.43861">
        <ele>2133.4</ele>
        <time>2021-08-10 13:20:26</time>
      </trkpt>
      <trkpt lat="42.83427" lon="-0.43859">
        <ele>2133.2</ele>
        <time>2021-08-10 13:20:27</time>
      </trkpt>
      <trkpt lat="42.83427" lon="-0.43859">
        <ele>2133</ele>
        <time>2021-08-10 13:20:28</time>
      </trkpt>
      <trkpt lat="42.83427" lon="-0.43859">
        <ele>2133</ele>
        <time>2021-08-10 13:20:29</time>
      </trkpt>
      <trkpt lat="42.83427" lon="-0.43859">
        <ele>2132.8</ele>
        <time>2021-08-10 13:20:30</time>
      </trkpt>
      <trkpt lat="42.83428" lon="-0.43858">
        <ele>2132.6</ele>
        <time>2021-08-10 13:20:31</time>
      </trkpt>
      <trkpt lat="42.83428" lon="-0.43859">
        <ele>2132.8</ele>
        <time>2021-08-10 13:20:32</time>
      </trkpt>
      <trkpt lat="42.83428" lon="-0.43859">
        <ele>2132.8</ele>
        <time>2021-08-10 13:20:33</time>
      </trkpt>
      <trkpt lat="42.83428" lon="-0.43859">
        <ele>2132.4</ele>
        <time>2021-08-10 13:20:34</time>
      </trkpt>
      <trkpt lat="42.83428" lon="-0.43859">
        <ele>2132.2</ele>
        <time>2021-08-10 13:20:35</time>
      </trkpt>
      <trkpt lat="42.83429" lon="-0.43859">
        <ele>2132.4</ele>
        <time>2021-08-10 13:20:36</time>
      </trkpt>
      <trkpt lat="42.83429" lon="-0.43859">
        <ele>2132.6</ele>
        <time>2021-08-10 13:20:37</time>
      </trkpt>
      <trkpt lat="42.83429" lon="-0.43858">
        <ele>2132.6</ele>
        <time>2021-08-10 13:20:38</time>
      </trkpt>
      <trkpt lat="42.83429" lon="-0.43858">
        <ele>2132.2</ele>
        <time>2021-08-10 13:20:39</time>
      </trkpt>
      <trkpt lat="42.83429" lon="-0.43858">
        <ele>2132.2</ele>
        <time>2021-08-10 13:20:40</time>
      </trkpt>
      <trkpt lat="42.83429" lon="-0.43858">
        <ele>2132.2</ele>
        <time>2021-08-10 13:20:41</time>
      </trkpt>
      <trkpt lat="42.83429" lon="-0.43858">
        <ele>2132.2</ele>
        <time>2021-08-10 13:20:42</time>
      </trkpt>
      <trkpt lat="42.83429" lon="-0.43859">
        <ele>2132.4</ele>
        <time>2021-08-10 13:20:43</time>
      </trkpt>
      <trkpt lat="42.83429" lon="-0.43858">
        <ele>2132.2</ele>
        <time>2021-08-10 13:20:44</time>
      </trkpt>
      <trkpt lat="42.83429" lon="-0.43858">
        <ele>2132</ele>
        <time>2021-08-10 13:20:45</time>
      </trkpt>
      <trkpt lat="42.83429" lon="-0.43858">
        <ele>2132</ele>
        <time>2021-08-10 13:20:46</time>
      </trkpt>
      <trkpt lat="42.83429" lon="-0.43858">
        <ele>2132</ele>
        <time>2021-08-10 13:20:47</time>
      </trkpt>
      <trkpt lat="42.83429" lon="-0.43858">
        <ele>2131.8</ele>
        <time>2021-08-10 13:20:48</time>
      </trkpt>
      <trkpt lat="42.83429" lon="-0.43858">
        <ele>2131.8</ele>
        <time>2021-08-10 13:20:49</time>
      </trkpt>
      <trkpt lat="42.83429" lon="-0.43857">
        <ele>2131.4</ele>
        <time>2021-08-10 13:20:50</time>
      </trkpt>
      <trkpt lat="42.83429" lon="-0.43857">
        <ele>2131.4</ele>
        <time>2021-08-10 13:20:51</time>
      </trkpt>
      <trkpt lat="42.83428" lon="-0.43857">
        <ele>2131.2</ele>
        <time>2021-08-10 13:20:52</time>
      </trkpt>
      <trkpt lat="42.83428" lon="-0.43856">
        <ele>2131</ele>
        <time>2021-08-10 13:20:53</time>
      </trkpt>
      <trkpt lat="42.83427" lon="-0.43856">
        <ele>2130.8</ele>
        <time>2021-08-10 13:20:54</time>
      </trkpt>
      <trkpt lat="42.83428" lon="-0.43857">
        <ele>2130.4</ele>
        <time>2021-08-10 13:20:55</time>
      </trkpt>
      <trkpt lat="42.83427" lon="-0.43857">
        <ele>2130.2</ele>
        <time>2021-08-10 13:20:56</time>
      </trkpt>
      <trkpt lat="42.83427" lon="-0.43857">
        <ele>2130.2</ele>
        <time>2021-08-10 13:20:57</time>
      </trkpt>
      <trkpt lat="42.83427" lon="-0.43857">
        <ele>2130.4</ele>
        <time>2021-08-10 13:20:58</time>
      </trkpt>
      <trkpt lat="42.83426" lon="-0.43856">
        <ele>2130.2</ele>
        <time>2021-08-10 13:20:59</time>
      </trkpt>
      <trkpt lat="42.83426" lon="-0.43855">
        <ele>2130</ele>
        <time>2021-08-10 13:21:59</time>
      </trkpt>
      <trkpt lat="42.83426" lon="-0.43854">
        <ele>2130</ele>
        <time>2021-08-10 13:21:01</time>
      </trkpt>
      <trkpt lat="42.83426" lon="-0.43854">
        <ele>2129.8</ele>
        <time>2021-08-10 13:21:02</time>
      </trkpt>
      <trkpt lat="42.83426" lon="-0.43853">
        <ele>2129.8</ele>
        <time>2021-08-10 13:21:03</time>
      </trkpt>
      <trkpt lat="42.83426" lon="-0.43853">
        <ele>2129.8</ele>
        <time>2021-08-10 13:21:04</time>
      </trkpt>
      <trkpt lat="42.83427" lon="-0.43853">
        <ele>2129.6</ele>
        <time>2021-08-10 13:21:05</time>
      </trkpt>
      <trkpt lat="42.83427" lon="-0.43852">
        <ele>2129</ele>
        <time>2021-08-10 13:21:06</time>
      </trkpt>
      <trkpt lat="42.83427" lon="-0.43852">
        <ele>2128.8</ele>
        <time>2021-08-10 13:21:07</time>
      </trkpt>
      <trkpt lat="42.83427" lon="-0.43851">
        <ele>2128.4</ele>
        <time>2021-08-10 13:21:08</time>
      </trkpt>
      <trkpt lat="42.83426" lon="-0.43851">
        <ele>2128</ele>
        <time>2021-08-10 13:21:09</time>
      </trkpt>
      <trkpt lat="42.83426" lon="-0.4385">
        <ele>2127.6</ele>
        <time>2021-08-10 13:21:10</time>
      </trkpt>
      <trkpt lat="42.83426" lon="-0.4385">
        <ele>2127.6</ele>
        <time>2021-08-10 13:21:11</time>
      </trkpt>
      <trkpt lat="42.83426" lon="-0.4385">
        <ele>2127.4</ele>
        <time>2021-08-10 13:21:12</time>
      </trkpt>
      <trkpt lat="42.83425" lon="-0.4385">
        <ele>2127.2</ele>
        <time>2021-08-10 13:21:13</time>
      </trkpt>
      <trkpt lat="42.83425" lon="-0.4385">
        <ele>2127</ele>
        <time>2021-08-10 13:21:14</time>
      </trkpt>
      <trkpt lat="42.83424" lon="-0.4385">
        <ele>2127</ele>
        <time>2021-08-10 13:21:15</time>
      </trkpt>
      <trkpt lat="42.83423" lon="-0.4385">
        <ele>2127</ele>
        <time>2021-08-10 13:21:16</time>
      </trkpt>
      <trkpt lat="42.83423" lon="-0.4385">
        <ele>2126.6</ele>
        <time>2021-08-10 13:21:17</time>
      </trkpt>
      <trkpt lat="42.83422" lon="-0.4385">
        <ele>2126.2</ele>
        <time>2021-08-10 13:21:18</time>
      </trkpt>
      <trkpt lat="42.83422" lon="-0.4385">
        <ele>2126.2</ele>
        <time>2021-08-10 13:21:19</time>
      </trkpt>
      <trkpt lat="42.83422" lon="-0.4385">
        <ele>2126.2</ele>
        <time>2021-08-10 13:21:20</time>
      </trkpt>
      <trkpt lat="42.83421" lon="-0.4385">
        <ele>2126</ele>
        <time>2021-08-10 13:21:21</time>
      </trkpt>
      <trkpt lat="42.83421" lon="-0.4385">
        <ele>2126</ele>
        <time>2021-08-10 13:21:22</time>
      </trkpt>
      <trkpt lat="42.83421" lon="-0.4385">
        <ele>2125.8</ele>
        <time>2021-08-10 13:21:23</time>
      </trkpt>
      <trkpt lat="42.83421" lon="-0.43851">
        <ele>2125.6</ele>
        <time>2021-08-10 13:21:24</time>
      </trkpt>
      <trkpt lat="42.8342" lon="-0.43851">
        <ele>2125.6</ele>
        <time>2021-08-10 13:21:25</time>
      </trkpt>
      <trkpt lat="42.8342" lon="-0.43852">
        <ele>2125.2</ele>
        <time>2021-08-10 13:21:26</time>
      </trkpt>
      <trkpt lat="42.83419" lon="-0.43852">
        <ele>2125</ele>
        <time>2021-08-10 13:21:27</time>
      </trkpt>
      <trkpt lat="42.83419" lon="-0.43852">
        <ele>2124.8</ele>
        <time>2021-08-10 13:21:28</time>
      </trkpt>
      <trkpt lat="42.83418" lon="-0.43851">
        <ele>2124.4</ele>
        <time>2021-08-10 13:21:29</time>
      </trkpt>
      <trkpt lat="42.83418" lon="-0.43852">
        <ele>2124.2</ele>
        <time>2021-08-10 13:21:30</time>
      </trkpt>
      <trkpt lat="42.83417" lon="-0.43852">
        <ele>2124.2</ele>
        <time>2021-08-10 13:21:31</time>
      </trkpt>
      <trkpt lat="42.83417" lon="-0.43852">
        <ele>2124</ele>
        <time>2021-08-10 13:21:32</time>
      </trkpt>
      <trkpt lat="42.83417" lon="-0.43852">
        <ele>2123.8</ele>
        <time>2021-08-10 13:21:33</time>
      </trkpt>
      <trkpt lat="42.83416" lon="-0.43852">
        <ele>2123.4</ele>
        <time>2021-08-10 13:21:34</time>
      </trkpt>
      <trkpt lat="42.83416" lon="-0.43851">
        <ele>2123.2</ele>
        <time>2021-08-10 13:21:35</time>
      </trkpt>
      <trkpt lat="42.83416" lon="-0.43852">
        <ele>2123</ele>
        <time>2021-08-10 13:21:36</time>
      </trkpt>
      <trkpt lat="42.83415" lon="-0.43851">
        <ele>2123</ele>
        <time>2021-08-10 13:21:37</time>
      </trkpt>
      <trkpt lat="42.83415" lon="-0.43851">
        <ele>2122.8</ele>
      </trkpt>
      <trkpt lat="42.83414" lon="-0.43851">
        <ele>2122.8</ele>
        <time>2021-08-10 13:21:38</time>
      </trkpt>
      <trkpt lat="42.83414" lon="-0.43851">
        <ele>2122.8</ele>
        <time>2021-08-10 13:21:39</time>
      </trkpt>
      <trkpt lat="42.83414" lon="-0.43851">
        <ele>2122.6</ele>
        <time>2021-08-10 13:21:40</time>
      </trkpt>
      <trkpt lat="42.83413" lon="-0.43851">
        <ele>2122.2</ele>
        <time>2021-08-10 13:21:42</time>
      </trkpt>
      <trkpt lat="42.83413" lon="-0.43851">
        <ele>2122.2</ele>
      </trkpt>
      <trkpt lat="42.83413" lon="-0.43851">
        <ele>2122</ele>
        <time>2021-08-10 13:21:43</time>
      </trkpt>
      <trkpt lat="42.83413" lon="-0.43851">
        <ele>2121.8</ele>
        <time>2021-08-10 13:21:44</time>
      </trkpt>
      <trkpt lat="42.83412" lon="-0.4385">
        <ele>2121.8</ele>
        <time>2021-08-10 13:21:45</time>
      </trkpt>
      <trkpt lat="42.83412" lon="-0.43849">
        <ele>2121.6</ele>
        <time>2021-08-10 13:21:46</time>
      </trkpt>
      <trkpt lat="42.83412" lon="-0.43849">
        <ele>2121.4</ele>
        <time>2021-08-10 13:21:47</time>
      </trkpt>
      <trkpt lat="42.83412" lon="-0.43849">
        <ele>2121.4</ele>
        <time>2021-08-10 13:21:48</time>
      </trkpt>
      <trkpt lat="42.83411" lon="-0.43849">
        <ele>2121</ele>
        <time>2021-08-10 13:21:49</time>
      </trkpt>
      <trkpt lat="42.83411" lon="-0.43848">
        <ele>2120.8</ele>
        <time>2021-08-10 13:21:50</time>
      </trkpt>
      <trkpt lat="42.83411" lon="-0.43847">
        <ele>2120.6</ele>
        <time>2021-08-10 13:21:51</time>
      </trkpt>
      <trkpt lat="42.83411" lon="-0.43846">
        <ele>2120.4</ele>
        <time>2021-08-10 13:21:52</time>
      </trkpt>
      <trkpt lat="42.8341" lon="-0.43845">
        <ele>2120.2</ele>
        <time>2021-08-10 13:21:53</time>
      </trkpt>
      <trkpt lat="42.8341" lon="-0.43844">
        <ele>2120.2</ele>
        <time>2021-08-10 13:21:55</time>
      </trkpt>
      <trkpt lat="42.8341" lon="-0.43844">
        <ele>2120</ele>
        <time>2021-08-10 13:21:56</time>
      </trkpt>
      <trkpt lat="42.8341" lon="-0.43844">
        <ele>2119.8</ele>
        <time>2021-08-10 13:21:57</time>
      </trkpt>
      <trkpt lat="42.8341" lon="-0.43843">
        <ele>2119.8</ele>
        <time>2021-08-10 13:21:58</time>
      </trkpt>
      <trkpt lat="42.83409" lon="-0.43843">
        <ele>2119.6</ele>
      </trkpt>
      <trkpt lat="42.83409" lon="-0.43842">
        <ele>2119.4</ele>
        <time>2021-08-10 13:22:00</time>
      </trkpt>
      <trkpt lat="42.83408" lon="-0.43842">
        <ele>2119.2</ele>
        <time>2021-08-10 13:22:01</time>
      </trkpt>
      <trkpt lat="42.83407" lon="-0.43841">
        <ele>2119.2</ele>
        <time>2021-08-10 13:22:03</time>
      </trkpt>
      <trkpt lat="42.83408" lon="-0.4384">
        <ele>2119.2</ele>
      </trkpt>
      <trkpt lat="42.83408" lon="-0.43839">
        <ele>2119.2</ele>
        <time>2021-08-10 13:22:06</time>
      </trkpt>
      <trkpt lat="42.83409" lon="-0.43839">
        <ele>2119</ele>
        <time>2021-08-10 13:22:07</time>
      </trkpt>
      <trkpt lat="42.83409" lon="-0.43838">
        <ele>2118.8</ele>
        <time>2021-08-10 13:22:08</time>
      </trkpt>
      <trkpt lat="42.83409" lon="-0.43838">
        <ele>2118.4</ele>
        <time>2021-08-10 13:22:09</time>
      </trkpt>
      <trkpt lat="42.83408" lon="-0.43838">
        <ele>2118.6</ele>
        <time>2021-08-10 13:22:10</time>
      </trkpt>
      <trkpt lat="42.83408" lon="-0.43837">
        <ele>2118.6</ele>
        <time>2021-08-10 13:22:11</time>
      </trkpt>
      <trkpt lat="42.83408" lon="-0.43837">
        <ele>2118.4</ele>
        <time>2021-08-10 13:22:12</time>
      </trkpt>
      <trkpt lat="42.83409" lon="-0.43836">
        <ele>2118.2</ele>
        <time>2021-08-10 13:22:13</time>
      </trkpt>
      <trkpt lat="42.83409" lon="-0.43836">
        <ele>2118</ele>
        <time>2021-08-10 13:22:14</time>
      </trkpt>
      <trkpt lat="42.83409" lon="-0.43836">
        <ele>2117.8</ele>
        <time>2021-08-10 13:22:15</time>
      </trkpt>
      <trkpt lat="42.8341" lon="-0.43835">
        <ele>2117.8</ele>
        <time>2021-08-10 13:22:16</time>
      </trkpt>
      <trkpt lat="42.8341" lon="-0.43835">
        <ele>2117.6</ele>
        <time>2021-08-10 13:22:17</time>
      </trkpt>
      <trkpt lat="42.8341" lon="-0.43835">
        <ele>2117.4</ele>
        <time>2021-08-10 13:22:18</time>
      </trkpt>
      <trkpt lat="42.83411" lon="-0.43834">
        <ele>2117.6</ele>
        <time>2021-08-10 13:22:19</time>
      </trkpt>
      <trkpt lat="42.83411" lon="-0.43834">
        <ele>2117.6</ele>
        <time>2021-08-10 13:22:20</time>
      </trkpt>
      <trkpt lat="42.83409" lon="-0.43832">
        <ele>2117.8</ele>
        <time>2021-08-10 13:22:21</time>
      </trkpt>
      <trkpt lat="42.83409" lon="-0.43832">
        <ele>2117.8</ele>
        <time>2021-08-10 13:22:22</time>
      </trkpt>
      <trkpt lat="42.83409" lon="-0.43832">
        <ele>2117.8</ele>
        <time>2021-08-10 13:22:23</time>
      </trkpt>
      <trkpt lat="42.83409" lon="-0.43832">
        <ele>2117.8</ele>
        <time>2021-08-10 13:22:24</time>
      </trkpt>
      <trkpt lat="42.83409" lon="-0.43832">
        <ele>2117.8</ele>
        <time>2021-08-10 13:22:25</time>
      </trkpt>
      <trkpt lat="42.83409" lon="-0.43831">
        <ele>2117.8</ele>
        <time>2021-08-10 13:22:26</time>
      </trkpt>
      <trkpt lat="42.83409" lon="-0.43831">
        <ele>2117.8</ele>
        <time>2021-08-10 13:22:27</time>
      </trkpt>
      <trkpt lat="42.8341" lon="-0.43832">
        <ele>2117.8</ele>
        <time>2021-08-10 13:22:28</time>
      </trkpt>
      <trkpt lat="42.8341" lon="-0.43832">
        <ele>2118</ele>
        <time>2021-08-10 13:22:29</time>
      </trkpt>
      <trkpt lat="42.83411" lon="-0.43832">
        <ele>2117.6</ele>
        <time>2021-08-10 13:22:30</time>
      </trkpt>
      <trkpt lat="42.83411" lon="-0.43831">
        <ele>2117.4</ele>
        <time>2021-08-10 13:22:31</time>
      </trkpt>
      <trkpt lat="42.83411" lon="-0.43831">
        <ele>2117.2</ele>
        <time>2021-08-10 13:22:32</time>
      </trkpt>
      <trkpt lat="42.83412" lon="-0.43832">
        <ele>2117</ele>
        <time>2021-08-10 13:22:37</time>
      </trkpt>
      <trkpt lat="42.83412" lon="-0.43831">
        <ele>2117</ele>
        <time>2021-08-10 13:22:38</time>
      </trkpt>
      <trkpt lat="42.83412" lon="-0.43831">
        <ele>2117</ele>
        <time>2021-08-10 13:22:39</time>
      </trkpt>
      <trkpt lat="42.83411" lon="-0.43831">
        <ele>2116.8</ele>
        <time>2021-08-10 13:22:40</time>
      </trkpt>
      <trkpt lat="42.83411" lon="-0.43831">
        <ele>2116.8</ele>
        <time>2021-08-10 13:22:41</time>
      </trkpt>
      <trkpt lat="42.83411" lon="-0.43831">
        <ele>2116.8</ele>
        <time>2021-08-10 13:22:43</time>
      </trkpt>
      <trkpt lat="42.83411" lon="-0.43831">
        <ele>2116.6</ele>
        <time>2021-08-10 13:22:44</time>
      </trkpt>
      <trkpt lat="42.83411" lon="-0.4383">
        <ele>2116.6</ele>
        <time>2021-08-10 13:22:45</time>
      </trkpt>
      <trkpt lat="42.83411" lon="-0.43831">
        <ele>2116.4</ele>
        <time>2021-08-10 13:22:46</time>
      </trkpt>
      <trkpt lat="42.83411" lon="-0.4383">
        <ele>2116.2</ele>
        <time>2021-08-10 13:22:47</time>
      </trkpt>
      <trkpt lat="42.8341" lon="-0.4383">
        <ele>2116</ele>
        <time>2021-08-10 13:22:48</time>
      </trkpt>
      <trkpt lat="42.8341" lon="-0.4383">
        <ele>2115.8</ele>
        <time>2021-08-10 13:22:49</time>
      </trkpt>
      <trkpt lat="42.8341" lon="-0.4383">
        <ele>2115.6</ele>
        <time>2021-08-10 13:22:50</time>
      </trkpt>
      <trkpt lat="42.8341" lon="-0.4383">
        <ele>2115.4</ele>
        <time>2021-08-10 13:23:22</time>
      </trkpt>
      <trkpt lat="42.8341" lon="-0.43829">
        <ele>2115.4</ele>
        <time>2021-08-10 13:23:23</time>
      </trkpt>
      <trkpt lat="42.8341" lon="-0.43829">
        <ele>2115.2</ele>
        <time>2021-08-10 13:23:24</time>
      </trkpt>
      <trkpt lat="42.8341" lon="-0.43828">
        <ele>2115</ele>
        <time>2021-08-10 13:23:25</time>
      </trkpt>
      <trkpt lat="42.8341" lon="-0.43828">
        <ele>2115</ele>
        <time>2021-08-10 13:23:26</time>
      </trkpt>
      <trkpt lat="42.8341" lon="-0.43827">
        <ele>2114.8</ele>
        <time>2021-08-10 13:23:27</time>
      </trkpt>
      <trkpt lat="42.83411" lon="-0.43827">
        <ele>2114.6</ele>
        <time>2021-08-10 13:23:28</time>
      </trkpt>
      <trkpt lat="42.83411" lon="-0.43827">
        <ele>2114.4</ele>
        <time>2021-08-10 13:23:29</time>
      </trkpt>
      <trkpt lat="42.83411" lon="-0.43827">
        <ele>2114.4</ele>
        <time>2021-08-10 13:23:30</time>
      </trkpt>
      <trkpt lat="42.83411" lon="-0.43827">
        <ele>2114.2</ele>
        <time>2021-08-10 13:23:31</time>
      </trkpt>
      <trkpt lat="42.83411" lon="-0.43826">
        <ele>2114.2</ele>
        <time>2021-08-10 13:23:32</time>
      </trkpt>
      <trkpt lat="42.83412" lon="-0.43826">
        <ele>2114</ele>
        <time>2021-08-10 13:23:33</time>
      </trkpt>
      <trkpt lat="42.83412" lon="-0.43826">
        <ele>2113.8</ele>
        <time>2021-08-10 13:23:34</time>
      </trkpt>
      <trkpt lat="42.83411" lon="-0.43826">
        <ele>2113.6</ele>
        <time>2021-08-10 13:23:35</time>
      </trkpt>
      <trkpt lat="42.83411" lon="-0.43826">
        <ele>2113.4</ele>
        <time>2021-08-10 13:23:36</time>
      </trkpt>
      <trkpt lat="42.83411" lon="-0.43825">
        <ele>2113.2</ele>
        <time>2021-08-10 13:23:37</time>
      </trkpt>
      <trkpt lat="42.83411" lon="-0.43825">
        <ele>2113.2</ele>
        <time>2021-08-10 13:23:38</time>
      </trkpt>
      <trkpt lat="42.83411" lon="-0.43825">
        <ele>2113.2</ele>
        <time>2021-08-10 13:23:39</time>
      </trkpt>
      <trkpt lat="42.83411" lon="-0.43825">
        <ele>2113.4</ele>
        <time>2021-08-10 13:23:40</time>
      </trkpt>
      <trkpt lat="42.83411" lon="-0.43824">
        <ele>2113.4</ele>
        <time>2021-08-10 13:23:41</time>
      </trkpt>
      <trkpt lat="42.83411" lon="-0.43824">
        <ele>2113</ele>
        <time>2021-08-10 13:23:42</time>
      </trkpt>
      <trkpt lat="42.83411" lon="-0.43824">
        <ele>2112.8</ele>
        <time>2021-08-10 13:23:43</time>
      </trkpt>
      <trkpt lat="42.83411" lon="-0.43823">
        <ele>2112.6</ele>
        <time>2021-08-10 13:23:44</time>
      </trkpt>
      <trkpt lat="42.83411" lon="-0.43823">
        <ele>2112.6</ele>
        <time>2021-08-10 13:23:45</time>
      </trkpt>
      <trkpt lat="42.8341" lon="-0.43823">
        <ele>2112.6</ele>
        <time>2021-08-10 13:23:46</time>
      </trkpt>
      <trkpt lat="42.8341" lon="-0.43823">
        <ele>2112.4</ele>
        <time>2021-08-10 13:23:47</time>
      </trkpt>
      <trkpt lat="42.8341" lon="-0.43822">
        <ele>2112</ele>
        <time>2021-08-10 13:23:48</time>
      </trkpt>
      <trkpt lat="42.8341" lon="-0.43822">
        <ele>2111.8</ele>
        <time>2021-08-10 13:23:49</time>
      </trkpt>
      <trkpt lat="42.8341" lon="-0.43822">
        <ele>2111.8</ele>
        <time>2021-08-10 13:23:50</time>
      </trkpt>
      <trkpt lat="42.83409" lon="-0.43822">
        <ele>2112</ele>
        <time>2021-08-10 13:23:51</time>
      </trkpt>
      <trkpt lat="42.83409" lon="-0.43822">
        <ele>2112</ele>
        <time>2021-08-10 13:23:52</time>
      </trkpt>
      <trkpt lat="42.83409" lon="-0.43822">
        <ele>2111.6</ele>
        <time>2021-08-10 13:23:53</time>
      </trkpt>
      <trkpt lat="42.83408" lon="-0.43821">
        <ele>2111.4</ele>
        <time>2021-08-10 13:23:54</time>
      </trkpt>
      <trkpt lat="42.83409" lon="-0.43821">
        <ele>2111.2</ele>
        <time>2021-08-10 13:23:55</time>
      </trkpt>
      <trkpt lat="42.83408" lon="-0.4382">
        <ele>2111</ele>
        <time>2021-08-10 13:23:56</time>
      </trkpt>
      <trkpt lat="42.83409" lon="-0.43819">
        <ele>2110.8</ele>
        <time>2021-08-10 13:23:57</time>
      </trkpt>
      <trkpt lat="42.8341" lon="-0.43819">
        <ele>2110.4</ele>
        <time>2021-08-10 13:23:58</time>
      </trkpt>
      <trkpt lat="42.83409" lon="-0.43818">
        <ele>2110.4</ele>
        <time>2021-08-10 13:23:59</time>
      </trkpt>
      <trkpt lat="42.8341" lon="-0.43817">
        <ele>2110.6</ele>
        <time>2021-08-10 13:24:00</time>
      </trkpt>
      <trkpt lat="42.83411" lon="-0.43817">
        <ele>2110.6</ele>
        <time>2021-08-10 13:24:01</time>
      </trkpt>
      <trkpt lat="42.83411" lon="-0.43816">
        <ele>2110.4</ele>
        <time>2021-08-10 13:24:02</time>
      </trkpt>
      <trkpt lat="42.83412" lon="-0.43816">
        <ele>2110.2</ele>
        <time>2021-08-10 13:24:03</time>
      </trkpt>
      <trkpt lat="42.83411" lon="-0.43815">
        <ele>2110</ele>
        <time>2021-08-10 13:24:04</time>
      </trkpt>
      <trkpt lat="42.83411" lon="-0.43814">
        <ele>2110</ele>
        <time>2021-08-10 13:24:05</time>
      </trkpt>
      <trkpt lat="42.83411" lon="-0.43814">
        <ele>2110</ele>
        <time>2021-08-10 13:24:06</time>
      </trkpt>
      <trkpt lat="42.83411" lon="-0.43813">
        <ele>2109.8</ele>
        <time>2021-08-10 13:24:07</time>
      </trkpt>
      <trkpt lat="42.83411" lon="-0.43812">
        <ele>2109.8</ele>
        <time>2021-08-10 13:24:08</time>
      </trkpt>
      <trkpt lat="42.8341" lon="-0.43813">
        <ele>2109.4</ele>
        <time>2021-08-10 13:24:09</time>
      </trkpt>
      <trkpt lat="42.8341" lon="-0.43813">
        <ele>2109.4</ele>
        <time>2021-08-10 13:24:10</time>
      </trkpt>
      <trkpt lat="42.8341" lon="-0.43813">
        <ele>2109.4</ele>
        <time>2021-08-10 13:24:11</time>
      </trkpt>
      <trkpt lat="42.83409" lon="-0.43813">
        <ele>2109</ele>
        <time>2021-08-10 13:24:12</time>
      </trkpt>
      <trkpt lat="42.83409" lon="-0.43813">
        <ele>2109</ele>
        <time>2021-08-10 13:24:13</time>
      </trkpt>
      <trkpt lat="42.83408" lon="-0.43813">
        <ele>2108.8</ele>
        <time>2021-08-10 13:24:14</time>
      </trkpt>
      <trkpt lat="42.83408" lon="-0.43814">
        <ele>2108.8</ele>
        <time>2021-08-10 13:24:15</time>
      </trkpt>
      <trkpt lat="42.83407" lon="-0.43814">
        <ele>2108.6</ele>
        <time>2021-08-10 13:24:16</time>
      </trkpt>
      <trkpt lat="42.83407" lon="-0.43814">
        <ele>2108.2</ele>
        <time>2021-08-10 13:24:17</time>
      </trkpt>
      <trkpt lat="42.83406" lon="-0.43813">
        <ele>2108.4</ele>
        <time>2021-08-10 13:24:18</time>
      </trkpt>
      <trkpt lat="42.83406" lon="-0.43814">
        <ele>2108.2</ele>
        <time>2021-08-10 13:24:19</time>
      </trkpt>
      <trkpt lat="42.83406" lon="-0.43813">
        <ele>2108</ele>
        <time>2021-08-10 13:24:20</time>
      </trkpt>
      <trkpt lat="42.83406" lon="-0.43812">
        <ele>2108</ele>
        <time>2021-08-10 13:24:21</time>
      </trkpt>
      <trkpt lat="42.83406" lon="-0.43811">
        <ele>2107.8</ele>
        <time>2021-08-10 13:24:22</time>
      </trkpt>
      <trkpt lat="42.83407" lon="-0.43811">
        <ele>2107.6</ele>
        <time>2021-08-10 13:24:23</time>
      </trkpt>
      <trkpt lat="42.83408" lon="-0.4381">
        <ele>2107.4</ele>
        <time>2021-08-10 13:24:24</time>
      </trkpt>
      <trkpt lat="42.83409" lon="-0.4381">
        <ele>2107.4</ele>
        <time>2021-08-10 13:24:25</time>
      </trkpt>
      <trkpt lat="42.83409" lon="-0.43809">
        <ele>2107.2</ele>
        <time>2021-08-10 13:24:26</time>
      </trkpt>
      <trkpt lat="42.83409" lon="-0.43808">
        <ele>2107</ele>
        <time>2021-08-10 13:24:27</time>
      </trkpt>
      <trkpt lat="42.83409" lon="-0.43808">
        <ele>2106.6</ele>
        <time>2021-08-10 13:24:28</time>
      </trkpt>
      <trkpt lat="42.83409" lon="-0.43807">
        <ele>2106.6</ele>
        <time>2021-08-10 13:24:29</time>
      </trkpt>
      <trkpt lat="42.83408" lon="-0.43807">
        <ele>2106.4</ele>
        <time>2021-08-10 13:24:30</time>
      </trkpt>
      <trkpt lat="42.83408" lon="-0.43807">
        <ele>2106.4</ele>
        <time>2021-08-10 13:24:31</time>
      </trkpt>
      <trkpt lat="42.83408" lon="-0.43807">
        <ele>2106.4</ele>
        <time>2021-08-10 13:24:32</time>
      </trkpt>
      <trkpt lat="42.83407" lon="-0.43807">
        <ele>2106.2</ele>
        <time>2021-08-10 13:24:33</time>
      </trkpt>
      <trkpt lat="42.83407" lon="-0.43807">
        <ele>2105.8</ele>
        <time>2021-08-10 13:24:34</time>
      </trkpt>
      <trkpt lat="42.83406" lon="-0.43807">
        <ele>2105.8</ele>
        <time>2021-08-10 13:24:35</time>
      </trkpt>
      <trkpt lat="42.83406" lon="-0.43807">
        <ele>2105.4</ele>
        <time>2021-08-10 13:24:36</time>
      </trkpt>
      <trkpt lat="42.83406" lon="-0.43807">
        <ele>2105.2</ele>
        <time>2021-08-10 13:24:37</time>
      </trkpt>
      <trkpt lat="42.83406" lon="-0.43806">
        <ele>2105.2</ele>
        <time>2021-08-10 13:24:38</time>
      </trkpt>
      <trkpt lat="42.83406" lon="-0.43806">
        <ele>2105</ele>
        <time>2021-08-10 13:24:39</time>
      </trkpt>
      <trkpt lat="42.83406" lon="-0.43805">
        <ele>2104.6</ele>
        <time>2021-08-10 13:24:40</time>
      </trkpt>
      <trkpt lat="42.83406" lon="-0.43804">
        <ele>2104.6</ele>
        <time>2021-08-10 13:24:41</time>
      </trkpt>
      <trkpt lat="42.83406" lon="-0.43803">
        <ele>2104.6</ele>
        <time>2021-08-10 13:24:42</time>
      </trkpt>
      <trkpt lat="42.83406" lon="-0.43803">
        <ele>2104.4</ele>
        <time>2021-08-10 13:24:43</time>
      </trkpt>
      <trkpt lat="42.83406" lon="-0.43802">
        <ele>2104.2</ele>
        <time>2021-08-10 13:24:44</time>
      </trkpt>
      <trkpt lat="42.83406" lon="-0.43801">
        <ele>2103.8</ele>
        <time>2021-08-10 13:24:45</time>
      </trkpt>
      <trkpt lat="42.83406" lon="-0.438">
        <ele>2103.6</ele>
        <time>2021-08-10 13:24:46</time>
      </trkpt>
      <trkpt lat="42.83406" lon="-0.438">
        <ele>2103.6</ele>
        <time>2021-08-10 13:24:47</time>
      </trkpt>
      <trkpt lat="42.83405" lon="-0.438">
        <ele>2103.6</ele>
        <time>2021-08-10 13:24:48</time>
      </trkpt>
      <trkpt lat="42.83404" lon="-0.43799">
        <ele>2103.6</ele>
        <time>2021-08-10 13:24:49</time>
      </trkpt>
      <trkpt lat="42.83404" lon="-0.438">
        <ele>2103.4</ele>
        <time>2021-08-10 13:24:50</time>
      </trkpt>
      <trkpt lat="42.83403" lon="-0.438">
        <ele>2103.2</ele>
        <time>2021-08-10 13:24:51</time>
      </trkpt>
      <trkpt lat="42.83403" lon="-0.438">
        <ele>2102.8</ele>
        <time>2021-08-10 13:24:52</time>
      </trkpt>
      <trkpt lat="42.83402" lon="-0.43801">
        <ele>2102.8</ele>
        <time>2021-08-10 13:24:53</time>
      </trkpt>
      <trkpt lat="42.83403" lon="-0.43802">
        <ele>2102.8</ele>
        <time>2021-08-10 13:25:30</time>
      </trkpt>
      <trkpt lat="42.83402" lon="-0.43803">
        <ele>2102.4</ele>
        <time>2021-08-10 13:25:31</time>
      </trkpt>
      <trkpt lat="42.83402" lon="-0.43802">
        <ele>2102.4</ele>
        <time>2021-08-10 13:25:32</time>
      </trkpt>
      <trkpt lat="42.83402" lon="-0.43802">
        <ele>2102.4</ele>
        <time>2021-08-10 13:25:41</time>
      </trkpt>
      <trkpt lat="42.83402" lon="-0.43802">
        <ele>2102.2</ele>
        <time>2021-08-10 13:25:42</time>
      </trkpt>
      <trkpt lat="42.83401" lon="-0.43802">
        <ele>2102.4</ele>
        <time>2021-08-10 13:25:43</time>
      </trkpt>
      <trkpt lat="42.83401" lon="-0.43803">
        <ele>2102.2</ele>
        <time>2021-08-10 13:25:50</time>
      </trkpt>
      <trkpt lat="42.834" lon="-0.43803">
        <ele>2101.6</ele>
        <time>2021-08-10 13:25:51</time>
      </trkpt>
      <trkpt lat="42.834" lon="-0.43803">
        <ele>2101.2</ele>
        <time>2021-08-10 13:25:52</time>
      </trkpt>
      <trkpt lat="42.83399" lon="-0.43803">
        <ele>2101</ele>
        <time>2021-08-10 13:25:53</time>
      </trkpt>
      <trkpt lat="42.83399" lon="-0.43803">
        <ele>2101</ele>
        <time>2021-08-10 13:25:54</time>
      </trkpt>
      <trkpt lat="42.83398" lon="-0.43803">
        <ele>2100.8</ele>
        <time>2021-08-10 13:25:55</time>
      </trkpt>
      <trkpt lat="42.83398" lon="-0.43802">
        <ele>2100.8</ele>
        <time>2021-08-10 13:25:56</time>
      </trkpt>
      <trkpt lat="42.83398" lon="-0.43802">
        <ele>2100.8</ele>
        <time>2021-08-10 13:25:57</time>
      </trkpt>
      <trkpt lat="42.83397" lon="-0.43801">
        <ele>2100.6</ele>
        <time>2021-08-10 13:25:58</time>
      </trkpt>
      <trkpt lat="42.83397" lon="-0.43801">
        <ele>2100.6</ele>
        <time>2021-08-10 13:25:59</time>
      </trkpt>
      <trkpt lat="42.83397" lon="-0.438">
        <ele>2100.4</ele>
        <time>2021-08-10 13:26:00</time>
      </trkpt>
      <trkpt lat="42.83397" lon="-0.43799">
        <ele>2100</ele>
        <time>2021-08-10 13:26:01</time>
      </trkpt>
      <trkpt lat="42.83397" lon="-0.43799">
        <ele>2099.8</ele>
        <time>2021-08-10 13:26:02</time>
      </trkpt>
      <trkpt lat="42.83397" lon="-0.43798">
        <ele>2099.8</ele>
        <time>2021-08-10 13:26:03</time>
      </trkpt>
      <trkpt lat="42.83397" lon="-0.43797">
        <ele>2099.6</ele>
        <time>2021-08-10 13:26:04</time>
      </trkpt>
      <trkpt lat="42.83397" lon="-0.43797">
        <ele>2099.4</ele>
        <time>2021-08-10 13:26:05</time>
      </trkpt>
      <trkpt lat="42.83397" lon="-0.43796">
        <ele>2099.4</ele>
        <time>2021-08-10 13:26:06</time>
      </trkpt>
      <trkpt lat="42.83396" lon="-0.43796">
        <ele>2099.6</ele>
        <time>2021-08-10 13:26:07</time>
      </trkpt>
      <trkpt lat="42.83396" lon="-0.43795">
        <ele>2099</ele>
        <time>2021-08-10 13:26:08</time>
      </trkpt>
      <trkpt lat="42.83395" lon="-0.43795">
        <ele>2098.6</ele>
        <time>2021-08-10 13:26:09</time>
      </trkpt>
      <trkpt lat="42.83395" lon="-0.43795">
        <ele>2098.2</ele>
        <time>2021-08-10 13:26:10</time>
      </trkpt>
      <trkpt lat="42.83394" lon="-0.43795">
        <ele>2098.4</ele>
        <time>2021-08-10 13:26:11</time>
      </trkpt>
      <trkpt lat="42.83394" lon="-0.43795">
        <ele>2098.4</ele>
        <time>2021-08-10 13:26:12</time>
      </trkpt>
      <trkpt lat="42.83393" lon="-0.43795">
        <ele>2098.4</ele>
        <time>2021-08-10 13:26:13</time>
      </trkpt>
      <trkpt lat="42.83393" lon="-0.43795">
        <ele>2098.2</ele>
        <time>2021-08-10 13:26:14</time>
      </trkpt>
      <trkpt lat="42.83393" lon="-0.43795">
        <ele>2098.2</ele>
        <time>2021-08-10 13:26:15</time>
      </trkpt>
      <trkpt lat="42.83392" lon="-0.43795">
        <ele>2098</ele>
        <time>2021-08-10 13:26:16</time>
      </trkpt>
      <trkpt lat="42.83392" lon="-0.43795">
        <ele>2098</ele>
        <time>2021-08-10 13:26:17</time>
      </trkpt>
      <trkpt lat="42.83392" lon="-0.43795">
        <ele>2098</ele>
        <time>2021-08-10 13:26:18</time>
      </trkpt>
      <trkpt lat="42.83392" lon="-0.43795">
        <ele>2097.8</ele>
        <time>2021-08-10 13:26:19</time>
      </trkpt>
      <trkpt lat="42.83392" lon="-0.43794">
        <ele>2097.8</ele>
        <time>2021-08-10 13:26:20</time>
      </trkpt>
      <trkpt lat="42.83393" lon="-0.43794">
        <ele>2097.6</ele>
        <time>2021-08-10 13:26:21</time>
      </trkpt>
      <trkpt lat="42.83393" lon="-0.43793">
        <ele>2097.6</ele>
        <time>2021-08-10 13:26:22</time>
      </trkpt>
      <trkpt lat="42.83393" lon="-0.43792">
        <ele>2097.6</ele>
        <time>2021-08-10 13:26:23</time>
      </trkpt>
      <trkpt lat="42.83393" lon="-0.43791">
        <ele>2097.6</ele>
        <time>2021-08-10 13:26:24</time>
      </trkpt>
      <trkpt lat="42.83393" lon="-0.43791">
        <ele>2097.4</ele>
        <time>2021-08-10 13:26:25</time>
      </trkpt>
      <trkpt lat="42.83393" lon="-0.43789">
        <ele>2096.8</ele>
        <time>2021-08-10 13:26:26</time>
      </trkpt>
      <trkpt lat="42.83392" lon="-0.43788">
        <ele>2096.4</ele>
        <time>2021-08-10 13:26:27</time>
      </trkpt>
      <trkpt lat="42.83392" lon="-0.43788">
        <ele>2096.4</ele>
        <time>2021-08-10 13:26:28</time>
      </trkpt>
      <trkpt lat="42.83392" lon="-0.43787">
        <ele>2096.4</ele>
        <time>2021-08-10 13:26:29</time>
      </trkpt>
      <trkpt lat="42.83391" lon="-0.43787">
        <ele>2096.4</ele>
        <time>2021-08-10 13:26:30</time>
      </trkpt>
      <trkpt lat="42.8339" lon="-0.43787">
        <ele>2096.2</ele>
        <time>2021-08-10 13:26:31</time>
      </trkpt>
      <trkpt lat="42.8339" lon="-0.43786">
        <ele>2096.2</ele>
        <time>2021-08-10 13:26:32</time>
      </trkpt>
      <trkpt lat="42.83389" lon="-0.43785">
        <ele>2095.8</ele>
        <time>2021-08-10 13:26:33</time>
      </trkpt>
      <trkpt lat="42.83389" lon="-0.43785">
        <ele>2095.6</ele>
        <time>2021-08-10 13:26:34</time>
      </trkpt>
      <trkpt lat="42.83389" lon="-0.43785">
        <ele>2095.4</ele>
        <time>2021-08-10 13:26:35</time>
      </trkpt>
      <trkpt lat="42.83389" lon="-0.43784">
        <ele>2095.4</ele>
        <time>2021-08-10 13:26:36</time>
      </trkpt>
      <trkpt lat="42.83389" lon="-0.43783">
        <ele>2095</ele>
        <time>2021-08-10 13:26:37</time>
      </trkpt>
      <trkpt lat="42.83388" lon="-0.43782">
        <ele>2095</ele>
        <time>2021-08-10 13:26:38</time>
      </trkpt>
      <trkpt lat="42.83388" lon="-0.43781">
        <ele>2094.8</ele>
        <time>2021-08-10 13:26:39</time>
      </trkpt>
      <trkpt lat="42.83388" lon="-0.4378">
        <ele>2094.6</ele>
        <time>2021-08-10 13:26:40</time>
      </trkpt>
      <trkpt lat="42.83388" lon="-0.43779">
        <ele>2094.4</ele>
        <time>2021-08-10 13:26:41</time>
      </trkpt>
      <trkpt lat="42.83388" lon="-0.43778">
        <ele>2094.4</ele>
        <time>2021-08-10 13:26:42</time>
      </trkpt>
      <trkpt lat="42.83388" lon="-0.43778">
        <ele>2094.4</ele>
        <time>2021-08-10 13:26:43</time>
      </trkpt>
      <trkpt lat="42.83388" lon="-0.43778">
        <ele>2094.2</ele>
        <time>2021-08-10 13:26:44</time>
      </trkpt>
      <trkpt lat="42.83389" lon="-0.43777">
        <ele>2094</ele>
        <time>2021-08-10 13:26:45</time>
      </trkpt>
      <trkpt lat="42.83389" lon="-0.43777">
        <ele>2093.8</ele>
        <time>2021-08-10 13:26:46</time>
      </trkpt>
      <trkpt lat="42.83389" lon="-0.43776">
        <ele>2093.6</ele>
        <time>2021-08-10 13:26:47</time>
      </trkpt>
      <trkpt lat="42.83389" lon="-0.43775">
        <ele>2093.4</ele>
        <time>2021-08-10 13:26:48</time>
      </trkpt>
      <trkpt lat="42.83389" lon="-0.43774">
        <ele>2093.2</ele>
        <time>2021-08-10 13:26:49</time>
      </trkpt>
      <trkpt lat="42.8339" lon="-0.43773">
        <ele>2093</ele>
        <time>2021-08-10 13:26:50</time>
      </trkpt>
      <trkpt lat="42.8339" lon="-0.43773">
        <ele>2092.6</ele>
        <time>2021-08-10 13:26:51</time>
      </trkpt>
      <trkpt lat="42.83391" lon="-0.43772">
        <ele>2092.6</ele>
        <time>2021-08-10 13:26:52</time>
      </trkpt>
      <trkpt lat="42.83392" lon="-0.43772">
        <ele>2092.2</ele>
        <time>2021-08-10 13:26:53</time>
      </trkpt>
      <trkpt lat="42.83392" lon="-0.43771">
        <ele>2092.2</ele>
        <time>2021-08-10 13:26:54</time>
      </trkpt>
      <trkpt lat="42.83392" lon="-0.4377">
        <ele>2091.8</ele>
        <time>2021-08-10 13:26:55</time>
      </trkpt>
      <trkpt lat="42.83392" lon="-0.4377">
        <ele>2091.8</ele>
        <time>2021-08-10 13:26:56</time>
      </trkpt>
      <trkpt lat="42.83393" lon="-0.4377">
        <ele>2091.6</ele>
        <time>2021-08-10 13:26:57</time>
      </trkpt>
      <trkpt lat="42.83392" lon="-0.43769">
        <ele>2091.6</ele>
        <time>2021-08-10 13:26:58</time>
      </trkpt>
      <trkpt lat="42.83392" lon="-0.43768">
        <ele>2091.4</ele>
        <time>2021-08-10 13:26:59</time>
      </trkpt>
      <trkpt lat="42.83393" lon="-0.43767">
        <ele>2091.4</ele>
        <time>2021-08-10 13:27:00</time>
      </trkpt>
      <trkpt lat="42.83393" lon="-0.43767">
        <ele>2091.4</ele>
        <time>2021-08-10 13:27:01</time>
      </trkpt>
      <trkpt lat="42.83393" lon="-0.43766">
        <ele>2091</ele>
        <time>2021-08-10 13:27:02</time>
      </trkpt>
      <trkpt lat="42.83393" lon="-0.43766">
        <ele>2091</ele>
        <time>2021-08-10 13:27:03</time>
      </trkpt>
      <trkpt lat="42.83394" lon="-0.43766">
        <ele>2091</ele>
        <time>2021-08-10 13:27:04</time>
      </trkpt>
      <trkpt lat="42.83394" lon="-0.43766">
        <ele>2090.8</ele>
        <time>2021-08-10 13:27:05</time>
      </trkpt>
      <trkpt lat="42.83394" lon="-0.43765">
        <ele>2090.8</ele>
        <time>2021-08-10 13:27:06</time>
      </trkpt>
      <trkpt lat="42.83393" lon="-0.43765">
        <ele>2090.8</ele>
        <time>2021-08-10 13:27:07</time>
      </trkpt>
      <trkpt lat="42.83393" lon="-0.43764">
        <ele>2090.4</ele>
        <time>2021-08-10 13:27:08</time>
      </trkpt>
      <trkpt lat="42.83394" lon="-0.43763">
        <ele>2090.4</ele>
        <time>2021-08-10 13:27:09</time>
      </trkpt>
      <trkpt lat="42.83394" lon="-0.43763">
        <ele>2090.2</ele>
        <time>2021-08-10 13:27:10</time>
      </trkpt>
      <trkpt lat="42.83394" lon="-0.43761">
        <ele>2090</ele>
        <time>2021-08-10 13:27:11</time>
      </trkpt>
      <trkpt lat="42.83395" lon="-0.43761">
        <ele>2089.8</ele>
        <time>2021-08-10 13:27:12</time>
      </trkpt>
      <trkpt lat="42.83395" lon="-0.43761">
        <ele>2089.6</ele>
        <time>2021-08-10 13:27:13</time>
      </trkpt>
      <trkpt lat="42.83395" lon="-0.4376">
        <ele>2089.6</ele>
        <time>2021-08-10 13:27:14</time>
      </trkpt>
      <trkpt lat="42.83395" lon="-0.43759">
        <ele>2089.2</ele>
        <time>2021-08-10 13:27:15</time>
      </trkpt>
      <trkpt lat="42.83395" lon="-0.43758">
        <ele>2089.2</ele>
        <time>2021-08-10 13:27:16</time>
      </trkpt>
      <trkpt lat="42.83395" lon="-0.43757">
        <ele>2089</ele>
        <time>2021-08-10 13:27:17</time>
      </trkpt>
      <trkpt lat="42.83395" lon="-0.43756">
        <ele>2088.8</ele>
        <time>2021-08-10 13:27:18</time>
      </trkpt>
      <trkpt lat="42.83395" lon="-0.43756">
        <ele>2088.4</ele>
        <time>2021-08-10 13:27:19</time>
      </trkpt>
      <trkpt lat="42.83395" lon="-0.43755">
        <ele>2088</ele>
        <time>2021-08-10 13:27:20</time>
      </trkpt>
      <trkpt lat="42.83395" lon="-0.43755">
        <ele>2087.8</ele>
        <time>2021-08-10 13:27:21</time>
      </trkpt>
      <trkpt lat="42.83395" lon="-0.43754">
        <ele>2087.6</ele>
        <time>2021-08-10 13:27:22</time>
      </trkpt>
      <trkpt lat="42.83395" lon="-0.43753">
        <ele>2087.4</ele>
        <time>2021-08-10 13:27:23</time>
      </trkpt>
      <trkpt lat="42.83395" lon="-0.43753">
        <ele>2087.2</ele>
        <time>2021-08-10 13:27:24</time>
      </trkpt>
      <trkpt lat="42.83394" lon="-0.43753">
        <ele>2087.2</ele>
        <time>2021-08-10 13:27:25</time>
      </trkpt>
      <trkpt lat="42.83393" lon="-0.43754">
        <ele>2087</ele>
        <time>2021-08-10 13:27:26</time>
      </trkpt>
      <trkpt lat="42.83393" lon="-0.43754">
        <ele>2086.8</ele>
        <time>2021-08-10 13:27:27</time>
      </trkpt>
      <trkpt lat="42.83392" lon="-0.43754">
        <ele>2086.8</ele>
        <time>2021-08-10 13:27:28</time>
      </trkpt>
      <trkpt lat="42.83392" lon="-0.43753">
        <ele>2086.6</ele>
        <time>2021-08-10 13:27:29</time>
      </trkpt>
      <trkpt lat="42.83392" lon="-0.43752">
        <ele>2086.4</ele>
        <time>2021-08-10 13:27:30</time>
      </trkpt>
      <trkpt lat="42.83391" lon="-0.43752">
        <ele>2086.2</ele>
        <time>2021-08-10 13:27:31</time>
      </trkpt>
      <trkpt lat="42.83392" lon="-0.43751">
        <ele>2086</ele>
        <time>2021-08-10 13:27:32</time>
      </trkpt>
      <trkpt lat="42.83392" lon="-0.4375">
        <ele>2085.8</ele>
        <time>2021-08-10 13:27:33</time>
      </trkpt>
      <trkpt lat="42.83392" lon="-0.43749">
        <ele>2085.6</ele>
        <time>2021-08-10 13:27:34</time>
      </trkpt>
      <trkpt lat="42.83392" lon="-0.43748">
        <ele>2085.6</ele>
        <time>2021-08-10 13:27:35</time>
      </trkpt>
      <trkpt lat="42.83392" lon="-0.43747">
        <ele>2085.6</ele>
        <time>2021-08-10 13:27:36</time>
      </trkpt>
      <trkpt lat="42.83392" lon="-0.43746">
        <ele>2085.2</ele>
        <time>2021-08-10 13:27:37</time>
      </trkpt>
      <trkpt lat="42.83393" lon="-0.43745">
        <ele>2085</ele>
        <time>2021-08-10 13:27:38</time>
      </trkpt>
      <trkpt lat="42.83393" lon="-0.43744">
        <ele>2084.8</ele>
        <time>2021-08-10 13:27:39</time>
      </trkpt>
      <trkpt lat="42.83394" lon="-0.43744">
        <ele>2084.8</ele>
        <time>2021-08-10 13:27:40</time>
      </trkpt>
      <trkpt lat="42.83394" lon="-0.43742">
        <ele>2084.6</ele>
        <time>2021-08-10 13:27:41</time>
      </trkpt>
      <trkpt lat="42.83394" lon="-0.43741">
        <ele>2084.6</ele>
        <time>2021-08-10 13:27:42</time>
      </trkpt>
      <trkpt lat="42.83394" lon="-0.4374">
        <ele>2084.6</ele>
        <time>2021-08-10 13:27:43</time>
      </trkpt>
      <trkpt lat="42.83393" lon="-0.4374">
        <ele>2084.4</ele>
        <time>2021-08-10 13:27:44</time>
      </trkpt>
      <trkpt lat="42.83393" lon="-0.43739">
        <ele>2084.2</ele>
        <time>2021-08-10 13:27:45</time>
      </trkpt>
      <trkpt lat="42.83393" lon="-0.43738">
        <ele>2083.8</ele>
        <time>2021-08-10 13:27:46</time>
      </trkpt>
      <trkpt lat="42.83394" lon="-0.43737">
        <ele>2083.8</ele>
        <time>2021-08-10 13:27:47</time>
      </trkpt>
      <trkpt lat="42.83394" lon="-0.43737">
        <ele>2083.6</ele>
        <time>2021-08-10 13:27:48</time>
      </trkpt>
      <trkpt lat="42.83394" lon="-0.43736">
        <ele>2083.4</ele>
      </trkpt>
      <trkpt lat="42.83394" lon="-0.43736">
        <ele>2083.4</ele>
        <time>2021-08-10 13:27:49</time>
      </trkpt>
      <trkpt lat="42.83395" lon="-0.43735">
        <ele>2083.2</ele>
        <time>2021-08-10 13:27:50</time>
      </trkpt>
      <trkpt lat="42.83396" lon="-0.43734">
        <ele>2083.2</ele>
        <time>2021-08-10 13:27:51</time>
      </trkpt>
      <trkpt lat="42.83396" lon="-0.43734">
        <ele>2083.4</ele>
        <time>2021-08-10 13:27:52</time>
      </trkpt>
      <trkpt lat="42.83397" lon="-0.43734">
        <ele>2083</ele>
        <time>2021-08-10 13:27:53</time>
      </trkpt>
      <trkpt lat="42.83397" lon="-0.43734">
        <ele>2083</ele>
        <time>2021-08-10 13:27:54</time>
      </trkpt>
      <trkpt lat="42.83398" lon="-0.43734">
        <ele>2082.8</ele>
        <time>2021-08-10 13:27:55</time>
      </trkpt>
      <trkpt lat="42.83398" lon="-0.43733">
        <ele>2082.8</ele>
        <time>2021-08-10 13:27:56</time>
      </trkpt>
      <trkpt lat="42.83398" lon="-0.43733">
        <ele>2082.6</ele>
        <time>2021-08-10 13:27:57</time>
      </trkpt>
      <trkpt lat="42.83398" lon="-0.43733">
        <ele>2082.6</ele>
        <time>2021-08-10 13:27:58</time>
      </trkpt>
      <trkpt lat="42.83397" lon="-0.43733">
        <ele>2082.2</ele>
        <time>2021-08-10 13:27:59</time>
      </trkpt>
      <trkpt lat="42.83397" lon="-0.43732">
        <ele>2082.2</ele>
        <time>2021-08-10 13:28:00</time>
      </trkpt>
      <trkpt lat="42.83398" lon="-0.43732">
        <ele>2082</ele>
        <time>2021-08-10 13:28:01</time>
      </trkpt>
      <trkpt lat="42.83398" lon="-0.43732">
        <ele>2082</ele>
        <time>2021-08-10 13:28:02</time>
      </trkpt>
      <trkpt lat="42.83397" lon="-0.43731">
        <ele>2081.8</ele>
        <time>2021-08-10 13:28:03</time>
      </trkpt>
      <trkpt lat="42.83397" lon="-0.4373">
        <ele>2082</ele>
        <time>2021-08-10 13:28:04</time>
      </trkpt>
      <trkpt lat="42.83397" lon="-0.4373">
        <ele>2081.6</ele>
        <time>2021-08-10 13:28:06</time>
      </trkpt>
      <trkpt lat="42.83398" lon="-0.43729">
        <ele>2081.4</ele>
      </trkpt>
      <trkpt lat="42.83397" lon="-0.43729">
        <ele>2081.4</ele>
        <time>2021-08-10 13:28:07</time>
      </trkpt>
      <trkpt lat="42.83397" lon="-0.43728">
        <ele>2081.4</ele>
        <time>2021-08-10 13:28:08</time>
      </trkpt>
      <trkpt lat="42.83397" lon="-0.43727">
        <ele>2081.2</ele>
        <time>2021-08-10 13:28:09</time>
      </trkpt>
      <trkpt lat="42.83397" lon="-0.43727">
        <ele>2081.2</ele>
        <time>2021-08-10 13:28:10</time>
      </trkpt>
      <trkpt lat="42.83398" lon="-0.43726">
        <ele>2081</ele>
        <time>2021-08-10 13:28:11</time>
      </trkpt>
      <trkpt lat="42.83399" lon="-0.43725">
        <ele>2081</ele>
        <time>2021-08-10 13:28:12</time>
      </trkpt>
      <trkpt lat="42.83399" lon="-0.43725">
        <ele>2080.8</ele>
        <time>2021-08-10 13:28:13</time>
      </trkpt>
      <trkpt lat="42.83399" lon="-0.43724">
        <ele>2080.6</ele>
        <time>2021-08-10 13:28:14</time>
      </trkpt>
      <trkpt lat="42.834" lon="-0.43724">
        <ele>2080.6</ele>
        <time>2021-08-10 13:28:15</time>
      </trkpt>
      <trkpt lat="42.834" lon="-0.43724">
        <ele>2080.4</ele>
        <time>2021-08-10 13:28:16</time>
      </trkpt>
      <trkpt lat="42.834" lon="-0.43723">
        <ele>2080.2</ele>
        <time>2021-08-10 13:28:17</time>
      </trkpt>
      <trkpt lat="42.834" lon="-0.43724">
        <ele>2080</ele>
        <time>2021-08-10 13:28:18</time>
      </trkpt>
      <trkpt lat="42.83401" lon="-0.43723">
        <ele>2080.2</ele>
        <time>2021-08-10 13:28:19</time>
      </trkpt>
      <trkpt lat="42.83401" lon="-0.43723">
        <ele>2080</ele>
        <time>2021-08-10 13:28:20</time>
      </trkpt>
      <trkpt lat="42.83401" lon="-0.43722">
        <ele>2079.6</ele>
        <time>2021-08-10 13:28:21</time>
      </trkpt>
      <trkpt lat="42.834" lon="-0.43721">
        <ele>2079.4</ele>
        <time>2021-08-10 13:28:22</time>
      </trkpt>
      <trkpt lat="42.834" lon="-0.43721">
        <ele>2079.4</ele>
        <time>2021-08-10 13:28:23</time>
      </trkpt>
      <trkpt lat="42.834" lon="-0.4372">
        <ele>2079.4</ele>
        <time>2021-08-10 13:28:25</time>
      </trkpt>
      <trkpt lat="42.834" lon="-0.4372">
        <ele>2079.2</ele>
      </trkpt>
      <trkpt lat="42.834" lon="-0.4372">
        <ele>2079.2</ele>
        <time>2021-08-10 13:28:26</time>
      </trkpt>
      <trkpt lat="42.834" lon="-0.43719">
        <ele>2078.8</ele>
        <time>2021-08-10 13:28:27</time>
      </trkpt>
      <trkpt lat="42.834" lon="-0.43718">
        <ele>2078.8</ele>
        <time>2021-08-10 13:28:28</time>
      </trkpt>
      <trkpt lat="42.83401" lon="-0.43718">
        <ele>2078.6</ele>
        <time>2021-08-10 13:28:29</time>
      </trkpt>
      <trkpt lat="42.83401" lon="-0.43718">
        <ele>2078.4</ele>
        <time>2021-08-10 13:28:30</time>
      </trkpt>
      <trkpt lat="42.83401" lon="-0.43717">
        <ele>2078.2</ele>
        <time>2021-08-10 13:28:31</time>
      </trkpt>
      <trkpt lat="42.834" lon="-0.43716">
        <ele>2078</ele>
        <time>2021-08-10 13:28:32</time>
      </trkpt>
      <trkpt lat="42.834" lon="-0.43716">
        <ele>2077.6</ele>
        <time>2021-08-10 13:28:33</time>
      </trkpt>
      <trkpt lat="42.83401" lon="-0.43715">
        <ele>2077.6</ele>
        <time>2021-08-10 13:28:34</time>
      </trkpt>
      <trkpt lat="42.83401" lon="-0.43715">
        <ele>2077.6</ele>
        <time>2021-08-10 13:28:35</time>
      </trkpt>
      <trkpt lat="42.83402" lon="-0.43714">
        <ele>2077.4</ele>
        <time>2021-08-10 13:28:36</time>
      </trkpt>
      <trkpt lat="42.83402" lon="-0.43714">
        <ele>2077.2</ele>
        <time>2021-08-10 13:28:37</time>
      </trkpt>
      <trkpt lat="42.83403" lon="-0.43713">
        <ele>2076.8</ele>
        <time>2021-08-10 13:28:38</time>
      </trkpt>
      <trkpt lat="42.83402" lon="-0.43713">
        <ele>2076.6</ele>
        <time>2021-08-10 13:28:39</time>
      </trkpt>
      <trkpt lat="42.83402" lon="-0.43713">
        <ele>2076.4</ele>
        <time>2021-08-10 13:28:40</time>
      </trkpt>
      <trkpt lat="42.83402" lon="-0.43712">
        <ele>2076.4</ele>
        <time>2021-08-10 13:28:41</time>
      </trkpt>
      <trkpt lat="42.83402" lon="-0.43712">
        <ele>2076.2</ele>
        <time>2021-08-10 13:28:42</time>
      </trkpt>
      <trkpt lat="42.83402" lon="-0.43711">
        <ele>2076.2</ele>
        <time>2021-08-10 13:28:43</time>
      </trkpt>
      <trkpt lat="42.83402" lon="-0.4371">
        <ele>2076</ele>
        <time>2021-08-10 13:28:44</time>
      </trkpt>
      <trkpt lat="42.83402" lon="-0.4371">
        <ele>2075.8</ele>
        <time>2021-08-10 13:28:45</time>
      </trkpt>
      <trkpt lat="42.83401" lon="-0.43709">
        <ele>2075.4</ele>
        <time>2021-08-10 13:28:46</time>
      </trkpt>
      <trkpt lat="42.83401" lon="-0.43708">
        <ele>2075.4</ele>
        <time>2021-08-10 13:28:47</time>
      </trkpt>
      <trkpt lat="42.83402" lon="-0.43708">
        <ele>2075.4</ele>
        <time>2021-08-10 13:28:48</time>
      </trkpt>
      <trkpt lat="42.83402" lon="-0.43707">
        <ele>2075.4</ele>
        <time>2021-08-10 13:28:49</time>
      </trkpt>
      <trkpt lat="42.83403" lon="-0.43707">
        <ele>2075</ele>
        <time>2021-08-10 13:28:50</time>
      </trkpt>
      <trkpt lat="42.83403" lon="-0.43706">
        <ele>2074.6</ele>
        <time>2021-08-10 13:28:51</time>
      </trkpt>
      <trkpt lat="42.83403" lon="-0.43705">
        <ele>2074.2</ele>
        <time>2021-08-10 13:28:52</time>
      </trkpt>
      <trkpt lat="42.83403" lon="-0.43705">
        <ele>2074.2</ele>
        <time>2021-08-10 13:28:53</time>
      </trkpt>
      <trkpt lat="42.83403" lon="-0.43704">
        <ele>2074</ele>
        <time>2021-08-10 13:28:54</time>
      </trkpt>
      <trkpt lat="42.83403" lon="-0.43704">
        <ele>2074</ele>
        <time>2021-08-10 13:28:55</time>
      </trkpt>
      <trkpt lat="42.83403" lon="-0.43703">
        <ele>2074</ele>
        <time>2021-08-10 13:28:56</time>
      </trkpt>
      <trkpt lat="42.83403" lon="-0.43702">
        <ele>2074.2</ele>
        <time>2021-08-10 13:28:57</time>
      </trkpt>
      <trkpt lat="42.83403" lon="-0.43702">
        <ele>2074</ele>
        <time>2021-08-10 13:28:58</time>
      </trkpt>
      <trkpt lat="42.83403" lon="-0.43701">
        <ele>2073.8</ele>
        <time>2021-08-10 13:28:59</time>
      </trkpt>
      <trkpt lat="42.83403" lon="-0.43701">
        <ele>2073.6</ele>
        <time>2021-08-10 13:29:00</time>
      </trkpt>
      <trkpt lat="42.83403" lon="-0.43701">
        <ele>2073.4</ele>
        <time>2021-08-10 13:29:01</time>
      </trkpt>
      <trkpt lat="42.83403" lon="-0.437">
        <ele>2073.2</ele>
        <time>2021-08-10 13:29:02</time>
      </trkpt>
      <trkpt lat="42.83403" lon="-0.437">
        <ele>2073.2</ele>
        <time>2021-08-10 13:29:03</time>
      </trkpt>
      <trkpt lat="42.83403" lon="-0.43699">
        <ele>2072.8</ele>
        <time>2021-08-10 13:29:04</time>
      </trkpt>
      <trkpt lat="42.83404" lon="-0.43699">
        <ele>2072.8</ele>
        <time>2021-08-10 13:29:05</time>
      </trkpt>
      <trkpt lat="42.83404" lon="-0.43698">
        <ele>2072.4</ele>
        <time>2021-08-10 13:29:06</time>
      </trkpt>
      <trkpt lat="42.83403" lon="-0.43698">
        <ele>2072</ele>
        <time>2021-08-10 13:29:09</time>
      </trkpt>
      <trkpt lat="42.83403" lon="-0.43698">
        <ele>2072</ele>
        <time>2021-08-10 13:29:10</time>
      </trkpt>
      <trkpt lat="42.83403" lon="-0.43697">
        <ele>2072</ele>
        <time>2021-08-10 13:29:11</time>
      </trkpt>
      <trkpt lat="42.83403" lon="-0.43696">
        <ele>2072</ele>
        <time>2021-08-10 13:29:12</time>
      </trkpt>
      <trkpt lat="42.83403" lon="-0.43696">
        <ele>2071.8</ele>
        <time>2021-08-10 13:29:13</time>
      </trkpt>
      <trkpt lat="42.83403" lon="-0.43695">
        <ele>2071.8</ele>
        <time>2021-08-10 13:29:14</time>
      </trkpt>
      <trkpt lat="42.83403" lon="-0.43695">
        <ele>2071.6</ele>
        <time>2021-08-10 13:29:15</time>
      </trkpt>
      <trkpt lat="42.83403" lon="-0.43694">
        <ele>2071.6</ele>
        <time>2021-08-10 13:29:16</time>
      </trkpt>
      <trkpt lat="42.83403" lon="-0.43693">
        <ele>2071.4</ele>
        <time>2021-08-10 13:29:17</time>
      </trkpt>
      <trkpt lat="42.83404" lon="-0.43692">
        <ele>2071.2</ele>
        <time>2021-08-10 13:29:18</time>
      </trkpt>
      <trkpt lat="42.83404" lon="-0.43692">
        <ele>2071.2</ele>
        <time>2021-08-10 13:29:19</time>
      </trkpt>
      <trkpt lat="42.83404" lon="-0.43691">
        <ele>2071</ele>
        <time>2021-08-10 13:29:20</time>
      </trkpt>
      <trkpt lat="42.83405" lon="-0.4369">
        <ele>2070.8</ele>
        <time>2021-08-10 13:29:21</time>
      </trkpt>
      <trkpt lat="42.83405" lon="-0.43689">
        <ele>2070.8</ele>
        <time>2021-08-10 13:29:22</time>
      </trkpt>
      <trkpt lat="42.83406" lon="-0.43688">
        <ele>2070.6</ele>
        <time>2021-08-10 13:29:23</time>
      </trkpt>
      <trkpt lat="42.83405" lon="-0.43687">
        <ele>2070.4</ele>
        <time>2021-08-10 13:29:24</time>
      </trkpt>
      <trkpt lat="42.83405" lon="-0.43686">
        <ele>2070</ele>
        <time>2021-08-10 13:29:25</time>
      </trkpt>
      <trkpt lat="42.83406" lon="-0.43685">
        <ele>2069.8</ele>
        <time>2021-08-10 13:29:26</time>
      </trkpt>
      <trkpt lat="42.83406" lon="-0.43685">
        <ele>2069.8</ele>
        <time>2021-08-10 13:29:27</time>
      </trkpt>
      <trkpt lat="42.83405" lon="-0.43684">
        <ele>2069.6</ele>
        <time>2021-08-10 13:29:28</time>
      </trkpt>
      <trkpt lat="42.83405" lon="-0.43683">
        <ele>2069.4</ele>
        <time>2021-08-10 13:29:29</time>
      </trkpt>
      <trkpt lat="42.83404" lon="-0.43682">
        <ele>2069.2</ele>
        <time>2021-08-10 13:29:30</time>
      </trkpt>
      <trkpt lat="42.83404" lon="-0.43682">
        <ele>2069</ele>
        <time>2021-08-10 13:29:31</time>
      </trkpt>
      <trkpt lat="42.83403" lon="-0.43681">
        <ele>2068.8</ele>
        <time>2021-08-10 13:29:32</time>
      </trkpt>
      <trkpt lat="42.83403" lon="-0.4368">
        <ele>2068.6</ele>
        <time>2021-08-10 13:29:33</time>
      </trkpt>
      <trkpt lat="42.83403" lon="-0.4368">
        <ele>2068.6</ele>
        <time>2021-08-10 13:29:34</time>
      </trkpt>
      <trkpt lat="42.83403" lon="-0.43679">
        <ele>2068.2</ele>
        <time>2021-08-10 13:29:35</time>
      </trkpt>
      <trkpt lat="42.83402" lon="-0.43679">
        <ele>2068</ele>
        <time>2021-08-10 13:29:36</time>
      </trkpt>
      <trkpt lat="42.83401" lon="-0.43678">
        <ele>2067.8</ele>
        <time>2021-08-10 13:29:37</time>
      </trkpt>
      <trkpt lat="42.83401" lon="-0.43677">
        <ele>2067.6</ele>
        <time>2021-08-10 13:29:38</time>
      </trkpt>
      <trkpt lat="42.834" lon="-0.43677">
        <ele>2067.6</ele>
        <time>2021-08-10 13:29:39</time>
      </trkpt>
      <trkpt lat="42.83399" lon="-0.43676">
        <ele>2067.4</ele>
        <time>2021-08-10 13:29:40</time>
      </trkpt>
      <trkpt lat="42.83399" lon="-0.43675">
        <ele>2067.2</ele>
        <time>2021-08-10 13:29:41</time>
      </trkpt>
      <trkpt lat="42.83398" lon="-0.43675">
        <ele>2067.2</ele>
        <time>2021-08-10 13:29:42</time>
      </trkpt>
      <trkpt lat="42.83398" lon="-0.43674">
        <ele>2067</ele>
        <time>2021-08-10 13:29:43</time>
      </trkpt>
      <trkpt lat="42.83397" lon="-0.43673">
        <ele>2066.8</ele>
        <time>2021-08-10 13:29:44</time>
      </trkpt>
      <trkpt lat="42.83398" lon="-0.43672">
        <ele>2066.6</ele>
        <time>2021-08-10 13:29:45</time>
      </trkpt>
      <trkpt lat="42.83398" lon="-0.4367">
        <ele>2066.6</ele>
        <time>2021-08-10 13:29:46</time>
      </trkpt>
      <trkpt lat="42.83397" lon="-0.43669">
        <ele>2066.4</ele>
        <time>2021-08-10 13:29:47</time>
      </trkpt>
      <trkpt lat="42.83397" lon="-0.43668">
        <ele>2066.2</ele>
        <time>2021-08-10 13:29:48</time>
      </trkpt>
      <trkpt lat="42.83397" lon="-0.43667">
        <ele>2066.2</ele>
        <time>2021-08-10 13:29:49</time>
      </trkpt>
      <trkpt lat="42.83396" lon="-0.43667">
        <ele>2066</ele>
        <time>2021-08-10 13:29:50</time>
      </trkpt>
      <trkpt lat="42.83395" lon="-0.43665">
        <ele>2065.8</ele>
        <time>2021-08-10 13:29:51</time>
      </trkpt>
      <trkpt lat="42.83395" lon="-0.43665">
        <ele>2065.4</ele>
        <time>2021-08-10 13:29:52</time>
      </trkpt>
      <trkpt lat="42.83394" lon="-0.43664">
        <ele>2065.4</ele>
        <time>2021-08-10 13:29:53</time>
      </trkpt>
      <trkpt lat="42.83394" lon="-0.43663">
        <ele>2065.2</ele>
        <time>2021-08-10 13:29:54</time>
      </trkpt>
      <trkpt lat="42.83393" lon="-0.43662">
        <ele>2065</ele>
        <time>2021-08-10 13:29:55</time>
      </trkpt>
      <trkpt lat="42.83393" lon="-0.43661">
        <ele>2065</ele>
        <time>2021-08-10 13:29:56</time>
      </trkpt>
      <trkpt lat="42.83393" lon="-0.4366">
        <ele>2065</ele>
        <time>2021-08-10 13:29:57</time>
      </trkpt>
      <trkpt lat="42.83393" lon="-0.43659">
        <ele>2064.8</ele>
        <time>2021-08-10 13:29:58</time>
      </trkpt>
      <trkpt lat="42.83393" lon="-0.43658">
        <ele>2064.8</ele>
        <time>2021-08-10 13:29:59</time>
      </trkpt>
      <trkpt lat="42.83393" lon="-0.43657">
        <ele>2064.6</ele>
        <time>2021-08-10 13:30:00</time>
      </trkpt>
      <trkpt lat="42.83394" lon="-0.43657">
        <ele>2064.6</ele>
        <time>2021-08-10 13:30:03</time>
      </trkpt>
      <trkpt lat="42.83394" lon="-0.43656">
        <ele>2064.6</ele>
        <time>2021-08-10 13:30:04</time>
      </trkpt>
      <trkpt lat="42.83395" lon="-0.43655">
        <ele>2064.6</ele>
        <time>2021-08-10 13:30:05</time>
      </trkpt>
      <trkpt lat="42.83395" lon="-0.43654">
        <ele>2064.6</ele>
        <time>2021-08-10 13:30:06</time>
      </trkpt>
      <trkpt lat="42.83395" lon="-0.43653">
        <ele>2064.4</ele>
        <time>2021-08-10 13:30:07</time>
      </trkpt>
      <trkpt lat="42.83395" lon="-0.43653">
        <ele>2064.6</ele>
        <time>2021-08-10 13:30:08</time>
      </trkpt>
      <trkpt lat="42.83395" lon="-0.43652">
        <ele>2064.4</ele>
        <time>2021-08-10 13:30:09</time>
      </trkpt>
      <trkpt lat="42.83395" lon="-0.43652">
        <ele>2064.2</ele>
        <time>2021-08-10 13:30:10</time>
      </trkpt>
      <trkpt lat="42.83395" lon="-0.43651">
        <ele>2064</ele>
        <time>2021-08-10 13:30:11</time>
      </trkpt>
      <trkpt lat="42.83396" lon="-0.43651">
        <ele>2064</ele>
        <time>2021-08-10 13:30:12</time>
      </trkpt>
      <trkpt lat="42.83396" lon="-0.4365">
        <ele>2064</ele>
        <time>2021-08-10 13:30:13</time>
      </trkpt>
      <trkpt lat="42.83396" lon="-0.4365">
        <ele>2063.8</ele>
        <time>2021-08-10 13:30:14</time>
      </trkpt>
      <trkpt lat="42.83396" lon="-0.4365">
        <ele>2063.8</ele>
        <time>2021-08-10 13:30:15</time>
      </trkpt>
      <trkpt lat="42.83396" lon="-0.4365">
        <ele>2063.8</ele>
        <time>2021-08-10 13:30:16</time>
      </trkpt>
      <trkpt lat="42.83396" lon="-0.4365">
        <ele>2064</ele>
        <time>2021-08-10 13:30:17</time>
      </trkpt>
      <trkpt lat="42.83396" lon="-0.43649">
        <ele>2064</ele>
        <time>2021-08-10 13:30:18</time>
      </trkpt>
      <trkpt lat="42.83396" lon="-0.43649">
        <ele>2063.6</ele>
        <time>2021-08-10 13:30:19</time>
      </trkpt>
      <trkpt lat="42.83396" lon="-0.43648">
        <ele>2063.6</ele>
        <time>2021-08-10 13:30:20</time>
      </trkpt>
      <trkpt lat="42.83396" lon="-0.43648">
        <ele>2063.6</ele>
        <time>2021-08-10 13:30:21</time>
      </trkpt>
      <trkpt lat="42.83396" lon="-0.43647">
        <ele>2063.4</ele>
        <time>2021-08-10 13:30:22</time>
      </trkpt>
      <trkpt lat="42.83396" lon="-0.43647">
        <ele>2063.4</ele>
        <time>2021-08-10 13:30:23</time>
      </trkpt>
      <trkpt lat="42.83396" lon="-0.43646">
        <ele>2063.2</ele>
        <time>2021-08-10 13:30:24</time>
      </trkpt>
      <trkpt lat="42.83396" lon="-0.43646">
        <ele>2063.2</ele>
        <time>2021-08-10 13:30:25</time>
      </trkpt>
      <trkpt lat="42.83396" lon="-0.43646">
        <ele>2063</ele>
        <time>2021-08-10 13:30:26</time>
      </trkpt>
      <trkpt lat="42.83395" lon="-0.43646">
        <ele>2062.8</ele>
        <time>2021-08-10 13:30:27</time>
      </trkpt>
      <trkpt lat="42.83395" lon="-0.43645">
        <ele>2063</ele>
        <time>2021-08-10 13:30:28</time>
      </trkpt>
      <trkpt lat="42.83395" lon="-0.43645">
        <ele>2063</ele>
        <time>2021-08-10 13:30:29</time>
      </trkpt>
      <trkpt lat="42.83395" lon="-0.43645">
        <ele>2063.2</ele>
        <time>2021-08-10 13:30:30</time>
      </trkpt>
      <trkpt lat="42.83395" lon="-0.43645">
        <ele>2063</ele>
        <time>2021-08-10 13:30:31</time>
      </trkpt>
      <trkpt lat="42.83395" lon="-0.43644">
        <ele>2062.8</ele>
        <time>2021-08-10 13:30:32</time>
      </trkpt>
      <trkpt lat="42.83394" lon="-0.43644">
        <ele>2062.6</ele>
        <time>2021-08-10 13:30:33</time>
      </trkpt>
      <trkpt lat="42.83394" lon="-0.43644">
        <ele>2062.4</ele>
        <time>2021-08-10 13:30:34</time>
      </trkpt>
      <trkpt lat="42.83394" lon="-0.43643">
        <ele>2062.2</ele>
        <time>2021-08-10 13:30:35</time>
      </trkpt>
      <trkpt lat="42.83394" lon="-0.43642">
        <ele>2062.2</ele>
        <time>2021-08-10 13:30:36</time>
      </trkpt>
      <trkpt lat="42.83394" lon="-0.43642">
        <ele>2062.2</ele>
        <time>2021-08-10 13:30:37</time>
      </trkpt>
      <trkpt lat="42.83394" lon="-0.43642">
        <ele>2062</ele>
        <time>2021-08-10 13:30:38</time>
      </trkpt>
      <trkpt lat="42.83394" lon="-0.43641">
        <ele>2062</ele>
        <time>2021-08-10 13:30:39</time>
      </trkpt>
      <trkpt lat="42.83394" lon="-0.4364">
        <ele>2061.8</ele>
        <time>2021-08-10 13:30:40</time>
      </trkpt>
      <trkpt lat="42.83393" lon="-0.4364">
        <ele>2061.8</ele>
        <time>2021-08-10 13:30:41</time>
      </trkpt>
      <trkpt lat="42.83393" lon="-0.4364">
        <ele>2061.6</ele>
        <time>2021-08-10 13:30:42</time>
      </trkpt>
      <trkpt lat="42.83393" lon="-0.4364">
        <ele>2061.6</ele>
        <time>2021-08-10 13:30:43</time>
      </trkpt>
      <trkpt lat="42.83392" lon="-0.43639">
        <ele>2061.4</ele>
        <time>2021-08-10 13:30:44</time>
      </trkpt>
      <trkpt lat="42.83392" lon="-0.43639">
        <ele>2061.4</ele>
        <time>2021-08-10 13:30:45</time>
      </trkpt>
      <trkpt lat="42.83392" lon="-0.43639">
        <ele>2061.4</ele>
        <time>2021-08-10 13:30:46</time>
      </trkpt>
      <trkpt lat="42.83392" lon="-0.43639">
        <ele>2061.2</ele>
        <time>2021-08-10 13:30:47</time>
      </trkpt>
      <trkpt lat="42.83391" lon="-0.43639">
        <ele>2061</ele>
        <time>2021-08-10 13:30:48</time>
      </trkpt>
      <trkpt lat="42.83391" lon="-0.43639">
        <ele>2060.8</ele>
        <time>2021-08-10 13:30:49</time>
      </trkpt>
      <trkpt lat="42.83392" lon="-0.43639">
        <ele>2060.8</ele>
        <time>2021-08-10 13:30:50</time>
      </trkpt>
      <trkpt lat="42.83391" lon="-0.43639">
        <ele>2060.6</ele>
        <time>2021-08-10 13:30:51</time>
      </trkpt>
      <trkpt lat="42.83391" lon="-0.43639">
        <ele>2060.4</ele>
        <time>2021-08-10 13:30:52</time>
      </trkpt>
      <trkpt lat="42.83391" lon="-0.43639">
        <ele>2060.2</ele>
        <time>2021-08-10 13:30:53</time>
      </trkpt>
      <trkpt lat="42.83391" lon="-0.43638">
        <ele>2060</ele>
        <time>2021-08-10 13:30:54</time>
      </trkpt>
      <trkpt lat="42.8339" lon="-0.43637">
        <ele>2059.8</ele>
        <time>2021-08-10 13:30:55</time>
      </trkpt>
      <trkpt lat="42.8339" lon="-0.43637">
        <ele>2060</ele>
        <time>2021-08-10 13:30:56</time>
      </trkpt>
      <trkpt lat="42.83389" lon="-0.43637">
        <ele>2059.6</ele>
        <time>2021-08-10 13:30:57</time>
      </trkpt>
      <trkpt lat="42.83389" lon="-0.43636">
        <ele>2059.4</ele>
        <time>2021-08-10 13:30:58</time>
      </trkpt>
      <trkpt lat="42.83389" lon="-0.43636">
        <ele>2059</ele>
        <time>2021-08-10 13:30:59</time>
      </trkpt>
      <trkpt lat="42.83388" lon="-0.43635">
        <ele>2058.8</ele>
        <time>2021-08-10 13:31:00</time>
      </trkpt>
      <trkpt lat="42.83388" lon="-0.43634">
        <ele>2058.6</ele>
        <time>2021-08-10 13:31:01</time>
      </trkpt>
      <trkpt lat="42.83388" lon="-0.43634">
        <ele>2058.4</ele>
        <time>2021-08-10 13:31:02</time>
      </trkpt>
      <trkpt lat="42.83389" lon="-0.43633">
        <ele>2058.4</ele>
        <time>2021-08-10 13:31:03</time>
      </trkpt>
      <trkpt lat="42.83389" lon="-0.43632">
        <ele>2058.2</ele>
        <time>2021-08-10 13:31:04</time>
      </trkpt>
      <trkpt lat="42.83389" lon="-0.43631">
        <ele>2058.2</ele>
        <time>2021-08-10 13:31:05</time>
      </trkpt>
      <trkpt lat="42.83389" lon="-0.4363">
        <ele>2058</ele>
        <time>2021-08-10 13:31:06</time>
      </trkpt>
      <trkpt lat="42.83389" lon="-0.43629">
        <ele>2057.8</ele>
        <time>2021-08-10 13:31:07</time>
      </trkpt>
      <trkpt lat="42.83389" lon="-0.43629">
        <ele>2057.8</ele>
        <time>2021-08-10 13:31:08</time>
      </trkpt>
      <trkpt lat="42.83389" lon="-0.43628">
        <ele>2057.6</ele>
        <time>2021-08-10 13:31:09</time>
      </trkpt>
      <trkpt lat="42.83389" lon="-0.43627">
        <ele>2057.6</ele>
        <time>2021-08-10 13:31:10</time>
      </trkpt>
      <trkpt lat="42.83389" lon="-0.43625">
        <ele>2057.4</ele>
        <time>2021-08-10 13:31:11</time>
      </trkpt>
      <trkpt lat="42.8339" lon="-0.43624">
        <ele>2057.4</ele>
        <time>2021-08-10 13:31:12</time>
      </trkpt>
      <trkpt lat="42.8339" lon="-0.43623">
        <ele>2057.2</ele>
        <time>2021-08-10 13:31:13</time>
      </trkpt>
      <trkpt lat="42.8339" lon="-0.43622">
        <ele>2057</ele>
        <time>2021-08-10 13:31:14</time>
      </trkpt>
      <trkpt lat="42.83391" lon="-0.43621">
        <ele>2057</ele>
        <time>2021-08-10 13:31:15</time>
      </trkpt>
      <trkpt lat="42.83391" lon="-0.43619">
        <ele>2057</ele>
        <time>2021-08-10 13:31:16</time>
      </trkpt>
      <trkpt lat="42.83392" lon="-0.43619">
        <ele>2057</ele>
        <time>2021-08-10 13:31:17</time>
      </trkpt>
      <trkpt lat="42.83392" lon="-0.43618">
        <ele>2056.8</ele>
        <time>2021-08-10 13:31:18</time>
      </trkpt>
      <trkpt lat="42.83393" lon="-0.43617">
        <ele>2056.2</ele>
        <time>2021-08-10 13:31:19</time>
      </trkpt>
      <trkpt lat="42.83393" lon="-0.43616">
        <ele>2056.4</ele>
        <time>2021-08-10 13:31:20</time>
      </trkpt>
      <trkpt lat="42.83394" lon="-0.43615">
        <ele>2056.4</ele>
        <time>2021-08-10 13:31:21</time>
      </trkpt>
      <trkpt lat="42.83394" lon="-0.43614">
        <ele>2056.6</ele>
        <time>2021-08-10 13:31:22</time>
      </trkpt>
      <trkpt lat="42.83395" lon="-0.43613">
        <ele>2056.6</ele>
        <time>2021-08-10 13:31:23</time>
      </trkpt>
      <trkpt lat="42.83395" lon="-0.43612">
        <ele>2056.4</ele>
        <time>2021-08-10 13:31:24</time>
      </trkpt>
      <trkpt lat="42.83395" lon="-0.4361">
        <ele>2056.4</ele>
        <time>2021-08-10 13:31:25</time>
      </trkpt>
      <trkpt lat="42.83396" lon="-0.4361">
        <ele>2056.4</ele>
        <time>2021-08-10 13:31:26</time>
      </trkpt>
      <trkpt lat="42.83396" lon="-0.43609">
        <ele>2056.2</ele>
        <time>2021-08-10 13:31:27</time>
      </trkpt>
      <trkpt lat="42.83397" lon="-0.43607">
        <ele>2056.2</ele>
        <time>2021-08-10 13:31:28</time>
      </trkpt>
      <trkpt lat="42.83397" lon="-0.43607">
        <ele>2056.2</ele>
        <time>2021-08-10 13:31:29</time>
      </trkpt>
      <trkpt lat="42.83398" lon="-0.43605">
        <ele>2056</ele>
        <time>2021-08-10 13:31:30</time>
      </trkpt>
      <trkpt lat="42.83398" lon="-0.43604">
        <ele>2056</ele>
        <time>2021-08-10 13:31:31</time>
      </trkpt>
      <trkpt lat="42.83398" lon="-0.43604">
        <ele>2056</ele>
        <time>2021-08-10 13:31:32</time>
      </trkpt>
      <trkpt lat="42.83398" lon="-0.43604">
        <ele>2056</ele>
        <time>2021-08-10 13:31:33</time>
      </trkpt>
      <trkpt lat="42.83398" lon="-0.43604">
        <ele>2056</ele>
        <time>2021-08-10 13:31:34</time>
      </trkpt>
      <trkpt lat="42.83398" lon="-0.43605">
        <ele>2055.8</ele>
        <time>2021-08-10 13:31:35</time>
      </trkpt>
      <trkpt lat="42.83397" lon="-0.43606">
        <ele>2056</ele>
        <time>2021-08-10 13:31:36</time>
      </trkpt>
      <trkpt lat="42.83397" lon="-0.43607">
        <ele>2056.2</ele>
        <time>2021-08-10 13:31:37</time>
      </trkpt>
      <trkpt lat="42.83397" lon="-0.43609">
        <ele>2056.2</ele>
        <time>2021-08-10 13:31:38</time>
      </trkpt>
      <trkpt lat="42.83397" lon="-0.43609">
        <ele>2056.2</ele>
        <time>2021-08-10 13:31:39</time>
      </trkpt>
      <trkpt lat="42.83397" lon="-0.43609">
        <ele>2056.2</ele>
        <time>2021-08-10 13:31:40</time>
      </trkpt>
      <trkpt lat="42.83397" lon="-0.43608">
        <ele>2056.2</ele>
        <time>2021-08-10 13:31:41</time>
      </trkpt>
      <trkpt lat="42.83396" lon="-0.43609">
        <ele>2056.4</ele>
        <time>2021-08-10 13:31:42</time>
      </trkpt>
      <trkpt lat="42.83397" lon="-0.43609">
        <ele>2056.4</ele>
        <time>2021-08-10 13:31:43</time>
      </trkpt>
      <trkpt lat="42.83397" lon="-0.43609">
        <ele>2056.4</ele>
        <time>2021-08-10 13:31:44</time>
      </trkpt>
      <trkpt lat="42.83397" lon="-0.4361">
        <ele>2056.2</ele>
        <time>2021-08-10 13:31:45</time>
      </trkpt>
      <trkpt lat="42.83397" lon="-0.4361">
        <ele>2056.6</ele>
        <time>2021-08-10 13:31:46</time>
      </trkpt>
      <trkpt lat="42.83396" lon="-0.4361">
        <ele>2056.4</ele>
        <time>2021-08-10 13:31:47</time>
      </trkpt>
      <trkpt lat="42.83396" lon="-0.4361">
        <ele>2056.6</ele>
        <time>2021-08-10 13:31:48</time>
      </trkpt>
      <trkpt lat="42.83396" lon="-0.4361">
        <ele>2056.6</ele>
        <time>2021-08-10 13:31:49</time>
      </trkpt>
      <trkpt lat="42.83396" lon="-0.4361">
        <ele>2056.6</ele>
        <time>2021-08-10 13:31:50</time>
      </trkpt>
      <trkpt lat="42.83396" lon="-0.4361">
        <ele>2056.4</ele>
        <time>2021-08-10 13:31:51</time>
      </trkpt>
      <trkpt lat="42.83394" lon="-0.43612">
        <ele>2057</ele>
        <time>2021-08-10 13:31:52</time>
      </trkpt>
      <trkpt lat="42.83393" lon="-0.43612">
        <ele>2057</ele>
        <time>2021-08-10 13:31:53</time>
      </trkpt>
      <trkpt lat="42.83393" lon="-0.43613">
        <ele>2056.6</ele>
        <time>2021-08-10 13:31:54</time>
      </trkpt>
      <trkpt lat="42.83392" lon="-0.43614">
        <ele>2056.8</ele>
        <time>2021-08-10 13:31:55</time>
      </trkpt>
      <trkpt lat="42.83392" lon="-0.43614">
        <ele>2056.6</ele>
        <time>2021-08-10 13:31:56</time>
      </trkpt>
      <trkpt lat="42.83392" lon="-0.43614">
        <ele>2056.8</ele>
        <time>2021-08-10 13:31:57</time>
      </trkpt>
      <trkpt lat="42.83393" lon="-0.43614">
        <ele>2056.4</ele>
        <time>2021-08-10 13:31:58</time>
      </trkpt>
      <trkpt lat="42.83393" lon="-0.43614">
        <ele>2056.2</ele>
        <time>2021-08-10 13:31:59</time>
      </trkpt>
      <trkpt lat="42.83395" lon="-0.43611">
        <ele>2056.6</ele>
        <time>2021-08-10 13:32:00</time>
      </trkpt>
      <trkpt lat="42.83394" lon="-0.43611">
        <ele>2056.4</ele>
        <time>2021-08-10 13:32:01</time>
      </trkpt>
      <trkpt lat="42.83395" lon="-0.4361">
        <ele>2056.6</ele>
        <time>2021-08-10 13:32:02</time>
      </trkpt>
      <trkpt lat="42.83395" lon="-0.43609">
        <ele>2056.6</ele>
        <time>2021-08-10 13:32:03</time>
      </trkpt>
      <trkpt lat="42.83396" lon="-0.43609">
        <ele>2057</ele>
        <time>2021-08-10 13:32:04</time>
      </trkpt>
      <trkpt lat="42.83397" lon="-0.43608">
        <ele>2056.8</ele>
        <time>2021-08-10 13:32:05</time>
      </trkpt>
      <trkpt lat="42.83397" lon="-0.43607">
        <ele>2056.8</ele>
        <time>2021-08-10 13:32:06</time>
      </trkpt>
      <trkpt lat="42.83398" lon="-0.43605">
        <ele>2056.6</ele>
        <time>2021-08-10 13:32:07</time>
      </trkpt>
      <trkpt lat="42.83398" lon="-0.43604">
        <ele>2056.2</ele>
        <time>2021-08-10 13:32:08</time>
      </trkpt>
      <trkpt lat="42.83398" lon="-0.43602">
        <ele>2056</ele>
        <time>2021-08-10 13:32:09</time>
      </trkpt>
      <trkpt lat="42.83398" lon="-0.43601">
        <ele>2056.2</ele>
        <time>2021-08-10 13:32:10</time>
      </trkpt>
      <trkpt lat="42.83398" lon="-0.436">
        <ele>2056.4</ele>
        <time>2021-08-10 13:32:11</time>
      </trkpt>
      <trkpt lat="42.83399" lon="-0.43598">
        <ele>2056.2</ele>
        <time>2021-08-10 13:32:12</time>
      </trkpt>
      <trkpt lat="42.83399" lon="-0.43597">
        <ele>2056</ele>
        <time>2021-08-10 13:32:13</time>
      </trkpt>
      <trkpt lat="42.834" lon="-0.43596">
        <ele>2056</ele>
        <time>2021-08-10 13:32:14</time>
      </trkpt>
      <trkpt lat="42.834" lon="-0.43594">
        <ele>2056</ele>
        <time>2021-08-10 13:32:15</time>
      </trkpt>
      <trkpt lat="42.834" lon="-0.43593">
        <ele>2055.8</ele>
        <time>2021-08-10 13:32:16</time>
      </trkpt>
      <trkpt lat="42.83399" lon="-0.43591">
        <ele>2055.8</ele>
        <time>2021-08-10 13:32:17</time>
      </trkpt>
      <trkpt lat="42.834" lon="-0.4359">
        <ele>2055.6</ele>
        <time>2021-08-10 13:32:18</time>
      </trkpt>
      <trkpt lat="42.834" lon="-0.43588">
        <ele>2055.8</ele>
        <time>2021-08-10 13:32:19</time>
      </trkpt>
      <trkpt lat="42.834" lon="-0.43588">
        <ele>2055.8</ele>
        <time>2021-08-10 13:32:20</time>
      </trkpt>
      <trkpt lat="42.834" lon="-0.43586">
        <ele>2055.8</ele>
        <time>2021-08-10 13:32:21</time>
      </trkpt>
      <trkpt lat="42.83399" lon="-0.43584">
        <ele>2055.8</ele>
        <time>2021-08-10 13:32:22</time>
      </trkpt>
      <trkpt lat="42.83399" lon="-0.43583">
        <ele>2055.8</ele>
        <time>2021-08-10 13:32:23</time>
      </trkpt>
      <trkpt lat="42.83399" lon="-0.43582">
        <ele>2055.8</ele>
        <time>2021-08-10 13:32:24</time>
      </trkpt>
      <trkpt lat="42.83399" lon="-0.43583">
        <ele>2055.8</ele>
        <time>2021-08-10 13:32:25</time>
      </trkpt>
      <trkpt lat="42.83399" lon="-0.43583">
        <ele>2055</ele>
        <time>2021-08-10 13:32:26</time>
      </trkpt>
      <trkpt lat="42.83399" lon="-0.43583">
        <ele>2055.2</ele>
        <time>2021-08-10 13:32:27</time>
      </trkpt>
      <trkpt lat="42.83399" lon="-0.43583">
        <ele>2055</ele>
        <time>2021-08-10 13:32:28</time>
      </trkpt>
      <trkpt lat="42.83399" lon="-0.43582">
        <ele>2055.6</ele>
        <time>2021-08-10 13:32:29</time>
      </trkpt>
      <trkpt lat="42.83399" lon="-0.43582">
        <ele>2055.6</ele>
        <time>2021-08-10 13:32:30</time>
      </trkpt>
      <trkpt lat="42.83399" lon="-0.43581">
        <ele>2055.4</ele>
        <time>2021-08-10 13:32:31</time>
      </trkpt>
      <trkpt lat="42.83399" lon="-0.4358">
        <ele>2055</ele>
        <time>2021-08-10 13:32:32</time>
      </trkpt>
      <trkpt lat="42.83399" lon="-0.43579">
        <ele>2055.4</ele>
        <time>2021-08-10 13:32:33</time>
      </trkpt>
      <trkpt lat="42.83399" lon="-0.43579">
        <ele>2055.8</ele>
        <time>2021-08-10 13:32:34</time>
      </trkpt>
      <trkpt lat="42.83398" lon="-0.43578">
        <ele>2056</ele>
        <time>2021-08-10 13:32:35</time>
      </trkpt>
      <trkpt lat="42.83398" lon="-0.43576">
        <ele>2056</ele>
        <time>2021-08-10 13:32:36</time>
      </trkpt>
      <trkpt lat="42.83398" lon="-0.43575">
        <ele>2056.2</ele>
        <time>2021-08-10 13:32:37</time>
      </trkpt>
      <trkpt lat="42.83398" lon="-0.43574">
        <ele>2056.4</ele>
        <time>2021-08-10 13:32:38</time>
      </trkpt>
      <trkpt lat="42.83398" lon="-0.43574">
        <ele>2056.4</ele>
        <time>2021-08-10 13:32:39</time>
      </trkpt>
      <trkpt lat="42.83399" lon="-0.43573">
        <ele>2056.4</ele>
        <time>2021-08-10 13:32:40</time>
      </trkpt>
      <trkpt lat="42.83399" lon="-0.43572">
        <ele>2056.2</ele>
        <time>2021-08-10 13:32:41</time>
      </trkpt>
      <trkpt lat="42.83399" lon="-0.43571">
        <ele>2056.8</ele>
        <time>2021-08-10 13:32:42</time>
      </trkpt>
      <trkpt lat="42.83399" lon="-0.43571">
        <ele>2057</ele>
        <time>2021-08-10 13:32:43</time>
      </trkpt>
      <trkpt lat="42.83399" lon="-0.43571">
        <ele>2057.4</ele>
        <time>2021-08-10 13:32:51</time>
      </trkpt>
      <trkpt lat="42.83399" lon="-0.4357">
        <ele>2057.2</ele>
        <time>2021-08-10 13:32:52</time>
      </trkpt>
      <trkpt lat="42.83399" lon="-0.43569">
        <ele>2057.6</ele>
        <time>2021-08-10 13:32:53</time>
      </trkpt>
      <trkpt lat="42.83399" lon="-0.43568">
        <ele>2057.6</ele>
        <time>2021-08-10 13:32:54</time>
      </trkpt>
      <trkpt lat="42.83399" lon="-0.43567">
        <ele>2057.6</ele>
        <time>2021-08-10 13:32:55</time>
      </trkpt>
      <trkpt lat="42.83399" lon="-0.43566">
        <ele>2058.2</ele>
        <time>2021-08-10 13:32:56</time>
      </trkpt>
      <trkpt lat="42.83399" lon="-0.43564">
        <ele>2058.4</ele>
        <time>2021-08-10 13:32:57</time>
      </trkpt>
      <trkpt lat="42.83399" lon="-0.43564">
        <ele>2058.4</ele>
        <time>2021-08-10 13:32:58</time>
      </trkpt>
      <trkpt lat="42.834" lon="-0.43564">
        <ele>2058.6</ele>
        <time>2021-08-10 13:32:59</time>
      </trkpt>
      <trkpt lat="42.83401" lon="-0.43564">
        <ele>2058.8</ele>
        <time>2021-08-10 13:33:00</time>
      </trkpt>
      <trkpt lat="42.83401" lon="-0.43563">
        <ele>2059</ele>
        <time>2021-08-10 13:33:01</time>
      </trkpt>
      <trkpt lat="42.83402" lon="-0.43562">
        <ele>2059.2</ele>
        <time>2021-08-10 13:33:02</time>
      </trkpt>
      <trkpt lat="42.83402" lon="-0.43562">
        <ele>2059.4</ele>
        <time>2021-08-10 13:33:03</time>
      </trkpt>
      <trkpt lat="42.83402" lon="-0.43561">
        <ele>2059.6</ele>
        <time>2021-08-10 13:33:04</time>
      </trkpt>
      <trkpt lat="42.83402" lon="-0.43559">
        <ele>2060</ele>
        <time>2021-08-10 13:33:05</time>
      </trkpt>
      <trkpt lat="42.83402" lon="-0.43558">
        <ele>2060</ele>
        <time>2021-08-10 13:33:06</time>
      </trkpt>
      <trkpt lat="42.83402" lon="-0.43558">
        <ele>2060</ele>
        <time>2021-08-10 13:33:07</time>
      </trkpt>
      <trkpt lat="42.83401" lon="-0.43557">
        <ele>2060</ele>
        <time>2021-08-10 13:33:08</time>
      </trkpt>
      <trkpt lat="42.83401" lon="-0.43556">
        <ele>2060</ele>
        <time>2021-08-10 13:33:09</time>
      </trkpt>
      <trkpt lat="42.83401" lon="-0.43555">
        <ele>2059.8</ele>
        <time>2021-08-10 13:33:10</time>
      </trkpt>
      <trkpt lat="42.83401" lon="-0.43555">
        <ele>2060</ele>
        <time>2021-08-10 13:33:11</time>
      </trkpt>
      <trkpt lat="42.83401" lon="-0.43555">
        <ele>2060</ele>
        <time>2021-08-10 13:33:12</time>
      </trkpt>
      <trkpt lat="42.834" lon="-0.43555">
        <ele>2060</ele>
        <time>2021-08-10 13:33:13</time>
      </trkpt>
      <trkpt lat="42.834" lon="-0.43555">
        <ele>2060</ele>
        <time>2021-08-10 13:33:14</time>
      </trkpt>
      <trkpt lat="42.834" lon="-0.43555">
        <ele>2060</ele>
        <time>2021-08-10 13:33:15</time>
      </trkpt>
      <trkpt lat="42.834" lon="-0.43555">
        <ele>2060</ele>
        <time>2021-08-10 13:33:16</time>
      </trkpt>
      <trkpt lat="42.83399" lon="-0.43556">
        <ele>2060</ele>
        <time>2021-08-10 13:33:17</time>
      </trkpt>
      <trkpt lat="42.83399" lon="-0.43556">
        <ele>2059.8</ele>
        <time>2021-08-10 13:33:18</time>
      </trkpt>
      <trkpt lat="42.83399" lon="-0.43556">
        <ele>2059.8</ele>
        <time>2021-08-10 13:33:19</time>
      </trkpt>
      <trkpt lat="42.83399" lon="-0.43555">
        <ele>2060</ele>
        <time>2021-08-10 13:33:20</time>
      </trkpt>
      <trkpt lat="42.83398" lon="-0.43555">
        <ele>2059.8</ele>
        <time>2021-08-10 13:33:21</time>
      </trkpt>
      <trkpt lat="42.83398" lon="-0.43555">
        <ele>2060</ele>
        <time>2021-08-10 13:33:22</time>
      </trkpt>
      <trkpt lat="42.83398" lon="-0.43556">
        <ele>2059.8</ele>
        <time>2021-08-10 13:33:23</time>
      </trkpt>
      <trkpt lat="42.83398" lon="-0.43555">
        <ele>2059.8</ele>
        <time>2021-08-10 13:33:24</time>
      </trkpt>
      <trkpt lat="42.83398" lon="-0.43556">
        <ele>2059.8</ele>
        <time>2021-08-10 13:33:25</time>
      </trkpt>
      <trkpt lat="42.83399" lon="-0.43555">
        <ele>2059.8</ele>
        <time>2021-08-10 13:33:26</time>
      </trkpt>
      <trkpt lat="42.83399" lon="-0.43555">
        <ele>2059.8</ele>
        <time>2021-08-10 13:33:27</time>
      </trkpt>
      <trkpt lat="42.83399" lon="-0.43554">
        <ele>2059.8</ele>
        <time>2021-08-10 13:33:28</time>
      </trkpt>
      <trkpt lat="42.83399" lon="-0.43554">
        <ele>2060.2</ele>
        <time>2021-08-10 13:33:29</time>
      </trkpt>
      <trkpt lat="42.83399" lon="-0.43553">
        <ele>2060.2</ele>
        <time>2021-08-10 13:33:30</time>
      </trkpt>
      <trkpt lat="42.83398" lon="-0.43552">
        <ele>2060.2</ele>
        <time>2021-08-10 13:33:31</time>
      </trkpt>
      <trkpt lat="42.83398" lon="-0.43551">
        <ele>2060.2</ele>
        <time>2021-08-10 13:33:32</time>
      </trkpt>
      <trkpt lat="42.83398" lon="-0.43549">
        <ele>2060.2</ele>
        <time>2021-08-10 13:33:33</time>
      </trkpt>
      <trkpt lat="42.83398" lon="-0.43548">
        <ele>2060.2</ele>
        <time>2021-08-10 13:33:34</time>
      </trkpt>
      <trkpt lat="42.83398" lon="-0.43547">
        <ele>2060.2</ele>
        <time>2021-08-10 13:33:35</time>
      </trkpt>
      <trkpt lat="42.83398" lon="-0.43545">
        <ele>2060.4</ele>
        <time>2021-08-10 13:33:36</time>
      </trkpt>
      <trkpt lat="42.83399" lon="-0.43544">
        <ele>2060.6</ele>
        <time>2021-08-10 13:33:37</time>
      </trkpt>
      <trkpt lat="42.83399" lon="-0.43543">
        <ele>2060.6</ele>
        <time>2021-08-10 13:33:38</time>
      </trkpt>
      <trkpt lat="42.83398" lon="-0.43543">
        <ele>2060.6</ele>
        <time>2021-08-10 13:33:39</time>
      </trkpt>
      <trkpt lat="42.83398" lon="-0.43541">
        <ele>2060.4</ele>
        <time>2021-08-10 13:33:40</time>
      </trkpt>
      <trkpt lat="42.83398" lon="-0.4354">
        <ele>2060.4</ele>
        <time>2021-08-10 13:33:41</time>
      </trkpt>
      <trkpt lat="42.83398" lon="-0.43539">
        <ele>2059.6</ele>
        <time>2021-08-10 13:33:42</time>
      </trkpt>
      <trkpt lat="42.83397" lon="-0.43538">
        <ele>2060.2</ele>
        <time>2021-08-10 13:33:43</time>
      </trkpt>
      <trkpt lat="42.83396" lon="-0.43537">
        <ele>2060.2</ele>
        <time>2021-08-10 13:33:44</time>
      </trkpt>
      <trkpt lat="42.83396" lon="-0.43536">
        <ele>2060.4</ele>
        <time>2021-08-10 13:33:45</time>
      </trkpt>
      <trkpt lat="42.83396" lon="-0.43536">
        <ele>2060.4</ele>
        <time>2021-08-10 13:33:46</time>
      </trkpt>
      <trkpt lat="42.83396" lon="-0.43535">
        <ele>2060</ele>
        <time>2021-08-10 13:33:47</time>
      </trkpt>
      <trkpt lat="42.83396" lon="-0.43533">
        <ele>2060.2</ele>
        <time>2021-08-10 13:33:48</time>
      </trkpt>
      <trkpt lat="42.83395" lon="-0.43532">
        <ele>2060.8</ele>
        <time>2021-08-10 13:33:52</time>
      </trkpt>
      <trkpt lat="42.83395" lon="-0.43531">
        <ele>2061.8</ele>
        <time>2021-08-10 13:33:53</time>
      </trkpt>
      <trkpt lat="42.83395" lon="-0.4353">
        <ele>2062</ele>
        <time>2021-08-10 13:33:54</time>
      </trkpt>
      <trkpt lat="42.83395" lon="-0.43529">
        <ele>2062</ele>
        <time>2021-08-10 13:33:58</time>
      </trkpt>
      <trkpt lat="42.83395" lon="-0.43528">
        <ele>2062</ele>
        <time>2021-08-10 13:33:59</time>
      </trkpt>
      <trkpt lat="42.83395" lon="-0.43528">
        <ele>2062.2</ele>
      </trkpt>
      <trkpt lat="42.83396" lon="-0.43527">
        <ele>2062</ele>
        <time>2021-08-10 13:34:02</time>
      </trkpt>
      <trkpt lat="42.83396" lon="-0.43526">
        <ele>2061.8</ele>
      </trkpt>
      <trkpt lat="42.83396" lon="-0.43526">
        <ele>2061.8</ele>
        <time>2021-08-10 13:34:03</time>
      </trkpt>
      <trkpt lat="42.83397" lon="-0.43526">
        <ele>2061.8</ele>
        <time>2021-08-10 13:34:04</time>
      </trkpt>
      <trkpt lat="42.83397" lon="-0.43526">
        <ele>2062</ele>
        <time>2021-08-10 13:34:05</time>
      </trkpt>
      <trkpt lat="42.83397" lon="-0.43525">
        <ele>2061.8</ele>
        <time>2021-08-10 13:34:06</time>
      </trkpt>
      <trkpt lat="42.83397" lon="-0.43525">
        <ele>2061.6</ele>
        <time>2021-08-10 13:34:44</time>
      </trkpt>
      <trkpt lat="42.83397" lon="-0.43526">
        <ele>2061.4</ele>
        <time>2021-08-10 13:34:45</time>
      </trkpt>
      <trkpt lat="42.83397" lon="-0.43526">
        <ele>2061.4</ele>
        <time>2021-08-10 13:34:46</time>
      </trkpt>
      <trkpt lat="42.83397" lon="-0.43525">
        <ele>2061.6</ele>
        <time>2021-08-10 13:34:47</time>
      </trkpt>
      <trkpt lat="42.83398" lon="-0.43521">
        <ele>2061.6</ele>
        <time>2021-08-10 13:34:48</time>
      </trkpt>
      <trkpt lat="42.83398" lon="-0.43521">
        <ele>2061.4</ele>
        <time>2021-08-10 13:34:49</time>
      </trkpt>
      <trkpt lat="42.83398" lon="-0.4352">
        <ele>2061</ele>
        <time>2021-08-10 13:34:50</time>
      </trkpt>
      <trkpt lat="42.83399" lon="-0.43519">
        <ele>2060.6</ele>
        <time>2021-08-10 13:34:51</time>
      </trkpt>
      <trkpt lat="42.83399" lon="-0.43519">
        <ele>2060.6</ele>
        <time>2021-08-10 13:35:26</time>
      </trkpt>
      <trkpt lat="42.83399" lon="-0.43519">
        <ele>2060.8</ele>
        <time>2021-08-10 13:35:27</time>
      </trkpt>
      <trkpt lat="42.83399" lon="-0.43518">
        <ele>2061</ele>
        <time>2021-08-10 13:35:28</time>
      </trkpt>
      <trkpt lat="42.83399" lon="-0.43518">
        <ele>2061</ele>
        <time>2021-08-10 13:35:29</time>
      </trkpt>
      <trkpt lat="42.83398" lon="-0.43519">
        <ele>2060.8</ele>
        <time>2021-08-10 13:35:30</time>
      </trkpt>
      <trkpt lat="42.83398" lon="-0.43519">
        <ele>2060.8</ele>
        <time>2021-08-10 13:35:31</time>
      </trkpt>
      <trkpt lat="42.83397" lon="-0.43518">
        <ele>2060.6</ele>
        <time>2021-08-10 13:35:32</time>
      </trkpt>
      <trkpt lat="42.83396" lon="-0.43518">
        <ele>2060.6</ele>
        <time>2021-08-10 13:35:33</time>
      </trkpt>
      <trkpt lat="42.83396" lon="-0.43518">
        <ele>2060.6</ele>
        <time>2021-08-10 13:35:34</time>
      </trkpt>
      <trkpt lat="42.83395" lon="-0.43519">
        <ele>2060.4</ele>
        <time>2021-08-10 13:35:35</time>
      </trkpt>
      <trkpt lat="42.83395" lon="-0.43518">
        <ele>2060.2</ele>
        <time>2021-08-10 13:35:36</time>
      </trkpt>
      <trkpt lat="42.83394" lon="-0.43518">
        <ele>2060</ele>
        <time>2021-08-10 13:35:37</time>
      </trkpt>
      <trkpt lat="42.83394" lon="-0.43518">
        <ele>2060</ele>
        <time>2021-08-10 13:35:38</time>
      </trkpt>
      <trkpt lat="42.83393" lon="-0.43519">
        <ele>2059.8</ele>
        <time>2021-08-10 13:35:39</time>
      </trkpt>
      <trkpt lat="42.83393" lon="-0.43519">
        <ele>2059.4</ele>
        <time>2021-08-10 13:35:40</time>
      </trkpt>
      <trkpt lat="42.83392" lon="-0.43519">
        <ele>2059</ele>
        <time>2021-08-10 13:35:41</time>
      </trkpt>
      <trkpt lat="42.83392" lon="-0.43519">
        <ele>2058.8</ele>
        <time>2021-08-10 13:35:42</time>
      </trkpt>
      <trkpt lat="42.83392" lon="-0.43519">
        <ele>2058.6</ele>
        <time>2021-08-10 13:35:43</time>
      </trkpt>
      <trkpt lat="42.83391" lon="-0.43519">
        <ele>2058.6</ele>
        <time>2021-08-10 13:35:44</time>
      </trkpt>
      <trkpt lat="42.83391" lon="-0.43519">
        <ele>2058.4</ele>
        <time>2021-08-10 13:35:45</time>
      </trkpt>
      <trkpt lat="42.8339" lon="-0.43518">
        <ele>2058.4</ele>
        <time>2021-08-10 13:35:46</time>
      </trkpt>
      <trkpt lat="42.8339" lon="-0.43518">
        <ele>2058.2</ele>
        <time>2021-08-10 13:35:47</time>
      </trkpt>
      <trkpt lat="42.83389" lon="-0.43518">
        <ele>2058.2</ele>
        <time>2021-08-10 13:35:48</time>
      </trkpt>
      <trkpt lat="42.83389" lon="-0.43517">
        <ele>2058.4</ele>
        <time>2021-08-10 13:35:49</time>
      </trkpt>
      <trkpt lat="42.83389" lon="-0.43517">
        <ele>2058.6</ele>
        <time>2021-08-10 13:35:50</time>
      </trkpt>
      <trkpt lat="42.83388" lon="-0.43517">
        <ele>2058.6</ele>
        <time>2021-08-10 13:35:51</time>
      </trkpt>
      <trkpt lat="42.83388" lon="-0.43517">
        <ele>2058.4</ele>
        <time>2021-08-10 13:35:52</time>
      </trkpt>
      <trkpt lat="42.83387" lon="-0.43517">
        <ele>2058</ele>
        <time>2021-08-10 13:35:53</time>
      </trkpt>
      <trkpt lat="42.83386" lon="-0.43517">
        <ele>2057.8</ele>
        <time>2021-08-10 13:35:54</time>
      </trkpt>
      <trkpt lat="42.83385" lon="-0.43517">
        <ele>2057.2</ele>
        <time>2021-08-10 13:35:55</time>
      </trkpt>
      <trkpt lat="42.83385" lon="-0.43516">
        <ele>2056.8</ele>
        <time>2021-08-10 13:35:56</time>
      </trkpt>
      <trkpt lat="42.83384" lon="-0.43515">
        <ele>2056.6</ele>
        <time>2021-08-10 13:35:57</time>
      </trkpt>
      <trkpt lat="42.83384" lon="-0.43515">
        <ele>2056.6</ele>
        <time>2021-08-10 13:35:58</time>
      </trkpt>
      <trkpt lat="42.83384" lon="-0.43515">
        <ele>2056.6</ele>
        <time>2021-08-10 13:35:59</time>
      </trkpt>
      <trkpt lat="42.83383" lon="-0.43516">
        <ele>2056.4</ele>
        <time>2021-08-10 13:36:00</time>
      </trkpt>
      <trkpt lat="42.83383" lon="-0.43517">
        <ele>2056.2</ele>
        <time>2021-08-10 13:36:01</time>
      </trkpt>
      <trkpt lat="42.83382" lon="-0.43517">
        <ele>2056</ele>
        <time>2021-08-10 13:36:02</time>
      </trkpt>
      <trkpt lat="42.83382" lon="-0.43518">
        <ele>2056</ele>
        <time>2021-08-10 13:36:03</time>
      </trkpt>
      <trkpt lat="42.83382" lon="-0.43518">
        <ele>2055.8</ele>
        <time>2021-08-10 13:36:04</time>
      </trkpt>
      <trkpt lat="42.83381" lon="-0.43518">
        <ele>2055.8</ele>
        <time>2021-08-10 13:36:05</time>
      </trkpt>
      <trkpt lat="42.83381" lon="-0.43518">
        <ele>2055.6</ele>
        <time>2021-08-10 13:36:06</time>
      </trkpt>
      <trkpt lat="42.8338" lon="-0.43518">
        <ele>2055.4</ele>
        <time>2021-08-10 13:36:07</time>
      </trkpt>
      <trkpt lat="42.8338" lon="-0.43518">
        <ele>2055.4</ele>
        <time>2021-08-10 13:36:08</time>
      </trkpt>
      <trkpt lat="42.83379" lon="-0.43517">
        <ele>2055.2</ele>
        <time>2021-08-10 13:36:09</time>
      </trkpt>
      <trkpt lat="42.83379" lon="-0.43516">
        <ele>2055</ele>
        <time>2021-08-10 13:36:10</time>
      </trkpt>
      <trkpt lat="42.83379" lon="-0.43515">
        <ele>2054.8</ele>
        <time>2021-08-10 13:36:11</time>
      </trkpt>
      <trkpt lat="42.83379" lon="-0.43515">
        <ele>2054.8</ele>
        <time>2021-08-10 13:36:12</time>
      </trkpt>
      <trkpt lat="42.83379" lon="-0.43514">
        <ele>2054.6</ele>
        <time>2021-08-10 13:36:13</time>
      </trkpt>
      <trkpt lat="42.83379" lon="-0.43514">
        <ele>2054.6</ele>
        <time>2021-08-10 13:36:14</time>
      </trkpt>
      <trkpt lat="42.83379" lon="-0.43513">
        <ele>2054.6</ele>
        <time>2021-08-10 13:36:15</time>
      </trkpt>
      <trkpt lat="42.8338" lon="-0.43513">
        <ele>2054.2</ele>
        <time>2021-08-10 13:36:16</time>
      </trkpt>
      <trkpt lat="42.83379" lon="-0.43513">
        <ele>2054.2</ele>
        <time>2021-08-10 13:36:17</time>
      </trkpt>
      <trkpt lat="42.83379" lon="-0.43512">
        <ele>2054</ele>
        <time>2021-08-10 13:36:18</time>
      </trkpt>
      <trkpt lat="42.83379" lon="-0.43512">
        <ele>2053.8</ele>
        <time>2021-08-10 13:36:19</time>
      </trkpt>
      <trkpt lat="42.83379" lon="-0.43511">
        <ele>2053.8</ele>
        <time>2021-08-10 13:36:20</time>
      </trkpt>
      <trkpt lat="42.83379" lon="-0.4351">
        <ele>2053.6</ele>
        <time>2021-08-10 13:36:21</time>
      </trkpt>
      <trkpt lat="42.83379" lon="-0.4351">
        <ele>2053.6</ele>
        <time>2021-08-10 13:36:22</time>
      </trkpt>
      <trkpt lat="42.83379" lon="-0.43509">
        <ele>2053.4</ele>
        <time>2021-08-10 13:36:23</time>
      </trkpt>
      <trkpt lat="42.83379" lon="-0.43509">
        <ele>2053</ele>
        <time>2021-08-10 13:36:24</time>
      </trkpt>
      <trkpt lat="42.83379" lon="-0.43508">
        <ele>2052.8</ele>
        <time>2021-08-10 13:36:25</time>
      </trkpt>
      <trkpt lat="42.83379" lon="-0.43508">
        <ele>2052.6</ele>
        <time>2021-08-10 13:36:26</time>
      </trkpt>
      <trkpt lat="42.83379" lon="-0.43507">
        <ele>2052.4</ele>
        <time>2021-08-10 13:36:27</time>
      </trkpt>
      <trkpt lat="42.83379" lon="-0.43506">
        <ele>2052.4</ele>
        <time>2021-08-10 13:36:28</time>
      </trkpt>
      <trkpt lat="42.83379" lon="-0.43505">
        <ele>2052</ele>
        <time>2021-08-10 13:36:29</time>
      </trkpt>
      <trkpt lat="42.83378" lon="-0.43505">
        <ele>2051.8</ele>
        <time>2021-08-10 13:36:31</time>
      </trkpt>
      <trkpt lat="42.83378" lon="-0.43504">
        <ele>2051.8</ele>
        <time>2021-08-10 13:36:32</time>
      </trkpt>
      <trkpt lat="42.83378" lon="-0.43504">
        <ele>2051.8</ele>
        <time>2021-08-10 13:36:33</time>
      </trkpt>
      <trkpt lat="42.83378" lon="-0.43504">
        <ele>2051.4</ele>
        <time>2021-08-10 13:36:34</time>
      </trkpt>
      <trkpt lat="42.83379" lon="-0.43504">
        <ele>2051.4</ele>
        <time>2021-08-10 13:36:35</time>
      </trkpt>
      <trkpt lat="42.83379" lon="-0.43504">
        <ele>2051.2</ele>
        <time>2021-08-10 13:36:36</time>
      </trkpt>
      <trkpt lat="42.83379" lon="-0.43503">
        <ele>2051</ele>
        <time>2021-08-10 13:36:52</time>
      </trkpt>
      <trkpt lat="42.83379" lon="-0.43503">
        <ele>2051.2</ele>
        <time>2021-08-10 13:36:53</time>
      </trkpt>
      <trkpt lat="42.83378" lon="-0.43503">
        <ele>2051</ele>
        <time>2021-08-10 13:36:54</time>
      </trkpt>
      <trkpt lat="42.83378" lon="-0.43502">
        <ele>2051</ele>
        <time>2021-08-10 13:36:55</time>
      </trkpt>
      <trkpt lat="42.83378" lon="-0.43502">
        <ele>2050.6</ele>
        <time>2021-08-10 13:36:56</time>
      </trkpt>
      <trkpt lat="42.83378" lon="-0.43501">
        <ele>2050.4</ele>
        <time>2021-08-10 13:36:57</time>
      </trkpt>
      <trkpt lat="42.83378" lon="-0.43501">
        <ele>2050.2</ele>
        <time>2021-08-10 13:37:00</time>
      </trkpt>
      <trkpt lat="42.83378" lon="-0.435">
        <ele>2050.4</ele>
        <time>2021-08-10 13:37:01</time>
      </trkpt>
      <trkpt lat="42.83379" lon="-0.43499">
        <ele>2050.2</ele>
        <time>2021-08-10 13:37:02</time>
      </trkpt>
      <trkpt lat="42.83379" lon="-0.43499">
        <ele>2050</ele>
        <time>2021-08-10 13:37:03</time>
      </trkpt>
      <trkpt lat="42.83379" lon="-0.43498">
        <ele>2049.6</ele>
        <time>2021-08-10 13:37:04</time>
      </trkpt>
      <trkpt lat="42.83379" lon="-0.43497">
        <ele>2049.6</ele>
        <time>2021-08-10 13:37:05</time>
      </trkpt>
      <trkpt lat="42.83378" lon="-0.43497">
        <ele>2049.6</ele>
        <time>2021-08-10 13:37:06</time>
      </trkpt>
      <trkpt lat="42.83378" lon="-0.43496">
        <ele>2049.6</ele>
        <time>2021-08-10 13:37:07</time>
      </trkpt>
      <trkpt lat="42.83378" lon="-0.43495">
        <ele>2049.4</ele>
        <time>2021-08-10 13:37:08</time>
      </trkpt>
      <trkpt lat="42.83378" lon="-0.43495">
        <ele>2049</ele>
        <time>2021-08-10 13:37:09</time>
      </trkpt>
      <trkpt lat="42.83377" lon="-0.43494">
        <ele>2049</ele>
        <time>2021-08-10 13:37:10</time>
      </trkpt>
      <trkpt lat="42.83377" lon="-0.43494">
        <ele>2048.8</ele>
        <time>2021-08-10 13:37:11</time>
      </trkpt>
      <trkpt lat="42.83377" lon="-0.43493">
        <ele>2048.6</ele>
        <time>2021-08-10 13:37:12</time>
      </trkpt>
      <trkpt lat="42.83376" lon="-0.43492">
        <ele>2048.4</ele>
        <time>2021-08-10 13:37:13</time>
      </trkpt>
      <trkpt lat="42.83376" lon="-0.43492">
        <ele>2047.8</ele>
        <time>2021-08-10 13:37:14</time>
      </trkpt>
      <trkpt lat="42.83376" lon="-0.43491">
        <ele>2047.6</ele>
        <time>2021-08-10 13:37:15</time>
      </trkpt>
      <trkpt lat="42.83375" lon="-0.4349">
        <ele>2047.4</ele>
        <time>2021-08-10 13:37:16</time>
      </trkpt>
      <trkpt lat="42.83375" lon="-0.4349">
        <ele>2047.4</ele>
        <time>2021-08-10 13:37:17</time>
      </trkpt>
      <trkpt lat="42.83375" lon="-0.43489">
        <ele>2047.2</ele>
        <time>2021-08-10 13:37:18</time>
      </trkpt>
      <trkpt lat="42.83375" lon="-0.43489">
        <ele>2047.2</ele>
        <time>2021-08-10 13:37:19</time>
      </trkpt>
      <trkpt lat="42.83375" lon="-0.43488">
        <ele>2046.6</ele>
        <time>2021-08-10 13:37:20</time>
      </trkpt>
      <trkpt lat="42.83375" lon="-0.43487">
        <ele>2046.4</ele>
        <time>2021-08-10 13:37:21</time>
      </trkpt>
      <trkpt lat="42.83374" lon="-0.43486">
        <ele>2046.2</ele>
        <time>2021-08-10 13:37:22</time>
      </trkpt>
      <trkpt lat="42.83374" lon="-0.43485">
        <ele>2046.2</ele>
        <time>2021-08-10 13:37:23</time>
      </trkpt>
      <trkpt lat="42.83374" lon="-0.43484">
        <ele>2045.8</ele>
        <time>2021-08-10 13:37:24</time>
      </trkpt>
      <trkpt lat="42.83373" lon="-0.43483">
        <ele>2045.8</ele>
        <time>2021-08-10 13:37:25</time>
      </trkpt>
      <trkpt lat="42.83373" lon="-0.43482">
        <ele>2045.6</ele>
        <time>2021-08-10 13:37:26</time>
      </trkpt>
      <trkpt lat="42.83373" lon="-0.43481">
        <ele>2045.4</ele>
        <time>2021-08-10 13:37:27</time>
      </trkpt>
      <trkpt lat="42.83373" lon="-0.4348">
        <ele>2045.4</ele>
        <time>2021-08-10 13:37:28</time>
      </trkpt>
      <trkpt lat="42.83372" lon="-0.43479">
        <ele>2045.4</ele>
        <time>2021-08-10 13:37:29</time>
      </trkpt>
      <trkpt lat="42.83372" lon="-0.43478">
        <ele>2045.2</ele>
        <time>2021-08-10 13:37:30</time>
      </trkpt>
      <trkpt lat="42.83372" lon="-0.43476">
        <ele>2045</ele>
        <time>2021-08-10 13:37:31</time>
      </trkpt>
      <trkpt lat="42.83372" lon="-0.43475">
        <ele>2045</ele>
        <time>2021-08-10 13:37:32</time>
      </trkpt>
      <trkpt lat="42.83372" lon="-0.43475">
        <ele>2044.8</ele>
        <time>2021-08-10 13:37:33</time>
      </trkpt>
      <trkpt lat="42.83372" lon="-0.43474">
        <ele>2044.8</ele>
        <time>2021-08-10 13:37:34</time>
      </trkpt>
      <trkpt lat="42.83372" lon="-0.43473">
        <ele>2044.4</ele>
        <time>2021-08-10 13:37:35</time>
      </trkpt>
      <trkpt lat="42.83372" lon="-0.43472">
        <ele>2044.6</ele>
        <time>2021-08-10 13:37:36</time>
      </trkpt>
      <trkpt lat="42.83372" lon="-0.43472">
        <ele>2044.4</ele>
        <time>2021-08-10 13:37:37</time>
      </trkpt>
      <trkpt lat="42.83373" lon="-0.43471">
        <ele>2044.4</ele>
        <time>2021-08-10 13:37:38</time>
      </trkpt>
      <trkpt lat="42.83373" lon="-0.4347">
        <ele>2044.2</ele>
        <time>2021-08-10 13:37:39</time>
      </trkpt>
      <trkpt lat="42.83373" lon="-0.4347">
        <ele>2044.2</ele>
        <time>2021-08-10 13:37:40</time>
      </trkpt>
      <trkpt lat="42.83372" lon="-0.43469">
        <ele>2044</ele>
        <time>2021-08-10 13:37:41</time>
      </trkpt>
      <trkpt lat="42.83372" lon="-0.43469">
        <ele>2043.8</ele>
        <time>2021-08-10 13:38:01</time>
      </trkpt>
      <trkpt lat="42.83372" lon="-0.43468">
        <ele>2043.6</ele>
        <time>2021-08-10 13:38:02</time>
      </trkpt>
      <trkpt lat="42.8337" lon="-0.43466">
        <ele>2043.4</ele>
        <time>2021-08-10 13:38:03</time>
      </trkpt>
      <trkpt lat="42.8337" lon="-0.43466">
        <ele>2043.2</ele>
        <time>2021-08-10 13:38:04</time>
      </trkpt>
      <trkpt lat="42.83369" lon="-0.43465">
        <ele>2043</ele>
        <time>2021-08-10 13:38:05</time>
      </trkpt>
      <trkpt lat="42.83369" lon="-0.43465">
        <ele>2043</ele>
        <time>2021-08-10 13:38:06</time>
      </trkpt>
      <trkpt lat="42.83368" lon="-0.43464">
        <ele>2043</ele>
        <time>2021-08-10 13:38:07</time>
      </trkpt>
      <trkpt lat="42.83368" lon="-0.43463">
        <ele>2042.8</ele>
        <time>2021-08-10 13:38:08</time>
      </trkpt>
      <trkpt lat="42.83367" lon="-0.43463">
        <ele>2042.6</ele>
        <time>2021-08-10 13:38:09</time>
      </trkpt>
      <trkpt lat="42.83366" lon="-0.43462">
        <ele>2042.4</ele>
        <time>2021-08-10 13:38:10</time>
      </trkpt>
      <trkpt lat="42.83366" lon="-0.43461">
        <ele>2042.4</ele>
        <time>2021-08-10 13:38:11</time>
      </trkpt>
      <trkpt lat="42.83365" lon="-0.43461">
        <ele>2041.8</ele>
        <time>2021-08-10 13:38:12</time>
      </trkpt>
      <trkpt lat="42.83365" lon="-0.4346">
        <ele>2041.6</ele>
        <time>2021-08-10 13:38:13</time>
      </trkpt>
      <trkpt lat="42.83364" lon="-0.43459">
        <ele>2041.8</ele>
        <time>2021-08-10 13:38:14</time>
      </trkpt>
      <trkpt lat="42.83363" lon="-0.43458">
        <ele>2041.8</ele>
        <time>2021-08-10 13:38:15</time>
      </trkpt>
      <trkpt lat="42.83362" lon="-0.43459">
        <ele>2041.6</ele>
        <time>2021-08-10 13:38:16</time>
      </trkpt>
      <trkpt lat="42.83361" lon="-0.43459">
        <ele>2041.4</ele>
        <time>2021-08-10 13:38:17</time>
      </trkpt>
      <trkpt lat="42.83361" lon="-0.43459">
        <ele>2041.4</ele>
        <time>2021-08-10 13:38:18</time>
      </trkpt>
      <trkpt lat="42.8336" lon="-0.43458">
        <ele>2041.4</ele>
        <time>2021-08-10 13:38:19</time>
      </trkpt>
      <trkpt lat="42.8336" lon="-0.43458">
        <ele>2041.4</ele>
        <time>2021-08-10 13:38:20</time>
      </trkpt>
      <trkpt lat="42.8336" lon="-0.43457">
        <ele>2041.2</ele>
        <time>2021-08-10 13:38:21</time>
      </trkpt>
      <trkpt lat="42.83359" lon="-0.43457">
        <ele>2041</ele>
        <time>2021-08-10 13:38:22</time>
      </trkpt>
      <trkpt lat="42.8336" lon="-0.43456">
        <ele>2041</ele>
        <time>2021-08-10 13:38:23</time>
      </trkpt>
      <trkpt lat="42.8336" lon="-0.43456">
        <ele>2040.8</ele>
        <time>2021-08-10 13:38:24</time>
      </trkpt>
      <trkpt lat="42.8336" lon="-0.43455">
        <ele>2040.4</ele>
        <time>2021-08-10 13:38:25</time>
      </trkpt>
      <trkpt lat="42.8336" lon="-0.43455">
        <ele>2040.4</ele>
        <time>2021-08-10 13:38:26</time>
      </trkpt>
      <trkpt lat="42.8336" lon="-0.43454">
        <ele>2040</ele>
        <time>2021-08-10 13:38:27</time>
      </trkpt>
      <trkpt lat="42.8336" lon="-0.43453">
        <ele>2039.8</ele>
        <time>2021-08-10 13:38:28</time>
      </trkpt>
      <trkpt lat="42.83359" lon="-0.43452">
        <ele>2039.4</ele>
        <time>2021-08-10 13:38:29</time>
      </trkpt>
      <trkpt lat="42.83359" lon="-0.43452">
        <ele>2039.4</ele>
        <time>2021-08-10 13:38:30</time>
      </trkpt>
      <trkpt lat="42.83359" lon="-0.43451">
        <ele>2039</ele>
        <time>2021-08-10 13:38:31</time>
      </trkpt>
      <trkpt lat="42.83359" lon="-0.43451">
        <ele>2038.8</ele>
        <time>2021-08-10 13:38:32</time>
      </trkpt>
      <trkpt lat="42.8336" lon="-0.4345">
        <ele>2038.8</ele>
        <time>2021-08-10 13:38:33</time>
      </trkpt>
      <trkpt lat="42.83359" lon="-0.4345">
        <ele>2039</ele>
        <time>2021-08-10 13:38:34</time>
      </trkpt>
      <trkpt lat="42.8336" lon="-0.43449">
        <ele>2038.6</ele>
        <time>2021-08-10 13:38:35</time>
      </trkpt>
      <trkpt lat="42.83359" lon="-0.43448">
        <ele>2038.2</ele>
        <time>2021-08-10 13:38:36</time>
      </trkpt>
      <trkpt lat="42.83359" lon="-0.43447">
        <ele>2038.2</ele>
        <time>2021-08-10 13:38:37</time>
      </trkpt>
      <trkpt lat="42.8336" lon="-0.43446">
        <ele>2038</ele>
        <time>2021-08-10 13:38:38</time>
      </trkpt>
      <trkpt lat="42.8336" lon="-0.43446">
        <ele>2037.8</ele>
        <time>2021-08-10 13:38:39</time>
      </trkpt>
      <trkpt lat="42.8336" lon="-0.43446">
        <ele>2037.4</ele>
        <time>2021-08-10 13:38:40</time>
      </trkpt>
      <trkpt lat="42.8336" lon="-0.43445">
        <ele>2037.4</ele>
        <time>2021-08-10 13:38:41</time>
      </trkpt>
      <trkpt lat="42.83361" lon="-0.43444">
        <ele>2037.2</ele>
        <time>2021-08-10 13:38:42</time>
      </trkpt>
      <trkpt lat="42.83361" lon="-0.43443">
        <ele>2037.2</ele>
        <time>2021-08-10 13:38:43</time>
      </trkpt>
      <trkpt lat="42.83361" lon="-0.43443">
        <ele>2037</ele>
        <time>2021-08-10 13:38:44</time>
      </trkpt>
      <trkpt lat="42.83361" lon="-0.43442">
        <ele>2036.8</ele>
        <time>2021-08-10 13:38:45</time>
      </trkpt>
      <trkpt lat="42.83361" lon="-0.43441">
        <ele>2036.6</ele>
        <time>2021-08-10 13:38:46</time>
      </trkpt>
      <trkpt lat="42.83362" lon="-0.43441">
        <ele>2036.4</ele>
        <time>2021-08-10 13:38:47</time>
      </trkpt>
      <trkpt lat="42.83362" lon="-0.43441">
        <ele>2036.2</ele>
        <time>2021-08-10 13:38:48</time>
      </trkpt>
      <trkpt lat="42.83362" lon="-0.43439">
        <ele>2036.2</ele>
        <time>2021-08-10 13:38:49</time>
      </trkpt>
      <trkpt lat="42.83362" lon="-0.43439">
        <ele>2036.2</ele>
        <time>2021-08-10 13:38:50</time>
      </trkpt>
      <trkpt lat="42.83362" lon="-0.43439">
        <ele>2036</ele>
        <time>2021-08-10 13:38:51</time>
      </trkpt>
      <trkpt lat="42.83362" lon="-0.43438">
        <ele>2035.8</ele>
        <time>2021-08-10 13:38:52</time>
      </trkpt>
      <trkpt lat="42.83363" lon="-0.43437">
        <ele>2035.6</ele>
        <time>2021-08-10 13:38:53</time>
      </trkpt>
      <trkpt lat="42.83363" lon="-0.43437">
        <ele>2035.2</ele>
        <time>2021-08-10 13:38:54</time>
      </trkpt>
      <trkpt lat="42.83363" lon="-0.43437">
        <ele>2035.4</ele>
        <time>2021-08-10 13:38:55</time>
      </trkpt>
      <trkpt lat="42.83364" lon="-0.43437">
        <ele>2035.2</ele>
        <time>2021-08-10 13:38:56</time>
      </trkpt>
      <trkpt lat="42.83364" lon="-0.43436">
        <ele>2035</ele>
        <time>2021-08-10 13:38:57</time>
      </trkpt>
      <trkpt lat="42.83364" lon="-0.43436">
        <ele>2034.8</ele>
        <time>2021-08-10 13:38:58</time>
      </trkpt>
      <trkpt lat="42.83363" lon="-0.43435">
        <ele>2034.6</ele>
        <time>2021-08-10 13:38:59</time>
      </trkpt>
      <trkpt lat="42.83363" lon="-0.43434">
        <ele>2034.2</ele>
        <time>2021-08-10 13:39:00</time>
      </trkpt>
      <trkpt lat="42.83363" lon="-0.43434">
        <ele>2034</ele>
        <time>2021-08-10 13:39:01</time>
      </trkpt>
      <trkpt lat="42.83362" lon="-0.43433">
        <ele>2033.8</ele>
        <time>2021-08-10 13:39:02</time>
      </trkpt>
      <trkpt lat="42.83362" lon="-0.43433">
        <ele>2033.6</ele>
        <time>2021-08-10 13:39:03</time>
      </trkpt>
      <trkpt lat="42.83363" lon="-0.43432">
        <ele>2033.4</ele>
        <time>2021-08-10 13:39:04</time>
      </trkpt>
      <trkpt lat="42.83364" lon="-0.43432">
        <ele>2033.4</ele>
        <time>2021-08-10 13:39:05</time>
      </trkpt>
      <trkpt lat="42.83365" lon="-0.43432">
        <ele>2033.4</ele>
        <time>2021-08-10 13:39:06</time>
      </trkpt>
      <trkpt lat="42.83365" lon="-0.43432">
        <ele>2033.4</ele>
        <time>2021-08-10 13:39:07</time>
      </trkpt>
      <trkpt lat="42.83366" lon="-0.43432">
        <ele>2033.4</ele>
        <time>2021-08-10 13:39:08</time>
      </trkpt>
      <trkpt lat="42.83367" lon="-0.43432">
        <ele>2033</ele>
        <time>2021-08-10 13:39:09</time>
      </trkpt>
      <trkpt lat="42.83367" lon="-0.43433">
        <ele>2033</ele>
        <time>2021-08-10 13:39:10</time>
      </trkpt>
      <trkpt lat="42.83368" lon="-0.43433">
        <ele>2033</ele>
        <time>2021-08-10 13:39:11</time>
      </trkpt>
      <trkpt lat="42.83369" lon="-0.43433">
        <ele>2032.8</ele>
        <time>2021-08-10 13:39:19</time>
      </trkpt>
      <trkpt lat="42.8337" lon="-0.43432">
        <ele>2032.6</ele>
        <time>2021-08-10 13:39:20</time>
      </trkpt>
      <trkpt lat="42.8337" lon="-0.43431">
        <ele>2032.2</ele>
        <time>2021-08-10 13:39:21</time>
      </trkpt>
      <trkpt lat="42.8337" lon="-0.43431">
        <ele>2032.4</ele>
        <time>2021-08-10 13:39:22</time>
      </trkpt>
      <trkpt lat="42.8337" lon="-0.4343">
        <ele>2032.2</ele>
        <time>2021-08-10 13:39:23</time>
      </trkpt>
      <trkpt lat="42.8337" lon="-0.4343">
        <ele>2032</ele>
        <time>2021-08-10 13:39:24</time>
      </trkpt>
      <trkpt lat="42.83369" lon="-0.43429">
        <ele>2032</ele>
        <time>2021-08-10 13:39:25</time>
      </trkpt>
      <trkpt lat="42.83369" lon="-0.43428">
        <ele>2031.8</ele>
        <time>2021-08-10 13:39:26</time>
      </trkpt>
      <trkpt lat="42.83369" lon="-0.43428">
        <ele>2031.8</ele>
        <time>2021-08-10 13:39:27</time>
      </trkpt>
      <trkpt lat="42.83369" lon="-0.43428">
        <ele>2032</ele>
        <time>2021-08-10 13:39:28</time>
      </trkpt>
      <trkpt lat="42.83369" lon="-0.43427">
        <ele>2032.2</ele>
        <time>2021-08-10 13:39:29</time>
      </trkpt>
      <trkpt lat="42.83368" lon="-0.43427">
        <ele>2032.2</ele>
        <time>2021-08-10 13:39:30</time>
      </trkpt>
      <trkpt lat="42.83367" lon="-0.43428">
        <ele>2031.8</ele>
        <time>2021-08-10 13:39:31</time>
      </trkpt>
      <trkpt lat="42.83367" lon="-0.43428">
        <ele>2031.8</ele>
        <time>2021-08-10 13:39:32</time>
      </trkpt>
      <trkpt lat="42.83367" lon="-0.43428">
        <ele>2031.6</ele>
        <time>2021-08-10 13:39:33</time>
      </trkpt>
      <trkpt lat="42.83366" lon="-0.43428">
        <ele>2031.4</ele>
        <time>2021-08-10 13:39:34</time>
      </trkpt>
      <trkpt lat="42.83366" lon="-0.43427">
        <ele>2031</ele>
        <time>2021-08-10 13:39:35</time>
      </trkpt>
      <trkpt lat="42.83366" lon="-0.43427">
        <ele>2031.2</ele>
        <time>2021-08-10 13:39:36</time>
      </trkpt>
      <trkpt lat="42.83365" lon="-0.43426">
        <ele>2031</ele>
        <time>2021-08-10 13:39:37</time>
      </trkpt>
      <trkpt lat="42.83365" lon="-0.43426">
        <ele>2030.8</ele>
        <time>2021-08-10 13:39:38</time>
      </trkpt>
      <trkpt lat="42.83365" lon="-0.43425">
        <ele>2030.8</ele>
        <time>2021-08-10 13:39:39</time>
      </trkpt>
      <trkpt lat="42.83365" lon="-0.43425">
        <ele>2030.4</ele>
        <time>2021-08-10 13:39:40</time>
      </trkpt>
      <trkpt lat="42.83365" lon="-0.43425">
        <ele>2030.4</ele>
        <time>2021-08-10 13:39:41</time>
      </trkpt>
      <trkpt lat="42.83365" lon="-0.43425">
        <ele>2030.2</ele>
        <time>2021-08-10 13:39:42</time>
      </trkpt>
      <trkpt lat="42.83365" lon="-0.43425">
        <ele>2030.2</ele>
        <time>2021-08-10 13:39:43</time>
      </trkpt>
      <trkpt lat="42.83365" lon="-0.43424">
        <ele>2030</ele>
        <time>2021-08-10 13:39:44</time>
      </trkpt>
      <trkpt lat="42.83365" lon="-0.43424">
        <ele>2030</ele>
        <time>2021-08-10 13:39:45</time>
      </trkpt>
      <trkpt lat="42.83366" lon="-0.43424">
        <ele>2029.8</ele>
        <time>2021-08-10 13:39:46</time>
      </trkpt>
      <trkpt lat="42.83366" lon="-0.43424">
        <ele>2030</ele>
        <time>2021-08-10 13:39:47</time>
      </trkpt>
      <trkpt lat="42.83366" lon="-0.43423">
        <ele>2029.8</ele>
        <time>2021-08-10 13:39:48</time>
      </trkpt>
      <trkpt lat="42.83367" lon="-0.43422">
        <ele>2029.6</ele>
        <time>2021-08-10 13:39:49</time>
      </trkpt>
      <trkpt lat="42.83367" lon="-0.43421">
        <ele>2029.6</ele>
        <time>2021-08-10 13:39:50</time>
      </trkpt>
      <trkpt lat="42.83368" lon="-0.43421">
        <ele>2029.4</ele>
        <time>2021-08-10 13:39:51</time>
      </trkpt>
      <trkpt lat="42.83367" lon="-0.4342">
        <ele>2029.2</ele>
        <time>2021-08-10 13:39:52</time>
      </trkpt>
      <trkpt lat="42.83368" lon="-0.4342">
        <ele>2028.8</ele>
        <time>2021-08-10 13:39:53</time>
      </trkpt>
      <trkpt lat="42.83368" lon="-0.43419">
        <ele>2028.8</ele>
        <time>2021-08-10 13:39:54</time>
      </trkpt>
      <trkpt lat="42.83369" lon="-0.43419">
        <ele>2028.6</ele>
        <time>2021-08-10 13:39:55</time>
      </trkpt>
      <trkpt lat="42.83369" lon="-0.43419">
        <ele>2028.6</ele>
        <time>2021-08-10 13:39:56</time>
      </trkpt>
      <trkpt lat="42.8337" lon="-0.43419">
        <ele>2028.4</ele>
        <time>2021-08-10 13:39:57</time>
      </trkpt>
      <trkpt lat="42.83369" lon="-0.43419">
        <ele>2028.2</ele>
        <time>2021-08-10 13:39:58</time>
      </trkpt>
      <trkpt lat="42.8337" lon="-0.43419">
        <ele>2028</ele>
        <time>2021-08-10 13:39:59</time>
      </trkpt>
      <trkpt lat="42.8337" lon="-0.43419">
        <ele>2028</ele>
      </trkpt>
      <trkpt lat="42.8337" lon="-0.43418">
        <ele>2027.8</ele>
        <time>2021-08-10 13:40:01</time>
      </trkpt>
      <trkpt lat="42.8337" lon="-0.43418">
        <ele>2027.6</ele>
        <time>2021-08-10 13:40:02</time>
      </trkpt>
      <trkpt lat="42.83369" lon="-0.43418">
        <ele>2027.4</ele>
        <time>2021-08-10 13:40:03</time>
      </trkpt>
      <trkpt lat="42.83369" lon="-0.43418">
        <ele>2027.4</ele>
        <time>2021-08-10 13:40:04</time>
      </trkpt>
      <trkpt lat="42.83368" lon="-0.43417">
        <ele>2027.4</ele>
        <time>2021-08-10 13:40:05</time>
      </trkpt>
      <trkpt lat="42.83367" lon="-0.43418">
        <ele>2027.2</ele>
        <time>2021-08-10 13:40:06</time>
      </trkpt>
      <trkpt lat="42.83366" lon="-0.43416">
        <ele>2027</ele>
        <time>2021-08-10 13:40:07</time>
      </trkpt>
      <trkpt lat="42.83365" lon="-0.43415">
        <ele>2026.8</ele>
        <time>2021-08-10 13:40:08</time>
      </trkpt>
      <trkpt lat="42.83364" lon="-0.43415">
        <ele>2026.6</ele>
        <time>2021-08-10 13:40:09</time>
      </trkpt>
      <trkpt lat="42.83364" lon="-0.43414">
        <ele>2026.6</ele>
        <time>2021-08-10 13:40:10</time>
      </trkpt>
      <trkpt lat="42.83364" lon="-0.43414">
        <ele>2026.6</ele>
        <time>2021-08-10 13:40:11</time>
      </trkpt>
      <trkpt lat="42.83364" lon="-0.43413">
        <ele>2026.2</ele>
        <time>2021-08-10 13:40:12</time>
      </trkpt>
      <trkpt lat="42.83364" lon="-0.43413">
        <ele>2026</ele>
        <time>2021-08-10 13:40:13</time>
      </trkpt>
      <trkpt lat="42.83364" lon="-0.43412">
        <ele>2025.8</ele>
      </trkpt>
      <trkpt lat="42.83364" lon="-0.43411">
        <ele>2025.8</ele>
        <time>2021-08-10 13:40:14</time>
      </trkpt>
      <trkpt lat="42.83364" lon="-0.4341">
        <ele>2025.6</ele>
        <time>2021-08-10 13:40:15</time>
      </trkpt>
      <trkpt lat="42.83364" lon="-0.4341">
        <ele>2025.4</ele>
        <time>2021-08-10 13:40:16</time>
      </trkpt>
      <trkpt lat="42.83365" lon="-0.4341">
        <ele>2025.2</ele>
        <time>2021-08-10 13:40:17</time>
      </trkpt>
      <trkpt lat="42.83365" lon="-0.43409">
        <ele>2025</ele>
        <time>2021-08-10 13:40:18</time>
      </trkpt>
      <trkpt lat="42.83365" lon="-0.43409">
        <ele>2024.8</ele>
        <time>2021-08-10 13:40:19</time>
      </trkpt>
      <trkpt lat="42.83365" lon="-0.43409">
        <ele>2024.8</ele>
        <time>2021-08-10 13:40:20</time>
      </trkpt>
      <trkpt lat="42.83365" lon="-0.43409">
        <ele>2024.8</ele>
        <time>2021-08-10 13:40:21</time>
      </trkpt>
      <trkpt lat="42.83366" lon="-0.43408">
        <ele>2024.8</ele>
        <time>2021-08-10 13:40:22</time>
      </trkpt>
      <trkpt lat="42.83367" lon="-0.43408">
        <ele>2024.8</ele>
        <time>2021-08-10 13:40:23</time>
      </trkpt>
      <trkpt lat="42.83367" lon="-0.43408">
        <ele>2024.6</ele>
        <time>2021-08-10 13:40:24</time>
      </trkpt>
      <trkpt lat="42.83368" lon="-0.43408">
        <ele>2024.6</ele>
        <time>2021-08-10 13:40:25</time>
      </trkpt>
      <trkpt lat="42.83368" lon="-0.43407">
        <ele>2024.6</ele>
        <time>2021-08-10 13:40:27</time>
      </trkpt>
      <trkpt lat="42.83368" lon="-0.43407">
        <ele>2024</ele>
      </trkpt>
      <trkpt lat="42.83368" lon="-0.43406">
        <ele>2024</ele>
        <time>2021-08-10 13:40:28</time>
      </trkpt>
      <trkpt lat="42.83368" lon="-0.43406">
        <ele>2024</ele>
        <time>2021-08-10 13:40:29</time>
      </trkpt>
      <trkpt lat="42.83369" lon="-0.43405">
        <ele>2023.8</ele>
        <time>2021-08-10 13:40:30</time>
      </trkpt>
      <trkpt lat="42.83369" lon="-0.43405">
        <ele>2023.8</ele>
        <time>2021-08-10 13:40:31</time>
      </trkpt>
      <trkpt lat="42.83369" lon="-0.43404">
        <ele>2023.8</ele>
        <time>2021-08-10 13:40:32</time>
      </trkpt>
      <trkpt lat="42.83371" lon="-0.43404">
        <ele>2023.6</ele>
        <time>2021-08-10 13:40:33</time>
      </trkpt>
      <trkpt lat="42.83371" lon="-0.43403">
        <ele>2023.4</ele>
        <time>2021-08-10 13:40:34</time>
      </trkpt>
      <trkpt lat="42.83371" lon="-0.43402">
        <ele>2023.2</ele>
        <time>2021-08-10 13:40:35</time>
      </trkpt>
      <trkpt lat="42.83372" lon="-0.43401">
        <ele>2022.8</ele>
        <time>2021-08-10 13:40:36</time>
      </trkpt>
      <trkpt lat="42.83372" lon="-0.434">
        <ele>2022.6</ele>
        <time>2021-08-10 13:40:37</time>
      </trkpt>
      <trkpt lat="42.83373" lon="-0.43399">
        <ele>2022.4</ele>
        <time>2021-08-10 13:40:38</time>
      </trkpt>
      <trkpt lat="42.83373" lon="-0.434">
        <ele>2022.2</ele>
        <time>2021-08-10 13:40:39</time>
      </trkpt>
      <trkpt lat="42.83373" lon="-0.43399">
        <ele>2022.2</ele>
        <time>2021-08-10 13:40:40</time>
      </trkpt>
      <trkpt lat="42.83374" lon="-0.43399">
        <ele>2021.8</ele>
        <time>2021-08-10 13:40:41</time>
      </trkpt>
      <trkpt lat="42.83374" lon="-0.43398">
        <ele>2021.8</ele>
        <time>2021-08-10 13:40:42</time>
      </trkpt>
      <trkpt lat="42.83375" lon="-0.43397">
        <ele>2021.8</ele>
        <time>2021-08-10 13:40:43</time>
      </trkpt>
      <trkpt lat="42.83377" lon="-0.43397">
        <ele>2022</ele>
        <time>2021-08-10 13:40:44</time>
      </trkpt>
      <trkpt lat="42.83377" lon="-0.43397">
        <ele>2021.8</ele>
        <time>2021-08-10 13:40:45</time>
      </trkpt>
      <trkpt lat="42.83377" lon="-0.43397">
        <ele>2021.6</ele>
        <time>2021-08-10 13:40:47</time>
      </trkpt>
      <trkpt lat="42.83377" lon="-0.43396">
        <ele>2021</ele>
      </trkpt>
      <trkpt lat="42.83378" lon="-0.43396">
        <ele>2020.8</ele>
        <time>2021-08-10 13:40:48</time>
      </trkpt>
      <trkpt lat="42.83378" lon="-0.43396">
        <ele>2020.4</ele>
        <time>2021-08-10 13:40:49</time>
      </trkpt>
      <trkpt lat="42.83378" lon="-0.43395">
        <ele>2020.4</ele>
        <time>2021-08-10 13:40:50</time>
      </trkpt>
      <trkpt lat="42.83379" lon="-0.43395">
        <ele>2020.4</ele>
        <time>2021-08-10 13:40:51</time>
      </trkpt>
      <trkpt lat="42.83379" lon="-0.43395">
        <ele>2020.2</ele>
        <time>2021-08-10 13:40:52</time>
      </trkpt>
      <trkpt lat="42.8338" lon="-0.43395">
        <ele>2020.4</ele>
        <time>2021-08-10 13:40:53</time>
      </trkpt>
      <trkpt lat="42.83381" lon="-0.43395">
        <ele>2020.4</ele>
        <time>2021-08-10 13:40:54</time>
      </trkpt>
      <trkpt lat="42.83381" lon="-0.43394">
        <ele>2020</ele>
        <time>2021-08-10 13:40:55</time>
      </trkpt>
      <trkpt lat="42.83381" lon="-0.43393">
        <ele>2020</ele>
        <time>2021-08-10 13:40:56</time>
      </trkpt>
      <trkpt lat="42.83381" lon="-0.43393">
        <ele>2019.8</ele>
        <time>2021-08-10 13:40:57</time>
      </trkpt>
      <trkpt lat="42.8338" lon="-0.43393">
        <ele>2019.6</ele>
        <time>2021-08-10 13:40:58</time>
      </trkpt>
      <trkpt lat="42.8338" lon="-0.43393">
        <ele>2019.4</ele>
        <time>2021-08-10 13:40:59</time>
      </trkpt>
      <trkpt lat="42.83379" lon="-0.43392">
        <ele>2019</ele>
        <time>2021-08-10 13:41:00</time>
      </trkpt>
      <trkpt lat="42.8338" lon="-0.43392">
        <ele>2018.6</ele>
        <time>2021-08-10 13:41:01</time>
      </trkpt>
      <trkpt lat="42.8338" lon="-0.43392">
        <ele>2018.4</ele>
        <time>2021-08-10 13:41:02</time>
      </trkpt>
      <trkpt lat="42.83381" lon="-0.43392">
        <ele>2018.2</ele>
        <time>2021-08-10 13:41:03</time>
      </trkpt>
      <trkpt lat="42.83381" lon="-0.43392">
        <ele>2018</ele>
        <time>2021-08-10 13:41:04</time>
      </trkpt>
      <trkpt lat="42.83382" lon="-0.43392">
        <ele>2017.8</ele>
        <time>2021-08-10 13:41:06</time>
      </trkpt>
      <trkpt lat="42.83382" lon="-0.43391">
        <ele>2017.6</ele>
      </trkpt>
      <trkpt lat="42.83382" lon="-0.43391">
        <ele>2017.8</ele>
        <time>2021-08-10 13:41:07</time>
      </trkpt>
      <trkpt lat="42.83382" lon="-0.4339">
        <ele>2017.8</ele>
        <time>2021-08-10 13:41:08</time>
      </trkpt>
      <trkpt lat="42.83381" lon="-0.43389">
        <ele>2017.6</ele>
        <time>2021-08-10 13:41:09</time>
      </trkpt>
      <trkpt lat="42.83381" lon="-0.43388">
        <ele>2017.4</ele>
        <time>2021-08-10 13:41:10</time>
      </trkpt>
      <trkpt lat="42.83381" lon="-0.43387">
        <ele>2017.2</ele>
        <time>2021-08-10 13:41:11</time>
      </trkpt>
      <trkpt lat="42.83381" lon="-0.43386">
        <ele>2017</ele>
        <time>2021-08-10 13:41:12</time>
      </trkpt>
      <trkpt lat="42.83381" lon="-0.43385">
        <ele>2017</ele>
        <time>2021-08-10 13:41:13</time>
      </trkpt>
      <trkpt lat="42.83381" lon="-0.43384">
        <ele>2016.8</ele>
        <time>2021-08-10 13:41:14</time>
      </trkpt>
      <trkpt lat="42.83381" lon="-0.43383">
        <ele>2016.8</ele>
        <time>2021-08-10 13:41:15</time>
      </trkpt>
      <trkpt lat="42.83381" lon="-0.43382">
        <ele>2016.8</ele>
        <time>2021-08-10 13:41:16</time>
      </trkpt>
      <trkpt lat="42.83381" lon="-0.43381">
        <ele>2016.2</ele>
        <time>2021-08-10 13:41:17</time>
      </trkpt>
      <trkpt lat="42.8338" lon="-0.4338">
        <ele>2016.2</ele>
        <time>2021-08-10 13:41:18</time>
      </trkpt>
      <trkpt lat="42.8338" lon="-0.43378">
        <ele>2016</ele>
        <time>2021-08-10 13:41:19</time>
      </trkpt>
      <trkpt lat="42.83381" lon="-0.43378">
        <ele>2015.8</ele>
        <time>2021-08-10 13:41:20</time>
      </trkpt>
      <trkpt lat="42.83381" lon="-0.43377">
        <ele>2016</ele>
        <time>2021-08-10 13:41:21</time>
      </trkpt>
      <trkpt lat="42.83381" lon="-0.43378">
        <ele>2016</ele>
        <time>2021-08-10 13:41:22</time>
      </trkpt>
      <trkpt lat="42.83381" lon="-0.43377">
        <ele>2015.8</ele>
        <time>2021-08-10 13:41:23</time>
      </trkpt>
      <trkpt lat="42.83381" lon="-0.43377">
        <ele>2015</ele>
        <time>2021-08-10 13:41:24</time>
      </trkpt>
      <trkpt lat="42.83381" lon="-0.43375">
        <ele>2014.8</ele>
        <time>2021-08-10 13:41:25</time>
      </trkpt>
      <trkpt lat="42.83381" lon="-0.43375">
        <ele>2014.6</ele>
        <time>2021-08-10 13:41:26</time>
      </trkpt>
      <trkpt lat="42.83381" lon="-0.43374">
        <ele>2014.6</ele>
        <time>2021-08-10 13:41:27</time>
      </trkpt>
      <trkpt lat="42.83382" lon="-0.43373">
        <ele>2014.4</ele>
        <time>2021-08-10 13:41:28</time>
      </trkpt>
      <trkpt lat="42.83383" lon="-0.43373">
        <ele>2014.4</ele>
        <time>2021-08-10 13:41:29</time>
      </trkpt>
      <trkpt lat="42.83383" lon="-0.43372">
        <ele>2014.2</ele>
        <time>2021-08-10 13:41:30</time>
      </trkpt>
      <trkpt lat="42.83384" lon="-0.43372">
        <ele>2014</ele>
        <time>2021-08-10 13:41:31</time>
      </trkpt>
      <trkpt lat="42.83384" lon="-0.43372">
        <ele>2014</ele>
        <time>2021-08-10 13:41:32</time>
      </trkpt>
      <trkpt lat="42.83384" lon="-0.43373">
        <ele>2014.2</ele>
        <time>2021-08-10 13:41:33</time>
      </trkpt>
      <trkpt lat="42.83385" lon="-0.43374">
        <ele>2014.2</ele>
        <time>2021-08-10 13:41:34</time>
      </trkpt>
      <trkpt lat="42.83385" lon="-0.43375">
        <ele>2013.8</ele>
        <time>2021-08-10 13:41:35</time>
      </trkpt>
      <trkpt lat="42.83385" lon="-0.43375">
        <ele>2013.8</ele>
        <time>2021-08-10 13:41:36</time>
      </trkpt>
      <trkpt lat="42.83385" lon="-0.43375">
        <ele>2013.4</ele>
        <time>2021-08-10 13:41:48</time>
      </trkpt>
      <trkpt lat="42.83385" lon="-0.43374">
        <ele>2013.4</ele>
        <time>2021-08-10 13:41:49</time>
      </trkpt>
      <trkpt lat="42.83386" lon="-0.43374">
        <ele>2013.4</ele>
        <time>2021-08-10 13:41:50</time>
      </trkpt>
      <trkpt lat="42.83386" lon="-0.43373">
        <ele>2013.4</ele>
        <time>2021-08-10 13:41:51</time>
      </trkpt>
      <trkpt lat="42.83386" lon="-0.43373">
        <ele>2013.4</ele>
        <time>2021-08-10 13:41:52</time>
      </trkpt>
      <trkpt lat="42.83387" lon="-0.43373">
        <ele>2013.4</ele>
        <time>2021-08-10 13:41:53</time>
      </trkpt>
      <trkpt lat="42.83386" lon="-0.43372">
        <ele>2013.2</ele>
        <time>2021-08-10 13:41:54</time>
      </trkpt>
      <trkpt lat="42.83386" lon="-0.43372">
        <ele>2013</ele>
        <time>2021-08-10 13:41:55</time>
      </trkpt>
      <trkpt lat="42.83386" lon="-0.43372">
        <ele>2013</ele>
        <time>2021-08-10 13:41:56</time>
      </trkpt>
      <trkpt lat="42.83386" lon="-0.43372">
        <ele>2012.8</ele>
        <time>2021-08-10 13:41:57</time>
      </trkpt>
      <trkpt lat="42.83386" lon="-0.43372">
        <ele>2012.2</ele>
        <time>2021-08-10 13:41:58</time>
      </trkpt>
      <trkpt lat="42.83386" lon="-0.43371">
        <ele>2012</ele>
        <time>2021-08-10 13:41:59</time>
      </trkpt>
      <trkpt lat="42.83385" lon="-0.43372">
        <ele>2012</ele>
        <time>2021-08-10 13:42:00</time>
      </trkpt>
      <trkpt lat="42.83386" lon="-0.43371">
        <ele>2012</ele>
        <time>2021-08-10 13:42:01</time>
      </trkpt>
      <trkpt lat="42.83386" lon="-0.43371">
        <ele>2012</ele>
        <time>2021-08-10 13:42:02</time>
      </trkpt>
      <trkpt lat="42.83386" lon="-0.4337">
        <ele>2011.8</ele>
        <time>2021-08-10 13:42:03</time>
      </trkpt>
      <trkpt lat="42.83386" lon="-0.4337">
        <ele>2011.6</ele>
        <time>2021-08-10 13:42:04</time>
      </trkpt>
      <trkpt lat="42.83386" lon="-0.4337">
        <ele>2011.4</ele>
        <time>2021-08-10 13:42:05</time>
      </trkpt>
      <trkpt lat="42.83387" lon="-0.4337">
        <ele>2011.2</ele>
        <time>2021-08-10 13:42:06</time>
      </trkpt>
      <trkpt lat="42.83387" lon="-0.4337">
        <ele>2011.2</ele>
        <time>2021-08-10 13:42:07</time>
      </trkpt>
      <trkpt lat="42.83387" lon="-0.43369">
        <ele>2011.2</ele>
        <time>2021-08-10 13:42:08</time>
      </trkpt>
      <trkpt lat="42.83387" lon="-0.43369">
        <ele>2011.4</ele>
        <time>2021-08-10 13:42:09</time>
      </trkpt>
      <trkpt lat="42.83387" lon="-0.43368">
        <ele>2011</ele>
        <time>2021-08-10 13:42:10</time>
      </trkpt>
      <trkpt lat="42.83387" lon="-0.43368">
        <ele>2011</ele>
        <time>2021-08-10 13:42:11</time>
      </trkpt>
      <trkpt lat="42.83387" lon="-0.43367">
        <ele>2010.6</ele>
        <time>2021-08-10 13:42:12</time>
      </trkpt>
      <trkpt lat="42.83387" lon="-0.43367">
        <ele>2010.6</ele>
        <time>2021-08-10 13:42:13</time>
      </trkpt>
      <trkpt lat="42.83387" lon="-0.43367">
        <ele>2010.6</ele>
        <time>2021-08-10 13:42:14</time>
      </trkpt>
      <trkpt lat="42.83387" lon="-0.43367">
        <ele>2010.4</ele>
        <time>2021-08-10 13:42:15</time>
      </trkpt>
      <trkpt lat="42.83387" lon="-0.43366">
        <ele>2010.2</ele>
        <time>2021-08-10 13:42:16</time>
      </trkpt>
      <trkpt lat="42.83387" lon="-0.43366">
        <ele>2010.4</ele>
        <time>2021-08-10 13:42:17</time>
      </trkpt>
      <trkpt lat="42.83386" lon="-0.43365">
        <ele>2009.8</ele>
        <time>2021-08-10 13:42:18</time>
      </trkpt>
      <trkpt lat="42.83386" lon="-0.43365">
        <ele>2009.6</ele>
        <time>2021-08-10 13:42:19</time>
      </trkpt>
      <trkpt lat="42.83386" lon="-0.43365">
        <ele>2009.6</ele>
        <time>2021-08-10 13:42:20</time>
      </trkpt>
      <trkpt lat="42.83386" lon="-0.43365">
        <ele>2009.4</ele>
        <time>2021-08-10 13:42:21</time>
      </trkpt>
      <trkpt lat="42.83386" lon="-0.43364">
        <ele>2009</ele>
        <time>2021-08-10 13:42:22</time>
      </trkpt>
      <trkpt lat="42.83386" lon="-0.43364">
        <ele>2008.8</ele>
        <time>2021-08-10 13:42:23</time>
      </trkpt>
      <trkpt lat="42.83386" lon="-0.43364">
        <ele>2008.8</ele>
        <time>2021-08-10 13:42:24</time>
      </trkpt>
      <trkpt lat="42.83386" lon="-0.43364">
        <ele>2008.6</ele>
        <time>2021-08-10 13:42:25</time>
      </trkpt>
      <trkpt lat="42.83386" lon="-0.43364">
        <ele>2008.8</ele>
        <time>2021-08-10 13:42:26</time>
      </trkpt>
      <trkpt lat="42.83386" lon="-0.43364">
        <ele>2008.4</ele>
        <time>2021-08-10 13:42:27</time>
      </trkpt>
      <trkpt lat="42.83386" lon="-0.43364">
        <ele>2008.4</ele>
        <time>2021-08-10 13:42:28</time>
      </trkpt>
      <trkpt lat="42.83386" lon="-0.43364">
        <ele>2008.4</ele>
        <time>2021-08-10 13:42:29</time>
      </trkpt>
      <trkpt lat="42.83386" lon="-0.43363">
        <ele>2007.8</ele>
        <time>2021-08-10 13:42:30</time>
      </trkpt>
      <trkpt lat="42.83386" lon="-0.43363">
        <ele>2008</ele>
        <time>2021-08-10 13:42:31</time>
      </trkpt>
      <trkpt lat="42.83387" lon="-0.43362">
        <ele>2007.8</ele>
        <time>2021-08-10 13:42:32</time>
      </trkpt>
      <trkpt lat="42.83387" lon="-0.43362">
        <ele>2007.8</ele>
        <time>2021-08-10 13:42:33</time>
      </trkpt>
      <trkpt lat="42.83387" lon="-0.43362">
        <ele>2007.8</ele>
        <time>2021-08-10 13:42:34</time>
      </trkpt>
      <trkpt lat="42.83387" lon="-0.43362">
        <ele>2007.8</ele>
        <time>2021-08-10 13:42:35</time>
      </trkpt>
      <trkpt lat="42.83388" lon="-0.43362">
        <ele>2008.2</ele>
        <time>2021-08-10 13:42:36</time>
      </trkpt>
      <trkpt lat="42.83388" lon="-0.43362">
        <ele>2008</ele>
        <time>2021-08-10 13:42:37</time>
      </trkpt>
      <trkpt lat="42.83389" lon="-0.43363">
        <ele>2007.8</ele>
        <time>2021-08-10 13:42:38</time>
      </trkpt>
      <trkpt lat="42.83389" lon="-0.43364">
        <ele>2007.8</ele>
        <time>2021-08-10 13:42:39</time>
      </trkpt>
      <trkpt lat="42.83389" lon="-0.43364">
        <ele>2007.6</ele>
        <time>2021-08-10 13:42:40</time>
      </trkpt>
      <trkpt lat="42.83389" lon="-0.43364">
        <ele>2007.6</ele>
        <time>2021-08-10 13:42:41</time>
      </trkpt>
      <trkpt lat="42.83389" lon="-0.43364">
        <ele>2007.4</ele>
        <time>2021-08-10 13:42:42</time>
      </trkpt>
      <trkpt lat="42.83389" lon="-0.43364">
        <ele>2007.4</ele>
        <time>2021-08-10 13:42:43</time>
      </trkpt>
      <trkpt lat="42.83389" lon="-0.43363">
        <ele>2007</ele>
        <time>2021-08-10 13:42:44</time>
      </trkpt>
      <trkpt lat="42.83388" lon="-0.43363">
        <ele>2007</ele>
        <time>2021-08-10 13:42:45</time>
      </trkpt>
      <trkpt lat="42.83388" lon="-0.43362">
        <ele>2006.6</ele>
        <time>2021-08-10 13:42:46</time>
      </trkpt>
      <trkpt lat="42.83388" lon="-0.43361">
        <ele>2006.4</ele>
        <time>2021-08-10 13:42:47</time>
      </trkpt>
      <trkpt lat="42.83388" lon="-0.43361">
        <ele>2006.2</ele>
        <time>2021-08-10 13:42:50</time>
      </trkpt>
      <trkpt lat="42.83388" lon="-0.43361">
        <ele>2006</ele>
        <time>2021-08-10 13:42:51</time>
      </trkpt>
      <trkpt lat="42.83389" lon="-0.43361">
        <ele>2005.8</ele>
        <time>2021-08-10 13:42:52</time>
      </trkpt>
      <trkpt lat="42.83389" lon="-0.43361">
        <ele>2005.6</ele>
        <time>2021-08-10 13:42:53</time>
      </trkpt>
      <trkpt lat="42.83389" lon="-0.4336">
        <ele>2005.6</ele>
        <time>2021-08-10 13:42:54</time>
      </trkpt>
      <trkpt lat="42.83389" lon="-0.4336">
        <ele>2005.6</ele>
        <time>2021-08-10 13:42:55</time>
      </trkpt>
      <trkpt lat="42.8339" lon="-0.4336">
        <ele>2005.8</ele>
        <time>2021-08-10 13:42:56</time>
      </trkpt>
      <trkpt lat="42.83389" lon="-0.4336">
        <ele>2005.6</ele>
        <time>2021-08-10 13:42:57</time>
      </trkpt>
      <trkpt lat="42.83389" lon="-0.43359">
        <ele>2005.6</ele>
        <time>2021-08-10 13:42:58</time>
      </trkpt>
      <trkpt lat="42.83389" lon="-0.43359">
        <ele>2005.2</ele>
        <time>2021-08-10 13:42:59</time>
      </trkpt>
      <trkpt lat="42.83389" lon="-0.43358">
        <ele>2005.2</ele>
        <time>2021-08-10 13:43:00</time>
      </trkpt>
      <trkpt lat="42.83389" lon="-0.43358">
        <ele>2004.8</ele>
        <time>2021-08-10 13:43:01</time>
      </trkpt>
      <trkpt lat="42.83389" lon="-0.43357">
        <ele>2004.2</ele>
        <time>2021-08-10 13:43:02</time>
      </trkpt>
      <trkpt lat="42.83389" lon="-0.43357">
        <ele>2004.4</ele>
        <time>2021-08-10 13:43:03</time>
      </trkpt>
      <trkpt lat="42.83389" lon="-0.43357">
        <ele>2003.8</ele>
        <time>2021-08-10 13:43:04</time>
      </trkpt>
      <trkpt lat="42.83389" lon="-0.43356">
        <ele>2004.2</ele>
        <time>2021-08-10 13:43:05</time>
      </trkpt>
      <trkpt lat="42.83389" lon="-0.43356">
        <ele>2004</ele>
        <time>2021-08-10 13:43:06</time>
      </trkpt>
      <trkpt lat="42.83389" lon="-0.43355">
        <ele>2003.8</ele>
        <time>2021-08-10 13:43:07</time>
      </trkpt>
      <trkpt lat="42.83389" lon="-0.43354">
        <ele>2003.6</ele>
        <time>2021-08-10 13:43:08</time>
      </trkpt>
      <trkpt lat="42.83389" lon="-0.43353">
        <ele>2003.8</ele>
        <time>2021-08-10 13:43:09</time>
      </trkpt>
      <trkpt lat="42.83388" lon="-0.43353">
        <ele>2003.8</ele>
        <time>2021-08-10 13:43:10</time>
      </trkpt>
      <trkpt lat="42.83388" lon="-0.43352">
        <ele>2003.6</ele>
        <time>2021-08-10 13:43:11</time>
      </trkpt>
      <trkpt lat="42.83389" lon="-0.43352">
        <ele>2003.6</ele>
        <time>2021-08-10 13:43:12</time>
      </trkpt>
      <trkpt lat="42.83389" lon="-0.43351">
        <ele>2003.4</ele>
        <time>2021-08-10 13:43:13</time>
      </trkpt>
      <trkpt lat="42.83389" lon="-0.43351">
        <ele>2003.6</ele>
        <time>2021-08-10 13:43:14</time>
      </trkpt>
      <trkpt lat="42.83388" lon="-0.43351">
        <ele>2003.6</ele>
        <time>2021-08-10 13:43:15</time>
      </trkpt>
      <trkpt lat="42.83388" lon="-0.43351">
        <ele>2003.6</ele>
        <time>2021-08-10 13:43:16</time>
      </trkpt>
      <trkpt lat="42.83388" lon="-0.43351">
        <ele>2003.4</ele>
        <time>2021-08-10 13:43:17</time>
      </trkpt>
      <trkpt lat="42.83388" lon="-0.43351">
        <ele>2003.4</ele>
        <time>2021-08-10 13:43:18</time>
      </trkpt>
      <trkpt lat="42.83388" lon="-0.4335">
        <ele>2003.2</ele>
        <time>2021-08-10 13:43:19</time>
      </trkpt>
      <trkpt lat="42.83388" lon="-0.4335">
        <ele>2003</ele>
        <time>2021-08-10 13:43:20</time>
      </trkpt>
      <trkpt lat="42.83388" lon="-0.43351">
        <ele>2002.8</ele>
        <time>2021-08-10 13:43:21</time>
      </trkpt>
      <trkpt lat="42.83388" lon="-0.4335">
        <ele>2002.8</ele>
        <time>2021-08-10 13:43:22</time>
      </trkpt>
      <trkpt lat="42.83388" lon="-0.4335">
        <ele>2002.8</ele>
        <time>2021-08-10 13:43:23</time>
      </trkpt>
      <trkpt lat="42.83388" lon="-0.43349">
        <ele>2002.6</ele>
        <time>2021-08-10 13:43:24</time>
      </trkpt>
      <trkpt lat="42.83388" lon="-0.43349">
        <ele>2002.4</ele>
        <time>2021-08-10 13:43:25</time>
      </trkpt>
      <trkpt lat="42.83388" lon="-0.43349">
        <ele>2002.6</ele>
        <time>2021-08-10 13:43:26</time>
      </trkpt>
      <trkpt lat="42.83388" lon="-0.43348">
        <ele>2002.4</ele>
        <time>2021-08-10 13:43:27</time>
      </trkpt>
      <trkpt lat="42.83389" lon="-0.43348">
        <ele>2002.2</ele>
        <time>2021-08-10 13:43:28</time>
      </trkpt>
      <trkpt lat="42.83389" lon="-0.43347">
        <ele>2002.4</ele>
        <time>2021-08-10 13:43:29</time>
      </trkpt>
      <trkpt lat="42.83389" lon="-0.43346">
        <ele>2002.2</ele>
        <time>2021-08-10 13:43:30</time>
      </trkpt>
      <trkpt lat="42.8339" lon="-0.43345">
        <ele>2001.8</ele>
        <time>2021-08-10 13:43:31</time>
      </trkpt>
      <trkpt lat="42.8339" lon="-0.43345">
        <ele>2001.8</ele>
        <time>2021-08-10 13:43:32</time>
      </trkpt>
      <trkpt lat="42.8339" lon="-0.43344">
        <ele>2001.6</ele>
        <time>2021-08-10 13:43:33</time>
      </trkpt>
      <trkpt lat="42.83391" lon="-0.43343">
        <ele>2001.4</ele>
        <time>2021-08-10 13:43:34</time>
      </trkpt>
      <trkpt lat="42.8339" lon="-0.43342">
        <ele>2001.4</ele>
        <time>2021-08-10 13:43:35</time>
      </trkpt>
      <trkpt lat="42.83391" lon="-0.43341">
        <ele>2001.2</ele>
        <time>2021-08-10 13:43:36</time>
      </trkpt>
      <trkpt lat="42.83391" lon="-0.4334">
        <ele>2001.2</ele>
        <time>2021-08-10 13:43:37</time>
      </trkpt>
      <trkpt lat="42.83391" lon="-0.4334">
        <ele>2001</ele>
        <time>2021-08-10 13:43:38</time>
      </trkpt>
      <trkpt lat="42.83391" lon="-0.43339">
        <ele>2000.8</ele>
        <time>2021-08-10 13:43:39</time>
      </trkpt>
      <trkpt lat="42.83392" lon="-0.43338">
        <ele>2000.6</ele>
        <time>2021-08-10 13:43:40</time>
      </trkpt>
      <trkpt lat="42.83392" lon="-0.43339">
        <ele>2000.6</ele>
        <time>2021-08-10 13:43:41</time>
      </trkpt>
      <trkpt lat="42.83392" lon="-0.43339">
        <ele>2000.4</ele>
        <time>2021-08-10 13:43:42</time>
      </trkpt>
      <trkpt lat="42.83391" lon="-0.43339">
        <ele>2000.4</ele>
        <time>2021-08-10 13:43:43</time>
      </trkpt>
      <trkpt lat="42.83392" lon="-0.43339">
        <ele>2000.4</ele>
        <time>2021-08-10 13:43:44</time>
      </trkpt>
      <trkpt lat="42.83393" lon="-0.43339">
        <ele>2000.2</ele>
        <time>2021-08-10 13:43:45</time>
      </trkpt>
      <trkpt lat="42.83393" lon="-0.43339">
        <ele>2000</ele>
        <time>2021-08-10 13:43:46</time>
      </trkpt>
      <trkpt lat="42.83394" lon="-0.4334">
        <ele>2000</ele>
        <time>2021-08-10 13:43:47</time>
      </trkpt>
      <trkpt lat="42.83394" lon="-0.4334">
        <ele>1999.6</ele>
        <time>2021-08-10 13:43:48</time>
      </trkpt>
      <trkpt lat="42.83395" lon="-0.43341">
        <ele>1999.4</ele>
        <time>2021-08-10 13:43:49</time>
      </trkpt>
      <trkpt lat="42.83395" lon="-0.43342">
        <ele>1999.2</ele>
        <time>2021-08-10 13:43:50</time>
      </trkpt>
      <trkpt lat="42.83396" lon="-0.43342">
        <ele>1999.2</ele>
        <time>2021-08-10 13:43:51</time>
      </trkpt>
      <trkpt lat="42.83396" lon="-0.43342">
        <ele>1999.2</ele>
        <time>2021-08-10 13:43:52</time>
      </trkpt>
      <trkpt lat="42.83396" lon="-0.43342">
        <ele>1999</ele>
        <time>2021-08-10 13:43:53</time>
      </trkpt>
      <trkpt lat="42.83397" lon="-0.43342">
        <ele>1999</ele>
        <time>2021-08-10 13:43:54</time>
      </trkpt>
      <trkpt lat="42.83397" lon="-0.43342">
        <ele>1998.6</ele>
        <time>2021-08-10 13:43:55</time>
      </trkpt>
      <trkpt lat="42.83397" lon="-0.43341">
        <ele>1998.6</ele>
        <time>2021-08-10 13:43:56</time>
      </trkpt>
      <trkpt lat="42.83398" lon="-0.4334">
        <ele>1998.4</ele>
        <time>2021-08-10 13:43:57</time>
      </trkpt>
      <trkpt lat="42.83398" lon="-0.43341">
        <ele>1998</ele>
        <time>2021-08-10 13:43:58</time>
      </trkpt>
      <trkpt lat="42.83399" lon="-0.43341">
        <ele>1998</ele>
        <time>2021-08-10 13:43:59</time>
      </trkpt>
      <trkpt lat="42.83399" lon="-0.43341">
        <ele>1997.8</ele>
        <time>2021-08-10 13:44:00</time>
      </trkpt>
      <trkpt lat="42.834" lon="-0.43341">
        <ele>1997.6</ele>
        <time>2021-08-10 13:44:01</time>
      </trkpt>
      <trkpt lat="42.83401" lon="-0.43341">
        <ele>1997.4</ele>
        <time>2021-08-10 13:44:02</time>
      </trkpt>
      <trkpt lat="42.83401" lon="-0.43341">
        <ele>1997.2</ele>
        <time>2021-08-10 13:44:03</time>
      </trkpt>
      <trkpt lat="42.83402" lon="-0.43342">
        <ele>1997</ele>
        <time>2021-08-10 13:44:04</time>
      </trkpt>
      <trkpt lat="42.83403" lon="-0.43343">
        <ele>1996.8</ele>
        <time>2021-08-10 13:44:06</time>
      </trkpt>
      <trkpt lat="42.83403" lon="-0.43343">
        <ele>1996.8</ele>
        <time>2021-08-10 13:44:07</time>
      </trkpt>
      <trkpt lat="42.83404" lon="-0.43343">
        <ele>1996.6</ele>
        <time>2021-08-10 13:44:08</time>
      </trkpt>
      <trkpt lat="42.83404" lon="-0.43342">
        <ele>1996.4</ele>
        <time>2021-08-10 13:44:09</time>
      </trkpt>
      <trkpt lat="42.83405" lon="-0.43342">
        <ele>1996.2</ele>
        <time>2021-08-10 13:44:11</time>
      </trkpt>
      <trkpt lat="42.83406" lon="-0.43342">
        <ele>1995.8</ele>
        <time>2021-08-10 13:44:12</time>
      </trkpt>
      <trkpt lat="42.83406" lon="-0.43342">
        <ele>1995.6</ele>
        <time>2021-08-10 13:44:13</time>
      </trkpt>
      <trkpt lat="42.83407" lon="-0.43343">
        <ele>1995.2</ele>
        <time>2021-08-10 13:44:14</time>
      </trkpt>
      <trkpt lat="42.83408" lon="-0.43342">
        <ele>1994.8</ele>
        <time>2021-08-10 13:44:15</time>
      </trkpt>
      <trkpt lat="42.83408" lon="-0.43342">
        <ele>1994.8</ele>
        <time>2021-08-10 13:44:16</time>
      </trkpt>
      <trkpt lat="42.83409" lon="-0.43343">
        <ele>1995</ele>
        <time>2021-08-10 13:44:17</time>
      </trkpt>
      <trkpt lat="42.83409" lon="-0.43343">
        <ele>1995</ele>
        <time>2021-08-10 13:44:18</time>
      </trkpt>
      <trkpt lat="42.83409" lon="-0.43343">
        <ele>1995</ele>
        <time>2021-08-10 13:44:19</time>
      </trkpt>
      <trkpt lat="42.8341" lon="-0.43342">
        <ele>1994.6</ele>
        <time>2021-08-10 13:44:20</time>
      </trkpt>
      <trkpt lat="42.83411" lon="-0.43341">
        <ele>1994.6</ele>
        <time>2021-08-10 13:44:21</time>
      </trkpt>
      <trkpt lat="42.83412" lon="-0.43341">
        <ele>1994.4</ele>
        <time>2021-08-10 13:44:22</time>
      </trkpt>
      <trkpt lat="42.83412" lon="-0.4334">
        <ele>1994.4</ele>
        <time>2021-08-10 13:44:23</time>
      </trkpt>
      <trkpt lat="42.83414" lon="-0.4334">
        <ele>1994.4</ele>
        <time>2021-08-10 13:44:24</time>
      </trkpt>
      <trkpt lat="42.83414" lon="-0.4334">
        <ele>1994</ele>
        <time>2021-08-10 13:44:25</time>
      </trkpt>
      <trkpt lat="42.83413" lon="-0.4334">
        <ele>1994</ele>
        <time>2021-08-10 13:44:26</time>
      </trkpt>
      <trkpt lat="42.83413" lon="-0.4334">
        <ele>1993.8</ele>
        <time>2021-08-10 13:44:27</time>
      </trkpt>
      <trkpt lat="42.83413" lon="-0.43339">
        <ele>1994</ele>
        <time>2021-08-10 13:44:28</time>
      </trkpt>
      <trkpt lat="42.83413" lon="-0.43338">
        <ele>1994</ele>
        <time>2021-08-10 13:44:36</time>
      </trkpt>
      <trkpt lat="42.83413" lon="-0.43337">
        <ele>1993.6</ele>
        <time>2021-08-10 13:44:37</time>
      </trkpt>
      <trkpt lat="42.83413" lon="-0.43337">
        <ele>1993.6</ele>
        <time>2021-08-10 13:44:38</time>
      </trkpt>
      <trkpt lat="42.83414" lon="-0.43337">
        <ele>1993.4</ele>
        <time>2021-08-10 13:44:39</time>
      </trkpt>
      <trkpt lat="42.83414" lon="-0.43337">
        <ele>1993.2</ele>
        <time>2021-08-10 13:44:40</time>
      </trkpt>
      <trkpt lat="42.83414" lon="-0.43336">
        <ele>1993</ele>
        <time>2021-08-10 13:44:41</time>
      </trkpt>
      <trkpt lat="42.83414" lon="-0.43336">
        <ele>1993</ele>
        <time>2021-08-10 13:44:42</time>
      </trkpt>
      <trkpt lat="42.83414" lon="-0.43335">
        <ele>1992.8</ele>
        <time>2021-08-10 13:44:43</time>
      </trkpt>
      <trkpt lat="42.83414" lon="-0.43333">
        <ele>1992.6</ele>
        <time>2021-08-10 13:44:44</time>
      </trkpt>
      <trkpt lat="42.83414" lon="-0.43332">
        <ele>1992.6</ele>
        <time>2021-08-10 13:44:46</time>
      </trkpt>
      <trkpt lat="42.83415" lon="-0.43332">
        <ele>1992.6</ele>
        <time>2021-08-10 13:44:47</time>
      </trkpt>
      <trkpt lat="42.83415" lon="-0.43331">
        <ele>1992.6</ele>
        <time>2021-08-10 13:44:48</time>
      </trkpt>
      <trkpt lat="42.83416" lon="-0.4333">
        <ele>1992.6</ele>
        <time>2021-08-10 13:44:50</time>
      </trkpt>
      <trkpt lat="42.83416" lon="-0.4333">
        <ele>1992.4</ele>
        <time>2021-08-10 13:44:51</time>
      </trkpt>
      <trkpt lat="42.83417" lon="-0.43329">
        <ele>1992.2</ele>
        <time>2021-08-10 13:44:52</time>
      </trkpt>
      <trkpt lat="42.83417" lon="-0.43329">
        <ele>1992.2</ele>
        <time>2021-08-10 13:44:53</time>
      </trkpt>
      <trkpt lat="42.83418" lon="-0.4333">
        <ele>1992</ele>
        <time>2021-08-10 13:44:54</time>
      </trkpt>
      <trkpt lat="42.83419" lon="-0.43331">
        <ele>1991.6</ele>
        <time>2021-08-10 13:44:55</time>
      </trkpt>
      <trkpt lat="42.83419" lon="-0.43332">
        <ele>1991.4</ele>
        <time>2021-08-10 13:44:57</time>
      </trkpt>
      <trkpt lat="42.8342" lon="-0.43333">
        <ele>1991.4</ele>
        <time>2021-08-10 13:44:58</time>
      </trkpt>
      <trkpt lat="42.83421" lon="-0.43333">
        <ele>1991.2</ele>
        <time>2021-08-10 13:44:59</time>
      </trkpt>
      <trkpt lat="42.83421" lon="-0.43333">
        <ele>1991</ele>
        <time>2021-08-10 13:45:08</time>
      </trkpt>
      <trkpt lat="42.83421" lon="-0.43333">
        <ele>1991</ele>
        <time>2021-08-10 13:45:09</time>
      </trkpt>
      <trkpt lat="42.83421" lon="-0.43333">
        <ele>1991</ele>
        <time>2021-08-10 13:45:10</time>
      </trkpt>
      <trkpt lat="42.8342" lon="-0.43333">
        <ele>1990.8</ele>
        <time>2021-08-10 13:45:13</time>
      </trkpt>
      <trkpt lat="42.83421" lon="-0.43333">
        <ele>1990.8</ele>
        <time>2021-08-10 13:45:14</time>
      </trkpt>
      <trkpt lat="42.83421" lon="-0.43333">
        <ele>1990.8</ele>
        <time>2021-08-10 13:45:15</time>
      </trkpt>
      <trkpt lat="42.83421" lon="-0.43332">
        <ele>1990.6</ele>
        <time>2021-08-10 13:45:16</time>
      </trkpt>
      <trkpt lat="42.83421" lon="-0.43332">
        <ele>1990.6</ele>
        <time>2021-08-10 13:45:17</time>
      </trkpt>
      <trkpt lat="42.83421" lon="-0.43332">
        <ele>1990.4</ele>
        <time>2021-08-10 13:45:18</time>
      </trkpt>
      <trkpt lat="42.83421" lon="-0.43331">
        <ele>1990.2</ele>
        <time>2021-08-10 13:45:19</time>
      </trkpt>
      <trkpt lat="42.83421" lon="-0.43331">
        <ele>1990</ele>
        <time>2021-08-10 13:45:20</time>
      </trkpt>
      <trkpt lat="42.83422" lon="-0.4333">
        <ele>1990</ele>
        <time>2021-08-10 13:45:21</time>
      </trkpt>
      <trkpt lat="42.83422" lon="-0.43329">
        <ele>1990.2</ele>
        <time>2021-08-10 13:45:22</time>
      </trkpt>
      <trkpt lat="42.83422" lon="-0.43329">
        <ele>1990</ele>
        <time>2021-08-10 13:45:23</time>
      </trkpt>
      <trkpt lat="42.83422" lon="-0.43328">
        <ele>1989.8</ele>
        <time>2021-08-10 13:45:24</time>
      </trkpt>
      <trkpt lat="42.83423" lon="-0.43327">
        <ele>1989.6</ele>
        <time>2021-08-10 13:45:25</time>
      </trkpt>
      <trkpt lat="42.83423" lon="-0.43327">
        <ele>1989.6</ele>
        <time>2021-08-10 13:45:26</time>
      </trkpt>
      <trkpt lat="42.83424" lon="-0.43326">
        <ele>1989.2</ele>
        <time>2021-08-10 13:45:27</time>
      </trkpt>
      <trkpt lat="42.83425" lon="-0.43326">
        <ele>1989.2</ele>
        <time>2021-08-10 13:45:28</time>
      </trkpt>
      <trkpt lat="42.83426" lon="-0.43326">
        <ele>1988.8</ele>
        <time>2021-08-10 13:45:29</time>
      </trkpt>
      <trkpt lat="42.83426" lon="-0.43326">
        <ele>1988.6</ele>
        <time>2021-08-10 13:45:30</time>
      </trkpt>
      <trkpt lat="42.83427" lon="-0.43326">
        <ele>1988.6</ele>
        <time>2021-08-10 13:45:31</time>
      </trkpt>
      <trkpt lat="42.83427" lon="-0.43326">
        <ele>1988.6</ele>
        <time>2021-08-10 13:45:32</time>
      </trkpt>
      <trkpt lat="42.83428" lon="-0.43327">
        <ele>1988.4</ele>
        <time>2021-08-10 13:45:33</time>
      </trkpt>
      <trkpt lat="42.83428" lon="-0.43327">
        <ele>1988.2</ele>
        <time>2021-08-10 13:45:34</time>
      </trkpt>
      <trkpt lat="42.83429" lon="-0.43327">
        <ele>1988.4</ele>
        <time>2021-08-10 13:45:35</time>
      </trkpt>
      <trkpt lat="42.8343" lon="-0.43327">
        <ele>1988.2</ele>
        <time>2021-08-10 13:45:36</time>
      </trkpt>
      <trkpt lat="42.8343" lon="-0.43328">
        <ele>1988.2</ele>
        <time>2021-08-10 13:45:37</time>
      </trkpt>
      <trkpt lat="42.83431" lon="-0.43328">
        <ele>1988</ele>
        <time>2021-08-10 13:45:38</time>
      </trkpt>
      <trkpt lat="42.83431" lon="-0.43327">
        <ele>1988</ele>
        <time>2021-08-10 13:45:39</time>
      </trkpt>
      <trkpt lat="42.83432" lon="-0.43327">
        <ele>1987.8</ele>
        <time>2021-08-10 13:45:40</time>
      </trkpt>
      <trkpt lat="42.83432" lon="-0.43327">
        <ele>1987.8</ele>
        <time>2021-08-10 13:45:41</time>
      </trkpt>
      <trkpt lat="42.83432" lon="-0.43327">
        <ele>1987.6</ele>
        <time>2021-08-10 13:45:42</time>
      </trkpt>
      <trkpt lat="42.83432" lon="-0.43328">
        <ele>1987.6</ele>
        <time>2021-08-10 13:45:43</time>
      </trkpt>
      <trkpt lat="42.83432" lon="-0.43328">
        <ele>1987.4</ele>
        <time>2021-08-10 13:45:44</time>
      </trkpt>
      <trkpt lat="42.83433" lon="-0.43328">
        <ele>1987.2</ele>
        <time>2021-08-10 13:45:45</time>
      </trkpt>
      <trkpt lat="42.83434" lon="-0.43327">
        <ele>1987</ele>
        <time>2021-08-10 13:45:46</time>
      </trkpt>
      <trkpt lat="42.83435" lon="-0.43327">
        <ele>1986.8</ele>
        <time>2021-08-10 13:45:47</time>
      </trkpt>
      <trkpt lat="42.83435" lon="-0.43327">
        <ele>1986.6</ele>
        <time>2021-08-10 13:45:48</time>
      </trkpt>
      <trkpt lat="42.83436" lon="-0.43328">
        <ele>1986.6</ele>
        <time>2021-08-10 13:45:49</time>
      </trkpt>
      <trkpt lat="42.83436" lon="-0.43328">
        <ele>1986.2</ele>
        <time>2021-08-10 13:45:50</time>
      </trkpt>
      <trkpt lat="42.83437" lon="-0.43328">
        <ele>1986</ele>
        <time>2021-08-10 13:45:51</time>
      </trkpt>
      <trkpt lat="42.83438" lon="-0.43328">
        <ele>1986.2</ele>
        <time>2021-08-10 13:45:52</time>
      </trkpt>
      <trkpt lat="42.83439" lon="-0.43328">
        <ele>1985.8</ele>
        <time>2021-08-10 13:45:53</time>
      </trkpt>
      <trkpt lat="42.8344" lon="-0.43327">
        <ele>1985.4</ele>
        <time>2021-08-10 13:45:54</time>
      </trkpt>
      <trkpt lat="42.8344" lon="-0.43326">
        <ele>1985</ele>
        <time>2021-08-10 13:45:55</time>
      </trkpt>
      <trkpt lat="42.83441" lon="-0.43326">
        <ele>1985</ele>
        <time>2021-08-10 13:45:56</time>
      </trkpt>
      <trkpt lat="42.83441" lon="-0.43325">
        <ele>1984.6</ele>
        <time>2021-08-10 13:45:57</time>
      </trkpt>
      <trkpt lat="42.83442" lon="-0.43325">
        <ele>1984.4</ele>
        <time>2021-08-10 13:45:58</time>
      </trkpt>
      <trkpt lat="42.83443" lon="-0.43325">
        <ele>1984.4</ele>
        <time>2021-08-10 13:45:59</time>
      </trkpt>
      <trkpt lat="42.83443" lon="-0.43324">
        <ele>1984.2</ele>
      </trkpt>
      <trkpt lat="42.83443" lon="-0.43324">
        <ele>1984</ele>
        <time>2021-08-10 13:46:01</time>
      </trkpt>
      <trkpt lat="42.83444" lon="-0.43323">
        <ele>1983.8</ele>
        <time>2021-08-10 13:46:02</time>
      </trkpt>
      <trkpt lat="42.83445" lon="-0.43322">
        <ele>1983.6</ele>
        <time>2021-08-10 13:46:03</time>
      </trkpt>
      <trkpt lat="42.83444" lon="-0.43322">
        <ele>1983.4</ele>
        <time>2021-08-10 13:46:04</time>
      </trkpt>
      <trkpt lat="42.83444" lon="-0.43321">
        <ele>1983.4</ele>
        <time>2021-08-10 13:46:05</time>
      </trkpt>
      <trkpt lat="42.83444" lon="-0.4332">
        <ele>1983</ele>
        <time>2021-08-10 13:46:06</time>
      </trkpt>
      <trkpt lat="42.83445" lon="-0.4332">
        <ele>1982.8</ele>
        <time>2021-08-10 13:46:07</time>
      </trkpt>
      <trkpt lat="42.83445" lon="-0.4332">
        <ele>1982.8</ele>
        <time>2021-08-10 13:46:08</time>
      </trkpt>
      <trkpt lat="42.83445" lon="-0.43319">
        <ele>1982.6</ele>
        <time>2021-08-10 13:46:09</time>
      </trkpt>
      <trkpt lat="42.83446" lon="-0.43319">
        <ele>1982.6</ele>
        <time>2021-08-10 13:46:10</time>
      </trkpt>
      <trkpt lat="42.83446" lon="-0.43319">
        <ele>1982.4</ele>
        <time>2021-08-10 13:46:11</time>
      </trkpt>
      <trkpt lat="42.83447" lon="-0.43318">
        <ele>1982.2</ele>
        <time>2021-08-10 13:46:12</time>
      </trkpt>
      <trkpt lat="42.83448" lon="-0.43318">
        <ele>1982</ele>
      </trkpt>
      <trkpt lat="42.83449" lon="-0.43318">
        <ele>1981.8</ele>
        <time>2021-08-10 13:46:13</time>
      </trkpt>
      <trkpt lat="42.8345" lon="-0.43319">
        <ele>1981.6</ele>
        <time>2021-08-10 13:46:14</time>
      </trkpt>
      <trkpt lat="42.8345" lon="-0.43319">
        <ele>1981.4</ele>
        <time>2021-08-10 13:46:16</time>
      </trkpt>
      <trkpt lat="42.8345" lon="-0.43319">
        <ele>1981.4</ele>
      </trkpt>
      <trkpt lat="42.83451" lon="-0.4332">
        <ele>1981.2</ele>
        <time>2021-08-10 13:46:17</time>
      </trkpt>
      <trkpt lat="42.83451" lon="-0.4332">
        <ele>1981.2</ele>
        <time>2021-08-10 13:46:18</time>
      </trkpt>
      <trkpt lat="42.83451" lon="-0.4332">
        <ele>1981.2</ele>
        <time>2021-08-10 13:46:19</time>
      </trkpt>
      <trkpt lat="42.83452" lon="-0.43321">
        <ele>1980.8</ele>
        <time>2021-08-10 13:46:20</time>
      </trkpt>
      <trkpt lat="42.83452" lon="-0.43321">
        <ele>1981</ele>
        <time>2021-08-10 13:46:21</time>
      </trkpt>
      <trkpt lat="42.83452" lon="-0.43322">
        <ele>1981</ele>
        <time>2021-08-10 13:46:22</time>
      </trkpt>
      <trkpt lat="42.83452" lon="-0.43323">
        <ele>1980.8</ele>
        <time>2021-08-10 13:46:23</time>
      </trkpt>
      <trkpt lat="42.83452" lon="-0.43324">
        <ele>1980.6</ele>
        <time>2021-08-10 13:46:24</time>
      </trkpt>
      <trkpt lat="42.83451" lon="-0.43324">
        <ele>1980.6</ele>
        <time>2021-08-10 13:46:25</time>
      </trkpt>
      <trkpt lat="42.83452" lon="-0.43324">
        <ele>1980.4</ele>
        <time>2021-08-10 13:46:26</time>
      </trkpt>
      <trkpt lat="42.83452" lon="-0.43324">
        <ele>1980</ele>
        <time>2021-08-10 13:46:27</time>
      </trkpt>
      <trkpt lat="42.83452" lon="-0.43325">
        <ele>1980</ele>
        <time>2021-08-10 13:46:28</time>
      </trkpt>
      <trkpt lat="42.83453" lon="-0.43325">
        <ele>1979.8</ele>
        <time>2021-08-10 13:46:29</time>
      </trkpt>
      <trkpt lat="42.83453" lon="-0.43325">
        <ele>1980</ele>
        <time>2021-08-10 13:46:30</time>
      </trkpt>
      <trkpt lat="42.83453" lon="-0.43325">
        <ele>1979.8</ele>
        <time>2021-08-10 13:46:31</time>
      </trkpt>
      <trkpt lat="42.83453" lon="-0.43325">
        <ele>1979.6</ele>
        <time>2021-08-10 13:46:32</time>
      </trkpt>
      <trkpt lat="42.83453" lon="-0.43325">
        <ele>1979.6</ele>
        <time>2021-08-10 13:46:33</time>
      </trkpt>
      <trkpt lat="42.83454" lon="-0.43325">
        <ele>1979.6</ele>
        <time>2021-08-10 13:46:34</time>
      </trkpt>
      <trkpt lat="42.83455" lon="-0.43325">
        <ele>1979.4</ele>
        <time>2021-08-10 13:46:36</time>
      </trkpt>
      <trkpt lat="42.83455" lon="-0.43326">
        <ele>1979.2</ele>
      </trkpt>
      <trkpt lat="42.83455" lon="-0.43326">
        <ele>1979</ele>
        <time>2021-08-10 13:46:37</time>
      </trkpt>
      <trkpt lat="42.83456" lon="-0.43326">
        <ele>1979</ele>
        <time>2021-08-10 13:46:38</time>
      </trkpt>
      <trkpt lat="42.83456" lon="-0.43326">
        <ele>1979.2</ele>
        <time>2021-08-10 13:46:39</time>
      </trkpt>
      <trkpt lat="42.83456" lon="-0.43327">
        <ele>1979</ele>
        <time>2021-08-10 13:46:40</time>
      </trkpt>
      <trkpt lat="42.83457" lon="-0.43327">
        <ele>1978.8</ele>
        <time>2021-08-10 13:46:41</time>
      </trkpt>
      <trkpt lat="42.83457" lon="-0.43327">
        <ele>1978.6</ele>
        <time>2021-08-10 13:46:42</time>
      </trkpt>
      <trkpt lat="42.83458" lon="-0.43327">
        <ele>1978.4</ele>
        <time>2021-08-10 13:46:43</time>
      </trkpt>
      <trkpt lat="42.83458" lon="-0.43327">
        <ele>1978</ele>
        <time>2021-08-10 13:46:44</time>
      </trkpt>
      <trkpt lat="42.83458" lon="-0.43327">
        <ele>1977.8</ele>
        <time>2021-08-10 13:46:45</time>
      </trkpt>
      <trkpt lat="42.83459" lon="-0.43328">
        <ele>1977.6</ele>
        <time>2021-08-10 13:46:46</time>
      </trkpt>
      <trkpt lat="42.83459" lon="-0.43328">
        <ele>1977.8</ele>
        <time>2021-08-10 13:46:47</time>
      </trkpt>
      <trkpt lat="42.83459" lon="-0.43329">
        <ele>1977.6</ele>
        <time>2021-08-10 13:46:48</time>
      </trkpt>
      <trkpt lat="42.83459" lon="-0.43329">
        <ele>1977.6</ele>
        <time>2021-08-10 13:46:49</time>
      </trkpt>
      <trkpt lat="42.83459" lon="-0.4333">
        <ele>1977.4</ele>
        <time>2021-08-10 13:46:50</time>
      </trkpt>
      <trkpt lat="42.8346" lon="-0.4333">
        <ele>1977</ele>
        <time>2021-08-10 13:46:51</time>
      </trkpt>
      <trkpt lat="42.8346" lon="-0.43331">
        <ele>1977</ele>
        <time>2021-08-10 13:46:52</time>
      </trkpt>
      <trkpt lat="42.8346" lon="-0.43332">
        <ele>1977</ele>
        <time>2021-08-10 13:46:53</time>
      </trkpt>
      <trkpt lat="42.8346" lon="-0.43332">
        <ele>1977</ele>
        <time>2021-08-10 13:46:55</time>
      </trkpt>
      <trkpt lat="42.8346" lon="-0.43333">
        <ele>1976.8</ele>
      </trkpt>
      <trkpt lat="42.8346" lon="-0.43333">
        <ele>1976.8</ele>
        <time>2021-08-10 13:46:56</time>
      </trkpt>
      <trkpt lat="42.83461" lon="-0.43333">
        <ele>1976.6</ele>
        <time>2021-08-10 13:46:57</time>
      </trkpt>
      <trkpt lat="42.83461" lon="-0.43334">
        <ele>1976.4</ele>
        <time>2021-08-10 13:46:58</time>
      </trkpt>
      <trkpt lat="42.83461" lon="-0.43334">
        <ele>1976.2</ele>
        <time>2021-08-10 13:46:59</time>
      </trkpt>
      <trkpt lat="42.83462" lon="-0.43334">
        <ele>1976</ele>
        <time>2021-08-10 13:47:00</time>
      </trkpt>
      <trkpt lat="42.83462" lon="-0.43334">
        <ele>1975.8</ele>
        <time>2021-08-10 13:47:01</time>
      </trkpt>
      <trkpt lat="42.83463" lon="-0.43334">
        <ele>1975.8</ele>
        <time>2021-08-10 13:47:02</time>
      </trkpt>
      <trkpt lat="42.83463" lon="-0.43334">
        <ele>1976</ele>
        <time>2021-08-10 13:47:03</time>
      </trkpt>
      <trkpt lat="42.83463" lon="-0.43334">
        <ele>1975.8</ele>
        <time>2021-08-10 13:47:04</time>
      </trkpt>
      <trkpt lat="42.83463" lon="-0.43334">
        <ele>1975.8</ele>
        <time>2021-08-10 13:47:05</time>
      </trkpt>
      <trkpt lat="42.83463" lon="-0.43333">
        <ele>1975.8</ele>
        <time>2021-08-10 13:47:06</time>
      </trkpt>
      <trkpt lat="42.83463" lon="-0.43334">
        <ele>1976</ele>
        <time>2021-08-10 13:47:07</time>
      </trkpt>
      <trkpt lat="42.83462" lon="-0.43333">
        <ele>1976</ele>
        <time>2021-08-10 13:47:08</time>
      </trkpt>
      <trkpt lat="42.83463" lon="-0.43334">
        <ele>1976</ele>
        <time>2021-08-10 13:47:09</time>
      </trkpt>
      <trkpt lat="42.83463" lon="-0.43335">
        <ele>1976</ele>
        <time>2021-08-10 13:47:10</time>
      </trkpt>
      <trkpt lat="42.83463" lon="-0.43335">
        <ele>1975.6</ele>
        <time>2021-08-10 13:47:11</time>
      </trkpt>
      <trkpt lat="42.83463" lon="-0.43335">
        <ele>1975.6</ele>
        <time>2021-08-10 13:47:12</time>
      </trkpt>
      <trkpt lat="42.83463" lon="-0.43335">
        <ele>1975.4</ele>
        <time>2021-08-10 13:47:13</time>
      </trkpt>
      <trkpt lat="42.83463" lon="-0.43335">
        <ele>1975.6</ele>
        <time>2021-08-10 13:47:14</time>
      </trkpt>
      <trkpt lat="42.83463" lon="-0.43335">
        <ele>1975.6</ele>
        <time>2021-08-10 13:47:15</time>
      </trkpt>
      <trkpt lat="42.83464" lon="-0.43334">
        <ele>1975.2</ele>
        <time>2021-08-10 13:47:16</time>
      </trkpt>
      <trkpt lat="42.83464" lon="-0.43334">
        <ele>1975.2</ele>
        <time>2021-08-10 13:47:17</time>
      </trkpt>
      <trkpt lat="42.83464" lon="-0.43334">
        <ele>1975.2</ele>
        <time>2021-08-10 13:47:18</time>
      </trkpt>
      <trkpt lat="42.83464" lon="-0.43334">
        <ele>1975.2</ele>
        <time>2021-08-10 13:47:19</time>
      </trkpt>
      <trkpt lat="42.83464" lon="-0.43335">
        <ele>1974.8</ele>
        <time>2021-08-10 13:47:20</time>
      </trkpt>
      <trkpt lat="42.83464" lon="-0.43335">
        <ele>1974.6</ele>
        <time>2021-08-10 13:47:21</time>
      </trkpt>
      <trkpt lat="42.83465" lon="-0.43334">
        <ele>1974.4</ele>
        <time>2021-08-10 13:47:22</time>
      </trkpt>
      <trkpt lat="42.83465" lon="-0.43334">
        <ele>1974</ele>
        <time>2021-08-10 13:47:23</time>
      </trkpt>
      <trkpt lat="42.83465" lon="-0.43334">
        <ele>1973.8</ele>
        <time>2021-08-10 13:47:35</time>
      </trkpt>
      <trkpt lat="42.83466" lon="-0.43334">
        <ele>1973.8</ele>
        <time>2021-08-10 13:47:36</time>
      </trkpt>
      <trkpt lat="42.83466" lon="-0.43334">
        <ele>1973.8</ele>
        <time>2021-08-10 13:47:37</time>
      </trkpt>
      <trkpt lat="42.83466" lon="-0.43335">
        <ele>1973.8</ele>
        <time>2021-08-10 13:47:38</time>
      </trkpt>
      <trkpt lat="42.83467" lon="-0.43335">
        <ele>1973.6</ele>
        <time>2021-08-10 13:47:42</time>
      </trkpt>
      <trkpt lat="42.83467" lon="-0.43334">
        <ele>1973.2</ele>
        <time>2021-08-10 13:47:43</time>
      </trkpt>
      <trkpt lat="42.83467" lon="-0.43334">
        <ele>1973.2</ele>
        <time>2021-08-10 13:47:44</time>
      </trkpt>
      <trkpt lat="42.83467" lon="-0.43334">
        <ele>1973</ele>
        <time>2021-08-10 13:47:45</time>
      </trkpt>
      <trkpt lat="42.83468" lon="-0.43334">
        <ele>1972.8</ele>
        <time>2021-08-10 13:47:46</time>
      </trkpt>
      <trkpt lat="42.83468" lon="-0.43334">
        <ele>1972.6</ele>
        <time>2021-08-10 13:47:47</time>
      </trkpt>
      <trkpt lat="42.83469" lon="-0.43335">
        <ele>1972.6</ele>
        <time>2021-08-10 13:47:48</time>
      </trkpt>
      <trkpt lat="42.8347" lon="-0.43335">
        <ele>1972.6</ele>
        <time>2021-08-10 13:47:49</time>
      </trkpt>
      <trkpt lat="42.8347" lon="-0.43335">
        <ele>1972.4</ele>
        <time>2021-08-10 13:47:50</time>
      </trkpt>
      <trkpt lat="42.83471" lon="-0.43335">
        <ele>1972.2</ele>
        <time>2021-08-10 13:47:51</time>
      </trkpt>
      <trkpt lat="42.83471" lon="-0.43335">
        <ele>1972</ele>
        <time>2021-08-10 13:47:52</time>
      </trkpt>
      <trkpt lat="42.83472" lon="-0.43334">
        <ele>1972</ele>
        <time>2021-08-10 13:47:53</time>
      </trkpt>
      <trkpt lat="42.83472" lon="-0.43335">
        <ele>1971.8</ele>
        <time>2021-08-10 13:47:54</time>
      </trkpt>
      <trkpt lat="42.83473" lon="-0.43336">
        <ele>1971.8</ele>
        <time>2021-08-10 13:47:55</time>
      </trkpt>
      <trkpt lat="42.83473" lon="-0.43336">
        <ele>1971.4</ele>
        <time>2021-08-10 13:47:56</time>
      </trkpt>
      <trkpt lat="42.83474" lon="-0.43336">
        <ele>1971.2</ele>
        <time>2021-08-10 13:47:57</time>
      </trkpt>
      <trkpt lat="42.83474" lon="-0.43337">
        <ele>1971.2</ele>
        <time>2021-08-10 13:47:58</time>
      </trkpt>
      <trkpt lat="42.83475" lon="-0.43337">
        <ele>1971</ele>
        <time>2021-08-10 13:47:59</time>
      </trkpt>
      <trkpt lat="42.83476" lon="-0.43337">
        <ele>1970.8</ele>
        <time>2021-08-10 13:48:00</time>
      </trkpt>
      <trkpt lat="42.83476" lon="-0.43337">
        <ele>1970.8</ele>
        <time>2021-08-10 13:48:01</time>
      </trkpt>
      <trkpt lat="42.83477" lon="-0.43337">
        <ele>1970.4</ele>
        <time>2021-08-10 13:48:02</time>
      </trkpt>
      <trkpt lat="42.83477" lon="-0.43337">
        <ele>1970.2</ele>
        <time>2021-08-10 13:48:03</time>
      </trkpt>
      <trkpt lat="42.83478" lon="-0.43337">
        <ele>1970</ele>
        <time>2021-08-10 13:48:04</time>
      </trkpt>
      <trkpt lat="42.83478" lon="-0.43337">
        <ele>1969.8</ele>
        <time>2021-08-10 13:48:05</time>
      </trkpt>
      <trkpt lat="42.83479" lon="-0.43338">
        <ele>1969.4</ele>
        <time>2021-08-10 13:48:06</time>
      </trkpt>
      <trkpt lat="42.83479" lon="-0.43339">
        <ele>1969.4</ele>
        <time>2021-08-10 13:48:07</time>
      </trkpt>
      <trkpt lat="42.83479" lon="-0.43339">
        <ele>1969.8</ele>
        <time>2021-08-10 13:48:19</time>
      </trkpt>
      <trkpt lat="42.83481" lon="-0.43338">
        <ele>1969.8</ele>
        <time>2021-08-10 13:48:20</time>
      </trkpt>
      <trkpt lat="42.83481" lon="-0.43338">
        <ele>1969.6</ele>
        <time>2021-08-10 13:48:21</time>
      </trkpt>
      <trkpt lat="42.83482" lon="-0.43337">
        <ele>1969</ele>
        <time>2021-08-10 13:48:22</time>
      </trkpt>
      <trkpt lat="42.83483" lon="-0.43336">
        <ele>1969</ele>
        <time>2021-08-10 13:48:23</time>
      </trkpt>
      <trkpt lat="42.83483" lon="-0.43336">
        <ele>1969</ele>
        <time>2021-08-10 13:48:24</time>
      </trkpt>
      <trkpt lat="42.83484" lon="-0.43336">
        <ele>1969</ele>
        <time>2021-08-10 13:48:25</time>
      </trkpt>
      <trkpt lat="42.83485" lon="-0.43336">
        <ele>1968.6</ele>
        <time>2021-08-10 13:48:26</time>
      </trkpt>
      <trkpt lat="42.83485" lon="-0.43336">
        <ele>1968.6</ele>
        <time>2021-08-10 13:48:27</time>
      </trkpt>
      <trkpt lat="42.83486" lon="-0.43337">
        <ele>1968.4</ele>
        <time>2021-08-10 13:48:28</time>
      </trkpt>
      <trkpt lat="42.83487" lon="-0.43336">
        <ele>1968.2</ele>
        <time>2021-08-10 13:48:29</time>
      </trkpt>
      <trkpt lat="42.83488" lon="-0.43336">
        <ele>1968.2</ele>
        <time>2021-08-10 13:48:30</time>
      </trkpt>
      <trkpt lat="42.83489" lon="-0.43336">
        <ele>1967.8</ele>
        <time>2021-08-10 13:48:31</time>
      </trkpt>
      <trkpt lat="42.8349" lon="-0.43335">
        <ele>1967.8</ele>
        <time>2021-08-10 13:48:32</time>
      </trkpt>
      <trkpt lat="42.83491" lon="-0.43335">
        <ele>1967.8</ele>
        <time>2021-08-10 13:48:33</time>
      </trkpt>
      <trkpt lat="42.83492" lon="-0.43335">
        <ele>1967.8</ele>
        <time>2021-08-10 13:48:34</time>
      </trkpt>
      <trkpt lat="42.83493" lon="-0.43334">
        <ele>1967.6</ele>
        <time>2021-08-10 13:48:35</time>
      </trkpt>
      <trkpt lat="42.83495" lon="-0.43333">
        <ele>1967.4</ele>
        <time>2021-08-10 13:48:36</time>
      </trkpt>
      <trkpt lat="42.83496" lon="-0.43333">
        <ele>1967.4</ele>
        <time>2021-08-10 13:48:37</time>
      </trkpt>
      <trkpt lat="42.83497" lon="-0.43333">
        <ele>1967.4</ele>
        <time>2021-08-10 13:48:38</time>
      </trkpt>
      <trkpt lat="42.83498" lon="-0.43332">
        <ele>1967.4</ele>
        <time>2021-08-10 13:48:39</time>
      </trkpt>
      <trkpt lat="42.83498" lon="-0.43331">
        <ele>1967.2</ele>
        <time>2021-08-10 13:48:40</time>
      </trkpt>
      <trkpt lat="42.83499" lon="-0.4333">
        <ele>1967.2</ele>
        <time>2021-08-10 13:48:41</time>
      </trkpt>
      <trkpt lat="42.835" lon="-0.43329">
        <ele>1967</ele>
        <time>2021-08-10 13:48:42</time>
      </trkpt>
      <trkpt lat="42.83501" lon="-0.43329">
        <ele>1966.8</ele>
        <time>2021-08-10 13:48:43</time>
      </trkpt>
      <trkpt lat="42.83502" lon="-0.43328">
        <ele>1966.8</ele>
        <time>2021-08-10 13:48:44</time>
      </trkpt>
      <trkpt lat="42.83502" lon="-0.43327">
        <ele>1966.6</ele>
        <time>2021-08-10 13:48:45</time>
      </trkpt>
      <trkpt lat="42.83502" lon="-0.43327">
        <ele>1966.6</ele>
        <time>2021-08-10 13:48:46</time>
      </trkpt>
      <trkpt lat="42.83503" lon="-0.43326">
        <ele>1966.4</ele>
        <time>2021-08-10 13:48:47</time>
      </trkpt>
      <trkpt lat="42.83504" lon="-0.43325">
        <ele>1966.2</ele>
        <time>2021-08-10 13:48:48</time>
      </trkpt>
      <trkpt lat="42.83505" lon="-0.43324">
        <ele>1966.2</ele>
        <time>2021-08-10 13:48:49</time>
      </trkpt>
      <trkpt lat="42.83506" lon="-0.43323">
        <ele>1966.2</ele>
        <time>2021-08-10 13:48:50</time>
      </trkpt>
      <trkpt lat="42.83507" lon="-0.43323">
        <ele>1966</ele>
        <time>2021-08-10 13:48:51</time>
      </trkpt>
      <trkpt lat="42.83508" lon="-0.43322">
        <ele>1965.8</ele>
        <time>2021-08-10 13:48:52</time>
      </trkpt>
      <trkpt lat="42.83508" lon="-0.43322">
        <ele>1965.6</ele>
        <time>2021-08-10 13:48:53</time>
      </trkpt>
      <trkpt lat="42.83509" lon="-0.43322">
        <ele>1965.6</ele>
        <time>2021-08-10 13:48:54</time>
      </trkpt>
      <trkpt lat="42.83509" lon="-0.43323">
        <ele>1965.6</ele>
        <time>2021-08-10 13:48:55</time>
      </trkpt>
      <trkpt lat="42.8351" lon="-0.43323">
        <ele>1965.6</ele>
        <time>2021-08-10 13:48:56</time>
      </trkpt>
      <trkpt lat="42.83511" lon="-0.43322">
        <ele>1965.6</ele>
        <time>2021-08-10 13:48:57</time>
      </trkpt>
      <trkpt lat="42.83512" lon="-0.43322">
        <ele>1965.4</ele>
        <time>2021-08-10 13:48:58</time>
      </trkpt>
      <trkpt lat="42.83513" lon="-0.43321">
        <ele>1965.2</ele>
        <time>2021-08-10 13:48:59</time>
      </trkpt>
      <trkpt lat="42.83514" lon="-0.4332">
        <ele>1965.2</ele>
        <time>2021-08-10 13:49:00</time>
      </trkpt>
      <trkpt lat="42.83514" lon="-0.4332">
        <ele>1964.8</ele>
        <time>2021-08-10 13:49:01</time>
      </trkpt>
      <trkpt lat="42.83514" lon="-0.43318">
        <ele>1965</ele>
        <time>2021-08-10 13:49:02</time>
      </trkpt>
      <trkpt lat="42.83515" lon="-0.43318">
        <ele>1964.8</ele>
        <time>2021-08-10 13:49:03</time>
      </trkpt>
      <trkpt lat="42.83515" lon="-0.43318">
        <ele>1964.8</ele>
        <time>2021-08-10 13:49:04</time>
      </trkpt>
      <trkpt lat="42.83515" lon="-0.43318">
        <ele>1964.8</ele>
        <time>2021-08-10 13:49:05</time>
      </trkpt>
      <trkpt lat="42.83516" lon="-0.43318">
        <ele>1964.8</ele>
        <time>2021-08-10 13:49:06</time>
      </trkpt>
      <trkpt lat="42.83516" lon="-0.43318">
        <ele>1965</ele>
        <time>2021-08-10 13:49:07</time>
      </trkpt>
      <trkpt lat="42.83517" lon="-0.43318">
        <ele>1964.8</ele>
        <time>2021-08-10 13:49:08</time>
      </trkpt>
      <trkpt lat="42.83517" lon="-0.43317">
        <ele>1964.6</ele>
        <time>2021-08-10 13:49:11</time>
      </trkpt>
      <trkpt lat="42.83518" lon="-0.43317">
        <ele>1964.6</ele>
        <time>2021-08-10 13:49:12</time>
      </trkpt>
      <trkpt lat="42.83518" lon="-0.43317">
        <ele>1964.2</ele>
        <time>2021-08-10 13:49:13</time>
      </trkpt>
      <trkpt lat="42.83519" lon="-0.43317">
        <ele>1964</ele>
        <time>2021-08-10 13:49:14</time>
      </trkpt>
      <trkpt lat="42.83519" lon="-0.43317">
        <ele>1964</ele>
        <time>2021-08-10 13:49:15</time>
      </trkpt>
      <trkpt lat="42.8352" lon="-0.43317">
        <ele>1964</ele>
        <time>2021-08-10 13:49:16</time>
      </trkpt>
      <trkpt lat="42.83521" lon="-0.43318">
        <ele>1963.6</ele>
        <time>2021-08-10 13:49:17</time>
      </trkpt>
      <trkpt lat="42.83521" lon="-0.43317">
        <ele>1963.6</ele>
        <time>2021-08-10 13:49:18</time>
      </trkpt>
      <trkpt lat="42.83522" lon="-0.43317">
        <ele>1963.4</ele>
        <time>2021-08-10 13:49:19</time>
      </trkpt>
      <trkpt lat="42.83522" lon="-0.43317">
        <ele>1963.2</ele>
        <time>2021-08-10 13:49:20</time>
      </trkpt>
      <trkpt lat="42.83523" lon="-0.43317">
        <ele>1963.2</ele>
        <time>2021-08-10 13:49:21</time>
      </trkpt>
      <trkpt lat="42.83523" lon="-0.43316">
        <ele>1963.2</ele>
        <time>2021-08-10 13:49:22</time>
      </trkpt>
      <trkpt lat="42.83523" lon="-0.43316">
        <ele>1963.2</ele>
        <time>2021-08-10 13:49:23</time>
      </trkpt>
      <trkpt lat="42.83523" lon="-0.43315">
        <ele>1963</ele>
        <time>2021-08-10 13:49:24</time>
      </trkpt>
      <trkpt lat="42.83524" lon="-0.43314">
        <ele>1962.8</ele>
        <time>2021-08-10 13:49:25</time>
      </trkpt>
      <trkpt lat="42.83524" lon="-0.43314">
        <ele>1962.8</ele>
        <time>2021-08-10 13:49:26</time>
      </trkpt>
      <trkpt lat="42.83525" lon="-0.43314">
        <ele>1962.8</ele>
        <time>2021-08-10 13:49:27</time>
      </trkpt>
      <trkpt lat="42.83525" lon="-0.43314">
        <ele>1962.6</ele>
        <time>2021-08-10 13:49:28</time>
      </trkpt>
      <trkpt lat="42.83526" lon="-0.43314">
        <ele>1962.4</ele>
        <time>2021-08-10 13:49:29</time>
      </trkpt>
      <trkpt lat="42.83526" lon="-0.43313">
        <ele>1962.2</ele>
        <time>2021-08-10 13:49:30</time>
      </trkpt>
      <trkpt lat="42.83527" lon="-0.43313">
        <ele>1962.2</ele>
        <time>2021-08-10 13:49:31</time>
      </trkpt>
      <trkpt lat="42.83527" lon="-0.43312">
        <ele>1962</ele>
        <time>2021-08-10 13:49:32</time>
      </trkpt>
      <trkpt lat="42.83527" lon="-0.43312">
        <ele>1961.6</ele>
        <time>2021-08-10 13:49:33</time>
      </trkpt>
      <trkpt lat="42.83528" lon="-0.43311">
        <ele>1961.4</ele>
        <time>2021-08-10 13:49:34</time>
      </trkpt>
      <trkpt lat="42.83528" lon="-0.43311">
        <ele>1961.4</ele>
        <time>2021-08-10 13:49:35</time>
      </trkpt>
      <trkpt lat="42.83528" lon="-0.43311">
        <ele>1961.4</ele>
        <time>2021-08-10 13:49:36</time>
      </trkpt>
      <trkpt lat="42.83528" lon="-0.43311">
        <ele>1961.2</ele>
        <time>2021-08-10 13:49:37</time>
      </trkpt>
      <trkpt lat="42.83528" lon="-0.43311">
        <ele>1961.4</ele>
        <time>2021-08-10 13:49:38</time>
      </trkpt>
      <trkpt lat="42.83529" lon="-0.43311">
        <ele>1961.2</ele>
        <time>2021-08-10 13:49:39</time>
      </trkpt>
      <trkpt lat="42.83529" lon="-0.4331">
        <ele>1960.6</ele>
        <time>2021-08-10 13:49:40</time>
      </trkpt>
      <trkpt lat="42.83529" lon="-0.43309">
        <ele>1960.6</ele>
        <time>2021-08-10 13:49:41</time>
      </trkpt>
      <trkpt lat="42.83529" lon="-0.43309">
        <ele>1960.4</ele>
        <time>2021-08-10 13:49:42</time>
      </trkpt>
      <trkpt lat="42.8353" lon="-0.43309">
        <ele>1959.8</ele>
        <time>2021-08-10 13:49:43</time>
      </trkpt>
      <trkpt lat="42.8353" lon="-0.43308">
        <ele>1959.6</ele>
        <time>2021-08-10 13:49:44</time>
      </trkpt>
      <trkpt lat="42.8353" lon="-0.43308">
        <ele>1959.6</ele>
        <time>2021-08-10 13:49:45</time>
      </trkpt>
      <trkpt lat="42.83531" lon="-0.43308">
        <ele>1959.4</ele>
        <time>2021-08-10 13:49:46</time>
      </trkpt>
      <trkpt lat="42.83531" lon="-0.43308">
        <ele>1959.4</ele>
        <time>2021-08-10 13:49:47</time>
      </trkpt>
      <trkpt lat="42.83532" lon="-0.43308">
        <ele>1959.4</ele>
        <time>2021-08-10 13:49:48</time>
      </trkpt>
      <trkpt lat="42.83532" lon="-0.43307">
        <ele>1959.2</ele>
        <time>2021-08-10 13:49:49</time>
      </trkpt>
      <trkpt lat="42.83532" lon="-0.43306">
        <ele>1959.2</ele>
        <time>2021-08-10 13:49:50</time>
      </trkpt>
      <trkpt lat="42.83532" lon="-0.43307">
        <ele>1958.8</ele>
        <time>2021-08-10 13:49:51</time>
      </trkpt>
      <trkpt lat="42.83532" lon="-0.43305">
        <ele>1958.6</ele>
        <time>2021-08-10 13:49:53</time>
      </trkpt>
      <trkpt lat="42.83532" lon="-0.43305">
        <ele>1958.2</ele>
        <time>2021-08-10 13:49:54</time>
      </trkpt>
      <trkpt lat="42.83532" lon="-0.43305">
        <ele>1958.2</ele>
        <time>2021-08-10 13:49:55</time>
      </trkpt>
      <trkpt lat="42.83533" lon="-0.43305">
        <ele>1958.2</ele>
        <time>2021-08-10 13:49:56</time>
      </trkpt>
      <trkpt lat="42.83533" lon="-0.43305">
        <ele>1958.2</ele>
        <time>2021-08-10 13:49:57</time>
      </trkpt>
      <trkpt lat="42.83533" lon="-0.43305">
        <ele>1958</ele>
        <time>2021-08-10 13:49:58</time>
      </trkpt>
      <trkpt lat="42.83533" lon="-0.43305">
        <ele>1957.8</ele>
        <time>2021-08-10 13:49:59</time>
      </trkpt>
      <trkpt lat="42.83534" lon="-0.43306">
        <ele>1958</ele>
        <time>2021-08-10 13:50:00</time>
      </trkpt>
      <trkpt lat="42.83535" lon="-0.43306">
        <ele>1958</ele>
        <time>2021-08-10 13:50:01</time>
      </trkpt>
      <trkpt lat="42.83535" lon="-0.43305">
        <ele>1958</ele>
        <time>2021-08-10 13:50:02</time>
      </trkpt>
      <trkpt lat="42.83536" lon="-0.43305">
        <ele>1957.6</ele>
        <time>2021-08-10 13:50:03</time>
      </trkpt>
      <trkpt lat="42.83536" lon="-0.43304">
        <ele>1957.2</ele>
        <time>2021-08-10 13:50:04</time>
      </trkpt>
      <trkpt lat="42.83536" lon="-0.43302">
        <ele>1956.8</ele>
        <time>2021-08-10 13:50:05</time>
      </trkpt>
      <trkpt lat="42.83536" lon="-0.43301">
        <ele>1956.8</ele>
        <time>2021-08-10 13:50:06</time>
      </trkpt>
      <trkpt lat="42.83535" lon="-0.433">
        <ele>1956.6</ele>
        <time>2021-08-10 13:50:07</time>
      </trkpt>
      <trkpt lat="42.83536" lon="-0.43299">
        <ele>1956.4</ele>
        <time>2021-08-10 13:50:08</time>
      </trkpt>
      <trkpt lat="42.83536" lon="-0.43298">
        <ele>1956.6</ele>
        <time>2021-08-10 13:50:09</time>
      </trkpt>
      <trkpt lat="42.83537" lon="-0.43297">
        <ele>1956.4</ele>
        <time>2021-08-10 13:50:10</time>
      </trkpt>
      <trkpt lat="42.83537" lon="-0.43295">
        <ele>1956.2</ele>
        <time>2021-08-10 13:50:11</time>
      </trkpt>
      <trkpt lat="42.83538" lon="-0.43295">
        <ele>1956</ele>
        <time>2021-08-10 13:50:12</time>
      </trkpt>
      <trkpt lat="42.83539" lon="-0.43294">
        <ele>1955.8</ele>
        <time>2021-08-10 13:50:13</time>
      </trkpt>
      <trkpt lat="42.83539" lon="-0.43293">
        <ele>1955.6</ele>
        <time>2021-08-10 13:50:14</time>
      </trkpt>
      <trkpt lat="42.83539" lon="-0.43291">
        <ele>1955.2</ele>
        <time>2021-08-10 13:50:15</time>
      </trkpt>
      <trkpt lat="42.8354" lon="-0.4329">
        <ele>1954.8</ele>
        <time>2021-08-10 13:50:16</time>
      </trkpt>
      <trkpt lat="42.83541" lon="-0.43289">
        <ele>1954.6</ele>
        <time>2021-08-10 13:50:17</time>
      </trkpt>
      <trkpt lat="42.83541" lon="-0.43289">
        <ele>1954.6</ele>
        <time>2021-08-10 13:50:18</time>
      </trkpt>
      <trkpt lat="42.83541" lon="-0.43289">
        <ele>1954.4</ele>
        <time>2021-08-10 13:50:19</time>
      </trkpt>
      <trkpt lat="42.83542" lon="-0.43288">
        <ele>1954.4</ele>
        <time>2021-08-10 13:50:20</time>
      </trkpt>
      <trkpt lat="42.83543" lon="-0.43287">
        <ele>1954.2</ele>
        <time>2021-08-10 13:50:21</time>
      </trkpt>
      <trkpt lat="42.83543" lon="-0.43286">
        <ele>1954</ele>
        <time>2021-08-10 13:50:22</time>
      </trkpt>
      <trkpt lat="42.83545" lon="-0.43286">
        <ele>1953.6</ele>
        <time>2021-08-10 13:50:23</time>
      </trkpt>
      <trkpt lat="42.83546" lon="-0.43284">
        <ele>1953.4</ele>
        <time>2021-08-10 13:50:24</time>
      </trkpt>
      <trkpt lat="42.83546" lon="-0.43284">
        <ele>1953.4</ele>
        <time>2021-08-10 13:50:25</time>
      </trkpt>
      <trkpt lat="42.83546" lon="-0.43284">
        <ele>1953.4</ele>
        <time>2021-08-10 13:50:26</time>
      </trkpt>
      <trkpt lat="42.83546" lon="-0.43282">
        <ele>1953</ele>
        <time>2021-08-10 13:50:27</time>
      </trkpt>
      <trkpt lat="42.83546" lon="-0.43281">
        <ele>1952.8</ele>
        <time>2021-08-10 13:50:28</time>
      </trkpt>
      <trkpt lat="42.83546" lon="-0.43281">
        <ele>1952.6</ele>
        <time>2021-08-10 13:50:29</time>
      </trkpt>
      <trkpt lat="42.83547" lon="-0.4328">
        <ele>1952.4</ele>
        <time>2021-08-10 13:50:30</time>
      </trkpt>
      <trkpt lat="42.83547" lon="-0.43278">
        <ele>1952.2</ele>
        <time>2021-08-10 13:50:31</time>
      </trkpt>
      <trkpt lat="42.83547" lon="-0.43278">
        <ele>1951.8</ele>
        <time>2021-08-10 13:50:32</time>
      </trkpt>
      <trkpt lat="42.83547" lon="-0.43276">
        <ele>1951.8</ele>
        <time>2021-08-10 13:50:33</time>
      </trkpt>
      <trkpt lat="42.83547" lon="-0.43275">
        <ele>1951.8</ele>
        <time>2021-08-10 13:50:34</time>
      </trkpt>
      <trkpt lat="42.83547" lon="-0.43274">
        <ele>1951.4</ele>
        <time>2021-08-10 13:50:35</time>
      </trkpt>
      <trkpt lat="42.83548" lon="-0.43273">
        <ele>1951.2</ele>
        <time>2021-08-10 13:50:36</time>
      </trkpt>
      <trkpt lat="42.83548" lon="-0.43272">
        <ele>1951.2</ele>
        <time>2021-08-10 13:50:37</time>
      </trkpt>
      <trkpt lat="42.83548" lon="-0.4327">
        <ele>1951</ele>
        <time>2021-08-10 13:50:38</time>
      </trkpt>
      <trkpt lat="42.83548" lon="-0.43269">
        <ele>1950.8</ele>
        <time>2021-08-10 13:50:39</time>
      </trkpt>
      <trkpt lat="42.83549" lon="-0.43268">
        <ele>1950.6</ele>
        <time>2021-08-10 13:50:40</time>
      </trkpt>
      <trkpt lat="42.83549" lon="-0.43267">
        <ele>1950.4</ele>
        <time>2021-08-10 13:50:41</time>
      </trkpt>
      <trkpt lat="42.83549" lon="-0.43266">
        <ele>1950</ele>
        <time>2021-08-10 13:50:42</time>
      </trkpt>
      <trkpt lat="42.83549" lon="-0.43265">
        <ele>1949.8</ele>
        <time>2021-08-10 13:50:43</time>
      </trkpt>
      <trkpt lat="42.83549" lon="-0.43264">
        <ele>1949.6</ele>
        <time>2021-08-10 13:50:44</time>
      </trkpt>
      <trkpt lat="42.8355" lon="-0.43263">
        <ele>1949</ele>
        <time>2021-08-10 13:50:45</time>
      </trkpt>
      <trkpt lat="42.8355" lon="-0.43262">
        <ele>1948.8</ele>
        <time>2021-08-10 13:50:46</time>
      </trkpt>
      <trkpt lat="42.8355" lon="-0.43261">
        <ele>1948.4</ele>
        <time>2021-08-10 13:50:47</time>
      </trkpt>
      <trkpt lat="42.8355" lon="-0.43259">
        <ele>1948.4</ele>
        <time>2021-08-10 13:50:48</time>
      </trkpt>
      <trkpt lat="42.8355" lon="-0.43257">
        <ele>1948</ele>
        <time>2021-08-10 13:50:49</time>
      </trkpt>
      <trkpt lat="42.8355" lon="-0.43256">
        <ele>1947.8</ele>
        <time>2021-08-10 13:50:50</time>
      </trkpt>
      <trkpt lat="42.83551" lon="-0.43255">
        <ele>1947.8</ele>
        <time>2021-08-10 13:50:51</time>
      </trkpt>
      <trkpt lat="42.83551" lon="-0.43254">
        <ele>1947.6</ele>
        <time>2021-08-10 13:50:52</time>
      </trkpt>
      <trkpt lat="42.83552" lon="-0.43253">
        <ele>1947.6</ele>
        <time>2021-08-10 13:50:53</time>
      </trkpt>
      <trkpt lat="42.83552" lon="-0.43253">
        <ele>1947.2</ele>
        <time>2021-08-10 13:50:54</time>
      </trkpt>
      <trkpt lat="42.83553" lon="-0.43251">
        <ele>1947</ele>
        <time>2021-08-10 13:50:55</time>
      </trkpt>
      <trkpt lat="42.83553" lon="-0.4325">
        <ele>1946.6</ele>
        <time>2021-08-10 13:50:56</time>
      </trkpt>
      <trkpt lat="42.83553" lon="-0.43249">
        <ele>1946.6</ele>
        <time>2021-08-10 13:50:57</time>
      </trkpt>
      <trkpt lat="42.83554" lon="-0.43248">
        <ele>1946.2</ele>
        <time>2021-08-10 13:50:58</time>
      </trkpt>
      <trkpt lat="42.83554" lon="-0.43247">
        <ele>1946</ele>
        <time>2021-08-10 13:50:59</time>
      </trkpt>
      <trkpt lat="42.83555" lon="-0.43246">
        <ele>1945.8</ele>
        <time>2021-08-10 13:51:00</time>
      </trkpt>
      <trkpt lat="42.83556" lon="-0.43244">
        <ele>1945.6</ele>
        <time>2021-08-10 13:51:01</time>
      </trkpt>
      <trkpt lat="42.83556" lon="-0.43243">
        <ele>1945.6</ele>
        <time>2021-08-10 13:51:02</time>
      </trkpt>
      <trkpt lat="42.83557" lon="-0.43242">
        <ele>1945.4</ele>
        <time>2021-08-10 13:51:03</time>
      </trkpt>
      <trkpt lat="42.83557" lon="-0.43241">
        <ele>1945.2</ele>
        <time>2021-08-10 13:51:04</time>
      </trkpt>
      <trkpt lat="42.83558" lon="-0.43241">
        <ele>1945.2</ele>
        <time>2021-08-10 13:51:05</time>
      </trkpt>
      <trkpt lat="42.83558" lon="-0.4324">
        <ele>1945.2</ele>
        <time>2021-08-10 13:51:06</time>
      </trkpt>
      <trkpt lat="42.83558" lon="-0.4324">
        <ele>1944.8</ele>
        <time>2021-08-10 13:51:07</time>
      </trkpt>
      <trkpt lat="42.83558" lon="-0.43239">
        <ele>1944.6</ele>
        <time>2021-08-10 13:51:08</time>
      </trkpt>
      <trkpt lat="42.83558" lon="-0.43238">
        <ele>1944</ele>
        <time>2021-08-10 13:51:09</time>
      </trkpt>
      <trkpt lat="42.83558" lon="-0.43237">
        <ele>1944</ele>
        <time>2021-08-10 13:51:10</time>
      </trkpt>
      <trkpt lat="42.83559" lon="-0.43236">
        <ele>1943.6</ele>
        <time>2021-08-10 13:51:11</time>
      </trkpt>
      <trkpt lat="42.83559" lon="-0.43236">
        <ele>1943.4</ele>
        <time>2021-08-10 13:51:12</time>
      </trkpt>
      <trkpt lat="42.83559" lon="-0.43235">
        <ele>1943</ele>
        <time>2021-08-10 13:51:13</time>
      </trkpt>
      <trkpt lat="42.8356" lon="-0.43234">
        <ele>1942.6</ele>
        <time>2021-08-10 13:51:14</time>
      </trkpt>
      <trkpt lat="42.8356" lon="-0.43233">
        <ele>1942.6</ele>
        <time>2021-08-10 13:51:15</time>
      </trkpt>
      <trkpt lat="42.8356" lon="-0.43232">
        <ele>1942.4</ele>
        <time>2021-08-10 13:51:16</time>
      </trkpt>
      <trkpt lat="42.8356" lon="-0.43231">
        <ele>1942</ele>
        <time>2021-08-10 13:51:17</time>
      </trkpt>
      <trkpt lat="42.8356" lon="-0.43229">
        <ele>1941.6</ele>
        <time>2021-08-10 13:51:18</time>
      </trkpt>
      <trkpt lat="42.83561" lon="-0.43228">
        <ele>1941.4</ele>
        <time>2021-08-10 13:51:19</time>
      </trkpt>
      <trkpt lat="42.83562" lon="-0.43226">
        <ele>1941</ele>
        <time>2021-08-10 13:51:20</time>
      </trkpt>
      <trkpt lat="42.83563" lon="-0.43223">
        <ele>1940.8</ele>
        <time>2021-08-10 13:51:23</time>
      </trkpt>
      <trkpt lat="42.83564" lon="-0.43219">
        <ele>1940.4</ele>
        <time>2021-08-10 13:51:24</time>
      </trkpt>
      <trkpt lat="42.83565" lon="-0.43216">
        <ele>1940.4</ele>
        <time>2021-08-10 13:51:25</time>
      </trkpt>
      <trkpt lat="42.83567" lon="-0.43212">
        <ele>1940.2</ele>
        <time>2021-08-10 13:51:26</time>
      </trkpt>
      <trkpt lat="42.83569" lon="-0.43209">
        <ele>1940</ele>
        <time>2021-08-10 13:51:27</time>
      </trkpt>
      <trkpt lat="42.8357" lon="-0.43205">
        <ele>1940.4</ele>
        <time>2021-08-10 13:51:28</time>
      </trkpt>
      <trkpt lat="42.83571" lon="-0.43203">
        <ele>1940.6</ele>
        <time>2021-08-10 13:51:29</time>
      </trkpt>
      <trkpt lat="42.83571" lon="-0.43201">
        <ele>1940.6</ele>
        <time>2021-08-10 13:51:30</time>
      </trkpt>
      <trkpt lat="42.83572" lon="-0.432">
        <ele>1940.8</ele>
        <time>2021-08-10 13:51:31</time>
      </trkpt>
      <trkpt lat="42.83572" lon="-0.43199">
        <ele>1940.8</ele>
        <time>2021-08-10 13:51:32</time>
      </trkpt>
      <trkpt lat="42.83573" lon="-0.43198">
        <ele>1941</ele>
        <time>2021-08-10 13:51:33</time>
      </trkpt>
      <trkpt lat="42.83573" lon="-0.43197">
        <ele>1940.8</ele>
        <time>2021-08-10 13:51:34</time>
      </trkpt>
      <trkpt lat="42.83574" lon="-0.43197">
        <ele>1941</ele>
        <time>2021-08-10 13:51:35</time>
      </trkpt>
      <trkpt lat="42.83574" lon="-0.43196">
        <ele>1941.2</ele>
        <time>2021-08-10 13:51:36</time>
      </trkpt>
      <trkpt lat="42.83575" lon="-0.43196">
        <ele>1941.4</ele>
        <time>2021-08-10 13:51:37</time>
      </trkpt>
      <trkpt lat="42.83575" lon="-0.43196">
        <ele>1941.2</ele>
        <time>2021-08-10 13:51:38</time>
      </trkpt>
      <trkpt lat="42.83575" lon="-0.43196">
        <ele>1941.2</ele>
        <time>2021-08-10 13:51:39</time>
      </trkpt>
      <trkpt lat="42.83576" lon="-0.43195">
        <ele>1941.2</ele>
        <time>2021-08-10 13:51:40</time>
      </trkpt>
      <trkpt lat="42.83576" lon="-0.43195">
        <ele>1941</ele>
        <time>2021-08-10 13:51:41</time>
      </trkpt>
      <trkpt lat="42.83577" lon="-0.43194">
        <ele>1940.8</ele>
        <time>2021-08-10 13:51:42</time>
      </trkpt>
      <trkpt lat="42.83578" lon="-0.43193">
        <ele>1940.8</ele>
        <time>2021-08-10 13:51:43</time>
      </trkpt>
      <trkpt lat="42.83579" lon="-0.43192">
        <ele>1940.8</ele>
        <time>2021-08-10 13:51:44</time>
      </trkpt>
      <trkpt lat="42.83579" lon="-0.43191">
        <ele>1940.8</ele>
        <time>2021-08-10 13:51:45</time>
      </trkpt>
      <trkpt lat="42.8358" lon="-0.4319">
        <ele>1940.6</ele>
        <time>2021-08-10 13:51:46</time>
      </trkpt>
      <trkpt lat="42.83581" lon="-0.43189">
        <ele>1940.6</ele>
        <time>2021-08-10 13:51:47</time>
      </trkpt>
      <trkpt lat="42.83582" lon="-0.43188">
        <ele>1940.4</ele>
        <time>2021-08-10 13:51:48</time>
      </trkpt>
      <trkpt lat="42.83583" lon="-0.43188">
        <ele>1940.4</ele>
        <time>2021-08-10 13:51:49</time>
      </trkpt>
      <trkpt lat="42.83583" lon="-0.43186">
        <ele>1940.2</ele>
        <time>2021-08-10 13:51:50</time>
      </trkpt>
      <trkpt lat="42.83584" lon="-0.43185">
        <ele>1939.8</ele>
        <time>2021-08-10 13:51:51</time>
      </trkpt>
      <trkpt lat="42.83584" lon="-0.43184">
        <ele>1939.4</ele>
        <time>2021-08-10 13:51:52</time>
      </trkpt>
      <trkpt lat="42.83585" lon="-0.43183">
        <ele>1939.2</ele>
        <time>2021-08-10 13:51:57</time>
      </trkpt>
      <trkpt lat="42.83586" lon="-0.43182">
        <ele>1939.2</ele>
        <time>2021-08-10 13:51:58</time>
      </trkpt>
      <trkpt lat="42.83586" lon="-0.4318">
        <ele>1939.6</ele>
        <time>2021-08-10 13:51:59</time>
      </trkpt>
      <trkpt lat="42.83587" lon="-0.4318">
        <ele>1940</ele>
      </trkpt>
      <trkpt lat="42.83587" lon="-0.43179">
        <ele>1940.4</ele>
        <time>2021-08-10 13:52:01</time>
      </trkpt>
      <trkpt lat="42.83588" lon="-0.43177">
        <ele>1940.2</ele>
      </trkpt>
      <trkpt lat="42.83589" lon="-0.43177">
        <ele>1939.8</ele>
        <time>2021-08-10 13:52:02</time>
      </trkpt>
      <trkpt lat="42.8359" lon="-0.43177">
        <ele>1939.6</ele>
        <time>2021-08-10 13:52:04</time>
      </trkpt>
      <trkpt lat="42.8359" lon="-0.43176">
        <ele>1939.6</ele>
      </trkpt>
      <trkpt lat="42.83591" lon="-0.43174">
        <ele>1939.6</ele>
        <time>2021-08-10 13:52:05</time>
      </trkpt>
      <trkpt lat="42.83591" lon="-0.43173">
        <ele>1939.4</ele>
        <time>2021-08-10 13:52:06</time>
      </trkpt>
      <trkpt lat="42.83592" lon="-0.43172">
        <ele>1939.4</ele>
        <time>2021-08-10 13:52:07</time>
      </trkpt>
      <trkpt lat="42.83593" lon="-0.43172">
        <ele>1939.4</ele>
        <time>2021-08-10 13:52:08</time>
      </trkpt>
      <trkpt lat="42.83593" lon="-0.43172">
        <ele>1939.6</ele>
        <time>2021-08-10 13:52:09</time>
      </trkpt>
      <trkpt lat="42.83594" lon="-0.43171">
        <ele>1939.6</ele>
        <time>2021-08-10 13:52:10</time>
      </trkpt>
      <trkpt lat="42.83594" lon="-0.43169">
        <ele>1939.4</ele>
        <time>2021-08-10 13:52:11</time>
      </trkpt>
      <trkpt lat="42.83595" lon="-0.43168">
        <ele>1939.4</ele>
        <time>2021-08-10 13:52:12</time>
      </trkpt>
      <trkpt lat="42.83595" lon="-0.43167">
        <ele>1939.4</ele>
        <time>2021-08-10 13:52:13</time>
      </trkpt>
      <trkpt lat="42.83596" lon="-0.43166">
        <ele>1939.4</ele>
        <time>2021-08-10 13:52:14</time>
      </trkpt>
      <trkpt lat="42.83596" lon="-0.43165">
        <ele>1939.4</ele>
        <time>2021-08-10 13:52:15</time>
      </trkpt>
      <trkpt lat="42.83597" lon="-0.43164">
        <ele>1939.2</ele>
        <time>2021-08-10 13:52:19</time>
      </trkpt>
      <trkpt lat="42.83597" lon="-0.43163">
        <ele>1939.4</ele>
        <time>2021-08-10 13:52:20</time>
      </trkpt>
      <trkpt lat="42.83598" lon="-0.43162">
        <ele>1939.6</ele>
        <time>2021-08-10 13:52:21</time>
      </trkpt>
      <trkpt lat="42.83598" lon="-0.4316">
        <ele>1939.6</ele>
        <time>2021-08-10 13:52:22</time>
      </trkpt>
      <trkpt lat="42.83599" lon="-0.4316">
        <ele>1939.8</ele>
        <time>2021-08-10 13:52:32</time>
      </trkpt>
      <trkpt lat="42.83599" lon="-0.43159">
        <ele>1939.8</ele>
        <time>2021-08-10 13:52:33</time>
      </trkpt>
      <trkpt lat="42.836" lon="-0.43157">
        <ele>1939.8</ele>
        <time>2021-08-10 13:52:34</time>
      </trkpt>
      <trkpt lat="42.83601" lon="-0.43156">
        <ele>1940</ele>
        <time>2021-08-10 13:52:35</time>
      </trkpt>
      <trkpt lat="42.83601" lon="-0.43155">
        <ele>1940.2</ele>
        <time>2021-08-10 13:52:36</time>
      </trkpt>
      <trkpt lat="42.83602" lon="-0.43154">
        <ele>1940.2</ele>
        <time>2021-08-10 13:52:37</time>
      </trkpt>
      <trkpt lat="42.83602" lon="-0.43154">
        <ele>1940.6</ele>
        <time>2021-08-10 13:52:38</time>
      </trkpt>
      <trkpt lat="42.83602" lon="-0.43154">
        <ele>1940.6</ele>
        <time>2021-08-10 13:52:39</time>
      </trkpt>
      <trkpt lat="42.83601" lon="-0.43151">
        <ele>1940.6</ele>
        <time>2021-08-10 13:52:40</time>
      </trkpt>
      <trkpt lat="42.83601" lon="-0.43151">
        <ele>1940.4</ele>
        <time>2021-08-10 13:52:41</time>
      </trkpt>
      <trkpt lat="42.83602" lon="-0.43151">
        <ele>1940.4</ele>
        <time>2021-08-10 13:52:42</time>
      </trkpt>
      <trkpt lat="42.83603" lon="-0.4315">
        <ele>1940.4</ele>
        <time>2021-08-10 13:52:43</time>
      </trkpt>
      <trkpt lat="42.83603" lon="-0.4315">
        <ele>1940.4</ele>
        <time>2021-08-10 13:52:44</time>
      </trkpt>
      <trkpt lat="42.83604" lon="-0.4315">
        <ele>1940.4</ele>
        <time>2021-08-10 13:52:45</time>
      </trkpt>
      <trkpt lat="42.83604" lon="-0.4315">
        <ele>1940.4</ele>
        <time>2021-08-10 13:52:46</time>
      </trkpt>
      <trkpt lat="42.83605" lon="-0.4315">
        <ele>1940.4</ele>
        <time>2021-08-10 13:52:47</time>
      </trkpt>
      <trkpt lat="42.83605" lon="-0.4315">
        <ele>1940.2</ele>
        <time>2021-08-10 13:52:48</time>
      </trkpt>
      <trkpt lat="42.83605" lon="-0.4315">
        <ele>1940.2</ele>
        <time>2021-08-10 13:52:49</time>
      </trkpt>
      <trkpt lat="42.83605" lon="-0.4315">
        <ele>1940.6</ele>
        <time>2021-08-10 13:52:50</time>
      </trkpt>
      <trkpt lat="42.83605" lon="-0.4315">
        <ele>1940.8</ele>
        <time>2021-08-10 13:52:51</time>
      </trkpt>
      <trkpt lat="42.83605" lon="-0.43149">
        <ele>1940.8</ele>
        <time>2021-08-10 13:52:52</time>
      </trkpt>
      <trkpt lat="42.83605" lon="-0.43149">
        <ele>1940.6</ele>
        <time>2021-08-10 13:52:53</time>
      </trkpt>
      <trkpt lat="42.83605" lon="-0.43149">
        <ele>1940.6</ele>
        <time>2021-08-10 13:52:54</time>
      </trkpt>
      <trkpt lat="42.83605" lon="-0.43149">
        <ele>1940.6</ele>
        <time>2021-08-10 13:52:56</time>
      </trkpt>
      <trkpt lat="42.83605" lon="-0.43149">
        <ele>1940.4</ele>
      </trkpt>
      <trkpt lat="42.83606" lon="-0.43149">
        <ele>1940.2</ele>
        <time>2021-08-10 13:52:57</time>
      </trkpt>
      <trkpt lat="42.83606" lon="-0.43148">
        <ele>1940</ele>
        <time>2021-08-10 13:52:58</time>
      </trkpt>
      <trkpt lat="42.83606" lon="-0.43147">
        <ele>1940</ele>
        <time>2021-08-10 13:52:59</time>
      </trkpt>
      <trkpt lat="42.83606" lon="-0.43147">
        <ele>1940</ele>
        <time>2021-08-10 13:53:00</time>
      </trkpt>
      <trkpt lat="42.83607" lon="-0.43146">
        <ele>1939.8</ele>
        <time>2021-08-10 13:53:01</time>
      </trkpt>
      <trkpt lat="42.83607" lon="-0.43145">
        <ele>1939.8</ele>
        <time>2021-08-10 13:53:02</time>
      </trkpt>
      <trkpt lat="42.83608" lon="-0.43145">
        <ele>1939.8</ele>
        <time>2021-08-10 13:53:03</time>
      </trkpt>
      <trkpt lat="42.83608" lon="-0.43144">
        <ele>1939.6</ele>
        <time>2021-08-10 13:53:04</time>
      </trkpt>
      <trkpt lat="42.83608" lon="-0.43144">
        <ele>1939.6</ele>
        <time>2021-08-10 13:53:05</time>
      </trkpt>
      <trkpt lat="42.83609" lon="-0.43143">
        <ele>1939.4</ele>
        <time>2021-08-10 13:53:06</time>
      </trkpt>
      <trkpt lat="42.83609" lon="-0.43143">
        <ele>1939.4</ele>
        <time>2021-08-10 13:53:07</time>
      </trkpt>
      <trkpt lat="42.83609" lon="-0.43143">
        <ele>1939.2</ele>
        <time>2021-08-10 13:53:08</time>
      </trkpt>
      <trkpt lat="42.83609" lon="-0.43142">
        <ele>1939</ele>
        <time>2021-08-10 13:53:09</time>
      </trkpt>
      <trkpt lat="42.83609" lon="-0.43142">
        <ele>1939</ele>
        <time>2021-08-10 13:53:10</time>
      </trkpt>
      <trkpt lat="42.8361" lon="-0.43141">
        <ele>1939</ele>
        <time>2021-08-10 13:53:11</time>
      </trkpt>
      <trkpt lat="42.8361" lon="-0.43141">
        <ele>1939</ele>
        <time>2021-08-10 13:53:12</time>
      </trkpt>
      <trkpt lat="42.8361" lon="-0.43141">
        <ele>1939</ele>
        <time>2021-08-10 13:53:13</time>
      </trkpt>
      <trkpt lat="42.8361" lon="-0.43141">
        <ele>1939.2</ele>
        <time>2021-08-10 13:53:14</time>
      </trkpt>
      <trkpt lat="42.8361" lon="-0.43142">
        <ele>1939.2</ele>
        <time>2021-08-10 13:53:15</time>
      </trkpt>
      <trkpt lat="42.8361" lon="-0.43143">
        <ele>1939.6</ele>
        <time>2021-08-10 13:53:16</time>
      </trkpt>
      <trkpt lat="42.83609" lon="-0.43143">
        <ele>1939.8</ele>
        <time>2021-08-10 13:53:17</time>
      </trkpt>
      <trkpt lat="42.83609" lon="-0.43143">
        <ele>1939.4</ele>
        <time>2021-08-10 13:53:18</time>
      </trkpt>
      <trkpt lat="42.83609" lon="-0.43144">
        <ele>1939.4</ele>
        <time>2021-08-10 13:53:19</time>
      </trkpt>
      <trkpt lat="42.8361" lon="-0.43143">
        <ele>1939.6</ele>
        <time>2021-08-10 13:53:20</time>
      </trkpt>
      <trkpt lat="42.8361" lon="-0.43143">
        <ele>1939.4</ele>
        <time>2021-08-10 13:53:21</time>
      </trkpt>
      <trkpt lat="42.8361" lon="-0.43143">
        <ele>1939.4</ele>
        <time>2021-08-10 13:53:22</time>
      </trkpt>
      <trkpt lat="42.8361" lon="-0.43143">
        <ele>1939.6</ele>
        <time>2021-08-10 13:53:23</time>
      </trkpt>
      <trkpt lat="42.83611" lon="-0.43143">
        <ele>1940</ele>
        <time>2021-08-10 13:53:24</time>
      </trkpt>
      <trkpt lat="42.8361" lon="-0.43143">
        <ele>1940</ele>
        <time>2021-08-10 13:53:25</time>
      </trkpt>
      <trkpt lat="42.8361" lon="-0.43143">
        <ele>1939</ele>
        <time>2021-08-10 13:53:26</time>
      </trkpt>
      <trkpt lat="42.83611" lon="-0.43141">
        <ele>1938.8</ele>
        <time>2021-08-10 13:53:27</time>
      </trkpt>
      <trkpt lat="42.83611" lon="-0.43141">
        <ele>1938.6</ele>
        <time>2021-08-10 13:53:28</time>
      </trkpt>
      <trkpt lat="42.83611" lon="-0.4314">
        <ele>1938.2</ele>
        <time>2021-08-10 13:53:29</time>
      </trkpt>
      <trkpt lat="42.83612" lon="-0.4314">
        <ele>1938.4</ele>
        <time>2021-08-10 13:53:30</time>
      </trkpt>
      <trkpt lat="42.83613" lon="-0.4314">
        <ele>1938.2</ele>
        <time>2021-08-10 13:53:31</time>
      </trkpt>
      <trkpt lat="42.83613" lon="-0.43138">
        <ele>1938.2</ele>
        <time>2021-08-10 13:53:32</time>
      </trkpt>
      <trkpt lat="42.83614" lon="-0.43137">
        <ele>1938</ele>
        <time>2021-08-10 13:53:33</time>
      </trkpt>
      <trkpt lat="42.83615" lon="-0.43136">
        <ele>1937.8</ele>
        <time>2021-08-10 13:53:34</time>
      </trkpt>
      <trkpt lat="42.83615" lon="-0.43135">
        <ele>1938</ele>
        <time>2021-08-10 13:53:35</time>
      </trkpt>
      <trkpt lat="42.83616" lon="-0.43134">
        <ele>1937.8</ele>
        <time>2021-08-10 13:53:36</time>
      </trkpt>
      <trkpt lat="42.83616" lon="-0.43133">
        <ele>1937.8</ele>
        <time>2021-08-10 13:53:37</time>
      </trkpt>
      <trkpt lat="42.83616" lon="-0.43131">
        <ele>1937.8</ele>
        <time>2021-08-10 13:53:38</time>
      </trkpt>
      <trkpt lat="42.83616" lon="-0.43129">
        <ele>1937.8</ele>
        <time>2021-08-10 13:53:39</time>
      </trkpt>
      <trkpt lat="42.83617" lon="-0.43128">
        <ele>1938</ele>
        <time>2021-08-10 13:53:40</time>
      </trkpt>
      <trkpt lat="42.83617" lon="-0.43127">
        <ele>1937.8</ele>
        <time>2021-08-10 13:53:41</time>
      </trkpt>
      <trkpt lat="42.83617" lon="-0.43126">
        <ele>1937.4</ele>
        <time>2021-08-10 13:53:42</time>
      </trkpt>
      <trkpt lat="42.83618" lon="-0.43125">
        <ele>1937.2</ele>
        <time>2021-08-10 13:53:43</time>
      </trkpt>
      <trkpt lat="42.83618" lon="-0.43124">
        <ele>1936.6</ele>
        <time>2021-08-10 13:53:44</time>
      </trkpt>
      <trkpt lat="42.83618" lon="-0.43123">
        <ele>1937.4</ele>
        <time>2021-08-10 13:53:45</time>
      </trkpt>
      <trkpt lat="42.83618" lon="-0.43123">
        <ele>1937.6</ele>
        <time>2021-08-10 13:53:46</time>
      </trkpt>
      <trkpt lat="42.83619" lon="-0.43123">
        <ele>1937.6</ele>
        <time>2021-08-10 13:53:47</time>
      </trkpt>
      <trkpt lat="42.83619" lon="-0.43123">
        <ele>1937.6</ele>
        <time>2021-08-10 13:53:48</time>
      </trkpt>
      <trkpt lat="42.83618" lon="-0.43123">
        <ele>1937.6</ele>
        <time>2021-08-10 13:53:49</time>
      </trkpt>
      <trkpt lat="42.83618" lon="-0.43123">
        <ele>1937.6</ele>
        <time>2021-08-10 13:53:50</time>
      </trkpt>
      <trkpt lat="42.83618" lon="-0.43124">
        <ele>1937.4</ele>
        <time>2021-08-10 13:53:51</time>
      </trkpt>
      <trkpt lat="42.83618" lon="-0.43124">
        <ele>1937.2</ele>
        <time>2021-08-10 13:53:52</time>
      </trkpt>
      <trkpt lat="42.83618" lon="-0.43124">
        <ele>1937.6</ele>
        <time>2021-08-10 13:53:53</time>
      </trkpt>
      <trkpt lat="42.83619" lon="-0.43123">
        <ele>1937.6</ele>
        <time>2021-08-10 13:53:54</time>
      </trkpt>
      <trkpt lat="42.8362" lon="-0.43122">
        <ele>1937.6</ele>
        <time>2021-08-10 13:53:55</time>
      </trkpt>
      <trkpt lat="42.83621" lon="-0.43121">
        <ele>1937.4</ele>
        <time>2021-08-10 13:53:56</time>
      </trkpt>
      <trkpt lat="42.83621" lon="-0.4312">
        <ele>1937.4</ele>
        <time>2021-08-10 13:53:57</time>
      </trkpt>
      <trkpt lat="42.83622" lon="-0.43119">
        <ele>1937.2</ele>
        <time>2021-08-10 13:53:58</time>
      </trkpt>
      <trkpt lat="42.83622" lon="-0.43118">
        <ele>1937.2</ele>
        <time>2021-08-10 13:53:59</time>
      </trkpt>
      <trkpt lat="42.83622" lon="-0.43117">
        <ele>1937.2</ele>
        <time>2021-08-10 13:54:00</time>
      </trkpt>
      <trkpt lat="42.83623" lon="-0.43116">
        <ele>1937.2</ele>
        <time>2021-08-10 13:54:01</time>
      </trkpt>
      <trkpt lat="42.83623" lon="-0.43115">
        <ele>1937.2</ele>
        <time>2021-08-10 13:54:02</time>
      </trkpt>
      <trkpt lat="42.83623" lon="-0.43114">
        <ele>1937.2</ele>
        <time>2021-08-10 13:54:03</time>
      </trkpt>
      <trkpt lat="42.83623" lon="-0.43113">
        <ele>1937</ele>
        <time>2021-08-10 13:54:04</time>
      </trkpt>
      <trkpt lat="42.83624" lon="-0.43112">
        <ele>1936.8</ele>
        <time>2021-08-10 13:54:05</time>
      </trkpt>
      <trkpt lat="42.83624" lon="-0.43112">
        <ele>1936.4</ele>
        <time>2021-08-10 13:54:06</time>
      </trkpt>
      <trkpt lat="42.83625" lon="-0.43112">
        <ele>1936.4</ele>
        <time>2021-08-10 13:54:07</time>
      </trkpt>
      <trkpt lat="42.83626" lon="-0.43112">
        <ele>1936.4</ele>
        <time>2021-08-10 13:54:08</time>
      </trkpt>
      <trkpt lat="42.83626" lon="-0.43112">
        <ele>1936.2</ele>
        <time>2021-08-10 13:54:09</time>
      </trkpt>
      <trkpt lat="42.83626" lon="-0.43111">
        <ele>1936</ele>
        <time>2021-08-10 13:54:10</time>
      </trkpt>
      <trkpt lat="42.83627" lon="-0.43111">
        <ele>1935.8</ele>
        <time>2021-08-10 13:54:11</time>
      </trkpt>
      <trkpt lat="42.83627" lon="-0.43111">
        <ele>1935.8</ele>
        <time>2021-08-10 13:54:12</time>
      </trkpt>
      <trkpt lat="42.83628" lon="-0.4311">
        <ele>1935.4</ele>
        <time>2021-08-10 13:54:13</time>
      </trkpt>
      <trkpt lat="42.83629" lon="-0.4311">
        <ele>1935.2</ele>
        <time>2021-08-10 13:54:14</time>
      </trkpt>
      <trkpt lat="42.83629" lon="-0.4311">
        <ele>1935.2</ele>
        <time>2021-08-10 13:54:15</time>
      </trkpt>
      <trkpt lat="42.83629" lon="-0.4311">
        <ele>1935</ele>
        <time>2021-08-10 13:54:16</time>
      </trkpt>
      <trkpt lat="42.8363" lon="-0.4311">
        <ele>1934.8</ele>
        <time>2021-08-10 13:54:17</time>
      </trkpt>
      <trkpt lat="42.8363" lon="-0.43108">
        <ele>1934.8</ele>
        <time>2021-08-10 13:54:18</time>
      </trkpt>
      <trkpt lat="42.8363" lon="-0.43108">
        <ele>1934.4</ele>
        <time>2021-08-10 13:54:19</time>
      </trkpt>
      <trkpt lat="42.8363" lon="-0.43107">
        <ele>1934</ele>
        <time>2021-08-10 13:54:20</time>
      </trkpt>
      <trkpt lat="42.8363" lon="-0.43107">
        <ele>1933.8</ele>
        <time>2021-08-10 13:54:21</time>
      </trkpt>
      <trkpt lat="42.83631" lon="-0.43107">
        <ele>1933.8</ele>
        <time>2021-08-10 13:54:22</time>
      </trkpt>
      <trkpt lat="42.83631" lon="-0.43106">
        <ele>1933.6</ele>
        <time>2021-08-10 13:54:23</time>
      </trkpt>
      <trkpt lat="42.83632" lon="-0.43105">
        <ele>1933.4</ele>
        <time>2021-08-10 13:54:24</time>
      </trkpt>
      <trkpt lat="42.83632" lon="-0.43105">
        <ele>1933</ele>
        <time>2021-08-10 13:54:25</time>
      </trkpt>
      <trkpt lat="42.83633" lon="-0.43104">
        <ele>1932.8</ele>
        <time>2021-08-10 13:54:26</time>
      </trkpt>
      <trkpt lat="42.83633" lon="-0.43104">
        <ele>1932.6</ele>
        <time>2021-08-10 13:54:27</time>
      </trkpt>
      <trkpt lat="42.83633" lon="-0.43104">
        <ele>1932.6</ele>
        <time>2021-08-10 13:54:28</time>
      </trkpt>
      <trkpt lat="42.83633" lon="-0.43103">
        <ele>1932.6</ele>
        <time>2021-08-10 13:54:29</time>
      </trkpt>
      <trkpt lat="42.83634" lon="-0.43103">
        <ele>1932.6</ele>
        <time>2021-08-10 13:54:30</time>
      </trkpt>
      <trkpt lat="42.83634" lon="-0.43103">
        <ele>1932</ele>
        <time>2021-08-10 13:54:31</time>
      </trkpt>
      <trkpt lat="42.83635" lon="-0.43102">
        <ele>1932</ele>
        <time>2021-08-10 13:54:32</time>
      </trkpt>
      <trkpt lat="42.83635" lon="-0.43102">
        <ele>1931.6</ele>
        <time>2021-08-10 13:54:33</time>
      </trkpt>
      <trkpt lat="42.83635" lon="-0.43102">
        <ele>1931.2</ele>
        <time>2021-08-10 13:54:34</time>
      </trkpt>
      <trkpt lat="42.83635" lon="-0.43102">
        <ele>1931</ele>
        <time>2021-08-10 13:54:35</time>
      </trkpt>
      <trkpt lat="42.83635" lon="-0.431">
        <ele>1930.8</ele>
        <time>2021-08-10 13:54:36</time>
      </trkpt>
      <trkpt lat="42.83635" lon="-0.43099">
        <ele>1930.4</ele>
        <time>2021-08-10 13:54:37</time>
      </trkpt>
      <trkpt lat="42.83635" lon="-0.43098">
        <ele>1930.2</ele>
        <time>2021-08-10 13:54:38</time>
      </trkpt>
      <trkpt lat="42.83635" lon="-0.43098">
        <ele>1930</ele>
        <time>2021-08-10 13:54:39</time>
      </trkpt>
      <trkpt lat="42.83636" lon="-0.43097">
        <ele>1930</ele>
        <time>2021-08-10 13:54:40</time>
      </trkpt>
      <trkpt lat="42.83636" lon="-0.43096">
        <ele>1929.6</ele>
        <time>2021-08-10 13:54:41</time>
      </trkpt>
      <trkpt lat="42.83636" lon="-0.43096">
        <ele>1929.8</ele>
        <time>2021-08-10 13:54:42</time>
      </trkpt>
      <trkpt lat="42.83637" lon="-0.43095">
        <ele>1929.6</ele>
        <time>2021-08-10 13:54:43</time>
      </trkpt>
      <trkpt lat="42.83637" lon="-0.43095">
        <ele>1929.4</ele>
        <time>2021-08-10 13:54:44</time>
      </trkpt>
      <trkpt lat="42.83637" lon="-0.43094">
        <ele>1929.2</ele>
        <time>2021-08-10 13:54:45</time>
      </trkpt>
      <trkpt lat="42.83637" lon="-0.43093">
        <ele>1929</ele>
        <time>2021-08-10 13:54:46</time>
      </trkpt>
      <trkpt lat="42.83637" lon="-0.43093">
        <ele>1929</ele>
        <time>2021-08-10 13:54:47</time>
      </trkpt>
      <trkpt lat="42.83638" lon="-0.43092">
        <ele>1928.8</ele>
        <time>2021-08-10 13:54:48</time>
      </trkpt>
      <trkpt lat="42.83638" lon="-0.43092">
        <ele>1928.6</ele>
        <time>2021-08-10 13:54:49</time>
      </trkpt>
      <trkpt lat="42.83638" lon="-0.43092">
        <ele>1928.4</ele>
        <time>2021-08-10 13:54:50</time>
      </trkpt>
      <trkpt lat="42.83639" lon="-0.43091">
        <ele>1928.4</ele>
        <time>2021-08-10 13:54:51</time>
      </trkpt>
      <trkpt lat="42.83639" lon="-0.43091">
        <ele>1928.4</ele>
        <time>2021-08-10 13:54:52</time>
      </trkpt>
      <trkpt lat="42.83638" lon="-0.4309">
        <ele>1928.4</ele>
        <time>2021-08-10 13:54:53</time>
      </trkpt>
      <trkpt lat="42.83638" lon="-0.43088">
        <ele>1928</ele>
        <time>2021-08-10 13:54:54</time>
      </trkpt>
      <trkpt lat="42.83638" lon="-0.43088">
        <ele>1927.8</ele>
        <time>2021-08-10 13:54:55</time>
      </trkpt>
      <trkpt lat="42.83638" lon="-0.43087">
        <ele>1928</ele>
        <time>2021-08-10 13:55:00</time>
      </trkpt>
      <trkpt lat="42.83639" lon="-0.43087">
        <ele>1927.8</ele>
        <time>2021-08-10 13:55:01</time>
      </trkpt>
      <trkpt lat="42.83639" lon="-0.43087">
        <ele>1927.8</ele>
        <time>2021-08-10 13:55:02</time>
      </trkpt>
      <trkpt lat="42.8364" lon="-0.43087">
        <ele>1927.6</ele>
        <time>2021-08-10 13:55:03</time>
      </trkpt>
      <trkpt lat="42.8364" lon="-0.43087">
        <ele>1927.2</ele>
        <time>2021-08-10 13:55:04</time>
      </trkpt>
      <trkpt lat="42.83641" lon="-0.43087">
        <ele>1927.2</ele>
        <time>2021-08-10 13:55:05</time>
      </trkpt>
      <trkpt lat="42.83641" lon="-0.43087">
        <ele>1926.8</ele>
        <time>2021-08-10 13:55:06</time>
      </trkpt>
      <trkpt lat="42.83642" lon="-0.43087">
        <ele>1926.8</ele>
        <time>2021-08-10 13:55:07</time>
      </trkpt>
      <trkpt lat="42.83642" lon="-0.43087">
        <ele>1926.4</ele>
        <time>2021-08-10 13:55:08</time>
      </trkpt>
      <trkpt lat="42.83642" lon="-0.43086">
        <ele>1926.4</ele>
        <time>2021-08-10 13:55:09</time>
      </trkpt>
      <trkpt lat="42.83642" lon="-0.43086">
        <ele>1926.2</ele>
        <time>2021-08-10 13:55:10</time>
      </trkpt>
      <trkpt lat="42.83641" lon="-0.43085">
        <ele>1926.2</ele>
        <time>2021-08-10 13:55:11</time>
      </trkpt>
      <trkpt lat="42.83641" lon="-0.43084">
        <ele>1925.6</ele>
        <time>2021-08-10 13:55:12</time>
      </trkpt>
      <trkpt lat="42.83641" lon="-0.43083">
        <ele>1925.2</ele>
        <time>2021-08-10 13:55:13</time>
      </trkpt>
      <trkpt lat="42.83641" lon="-0.43082">
        <ele>1925</ele>
        <time>2021-08-10 13:55:14</time>
      </trkpt>
      <trkpt lat="42.83641" lon="-0.43082">
        <ele>1924.8</ele>
        <time>2021-08-10 13:55:20</time>
      </trkpt>
      <trkpt lat="42.83641" lon="-0.43081">
        <ele>1925</ele>
        <time>2021-08-10 13:55:21</time>
      </trkpt>
      <trkpt lat="42.83641" lon="-0.43082">
        <ele>1924.8</ele>
        <time>2021-08-10 13:55:22</time>
      </trkpt>
      <trkpt lat="42.83641" lon="-0.43081">
        <ele>1924.8</ele>
        <time>2021-08-10 13:55:23</time>
      </trkpt>
      <trkpt lat="42.83641" lon="-0.4308">
        <ele>1924.4</ele>
        <time>2021-08-10 13:55:24</time>
      </trkpt>
      <trkpt lat="42.83641" lon="-0.43079">
        <ele>1924.2</ele>
        <time>2021-08-10 13:55:25</time>
      </trkpt>
      <trkpt lat="42.8364" lon="-0.43079">
        <ele>1924</ele>
        <time>2021-08-10 13:55:26</time>
      </trkpt>
      <trkpt lat="42.8364" lon="-0.43078">
        <ele>1923.8</ele>
        <time>2021-08-10 13:55:27</time>
      </trkpt>
      <trkpt lat="42.8364" lon="-0.43077">
        <ele>1923.6</ele>
        <time>2021-08-10 13:55:28</time>
      </trkpt>
      <trkpt lat="42.8364" lon="-0.43077">
        <ele>1923.4</ele>
        <time>2021-08-10 13:55:29</time>
      </trkpt>
      <trkpt lat="42.83639" lon="-0.43076">
        <ele>1923.4</ele>
        <time>2021-08-10 13:55:30</time>
      </trkpt>
      <trkpt lat="42.83638" lon="-0.43075">
        <ele>1923</ele>
        <time>2021-08-10 13:55:33</time>
      </trkpt>
      <trkpt lat="42.83637" lon="-0.43074">
        <ele>1922.8</ele>
        <time>2021-08-10 13:55:34</time>
      </trkpt>
      <trkpt lat="42.83637" lon="-0.43074">
        <ele>1922.6</ele>
        <time>2021-08-10 13:55:35</time>
      </trkpt>
      <trkpt lat="42.83638" lon="-0.43073">
        <ele>1922.4</ele>
        <time>2021-08-10 13:55:36</time>
      </trkpt>
      <trkpt lat="42.83638" lon="-0.43072">
        <ele>1922</ele>
        <time>2021-08-10 13:55:37</time>
      </trkpt>
      <trkpt lat="42.83638" lon="-0.43071">
        <ele>1921.8</ele>
        <time>2021-08-10 13:55:38</time>
      </trkpt>
      <trkpt lat="42.83637" lon="-0.43071">
        <ele>1921.6</ele>
        <time>2021-08-10 13:55:39</time>
      </trkpt>
      <trkpt lat="42.83637" lon="-0.4307">
        <ele>1921.4</ele>
        <time>2021-08-10 13:55:40</time>
      </trkpt>
      <trkpt lat="42.83637" lon="-0.4307">
        <ele>1921.2</ele>
        <time>2021-08-10 13:55:41</time>
      </trkpt>
      <trkpt lat="42.83637" lon="-0.43069">
        <ele>1921.2</ele>
        <time>2021-08-10 13:55:42</time>
      </trkpt>
      <trkpt lat="42.83637" lon="-0.43069">
        <ele>1921.2</ele>
        <time>2021-08-10 13:55:43</time>
      </trkpt>
      <trkpt lat="42.83636" lon="-0.43068">
        <ele>1921</ele>
        <time>2021-08-10 13:55:44</time>
      </trkpt>
      <trkpt lat="42.83635" lon="-0.43067">
        <ele>1920.6</ele>
        <time>2021-08-10 13:55:45</time>
      </trkpt>
      <trkpt lat="42.83635" lon="-0.43066">
        <ele>1920.4</ele>
        <time>2021-08-10 13:55:46</time>
      </trkpt>
      <trkpt lat="42.83635" lon="-0.43065">
        <ele>1920</ele>
        <time>2021-08-10 13:55:47</time>
      </trkpt>
      <trkpt lat="42.83635" lon="-0.43063">
        <ele>1919.8</ele>
        <time>2021-08-10 13:55:48</time>
      </trkpt>
      <trkpt lat="42.83635" lon="-0.43063">
        <ele>1919.8</ele>
        <time>2021-08-10 13:55:49</time>
      </trkpt>
      <trkpt lat="42.83635" lon="-0.43063">
        <ele>1919.8</ele>
        <time>2021-08-10 13:55:52</time>
      </trkpt>
      <trkpt lat="42.83634" lon="-0.43063">
        <ele>1919.6</ele>
        <time>2021-08-10 13:55:53</time>
      </trkpt>
      <trkpt lat="42.83634" lon="-0.43061">
        <ele>1919.2</ele>
        <time>2021-08-10 13:55:54</time>
      </trkpt>
      <trkpt lat="42.83633" lon="-0.4306">
        <ele>1919</ele>
        <time>2021-08-10 13:55:58</time>
      </trkpt>
      <trkpt lat="42.83633" lon="-0.43059">
        <ele>1918.8</ele>
        <time>2021-08-10 13:55:59</time>
      </trkpt>
      <trkpt lat="42.83633" lon="-0.43058">
        <ele>1918.6</ele>
        <time>2021-08-10 13:56:00</time>
      </trkpt>
      <trkpt lat="42.83632" lon="-0.43057">
        <ele>1918.4</ele>
        <time>2021-08-10 13:56:01</time>
      </trkpt>
      <trkpt lat="42.83632" lon="-0.43056">
        <ele>1918.2</ele>
        <time>2021-08-10 13:56:02</time>
      </trkpt>
      <trkpt lat="42.83632" lon="-0.43056">
        <ele>1918.2</ele>
        <time>2021-08-10 13:56:03</time>
      </trkpt>
      <trkpt lat="42.83631" lon="-0.43055">
        <ele>1917.8</ele>
        <time>2021-08-10 13:56:04</time>
      </trkpt>
      <trkpt lat="42.83631" lon="-0.43055">
        <ele>1917.6</ele>
        <time>2021-08-10 13:56:05</time>
      </trkpt>
      <trkpt lat="42.8363" lon="-0.43054">
        <ele>1917.6</ele>
        <time>2021-08-10 13:56:06</time>
      </trkpt>
      <trkpt lat="42.8363" lon="-0.43054">
        <ele>1917.2</ele>
        <time>2021-08-10 13:56:07</time>
      </trkpt>
      <trkpt lat="42.83629" lon="-0.43052">
        <ele>1916.8</ele>
        <time>2021-08-10 13:56:08</time>
      </trkpt>
      <trkpt lat="42.83629" lon="-0.43051">
        <ele>1916.6</ele>
        <time>2021-08-10 13:56:09</time>
      </trkpt>
      <trkpt lat="42.83628" lon="-0.43051">
        <ele>1916.4</ele>
        <time>2021-08-10 13:56:10</time>
      </trkpt>
      <trkpt lat="42.83628" lon="-0.43051">
        <ele>1916.4</ele>
        <time>2021-08-10 13:56:11</time>
      </trkpt>
      <trkpt lat="42.83627" lon="-0.43051">
        <ele>1916.2</ele>
        <time>2021-08-10 13:56:12</time>
      </trkpt>
      <trkpt lat="42.83627" lon="-0.4305">
        <ele>1916.2</ele>
        <time>2021-08-10 13:56:13</time>
      </trkpt>
      <trkpt lat="42.83627" lon="-0.4305">
        <ele>1915.8</ele>
        <time>2021-08-10 13:56:14</time>
      </trkpt>
      <trkpt lat="42.83627" lon="-0.4305">
        <ele>1915.8</ele>
        <time>2021-08-10 13:56:15</time>
      </trkpt>
      <trkpt lat="42.83626" lon="-0.4305">
        <ele>1915.6</ele>
        <time>2021-08-10 13:56:16</time>
      </trkpt>
      <trkpt lat="42.83626" lon="-0.43049">
        <ele>1915.6</ele>
        <time>2021-08-10 13:56:17</time>
      </trkpt>
      <trkpt lat="42.83626" lon="-0.43049">
        <ele>1915.4</ele>
        <time>2021-08-10 13:56:18</time>
      </trkpt>
      <trkpt lat="42.83626" lon="-0.43049">
        <ele>1915.2</ele>
        <time>2021-08-10 13:56:19</time>
      </trkpt>
      <trkpt lat="42.83626" lon="-0.43048">
        <ele>1915</ele>
        <time>2021-08-10 13:56:20</time>
      </trkpt>
      <trkpt lat="42.83626" lon="-0.43048">
        <ele>1915</ele>
        <time>2021-08-10 13:56:21</time>
      </trkpt>
      <trkpt lat="42.83626" lon="-0.43048">
        <ele>1914.8</ele>
        <time>2021-08-10 13:56:22</time>
      </trkpt>
      <trkpt lat="42.83625" lon="-0.43048">
        <ele>1914.8</ele>
        <time>2021-08-10 13:56:23</time>
      </trkpt>
      <trkpt lat="42.83625" lon="-0.43047">
        <ele>1914.8</ele>
        <time>2021-08-10 13:56:24</time>
      </trkpt>
      <trkpt lat="42.83624" lon="-0.43047">
        <ele>1914.6</ele>
        <time>2021-08-10 13:56:25</time>
      </trkpt>
      <trkpt lat="42.83624" lon="-0.43046">
        <ele>1914.4</ele>
        <time>2021-08-10 13:56:26</time>
      </trkpt>
      <trkpt lat="42.83624" lon="-0.43045">
        <ele>1914.4</ele>
        <time>2021-08-10 13:56:27</time>
      </trkpt>
      <trkpt lat="42.83624" lon="-0.43045">
        <ele>1914</ele>
        <time>2021-08-10 13:56:28</time>
      </trkpt>
      <trkpt lat="42.83624" lon="-0.43045">
        <ele>1914</ele>
        <time>2021-08-10 13:56:29</time>
      </trkpt>
      <trkpt lat="42.83623" lon="-0.43044">
        <ele>1914</ele>
        <time>2021-08-10 13:56:30</time>
      </trkpt>
      <trkpt lat="42.83623" lon="-0.43043">
        <ele>1913.6</ele>
        <time>2021-08-10 13:56:31</time>
      </trkpt>
      <trkpt lat="42.83623" lon="-0.43042">
        <ele>1913.6</ele>
        <time>2021-08-10 13:56:32</time>
      </trkpt>
      <trkpt lat="42.83622" lon="-0.43041">
        <ele>1913.2</ele>
        <time>2021-08-10 13:56:33</time>
      </trkpt>
      <trkpt lat="42.83622" lon="-0.43041">
        <ele>1913.4</ele>
        <time>2021-08-10 13:56:34</time>
      </trkpt>
      <trkpt lat="42.83621" lon="-0.4304">
        <ele>1913</ele>
        <time>2021-08-10 13:56:35</time>
      </trkpt>
      <trkpt lat="42.8362" lon="-0.43039">
        <ele>1913</ele>
        <time>2021-08-10 13:56:36</time>
      </trkpt>
      <trkpt lat="42.8362" lon="-0.43038">
        <ele>1912.6</ele>
        <time>2021-08-10 13:56:37</time>
      </trkpt>
      <trkpt lat="42.8362" lon="-0.43037">
        <ele>1912.4</ele>
        <time>2021-08-10 13:56:38</time>
      </trkpt>
      <trkpt lat="42.8362" lon="-0.43036">
        <ele>1912.2</ele>
        <time>2021-08-10 13:56:39</time>
      </trkpt>
      <trkpt lat="42.83619" lon="-0.43035">
        <ele>1911.8</ele>
        <time>2021-08-10 13:56:40</time>
      </trkpt>
      <trkpt lat="42.83618" lon="-0.43034">
        <ele>1911.8</ele>
        <time>2021-08-10 13:56:41</time>
      </trkpt>
      <trkpt lat="42.83618" lon="-0.43033">
        <ele>1911.6</ele>
        <time>2021-08-10 13:56:42</time>
      </trkpt>
      <trkpt lat="42.83618" lon="-0.43032">
        <ele>1911.6</ele>
        <time>2021-08-10 13:56:43</time>
      </trkpt>
      <trkpt lat="42.83617" lon="-0.43031">
        <ele>1911.2</ele>
        <time>2021-08-10 13:56:44</time>
      </trkpt>
      <trkpt lat="42.83617" lon="-0.4303">
        <ele>1911</ele>
        <time>2021-08-10 13:56:45</time>
      </trkpt>
      <trkpt lat="42.83616" lon="-0.4303">
        <ele>1910.8</ele>
        <time>2021-08-10 13:56:46</time>
      </trkpt>
      <trkpt lat="42.83616" lon="-0.43029">
        <ele>1910.8</ele>
        <time>2021-08-10 13:56:47</time>
      </trkpt>
      <trkpt lat="42.83615" lon="-0.43028">
        <ele>1910.6</ele>
        <time>2021-08-10 13:56:48</time>
      </trkpt>
      <trkpt lat="42.83615" lon="-0.43027">
        <ele>1910.4</ele>
        <time>2021-08-10 13:56:49</time>
      </trkpt>
      <trkpt lat="42.83615" lon="-0.43026">
        <ele>1910.2</ele>
        <time>2021-08-10 13:56:50</time>
      </trkpt>
      <trkpt lat="42.83614" lon="-0.43026">
        <ele>1910</ele>
        <time>2021-08-10 13:56:51</time>
      </trkpt>
      <trkpt lat="42.83614" lon="-0.43025">
        <ele>1909.8</ele>
        <time>2021-08-10 13:56:52</time>
      </trkpt>
      <trkpt lat="42.83613" lon="-0.43024">
        <ele>1909.8</ele>
        <time>2021-08-10 13:56:53</time>
      </trkpt>
      <trkpt lat="42.83612" lon="-0.43023">
        <ele>1909.8</ele>
        <time>2021-08-10 13:56:54</time>
      </trkpt>
      <trkpt lat="42.83612" lon="-0.43024">
        <ele>1909.6</ele>
        <time>2021-08-10 13:56:55</time>
      </trkpt>
      <trkpt lat="42.83612" lon="-0.43024">
        <ele>1909.4</ele>
        <time>2021-08-10 13:56:56</time>
      </trkpt>
      <trkpt lat="42.83611" lon="-0.43023">
        <ele>1909</ele>
        <time>2021-08-10 13:56:57</time>
      </trkpt>
      <trkpt lat="42.83611" lon="-0.43022">
        <ele>1909</ele>
        <time>2021-08-10 13:56:58</time>
      </trkpt>
      <trkpt lat="42.83611" lon="-0.43022">
        <ele>1908.8</ele>
        <time>2021-08-10 13:56:59</time>
      </trkpt>
      <trkpt lat="42.8361" lon="-0.43022">
        <ele>1909</ele>
        <time>2021-08-10 13:57:00</time>
      </trkpt>
      <trkpt lat="42.8361" lon="-0.43021">
        <ele>1908.6</ele>
        <time>2021-08-10 13:57:01</time>
      </trkpt>
      <trkpt lat="42.83609" lon="-0.4302">
        <ele>1908.6</ele>
        <time>2021-08-10 13:57:02</time>
      </trkpt>
      <trkpt lat="42.83609" lon="-0.4302">
        <ele>1908.4</ele>
        <time>2021-08-10 13:57:03</time>
      </trkpt>
      <trkpt lat="42.83608" lon="-0.4302">
        <ele>1908</ele>
        <time>2021-08-10 13:57:04</time>
      </trkpt>
      <trkpt lat="42.83607" lon="-0.43018">
        <ele>1907.8</ele>
        <time>2021-08-10 13:57:05</time>
      </trkpt>
      <trkpt lat="42.83607" lon="-0.43018">
        <ele>1907.8</ele>
        <time>2021-08-10 13:57:06</time>
      </trkpt>
      <trkpt lat="42.83607" lon="-0.43018">
        <ele>1907.8</ele>
        <time>2021-08-10 13:57:07</time>
      </trkpt>
      <trkpt lat="42.83607" lon="-0.43017">
        <ele>1907.6</ele>
        <time>2021-08-10 13:57:08</time>
      </trkpt>
      <trkpt lat="42.83606" lon="-0.43016">
        <ele>1907.4</ele>
        <time>2021-08-10 13:57:09</time>
      </trkpt>
      <trkpt lat="42.83606" lon="-0.43015">
        <ele>1907.4</ele>
        <time>2021-08-10 13:57:10</time>
      </trkpt>
      <trkpt lat="42.83605" lon="-0.43013">
        <ele>1907.2</ele>
        <time>2021-08-10 13:57:11</time>
      </trkpt>
      <trkpt lat="42.83605" lon="-0.43012">
        <ele>1907</ele>
        <time>2021-08-10 13:57:12</time>
      </trkpt>
      <trkpt lat="42.83604" lon="-0.43011">
        <ele>1906.6</ele>
        <time>2021-08-10 13:57:13</time>
      </trkpt>
      <trkpt lat="42.83604" lon="-0.43009">
        <ele>1906.6</ele>
        <time>2021-08-10 13:57:14</time>
      </trkpt>
      <trkpt lat="42.83603" lon="-0.43008">
        <ele>1906.6</ele>
        <time>2021-08-10 13:57:15</time>
      </trkpt>
      <trkpt lat="42.83603" lon="-0.43007">
        <ele>1906.4</ele>
        <time>2021-08-10 13:57:16</time>
      </trkpt>
      <trkpt lat="42.83602" lon="-0.43005">
        <ele>1906.2</ele>
        <time>2021-08-10 13:57:17</time>
      </trkpt>
      <trkpt lat="42.83602" lon="-0.43004">
        <ele>1906.2</ele>
        <time>2021-08-10 13:57:18</time>
      </trkpt>
      <trkpt lat="42.83601" lon="-0.43003">
        <ele>1906</ele>
        <time>2021-08-10 13:57:19</time>
      </trkpt>
      <trkpt lat="42.83601" lon="-0.43001">
        <ele>1906</ele>
        <time>2021-08-10 13:57:20</time>
      </trkpt>
      <trkpt lat="42.83601" lon="-0.43">
        <ele>1905.8</ele>
        <time>2021-08-10 13:57:21</time>
      </trkpt>
      <trkpt lat="42.836" lon="-0.42999">
        <ele>1905.6</ele>
        <time>2021-08-10 13:57:22</time>
      </trkpt>
      <trkpt lat="42.83599" lon="-0.42998">
        <ele>1905.4</ele>
        <time>2021-08-10 13:57:23</time>
      </trkpt>
      <trkpt lat="42.83599" lon="-0.42995">
        <ele>1905.4</ele>
        <time>2021-08-10 13:57:24</time>
      </trkpt>
      <trkpt lat="42.83599" lon="-0.42995">
        <ele>1905.4</ele>
        <time>2021-08-10 13:57:25</time>
      </trkpt>
      <trkpt lat="42.83598" lon="-0.42993">
        <ele>1905.2</ele>
        <time>2021-08-10 13:57:32</time>
      </trkpt>
      <trkpt lat="42.83598" lon="-0.42993">
        <ele>1905.2</ele>
        <time>2021-08-10 13:57:33</time>
      </trkpt>
      <trkpt lat="42.83598" lon="-0.42991">
        <ele>1905.2</ele>
        <time>2021-08-10 13:57:34</time>
      </trkpt>
      <trkpt lat="42.83598" lon="-0.42989">
        <ele>1905.2</ele>
        <time>2021-08-10 13:57:35</time>
      </trkpt>
      <trkpt lat="42.83598" lon="-0.42988">
        <ele>1905</ele>
        <time>2021-08-10 13:57:36</time>
      </trkpt>
      <trkpt lat="42.83597" lon="-0.42985">
        <ele>1905</ele>
        <time>2021-08-10 13:57:37</time>
      </trkpt>
      <trkpt lat="42.83597" lon="-0.42984">
        <ele>1905</ele>
        <time>2021-08-10 13:57:38</time>
      </trkpt>
      <trkpt lat="42.83596" lon="-0.42982">
        <ele>1904.8</ele>
        <time>2021-08-10 13:57:39</time>
      </trkpt>
      <trkpt lat="42.83596" lon="-0.42981">
        <ele>1904.8</ele>
        <time>2021-08-10 13:57:40</time>
      </trkpt>
      <trkpt lat="42.83596" lon="-0.4298">
        <ele>1904.6</ele>
        <time>2021-08-10 13:57:41</time>
      </trkpt>
      <trkpt lat="42.83595" lon="-0.42979">
        <ele>1904.4</ele>
        <time>2021-08-10 13:57:42</time>
      </trkpt>
      <trkpt lat="42.83596" lon="-0.42978">
        <ele>1904.4</ele>
        <time>2021-08-10 13:57:43</time>
      </trkpt>
      <trkpt lat="42.83596" lon="-0.42977">
        <ele>1904.2</ele>
        <time>2021-08-10 13:57:44</time>
      </trkpt>
      <trkpt lat="42.83595" lon="-0.42975">
        <ele>1904</ele>
        <time>2021-08-10 13:57:45</time>
      </trkpt>
      <trkpt lat="42.83595" lon="-0.42974">
        <ele>1904</ele>
        <time>2021-08-10 13:57:46</time>
      </trkpt>
      <trkpt lat="42.83595" lon="-0.42972">
        <ele>1904</ele>
        <time>2021-08-10 13:57:47</time>
      </trkpt>
      <trkpt lat="42.83595" lon="-0.4297">
        <ele>1904</ele>
        <time>2021-08-10 13:57:48</time>
      </trkpt>
      <trkpt lat="42.83595" lon="-0.42969">
        <ele>1903.8</ele>
        <time>2021-08-10 13:57:49</time>
      </trkpt>
      <trkpt lat="42.83595" lon="-0.42968">
        <ele>1903.6</ele>
        <time>2021-08-10 13:57:50</time>
      </trkpt>
      <trkpt lat="42.83595" lon="-0.42967">
        <ele>1903.2</ele>
        <time>2021-08-10 13:57:51</time>
      </trkpt>
      <trkpt lat="42.83595" lon="-0.42965">
        <ele>1903</ele>
        <time>2021-08-10 13:57:52</time>
      </trkpt>
      <trkpt lat="42.83594" lon="-0.42963">
        <ele>1903.4</ele>
        <time>2021-08-10 13:57:53</time>
      </trkpt>
      <trkpt lat="42.83594" lon="-0.42961">
        <ele>1903.2</ele>
      </trkpt>
      <trkpt lat="42.83594" lon="-0.42959">
        <ele>1903</ele>
        <time>2021-08-10 13:57:54</time>
      </trkpt>
      <trkpt lat="42.83594" lon="-0.42957">
        <ele>1903.2</ele>
        <time>2021-08-10 13:57:55</time>
      </trkpt>
      <trkpt lat="42.83594" lon="-0.42956">
        <ele>1903</ele>
        <time>2021-08-10 13:57:56</time>
      </trkpt>
      <trkpt lat="42.83594" lon="-0.42954">
        <ele>1902.8</ele>
        <time>2021-08-10 13:57:57</time>
      </trkpt>
      <trkpt lat="42.83594" lon="-0.42953">
        <ele>1902.8</ele>
        <time>2021-08-10 13:57:58</time>
      </trkpt>
      <trkpt lat="42.83594" lon="-0.42952">
        <ele>1902.6</ele>
        <time>2021-08-10 13:57:59</time>
      </trkpt>
      <trkpt lat="42.83594" lon="-0.42951">
        <ele>1902.4</ele>
        <time>2021-08-10 13:58:00</time>
      </trkpt>
      <trkpt lat="42.83593" lon="-0.4295">
        <ele>1902</ele>
        <time>2021-08-10 13:58:01</time>
      </trkpt>
      <trkpt lat="42.83593" lon="-0.42948">
        <ele>1902</ele>
        <time>2021-08-10 13:58:02</time>
      </trkpt>
      <trkpt lat="42.83593" lon="-0.42947">
        <ele>1901.8</ele>
        <time>2021-08-10 13:58:03</time>
      </trkpt>
      <trkpt lat="42.83592" lon="-0.42945">
        <ele>1901.8</ele>
        <time>2021-08-10 13:58:04</time>
      </trkpt>
      <trkpt lat="42.83592" lon="-0.42944">
        <ele>1901.4</ele>
        <time>2021-08-10 13:58:05</time>
      </trkpt>
      <trkpt lat="42.83592" lon="-0.42943">
        <ele>1901.4</ele>
        <time>2021-08-10 13:58:06</time>
      </trkpt>
      <trkpt lat="42.83591" lon="-0.42943">
        <ele>1901.4</ele>
        <time>2021-08-10 13:58:07</time>
      </trkpt>
      <trkpt lat="42.83591" lon="-0.42942">
        <ele>1901</ele>
        <time>2021-08-10 13:58:08</time>
      </trkpt>
      <trkpt lat="42.83591" lon="-0.42941">
        <ele>1901</ele>
        <time>2021-08-10 13:58:09</time>
      </trkpt>
      <trkpt lat="42.8359" lon="-0.4294">
        <ele>1900.8</ele>
        <time>2021-08-10 13:58:10</time>
      </trkpt>
      <trkpt lat="42.8359" lon="-0.4294">
        <ele>1901</ele>
        <time>2021-08-10 13:58:12</time>
      </trkpt>
      <trkpt lat="42.83589" lon="-0.42939">
        <ele>1900.8</ele>
      </trkpt>
      <trkpt lat="42.83589" lon="-0.42938">
        <ele>1900.8</ele>
        <time>2021-08-10 13:58:13</time>
      </trkpt>
      <trkpt lat="42.83588" lon="-0.42937">
        <ele>1900.4</ele>
        <time>2021-08-10 13:58:14</time>
      </trkpt>
      <trkpt lat="42.83587" lon="-0.42936">
        <ele>1900.4</ele>
        <time>2021-08-10 13:58:15</time>
      </trkpt>
      <trkpt lat="42.83587" lon="-0.42935">
        <ele>1899.8</ele>
        <time>2021-08-10 13:58:16</time>
      </trkpt>
      <trkpt lat="42.83587" lon="-0.42934">
        <ele>1899.6</ele>
        <time>2021-08-10 13:58:17</time>
      </trkpt>
      <trkpt lat="42.83587" lon="-0.42934">
        <ele>1899.4</ele>
        <time>2021-08-10 13:58:18</time>
      </trkpt>
      <trkpt lat="42.83586" lon="-0.42933">
        <ele>1899.6</ele>
        <time>2021-08-10 13:58:19</time>
      </trkpt>
      <trkpt lat="42.83586" lon="-0.42933">
        <ele>1899.4</ele>
        <time>2021-08-10 13:58:20</time>
      </trkpt>
      <trkpt lat="42.83586" lon="-0.42932">
        <ele>1899.2</ele>
        <time>2021-08-10 13:58:21</time>
      </trkpt>
      <trkpt lat="42.83585" lon="-0.42931">
        <ele>1898.6</ele>
        <time>2021-08-10 13:58:22</time>
      </trkpt>
      <trkpt lat="42.83585" lon="-0.42931">
        <ele>1899</ele>
        <time>2021-08-10 13:58:23</time>
      </trkpt>
      <trkpt lat="42.83585" lon="-0.42931">
        <ele>1898.8</ele>
        <time>2021-08-10 13:58:24</time>
      </trkpt>
      <trkpt lat="42.83585" lon="-0.42929">
        <ele>1898.8</ele>
        <time>2021-08-10 13:58:25</time>
      </trkpt>
      <trkpt lat="42.83585" lon="-0.42929">
        <ele>1898.6</ele>
        <time>2021-08-10 13:58:26</time>
      </trkpt>
      <trkpt lat="42.83584" lon="-0.42928">
        <ele>1898.6</ele>
        <time>2021-08-10 13:58:27</time>
      </trkpt>
      <trkpt lat="42.83584" lon="-0.42928">
        <ele>1898.6</ele>
        <time>2021-08-10 13:58:28</time>
      </trkpt>
      <trkpt lat="42.83583" lon="-0.42928">
        <ele>1898.4</ele>
        <time>2021-08-10 13:58:29</time>
      </trkpt>
      <trkpt lat="42.83583" lon="-0.42928">
        <ele>1898.2</ele>
        <time>2021-08-10 13:58:30</time>
      </trkpt>
      <trkpt lat="42.83583" lon="-0.42927">
        <ele>1898</ele>
        <time>2021-08-10 13:58:32</time>
      </trkpt>
      <trkpt lat="42.83583" lon="-0.42926">
        <ele>1898</ele>
      </trkpt>
      <trkpt lat="42.83583" lon="-0.42925">
        <ele>1897.8</ele>
        <time>2021-08-10 13:58:33</time>
      </trkpt>
      <trkpt lat="42.83583" lon="-0.42925">
        <ele>1897.8</ele>
        <time>2021-08-10 13:58:34</time>
      </trkpt>
      <trkpt lat="42.83582" lon="-0.42924">
        <ele>1897.6</ele>
        <time>2021-08-10 13:58:35</time>
      </trkpt>
      <trkpt lat="42.83582" lon="-0.42923">
        <ele>1897.6</ele>
        <time>2021-08-10 13:58:36</time>
      </trkpt>
      <trkpt lat="42.83582" lon="-0.42923">
        <ele>1897.4</ele>
        <time>2021-08-10 13:58:37</time>
      </trkpt>
      <trkpt lat="42.83581" lon="-0.42921">
        <ele>1897.4</ele>
        <time>2021-08-10 13:58:38</time>
      </trkpt>
      <trkpt lat="42.83581" lon="-0.4292">
        <ele>1897.2</ele>
        <time>2021-08-10 13:58:39</time>
      </trkpt>
      <trkpt lat="42.8358" lon="-0.4292">
        <ele>1897</ele>
        <time>2021-08-10 13:58:40</time>
      </trkpt>
      <trkpt lat="42.8358" lon="-0.42919">
        <ele>1896.8</ele>
        <time>2021-08-10 13:58:41</time>
      </trkpt>
      <trkpt lat="42.8358" lon="-0.42918">
        <ele>1896.6</ele>
        <time>2021-08-10 13:58:42</time>
      </trkpt>
      <trkpt lat="42.8358" lon="-0.42917">
        <ele>1896.4</ele>
        <time>2021-08-10 13:58:43</time>
      </trkpt>
      <trkpt lat="42.8358" lon="-0.42916">
        <ele>1896.4</ele>
        <time>2021-08-10 13:58:44</time>
      </trkpt>
      <trkpt lat="42.83579" lon="-0.42916">
        <ele>1896.2</ele>
        <time>2021-08-10 13:58:45</time>
      </trkpt>
      <trkpt lat="42.83579" lon="-0.42915">
        <ele>1896</ele>
        <time>2021-08-10 13:58:46</time>
      </trkpt>
      <trkpt lat="42.83578" lon="-0.42914">
        <ele>1896</ele>
        <time>2021-08-10 13:58:47</time>
      </trkpt>
      <trkpt lat="42.83578" lon="-0.42914">
        <ele>1895.8</ele>
        <time>2021-08-10 13:58:48</time>
      </trkpt>
      <trkpt lat="42.83577" lon="-0.42913">
        <ele>1895.8</ele>
        <time>2021-08-10 13:58:49</time>
      </trkpt>
      <trkpt lat="42.83577" lon="-0.42912">
        <ele>1895.6</ele>
        <time>2021-08-10 13:58:50</time>
      </trkpt>
      <trkpt lat="42.83576" lon="-0.42912">
        <ele>1895.6</ele>
        <time>2021-08-10 13:58:51</time>
      </trkpt>
      <trkpt lat="42.83576" lon="-0.42911">
        <ele>1895.4</ele>
        <time>2021-08-10 13:58:52</time>
      </trkpt>
      <trkpt lat="42.83575" lon="-0.42909">
        <ele>1895.4</ele>
        <time>2021-08-10 13:58:53</time>
      </trkpt>
      <trkpt lat="42.83574" lon="-0.42908">
        <ele>1895.2</ele>
        <time>2021-08-10 13:58:54</time>
      </trkpt>
      <trkpt lat="42.83574" lon="-0.42907">
        <ele>1895.2</ele>
        <time>2021-08-10 13:58:55</time>
      </trkpt>
      <trkpt lat="42.83574" lon="-0.42907">
        <ele>1895</ele>
        <time>2021-08-10 13:58:56</time>
      </trkpt>
      <trkpt lat="42.83573" lon="-0.42906">
        <ele>1895</ele>
        <time>2021-08-10 13:58:57</time>
      </trkpt>
      <trkpt lat="42.83573" lon="-0.42906">
        <ele>1894.8</ele>
        <time>2021-08-10 13:58:58</time>
      </trkpt>
      <trkpt lat="42.83573" lon="-0.42905">
        <ele>1894.6</ele>
        <time>2021-08-10 13:58:59</time>
      </trkpt>
      <trkpt lat="42.83573" lon="-0.42904">
        <ele>1894.4</ele>
        <time>2021-08-10 13:59:00</time>
      </trkpt>
      <trkpt lat="42.83573" lon="-0.42903">
        <ele>1894.4</ele>
        <time>2021-08-10 13:59:01</time>
      </trkpt>
      <trkpt lat="42.83573" lon="-0.42903">
        <ele>1894.4</ele>
        <time>2021-08-10 13:59:02</time>
      </trkpt>
      <trkpt lat="42.83573" lon="-0.42902">
        <ele>1894.2</ele>
        <time>2021-08-10 13:59:03</time>
      </trkpt>
      <trkpt lat="42.83573" lon="-0.42901">
        <ele>1893.8</ele>
        <time>2021-08-10 13:59:04</time>
      </trkpt>
      <trkpt lat="42.83572" lon="-0.429">
        <ele>1893.6</ele>
        <time>2021-08-10 13:59:05</time>
      </trkpt>
      <trkpt lat="42.83572" lon="-0.42899">
        <ele>1893.6</ele>
        <time>2021-08-10 13:59:06</time>
      </trkpt>
      <trkpt lat="42.83571" lon="-0.42898">
        <ele>1893.4</ele>
        <time>2021-08-10 13:59:07</time>
      </trkpt>
      <trkpt lat="42.8357" lon="-0.42897">
        <ele>1893.2</ele>
        <time>2021-08-10 13:59:08</time>
      </trkpt>
      <trkpt lat="42.8357" lon="-0.42896">
        <ele>1893.4</ele>
        <time>2021-08-10 13:59:09</time>
      </trkpt>
      <trkpt lat="42.83569" lon="-0.42896">
        <ele>1893.2</ele>
        <time>2021-08-10 13:59:10</time>
      </trkpt>
      <trkpt lat="42.83569" lon="-0.42894">
        <ele>1893.2</ele>
        <time>2021-08-10 13:59:11</time>
      </trkpt>
      <trkpt lat="42.83568" lon="-0.42894">
        <ele>1893</ele>
        <time>2021-08-10 13:59:12</time>
      </trkpt>
      <trkpt lat="42.83567" lon="-0.42893">
        <ele>1892.8</ele>
        <time>2021-08-10 13:59:13</time>
      </trkpt>
      <trkpt lat="42.83566" lon="-0.42894">
        <ele>1892.6</ele>
        <time>2021-08-10 13:59:14</time>
      </trkpt>
      <trkpt lat="42.83565" lon="-0.42895">
        <ele>1892.8</ele>
        <time>2021-08-10 13:59:15</time>
      </trkpt>
      <trkpt lat="42.83565" lon="-0.42895">
        <ele>1892.8</ele>
        <time>2021-08-10 13:59:16</time>
      </trkpt>
      <trkpt lat="42.83564" lon="-0.42896">
        <ele>1892.8</ele>
        <time>2021-08-10 13:59:17</time>
      </trkpt>
      <trkpt lat="42.83564" lon="-0.42896">
        <ele>1892.6</ele>
        <time>2021-08-10 13:59:18</time>
      </trkpt>
      <trkpt lat="42.83564" lon="-0.42896">
        <ele>1892.6</ele>
        <time>2021-08-10 13:59:19</time>
      </trkpt>
      <trkpt lat="42.83564" lon="-0.42897">
        <ele>1892.4</ele>
        <time>2021-08-10 13:59:20</time>
      </trkpt>
      <trkpt lat="42.83563" lon="-0.42897">
        <ele>1892.2</ele>
        <time>2021-08-10 13:59:21</time>
      </trkpt>
      <trkpt lat="42.83562" lon="-0.42898">
        <ele>1892</ele>
        <time>2021-08-10 13:59:22</time>
      </trkpt>
      <trkpt lat="42.83562" lon="-0.42898">
        <ele>1891.6</ele>
        <time>2021-08-10 13:59:23</time>
      </trkpt>
      <trkpt lat="42.83562" lon="-0.42897">
        <ele>1891.6</ele>
        <time>2021-08-10 13:59:24</time>
      </trkpt>
      <trkpt lat="42.83562" lon="-0.42896">
        <ele>1891.6</ele>
        <time>2021-08-10 13:59:25</time>
      </trkpt>
      <trkpt lat="42.83561" lon="-0.42893">
        <ele>1891.4</ele>
        <time>2021-08-10 13:59:26</time>
      </trkpt>
      <trkpt lat="42.83561" lon="-0.42893">
        <ele>1891.2</ele>
        <time>2021-08-10 13:59:27</time>
      </trkpt>
      <trkpt lat="42.83559" lon="-0.42894">
        <ele>1891.2</ele>
        <time>2021-08-10 13:59:28</time>
      </trkpt>
      <trkpt lat="42.83559" lon="-0.42893">
        <ele>1891</ele>
        <time>2021-08-10 13:59:29</time>
      </trkpt>
      <trkpt lat="42.83559" lon="-0.42893">
        <ele>1890.6</ele>
        <time>2021-08-10 13:59:30</time>
      </trkpt>
      <trkpt lat="42.8356" lon="-0.42893">
        <ele>1890.2</ele>
        <time>2021-08-10 13:59:31</time>
      </trkpt>
      <trkpt lat="42.8356" lon="-0.42893">
        <ele>1890.2</ele>
        <time>2021-08-10 13:59:32</time>
      </trkpt>
      <trkpt lat="42.83561" lon="-0.42892">
        <ele>1890.2</ele>
        <time>2021-08-10 13:59:33</time>
      </trkpt>
      <trkpt lat="42.8356" lon="-0.42891">
        <ele>1890</ele>
        <time>2021-08-10 13:59:34</time>
      </trkpt>
      <trkpt lat="42.8356" lon="-0.42891">
        <ele>1890</ele>
        <time>2021-08-10 13:59:35</time>
      </trkpt>
      <trkpt lat="42.8356" lon="-0.42891">
        <ele>1890</ele>
        <time>2021-08-10 13:59:36</time>
      </trkpt>
      <trkpt lat="42.8356" lon="-0.4289">
        <ele>1889.4</ele>
        <time>2021-08-10 13:59:37</time>
      </trkpt>
      <trkpt lat="42.8356" lon="-0.4289">
        <ele>1889.4</ele>
        <time>2021-08-10 13:59:38</time>
      </trkpt>
      <trkpt lat="42.8356" lon="-0.42889">
        <ele>1889.4</ele>
        <time>2021-08-10 13:59:39</time>
      </trkpt>
      <trkpt lat="42.8356" lon="-0.42889">
        <ele>1889.2</ele>
        <time>2021-08-10 13:59:40</time>
      </trkpt>
      <trkpt lat="42.8356" lon="-0.42888">
        <ele>1889.2</ele>
        <time>2021-08-10 13:59:41</time>
      </trkpt>
      <trkpt lat="42.8356" lon="-0.42887">
        <ele>1889</ele>
        <time>2021-08-10 13:59:42</time>
      </trkpt>
      <trkpt lat="42.83559" lon="-0.42886">
        <ele>1889</ele>
        <time>2021-08-10 13:59:43</time>
      </trkpt>
      <trkpt lat="42.83559" lon="-0.42885">
        <ele>1888.8</ele>
        <time>2021-08-10 13:59:44</time>
      </trkpt>
      <trkpt lat="42.83558" lon="-0.42884">
        <ele>1888.6</ele>
        <time>2021-08-10 13:59:45</time>
      </trkpt>
      <trkpt lat="42.83558" lon="-0.42883">
        <ele>1888.4</ele>
        <time>2021-08-10 13:59:46</time>
      </trkpt>
      <trkpt lat="42.83557" lon="-0.42882">
        <ele>1888.8</ele>
        <time>2021-08-10 13:59:47</time>
      </trkpt>
      <trkpt lat="42.83557" lon="-0.42881">
        <ele>1888.6</ele>
        <time>2021-08-10 13:59:48</time>
      </trkpt>
      <trkpt lat="42.83556" lon="-0.42881">
        <ele>1888.6</ele>
        <time>2021-08-10 13:59:49</time>
      </trkpt>
      <trkpt lat="42.83556" lon="-0.4288">
        <ele>1888.2</ele>
        <time>2021-08-10 13:59:50</time>
      </trkpt>
      <trkpt lat="42.83555" lon="-0.4288">
        <ele>1888.2</ele>
        <time>2021-08-10 13:59:51</time>
      </trkpt>
      <trkpt lat="42.83555" lon="-0.42878">
        <ele>1888.2</ele>
        <time>2021-08-10 13:59:52</time>
      </trkpt>
      <trkpt lat="42.83554" lon="-0.42878">
        <ele>1888.4</ele>
        <time>2021-08-10 13:59:53</time>
      </trkpt>
      <trkpt lat="42.83553" lon="-0.42876">
        <ele>1888.4</ele>
        <time>2021-08-10 13:59:54</time>
      </trkpt>
      <trkpt lat="42.83552" lon="-0.42875">
        <ele>1888.6</ele>
        <time>2021-08-10 13:59:55</time>
      </trkpt>
      <trkpt lat="42.83552" lon="-0.42874">
        <ele>1888.6</ele>
        <time>2021-08-10 13:59:56</time>
      </trkpt>
      <trkpt lat="42.83551" lon="-0.42872">
        <ele>1888.8</ele>
        <time>2021-08-10 13:59:57</time>
      </trkpt>
      <trkpt lat="42.8355" lon="-0.42871">
        <ele>1889</ele>
        <time>2021-08-10 13:59:58</time>
      </trkpt>
      <trkpt lat="42.8355" lon="-0.42871">
        <ele>1889</ele>
        <time>2021-08-10 13:59:59</time>
      </trkpt>
      <trkpt lat="42.8355" lon="-0.4287">
        <ele>1888.8</ele>
        <time>2021-08-10 14:00:00</time>
      </trkpt>
      <trkpt lat="42.83549" lon="-0.42869">
        <ele>1888.6</ele>
        <time>2021-08-10 14:00:01</time>
      </trkpt>
      <trkpt lat="42.83549" lon="-0.42868">
        <ele>1888.4</ele>
        <time>2021-08-10 14:00:02</time>
      </trkpt>
      <trkpt lat="42.83549" lon="-0.42867">
        <ele>1888.4</ele>
        <time>2021-08-10 14:00:03</time>
      </trkpt>
      <trkpt lat="42.83548" lon="-0.42867">
        <ele>1888.4</ele>
        <time>2021-08-10 14:00:04</time>
      </trkpt>
      <trkpt lat="42.83548" lon="-0.42865">
        <ele>1888.4</ele>
        <time>2021-08-10 14:00:05</time>
      </trkpt>
      <trkpt lat="42.83547" lon="-0.42864">
        <ele>1888.4</ele>
        <time>2021-08-10 14:00:06</time>
      </trkpt>
      <trkpt lat="42.83547" lon="-0.42864">
        <ele>1888.6</ele>
        <time>2021-08-10 14:00:07</time>
      </trkpt>
      <trkpt lat="42.83547" lon="-0.42862">
        <ele>1888.6</ele>
        <time>2021-08-10 14:00:08</time>
      </trkpt>
      <trkpt lat="42.83546" lon="-0.42861">
        <ele>1888.8</ele>
        <time>2021-08-10 14:00:09</time>
      </trkpt>
      <trkpt lat="42.83545" lon="-0.42859">
        <ele>1888.8</ele>
        <time>2021-08-10 14:00:10</time>
      </trkpt>
      <trkpt lat="42.83545" lon="-0.42859">
        <ele>1888.8</ele>
        <time>2021-08-10 14:00:11</time>
      </trkpt>
      <trkpt lat="42.83544" lon="-0.42857">
        <ele>1888.8</ele>
        <time>2021-08-10 14:00:12</time>
      </trkpt>
      <trkpt lat="42.83543" lon="-0.42857">
        <ele>1888.8</ele>
        <time>2021-08-10 14:00:13</time>
      </trkpt>
      <trkpt lat="42.83543" lon="-0.42855">
        <ele>1887.8</ele>
        <time>2021-08-10 14:00:14</time>
      </trkpt>
      <trkpt lat="42.83543" lon="-0.42854">
        <ele>1888.2</ele>
        <time>2021-08-10 14:00:15</time>
      </trkpt>
      <trkpt lat="42.83543" lon="-0.42853">
        <ele>1888</ele>
        <time>2021-08-10 14:00:16</time>
      </trkpt>
      <trkpt lat="42.83543" lon="-0.42851">
        <ele>1888.2</ele>
        <time>2021-08-10 14:00:17</time>
      </trkpt>
      <trkpt lat="42.83542" lon="-0.4285">
        <ele>1888</ele>
        <time>2021-08-10 14:00:18</time>
      </trkpt>
      <trkpt lat="42.83542" lon="-0.42849">
        <ele>1887.8</ele>
        <time>2021-08-10 14:00:19</time>
      </trkpt>
      <trkpt lat="42.83542" lon="-0.42848">
        <ele>1888</ele>
        <time>2021-08-10 14:00:20</time>
      </trkpt>
      <trkpt lat="42.83541" lon="-0.42846">
        <ele>1887.8</ele>
        <time>2021-08-10 14:00:21</time>
      </trkpt>
      <trkpt lat="42.8354" lon="-0.42844">
        <ele>1887.8</ele>
        <time>2021-08-10 14:00:22</time>
      </trkpt>
      <trkpt lat="42.8354" lon="-0.42843">
        <ele>1887.8</ele>
        <time>2021-08-10 14:00:23</time>
      </trkpt>
      <trkpt lat="42.83539" lon="-0.42842">
        <ele>1887.8</ele>
        <time>2021-08-10 14:00:24</time>
      </trkpt>
      <trkpt lat="42.83539" lon="-0.42842">
        <ele>1887.8</ele>
        <time>2021-08-10 14:00:25</time>
      </trkpt>
      <trkpt lat="42.83538" lon="-0.42841">
        <ele>1887.8</ele>
        <time>2021-08-10 14:00:26</time>
      </trkpt>
      <trkpt lat="42.83538" lon="-0.42839">
        <ele>1887.8</ele>
        <time>2021-08-10 14:00:27</time>
      </trkpt>
      <trkpt lat="42.83537" lon="-0.42838">
        <ele>1887.6</ele>
        <time>2021-08-10 14:00:28</time>
      </trkpt>
      <trkpt lat="42.83536" lon="-0.42837">
        <ele>1887.2</ele>
        <time>2021-08-10 14:00:29</time>
      </trkpt>
      <trkpt lat="42.83536" lon="-0.42835">
        <ele>1887.2</ele>
        <time>2021-08-10 14:00:30</time>
      </trkpt>
      <trkpt lat="42.83535" lon="-0.42834">
        <ele>1887.4</ele>
        <time>2021-08-10 14:00:31</time>
      </trkpt>
      <trkpt lat="42.83535" lon="-0.42833">
        <ele>1887.6</ele>
        <time>2021-08-10 14:00:32</time>
      </trkpt>
      <trkpt lat="42.83534" lon="-0.42832">
        <ele>1887.8</ele>
        <time>2021-08-10 14:00:33</time>
      </trkpt>
      <trkpt lat="42.83534" lon="-0.42831">
        <ele>1887.8</ele>
        <time>2021-08-10 14:00:34</time>
      </trkpt>
      <trkpt lat="42.83533" lon="-0.4283">
        <ele>1888</ele>
        <time>2021-08-10 14:00:35</time>
      </trkpt>
      <trkpt lat="42.83532" lon="-0.42828">
        <ele>1887.6</ele>
        <time>2021-08-10 14:00:36</time>
      </trkpt>
      <trkpt lat="42.83531" lon="-0.42828">
        <ele>1888</ele>
        <time>2021-08-10 14:00:37</time>
      </trkpt>
      <trkpt lat="42.8353" lon="-0.42828">
        <ele>1887.8</ele>
        <time>2021-08-10 14:00:38</time>
      </trkpt>
      <trkpt lat="42.8353" lon="-0.42827">
        <ele>1888</ele>
        <time>2021-08-10 14:00:39</time>
      </trkpt>
      <trkpt lat="42.83529" lon="-0.42825">
        <ele>1887.8</ele>
        <time>2021-08-10 14:00:40</time>
      </trkpt>
      <trkpt lat="42.83529" lon="-0.42824">
        <ele>1888.2</ele>
        <time>2021-08-10 14:00:41</time>
      </trkpt>
      <trkpt lat="42.8353" lon="-0.42823">
        <ele>1888</ele>
        <time>2021-08-10 14:00:42</time>
      </trkpt>
      <trkpt lat="42.8353" lon="-0.42821">
        <ele>1888.2</ele>
        <time>2021-08-10 14:00:43</time>
      </trkpt>
      <trkpt lat="42.83529" lon="-0.4282">
        <ele>1888.2</ele>
        <time>2021-08-10 14:00:44</time>
      </trkpt>
      <trkpt lat="42.83529" lon="-0.42819">
        <ele>1888.2</ele>
        <time>2021-08-10 14:00:45</time>
      </trkpt>
      <trkpt lat="42.83528" lon="-0.42818">
        <ele>1888</ele>
        <time>2021-08-10 14:00:46</time>
      </trkpt>
      <trkpt lat="42.83528" lon="-0.42818">
        <ele>1887.8</ele>
        <time>2021-08-10 14:00:47</time>
      </trkpt>
      <trkpt lat="42.83528" lon="-0.42818">
        <ele>1887.8</ele>
        <time>2021-08-10 14:00:48</time>
      </trkpt>
      <trkpt lat="42.83528" lon="-0.42817">
        <ele>1887.6</ele>
        <time>2021-08-10 14:00:49</time>
      </trkpt>
      <trkpt lat="42.83528" lon="-0.42815">
        <ele>1887.4</ele>
        <time>2021-08-10 14:00:50</time>
      </trkpt>
      <trkpt lat="42.83528" lon="-0.42812">
        <ele>1887.6</ele>
        <time>2021-08-10 14:00:51</time>
      </trkpt>
      <trkpt lat="42.83527" lon="-0.4281">
        <ele>1887.4</ele>
        <time>2021-08-10 14:00:52</time>
      </trkpt>
      <trkpt lat="42.83528" lon="-0.42809">
        <ele>1887.2</ele>
        <time>2021-08-10 14:00:53</time>
      </trkpt>
      <trkpt lat="42.83528" lon="-0.42809">
        <ele>1887.2</ele>
        <time>2021-08-10 14:00:54</time>
      </trkpt>
      <trkpt lat="42.83528" lon="-0.42808">
        <ele>1887</ele>
        <time>2021-08-10 14:00:55</time>
      </trkpt>
      <trkpt lat="42.83528" lon="-0.42807">
        <ele>1887</ele>
        <time>2021-08-10 14:00:56</time>
      </trkpt>
      <trkpt lat="42.83528" lon="-0.42807">
        <ele>1887</ele>
        <time>2021-08-10 14:00:57</time>
      </trkpt>
      <trkpt lat="42.83528" lon="-0.42806">
        <ele>1886.8</ele>
        <time>2021-08-10 14:00:58</time>
      </trkpt>
      <trkpt lat="42.83529" lon="-0.42807">
        <ele>1886.8</ele>
        <time>2021-08-10 14:00:59</time>
      </trkpt>
      <trkpt lat="42.83529" lon="-0.42806">
        <ele>1884.6</ele>
        <time>2021-08-10 14:01:00</time>
      </trkpt>
      <trkpt lat="42.83528" lon="-0.42806">
        <ele>1886</ele>
        <time>2021-08-10 14:01:01</time>
      </trkpt>
      <trkpt lat="42.83528" lon="-0.42805">
        <ele>1886</ele>
        <time>2021-08-10 14:01:02</time>
      </trkpt>
      <trkpt lat="42.83528" lon="-0.42804">
        <ele>1886.8</ele>
        <time>2021-08-10 14:01:03</time>
      </trkpt>
      <trkpt lat="42.83527" lon="-0.42802">
        <ele>1886.8</ele>
        <time>2021-08-10 14:01:04</time>
      </trkpt>
      <trkpt lat="42.83527" lon="-0.42801">
        <ele>1886.8</ele>
        <time>2021-08-10 14:01:05</time>
      </trkpt>
      <trkpt lat="42.83526" lon="-0.428">
        <ele>1886.6</ele>
        <time>2021-08-10 14:01:06</time>
      </trkpt>
      <trkpt lat="42.83526" lon="-0.42798">
        <ele>1886.4</ele>
        <time>2021-08-10 14:01:07</time>
      </trkpt>
      <trkpt lat="42.83525" lon="-0.42797">
        <ele>1886.2</ele>
        <time>2021-08-10 14:01:08</time>
      </trkpt>
      <trkpt lat="42.83525" lon="-0.42796">
        <ele>1886.4</ele>
        <time>2021-08-10 14:01:09</time>
      </trkpt>
      <trkpt lat="42.83524" lon="-0.42795">
        <ele>1886.4</ele>
        <time>2021-08-10 14:01:10</time>
      </trkpt>
      <trkpt lat="42.83523" lon="-0.42794">
        <ele>1886.4</ele>
        <time>2021-08-10 14:01:11</time>
      </trkpt>
      <trkpt lat="42.83523" lon="-0.42792">
        <ele>1886.4</ele>
        <time>2021-08-10 14:01:12</time>
      </trkpt>
      <trkpt lat="42.83522" lon="-0.42791">
        <ele>1886.4</ele>
        <time>2021-08-10 14:01:13</time>
      </trkpt>
      <trkpt lat="42.83521" lon="-0.4279">
        <ele>1886.4</ele>
        <time>2021-08-10 14:01:14</time>
      </trkpt>
      <trkpt lat="42.83521" lon="-0.42789">
        <ele>1886.6</ele>
        <time>2021-08-10 14:01:15</time>
      </trkpt>
      <trkpt lat="42.8352" lon="-0.42788">
        <ele>1886.8</ele>
        <time>2021-08-10 14:01:16</time>
      </trkpt>
      <trkpt lat="42.8352" lon="-0.42787">
        <ele>1887</ele>
        <time>2021-08-10 14:01:17</time>
      </trkpt>
      <trkpt lat="42.83521" lon="-0.42786">
        <ele>1887.2</ele>
        <time>2021-08-10 14:01:18</time>
      </trkpt>
      <trkpt lat="42.83521" lon="-0.42784">
        <ele>1886.8</ele>
        <time>2021-08-10 14:01:19</time>
      </trkpt>
      <trkpt lat="42.8352" lon="-0.42783">
        <ele>1886.8</ele>
        <time>2021-08-10 14:01:20</time>
      </trkpt>
      <trkpt lat="42.8352" lon="-0.42781">
        <ele>1887.4</ele>
        <time>2021-08-10 14:01:21</time>
      </trkpt>
      <trkpt lat="42.8352" lon="-0.42779">
        <ele>1887.2</ele>
        <time>2021-08-10 14:01:22</time>
      </trkpt>
      <trkpt lat="42.8352" lon="-0.42778">
        <ele>1887.2</ele>
        <time>2021-08-10 14:01:23</time>
      </trkpt>
      <trkpt lat="42.8352" lon="-0.42778">
        <ele>1887.2</ele>
        <time>2021-08-10 14:01:24</time>
      </trkpt>
      <trkpt lat="42.8352" lon="-0.42777">
        <ele>1887</ele>
        <time>2021-08-10 14:01:25</time>
      </trkpt>
      <trkpt lat="42.8352" lon="-0.42777">
        <ele>1887</ele>
        <time>2021-08-10 14:01:26</time>
      </trkpt>
      <trkpt lat="42.83519" lon="-0.42774">
        <ele>1887</ele>
        <time>2021-08-10 14:01:27</time>
      </trkpt>
      <trkpt lat="42.83519" lon="-0.42773">
        <ele>1887</ele>
        <time>2021-08-10 14:01:28</time>
      </trkpt>
      <trkpt lat="42.8352" lon="-0.42771">
        <ele>1886.8</ele>
        <time>2021-08-10 14:01:29</time>
      </trkpt>
      <trkpt lat="42.83521" lon="-0.4277">
        <ele>1887</ele>
        <time>2021-08-10 14:01:30</time>
      </trkpt>
      <trkpt lat="42.83521" lon="-0.42769">
        <ele>1887.2</ele>
        <time>2021-08-10 14:01:31</time>
      </trkpt>
      <trkpt lat="42.83522" lon="-0.42768">
        <ele>1887.2</ele>
        <time>2021-08-10 14:01:32</time>
      </trkpt>
      <trkpt lat="42.83523" lon="-0.42767">
        <ele>1887.2</ele>
        <time>2021-08-10 14:01:33</time>
      </trkpt>
      <trkpt lat="42.83524" lon="-0.42767">
        <ele>1887.4</ele>
        <time>2021-08-10 14:01:34</time>
      </trkpt>
      <trkpt lat="42.83525" lon="-0.42766">
        <ele>1887.4</ele>
        <time>2021-08-10 14:01:35</time>
      </trkpt>
      <trkpt lat="42.83525" lon="-0.42765">
        <ele>1887.4</ele>
        <time>2021-08-10 14:01:36</time>
      </trkpt>
      <trkpt lat="42.83526" lon="-0.42764">
        <ele>1887.6</ele>
        <time>2021-08-10 14:01:37</time>
      </trkpt>
      <trkpt lat="42.83527" lon="-0.42763">
        <ele>1887.8</ele>
        <time>2021-08-10 14:01:38</time>
      </trkpt>
      <trkpt lat="42.83528" lon="-0.42763">
        <ele>1887.6</ele>
        <time>2021-08-10 14:01:39</time>
      </trkpt>
      <trkpt lat="42.83528" lon="-0.42761">
        <ele>1887.8</ele>
        <time>2021-08-10 14:01:40</time>
      </trkpt>
      <trkpt lat="42.83529" lon="-0.42761">
        <ele>1888</ele>
        <time>2021-08-10 14:01:41</time>
      </trkpt>
      <trkpt lat="42.83529" lon="-0.4276">
        <ele>1888</ele>
        <time>2021-08-10 14:01:42</time>
      </trkpt>
      <trkpt lat="42.8353" lon="-0.42758">
        <ele>1888</ele>
        <time>2021-08-10 14:01:43</time>
      </trkpt>
      <trkpt lat="42.8353" lon="-0.42757">
        <ele>1888</ele>
        <time>2021-08-10 14:01:44</time>
      </trkpt>
      <trkpt lat="42.83531" lon="-0.42754">
        <ele>1888.2</ele>
        <time>2021-08-10 14:01:45</time>
      </trkpt>
      <trkpt lat="42.83531" lon="-0.42752">
        <ele>1888</ele>
        <time>2021-08-10 14:01:46</time>
      </trkpt>
      <trkpt lat="42.83531" lon="-0.4275">
        <ele>1888</ele>
        <time>2021-08-10 14:01:47</time>
      </trkpt>
      <trkpt lat="42.83531" lon="-0.42748">
        <ele>1888.2</ele>
        <time>2021-08-10 14:01:48</time>
      </trkpt>
      <trkpt lat="42.83531" lon="-0.42747">
        <ele>1888.2</ele>
        <time>2021-08-10 14:01:49</time>
      </trkpt>
      <trkpt lat="42.83532" lon="-0.42746">
        <ele>1888.4</ele>
        <time>2021-08-10 14:01:50</time>
      </trkpt>
      <trkpt lat="42.83532" lon="-0.42744">
        <ele>1888.4</ele>
        <time>2021-08-10 14:01:51</time>
      </trkpt>
      <trkpt lat="42.83532" lon="-0.42742">
        <ele>1888.4</ele>
        <time>2021-08-10 14:01:52</time>
      </trkpt>
      <trkpt lat="42.83533" lon="-0.42741">
        <ele>1888.4</ele>
        <time>2021-08-10 14:01:53</time>
      </trkpt>
      <trkpt lat="42.83533" lon="-0.42739">
        <ele>1888.4</ele>
        <time>2021-08-10 14:01:54</time>
      </trkpt>
      <trkpt lat="42.83534" lon="-0.42738">
        <ele>1888.4</ele>
        <time>2021-08-10 14:01:55</time>
      </trkpt>
      <trkpt lat="42.83534" lon="-0.42736">
        <ele>1888.4</ele>
        <time>2021-08-10 14:01:56</time>
      </trkpt>
      <trkpt lat="42.83535" lon="-0.42735">
        <ele>1888.2</ele>
        <time>2021-08-10 14:01:57</time>
      </trkpt>
      <trkpt lat="42.83535" lon="-0.42733">
        <ele>1888.6</ele>
        <time>2021-08-10 14:01:58</time>
      </trkpt>
      <trkpt lat="42.83535" lon="-0.42731">
        <ele>1888.6</ele>
        <time>2021-08-10 14:01:59</time>
      </trkpt>
      <trkpt lat="42.83536" lon="-0.4273">
        <ele>1888.6</ele>
        <time>2021-08-10 14:02:00</time>
      </trkpt>
      <trkpt lat="42.83536" lon="-0.42728">
        <ele>1888.6</ele>
        <time>2021-08-10 14:02:01</time>
      </trkpt>
      <trkpt lat="42.83537" lon="-0.42727">
        <ele>1888.6</ele>
        <time>2021-08-10 14:02:02</time>
      </trkpt>
      <trkpt lat="42.83537" lon="-0.42726">
        <ele>1888.8</ele>
        <time>2021-08-10 14:02:03</time>
      </trkpt>
      <trkpt lat="42.83536" lon="-0.42725">
        <ele>1888.8</ele>
        <time>2021-08-10 14:02:04</time>
      </trkpt>
      <trkpt lat="42.83537" lon="-0.42724">
        <ele>1888.8</ele>
        <time>2021-08-10 14:02:05</time>
      </trkpt>
      <trkpt lat="42.83537" lon="-0.42723">
        <ele>1888.8</ele>
        <time>2021-08-10 14:02:06</time>
      </trkpt>
      <trkpt lat="42.83537" lon="-0.42722">
        <ele>1888.6</ele>
        <time>2021-08-10 14:02:07</time>
      </trkpt>
      <trkpt lat="42.83537" lon="-0.42722">
        <ele>1888.8</ele>
        <time>2021-08-10 14:02:08</time>
      </trkpt>
      <trkpt lat="42.83538" lon="-0.42721">
        <ele>1888.8</ele>
        <time>2021-08-10 14:02:09</time>
      </trkpt>
      <trkpt lat="42.83538" lon="-0.4272">
        <ele>1889</ele>
        <time>2021-08-10 14:02:10</time>
      </trkpt>
      <trkpt lat="42.83539" lon="-0.42719">
        <ele>1889</ele>
        <time>2021-08-10 14:02:11</time>
      </trkpt>
      <trkpt lat="42.83539" lon="-0.42717">
        <ele>1888.8</ele>
        <time>2021-08-10 14:02:12</time>
      </trkpt>
      <trkpt lat="42.8354" lon="-0.42716">
        <ele>1888.8</ele>
        <time>2021-08-10 14:02:13</time>
      </trkpt>
      <trkpt lat="42.8354" lon="-0.42716">
        <ele>1889</ele>
        <time>2021-08-10 14:02:14</time>
      </trkpt>
      <trkpt lat="42.83541" lon="-0.42716">
        <ele>1888.8</ele>
        <time>2021-08-10 14:02:15</time>
      </trkpt>
      <trkpt lat="42.83542" lon="-0.42716">
        <ele>1888.8</ele>
        <time>2021-08-10 14:02:16</time>
      </trkpt>
      <trkpt lat="42.83543" lon="-0.42716">
        <ele>1889.2</ele>
        <time>2021-08-10 14:02:17</time>
      </trkpt>
      <trkpt lat="42.83543" lon="-0.42715">
        <ele>1889</ele>
        <time>2021-08-10 14:02:18</time>
      </trkpt>
      <trkpt lat="42.83544" lon="-0.42714">
        <ele>1889.6</ele>
        <time>2021-08-10 14:02:19</time>
      </trkpt>
      <trkpt lat="42.83544" lon="-0.42714">
        <ele>1889.8</ele>
        <time>2021-08-10 14:02:20</time>
      </trkpt>
      <trkpt lat="42.83545" lon="-0.42714">
        <ele>1889.8</ele>
        <time>2021-08-10 14:02:21</time>
      </trkpt>
      <trkpt lat="42.83546" lon="-0.42713">
        <ele>1889.8</ele>
        <time>2021-08-10 14:02:22</time>
      </trkpt>
      <trkpt lat="42.83547" lon="-0.42713">
        <ele>1890</ele>
        <time>2021-08-10 14:02:23</time>
      </trkpt>
      <trkpt lat="42.83547" lon="-0.42712">
        <ele>1889.8</ele>
        <time>2021-08-10 14:02:24</time>
      </trkpt>
      <trkpt lat="42.83548" lon="-0.42711">
        <ele>1890</ele>
        <time>2021-08-10 14:02:25</time>
      </trkpt>
      <trkpt lat="42.83549" lon="-0.42712">
        <ele>1890.2</ele>
        <time>2021-08-10 14:02:26</time>
      </trkpt>
      <trkpt lat="42.835420109331607818603515625" lon="-0.4271429590880870819091796875">
        <ele>2031</ele>
        <time>2021-08-11T05:26:58.000Z</time>
      </trkpt>
      <trkpt lat="42.8354853205382823944091796875" lon="-0.427170954644680023193359375">
        <ele>2031</ele>
        <time>2021-08-11T05:27:13.000Z</time>
      </trkpt>
      <trkpt lat="42.835566289722919464111328125" lon="-0.4271714575588703155517578125">
        <ele>2031</ele>
        <time>2021-08-11T05:27:20.000Z</time>
      </trkpt>
      <trkpt lat="42.83564264886081218719482421875" lon="-0.42720356024801731109619140625">
        <ele>2031</ele>
        <time>2021-08-11T05:27:28.000Z</time>
      </trkpt>
      <trkpt lat="42.83574172295629978179931640625" lon="-0.4272576235234737396240234375">
        <ele>2030</ele>
        <time>2021-08-11T05:27:38.000Z</time>
      </trkpt>
      <trkpt lat="42.83574675209820270538330078125" lon="-0.42726843617856502532958984375">
        <ele>2029.800048828125</ele>
        <time>2021-08-11T05:27:39.000Z</time>
      </trkpt>
      <trkpt lat="42.83577776513993740081787109375" lon="-0.4273013770580291748046875">
        <ele>2029.4000244140625</ele>
        <time>2021-08-11T05:27:43.000Z</time>
      </trkpt>
      <trkpt lat="42.835855968296527862548828125" lon="-0.42733213864266872406005859375">
        <ele>2028.800048828125</ele>
        <time>2021-08-11T05:27:51.000Z</time>
      </trkpt>
      <trkpt lat="42.83590533770620822906494140625" lon="-0.4273228347301483154296875">
        <ele>2028.5999755859375</ele>
        <time>2021-08-11T05:27:58.000Z</time>
      </trkpt>
      <trkpt lat="42.8359530307352542877197265625" lon="-0.427378155291080474853515625">
        <ele>2027.800048828125</ele>
        <time>2021-08-11T05:28:05.000Z</time>
      </trkpt>
      <trkpt lat="42.835968621075153350830078125" lon="-0.427388213574886322021484375">
        <ele>2027.5999755859375</ele>
        <time>2021-08-11T05:28:06.000Z</time>
      </trkpt>
      <trkpt lat="42.83597054891288280487060546875" lon="-0.42739835567772388458251953125">
        <ele>2027.5999755859375</ele>
        <time>2021-08-11T05:28:07.000Z</time>
      </trkpt>
      <trkpt lat="42.83600877039134502410888671875" lon="-0.4274386726319789886474609375">
        <ele>2027.199951171875</ele>
        <time>2021-08-11T05:28:11.000Z</time>
      </trkpt>
      <trkpt lat="42.8360784240067005157470703125" lon="-0.42750145308673381805419921875">
        <ele>2027</ele>
        <time>2021-08-11T05:28:19.000Z</time>
      </trkpt>
      <trkpt lat="42.8361431322991847991943359375" lon="-0.42757588438689708709716796875">
        <ele>2026.5999755859375</ele>
        <time>2021-08-11T05:28:27.000Z</time>
      </trkpt>
      <trkpt lat="42.83620205707848072052001953125" lon="-0.42761695571243762969970703125">
        <ele>2026.5999755859375</ele>
        <time>2021-08-11T05:28:35.000Z</time>
      </trkpt>
      <trkpt lat="42.8362011350691318511962890625" lon="-0.42760153301060199737548828125">
        <ele>2026.4000244140625</ele>
        <time>2021-08-11T05:28:41.000Z</time>
      </trkpt>
      <trkpt lat="42.83622435294091701507568359375" lon="-0.42763723991811275482177734375">
        <ele>2026.4000244140625</ele>
        <time>2021-08-11T05:28:48.000Z</time>
      </trkpt>
      <trkpt lat="42.83629660494625568389892578125" lon="-0.4276978410780429840087890625">
        <ele>2026.199951171875</ele>
        <time>2021-08-11T05:28:56.000Z</time>
      </trkpt>
      <trkpt lat="42.83633918501436710357666015625" lon="-0.42777554132044315338134765625">
        <ele>2027</ele>
        <time>2021-08-11T05:29:04.000Z</time>
      </trkpt>
      <trkpt lat="42.8363466449081897735595703125" lon="-0.4277980886399745941162109375">
        <ele>2027</ele>
        <time>2021-08-11T05:29:06.000Z</time>
      </trkpt>
      <trkpt lat="42.83635963685810565948486328125" lon="-0.42788140475749969482421875">
        <ele>2027</ele>
        <time>2021-08-11T05:29:11.000Z</time>
      </trkpt>
      <trkpt lat="42.8363781608641147613525390625" lon="-0.42792591266334056854248046875">
        <ele>2027.4000244140625</ele>
        <time>2021-08-11T05:29:15.000Z</time>
      </trkpt>
      <trkpt lat="42.83640171401202678680419921875" lon="-0.4279335401952266693115234375">
        <ele>2027.5999755859375</ele>
        <time>2021-08-11T05:29:17.000Z</time>
      </trkpt>
      <trkpt lat="42.8364980220794677734375" lon="-0.42792105115950107574462890625">
        <ele>2028</ele>
        <time>2021-08-11T05:29:25.000Z</time>
      </trkpt>
      <trkpt lat="42.8365112654864788055419921875" lon="-0.4279030300676822662353515625">
        <ele>2027.800048828125</ele>
        <time>2021-08-11T05:29:27.000Z</time>
      </trkpt>
      <trkpt lat="42.83653062768280506134033203125" lon="-0.42788417078554630279541015625">
        <ele>2027.4000244140625</ele>
        <time>2021-08-11T05:29:30.000Z</time>
      </trkpt>
      <trkpt lat="42.83655443228781223297119140625" lon="-0.4278835840523242950439453125">
        <ele>2027.199951171875</ele>
        <time>2021-08-11T05:29:35.000Z</time>
      </trkpt>
      <trkpt lat="42.8366101719439029693603515625" lon="-0.4278378188610076904296875">
        <ele>2026.199951171875</ele>
        <time>2021-08-11T05:29:44.000Z</time>
      </trkpt>
      <trkpt lat="42.8366410173475742340087890625" lon="-0.42783237062394618988037109375">
        <ele>2025.800048828125</ele>
        <time>2021-08-11T05:29:51.000Z</time>
      </trkpt>
      <trkpt lat="42.83668518997728824615478515625" lon="-0.42789137922227382659912109375">
        <ele>2026</ele>
        <time>2021-08-11T05:30:00.000Z</time>
      </trkpt>
      <trkpt lat="42.8366966731846332550048828125" lon="-0.4279083944857120513916015625">
        <ele>2026</ele>
        <time>2021-08-11T05:30:08.000Z</time>
      </trkpt>
      <trkpt lat="42.83670363016426563262939453125" lon="-0.4279328696429729461669921875">
        <ele>2026.199951171875</ele>
        <time>2021-08-11T05:30:14.000Z</time>
      </trkpt>
      <trkpt lat="42.83671821467578411102294921875" lon="-0.4279612004756927490234375">
        <ele>2026.4000244140625</ele>
        <time>2021-08-11T05:30:20.000Z</time>
      </trkpt>
      <trkpt lat="42.83672458492219448089599609375" lon="-0.42802364565432071685791015625">
        <ele>2027.199951171875</ele>
        <time>2021-08-11T05:30:28.000Z</time>
      </trkpt>
      <trkpt lat="42.836731374263763427734375" lon="-0.42807159014046192169189453125">
        <ele>2027.4000244140625</ele>
        <time>2021-08-11T05:30:35.000Z</time>
      </trkpt>
      <trkpt lat="42.83672659657895565032958984375" lon="-0.4280891083180904388427734375">
        <ele>2027.5999755859375</ele>
        <time>2021-08-11T05:30:40.000Z</time>
      </trkpt>
      <trkpt lat="42.8367422707378864288330078125" lon="-0.428119115531444549560546875">
        <ele>2027.5999755859375</ele>
        <time>2021-08-11T05:30:46.000Z</time>
      </trkpt>
      <trkpt lat="42.83677336759865283966064453125" lon="-0.4281357116997241973876953125">
        <ele>2027.4000244140625</ele>
        <time>2021-08-11T05:30:54.000Z</time>
      </trkpt>
      <trkpt lat="42.83680178225040435791015625" lon="-0.4281984083354473114013671875">
        <ele>2027.4000244140625</ele>
        <time>2021-08-11T05:31:04.000Z</time>
      </trkpt>
      <trkpt lat="42.836815528571605682373046875" lon="-0.4282589256763458251953125">
        <ele>2027.5999755859375</ele>
        <time>2021-08-11T05:31:11.000Z</time>
      </trkpt>
      <trkpt lat="42.8368480503559112548828125" lon="-0.4283268190920352935791015625">
        <ele>2027.4000244140625</ele>
        <time>2021-08-11T05:31:20.000Z</time>
      </trkpt>
      <trkpt lat="42.8368814103305339813232421875" lon="-0.428385324776172637939453125">
        <ele>2026.800048828125</ele>
        <time>2021-08-11T05:31:27.000Z</time>
      </trkpt>
      <trkpt lat="42.836916111409664154052734375" lon="-0.4284056089818477630615234375">
        <ele>2026.199951171875</ele>
        <time>2021-08-11T05:31:34.000Z</time>
      </trkpt>
      <trkpt lat="42.8369390778243541717529296875" lon="-0.428405441343784332275390625">
        <ele>2025.800048828125</ele>
        <time>2021-08-11T05:31:41.000Z</time>
      </trkpt>
      <trkpt lat="42.83696866594254970550537109375" lon="-0.42843570001423358917236328125">
        <ele>2025.199951171875</ele>
        <time>2021-08-11T05:31:47.000Z</time>
      </trkpt>
      <trkpt lat="42.8370000980794429779052734375" lon="-0.42846067808568477630615234375">
        <ele>2024.5999755859375</ele>
        <time>2021-08-11T05:31:54.000Z</time>
      </trkpt>
      <trkpt lat="42.83700722269713878631591796875" lon="-0.42849965393543243408203125">
        <ele>2024.5999755859375</ele>
        <time>2021-08-11T05:32:00.000Z</time>
      </trkpt>
      <trkpt lat="42.83701744861900806427001953125" lon="-0.42854215018451213836669921875">
        <ele>2024.4000244140625</ele>
        <time>2021-08-11T05:32:05.000Z</time>
      </trkpt>
      <trkpt lat="42.8370353020727634429931640625" lon="-0.42860166169703006744384765625">
        <ele>2024</ele>
        <time>2021-08-11T05:32:12.000Z</time>
      </trkpt>
      <trkpt lat="42.8370359726250171661376953125" lon="-0.42864558286964893341064453125">
        <ele>2024.199951171875</ele>
        <time>2021-08-11T05:32:20.000Z</time>
      </trkpt>
      <trkpt lat="42.8370617888867855072021484375" lon="-0.42868564836680889129638671875">
        <ele>2023.800048828125</ele>
        <time>2021-08-11T05:32:26.000Z</time>
      </trkpt>
      <trkpt lat="42.8370795585215091705322265625" lon="-0.428708530962467193603515625">
        <ele>2023.4000244140625</ele>
        <time>2021-08-11T05:32:33.000Z</time>
      </trkpt>
      <trkpt lat="42.83707796595990657806396484375" lon="-0.42873376049101352691650390625">
        <ele>2023.5999755859375</ele>
        <time>2021-08-11T05:32:39.000Z</time>
      </trkpt>
      <trkpt lat="42.83708886243402957916259765625" lon="-0.42877198196947574615478515625">
        <ele>2023.4000244140625</ele>
        <time>2021-08-11T05:32:47.000Z</time>
      </trkpt>
      <trkpt lat="42.83709187991917133331298828125" lon="-0.42882688343524932861328125">
        <ele>2023.5999755859375</ele>
        <time>2021-08-11T05:32:57.000Z</time>
      </trkpt>
      <trkpt lat="42.8370939753949642181396484375" lon="-0.42888379655778408050537109375">
        <ele>2023.800048828125</ele>
        <time>2021-08-11T05:33:06.000Z</time>
      </trkpt>
      <trkpt lat="42.83710260875523090362548828125" lon="-0.42890575714409351348876953125">
        <ele>2023.800048828125</ele>
        <time>2021-08-11T05:33:12.000Z</time>
      </trkpt>
      <trkpt lat="42.837081737816333770751953125" lon="-0.42891950346529483795166015625">
        <ele>2024.4000244140625</ele>
        <time>2021-08-11T05:33:19.000Z</time>
      </trkpt>
      <trkpt lat="42.8370765410363674163818359375" lon="-0.4289670288562774658203125">
        <ele>2024.800048828125</ele>
        <time>2021-08-11T05:33:25.000Z</time>
      </trkpt>
      <trkpt lat="42.83709271810948848724365234375" lon="-0.429010279476642608642578125">
        <ele>2024.800048828125</ele>
        <time>2021-08-11T05:33:30.000Z</time>
      </trkpt>
      <trkpt lat="42.83708265982568264007568359375" lon="-0.42904405854642391204833984375">
        <ele>2025.199951171875</ele>
        <time>2021-08-11T05:33:35.000Z</time>
      </trkpt>
      <trkpt lat="42.83708299510180950164794921875" lon="-0.42908865027129650115966796875">
        <ele>2025.5999755859375</ele>
        <time>2021-08-11T05:33:42.000Z</time>
      </trkpt>
      <trkpt lat="42.8371211327612400054931640625" lon="-0.42912251316010951995849609375">
        <ele>2025.4000244140625</ele>
        <time>2021-08-11T05:33:52.000Z</time>
      </trkpt>
      <trkpt lat="42.83714937977492809295654296875" lon="-0.429163165390491485595703125">
        <ele>2025.5999755859375</ele>
        <time>2021-08-11T05:33:58.000Z</time>
      </trkpt>
      <trkpt lat="42.83719095401465892791748046875" lon="-0.42923550121486186981201171875">
        <ele>2026</ele>
        <time>2021-08-11T05:34:06.000Z</time>
      </trkpt>
      <trkpt lat="42.83720411360263824462890625" lon="-0.42926332913339138031005859375">
        <ele>2026.4000244140625</ele>
        <time>2021-08-11T05:34:13.000Z</time>
      </trkpt>
      <trkpt lat="42.8372542373836040496826171875" lon="-0.429260730743408203125">
        <ele>2025.800048828125</ele>
        <time>2021-08-11T05:34:22.000Z</time>
      </trkpt>
      <trkpt lat="42.8372720070183277130126953125" lon="-0.429230220615863800048828125">
        <ele>2025.199951171875</ele>
        <time>2021-08-11T05:34:27.000Z</time>
      </trkpt>
      <trkpt lat="42.837331853806972503662109375" lon="-0.42919392697513103485107421875">
        <ele>2024</ele>
        <time>2021-08-11T05:34:36.000Z</time>
      </trkpt>
      <trkpt lat="42.83738474361598491668701171875" lon="-0.4291894845664501190185546875">
        <ele>2024</ele>
        <time>2021-08-11T05:34:43.000Z</time>
      </trkpt>
      <trkpt lat="42.8374121524393558502197265625" lon="-0.429186634719371795654296875">
        <ele>2023.800048828125</ele>
        <time>2021-08-11T05:34:48.000Z</time>
      </trkpt>
      <trkpt lat="42.83746018074452877044677734375" lon="-0.42915687896311283111572265625">
        <ele>2023.199951171875</ele>
        <time>2021-08-11T05:34:55.000Z</time>
      </trkpt>
      <trkpt lat="42.8374969772994518280029296875" lon="-0.42916542850434780120849609375">
        <ele>2023.4000244140625</ele>
        <time>2021-08-11T05:35:01.000Z</time>
      </trkpt>
      <trkpt lat="42.83753612078726291656494140625" lon="-0.4291613213717937469482421875">
        <ele>2023.4000244140625</ele>
        <time>2021-08-11T05:35:09.000Z</time>
      </trkpt>
      <trkpt lat="42.83757719211280345916748046875" lon="-0.42915411293506622314453125">
        <ele>2023.199951171875</ele>
        <time>2021-08-11T05:35:15.000Z</time>
      </trkpt>
      <trkpt lat="42.8376170061528682708740234375" lon="-0.4291427135467529296875">
        <ele>2023.199951171875</ele>
        <time>2021-08-11T05:35:22.000Z</time>
      </trkpt>
      <trkpt lat="42.83765028230845928192138671875" lon="-0.42914430610835552215576171875">
        <ele>2023.800048828125</ele>
        <time>2021-08-11T05:35:29.000Z</time>
      </trkpt>
      <trkpt lat="42.8376843966543674468994140625" lon="-0.42914749123156070709228515625">
        <ele>2024.4000244140625</ele>
        <time>2021-08-11T05:35:36.000Z</time>
      </trkpt>
      <trkpt lat="42.83772555179893970489501953125" lon="-0.42913760058581829071044921875">
        <ele>2024.5999755859375</ele>
        <time>2021-08-11T05:35:43.000Z</time>
      </trkpt>
      <trkpt lat="42.8377427347004413604736328125" lon="-0.42914916761219501495361328125">
        <ele>2025.199951171875</ele>
        <time>2021-08-11T05:35:49.000Z</time>
      </trkpt>
      <trkpt lat="42.837800569832324981689453125" lon="-0.42915956117212772369384765625">
        <ele>2026.199951171875</ele>
        <time>2021-08-11T05:35:56.000Z</time>
      </trkpt>
      <trkpt lat="42.83785932697355747222900390625" lon="-0.42916861362755298614501953125">
        <ele>2027.4000244140625</ele>
        <time>2021-08-11T05:36:04.000Z</time>
      </trkpt>
      <trkpt lat="42.8378989733755588531494140625" lon="-0.42914397083222866058349609375">
        <ele>2027</ele>
        <time>2021-08-11T05:36:10.000Z</time>
      </trkpt>
      <trkpt lat="42.83792135305702686309814453125" lon="-0.429118238389492034912109375">
        <ele>2026.5999755859375</ele>
        <time>2021-08-11T05:36:16.000Z</time>
      </trkpt>
      <trkpt lat="42.837964855134487152099609375" lon="-0.42910180985927581787109375">
        <ele>2026.4000244140625</ele>
        <time>2021-08-11T05:36:23.000Z</time>
      </trkpt>
      <trkpt lat="42.83798731863498687744140625" lon="-0.4290707968175411224365234375">
        <ele>2025.800048828125</ele>
        <time>2021-08-11T05:36:29.000Z</time>
      </trkpt>
      <trkpt lat="42.83800869248807430267333984375" lon="-0.42905629612505435943603515625">
        <ele>2025.5999755859375</ele>
        <time>2021-08-11T05:36:35.000Z</time>
      </trkpt>
      <trkpt lat="42.83804339356720447540283203125" lon="-0.42903182096779346466064453125">
        <ele>2025.199951171875</ele>
        <time>2021-08-11T05:36:41.000Z</time>
      </trkpt>
      <trkpt lat="42.83806300722062587738037109375" lon="-0.429025702178478240966796875">
        <ele>2025</ele>
        <time>2021-08-11T05:36:47.000Z</time>
      </trkpt>
      <trkpt lat="42.83811111934483051300048828125" lon="-0.42901061475276947021484375">
        <ele>2025</ele>
        <time>2021-08-11T05:36:57.000Z</time>
      </trkpt>
      <trkpt lat="42.83811296336352825164794921875" lon="-0.4290174879133701324462890625">
        <ele>2025</ele>
        <time>2021-08-11T05:37:05.000Z</time>
      </trkpt>
      <trkpt lat="42.83810977824032306671142578125" lon="-0.42901271022856235504150390625">
        <ele>2025</ele>
        <time>2021-08-11T05:37:14.000Z</time>
      </trkpt>
      <trkpt lat="42.83811514265835285186767578125" lon="-0.42904741130769252777099609375">
        <ele>2025.800048828125</ele>
        <time>2021-08-11T05:37:18.000Z</time>
      </trkpt>
      <trkpt lat="42.8381628356873989105224609375" lon="-0.4291029833257198333740234375">
        <ele>2026.800048828125</ele>
        <time>2021-08-11T05:37:26.000Z</time>
      </trkpt>
      <trkpt lat="42.83818370662629604339599609375" lon="-0.42916056700050830841064453125">
        <ele>2027.4000244140625</ele>
        <time>2021-08-11T05:37:31.000Z</time>
      </trkpt>
      <trkpt lat="42.838213630020618438720703125" lon="-0.42923315428197383880615234375">
        <ele>2027.5999755859375</ele>
        <time>2021-08-11T05:37:37.000Z</time>
      </trkpt>
      <trkpt lat="42.83822779543697834014892578125" lon="-0.42925964109599590301513671875">
        <ele>2027.5999755859375</ele>
        <time>2021-08-11T05:37:39.000Z</time>
      </trkpt>
      <trkpt lat="42.838245816528797149658203125" lon="-0.4292974434792995452880859375">
        <ele>2027.800048828125</ele>
        <time>2021-08-11T05:37:43.000Z</time>
      </trkpt>
      <trkpt lat="42.83825260587036609649658203125" lon="-0.42929953895509243011474609375">
        <ele>2027.5999755859375</ele>
        <time>2021-08-11T05:37:44.000Z</time>
      </trkpt>
      <trkpt lat="42.83827406354248523712158203125" lon="-0.42937832884490489959716796875">
        <ele>2026</ele>
        <time>2021-08-11T05:37:50.000Z</time>
      </trkpt>
      <trkpt lat="42.8382925875484943389892578125" lon="-0.4294486530125141143798828125">
        <ele>2024.4000244140625</ele>
        <time>2021-08-11T05:37:59.000Z</time>
      </trkpt>
      <trkpt lat="42.83830909989774227142333984375" lon="-0.42948092333972454071044921875">
        <ele>2023.5999755859375</ele>
        <time>2021-08-11T05:38:07.000Z</time>
      </trkpt>
      <trkpt lat="42.838347069919109344482421875" lon="-0.42953498661518096923828125">
        <ele>2021.5999755859375</ele>
        <time>2021-08-11T05:38:14.000Z</time>
      </trkpt>
      <trkpt lat="42.83836626447737216949462890625" lon="-0.42959726415574550628662109375">
        <ele>2020.5999755859375</ele>
        <time>2021-08-11T05:38:21.000Z</time>
      </trkpt>
      <trkpt lat="42.83838420175015926361083984375" lon="-0.42962341569364070892333984375">
        <ele>2019.4000244140625</ele>
        <time>2021-08-11T05:38:26.000Z</time>
      </trkpt>
      <trkpt lat="42.83842041157186031341552734375" lon="-0.42969114147126674652099609375">
        <ele>2017.4000244140625</ele>
        <time>2021-08-11T05:38:32.000Z</time>
      </trkpt>
      <trkpt lat="42.83843122422695159912109375" lon="-0.42975719086825847625732421875">
        <ele>2017.5999755859375</ele>
        <time>2021-08-11T05:38:38.000Z</time>
      </trkpt>
      <trkpt lat="42.8384340740740299224853515625" lon="-0.42977378703653812408447265625">
        <ele>2017.5999755859375</ele>
        <time>2021-08-11T05:38:39.000Z</time>
      </trkpt>
      <trkpt lat="42.8384377621114253997802734375" lon="-0.4297876171767711639404296875">
        <ele>2017.5999755859375</ele>
        <time>2021-08-11T05:38:40.000Z</time>
      </trkpt>
      <trkpt lat="42.83845108933746814727783203125" lon="-0.42982826940715312957763671875">
        <ele>2017.4000244140625</ele>
        <time>2021-08-11T05:38:45.000Z</time>
      </trkpt>
      <trkpt lat="42.83846382983028888702392578125" lon="-0.4298690892755985260009765625">
        <ele>2017.199951171875</ele>
        <time>2021-08-11T05:38:51.000Z</time>
      </trkpt>
      <trkpt lat="42.83847958780825138092041015625" lon="-0.42990387417376041412353515625">
        <ele>2016.800048828125</ele>
        <time>2021-08-11T05:38:59.000Z</time>
      </trkpt>
      <trkpt lat="42.8384910710155963897705078125" lon="-0.42992700822651386260986328125">
        <ele>2016.5999755859375</ele>
        <time>2021-08-11T05:39:07.000Z</time>
      </trkpt>
      <trkpt lat="42.83850272186100482940673828125" lon="-0.42996338568627834320068359375">
        <ele>2016.4000244140625</ele>
        <time>2021-08-11T05:39:13.000Z</time>
      </trkpt>
      <trkpt lat="42.8385137021541595458984375" lon="-0.4299928061664104461669921875">
        <ele>2016.199951171875</ele>
        <time>2021-08-11T05:39:20.000Z</time>
      </trkpt>
      <trkpt lat="42.8385297954082489013671875" lon="-0.430054329335689544677734375">
        <ele>2015.5999755859375</ele>
        <time>2021-08-11T05:39:28.000Z</time>
      </trkpt>
      <trkpt lat="42.83855728805065155029296875" lon="-0.4301218874752521514892578125">
        <ele>2014.5999755859375</ele>
        <time>2021-08-11T05:39:36.000Z</time>
      </trkpt>
      <trkpt lat="42.838544212281703948974609375" lon="-0.43017041869461536407470703125">
        <ele>2016.5999755859375</ele>
        <time>2021-08-11T05:39:44.000Z</time>
      </trkpt>
      <trkpt lat="42.83857296220958232879638671875" lon="-0.43022808618843555450439453125">
        <ele>2018.199951171875</ele>
        <time>2021-08-11T05:39:49.000Z</time>
      </trkpt>
      <trkpt lat="42.83860732801258563995361328125" lon="-0.43027795851230621337890625">
        <ele>2018.800048828125</ele>
        <time>2021-08-11T05:39:57.000Z</time>
      </trkpt>
      <trkpt lat="42.8386446274816989898681640625" lon="-0.43027125298976898193359375">
        <ele>2017.800048828125</ele>
        <time>2021-08-11T05:40:04.000Z</time>
      </trkpt>
      <trkpt lat="42.838695086538791656494140625" lon="-0.43029606342315673828125">
        <ele>2017.199951171875</ele>
        <time>2021-08-11T05:40:14.000Z</time>
      </trkpt>
      <trkpt lat="42.8387103416025638580322265625" lon="-0.43035364709794521331787109375">
        <ele>2018.5999755859375</ele>
        <time>2021-08-11T05:40:21.000Z</time>
      </trkpt>
      <trkpt lat="42.83871880732476711273193359375" lon="-0.43039773590862751007080078125">
        <ele>2019.5999755859375</ele>
        <time>2021-08-11T05:40:26.000Z</time>
      </trkpt>
      <trkpt lat="42.83872853033244609832763671875" lon="-0.4304095543920993804931640625">
        <ele>2019.5999755859375</ele>
        <time>2021-08-11T05:40:32.000Z</time>
      </trkpt>
      <trkpt lat="42.83877463079988956451416015625" lon="-0.4304454289376735687255859375">
        <ele>2019.199951171875</ele>
        <time>2021-08-11T05:40:40.000Z</time>
      </trkpt>
      <trkpt lat="42.83879105933010578155517578125" lon="-0.43044718913733959197998046875">
        <ele>2018.5999755859375</ele>
        <time>2021-08-11T05:40:47.000Z</time>
      </trkpt>
      <trkpt lat="42.8388320468366146087646484375" lon="-0.4304400645196437835693359375">
        <ele>2017.4000244140625</ele>
        <time>2021-08-11T05:40:56.000Z</time>
      </trkpt>
      <trkpt lat="42.83885140903294086456298828125" lon="-0.430407039821147918701171875">
        <ele>2015.800048828125</ele>
        <time>2021-08-11T05:41:03.000Z</time>
      </trkpt>
      <trkpt lat="42.83890086226165294647216796875" lon="-0.4304437525570392608642578125">
        <ele>2016.199951171875</ele>
        <time>2021-08-11T05:41:10.000Z</time>
      </trkpt>
      <trkpt lat="42.83895232714712619781494140625" lon="-0.43049789965152740478515625">
        <ele>2017.199951171875</ele>
        <time>2021-08-11T05:41:16.000Z</time>
      </trkpt>
      <trkpt lat="42.839037068188190460205078125" lon="-0.4305731691420078277587890625">
        <ele>2018.5999755859375</ele>
        <time>2021-08-11T05:41:24.000Z</time>
      </trkpt>
      <trkpt lat="42.8391123376786708831787109375" lon="-0.4305936209857463836669921875">
        <ele>2018.4000244140625</ele>
        <time>2021-08-11T05:41:31.000Z</time>
      </trkpt>
      <trkpt lat="42.839151732623577117919921875" lon="-0.4306331835687160491943359375">
        <ele>2019.4000244140625</ele>
        <time>2021-08-11T05:41:38.000Z</time>
      </trkpt>
      <trkpt lat="42.839214764535427093505859375" lon="-0.4306603409349918365478515625">
        <ele>2019.800048828125</ele>
        <time>2021-08-11T05:41:46.000Z</time>
      </trkpt>
      <trkpt lat="42.83926539123058319091796875" lon="-0.43068003840744495391845703125">
        <ele>2020.199951171875</ele>
        <time>2021-08-11T05:41:54.000Z</time>
      </trkpt>
      <trkpt lat="42.83932171761989593505859375" lon="-0.43073401786386966705322265625">
        <ele>2023</ele>
        <time>2021-08-11T05:42:03.000Z</time>
      </trkpt>
      <trkpt lat="42.83940964378416538238525390625" lon="-0.43075581081211566925048828125">
        <ele>2023.800048828125</ele>
        <time>2021-08-11T05:42:14.000Z</time>
      </trkpt>
      <trkpt lat="42.83948390744626522064208984375" lon="-0.43078497983515262603759765625">
        <ele>2024.4000244140625</ele>
        <time>2021-08-11T05:42:22.000Z</time>
      </trkpt>
      <trkpt lat="42.83960712142288684844970703125" lon="-0.4308128915727138519287109375">
        <ele>2024.4000244140625</ele>
        <time>2021-08-11T05:42:34.000Z</time>
      </trkpt>
      <trkpt lat="42.83966763876378536224365234375" lon="-0.43081196956336498260498046875">
        <ele>2024</ele>
        <time>2021-08-11T05:42:40.000Z</time>
      </trkpt>
      <trkpt lat="42.839732430875301361083984375" lon="-0.43081582523882389068603515625">
        <ele>2023.5999755859375</ele>
        <time>2021-08-11T05:42:49.000Z</time>
      </trkpt>
      <trkpt lat="42.83982790075242519378662109375" lon="-0.4308708943426609039306640625">
        <ele>2022.4000244140625</ele>
        <time>2021-08-11T05:43:01.000Z</time>
      </trkpt>
      <trkpt lat="42.8398928605020046234130859375" lon="-0.4308621771633625030517578125">
        <ele>2020.800048828125</ele>
        <time>2021-08-11T05:43:07.000Z</time>
      </trkpt>
      <trkpt lat="42.83995471894741058349609375" lon="-0.43082915246486663818359375">
        <ele>2019.4000244140625</ele>
        <time>2021-08-11T05:43:16.000Z</time>
      </trkpt>
      <trkpt lat="42.8400393761694431304931640625" lon="-0.43082504533231258392333984375">
        <ele>2017.4000244140625</ele>
        <time>2021-08-11T05:43:25.000Z</time>
      </trkpt>
      <trkpt lat="42.8400826267898082733154296875" lon="-0.43078883551061153411865234375">
        <ele>2016.4000244140625</ele>
        <time>2021-08-11T05:43:31.000Z</time>
      </trkpt>
      <trkpt lat="42.84009964205324649810791015625" lon="-0.43077089823782444000244140625">
        <ele>2016.199951171875</ele>
        <time>2021-08-11T05:43:33.000Z</time>
      </trkpt>
      <trkpt lat="42.84015362150967121124267578125" lon="-0.4307498596608638763427734375">
        <ele>2015.800048828125</ele>
        <time>2021-08-11T05:43:39.000Z</time>
      </trkpt>
      <trkpt lat="42.84018111415207386016845703125" lon="-0.4307535476982593536376953125">
        <ele>2016</ele>
        <time>2021-08-11T05:43:41.000Z</time>
      </trkpt>
      <trkpt lat="42.84027884714305400848388671875" lon="-0.4307354427874088287353515625">
        <ele>2016.4000244140625</ele>
        <time>2021-08-11T05:43:50.000Z</time>
      </trkpt>
      <trkpt lat="42.8403018973767757415771484375" lon="-0.43072664178907871246337890625">
        <ele>2016.5999755859375</ele>
        <time>2021-08-11T05:43:52.000Z</time>
      </trkpt>
      <trkpt lat="42.8403381071984767913818359375" lon="-0.43069638311862945556640625">
        <ele>2016.4000244140625</ele>
        <time>2021-08-11T05:43:56.000Z</time>
      </trkpt>
      <trkpt lat="42.84035570919513702392578125" lon="-0.43068573810160160064697265625">
        <ele>2016.4000244140625</ele>
        <time>2021-08-11T05:43:58.000Z</time>
      </trkpt>
      <trkpt lat="42.8403967805206775665283203125" lon="-0.43069462291896343231201171875">
        <ele>2017.5999755859375</ele>
        <time>2021-08-11T05:44:03.000Z</time>
      </trkpt>
      <trkpt lat="42.84047263674437999725341796875" lon="-0.430644415318965911865234375">
        <ele>2019.4000244140625</ele>
        <time>2021-08-11T05:44:11.000Z</time>
      </trkpt>
      <trkpt lat="42.84048235975205898284912109375" lon="-0.43060124851763248443603515625">
        <ele>2019.199951171875</ele>
        <time>2021-08-11T05:44:16.000Z</time>
      </trkpt>
      <trkpt lat="42.84055243246257305145263671875" lon="-0.4305517114698886871337890625">
        <ele>2021</ele>
        <time>2021-08-11T05:44:24.000Z</time>
      </trkpt>
      <trkpt lat="42.8406297974288463592529296875" lon="-0.43049345724284648895263671875">
        <ele>2022.800048828125</ele>
        <time>2021-08-11T05:44:35.000Z</time>
      </trkpt>
      <trkpt lat="42.8406562842428684234619140625" lon="-0.43045054189860820770263671875">
        <ele>2023</ele>
        <time>2021-08-11T05:44:41.000Z</time>
      </trkpt>
      <trkpt lat="42.840700708329677581787109375" lon="-0.4303823970258235931396484375">
        <ele>2023.5999755859375</ele>
        <time>2021-08-11T05:44:50.000Z</time>
      </trkpt>
      <trkpt lat="42.84074739553034305572509765625" lon="-0.43031861074268817901611328125">
        <ele>2024.4000244140625</ele>
        <time>2021-08-11T05:45:00.000Z</time>
      </trkpt>
      <trkpt lat="42.840811349451541900634765625" lon="-0.43029673397541046142578125">
        <ele>2026.4000244140625</ele>
        <time>2021-08-11T05:45:08.000Z</time>
      </trkpt>
      <trkpt lat="42.84084697254002094268798828125" lon="-0.43028877116739749908447265625">
        <ele>2027.5999755859375</ele>
        <time>2021-08-11T05:45:11.000Z</time>
      </trkpt>
      <trkpt lat="42.84087605774402618408203125" lon="-0.43027636595070362091064453125">
        <ele>2028.4000244140625</ele>
        <time>2021-08-11T05:45:15.000Z</time>
      </trkpt>
      <trkpt lat="42.840899191796779632568359375" lon="-0.430261529982089996337890625">
        <ele>2029</ele>
        <time>2021-08-11T05:45:19.000Z</time>
      </trkpt>
      <trkpt lat="42.8409144468605518341064453125" lon="-0.4302549920976161956787109375">
        <ele>2029.4000244140625</ele>
        <time>2021-08-11T05:45:21.000Z</time>
      </trkpt>
      <trkpt lat="42.84094219096004962921142578125" lon="-0.430202186107635498046875">
        <ele>2027.5999755859375</ele>
        <time>2021-08-11T05:45:27.000Z</time>
      </trkpt>
      <trkpt lat="42.8409741260111331939697265625" lon="-0.4301617853343486785888671875">
        <ele>2027.199951171875</ele>
        <time>2021-08-11T05:45:34.000Z</time>
      </trkpt>
      <trkpt lat="42.84099097363650798797607421875" lon="-0.43014384806156158447265625">
        <ele>2027</ele>
        <time>2021-08-11T05:45:36.000Z</time>
      </trkpt>
      <trkpt lat="42.8410371579229831695556640625" lon="-0.43012934736907482147216796875">
        <ele>2028.5999755859375</ele>
        <time>2021-08-11T05:45:41.000Z</time>
      </trkpt>
      <trkpt lat="42.84107856452465057373046875" lon="-0.43007235042750835418701171875">
        <ele>2027.5999755859375</ele>
        <time>2021-08-11T05:45:47.000Z</time>
      </trkpt>
      <trkpt lat="42.84108820371329784393310546875" lon="-0.4300640523433685302734375">
        <ele>2027.5999755859375</ele>
        <time>2021-08-11T05:45:48.000Z</time>
      </trkpt>
      <trkpt lat="42.84110630862414836883544921875" lon="-0.43002717196941375732421875">
        <ele>2026.5999755859375</ele>
        <time>2021-08-11T05:45:51.000Z</time>
      </trkpt>
      <trkpt lat="42.841125838458538055419921875" lon="-0.43001317419111728668212890625">
        <ele>2026.800048828125</ele>
        <time>2021-08-11T05:45:54.000Z</time>
      </trkpt>
      <trkpt lat="42.841140590608119964599609375" lon="-0.4299941472709178924560546875">
        <ele>2026.4000244140625</ele>
        <time>2021-08-11T05:45:56.000Z</time>
      </trkpt>
      <trkpt lat="42.8411531634628772735595703125" lon="-0.42994427494704723358154296875">
        <ele>2025</ele>
        <time>2021-08-11T05:46:01.000Z</time>
      </trkpt>
      <trkpt lat="42.84118895418941974639892578125" lon="-0.42987763881683349609375">
        <ele>2024</ele>
        <time>2021-08-11T05:46:07.000Z</time>
      </trkpt>
      <trkpt lat="42.84121627919375896453857421875" lon="-0.42980982922017574310302734375">
        <ele>2022.800048828125</ele>
        <time>2021-08-11T05:46:13.000Z</time>
      </trkpt>
      <trkpt lat="42.84123136661946773529052734375" lon="-0.429789125919342041015625">
        <ele>2022.800048828125</ele>
        <time>2021-08-11T05:46:15.000Z</time>
      </trkpt>
      <trkpt lat="42.8412574343383312225341796875" lon="-0.42975668795406818389892578125">
        <ele>2023</ele>
        <time>2021-08-11T05:46:18.000Z</time>
      </trkpt>
      <trkpt lat="42.84127059392631053924560546875" lon="-0.4297339729964733123779296875">
        <ele>2022.800048828125</ele>
        <time>2021-08-11T05:46:20.000Z</time>
      </trkpt>
      <trkpt lat="42.8413016907870769500732421875" lon="-0.42969298548996448516845703125">
        <ele>2023</ele>
        <time>2021-08-11T05:46:24.000Z</time>
      </trkpt>
      <trkpt lat="42.8413593582808971405029296875" lon="-0.42962886393070220947265625">
        <ele>2024.4000244140625</ele>
        <time>2021-08-11T05:46:32.000Z</time>
      </trkpt>
      <trkpt lat="42.84139749594032764434814453125" lon="-0.4296038858592510223388671875">
        <ele>2025.800048828125</ele>
        <time>2021-08-11T05:46:37.000Z</time>
      </trkpt>
      <trkpt lat="42.84142046235501766204833984375" lon="-0.4295971803367137908935546875">
        <ele>2027</ele>
        <time>2021-08-11T05:46:40.000Z</time>
      </trkpt>
      <trkpt lat="42.84148156642913818359375" lon="-0.42956189252436161041259765625">
        <ele>2029.4000244140625</ele>
        <time>2021-08-11T05:46:49.000Z</time>
      </trkpt>
      <trkpt lat="42.8415191173553466796875" lon="-0.42952769435942173004150390625">
        <ele>2030.199951171875</ele>
        <time>2021-08-11T05:46:56.000Z</time>
      </trkpt>
      <trkpt lat="42.84155993722379207611083984375" lon="-0.429486371576786041259765625">
        <ele>2031.199951171875</ele>
        <time>2021-08-11T05:47:04.000Z</time>
      </trkpt>
      <trkpt lat="42.84160620532929897308349609375" lon="-0.42942878790199756622314453125">
        <ele>2031.800048828125</ele>
        <time>2021-08-11T05:47:15.000Z</time>
      </trkpt>
      <trkpt lat="42.8416463546454906463623046875" lon="-0.42936860583722591400146484375">
        <ele>2032.199951171875</ele>
        <time>2021-08-11T05:47:24.000Z</time>
      </trkpt>
      <trkpt lat="42.8416711650788784027099609375" lon="-0.4293286241590976715087890625">
        <ele>2032.4000244140625</ele>
        <time>2021-08-11T05:47:31.000Z</time>
      </trkpt>
      <trkpt lat="42.8416889347136020660400390625" lon="-0.4292655922472476959228515625">
        <ele>2031.5999755859375</ele>
        <time>2021-08-11T05:47:39.000Z</time>
      </trkpt>
      <trkpt lat="42.84171818755567073822021484375" lon="-0.42922292836010456085205078125">
        <ele>2031.800048828125</ele>
        <time>2021-08-11T05:47:46.000Z</time>
      </trkpt>
      <trkpt lat="42.841749452054500579833984375" lon="-0.429185964167118072509765625">
        <ele>2032.4000244140625</ele>
        <time>2021-08-11T05:47:52.000Z</time>
      </trkpt>
      <trkpt lat="42.84177593886852264404296875" lon="-0.42913910932838916778564453125">
        <ele>2032.5999755859375</ele>
        <time>2021-08-11T05:48:00.000Z</time>
      </trkpt>
      <trkpt lat="42.84181214869022369384765625" lon="-0.4290769994258880615234375">
        <ele>2032.4000244140625</ele>
        <time>2021-08-11T05:48:07.000Z</time>
      </trkpt>
      <trkpt lat="42.84185162745416164398193359375" lon="-0.42902327142655849456787109375">
        <ele>2032.800048828125</ele>
        <time>2021-08-11T05:48:14.000Z</time>
      </trkpt>
      <trkpt lat="42.84187912009656429290771484375" lon="-0.4289594851434230804443359375">
        <ele>2032</ele>
        <time>2021-08-11T05:48:22.000Z</time>
      </trkpt>
      <trkpt lat="42.8419283218681812286376953125" lon="-0.42889787815511226654052734375">
        <ele>2032.5999755859375</ele>
        <time>2021-08-11T05:48:29.000Z</time>
      </trkpt>
      <trkpt lat="42.84195304848253726959228515625" lon="-0.4288585670292377471923828125">
        <ele>2033</ele>
        <time>2021-08-11T05:48:35.000Z</time>
      </trkpt>
      <trkpt lat="42.84199185669422149658203125" lon="-0.42880383320152759552001953125">
        <ele>2035.199951171875</ele>
        <time>2021-08-11T05:48:43.000Z</time>
      </trkpt>
      <trkpt lat="42.842049188911914825439453125" lon="-0.428716577589511871337890625">
        <ele>2038.5999755859375</ele>
        <time>2021-08-11T05:48:55.000Z</time>
      </trkpt>
      <trkpt lat="42.84208347089588642120361328125" lon="-0.42867793701589107513427734375">
        <ele>2040.4000244140625</ele>
        <time>2021-08-11T05:49:02.000Z</time>
      </trkpt>
      <trkpt lat="42.84210794605314731597900390625" lon="-0.4286315850913524627685546875">
        <ele>2041.800048828125</ele>
        <time>2021-08-11T05:49:10.000Z</time>
      </trkpt>
      <trkpt lat="42.84213979728519916534423828125" lon="-0.4286067746579647064208984375">
        <ele>2043.5999755859375</ele>
        <time>2021-08-11T05:49:16.000Z</time>
      </trkpt>
      <trkpt lat="42.842176258563995361328125" lon="-0.42857467196881771087646484375">
        <ele>2045.4000244140625</ele>
        <time>2021-08-11T05:49:23.000Z</time>
      </trkpt>
      <trkpt lat="42.84219545312225818634033203125" lon="-0.4285494424402713775634765625">
        <ele>2045.800048828125</ele>
        <time>2021-08-11T05:49:29.000Z</time>
      </trkpt>
      <trkpt lat="42.84226971678435802459716796875" lon="-0.42848565615713596343994140625">
        <ele>2048.39990234375</ele>
        <time>2021-08-11T05:49:39.000Z</time>
      </trkpt>
      <trkpt lat="42.84230793826282024383544921875" lon="-0.42844743467867374420166015625">
        <ele>2049.800048828125</ele>
        <time>2021-08-11T05:49:45.000Z</time>
      </trkpt>
      <trkpt lat="42.8423360176384449005126953125" lon="-0.4283921979367733001708984375">
        <ele>2049.199951171875</ele>
        <time>2021-08-11T05:49:51.000Z</time>
      </trkpt>
      <trkpt lat="42.84240089356899261474609375" lon="-0.4283184371888637542724609375">
        <ele>2049.199951171875</ele>
        <time>2021-08-11T05:49:59.000Z</time>
      </trkpt>
      <trkpt lat="42.8424453176558017730712890625" lon="-0.42826403863728046417236328125">
        <ele>2050.199951171875</ele>
        <time>2021-08-11T05:50:05.000Z</time>
      </trkpt>
      <trkpt lat="42.84252787940204143524169921875" lon="-0.42810344137251377105712890625">
        <ele>2052</ele>
        <time>2021-08-11T05:50:17.000Z</time>
      </trkpt>
      <trkpt lat="42.84256459213793277740478515625" lon="-0.4279251582920551300048828125">
        <ele>2048.199951171875</ele>
        <time>2021-08-11T05:50:27.000Z</time>
      </trkpt>
      <trkpt lat="42.84261815249919891357421875" lon="-0.42774000205099582672119140625">
        <ele>2045.5999755859375</ele>
        <time>2021-08-11T05:50:38.000Z</time>
      </trkpt>
      <trkpt lat="42.84264287911355495452880859375" lon="-0.4275345616042613983154296875">
        <ele>2042.800048828125</ele>
        <time>2021-08-11T05:50:49.000Z</time>
      </trkpt>
      <trkpt lat="42.84264606423676013946533203125" lon="-0.427470691502094268798828125">
        <ele>2041.800048828125</ele>
        <time>2021-08-11T05:50:54.000Z</time>
      </trkpt>
      <trkpt lat="42.84264095127582550048828125" lon="-0.4274544306099414825439453125">
        <ele>2041.199951171875</ele>
        <time>2021-08-11T05:50:57.000Z</time>
      </trkpt>
      <trkpt lat="42.84264170564711093902587890625" lon="-0.427416376769542694091796875">
        <ele>2040.4000244140625</ele>
        <time>2021-08-11T05:50:59.000Z</time>
      </trkpt>
      <trkpt lat="42.8426563739776611328125" lon="-0.4273662529885768890380859375">
        <ele>2039.800048828125</ele>
        <time>2021-08-11T05:51:02.000Z</time>
      </trkpt>
      <trkpt lat="42.84271747805178165435791015625" lon="-0.42725913226604461669921875">
        <ele>2039.5999755859375</ele>
        <time>2021-08-11T05:51:10.000Z</time>
      </trkpt>
      <trkpt lat="42.8427467308938503265380859375" lon="-0.4271882213652133941650390625">
        <ele>2039.4000244140625</ele>
        <time>2021-08-11T05:51:15.000Z</time>
      </trkpt>
      <trkpt lat="42.84276902675628662109375" lon="-0.42714220471680164337158203125">
        <ele>2040</ele>
        <time>2021-08-11T05:51:18.000Z</time>
      </trkpt>
      <trkpt lat="42.8428258560597896575927734375" lon="-0.42706224136054515838623046875">
        <ele>2041.800048828125</ele>
        <time>2021-08-11T05:51:25.000Z</time>
      </trkpt>
      <trkpt lat="42.842868603765964508056640625" lon="-0.4270088486373424530029296875">
        <ele>2043.199951171875</ele>
        <time>2021-08-11T05:51:29.000Z</time>
      </trkpt>
      <trkpt lat="42.84289735369384288787841796875" lon="-0.426955707371234893798828125">
        <ele>2044</ele>
        <time>2021-08-11T05:51:33.000Z</time>
      </trkpt>
      <trkpt lat="42.84293054603040218353271484375" lon="-0.42687532491981983184814453125">
        <ele>2044.800048828125</ele>
        <time>2021-08-11T05:51:39.000Z</time>
      </trkpt>
      <trkpt lat="42.842943705618381500244140625" lon="-0.426853112876415252685546875">
        <ele>2045</ele>
        <time>2021-08-11T05:51:41.000Z</time>
      </trkpt>
      <trkpt lat="42.84302274696528911590576171875" lon="-0.4267649352550506591796875">
        <ele>2047.199951171875</ele>
        <time>2021-08-11T05:51:50.000Z</time>
      </trkpt>
      <trkpt lat="42.84309717826545238494873046875" lon="-0.42670768685638904571533203125">
        <ele>2049.60009765625</ele>
        <time>2021-08-11T05:51:59.000Z</time>
      </trkpt>
      <trkpt lat="42.8431029617786407470703125" lon="-0.42670282535254955291748046875">
        <ele>2049.60009765625</ele>
        <time>2021-08-11T05:52:00.000Z</time>
      </trkpt>
      <trkpt lat="42.84316423349082469940185546875" lon="-0.42663593776524066925048828125">
        <ele>2051.199951171875</ele>
        <time>2021-08-11T05:52:06.000Z</time>
      </trkpt>
      <trkpt lat="42.8432244993746280670166015625" lon="-0.42658866383135318756103515625">
        <ele>2051.800048828125</ele>
        <time>2021-08-11T05:52:13.000Z</time>
      </trkpt>
      <trkpt lat="42.84332231618463993072509765625" lon="-0.42648254893720149993896484375">
        <ele>2051.800048828125</ele>
        <time>2021-08-11T05:52:27.000Z</time>
      </trkpt>
      <trkpt lat="42.84339959733188152313232421875" lon="-0.426376350224018096923828125">
        <ele>2051.199951171875</ele>
        <time>2021-08-11T05:52:37.000Z</time>
      </trkpt>
      <trkpt lat="42.8434632159769535064697265625" lon="-0.42625288479030132293701171875">
        <ele>2049</ele>
        <time>2021-08-11T05:52:50.000Z</time>
      </trkpt>
      <trkpt lat="42.8435312770307064056396484375" lon="-0.42618717066943645477294921875">
        <ele>2049.199951171875</ele>
        <time>2021-08-11T05:53:01.000Z</time>
      </trkpt>
      <trkpt lat="42.843588106334209442138671875" lon="-0.42616202495992183685302734375">
        <ele>2050.800048828125</ele>
        <time>2021-08-11T05:53:09.000Z</time>
      </trkpt>
      <trkpt lat="42.8436278365552425384521484375" lon="-0.4261171817779541015625">
        <ele>2050.60009765625</ele>
        <time>2021-08-11T05:53:16.000Z</time>
      </trkpt>
      <trkpt lat="42.84368458203971385955810546875" lon="-0.42609647847712039947509765625">
        <ele>2052.199951171875</ele>
        <time>2021-08-11T05:53:24.000Z</time>
      </trkpt>
      <trkpt lat="42.8437391482293605804443359375" lon="-0.42604752816259860992431640625">
        <ele>2054</ele>
        <time>2021-08-11T05:53:31.000Z</time>
      </trkpt>
      <trkpt lat="42.8437579236924648284912109375" lon="-0.42603663168847560882568359375">
        <ele>2055.199951171875</ele>
        <time>2021-08-11T05:53:33.000Z</time>
      </trkpt>
      <trkpt lat="42.84382673911750316619873046875" lon="-0.4259875975549221038818359375">
        <ele>2058.60009765625</ele>
        <time>2021-08-11T05:53:43.000Z</time>
      </trkpt>
      <trkpt lat="42.843828834593296051025390625" lon="-0.425976701080799102783203125">
        <ele>2058.39990234375</ele>
        <time>2021-08-11T05:53:44.000Z</time>
      </trkpt>
      <trkpt lat="42.843852974474430084228515625" lon="-0.42593638412654399871826171875">
        <ele>2059</ele>
        <time>2021-08-11T05:53:48.000Z</time>
      </trkpt>
      <trkpt lat="42.84388474188745021820068359375" lon="-0.42590352706611156463623046875">
        <ele>2060.39990234375</ele>
        <time>2021-08-11T05:53:52.000Z</time>
      </trkpt>
      <trkpt lat="42.84392799250781536102294921875" lon="-0.4258980788290500640869140625">
        <ele>2063.199951171875</ele>
        <time>2021-08-11T05:53:56.000Z</time>
      </trkpt>
      <trkpt lat="42.84395045600831508636474609375" lon="-0.425881482660770416259765625">
        <ele>2064.199951171875</ele>
        <time>2021-08-11T05:53:59.000Z</time>
      </trkpt>
      <trkpt lat="42.8439758531749248504638671875" lon="-0.425851643085479736328125">
        <ele>2065.199951171875</ele>
        <time>2021-08-11T05:54:02.000Z</time>
      </trkpt>
      <trkpt lat="42.8439902700483798980712890625" lon="-0.425823815166950225830078125">
        <ele>2065.60009765625</ele>
        <time>2021-08-11T05:54:05.000Z</time>
      </trkpt>
      <trkpt lat="42.8439976461231708526611328125" lon="-0.42578970082104206085205078125">
        <ele>2065.60009765625</ele>
        <time>2021-08-11T05:54:09.000Z</time>
      </trkpt>
      <trkpt lat="42.8439959697425365447998046875" lon="-0.42570772580802440643310546875">
        <ele>2063.60009765625</ele>
        <time>2021-08-11T05:54:15.000Z</time>
      </trkpt>
      <trkpt lat="42.84399974159896373748779296875" lon="-0.42565324343740940093994140625">
        <ele>2062.800048828125</ele>
        <time>2021-08-11T05:54:20.000Z</time>
      </trkpt>
      <trkpt lat="42.84400284290313720703125" lon="-0.42564100585877895355224609375">
        <ele>2062.60009765625</ele>
        <time>2021-08-11T05:54:21.000Z</time>
      </trkpt>
      <trkpt lat="42.844042740762233734130859375" lon="-0.42560152709484100341796875">
        <ele>2064.800048828125</ele>
        <time>2021-08-11T05:54:26.000Z</time>
      </trkpt>
      <trkpt lat="42.844091691076755523681640625" lon="-0.42556405998766422271728515625">
        <ele>2067.800048828125</ele>
        <time>2021-08-11T05:54:33.000Z</time>
      </trkpt>
      <trkpt lat="42.844143994152545928955078125" lon="-0.425519384443759918212890625">
        <ele>2070.800048828125</ele>
        <time>2021-08-11T05:54:40.000Z</time>
      </trkpt>
      <trkpt lat="42.84420308656990528106689453125" lon="-0.4254900477826595306396484375">
        <ele>2074.800048828125</ele>
        <time>2021-08-11T05:54:46.000Z</time>
      </trkpt>
      <trkpt lat="42.8442112170159816741943359375" lon="-0.4254843480885028839111328125">
        <ele>2075.199951171875</ele>
        <time>2021-08-11T05:54:47.000Z</time>
      </trkpt>
      <trkpt lat="42.84423409961163997650146484375" lon="-0.42546766810119152069091796875">
        <ele>2076.60009765625</ele>
        <time>2021-08-11T05:54:50.000Z</time>
      </trkpt>
      <trkpt lat="42.84423812292516231536865234375" lon="-0.4254243336617946624755859375">
        <ele>2076.199951171875</ele>
        <time>2021-08-11T05:54:54.000Z</time>
      </trkpt>
      <trkpt lat="42.8442884981632232666015625" lon="-0.42537462897598743438720703125">
        <ele>2078.800048828125</ele>
        <time>2021-08-11T05:55:03.000Z</time>
      </trkpt>
      <trkpt lat="42.84430953674018383026123046875" lon="-0.4253237508237361907958984375">
        <ele>2079.199951171875</ele>
        <time>2021-08-11T05:55:09.000Z</time>
      </trkpt>
      <trkpt lat="42.844367288053035736083984375" lon="-0.42527119629085063934326171875">
        <ele>2082</ele>
        <time>2021-08-11T05:55:19.000Z</time>
      </trkpt>
      <trkpt lat="42.84440961666405200958251953125" lon="-0.42520799674093723297119140625">
        <ele>2082.60009765625</ele>
        <time>2021-08-11T05:55:28.000Z</time>
      </trkpt>
      <trkpt lat="42.8444757498800754547119140625" lon="-0.4251309670507907867431640625">
        <ele>2083.800048828125</ele>
        <time>2021-08-11T05:55:38.000Z</time>
      </trkpt>
      <trkpt lat="42.84453685395419597625732421875" lon="-0.42507623322308063507080078125">
        <ele>2085.60009765625</ele>
        <time>2021-08-11T05:55:47.000Z</time>
      </trkpt>
      <trkpt lat="42.844587229192256927490234375" lon="-0.42501219548285007476806640625">
        <ele>2085.60009765625</ele>
        <time>2021-08-11T05:55:56.000Z</time>
      </trkpt>
      <trkpt lat="42.84463559277355670928955078125" lon="-0.42491178028285503387451171875">
        <ele>2083</ele>
        <time>2021-08-11T05:56:07.000Z</time>
      </trkpt>
      <trkpt lat="42.8446876443922519683837890625" lon="-0.424838773906230926513671875">
        <ele>2081.800048828125</ele>
        <time>2021-08-11T05:56:16.000Z</time>
      </trkpt>
      <trkpt lat="42.84472293220460414886474609375" lon="-0.424802564084529876708984375">
        <ele>2081.60009765625</ele>
        <time>2021-08-11T05:56:25.000Z</time>
      </trkpt>
      <trkpt lat="42.8447369299829006195068359375" lon="-0.424803234636783599853515625">
        <ele>2082.39990234375</ele>
        <time>2021-08-11T05:56:33.000Z</time>
      </trkpt>
      <trkpt lat="42.84477255307137966156005859375" lon="-0.42479057796299457550048828125">
        <ele>2083.39990234375</ele>
        <time>2021-08-11T05:56:40.000Z</time>
      </trkpt>
      <trkpt lat="42.84482703544199466705322265625" lon="-0.424777083098888397216796875">
        <ele>2085.199951171875</ele>
        <time>2021-08-11T05:56:49.000Z</time>
      </trkpt>
      <trkpt lat="42.84491269849240779876708984375" lon="-0.42477699927985668182373046875">
        <ele>2088.60009765625</ele>
        <time>2021-08-11T05:56:59.000Z</time>
      </trkpt>
      <trkpt lat="42.84499995410442352294921875" lon="-0.4247759096324443817138671875">
        <ele>2092</ele>
        <time>2021-08-11T05:57:10.000Z</time>
      </trkpt>
      <trkpt lat="42.84507765434682369232177734375" lon="-0.42479024268686771392822265625">
        <ele>2095</ele>
        <time>2021-08-11T05:57:20.000Z</time>
      </trkpt>
      <trkpt lat="42.8451454639434814453125" lon="-0.42477666400372982025146484375">
        <ele>2096.199951171875</ele>
        <time>2021-08-11T05:57:29.000Z</time>
      </trkpt>
      <trkpt lat="42.84521629102528095245361328125" lon="-0.42477599345147609710693359375">
        <ele>2098</ele>
        <time>2021-08-11T05:57:38.000Z</time>
      </trkpt>
      <trkpt lat="42.84527932293713092803955078125" lon="-0.4248030669987201690673828125">
        <ele>2100.60009765625</ele>
        <time>2021-08-11T05:57:47.000Z</time>
      </trkpt>
      <trkpt lat="42.8453364036977291107177734375" lon="-0.4247635044157505035400390625">
        <ele>2100.39990234375</ele>
        <time>2021-08-11T05:57:53.000Z</time>
      </trkpt>
      <trkpt lat="42.845381833612918853759765625" lon="-0.424783118069171905517578125">
        <ele>2102</ele>
        <time>2021-08-11T05:58:02.000Z</time>
      </trkpt>
      <trkpt lat="42.8454874455928802490234375" lon="-0.4248080961406230926513671875">
        <ele>2107.39990234375</ele>
        <time>2021-08-11T05:58:12.000Z</time>
      </trkpt>
      <trkpt lat="42.84557386301457881927490234375" lon="-0.4248057492077350616455078125">
        <ele>2110.800048828125</ele>
        <time>2021-08-11T05:58:20.000Z</time>
      </trkpt>
      <trkpt lat="42.84558660350739955902099609375" lon="-0.424795858561992645263671875">
        <ele>2111</ele>
        <time>2021-08-11T05:58:21.000Z</time>
      </trkpt>
      <trkpt lat="42.8456234000623226165771484375" lon="-0.42469955049455165863037109375">
        <ele>2109.800048828125</ele>
        <time>2021-08-11T05:58:28.000Z</time>
      </trkpt>
      <trkpt lat="42.8456458635628223419189453125" lon="-0.42467675171792507171630859375">
        <ele>2109.800048828125</ele>
        <time>2021-08-11T05:58:31.000Z</time>
      </trkpt>
      <trkpt lat="42.8456938080489635467529296875" lon="-0.42467524297535419464111328125">
        <ele>2111.39990234375</ele>
        <time>2021-08-11T05:58:37.000Z</time>
      </trkpt>
      <trkpt lat="42.845721133053302764892578125" lon="-0.4246585629880428314208984375">
        <ele>2111.800048828125</ele>
        <time>2021-08-11T05:58:40.000Z</time>
      </trkpt>
      <trkpt lat="42.8457615338265895843505859375" lon="-0.42462310753762722015380859375">
        <ele>2111.800048828125</ele>
        <time>2021-08-11T05:58:44.000Z</time>
      </trkpt>
      <trkpt lat="42.84584074281156063079833984375" lon="-0.4245589859783649444580078125">
        <ele>2112</ele>
        <time>2021-08-11T05:58:53.000Z</time>
      </trkpt>
      <trkpt lat="42.84591249190270900726318359375" lon="-0.4244744963943958282470703125">
        <ele>2111.199951171875</ele>
        <time>2021-08-11T05:59:02.000Z</time>
      </trkpt>
      <trkpt lat="42.84593059681355953216552734375" lon="-0.42446536011993885040283203125">
        <ele>2111.60009765625</ele>
        <time>2021-08-11T05:59:04.000Z</time>
      </trkpt>
      <trkpt lat="42.8459399007260799407958984375" lon="-0.42446016333997249603271484375">
        <ele>2111.800048828125</ele>
        <time>2021-08-11T05:59:05.000Z</time>
      </trkpt>
      <trkpt lat="42.8459838218986988067626953125" lon="-0.42441674508154392242431640625">
        <ele>2112</ele>
        <time>2021-08-11T05:59:11.000Z</time>
      </trkpt>
      <trkpt lat="42.8460907749831676483154296875" lon="-0.424326471984386444091796875">
        <ele>2113.60009765625</ele>
        <time>2021-08-11T05:59:24.000Z</time>
      </trkpt>
      <trkpt lat="42.84614115022122859954833984375" lon="-0.42428967542946338653564453125">
        <ele>2114.60009765625</ele>
        <time>2021-08-11T05:59:31.000Z</time>
      </trkpt>
      <trkpt lat="42.84616042859852313995361328125" lon="-0.42426603846251964569091796875">
        <ele>2114.60009765625</ele>
        <time>2021-08-11T05:59:34.000Z</time>
      </trkpt>
      <trkpt lat="42.84628381021320819854736328125" lon="-0.42415087111294269561767578125">
        <ele>2117.199951171875</ele>
        <time>2021-08-11T05:59:48.000Z</time>
      </trkpt>
      <trkpt lat="42.84639042802155017852783203125" lon="-0.4240409843623638153076171875">
        <ele>2119.199951171875</ele>
        <time>2021-08-11T06:00:01.000Z</time>
      </trkpt>
      <trkpt lat="42.84647927619516849517822265625" lon="-0.42396864853799343109130859375">
        <ele>2121.39990234375</ele>
        <time>2021-08-11T06:00:11.000Z</time>
      </trkpt>
      <trkpt lat="42.84659896977245807647705078125" lon="-0.42385130189359188079833984375">
        <ele>2120.39990234375</ele>
        <time>2021-08-11T06:00:25.000Z</time>
      </trkpt>
      <trkpt lat="42.8466771729290485382080078125" lon="-0.42375859804451465606689453125">
        <ele>2119.60009765625</ele>
        <time>2021-08-11T06:00:36.000Z</time>
      </trkpt>
      <trkpt lat="42.8467827849090099334716796875" lon="-0.4236755333840847015380859375">
        <ele>2120</ele>
        <time>2021-08-11T06:00:49.000Z</time>
      </trkpt>
      <trkpt lat="42.84684858284890651702880859375" lon="-0.423615016043186187744140625">
        <ele>2119.800048828125</ele>
        <time>2021-08-11T06:00:57.000Z</time>
      </trkpt>
      <trkpt lat="42.84687624312937259674072265625" lon="-0.42359950952231884002685546875">
        <ele>2120.199951171875</ele>
        <time>2021-08-11T06:01:00.000Z</time>
      </trkpt>
      <trkpt lat="42.84697364084422588348388671875" lon="-0.4234824143350124359130859375">
        <ele>2120.800048828125</ele>
        <time>2021-08-11T06:01:13.000Z</time>
      </trkpt>
      <trkpt lat="42.8470305539667606353759765625" lon="-0.423450730741024017333984375">
        <ele>2121.800048828125</ele>
        <time>2021-08-11T06:01:23.000Z</time>
      </trkpt>
      <trkpt lat="42.8470322303473949432373046875" lon="-0.42344368994235992431640625">
        <ele>2121.60009765625</ele>
        <time>2021-08-11T06:01:30.000Z</time>
      </trkpt>
      <trkpt lat="42.84703667275607585906982421875" lon="-0.4234438575804233551025390625">
        <ele>2121.800048828125</ele>
        <time>2021-08-11T06:01:45.000Z</time>
      </trkpt>
      <trkpt lat="42.84701823256909847259521484375" lon="-0.4233697615563869476318359375">
        <ele>2120.199951171875</ele>
        <time>2021-08-11T06:04:50.000Z</time>
      </trkpt>
      <trkpt lat="42.8470422886312007904052734375" lon="-0.4233370721340179443359375">
        <ele>2120.39990234375</ele>
        <time>2021-08-11T06:04:56.000Z</time>
      </trkpt>
      <trkpt lat="42.84705528058111667633056640625" lon="-0.423313267529010772705078125">
        <ele>2120.199951171875</ele>
        <time>2021-08-11T06:05:07.000Z</time>
      </trkpt>
      <trkpt lat="42.8471304662525653839111328125" lon="-0.4232094995677471160888671875">
        <ele>2120.800048828125</ele>
        <time>2021-08-11T06:05:15.000Z</time>
      </trkpt>
      <trkpt lat="42.84715418703854084014892578125" lon="-0.4231598787009716033935546875">
        <ele>2121</ele>
        <time>2021-08-11T06:05:20.000Z</time>
      </trkpt>
      <trkpt lat="42.84716944210231304168701171875" lon="-0.4231305420398712158203125">
        <ele>2121.39990234375</ele>
        <time>2021-08-11T06:05:23.000Z</time>
      </trkpt>
      <trkpt lat="42.847236581146717071533203125" lon="-0.423026271164417266845703125">
        <ele>2122.199951171875</ele>
        <time>2021-08-11T06:05:34.000Z</time>
      </trkpt>
      <trkpt lat="42.847301959991455078125" lon="-0.42294211685657501220703125">
        <ele>2123.60009765625</ele>
        <time>2021-08-11T06:05:44.000Z</time>
      </trkpt>
      <trkpt lat="42.847376056015491485595703125" lon="-0.42286123149096965789794921875">
        <ele>2123.199951171875</ele>
        <time>2021-08-11T06:05:54.000Z</time>
      </trkpt>
      <trkpt lat="42.8473936580121517181396484375" lon="-0.4228420369327068328857421875">
        <ele>2123</ele>
        <time>2021-08-11T06:05:56.000Z</time>
      </trkpt>
      <trkpt lat="42.8474395908415317535400390625" lon="-0.42277053929865360260009765625">
        <ele>2122.800048828125</ele>
        <time>2021-08-11T06:06:03.000Z</time>
      </trkpt>
      <trkpt lat="42.847470939159393310546875" lon="-0.42272326536476612091064453125">
        <ele>2122.60009765625</ele>
        <time>2021-08-11T06:06:07.000Z</time>
      </trkpt>
      <trkpt lat="42.84747621975839138031005859375" lon="-0.4227121174335479736328125">
        <ele>2122.60009765625</ele>
        <time>2021-08-11T06:06:08.000Z</time>
      </trkpt>
      <trkpt lat="42.847486697137355804443359375" lon="-0.422693006694316864013671875">
        <ele>2122.60009765625</ele>
        <time>2021-08-11T06:06:10.000Z</time>
      </trkpt>
      <trkpt lat="42.84750103019177913665771484375" lon="-0.422669537365436553955078125">
        <ele>2122.60009765625</ele>
        <time>2021-08-11T06:06:12.000Z</time>
      </trkpt>
      <trkpt lat="42.8475851006805896759033203125" lon="-0.4225443117320537567138671875">
        <ele>2122.199951171875</ele>
        <time>2021-08-11T06:06:22.000Z</time>
      </trkpt>
      <trkpt lat="42.84758736379444599151611328125" lon="-0.4225272126495838165283203125">
        <ele>2122.39990234375</ele>
        <time>2021-08-11T06:06:23.000Z</time>
      </trkpt>
      <trkpt lat="42.84761971794068813323974609375" lon="-0.42248790152370929718017578125">
        <ele>2121.39990234375</ele>
        <time>2021-08-11T06:06:27.000Z</time>
      </trkpt>
      <trkpt lat="42.84768828190863132476806640625" lon="-0.422382541000843048095703125">
        <ele>2118.800048828125</ele>
        <time>2021-08-11T06:06:36.000Z</time>
      </trkpt>
      <trkpt lat="42.847737483680248260498046875" lon="-0.42235764674842357635498046875">
        <ele>2116.199951171875</ele>
        <time>2021-08-11T06:06:42.000Z</time>
      </trkpt>
      <trkpt lat="42.8477443568408489227294921875" lon="-0.42234976775944232940673828125">
        <ele>2115.800048828125</ele>
        <time>2021-08-11T06:06:44.000Z</time>
      </trkpt>
      <trkpt lat="42.84775835461914539337158203125" lon="-0.4223431460559368133544921875">
        <ele>2115</ele>
        <time>2021-08-11T06:06:50.000Z</time>
      </trkpt>
      <trkpt lat="42.8477728553116321563720703125" lon="-0.4223156534135341644287109375">
        <ele>2114.60009765625</ele>
        <time>2021-08-11T06:06:53.000Z</time>
      </trkpt>
      <trkpt lat="42.8477866016328334808349609375" lon="-0.4222856462001800537109375">
        <ele>2114.199951171875</ele>
        <time>2021-08-11T06:06:56.000Z</time>
      </trkpt>
      <trkpt lat="42.847848795354366302490234375" lon="-0.42227366007864475250244140625">
        <ele>2110.60009765625</ele>
        <time>2021-08-11T06:07:04.000Z</time>
      </trkpt>
      <trkpt lat="42.84790302626788616180419921875" lon="-0.422239042818546295166015625">
        <ele>2108</ele>
        <time>2021-08-11T06:07:10.000Z</time>
      </trkpt>
      <trkpt lat="42.84791191108524799346923828125" lon="-0.42223443277180194854736328125">
        <ele>2107.60009765625</ele>
        <time>2021-08-11T06:07:12.000Z</time>
      </trkpt>
      <trkpt lat="42.84795683808624744415283203125" lon="-0.42222085408866405487060546875">
        <ele>2105.60009765625</ele>
        <time>2021-08-11T06:07:17.000Z</time>
      </trkpt>
      <trkpt lat="42.84800277091562747955322265625" lon="-0.4221664555370807647705078125">
        <ele>2103.60009765625</ele>
        <time>2021-08-11T06:07:23.000Z</time>
      </trkpt>
      <trkpt lat="42.84803562797605991363525390625" lon="-0.422134436666965484619140625">
        <ele>2102.199951171875</ele>
        <time>2021-08-11T06:07:26.000Z</time>
      </trkpt>
      <trkpt lat="42.8481148369610309600830078125" lon="-0.42202572338283061981201171875">
        <ele>2098.60009765625</ele>
        <time>2021-08-11T06:07:34.000Z</time>
      </trkpt>
      <trkpt lat="42.8481802158057689666748046875" lon="-0.4219798743724822998046875">
        <ele>2096.199951171875</ele>
        <time>2021-08-11T06:07:41.000Z</time>
      </trkpt>
      <trkpt lat="42.84834860824048519134521484375" lon="-0.421994626522064208984375">
        <ele>2093.199951171875</ele>
        <time>2021-08-11T06:07:53.000Z</time>
      </trkpt>
      <trkpt lat="42.8484299965202808380126953125" lon="-0.422040559351444244384765625">
        <ele>2090.800048828125</ele>
        <time>2021-08-11T06:08:00.000Z</time>
      </trkpt>
      <trkpt lat="42.8485397994518280029296875" lon="-0.4220467619597911834716796875">
        <ele>2090.60009765625</ele>
        <time>2021-08-11T06:08:08.000Z</time>
      </trkpt>
      <trkpt lat="42.848620600998401641845703125" lon="-0.42199068702757358551025390625">
        <ele>2091.199951171875</ele>
        <time>2021-08-11T06:08:15.000Z</time>
      </trkpt>
      <trkpt lat="42.8486338444054126739501953125" lon="-0.42199001647531986236572265625">
        <ele>2091.199951171875</ele>
        <time>2021-08-11T06:08:16.000Z</time>
      </trkpt>
      <trkpt lat="42.84868455491960048675537109375" lon="-0.4219951294362545013427734375">
        <ele>2090.800048828125</ele>
        <time>2021-08-11T06:08:21.000Z</time>
      </trkpt>
      <trkpt lat="42.84872612915933132171630859375" lon="-0.4220038466155529022216796875">
        <ele>2090.199951171875</ele>
        <time>2021-08-11T06:08:25.000Z</time>
      </trkpt>
      <trkpt lat="42.84878664650022983551025390625" lon="-0.42202748358249664306640625">
        <ele>2089</ele>
        <time>2021-08-11T06:08:32.000Z</time>
      </trkpt>
      <trkpt lat="42.848779857158660888671875" lon="-0.4220457561314105987548828125">
        <ele>2088.800048828125</ele>
        <time>2021-08-11T06:08:38.000Z</time>
      </trkpt>
      <trkpt lat="42.8488041646778583526611328125" lon="-0.42208255268633365631103515625">
        <ele>2087.800048828125</ele>
        <time>2021-08-11T06:08:46.000Z</time>
      </trkpt>
      <trkpt lat="42.84885697066783905029296875" lon="-0.422051288187503814697265625">
        <ele>2087.60009765625</ele>
        <time>2021-08-11T06:08:52.000Z</time>
      </trkpt>
      <trkpt lat="42.84889343194663524627685546875" lon="-0.42202019132673740386962890625">
        <ele>2087.60009765625</ele>
        <time>2021-08-11T06:08:58.000Z</time>
      </trkpt>
      <trkpt lat="42.84893886186182498931884765625" lon="-0.42200309224426746368408203125">
        <ele>2087</ele>
        <time>2021-08-11T06:09:03.000Z</time>
      </trkpt>
      <trkpt lat="42.84896668978035449981689453125" lon="-0.42198129929602146148681640625">
        <ele>2087</ele>
        <time>2021-08-11T06:09:06.000Z</time>
      </trkpt>
      <trkpt lat="42.849046401679515838623046875" lon="-0.42192681692540645599365234375">
        <ele>2085.39990234375</ele>
        <time>2021-08-11T06:09:14.000Z</time>
      </trkpt>
      <trkpt lat="42.84905704669654369354248046875" lon="-0.42192530818283557891845703125">
        <ele>2085.199951171875</ele>
        <time>2021-08-11T06:09:15.000Z</time>
      </trkpt>
      <trkpt lat="42.849122844636440277099609375" lon="-0.42189161293208599090576171875">
        <ele>2083.199951171875</ele>
        <time>2021-08-11T06:09:21.000Z</time>
      </trkpt>
      <trkpt lat="42.849140949547290802001953125" lon="-0.42189798317849636077880859375">
        <ele>2082.39990234375</ele>
        <time>2021-08-11T06:09:23.000Z</time>
      </trkpt>
      <trkpt lat="42.84917078912258148193359375" lon="-0.42189412750303745269775390625">
        <ele>2081.199951171875</ele>
        <time>2021-08-11T06:09:25.000Z</time>
      </trkpt>
      <trkpt lat="42.84921362064778804779052734375" lon="-0.42189932428300380706787109375">
        <ele>2079.39990234375</ele>
        <time>2021-08-11T06:09:28.000Z</time>
      </trkpt>
      <trkpt lat="42.84932325594127178192138671875" lon="-0.42190770618617534637451171875">
        <ele>2075</ele>
        <time>2021-08-11T06:09:36.000Z</time>
      </trkpt>
      <trkpt lat="42.8494190610945224761962890625" lon="-0.421909131109714508056640625">
        <ele>2071.199951171875</ele>
        <time>2021-08-11T06:09:44.000Z</time>
      </trkpt>
      <trkpt lat="42.8494549356400966644287109375" lon="-0.42186127044260501861572265625">
        <ele>2071.199951171875</ele>
        <time>2021-08-11T06:09:49.000Z</time>
      </trkpt>
      <trkpt lat="42.84946071915328502655029296875" lon="-0.42185573838651180267333984375">
        <ele>2071.199951171875</ele>
        <time>2021-08-11T06:09:50.000Z</time>
      </trkpt>
      <trkpt lat="42.84946474246680736541748046875" lon="-0.421846769750118255615234375">
        <ele>2071.199951171875</ele>
        <time>2021-08-11T06:09:51.000Z</time>
      </trkpt>
      <trkpt lat="42.849486283957958221435546875" lon="-0.42177963070571422576904296875">
        <ele>2072.39990234375</ele>
        <time>2021-08-11T06:09:56.000Z</time>
      </trkpt>
      <trkpt lat="42.8495129384100437164306640625" lon="-0.42172372341156005859375">
        <ele>2072.800048828125</ele>
        <time>2021-08-11T06:10:01.000Z</time>
      </trkpt>
      <trkpt lat="42.84954168833792209625244140625" lon="-0.42168709449470043182373046875">
        <ele>2072.800048828125</ele>
        <time>2021-08-11T06:10:05.000Z</time>
      </trkpt>
      <trkpt lat="42.849589549005031585693359375" lon="-0.4216392338275909423828125">
        <ele>2073.60009765625</ele>
        <time>2021-08-11T06:10:10.000Z</time>
      </trkpt>
      <trkpt lat="42.84964151680469512939453125" lon="-0.42160294018685817718505859375">
        <ele>2074.199951171875</ele>
        <time>2021-08-11T06:10:15.000Z</time>
      </trkpt>
      <trkpt lat="42.84973028115928173065185546875" lon="-0.421578884124755859375">
        <ele>2073.800048828125</ele>
        <time>2021-08-11T06:10:23.000Z</time>
      </trkpt>
      <trkpt lat="42.8497657366096973419189453125" lon="-0.4215415008366107940673828125">
        <ele>2074.60009765625</ele>
        <time>2021-08-11T06:10:27.000Z</time>
      </trkpt>
      <trkpt lat="42.84979029558598995208740234375" lon="-0.42154309339821338653564453125">
        <ele>2074.199951171875</ele>
        <time>2021-08-11T06:10:29.000Z</time>
      </trkpt>
      <trkpt lat="42.84988987259566783905029296875" lon="-0.42156790383160114288330078125">
        <ele>2071.60009765625</ele>
        <time>2021-08-11T06:10:37.000Z</time>
      </trkpt>
      <trkpt lat="42.849897332489490509033203125" lon="-0.42157310061156749725341796875">
        <ele>2071.39990234375</ele>
        <time>2021-08-11T06:10:38.000Z</time>
      </trkpt>
      <trkpt lat="42.84995776601135730743408203125" lon="-0.4216266609728336334228515625">
        <ele>2069.800048828125</ele>
        <time>2021-08-11T06:10:44.000Z</time>
      </trkpt>
      <trkpt lat="42.8500376455485820770263671875" lon="-0.421663708984851837158203125">
        <ele>2068.199951171875</ele>
        <time>2021-08-11T06:10:51.000Z</time>
      </trkpt>
      <trkpt lat="42.85004594363272190093994140625" lon="-0.42167938314378261566162109375">
        <ele>2067.60009765625</ele>
        <time>2021-08-11T06:10:53.000Z</time>
      </trkpt>
      <trkpt lat="42.85007192753255367279052734375" lon="-0.42174627073109149932861328125">
        <ele>2066</ele>
        <time>2021-08-11T06:11:00.000Z</time>
      </trkpt>
      <trkpt lat="42.85012833774089813232421875" lon="-0.4218502901494503021240234375">
        <ele>2063.199951171875</ele>
        <time>2021-08-11T06:11:07.000Z</time>
      </trkpt>
      <trkpt lat="42.8501901961863040924072265625" lon="-0.42195506393909454345703125">
        <ele>2060.39990234375</ele>
        <time>2021-08-11T06:11:17.000Z</time>
      </trkpt>
      <trkpt lat="42.85020654089748859405517578125" lon="-0.4219609312713146209716796875">
        <ele>2060.199951171875</ele>
        <time>2021-08-11T06:11:25.000Z</time>
      </trkpt>
      <trkpt lat="42.85022146068513393402099609375" lon="-0.42198657989501953125">
        <ele>2059.199951171875</ele>
        <time>2021-08-11T06:11:31.000Z</time>
      </trkpt>
      <trkpt lat="42.85023026168346405029296875" lon="-0.42199521325528621673583984375">
        <ele>2059</ele>
        <time>2021-08-11T06:11:32.000Z</time>
      </trkpt>
      <trkpt lat="42.8502750210464000701904296875" lon="-0.42203460820019245147705078125">
        <ele>2057.60009765625</ele>
        <time>2021-08-11T06:11:38.000Z</time>
      </trkpt>
      <trkpt lat="42.85028398968279361724853515625" lon="-0.4220336861908435821533203125">
        <ele>2057.39990234375</ele>
        <time>2021-08-11T06:11:39.000Z</time>
      </trkpt>
      <trkpt lat="42.85035691224038600921630859375" lon="-0.4220603406429290771484375">
        <ele>2056.199951171875</ele>
        <time>2021-08-11T06:11:46.000Z</time>
      </trkpt>
      <trkpt lat="42.8503752686083316802978515625" lon="-0.4220695607364177703857421875">
        <ele>2055.800048828125</ele>
        <time>2021-08-11T06:11:48.000Z</time>
      </trkpt>
      <trkpt lat="42.85039127804338932037353515625" lon="-0.42208783328533172607421875">
        <ele>2055</ele>
        <time>2021-08-11T06:11:50.000Z</time>
      </trkpt>
      <trkpt lat="42.85041726194322109222412109375" lon="-0.42209244333207607269287109375">
        <ele>2054.60009765625</ele>
        <time>2021-08-11T06:11:52.000Z</time>
      </trkpt>
      <trkpt lat="42.85050292499363422393798828125" lon="-0.4220823012292385101318359375">
        <ele>2053.60009765625</ele>
        <time>2021-08-11T06:12:00.000Z</time>
      </trkpt>
      <trkpt lat="42.85059009678661823272705078125" lon="-0.42206947691738605499267578125">
        <ele>2052.60009765625</ele>
        <time>2021-08-11T06:12:09.000Z</time>
      </trkpt>
      <trkpt lat="42.8506304137408733367919921875" lon="-0.4220880009233951568603515625">
        <ele>2051.60009765625</ele>
        <time>2021-08-11T06:12:16.000Z</time>
      </trkpt>
      <trkpt lat="42.85063770599663257598876953125" lon="-0.422167293727397918701171875">
        <ele>2049.199951171875</ele>
        <time>2021-08-11T06:12:23.000Z</time>
      </trkpt>
      <trkpt lat="42.8506280668079853057861328125" lon="-0.42221196927130222320556640625">
        <ele>2048</ele>
        <time>2021-08-11T06:12:30.000Z</time>
      </trkpt>
      <trkpt lat="42.8506039269268512725830078125" lon="-0.4222965426743030548095703125">
        <ele>2046</ele>
        <time>2021-08-11T06:12:40.000Z</time>
      </trkpt>
      <trkpt lat="42.850571237504482269287109375" lon="-0.4223528690636157989501953125">
        <ele>2044.800048828125</ele>
        <time>2021-08-11T06:12:48.000Z</time>
      </trkpt>
      <trkpt lat="42.85055992193520069122314453125" lon="-0.4224159009754657745361328125">
        <ele>2043.199951171875</ele>
        <time>2021-08-11T06:12:55.000Z</time>
      </trkpt>
      <trkpt lat="42.85054902546107769012451171875" lon="-0.42247331701219081878662109375">
        <ele>2041.5999755859375</ele>
        <time>2021-08-11T06:13:01.000Z</time>
      </trkpt>
      <trkpt lat="42.85056612454354763031005859375" lon="-0.42255319654941558837890625">
        <ele>2039.5999755859375</ele>
        <time>2021-08-11T06:13:07.000Z</time>
      </trkpt>
      <trkpt lat="42.8505740873515605926513671875" lon="-0.42260541580617427825927734375">
        <ele>2038.199951171875</ele>
        <time>2021-08-11T06:13:11.000Z</time>
      </trkpt>
      <trkpt lat="42.8506171703338623046875" lon="-0.42270499281585216522216796875">
        <ele>2035</ele>
        <time>2021-08-11T06:13:21.000Z</time>
      </trkpt>
      <trkpt lat="42.8505970537662506103515625" lon="-0.4227712936699390411376953125">
        <ele>2033.5999755859375</ele>
        <time>2021-08-11T06:13:30.000Z</time>
      </trkpt>
      <trkpt lat="42.8505603410303592681884765625" lon="-0.42284027673304080963134765625">
        <ele>2032.800048828125</ele>
        <time>2021-08-11T06:13:37.000Z</time>
      </trkpt>
      <trkpt lat="42.85055355168879032135009765625" lon="-0.4229080863296985626220703125">
        <ele>2031</ele>
        <time>2021-08-11T06:13:45.000Z</time>
      </trkpt>
      <trkpt lat="42.850628234446048736572265625" lon="-0.4229282028973102569580078125">
        <ele>2028.199951171875</ele>
        <time>2021-08-11T06:13:53.000Z</time>
      </trkpt>
      <trkpt lat="42.8506475128233432769775390625" lon="-0.4229401051998138427734375">
        <ele>2027.199951171875</ele>
        <time>2021-08-11T06:13:55.000Z</time>
      </trkpt>
      <trkpt lat="42.85070191137492656707763671875" lon="-0.422976315021514892578125">
        <ele>2025.800048828125</ele>
        <time>2021-08-11T06:14:01.000Z</time>
      </trkpt>
      <trkpt lat="42.85075656138360500335693359375" lon="-0.423022247850894927978515625">
        <ele>2024.800048828125</ele>
        <time>2021-08-11T06:14:09.000Z</time>
      </trkpt>
      <trkpt lat="42.85077718086540699005126953125" lon="-0.42306222952902317047119140625">
        <ele>2023.800048828125</ele>
        <time>2021-08-11T06:14:16.000Z</time>
      </trkpt>
      <trkpt lat="42.850811295211315155029296875" lon="-0.4230820946395397186279296875">
        <ele>2023.4000244140625</ele>
        <time>2021-08-11T06:14:23.000Z</time>
      </trkpt>
      <trkpt lat="42.85085898824036121368408203125" lon="-0.4231162928044795989990234375">
        <ele>2022.5999755859375</ele>
        <time>2021-08-11T06:14:33.000Z</time>
      </trkpt>
      <trkpt lat="42.85085513256490230560302734375" lon="-0.4230820946395397186279296875">
        <ele>2023.5999755859375</ele>
        <time>2021-08-11T06:14:41.000Z</time>
      </trkpt>
      <trkpt lat="42.85091833211481571197509765625" lon="-0.42314101941883563995361328125">
        <ele>2022</ele>
        <time>2021-08-11T06:15:04.000Z</time>
      </trkpt>
      <trkpt lat="42.85105059854686260223388671875" lon="-0.42318879626691341400146484375">
        <ele>2020.199951171875</ele>
        <time>2021-08-11T06:15:12.000Z</time>
      </trkpt>
      <trkpt lat="42.8511581383645534515380859375" lon="-0.423203967511653900146484375">
        <ele>2019.199951171875</ele>
        <time>2021-08-11T06:15:22.000Z</time>
      </trkpt>
      <trkpt lat="42.85119074396789073944091796875" lon="-0.4232217371463775634765625">
        <ele>2018.5999755859375</ele>
        <time>2021-08-11T06:15:28.000Z</time>
      </trkpt>
      <trkpt lat="42.8512268699705600738525390625" lon="-0.42322617955505847930908203125">
        <ele>2018</ele>
        <time>2021-08-11T06:15:35.000Z</time>
      </trkpt>
      <trkpt lat="42.85127657465636730194091796875" lon="-0.4232621379196643829345703125">
        <ele>2015.800048828125</ele>
        <time>2021-08-11T06:15:43.000Z</time>
      </trkpt>
      <trkpt lat="42.851354777812957763671875" lon="-0.423301868140697479248046875">
        <ele>2011.5999755859375</ele>
        <time>2021-08-11T06:15:50.000Z</time>
      </trkpt>
      <trkpt lat="42.85146382637321949005126953125" lon="-0.42336112819612026214599609375">
        <ele>2006</ele>
        <time>2021-08-11T06:16:03.000Z</time>
      </trkpt>
      <trkpt lat="42.85148679278790950775146484375" lon="-0.4233768023550510406494140625">
        <ele>2004.5999755859375</ele>
        <time>2021-08-11T06:16:09.000Z</time>
      </trkpt>
      <trkpt lat="42.85152937285602092742919921875" lon="-0.42343723587691783905029296875">
        <ele>2002.4000244140625</ele>
        <time>2021-08-11T06:16:17.000Z</time>
      </trkpt>
      <trkpt lat="42.85158553160727024078369140625" lon="-0.42347881011664867401123046875">
        <ele>2000.5999755859375</ele>
        <time>2021-08-11T06:16:24.000Z</time>
      </trkpt>
      <trkpt lat="42.8516597114503383636474609375" lon="-0.4235940612852573394775390625">
        <ele>1995.5999755859375</ele>
        <time>2021-08-11T06:16:35.000Z</time>
      </trkpt>
      <trkpt lat="42.85170857794582843780517578125" lon="-0.42362800799310207366943359375">
        <ele>1994.4000244140625</ele>
        <time>2021-08-11T06:16:42.000Z</time>
      </trkpt>
      <trkpt lat="42.85171327181160449981689453125" lon="-0.42362608015537261962890625">
        <ele>1994.4000244140625</ele>
        <time>2021-08-11T06:16:47.000Z</time>
      </trkpt>
      <trkpt lat="42.8517155349254608154296875" lon="-0.423629768192768096923828125">
        <ele>1994.4000244140625</ele>
        <time>2021-08-11T06:16:54.000Z</time>
      </trkpt>
      <trkpt lat="42.85173070617020130157470703125" lon="-0.42364175431430339813232421875">
        <ele>1994</ele>
        <time>2021-08-11T06:17:01.000Z</time>
      </trkpt>
      <trkpt lat="42.851721234619617462158203125" lon="-0.4236289300024509429931640625">
        <ele>1994.4000244140625</ele>
        <time>2021-08-11T06:17:08.000Z</time>
      </trkpt>
      <trkpt lat="42.8517745435237884521484375" lon="-0.42366363108158111572265625">
        <ele>1993.4000244140625</ele>
        <time>2021-08-11T06:17:15.000Z</time>
      </trkpt>
      <trkpt lat="42.85182693041861057281494140625" lon="-0.42370545677840709686279296875">
        <ele>1992</ele>
        <time>2021-08-11T06:17:23.000Z</time>
      </trkpt>
      <trkpt lat="42.85190253518521785736083984375" lon="-0.4237278364598751068115234375">
        <ele>1991</ele>
        <time>2021-08-11T06:17:30.000Z</time>
      </trkpt>
      <trkpt lat="42.85199909470975399017333984375" lon="-0.423752479255199432373046875">
        <ele>1989</ele>
        <time>2021-08-11T06:17:40.000Z</time>
      </trkpt>
      <trkpt lat="42.85209481604397296905517578125" lon="-0.423761866986751556396484375">
        <ele>1986.4000244140625</ele>
        <time>2021-08-11T06:17:50.000Z</time>
      </trkpt>
      <trkpt lat="42.852226160466670989990234375" lon="-0.42376312427222728729248046875">
        <ele>1981.4000244140625</ele>
        <time>2021-08-11T06:18:00.000Z</time>
      </trkpt>
      <trkpt lat="42.85231961868703365325927734375" lon="-0.42376899160444736480712890625">
        <ele>1977.5999755859375</ele>
        <time>2021-08-11T06:18:08.000Z</time>
      </trkpt>
      <trkpt lat="42.85241181962192058563232421875" lon="-0.4237295128405094146728515625">
        <ele>1977.4000244140625</ele>
        <time>2021-08-11T06:18:16.000Z</time>
      </trkpt>
      <trkpt lat="42.85253704525530338287353515625" lon="-0.42369036935269832611083984375">
        <ele>1976.4000244140625</ele>
        <time>2021-08-11T06:18:27.000Z</time>
      </trkpt>
      <trkpt lat="42.8525693155825138092041015625" lon="-0.42368718422949314117431640625">
        <ele>1976</ele>
        <time>2021-08-11T06:18:31.000Z</time>
      </trkpt>
      <trkpt lat="42.85260426811873912811279296875" lon="-0.4236959852278232574462890625">
        <ele>1975</ele>
        <time>2021-08-11T06:18:34.000Z</time>
      </trkpt>
      <trkpt lat="42.8526162542402744293212890625" lon="-0.423700176179409027099609375">
        <ele>1974.5999755859375</ele>
        <time>2021-08-11T06:18:35.000Z</time>
      </trkpt>
      <trkpt lat="42.85271608270704746246337890625" lon="-0.4236755333840847015380859375">
        <ele>1973.4000244140625</ele>
        <time>2021-08-11T06:18:43.000Z</time>
      </trkpt>
      <trkpt lat="42.85279353149235248565673828125" lon="-0.42367176152765750885009765625">
        <ele>1971.800048828125</ele>
        <time>2021-08-11T06:18:51.000Z</time>
      </trkpt>
      <trkpt lat="42.8528318367898464202880859375" lon="-0.4236723482608795166015625">
        <ele>1970.800048828125</ele>
        <time>2021-08-11T06:18:56.000Z</time>
      </trkpt>
      <trkpt lat="42.85287148319184780120849609375" lon="-0.42364041320979595184326171875">
        <ele>1971.199951171875</ele>
        <time>2021-08-11T06:18:59.000Z</time>
      </trkpt>
      <trkpt lat="42.8529364429414272308349609375" lon="-0.42362733744084835052490234375">
        <ele>1969.5999755859375</ele>
        <time>2021-08-11T06:19:05.000Z</time>
      </trkpt>
      <trkpt lat="42.85294893197715282440185546875" lon="-0.42362448759377002716064453125">
        <ele>1969.199951171875</ele>
        <time>2021-08-11T06:19:07.000Z</time>
      </trkpt>
      <trkpt lat="42.85303476266562938690185546875" lon="-0.423581488430500030517578125">
        <ele>1968.199951171875</ele>
        <time>2021-08-11T06:19:15.000Z</time>
      </trkpt>
      <trkpt lat="42.85310952924191951751708984375" lon="-0.4235481284558773040771484375">
        <ele>1967.5999755859375</ele>
        <time>2021-08-11T06:19:22.000Z</time>
      </trkpt>
      <trkpt lat="42.85312813706696033477783203125" lon="-0.42355500161647796630859375">
        <ele>1966.5999755859375</ele>
        <time>2021-08-11T06:19:24.000Z</time>
      </trkpt>
      <trkpt lat="42.853136770427227020263671875" lon="-0.42355542071163654327392578125">
        <ele>1966.199951171875</ele>
        <time>2021-08-11T06:19:26.000Z</time>
      </trkpt>
      <trkpt lat="42.85315764136612415313720703125" lon="-0.4235585220158100128173828125">
        <ele>1965.4000244140625</ele>
        <time>2021-08-11T06:19:28.000Z</time>
      </trkpt>
      <trkpt lat="42.853213213384151458740234375" lon="-0.4235310293734073638916015625">
        <ele>1965.4000244140625</ele>
        <time>2021-08-11T06:19:34.000Z</time>
      </trkpt>
      <trkpt lat="42.8532170690596103668212890625" lon="-0.42353848926723003387451171875">
        <ele>1965.199951171875</ele>
        <time>2021-08-11T06:19:35.000Z</time>
      </trkpt>
      <trkpt lat="42.8532814420759677886962890625" lon="-0.4235677421092987060546875">
        <ele>1963</ele>
        <time>2021-08-11T06:19:43.000Z</time>
      </trkpt>
      <trkpt lat="42.85335746593773365020751953125" lon="-0.423577129840850830078125">
        <ele>1961.5999755859375</ele>
        <time>2021-08-11T06:19:49.000Z</time>
      </trkpt>
      <trkpt lat="42.85343877039849758148193359375" lon="-0.4235977493226528167724609375">
        <ele>1959.5999755859375</ele>
        <time>2021-08-11T06:19:57.000Z</time>
      </trkpt>
      <trkpt lat="42.8535080887377262115478515625" lon="-0.4235937260091304779052734375">
        <ele>1958.4000244140625</ele>
        <time>2021-08-11T06:20:03.000Z</time>
      </trkpt>
      <trkpt lat="42.85365837626159191131591796875" lon="-0.42360998690128326416015625">
        <ele>1955.199951171875</ele>
        <time>2021-08-11T06:20:15.000Z</time>
      </trkpt>
      <trkpt lat="42.85380874760448932647705078125" lon="-0.42359598912298679351806640625">
        <ele>1952.4000244140625</ele>
        <time>2021-08-11T06:20:28.000Z</time>
      </trkpt>
      <trkpt lat="42.85388049669563770294189453125" lon="-0.4235836677253246307373046875">
        <ele>1950.800048828125</ele>
        <time>2021-08-11T06:20:34.000Z</time>
      </trkpt>
      <trkpt lat="42.85391293466091156005859375" lon="-0.42352474294602870941162109375">
        <ele>1951</ele>
        <time>2021-08-11T06:20:39.000Z</time>
      </trkpt>
      <trkpt lat="42.85391905345022678375244140625" lon="-0.42349440045654773712158203125">
        <ele>1951.4000244140625</ele>
        <time>2021-08-11T06:20:42.000Z</time>
      </trkpt>
      <trkpt lat="42.85393464379012584686279296875" lon="-0.42347964830696582794189453125">
        <ele>1951.4000244140625</ele>
        <time>2021-08-11T06:20:48.000Z</time>
      </trkpt>
      <trkpt lat="42.85396465100347995758056640625" lon="-0.4234777204692363739013671875">
        <ele>1950.5999755859375</ele>
        <time>2021-08-11T06:20:55.000Z</time>
      </trkpt>
      <trkpt lat="42.85397839732468128204345703125" lon="-0.423484928905963897705078125">
        <ele>1950.199951171875</ele>
        <time>2021-08-11T06:21:03.000Z</time>
      </trkpt>
      <trkpt lat="42.85401209257543087005615234375" lon="-0.42352356947958469390869140625">
        <ele>1949</ele>
        <time>2021-08-11T06:21:09.000Z</time>
      </trkpt>
      <trkpt lat="42.85404847003519535064697265625" lon="-0.42351250536739826202392578125">
        <ele>1949</ele>
        <time>2021-08-11T06:21:15.000Z</time>
      </trkpt>
      <trkpt lat="42.854074873030185699462890625" lon="-0.42354150675237178802490234375">
        <ele>1947.4000244140625</ele>
        <time>2021-08-11T06:21:21.000Z</time>
      </trkpt>
      <trkpt lat="42.85413363017141819000244140625" lon="-0.42361325584352016448974609375">
        <ele>1943.199951171875</ele>
        <time>2021-08-11T06:21:28.000Z</time>
      </trkpt>
      <trkpt lat="42.85420135594904422760009765625" lon="-0.4237033613026142120361328125">
        <ele>1939</ele>
        <time>2021-08-11T06:21:36.000Z</time>
      </trkpt>
      <trkpt lat="42.85427142865955829620361328125" lon="-0.42375960387289524078369140625">
        <ele>1935</ele>
        <time>2021-08-11T06:21:46.000Z</time>
      </trkpt>
      <trkpt lat="42.8542658127844333648681640625" lon="-0.42376228608191013336181640625">
        <ele>1935</ele>
        <time>2021-08-11T06:21:52.000Z</time>
      </trkpt>
      <trkpt lat="42.85431970842182636260986328125" lon="-0.4238207079470157623291015625">
        <ele>1933</ele>
        <time>2021-08-11T06:21:58.000Z</time>
      </trkpt>
      <trkpt lat="42.85437905229628086090087890625" lon="-0.42387996800243854522705078125">
        <ele>1930.800048828125</ele>
        <time>2021-08-11T06:22:05.000Z</time>
      </trkpt>
      <trkpt lat="42.85445331595838069915771484375" lon="-0.42392313480377197265625">
        <ele>1929.199951171875</ele>
        <time>2021-08-11T06:22:12.000Z</time>
      </trkpt>
      <trkpt lat="42.85448030568659305572509765625" lon="-0.42392908595502376556396484375">
        <ele>1929</ele>
        <time>2021-08-11T06:22:14.000Z</time>
      </trkpt>
      <trkpt lat="42.85454920493066310882568359375" lon="-0.42392875067889690399169921875">
        <ele>1928.800048828125</ele>
        <time>2021-08-11T06:22:20.000Z</time>
      </trkpt>
      <trkpt lat="42.8546302579343318939208984375" lon="-0.423896647989749908447265625">
        <ele>1930.4000244140625</ele>
        <time>2021-08-11T06:22:28.000Z</time>
      </trkpt>
      <trkpt lat="42.85467191599309444427490234375" lon="-0.42392221279442310333251953125">
        <ele>1930.199951171875</ele>
        <time>2021-08-11T06:22:32.000Z</time>
      </trkpt>
      <trkpt lat="42.85467468202114105224609375" lon="-0.4239333607256412506103515625">
        <ele>1930</ele>
        <time>2021-08-11T06:22:33.000Z</time>
      </trkpt>
      <trkpt lat="42.85469320602715015411376953125" lon="-0.423973090946674346923828125">
        <ele>1929.4000244140625</ele>
        <time>2021-08-11T06:22:36.000Z</time>
      </trkpt>
      <trkpt lat="42.85471499897539615631103515625" lon="-0.42400301434099674224853515625">
        <ele>1929</ele>
        <time>2021-08-11T06:22:39.000Z</time>
      </trkpt>
      <trkpt lat="42.854725979268550872802734375" lon="-0.4240138269960880279541015625">
        <ele>1929</ele>
        <time>2021-08-11T06:22:41.000Z</time>
      </trkpt>
      <trkpt lat="42.85473863594233989715576171875" lon="-0.42402480728924274444580078125">
        <ele>1929</ele>
        <time>2021-08-11T06:22:43.000Z</time>
      </trkpt>
      <trkpt lat="42.85474970005452632904052734375" lon="-0.424030758440494537353515625">
        <ele>1929</ele>
        <time>2021-08-11T06:22:44.000Z</time>
      </trkpt>
      <trkpt lat="42.85482446663081645965576171875" lon="-0.42405162937939167022705078125">
        <ele>1929.800048828125</ele>
        <time>2021-08-11T06:22:50.000Z</time>
      </trkpt>
      <trkpt lat="42.8549021668732166290283203125" lon="-0.42407945729792118072509765625">
        <ele>1930</ele>
        <time>2021-08-11T06:22:57.000Z</time>
      </trkpt>
      <trkpt lat="42.8549132309854030609130859375" lon="-0.42408281005918979644775390625">
        <ele>1930</ele>
        <time>2021-08-11T06:22:58.000Z</time>
      </trkpt>
      <trkpt lat="42.8549367003142833709716796875" lon="-0.4240859113633632659912109375">
        <ele>1930</ele>
        <time>2021-08-11T06:23:00.000Z</time>
      </trkpt>
      <trkpt lat="42.85495488904416561126708984375" lon="-0.424089767038822174072265625">
        <ele>1929.800048828125</ele>
        <time>2021-08-11T06:23:02.000Z</time>
      </trkpt>
      <trkpt lat="42.85497047938406467437744140625" lon="-0.42409638874232769012451171875">
        <ele>1929.800048828125</ele>
        <time>2021-08-11T06:23:04.000Z</time>
      </trkpt>
      <trkpt lat="42.85498690791428089141845703125" lon="-0.42411197908222675323486328125">
        <ele>1929.4000244140625</ele>
        <time>2021-08-11T06:23:06.000Z</time>
      </trkpt>
      <trkpt lat="42.85499730147421360015869140625" lon="-0.42413125745952129364013671875">
        <ele>1929</ele>
        <time>2021-08-11T06:23:08.000Z</time>
      </trkpt>
      <trkpt lat="42.855002582073211669921875" lon="-0.424134694039821624755859375">
        <ele>1929</ele>
        <time>2021-08-11T06:23:09.000Z</time>
      </trkpt>
      <trkpt lat="42.85506670363247394561767578125" lon="-0.4242039285600185394287109375">
        <ele>1927.4000244140625</ele>
        <time>2021-08-11T06:23:17.000Z</time>
      </trkpt>
      <trkpt lat="42.855076007544994354248046875" lon="-0.4242297448217868804931640625">
        <ele>1926.5999755859375</ele>
        <time>2021-08-11T06:23:19.000Z</time>
      </trkpt>
      <trkpt lat="42.8551009856164455413818359375" lon="-0.4242597520351409912109375">
        <ele>1925.800048828125</ele>
        <time>2021-08-11T06:23:23.000Z</time>
      </trkpt>
      <trkpt lat="42.85513845272362232208251953125" lon="-0.42430576868355274200439453125">
        <ele>1925</ele>
        <time>2021-08-11T06:23:29.000Z</time>
      </trkpt>
      <trkpt lat="42.855154462158679962158203125" lon="-0.42432689107954502105712890625">
        <ele>1924.5999755859375</ele>
        <time>2021-08-11T06:23:31.000Z</time>
      </trkpt>
      <trkpt lat="42.85521925427019596099853515625" lon="-0.42434616945683956146240234375">
        <ele>1924.199951171875</ele>
        <time>2021-08-11T06:23:37.000Z</time>
      </trkpt>
      <trkpt lat="42.8553165681660175323486328125" lon="-0.42441599071025848388671875">
        <ele>1920.5999755859375</ele>
        <time>2021-08-11T06:23:45.000Z</time>
      </trkpt>
      <trkpt lat="42.85542930476367473602294921875" lon="-0.4244929365813732147216796875">
        <ele>1916.800048828125</ele>
        <time>2021-08-11T06:23:54.000Z</time>
      </trkpt>
      <trkpt lat="42.85554329864680767059326171875" lon="-0.42458438314497470855712890625">
        <ele>1912.800048828125</ele>
        <time>2021-08-11T06:24:06.000Z</time>
      </trkpt>
      <trkpt lat="42.85565779544413089752197265625" lon="-0.42465931735932826995849609375">
        <ele>1908.4000244140625</ele>
        <time>2021-08-11T06:24:15.000Z</time>
      </trkpt>
      <trkpt lat="42.85573356784880161285400390625" lon="-0.424701981246471405029296875">
        <ele>1907.199951171875</ele>
        <time>2021-08-11T06:24:23.000Z</time>
      </trkpt>
      <trkpt lat="42.8557390160858631134033203125" lon="-0.424709022045135498046875">
        <ele>1907</ele>
        <time>2021-08-11T06:24:24.000Z</time>
      </trkpt>
      <trkpt lat="42.8557665087282657623291015625" lon="-0.4247293062508106231689453125">
        <ele>1907</ele>
        <time>2021-08-11T06:24:27.000Z</time>
      </trkpt>
      <trkpt lat="42.85579274408519268035888671875" lon="-0.42474732734262943267822265625">
        <ele>1907</ele>
        <time>2021-08-11T06:24:29.000Z</time>
      </trkpt>
      <trkpt lat="42.85580716095864772796630859375" lon="-0.42475788854062557220458984375">
        <ele>1907</ele>
        <time>2021-08-11T06:24:30.000Z</time>
      </trkpt>
      <trkpt lat="42.855935990810394287109375" lon="-0.42489501647651195526123046875">
        <ele>1904.4000244140625</ele>
        <time>2021-08-11T06:24:41.000Z</time>
      </trkpt>
      <trkpt lat="42.85604126751422882080078125" lon="-0.424962155520915985107421875">
        <ele>1903.800048828125</ele>
        <time>2021-08-11T06:24:49.000Z</time>
      </trkpt>
      <trkpt lat="42.8561336360871791839599609375" lon="-0.4250199906527996063232421875">
        <ele>1903.800048828125</ele>
        <time>2021-08-11T06:24:56.000Z</time>
      </trkpt>
      <trkpt lat="42.85625944845378398895263671875" lon="-0.42515083216130733489990234375">
        <ele>1904.4000244140625</ele>
        <time>2021-08-11T06:25:07.000Z</time>
      </trkpt>
      <trkpt lat="42.856313847005367279052734375" lon="-0.4252261854708194732666015625">
        <ele>1903.4000244140625</ele>
        <time>2021-08-11T06:25:16.000Z</time>
      </trkpt>
      <trkpt lat="42.85638752393424510955810546875" lon="-0.4252791590988636016845703125">
        <ele>1902.4000244140625</ele>
        <time>2021-08-11T06:25:23.000Z</time>
      </trkpt>
      <trkpt lat="42.85646849311888217926025390625" lon="-0.42535032145678997039794921875">
        <ele>1902</ele>
        <time>2021-08-11T06:25:31.000Z</time>
      </trkpt>
      <trkpt lat="42.8565057925879955291748046875" lon="-0.4253755509853363037109375">
        <ele>1902.199951171875</ele>
        <time>2021-08-11T06:25:38.000Z</time>
      </trkpt>
      <trkpt lat="42.856527753174304962158203125" lon="-0.42541067115962505340576171875">
        <ele>1902.4000244140625</ele>
        <time>2021-08-11T06:25:46.000Z</time>
      </trkpt>
      <trkpt lat="42.85653370432555675506591796875" lon="-0.4253995232284069061279296875">
        <ele>1902.800048828125</ele>
        <time>2021-08-11T06:25:54.000Z</time>
      </trkpt>
      <trkpt lat="42.8565316088497638702392578125" lon="-0.42540765367448329925537109375">
        <ele>1902.5999755859375</ele>
        <time>2021-08-11T06:26:01.000Z</time>
      </trkpt>
      <trkpt lat="42.8565443493425846099853515625" lon="-0.42541704140603542327880859375">
        <ele>1902.800048828125</ele>
        <time>2021-08-11T06:26:12.000Z</time>
      </trkpt>
      <trkpt lat="42.856651805341243743896484375" lon="-0.4254779778420925140380859375">
        <ele>1903</ele>
        <time>2021-08-11T06:26:19.000Z</time>
      </trkpt>
      <trkpt lat="42.85675414837896823883056640625" lon="-0.42557847686111927032470703125">
        <ele>1901.4000244140625</ele>
        <time>2021-08-11T06:26:30.000Z</time>
      </trkpt>
      <trkpt lat="42.8568756021559238433837890625" lon="-0.42565944604575634002685546875">
        <ele>1901.4000244140625</ele>
        <time>2021-08-11T06:26:41.000Z</time>
      </trkpt>
      <trkpt lat="42.8569942899048328399658203125" lon="-0.4257264174520969390869140625">
        <ele>1901.199951171875</ele>
        <time>2021-08-11T06:26:51.000Z</time>
      </trkpt>
      <trkpt lat="42.85711071453988552093505859375" lon="-0.42579841800034046173095703125">
        <ele>1900.4000244140625</ele>
        <time>2021-08-11T06:27:00.000Z</time>
      </trkpt>
      <trkpt lat="42.8571403026580810546875" lon="-0.42585365474224090576171875">
        <ele>1900</ele>
        <time>2021-08-11T06:27:05.000Z</time>
      </trkpt>
      <trkpt lat="42.8571619279682636260986328125" lon="-0.42587083764374256134033203125">
        <ele>1900</ele>
        <time>2021-08-11T06:27:07.000Z</time>
      </trkpt>
      <trkpt lat="42.857286818325519561767578125" lon="-0.42592951096594333648681640625">
        <ele>1899.800048828125</ele>
        <time>2021-08-11T06:27:18.000Z</time>
      </trkpt>
      <trkpt lat="42.85734708420932292938232421875" lon="-0.4259356297552585601806640625">
        <ele>1899.800048828125</ele>
        <time>2021-08-11T06:27:23.000Z</time>
      </trkpt>
      <trkpt lat="42.8573788516223430633544921875" lon="-0.42593789286911487579345703125">
        <ele>1899.800048828125</ele>
        <time>2021-08-11T06:27:26.000Z</time>
      </trkpt>
      <trkpt lat="42.857505418360233306884765625" lon="-0.42596203275024890899658203125">
        <ele>1900</ele>
        <time>2021-08-11T06:27:36.000Z</time>
      </trkpt>
      <trkpt lat="42.85760558210313320159912109375" lon="-0.4259872622787952423095703125">
        <ele>1900.199951171875</ele>
        <time>2021-08-11T06:27:45.000Z</time>
      </trkpt>
      <trkpt lat="42.85771823488175868988037109375" lon="-0.42604652233421802520751953125">
        <ele>1901</ele>
        <time>2021-08-11T06:27:56.000Z</time>
      </trkpt>
      <trkpt lat="42.85778612829744815826416015625" lon="-0.4260854981839656829833984375">
        <ele>1901.800048828125</ele>
        <time>2021-08-11T06:28:04.000Z</time>
      </trkpt>
      <trkpt lat="42.8578160516917705535888671875" lon="-0.42608491145074367523193359375">
        <ele>1902.199951171875</ele>
        <time>2021-08-11T06:28:07.000Z</time>
      </trkpt>
      <trkpt lat="42.8578363358974456787109375" lon="-0.4260935448110103607177734375">
        <ele>1902.4000244140625</ele>
        <time>2021-08-11T06:28:09.000Z</time>
      </trkpt>
      <trkpt lat="42.85784128122031688690185546875" lon="-0.42611592449247837066650390625">
        <ele>1902.4000244140625</ele>
        <time>2021-08-11T06:28:11.000Z</time>
      </trkpt>
      <trkpt lat="42.85787899978458881378173828125" lon="-0.42619521729648113250732421875">
        <ele>1901.800048828125</ele>
        <time>2021-08-11T06:28:17.000Z</time>
      </trkpt>
      <trkpt lat="42.85795594565570354461669921875" lon="-0.426311977207660675048828125">
        <ele>1901.199951171875</ele>
        <time>2021-08-11T06:28:27.000Z</time>
      </trkpt>
      <trkpt lat="42.858031131327152252197265625" lon="-0.4263909347355365753173828125">
        <ele>1900.800048828125</ele>
        <time>2021-08-11T06:28:34.000Z</time>
      </trkpt>
      <trkpt lat="42.85814168862998485565185546875" lon="-0.42649512179195880889892578125">
        <ele>1900.199951171875</ele>
        <time>2021-08-11T06:28:43.000Z</time>
      </trkpt>
      <trkpt lat="42.85826305858790874481201171875" lon="-0.42667650617659091949462890625">
        <ele>1898</ele>
        <time>2021-08-11T06:28:56.000Z</time>
      </trkpt>
      <trkpt lat="42.85836447961628437042236328125" lon="-0.4267815314233303070068359375">
        <ele>1896.4000244140625</ele>
        <time>2021-08-11T06:29:05.000Z</time>
      </trkpt>
      <trkpt lat="42.85848517902195453643798828125" lon="-0.4268918372690677642822265625">
        <ele>1893.4000244140625</ele>
        <time>2021-08-11T06:29:15.000Z</time>
      </trkpt>
      <trkpt lat="42.85857972688972949981689453125" lon="-0.4269810207188129425048828125">
        <ele>1892.5999755859375</ele>
        <time>2021-08-11T06:29:23.000Z</time>
      </trkpt>
      <trkpt lat="42.85866715013980865478515625" lon="-0.4271054081618785858154296875">
        <ele>1891.199951171875</ele>
        <time>2021-08-11T06:29:32.000Z</time>
      </trkpt>
      <trkpt lat="42.85868500359356403350830078125" lon="-0.42713399045169353485107421875">
        <ele>1890.800048828125</ele>
        <time>2021-08-11T06:29:37.000Z</time>
      </trkpt>
      <trkpt lat="42.85868634469807147979736328125" lon="-0.4271345771849155426025390625">
        <ele>1890.800048828125</ele>
        <time>2021-08-11T06:29:38.000Z</time>
      </trkpt>
      <trkpt lat="42.8587052039802074432373046875" lon="-0.4271520115435123443603515625">
        <ele>1890.5999755859375</ele>
        <time>2021-08-11T06:29:41.000Z</time>
      </trkpt>
      <trkpt lat="42.85872406326234340667724609375" lon="-0.4271838627755641937255859375">
        <ele>1890</ele>
        <time>2021-08-11T06:29:45.000Z</time>
      </trkpt>
      <trkpt lat="42.85876982845366001129150390625" lon="-0.42728126049041748046875">
        <ele>1889.5999755859375</ele>
        <time>2021-08-11T06:29:53.000Z</time>
      </trkpt>
      <trkpt lat="42.85887309350073337554931640625" lon="-0.42737505398690700531005859375">
        <ele>1888.5999755859375</ele>
        <time>2021-08-11T06:30:03.000Z</time>
      </trkpt>
      <trkpt lat="42.85897233523428440093994140625" lon="-0.4275124333798885345458984375">
        <ele>1887.199951171875</ele>
        <time>2021-08-11T06:30:13.000Z</time>
      </trkpt>
      <trkpt lat="42.85905984230339527130126953125" lon="-0.4276099987328052520751953125">
        <ele>1885.199951171875</ele>
        <time>2021-08-11T06:30:22.000Z</time>
      </trkpt>
      <trkpt lat="42.85916813649237155914306640625" lon="-0.427761375904083251953125">
        <ele>1882.800048828125</ele>
        <time>2021-08-11T06:30:34.000Z</time>
      </trkpt>
      <trkpt lat="42.85925983451306819915771484375" lon="-0.4278866015374660491943359375">
        <ele>1881.199951171875</ele>
        <time>2021-08-11T06:30:44.000Z</time>
      </trkpt>
      <trkpt lat="42.85928263328969478607177734375" lon="-0.42790160514414310455322265625">
        <ele>1880.5999755859375</ele>
        <time>2021-08-11T06:30:46.000Z</time>
      </trkpt>
      <trkpt lat="42.85932353697717189788818359375" lon="-0.4279140941798686981201171875">
        <ele>1879.5999755859375</ele>
        <time>2021-08-11T06:30:50.000Z</time>
      </trkpt>
      <trkpt lat="42.85936997272074222564697265625" lon="-0.42793639004230499267578125">
        <ele>1878.4000244140625</ele>
        <time>2021-08-11T06:30:55.000Z</time>
      </trkpt>
      <trkpt lat="42.85941825248301029205322265625" lon="-0.4279446043074131011962890625">
        <ele>1877.4000244140625</ele>
        <time>2021-08-11T06:31:02.000Z</time>
      </trkpt>
      <trkpt lat="42.85946552641689777374267578125" lon="-0.4279479570686817169189453125">
        <ele>1876.4000244140625</ele>
        <time>2021-08-11T06:31:07.000Z</time>
      </trkpt>
      <trkpt lat="42.85949938930571079254150390625" lon="-0.4279451072216033935546875">
        <ele>1875.5999755859375</ele>
        <time>2021-08-11T06:31:12.000Z</time>
      </trkpt>
      <trkpt lat="42.85952101461589336395263671875" lon="-0.42795139364898204803466796875">
        <ele>1875.199951171875</ele>
        <time>2021-08-11T06:31:18.000Z</time>
      </trkpt>
      <trkpt lat="42.8595279715955257415771484375" lon="-0.42794837616384029388427734375">
        <ele>1875</ele>
        <time>2021-08-11T06:31:25.000Z</time>
      </trkpt>
      <trkpt lat="42.859529815614223480224609375" lon="-0.42794577777385711669921875">
        <ele>1875</ele>
        <time>2021-08-11T06:31:42.000Z</time>
      </trkpt>
      <trkpt lat="42.8596235252916812896728515625" lon="-0.427904538810253143310546875">
        <ele>1872.800048828125</ele>
        <time>2021-08-11T06:31:53.000Z</time>
      </trkpt>
      <trkpt lat="42.85969099961221218109130859375" lon="-0.4278923012316226959228515625">
        <ele>1871.199951171875</ele>
        <time>2021-08-11T06:31:59.000Z</time>
      </trkpt>
      <trkpt lat="42.85972335375845432281494140625" lon="-0.42783714830875396728515625">
        <ele>1870.4000244140625</ele>
        <time>2021-08-11T06:32:07.000Z</time>
      </trkpt>
      <trkpt lat="42.85973978228867053985595703125" lon="-0.42777034454047679901123046875">
        <ele>1869.800048828125</ele>
        <time>2021-08-11T06:32:15.000Z</time>
      </trkpt>
      <trkpt lat="42.85976308397948741912841796875" lon="-0.42772726155817508697509765625">
        <ele>1869</ele>
        <time>2021-08-11T06:32:18.000Z</time>
      </trkpt>
      <trkpt lat="42.8597854636609554290771484375" lon="-0.42765970341861248016357421875">
        <ele>1867.800048828125</ele>
        <time>2021-08-11T06:32:21.000Z</time>
      </trkpt>
      <trkpt lat="42.85982175730168819427490234375" lon="-0.42758761905133724212646484375">
        <ele>1866.199951171875</ele>
        <time>2021-08-11T06:32:26.000Z</time>
      </trkpt>
      <trkpt lat="42.85982930101454257965087890625" lon="-0.42757856659591197967529296875">
        <ele>1865.800048828125</ele>
        <time>2021-08-11T06:32:27.000Z</time>
      </trkpt>
      <trkpt lat="42.85985402762889862060546875" lon="-0.427564568817615509033203125">
        <ele>1865</ele>
        <time>2021-08-11T06:32:33.000Z</time>
      </trkpt>
      <trkpt lat="42.8598662652075290679931640625" lon="-0.4275452904403209686279296875">
        <ele>1864.4000244140625</ele>
        <time>2021-08-11T06:32:42.000Z</time>
      </trkpt>
      <trkpt lat="42.85990054719150066375732421875" lon="-0.42752793990075588226318359375">
        <ele>1863.199951171875</ele>
        <time>2021-08-11T06:32:49.000Z</time>
      </trkpt>
      <trkpt lat="42.859965674579143524169921875" lon="-0.42751100845634937286376953125">
        <ele>1861.199951171875</ele>
        <time>2021-08-11T06:32:58.000Z</time>
      </trkpt>
      <trkpt lat="42.860024683177471160888671875" lon="-0.42761226184666156768798828125">
        <ele>1860</ele>
        <time>2021-08-11T06:33:09.000Z</time>
      </trkpt>
      <trkpt lat="42.8600825183093547821044921875" lon="-0.42767780832946300506591796875">
        <ele>1857.5999755859375</ele>
        <time>2021-08-11T06:33:17.000Z</time>
      </trkpt>
      <trkpt lat="42.86015183664858341217041015625" lon="-0.427738241851329803466796875">
        <ele>1855.5999755859375</ele>
        <time>2021-08-11T06:33:26.000Z</time>
      </trkpt>
      <trkpt lat="42.8601656667888164520263671875" lon="-0.42777604423463344573974609375">
        <ele>1855.5999755859375</ele>
        <time>2021-08-11T06:33:34.000Z</time>
      </trkpt>
      <trkpt lat="42.86013624630868434906005859375" lon="-0.42785324156284332275390625">
        <ele>1855.800048828125</ele>
        <time>2021-08-11T06:33:44.000Z</time>
      </trkpt>
      <trkpt lat="42.8600841946899890899658203125" lon="-0.42787469923496246337890625">
        <ele>1857</ele>
        <time>2021-08-11T06:33:52.000Z</time>
      </trkpt>
      <trkpt lat="42.86008561961352825164794921875" lon="-0.42792825959622859954833984375">
        <ele>1856.800048828125</ele>
        <time>2021-08-11T06:33:58.000Z</time>
      </trkpt>
      <trkpt lat="42.86012786440551280975341796875" lon="-0.42796916328370571136474609375">
        <ele>1855.5999755859375</ele>
        <time>2021-08-11T06:34:06.000Z</time>
      </trkpt>
      <trkpt lat="42.86016139201819896697998046875" lon="-0.42800302617251873016357421875">
        <ele>1854.4000244140625</ele>
        <time>2021-08-11T06:34:13.000Z</time>
      </trkpt>
      <trkpt lat="42.86016943864524364471435546875" lon="-0.427995063364505767822265625">
        <ele>1854.4000244140625</ele>
        <time>2021-08-11T06:34:19.000Z</time>
      </trkpt>
      <trkpt lat="42.86018662154674530029296875" lon="-0.42802196927368640899658203125">
        <ele>1853.4000244140625</ele>
        <time>2021-08-11T06:34:25.000Z</time>
      </trkpt>
      <trkpt lat="42.8602025471627712249755859375" lon="-0.42805851437151432037353515625">
        <ele>1852.5999755859375</ele>
        <time>2021-08-11T06:34:32.000Z</time>
      </trkpt>
      <trkpt lat="42.860205732285976409912109375" lon="-0.42808902449905872344970703125">
        <ele>1852.4000244140625</ele>
        <time>2021-08-11T06:34:36.000Z</time>
      </trkpt>
      <trkpt lat="42.86021185107529163360595703125" lon="-0.42816328816115856170654296875">
        <ele>1852</ele>
        <time>2021-08-11T06:34:44.000Z</time>
      </trkpt>
      <trkpt lat="42.86019332706928253173828125" lon="-0.428174100816249847412109375">
        <ele>1852.4000244140625</ele>
        <time>2021-08-11T06:34:50.000Z</time>
      </trkpt>
      <trkpt lat="42.86019106395542621612548828125" lon="-0.428225733339786529541015625">
        <ele>1852.4000244140625</ele>
        <time>2021-08-11T06:34:55.000Z</time>
      </trkpt>
      <trkpt lat="42.86024018190801143646240234375" lon="-0.42827761732041835784912109375">
        <ele>1852</ele>
        <time>2021-08-11T06:35:01.000Z</time>
      </trkpt>
      <trkpt lat="42.8602474741637706756591796875" lon="-0.42829304002225399017333984375">
        <ele>1852.199951171875</ele>
        <time>2021-08-11T06:35:03.000Z</time>
      </trkpt>
      <trkpt lat="42.86028661765158176422119140625" lon="-0.428337715566158294677734375">
        <ele>1852</ele>
        <time>2021-08-11T06:35:08.000Z</time>
      </trkpt>
      <trkpt lat="42.8602897189557552337646484375" lon="-0.42834517545998096466064453125">
        <ele>1852</ele>
        <time>2021-08-11T06:35:09.000Z</time>
      </trkpt>
      <trkpt lat="42.86029684357345104217529296875" lon="-0.4283509589731693267822265625">
        <ele>1852</ele>
        <time>2021-08-11T06:35:10.000Z</time>
      </trkpt>
      <trkpt lat="42.86033640615642070770263671875" lon="-0.4283750988543033599853515625">
        <ele>1851.800048828125</ele>
        <time>2021-08-11T06:35:14.000Z</time>
      </trkpt>
      <trkpt lat="42.8603550978004932403564453125" lon="-0.4283620230853557586669921875">
        <ele>1851.199951171875</ele>
        <time>2021-08-11T06:35:19.000Z</time>
      </trkpt>
      <trkpt lat="42.860350571572780609130859375" lon="-0.428367219865322113037109375">
        <ele>1851.4000244140625</ele>
        <time>2021-08-11T06:35:23.000Z</time>
      </trkpt>
      <trkpt lat="42.8603819198906421661376953125" lon="-0.42840854264795780181884765625">
        <ele>1851.5999755859375</ele>
        <time>2021-08-11T06:35:29.000Z</time>
      </trkpt>
      <trkpt lat="42.86045559681951999664306640625" lon="-0.42848649434745311737060546875">
        <ele>1850.800048828125</ele>
        <time>2021-08-11T06:35:37.000Z</time>
      </trkpt>
      <trkpt lat="42.86051091738045215606689453125" lon="-0.42854701168835163116455078125">
        <ele>1850.4000244140625</ele>
        <time>2021-08-11T06:35:45.000Z</time>
      </trkpt>
      <trkpt lat="42.8605213947594165802001953125" lon="-0.42854667641222476959228515625">
        <ele>1850</ele>
        <time>2021-08-11T06:35:49.000Z</time>
      </trkpt>
      <trkpt lat="42.8605529107153415679931640625" lon="-0.42856377549469470977783203125">
        <ele>1849.4000244140625</ele>
        <time>2021-08-11T06:35:54.000Z</time>
      </trkpt>
      <trkpt lat="42.86064888350665569305419921875" lon="-0.42856243439018726348876953125">
        <ele>1846.5999755859375</ele>
        <time>2021-08-11T06:36:02.000Z</time>
      </trkpt>
      <trkpt lat="42.8607282601296901702880859375" lon="-0.42857282795011997222900390625">
        <ele>1842.4000244140625</ele>
        <time>2021-08-11T06:36:11.000Z</time>
      </trkpt>
      <trkpt lat="42.8608028590679168701171875" lon="-0.42859881184995174407958984375">
        <ele>1838.5999755859375</ele>
        <time>2021-08-11T06:36:18.000Z</time>
      </trkpt>
      <trkpt lat="42.860821299254894256591796875" lon="-0.4286030866205692291259765625">
        <ele>1837.5999755859375</ele>
        <time>2021-08-11T06:36:20.000Z</time>
      </trkpt>
      <trkpt lat="42.86084300838410854339599609375" lon="-0.42864239774644374847412109375">
        <ele>1836.5999755859375</ele>
        <time>2021-08-11T06:36:25.000Z</time>
      </trkpt>
      <trkpt lat="42.8608811460435390472412109375" lon="-0.428690426051616668701171875">
        <ele>1835</ele>
        <time>2021-08-11T06:36:32.000Z</time>
      </trkpt>
      <trkpt lat="42.8609170205891132354736328125" lon="-0.4287338443100452423095703125">
        <ele>1833.800048828125</ele>
        <time>2021-08-11T06:36:38.000Z</time>
      </trkpt>
      <trkpt lat="42.860934622585773468017578125" lon="-0.42877684347331523895263671875">
        <ele>1833.5999755859375</ele>
        <time>2021-08-11T06:36:43.000Z</time>
      </trkpt>
      <trkpt lat="42.860976196825504302978515625" lon="-0.42885982431471347808837890625">
        <ele>1831.5999755859375</ele>
        <time>2021-08-11T06:36:50.000Z</time>
      </trkpt>
      <trkpt lat="42.86100871860980987548828125" lon="-0.428914725780487060546875">
        <ele>1830.5999755859375</ele>
        <time>2021-08-11T06:36:56.000Z</time>
      </trkpt>
      <trkpt lat="42.8610496222972869873046875" lon="-0.42896526865661144256591796875">
        <ele>1828.800048828125</ele>
        <time>2021-08-11T06:37:02.000Z</time>
      </trkpt>
      <trkpt lat="42.861060686409473419189453125" lon="-0.4289715550839900970458984375">
        <ele>1828</ele>
        <time>2021-08-11T06:37:03.000Z</time>
      </trkpt>
      <trkpt lat="42.8611327707767486572265625" lon="-0.42903332971036434173583984375">
        <ele>1825.199951171875</ele>
        <time>2021-08-11T06:37:11.000Z</time>
      </trkpt>
      <trkpt lat="42.86117979325354099273681640625" lon="-0.429058559238910675048828125">
        <ele>1823</ele>
        <time>2021-08-11T06:37:19.000Z</time>
      </trkpt>
      <trkpt lat="42.86121902056038379669189453125" lon="-0.42907238937914371490478515625">
        <ele>1821.199951171875</ele>
        <time>2021-08-11T06:37:26.000Z</time>
      </trkpt>
      <trkpt lat="42.86122656427323818206787109375" lon="-0.4290620796382427215576171875">
        <ele>1820.4000244140625</ele>
        <time>2021-08-11T06:37:31.000Z</time>
      </trkpt>
      <trkpt lat="42.861224301159381866455078125" lon="-0.42905461974442005157470703125">
        <ele>1820.4000244140625</ele>
        <time>2021-08-11T06:37:32.000Z</time>
      </trkpt>
      <trkpt lat="42.86117677576839923858642578125" lon="-0.42898806743323802947998046875">
        <ele>1821</ele>
        <time>2021-08-11T06:37:39.000Z</time>
      </trkpt>
      <trkpt lat="42.8611912764608860015869140625" lon="-0.4289588145911693572998046875">
        <ele>1819.199951171875</ele>
        <time>2021-08-11T06:37:44.000Z</time>
      </trkpt>
      <trkpt lat="42.86124198697507381439208984375" lon="-0.42897172272205352783203125">
        <ele>1816.5999755859375</ele>
        <time>2021-08-11T06:37:52.000Z</time>
      </trkpt>
      <trkpt lat="42.86122865974903106689453125" lon="-0.42895085178315639495849609375">
        <ele>1816.800048828125</ele>
        <time>2021-08-11T06:37:57.000Z</time>
      </trkpt>
      <trkpt lat="42.8613991476595401763916015625" lon="-0.42902695946395397186279296875">
        <ele>1810.199951171875</ele>
        <time>2021-08-11T06:38:56.000Z</time>
      </trkpt>
      <trkpt lat="42.861456982791423797607421875" lon="-0.42906635440886020660400390625">
        <ele>1808.800048828125</ele>
        <time>2021-08-11T06:39:00.000Z</time>
      </trkpt>
      <trkpt lat="42.86145932972431182861328125" lon="-0.4290650971233844757080078125">
        <ele>1808.5999755859375</ele>
        <time>2021-08-11T06:39:07.000Z</time>
      </trkpt>
      <trkpt lat="42.86147936247289180755615234375" lon="-0.4291011393070220947265625">
        <ele>1808.800048828125</ele>
        <time>2021-08-11T06:39:16.000Z</time>
      </trkpt>
      <trkpt lat="42.86150450818240642547607421875" lon="-0.42911614291369915008544921875">
        <ele>1808</ele>
        <time>2021-08-11T06:39:25.000Z</time>
      </trkpt>
      <trkpt lat="42.86151833832263946533203125" lon="-0.4291096888482570648193359375">
        <ele>1806.800048828125</ele>
        <time>2021-08-11T06:39:33.000Z</time>
      </trkpt>
      <trkpt lat="42.86156184040009975433349609375" lon="-0.4291489161550998687744140625">
        <ele>1804.4000244140625</ele>
        <time>2021-08-11T06:39:40.000Z</time>
      </trkpt>
      <trkpt lat="42.86164415068924427032470703125" lon="-0.42923332192003726959228515625">
        <ele>1800</ele>
        <time>2021-08-11T06:39:50.000Z</time>
      </trkpt>
      <trkpt lat="42.86172076128423213958740234375" lon="-0.4292766563594341278076171875">
        <ele>1794.4000244140625</ele>
        <time>2021-08-11T06:39:57.000Z</time>
      </trkpt>
      <trkpt lat="42.86177775822579860687255859375" lon="-0.42931311763823032379150390625">
        <ele>1790.5999755859375</ele>
        <time>2021-08-11T06:40:03.000Z</time>
      </trkpt>
      <trkpt lat="42.8618008084595203399658203125" lon="-0.42932786978781223297119140625">
        <ele>1789.800048828125</ele>
        <time>2021-08-11T06:40:05.000Z</time>
      </trkpt>
      <trkpt lat="42.8618906624615192413330078125" lon="-0.42938604019582271575927734375">
        <ele>1785.800048828125</ele>
        <time>2021-08-11T06:40:14.000Z</time>
      </trkpt>
      <trkpt lat="42.8619459830224514007568359375" lon="-0.42939282953739166259765625">
        <ele>1782.5999755859375</ele>
        <time>2021-08-11T06:40:21.000Z</time>
      </trkpt>
      <trkpt lat="42.861949503421783447265625" lon="-0.42941286228597164154052734375">
        <ele>1782.4000244140625</ele>
        <time>2021-08-11T06:40:26.000Z</time>
      </trkpt>
      <trkpt lat="42.8619738109409809112548828125" lon="-0.429411269724369049072265625">
        <ele>1781</ele>
        <time>2021-08-11T06:40:32.000Z</time>
      </trkpt>
      <trkpt lat="42.86199820227921009063720703125" lon="-0.42942501604557037353515625">
        <ele>1779.5999755859375</ele>
        <time>2021-08-11T06:40:39.000Z</time>
      </trkpt>
      <trkpt lat="42.86204262636601924896240234375" lon="-0.429444126784801483154296875">
        <ele>1777.4000244140625</ele>
        <time>2021-08-11T06:40:46.000Z</time>
      </trkpt>
      <trkpt lat="42.8620849549770355224609375" lon="-0.42947086505591869354248046875">
        <ele>1777.4000244140625</ele>
        <time>2021-08-11T06:40:55.000Z</time>
      </trkpt>
      <trkpt lat="42.86215393804013729095458984375" lon="-0.42950548231601715087890625">
        <ele>1777.199951171875</ele>
        <time>2021-08-11T06:41:04.000Z</time>
      </trkpt>
      <trkpt lat="42.8622219152748584747314453125" lon="-0.429540015757083892822265625">
        <ele>1777.199951171875</ele>
        <time>2021-08-11T06:41:11.000Z</time>
      </trkpt>
      <trkpt lat="42.86228586919605731964111328125" lon="-0.429570861160755157470703125">
        <ele>1777</ele>
        <time>2021-08-11T06:41:20.000Z</time>
      </trkpt>
      <trkpt lat="42.862340100109577178955078125" lon="-0.42959223501384258270263671875">
        <ele>1776.800048828125</ele>
        <time>2021-08-11T06:41:27.000Z</time>
      </trkpt>
      <trkpt lat="42.86246004514396190643310546875" lon="-0.4295988567173480987548828125">
        <ele>1775.5999755859375</ele>
        <time>2021-08-11T06:41:37.000Z</time>
      </trkpt>
      <trkpt lat="42.86246608011424541473388671875" lon="-0.42960329912602901458740234375">
        <ele>1775.800048828125</ele>
        <time>2021-08-11T06:41:38.000Z</time>
      </trkpt>
      <trkpt lat="42.8624817542731761932373046875" lon="-0.4296080768108367919921875">
        <ele>1776</ele>
        <time>2021-08-11T06:41:40.000Z</time>
      </trkpt>
      <trkpt lat="42.86250296048820018768310546875" lon="-0.4296022094786167144775390625">
        <ele>1775.800048828125</ele>
        <time>2021-08-11T06:41:42.000Z</time>
      </trkpt>
      <trkpt lat="42.86255023442208766937255859375" lon="-0.42958888225257396697998046875">
        <ele>1775.4000244140625</ele>
        <time>2021-08-11T06:41:50.000Z</time>
      </trkpt>
      <trkpt lat="42.862596921622753143310546875" lon="-0.429580248892307281494140625">
        <ele>1775</ele>
        <time>2021-08-11T06:41:57.000Z</time>
      </trkpt>
      <trkpt lat="42.86264142952859401702880859375" lon="-0.42958100326359272003173828125">
        <ele>1774.4000244140625</ele>
        <time>2021-08-11T06:42:03.000Z</time>
      </trkpt>
      <trkpt lat="42.86270982585847377777099609375" lon="-0.429616458714008331298828125">
        <ele>1774.199951171875</ele>
        <time>2021-08-11T06:42:09.000Z</time>
      </trkpt>
      <trkpt lat="42.86280521191656589508056640625" lon="-0.429660044610500335693359375">
        <ele>1773.4000244140625</ele>
        <time>2021-08-11T06:42:18.000Z</time>
      </trkpt>
      <trkpt lat="42.8628160245716571807861328125" lon="-0.42966331355273723602294921875">
        <ele>1773.199951171875</ele>
        <time>2021-08-11T06:42:19.000Z</time>
      </trkpt>
      <trkpt lat="42.86291048862040042877197265625" lon="-0.42967379093170166015625">
        <ele>1771.5999755859375</ele>
        <time>2021-08-11T06:42:26.000Z</time>
      </trkpt>
      <trkpt lat="42.863009981811046600341796875" lon="-0.4297138564288616180419921875">
        <ele>1771</ele>
        <time>2021-08-11T06:42:34.000Z</time>
      </trkpt>
      <trkpt lat="42.86309153772890567779541015625" lon="-0.42974411509931087493896484375">
        <ele>1770.5999755859375</ele>
        <time>2021-08-11T06:42:41.000Z</time>
      </trkpt>
      <trkpt lat="42.86312338896095752716064453125" lon="-0.42974914424121379852294921875">
        <ele>1770.199951171875</ele>
        <time>2021-08-11T06:42:43.000Z</time>
      </trkpt>
      <trkpt lat="42.86318306811153888702392578125" lon="-0.42973020114004611968994140625">
        <ele>1768</ele>
        <time>2021-08-11T06:42:48.000Z</time>
      </trkpt>
      <trkpt lat="42.8632968105375766754150390625" lon="-0.429688207805156707763671875">
        <ele>1762.5999755859375</ele>
        <time>2021-08-11T06:42:56.000Z</time>
      </trkpt>
      <trkpt lat="42.863413989543914794921875" lon="-0.42957815341651439666748046875">
        <ele>1756</ele>
        <time>2021-08-11T06:43:04.000Z</time>
      </trkpt>
      <trkpt lat="42.86346185021102428436279296875" lon="-0.429571531713008880615234375">
        <ele>1755.199951171875</ele>
        <time>2021-08-11T06:43:09.000Z</time>
      </trkpt>
      <trkpt lat="42.86347559653222560882568359375" lon="-0.429568178951740264892578125">
        <ele>1755.199951171875</ele>
        <time>2021-08-11T06:43:11.000Z</time>
      </trkpt>
      <trkpt lat="42.863561846315860748291015625" lon="-0.42952601797878742218017578125">
        <ele>1754.5999755859375</ele>
        <time>2021-08-11T06:43:18.000Z</time>
      </trkpt>
      <trkpt lat="42.8635744191706180572509765625" lon="-0.429512523114681243896484375">
        <ele>1754.4000244140625</ele>
        <time>2021-08-11T06:43:20.000Z</time>
      </trkpt>
      <trkpt lat="42.86359361372888088226318359375" lon="-0.42951880954205989837646484375">
        <ele>1754.5999755859375</ele>
        <time>2021-08-11T06:43:23.000Z</time>
      </trkpt>
      <trkpt lat="42.8636096231639385223388671875" lon="-0.429533310234546661376953125">
        <ele>1755</ele>
        <time>2021-08-11T06:43:25.000Z</time>
      </trkpt>
      <trkpt lat="42.863648347556591033935546875" lon="-0.42952962219715118408203125">
        <ele>1755.5999755859375</ele>
        <time>2021-08-11T06:43:29.000Z</time>
      </trkpt>
      <trkpt lat="42.86366083659231662750244140625" lon="-0.42953364551067352294921875">
        <ele>1756</ele>
        <time>2021-08-11T06:43:31.000Z</time>
      </trkpt>
      <trkpt lat="42.863723449409008026123046875" lon="-0.4295123554766178131103515625">
        <ele>1756.5999755859375</ele>
        <time>2021-08-11T06:43:37.000Z</time>
      </trkpt>
      <trkpt lat="42.86378338001668453216552734375" lon="-0.42948578484356403350830078125">
        <ele>1757.5999755859375</ele>
        <time>2021-08-11T06:43:45.000Z</time>
      </trkpt>
      <trkpt lat="42.8638376109302043914794921875" lon="-0.42949466966092586517333984375">
        <ele>1759.5999755859375</ele>
        <time>2021-08-11T06:43:51.000Z</time>
      </trkpt>
      <trkpt lat="42.8639264591038227081298828125" lon="-0.42948536574840545654296875">
        <ele>1762.199951171875</ele>
        <time>2021-08-11T06:43:58.000Z</time>
      </trkpt>
      <trkpt lat="42.86396157927811145782470703125" lon="-0.42947270907461643218994140625">
        <ele>1762.800048828125</ele>
        <time>2021-08-11T06:44:01.000Z</time>
      </trkpt>
      <trkpt lat="42.86402142606675624847412109375" lon="-0.429485701024532318115234375">
        <ele>1763.199951171875</ele>
        <time>2021-08-11T06:44:05.000Z</time>
      </trkpt>
      <trkpt lat="42.8641168959438800811767578125" lon="-0.4294674284756183624267578125">
        <ele>1759.4000244140625</ele>
        <time>2021-08-11T06:44:14.000Z</time>
      </trkpt>
      <trkpt lat="42.8641410358250141143798828125" lon="-0.4294744692742824554443359375">
        <ele>1758.800048828125</ele>
        <time>2021-08-11T06:44:17.000Z</time>
      </trkpt>
      <trkpt lat="42.864148914813995361328125" lon="-0.429502464830875396728515625">
        <ele>1759.5999755859375</ele>
        <time>2021-08-11T06:44:20.000Z</time>
      </trkpt>
      <trkpt lat="42.86415469832718372344970703125" lon="-0.429491065442562103271484375">
        <ele>1759</ele>
        <time>2021-08-11T06:44:27.000Z</time>
      </trkpt>
      <trkpt lat="42.86414958536624908447265625" lon="-0.4294912330806255340576171875">
        <ele>1759.199951171875</ele>
        <time>2021-08-11T06:44:42.000Z</time>
      </trkpt>
      <trkpt lat="42.8642027266323566436767578125" lon="-0.42945586144924163818359375">
        <ele>1756.199951171875</ele>
        <time>2021-08-11T06:45:13.000Z</time>
      </trkpt>
      <trkpt lat="42.86425092257559299468994140625" lon="-0.429470948874950408935546875">
        <ele>1755.800048828125</ele>
        <time>2021-08-11T06:45:20.000Z</time>
      </trkpt>
      <trkpt lat="42.86423985846340656280517578125" lon="-0.42945778928697109222412109375">
        <ele>1755.199951171875</ele>
        <time>2021-08-11T06:45:27.000Z</time>
      </trkpt>
      <trkpt lat="42.864291407167911529541015625" lon="-0.42946499772369861602783203125">
        <ele>1754</ele>
        <time>2021-08-11T06:45:54.000Z</time>
      </trkpt>
      <trkpt lat="42.8643943369388580322265625" lon="-0.42944823391735553741455078125">
        <ele>1747.5999755859375</ele>
        <time>2021-08-11T06:46:03.000Z</time>
      </trkpt>
      <trkpt lat="42.8644575364887714385986328125" lon="-0.4294707812368869781494140625">
        <ele>1745.4000244140625</ele>
        <time>2021-08-11T06:46:11.000Z</time>
      </trkpt>
      <trkpt lat="42.864497601985931396484375" lon="-0.42946533299982547760009765625">
        <ele>1743</ele>
        <time>2021-08-11T06:46:18.000Z</time>
      </trkpt>
      <trkpt lat="42.8645547665655612945556640625" lon="-0.42949517257511615753173828125">
        <ele>1741.199951171875</ele>
        <time>2021-08-11T06:46:26.000Z</time>
      </trkpt>
      <trkpt lat="42.86459860391914844512939453125" lon="-0.4294952563941478729248046875">
        <ele>1741</ele>
        <time>2021-08-11T06:46:34.000Z</time>
      </trkpt>
      <trkpt lat="42.8646590374410152435302734375" lon="-0.4294999502599239349365234375">
        <ele>1740.5999755859375</ele>
        <time>2021-08-11T06:46:43.000Z</time>
      </trkpt>
      <trkpt lat="42.86471561528742313385009765625" lon="-0.4294902272522449493408203125">
        <ele>1739.800048828125</ele>
        <time>2021-08-11T06:46:49.000Z</time>
      </trkpt>
      <trkpt lat="42.86478820256888866424560546875" lon="-0.4294875450432300567626953125">
        <ele>1739.199951171875</ele>
        <time>2021-08-11T06:46:55.000Z</time>
      </trkpt>
      <trkpt lat="42.8648132644593715667724609375" lon="-0.4294868744909763336181640625">
        <ele>1739</ele>
        <time>2021-08-11T06:46:58.000Z</time>
      </trkpt>
      <trkpt lat="42.86486296914517879486083984375" lon="-0.42951243929564952850341796875">
        <ele>1739.199951171875</ele>
        <time>2021-08-11T06:47:02.000Z</time>
      </trkpt>
      <trkpt lat="42.86489046178758144378662109375" lon="-0.42952367104589939117431640625">
        <ele>1739</ele>
        <time>2021-08-11T06:47:05.000Z</time>
      </trkpt>
      <trkpt lat="42.8649312816560268402099609375" lon="-0.42954227887094020843505859375">
        <ele>1738.800048828125</ele>
        <time>2021-08-11T06:47:09.000Z</time>
      </trkpt>
      <trkpt lat="42.8649741970002651214599609375" lon="-0.42958720587193965911865234375">
        <ele>1739.199951171875</ele>
        <time>2021-08-11T06:47:16.000Z</time>
      </trkpt>
      <trkpt lat="42.86505273543298244476318359375" lon="-0.429638586938381195068359375">
        <ele>1737.800048828125</ele>
        <time>2021-08-11T06:47:22.000Z</time>
      </trkpt>
      <trkpt lat="42.86513856612145900726318359375" lon="-0.42967446148395538330078125">
        <ele>1736.199951171875</ele>
        <time>2021-08-11T06:47:30.000Z</time>
      </trkpt>
      <trkpt lat="42.86517829634249210357666015625" lon="-0.42967387475073337554931640625">
        <ele>1735.199951171875</ele>
        <time>2021-08-11T06:47:36.000Z</time>
      </trkpt>
      <trkpt lat="42.865240238606929779052734375" lon="-0.4296813346445560455322265625">
        <ele>1733.800048828125</ele>
        <time>2021-08-11T06:47:44.000Z</time>
      </trkpt>
      <trkpt lat="42.865346856415271759033203125" lon="-0.42969985865056514739990234375">
        <ele>1731.800048828125</ele>
        <time>2021-08-11T06:47:54.000Z</time>
      </trkpt>
      <trkpt lat="42.86536538042128086090087890625" lon="-0.4297180473804473876953125">
        <ele>1732</ele>
        <time>2021-08-11T06:47:58.000Z</time>
      </trkpt>
      <trkpt lat="42.8654013387858867645263671875" lon="-0.42972969822585582733154296875">
        <ele>1731.5999755859375</ele>
        <time>2021-08-11T06:48:02.000Z</time>
      </trkpt>
      <trkpt lat="42.8654140792787075042724609375" lon="-0.42973036877810955047607421875">
        <ele>1731.4000244140625</ele>
        <time>2021-08-11T06:48:03.000Z</time>
      </trkpt>
      <trkpt lat="42.86546931602060794830322265625" lon="-0.4297540895640850067138671875">
        <ele>1731</ele>
        <time>2021-08-11T06:48:09.000Z</time>
      </trkpt>
      <trkpt lat="42.86554039455950260162353515625" lon="-0.42976842261850833892822265625">
        <ele>1730.199951171875</ele>
        <time>2021-08-11T06:48:16.000Z</time>
      </trkpt>
      <trkpt lat="42.8656201064586639404296875" lon="-0.42981971986591815948486328125">
        <ele>1730.4000244140625</ele>
        <time>2021-08-11T06:48:23.000Z</time>
      </trkpt>
      <trkpt lat="42.86569596268236637115478515625" lon="-0.4298494756221771240234375">
        <ele>1730</ele>
        <time>2021-08-11T06:48:31.000Z</time>
      </trkpt>
      <trkpt lat="42.86576033569872379302978515625" lon="-0.42993522249162197113037109375">
        <ele>1731.4000244140625</ele>
        <time>2021-08-11T06:48:40.000Z</time>
      </trkpt>
      <trkpt lat="42.86579101346433162689208984375" lon="-0.4299384914338588714599609375">
        <ele>1730.4000244140625</ele>
        <time>2021-08-11T06:48:45.000Z</time>
      </trkpt>
      <trkpt lat="42.86584767512977123260498046875" lon="-0.42994813062250614166259765625">
        <ele>1728.800048828125</ele>
        <time>2021-08-11T06:48:52.000Z</time>
      </trkpt>
      <trkpt lat="42.86589511670172214508056640625" lon="-0.42996992357075214385986328125">
        <ele>1728</ele>
        <time>2021-08-11T06:48:58.000Z</time>
      </trkpt>
      <trkpt lat="42.8659250400960445404052734375" lon="-0.429994650185108184814453125">
        <ele>1728</ele>
        <time>2021-08-11T06:49:03.000Z</time>
      </trkpt>
      <trkpt lat="42.86602453328669071197509765625" lon="-0.43004519306123256683349609375">
        <ele>1726.199951171875</ele>
        <time>2021-08-11T06:49:10.000Z</time>
      </trkpt>
      <trkpt lat="42.86610935814678668975830078125" lon="-0.43009397573769092559814453125">
        <ele>1725</ele>
        <time>2021-08-11T06:49:18.000Z</time>
      </trkpt>
      <trkpt lat="42.866133749485015869140625" lon="-0.43011702597141265869140625">
        <ele>1725.4000244140625</ele>
        <time>2021-08-11T06:49:23.000Z</time>
      </trkpt>
      <trkpt lat="42.866152860224246978759765625" lon="-0.43013739399611949920654296875">
        <ele>1725.800048828125</ele>
        <time>2021-08-11T06:49:28.000Z</time>
      </trkpt>
      <trkpt lat="42.86620005033910274505615234375" lon="-0.43016337789595127105712890625">
        <ele>1725.5999755859375</ele>
        <time>2021-08-11T06:49:34.000Z</time>
      </trkpt>
      <trkpt lat="42.8662790916860103607177734375" lon="-0.430166311562061309814453125">
        <ele>1723.199951171875</ele>
        <time>2021-08-11T06:49:39.000Z</time>
      </trkpt>
      <trkpt lat="42.86631404422223567962646484375" lon="-0.43021316640079021453857421875">
        <ele>1724</ele>
        <time>2021-08-11T06:49:44.000Z</time>
      </trkpt>
      <trkpt lat="42.86632728762924671173095703125" lon="-0.430217944085597991943359375">
        <ele>1723.5999755859375</ele>
        <time>2021-08-11T06:49:45.000Z</time>
      </trkpt>
      <trkpt lat="42.8663478232920169830322265625" lon="-0.4302228055894374847412109375">
        <ele>1723.199951171875</ele>
        <time>2021-08-11T06:49:47.000Z</time>
      </trkpt>
      <trkpt lat="42.86636777222156524658203125" lon="-0.4302134178578853607177734375">
        <ele>1722.199951171875</ele>
        <time>2021-08-11T06:49:51.000Z</time>
      </trkpt>
      <trkpt lat="42.866399623453617095947265625" lon="-0.43020947836339473724365234375">
        <ele>1721</ele>
        <time>2021-08-11T06:49:55.000Z</time>
      </trkpt>
      <trkpt lat="42.86640557460486888885498046875" lon="-0.43021651916205883026123046875">
        <ele>1721</ele>
        <time>2021-08-11T06:49:56.000Z</time>
      </trkpt>
      <trkpt lat="42.86640934646129608154296875" lon="-0.43025407008826732635498046875">
        <ele>1722.4000244140625</ele>
        <time>2021-08-11T06:50:01.000Z</time>
      </trkpt>
      <trkpt lat="42.86641362123191356658935546875" lon="-0.4302680678665637969970703125">
        <ele>1722.800048828125</ele>
        <time>2021-08-11T06:50:02.000Z</time>
      </trkpt>
      <trkpt lat="42.8664497472345829010009765625" lon="-0.43032757937908172607421875">
        <ele>1724</ele>
        <time>2021-08-11T06:50:06.000Z</time>
      </trkpt>
      <trkpt lat="42.8665127791464328765869140625" lon="-0.430426485836505889892578125">
        <ele>1726.5999755859375</ele>
        <time>2021-08-11T06:50:13.000Z</time>
      </trkpt>
      <trkpt lat="42.8665245138108730316162109375" lon="-0.43043646030128002166748046875">
        <ele>1726.5999755859375</ele>
        <time>2021-08-11T06:50:14.000Z</time>
      </trkpt>
      <trkpt lat="42.866564579308032989501953125" lon="-0.43043260462582111358642578125">
        <ele>1725.199951171875</ele>
        <time>2021-08-11T06:50:17.000Z</time>
      </trkpt>
      <trkpt lat="42.866587378084659576416015625" lon="-0.43044618330895900726318359375">
        <ele>1725</ele>
        <time>2021-08-11T06:50:19.000Z</time>
      </trkpt>
      <trkpt lat="42.86659534089267253875732421875" lon="-0.43047317303717136383056640625">
        <ele>1725.5999755859375</ele>
        <time>2021-08-11T06:50:21.000Z</time>
      </trkpt>
      <trkpt lat="42.86660439334809780120849609375" lon="-0.43050150386989116668701171875">
        <ele>1726.199951171875</ele>
        <time>2021-08-11T06:50:23.000Z</time>
      </trkpt>
      <trkpt lat="42.8666297905147075653076171875" lon="-0.430525727570056915283203125">
        <ele>1726.199951171875</ele>
        <time>2021-08-11T06:50:26.000Z</time>
      </trkpt>
      <trkpt lat="42.86663222126662731170654296875" lon="-0.4305548965930938720703125">
        <ele>1727</ele>
        <time>2021-08-11T06:50:29.000Z</time>
      </trkpt>
      <trkpt lat="42.866648733615875244140625" lon="-0.43058264069259166717529296875">
        <ele>1727.199951171875</ele>
        <time>2021-08-11T06:50:31.000Z</time>
      </trkpt>
      <trkpt lat="42.8666649945080280303955078125" lon="-0.43059152550995349884033203125">
        <ele>1726.800048828125</ele>
        <time>2021-08-11T06:50:32.000Z</time>
      </trkpt>
      <trkpt lat="42.86669173277914524078369140625" lon="-0.4306031763553619384765625">
        <ele>1726.199951171875</ele>
        <time>2021-08-11T06:50:35.000Z</time>
      </trkpt>
      <trkpt lat="42.8667411021888256072998046875" lon="-0.43063066899776458740234375">
        <ele>1724.5999755859375</ele>
        <time>2021-08-11T06:50:40.000Z</time>
      </trkpt>
      <trkpt lat="42.86683808080852031707763671875" lon="-0.4306928627192974090576171875">
        <ele>1721.4000244140625</ele>
        <time>2021-08-11T06:50:49.000Z</time>
      </trkpt>
      <trkpt lat="42.866910584270954132080078125" lon="-0.4307391308248043060302734375">
        <ele>1718.4000244140625</ele>
        <time>2021-08-11T06:50:58.000Z</time>
      </trkpt>
      <trkpt lat="42.86690731532871723175048828125" lon="-0.430732928216457366943359375">
        <ele>1718.5999755859375</ele>
        <time>2021-08-11T06:51:05.000Z</time>
      </trkpt>
      <trkpt lat="42.866895161569118499755859375" lon="-0.43074122630059719085693359375">
        <ele>1719.4000244140625</ele>
        <time>2021-08-11T06:51:49.000Z</time>
      </trkpt>
      <trkpt lat="42.866897173225879669189453125" lon="-0.43076788075268268585205078125">
        <ele>1719.800048828125</ele>
        <time>2021-08-11T06:52:24.000Z</time>
      </trkpt>
      <trkpt lat="42.86688736639916896820068359375" lon="-0.430801324546337127685546875">
        <ele>1721</ele>
        <time>2021-08-11T06:52:31.000Z</time>
      </trkpt>
      <trkpt lat="42.86686222068965435028076171875" lon="-0.43086091987788677215576171875">
        <ele>1723.4000244140625</ele>
        <time>2021-08-11T06:52:40.000Z</time>
      </trkpt>
      <trkpt lat="42.86688275635242462158203125" lon="-0.4308464191854000091552734375">
        <ele>1722</ele>
        <time>2021-08-11T06:52:49.000Z</time>
      </trkpt>
      <trkpt lat="42.86695123650133609771728515625" lon="-0.43084247969090938568115234375">
        <ele>1718</ele>
        <time>2021-08-11T06:53:48.000Z</time>
      </trkpt>
      <trkpt lat="42.86703572608530521392822265625" lon="-0.43092730455100536346435546875">
        <ele>1714</ele>
        <time>2021-08-11T06:53:56.000Z</time>
      </trkpt>
      <trkpt lat="42.86706648766994476318359375" lon="-0.43099067173898220062255859375">
        <ele>1712.800048828125</ele>
        <time>2021-08-11T06:54:02.000Z</time>
      </trkpt>
      <trkpt lat="42.86708031781017780303955078125" lon="-0.4310666956007480621337890625">
        <ele>1713</ele>
        <time>2021-08-11T06:54:07.000Z</time>
      </trkpt>
      <trkpt lat="42.86709641106426715850830078125" lon="-0.43108773417770862579345703125">
        <ele>1712.199951171875</ele>
        <time>2021-08-11T06:54:09.000Z</time>
      </trkpt>
      <trkpt lat="42.86709087900817394256591796875" lon="-0.4311156459152698516845703125">
        <ele>1712.5999755859375</ele>
        <time>2021-08-11T06:54:11.000Z</time>
      </trkpt>
      <trkpt lat="42.86708685569465160369873046875" lon="-0.43115210719406604766845703125">
        <ele>1713.199951171875</ele>
        <time>2021-08-11T06:54:15.000Z</time>
      </trkpt>
      <trkpt lat="42.8670792281627655029296875" lon="-0.4311645962297916412353515625">
        <ele>1713.5999755859375</ele>
        <time>2021-08-11T06:54:16.000Z</time>
      </trkpt>
      <trkpt lat="42.8670971654355525970458984375" lon="-0.4312132112681865692138671875">
        <ele>1713</ele>
        <time>2021-08-11T06:54:22.000Z</time>
      </trkpt>
      <trkpt lat="42.8670978359878063201904296875" lon="-0.4312400333583354949951171875">
        <ele>1713.199951171875</ele>
        <time>2021-08-11T06:54:24.000Z</time>
      </trkpt>
      <trkpt lat="42.8671263344585895538330078125" lon="-0.43129627592861652374267578125">
        <ele>1711.800048828125</ele>
        <time>2021-08-11T06:54:28.000Z</time>
      </trkpt>
      <trkpt lat="42.867174781858921051025390625" lon="-0.431365929543972015380859375">
        <ele>1709.5999755859375</ele>
        <time>2021-08-11T06:54:34.000Z</time>
      </trkpt>
      <trkpt lat="42.86719514988362789154052734375" lon="-0.43139602057635784149169921875">
        <ele>1708.5999755859375</ele>
        <time>2021-08-11T06:54:36.000Z</time>
      </trkpt>
      <trkpt lat="42.8672155179083347320556640625" lon="-0.43143860064446926116943359375">
        <ele>1707.5999755859375</ele>
        <time>2021-08-11T06:54:39.000Z</time>
      </trkpt>
      <trkpt lat="42.86722029559314250946044921875" lon="-0.4314740560948848724365234375">
        <ele>1707.4000244140625</ele>
        <time>2021-08-11T06:54:42.000Z</time>
      </trkpt>
      <trkpt lat="42.86726899445056915283203125" lon="-0.431587211787700653076171875">
        <ele>1703.800048828125</ele>
        <time>2021-08-11T06:54:50.000Z</time>
      </trkpt>
      <trkpt lat="42.86733873188495635986328125" lon="-0.43173037469387054443359375">
        <ele>1699.800048828125</ele>
        <time>2021-08-11T06:54:59.000Z</time>
      </trkpt>
      <trkpt lat="42.86734753288328647613525390625" lon="-0.43175694532692432403564453125">
        <ele>1699.5999755859375</ele>
        <time>2021-08-11T06:55:01.000Z</time>
      </trkpt>
      <trkpt lat="42.86740033887326717376708984375" lon="-0.4318074882030487060546875">
        <ele>1697.4000244140625</ele>
        <time>2021-08-11T06:55:06.000Z</time>
      </trkpt>
      <trkpt lat="42.86742682568728923797607421875" lon="-0.4319107532501220703125">
        <ele>1697</ele>
        <time>2021-08-11T06:55:13.000Z</time>
      </trkpt>
      <trkpt lat="42.86746169440448284149169921875" lon="-0.431999266147613525390625">
        <ele>1696.5999755859375</ele>
        <time>2021-08-11T06:55:20.000Z</time>
      </trkpt>
      <trkpt lat="42.8675233013927936553955078125" lon="-0.432115606963634490966796875">
        <ele>1695</ele>
        <time>2021-08-11T06:55:28.000Z</time>
      </trkpt>
      <trkpt lat="42.86753185093402862548828125" lon="-0.4321271739900112152099609375">
        <ele>1694.800048828125</ele>
        <time>2021-08-11T06:55:29.000Z</time>
      </trkpt>
      <trkpt lat="42.8675410710275173187255859375" lon="-0.43215692974627017974853515625">
        <ele>1694.5999755859375</ele>
        <time>2021-08-11T06:55:31.000Z</time>
      </trkpt>
      <trkpt lat="42.867551632225513458251953125" lon="-0.4322005994617938995361328125">
        <ele>1694.5999755859375</ele>
        <time>2021-08-11T06:55:34.000Z</time>
      </trkpt>
      <trkpt lat="42.86756563000380992889404296875" lon="-0.4322693310678005218505859375">
        <ele>1694.800048828125</ele>
        <time>2021-08-11T06:55:38.000Z</time>
      </trkpt>
      <trkpt lat="42.8675548173487186431884765625" lon="-0.432328842580318450927734375">
        <ele>1696.4000244140625</ele>
        <time>2021-08-11T06:55:41.000Z</time>
      </trkpt>
      <trkpt lat="42.8675776161253452301025390625" lon="-0.43243738822638988494873046875">
        <ele>1697.4000244140625</ele>
        <time>2021-08-11T06:55:48.000Z</time>
      </trkpt>
      <trkpt lat="42.8675833158195018768310546875" lon="-0.43245188891887664794921875">
        <ele>1697.4000244140625</ele>
        <time>2021-08-11T06:55:49.000Z</time>
      </trkpt>
      <trkpt lat="42.86762480624020099639892578125" lon="-0.4325318522751331329345703125">
        <ele>1697.4000244140625</ele>
        <time>2021-08-11T06:55:55.000Z</time>
      </trkpt>
      <trkpt lat="42.86766596138477325439453125" lon="-0.43257795274257659912109375">
        <ele>1697</ele>
        <time>2021-08-11T06:56:01.000Z</time>
      </trkpt>
      <trkpt lat="42.86768113262951374053955078125" lon="-0.43259245343506336212158203125">
        <ele>1696.5999755859375</ele>
        <time>2021-08-11T06:56:03.000Z</time>
      </trkpt>
      <trkpt lat="42.86770929582417011260986328125" lon="-0.4326201975345611572265625">
        <ele>1696.199951171875</ele>
        <time>2021-08-11T06:56:10.000Z</time>
      </trkpt>
      <trkpt lat="42.86771415732800960540771484375" lon="-0.43261340819299221038818359375">
        <ele>1695.800048828125</ele>
        <time>2021-08-11T06:56:18.000Z</time>
      </trkpt>
      <trkpt lat="42.8677177615463733673095703125" lon="-0.432611145079135894775390625">
        <ele>1695.5999755859375</ele>
        <time>2021-08-11T06:56:27.000Z</time>
      </trkpt>
      <trkpt lat="42.8677821345627307891845703125" lon="-0.43262748979032039642333984375">
        <ele>1693.800048828125</ele>
        <time>2021-08-11T06:56:38.000Z</time>
      </trkpt>
      <trkpt lat="42.8678656183183193206787109375" lon="-0.43266789056360721588134765625">
        <ele>1691.800048828125</ele>
        <time>2021-08-11T06:56:44.000Z</time>
      </trkpt>
      <trkpt lat="42.86789202131330966949462890625" lon="-0.4326827265322208404541015625">
        <ele>1691.199951171875</ele>
        <time>2021-08-11T06:56:46.000Z</time>
      </trkpt>
      <trkpt lat="42.86791230551898479461669921875" lon="-0.43276009149849414825439453125">
        <ele>1692.5999755859375</ele>
        <time>2021-08-11T06:56:50.000Z</time>
      </trkpt>
      <trkpt lat="42.867954634130001068115234375" lon="-0.43283569626510143280029296875">
        <ele>1692.4000244140625</ele>
        <time>2021-08-11T06:56:55.000Z</time>
      </trkpt>
      <trkpt lat="42.8679776005446910858154296875" lon="-0.43282731436192989349365234375">
        <ele>1691.199951171875</ele>
        <time>2021-08-11T06:56:56.000Z</time>
      </trkpt>
      <trkpt lat="42.86800903268158435821533203125" lon="-0.43282832019031047821044921875">
        <ele>1689.800048828125</ele>
        <time>2021-08-11T06:56:58.000Z</time>
      </trkpt>
      <trkpt lat="42.8680231980979442596435546875" lon="-0.4328490234911441802978515625">
        <ele>1689.5999755859375</ele>
        <time>2021-08-11T06:57:01.000Z</time>
      </trkpt>
      <trkpt lat="42.868028394877910614013671875" lon="-0.43285111896693706512451171875">
        <ele>1689.4000244140625</ele>
        <time>2021-08-11T06:57:02.000Z</time>
      </trkpt>
      <trkpt lat="42.8680486790835857391357421875" lon="-0.4328615963459014892578125">
        <ele>1688.5999755859375</ele>
        <time>2021-08-11T06:57:04.000Z</time>
      </trkpt>
      <trkpt lat="42.8680617548525333404541015625" lon="-0.43286763131618499755859375">
        <ele>1688.4000244140625</ele>
        <time>2021-08-11T06:57:05.000Z</time>
      </trkpt>
      <trkpt lat="42.86810626275837421417236328125" lon="-0.4328932799398899078369140625">
        <ele>1688</ele>
        <time>2021-08-11T06:57:08.000Z</time>
      </trkpt>
      <trkpt lat="42.868135683238506317138671875" lon="-0.43290191330015659332275390625">
        <ele>1687.4000244140625</ele>
        <time>2021-08-11T06:57:10.000Z</time>
      </trkpt>
      <trkpt lat="42.86817750893533229827880859375" lon="-0.4329475946724414825439453125">
        <ele>1687.5999755859375</ele>
        <time>2021-08-11T06:57:13.000Z</time>
      </trkpt>
      <trkpt lat="42.8682072646915912628173828125" lon="-0.43298740871250629425048828125">
        <ele>1688</ele>
        <time>2021-08-11T06:57:16.000Z</time>
      </trkpt>
      <trkpt lat="42.86829334683716297149658203125" lon="-0.433057062327861785888671875">
        <ele>1687.199951171875</ele>
        <time>2021-08-11T06:57:24.000Z</time>
      </trkpt>
      <trkpt lat="42.868351601064205169677734375" lon="-0.4331360198557376861572265625">
        <ele>1687.5999755859375</ele>
        <time>2021-08-11T06:57:30.000Z</time>
      </trkpt>
      <trkpt lat="42.868426702916622161865234375" lon="-0.43319888412952423095703125">
        <ele>1687.199951171875</ele>
        <time>2021-08-11T06:57:36.000Z</time>
      </trkpt>
      <trkpt lat="42.8684310615062713623046875" lon="-0.4332127980887889862060546875">
        <ele>1687.4000244140625</ele>
        <time>2021-08-11T06:57:37.000Z</time>
      </trkpt>
      <trkpt lat="42.86846735514700412750244140625" lon="-0.43331363238394260406494140625">
        <ele>1689.199951171875</ele>
        <time>2021-08-11T06:57:43.000Z</time>
      </trkpt>
      <trkpt lat="42.8684981167316436767578125" lon="-0.43339074589312076568603515625">
        <ele>1689.199951171875</ele>
        <time>2021-08-11T06:57:48.000Z</time>
      </trkpt>
      <trkpt lat="42.8685190714895725250244140625" lon="-0.43341153301298618316650390625">
        <ele>1688.5999755859375</ele>
        <time>2021-08-11T06:57:50.000Z</time>
      </trkpt>
      <trkpt lat="42.86856827326118946075439453125" lon="-0.43346568010747432708740234375">
        <ele>1687.199951171875</ele>
        <time>2021-08-11T06:57:54.000Z</time>
      </trkpt>
      <trkpt lat="42.86857464350759983062744140625" lon="-0.4334785044193267822265625">
        <ele>1687.4000244140625</ele>
        <time>2021-08-11T06:57:55.000Z</time>
      </trkpt>
      <trkpt lat="42.868597693741321563720703125" lon="-0.4334830306470394134521484375">
        <ele>1686.5999755859375</ele>
        <time>2021-08-11T06:57:57.000Z</time>
      </trkpt>
      <trkpt lat="42.86861202679574489593505859375" lon="-0.43349149636924266815185546875">
        <ele>1686.4000244140625</ele>
        <time>2021-08-11T06:57:59.000Z</time>
      </trkpt>
      <trkpt lat="42.86862091161310672760009765625" lon="-0.433500297367572784423828125">
        <ele>1686.4000244140625</ele>
        <time>2021-08-11T06:58:00.000Z</time>
      </trkpt>
      <trkpt lat="42.8686441294848918914794921875" lon="-0.433511696755886077880859375">
        <ele>1685.800048828125</ele>
        <time>2021-08-11T06:58:02.000Z</time>
      </trkpt>
      <trkpt lat="42.86865225993096828460693359375" lon="-0.43353726156055927276611328125">
        <ele>1686.4000244140625</ele>
        <time>2021-08-11T06:58:04.000Z</time>
      </trkpt>
      <trkpt lat="42.868669442832469940185546875" lon="-0.43356726877391338348388671875">
        <ele>1686.800048828125</ele>
        <time>2021-08-11T06:58:06.000Z</time>
      </trkpt>
      <trkpt lat="42.8687165491282939910888671875" lon="-0.4336101002991199493408203125">
        <ele>1686.4000244140625</ele>
        <time>2021-08-11T06:58:10.000Z</time>
      </trkpt>
      <trkpt lat="42.86874781362712383270263671875" lon="-0.4336677677929401397705078125">
        <ele>1687</ele>
        <time>2021-08-11T06:58:14.000Z</time>
      </trkpt>
      <trkpt lat="42.86877798847854137420654296875" lon="-0.4336841963231563568115234375">
        <ele>1686.5999755859375</ele>
        <time>2021-08-11T06:58:16.000Z</time>
      </trkpt>
      <trkpt lat="42.8688583709299564361572265625" lon="-0.43373490683734416961669921875">
        <ele>1685.4000244140625</ele>
        <time>2021-08-11T06:58:21.000Z</time>
      </trkpt>
      <trkpt lat="42.86887228488922119140625" lon="-0.43374446220695972442626953125">
        <ele>1685.4000244140625</ele>
        <time>2021-08-11T06:58:22.000Z</time>
      </trkpt>
      <trkpt lat="42.86889935843646526336669921875" lon="-0.4337762296199798583984375">
        <ele>1686</ele>
        <time>2021-08-11T06:58:25.000Z</time>
      </trkpt>
      <trkpt lat="42.86891142837703227996826171875" lon="-0.4337968491017818450927734375">
        <ele>1686.4000244140625</ele>
        <time>2021-08-11T06:58:27.000Z</time>
      </trkpt>
      <trkpt lat="42.86892123520374298095703125" lon="-0.4338059015572071075439453125">
        <ele>1686.4000244140625</ele>
        <time>2021-08-11T06:58:28.000Z</time>
      </trkpt>
      <trkpt lat="42.86896389909088611602783203125" lon="-0.433824844658374786376953125">
        <ele>1686</ele>
        <time>2021-08-11T06:58:32.000Z</time>
      </trkpt>
      <trkpt lat="42.8690303675830364227294921875" lon="-0.43384353630244731903076171875">
        <ele>1684.800048828125</ele>
        <time>2021-08-11T06:58:36.000Z</time>
      </trkpt>
      <trkpt lat="42.8690561838448047637939453125" lon="-0.43384722433984279632568359375">
        <ele>1684.199951171875</ele>
        <time>2021-08-11T06:58:38.000Z</time>
      </trkpt>
      <trkpt lat="42.86911712028086185455322265625" lon="-0.43386675417423248291015625">
        <ele>1683.199951171875</ele>
        <time>2021-08-11T06:58:42.000Z</time>
      </trkpt>
      <trkpt lat="42.86913036368787288665771484375" lon="-0.43387169949710369110107421875">
        <ele>1683</ele>
        <time>2021-08-11T06:58:43.000Z</time>
      </trkpt>
      <trkpt lat="42.8691678307950496673583984375" lon="-0.433866418898105621337890625">
        <ele>1681.800048828125</ele>
        <time>2021-08-11T06:58:45.000Z</time>
      </trkpt>
      <trkpt lat="42.869242765009403228759765625" lon="-0.4338571988046169281005859375">
        <ele>1679.199951171875</ele>
        <time>2021-08-11T06:58:49.000Z</time>
      </trkpt>
      <trkpt lat="42.86941484548151493072509765625" lon="-0.43381176888942718505859375">
        <ele>1673</ele>
        <time>2021-08-11T06:58:58.000Z</time>
      </trkpt>
      <trkpt lat="42.86947653628885746002197265625" lon="-0.43380749411880970001220703125">
        <ele>1671.199951171875</ele>
        <time>2021-08-11T06:59:04.000Z</time>
      </trkpt>
      <trkpt lat="42.86959606222808361053466796875" lon="-0.43385661207139492034912109375">
        <ele>1670</ele>
        <time>2021-08-11T06:59:14.000Z</time>
      </trkpt>
      <trkpt lat="42.86971919238567352294921875" lon="-0.43391101062297821044921875">
        <ele>1667</ele>
        <time>2021-08-11T06:59:23.000Z</time>
      </trkpt>
      <trkpt lat="42.86976554431021213531494140625" lon="-0.43394663371145725250244140625">
        <ele>1666.4000244140625</ele>
        <time>2021-08-11T06:59:28.000Z</time>
      </trkpt>
      <trkpt lat="42.8697753511369228363037109375" lon="-0.43395166285336017608642578125">
        <ele>1666.199951171875</ele>
        <time>2021-08-11T06:59:29.000Z</time>
      </trkpt>
      <trkpt lat="42.86978113465011119842529296875" lon="-0.43396188877522945404052734375">
        <ele>1666.4000244140625</ele>
        <time>2021-08-11T06:59:30.000Z</time>
      </trkpt>
      <trkpt lat="42.86982689984142780303955078125" lon="-0.4340171255171298980712890625">
        <ele>1666.5999755859375</ele>
        <time>2021-08-11T06:59:35.000Z</time>
      </trkpt>
      <trkpt lat="42.86984391510486602783203125" lon="-0.4340965859591960906982421875">
        <ele>1668.800048828125</ele>
        <time>2021-08-11T06:59:39.000Z</time>
      </trkpt>
      <trkpt lat="42.86985456012189388275146484375" lon="-0.4341126792132854461669921875">
        <ele>1669</ele>
        <time>2021-08-11T06:59:40.000Z</time>
      </trkpt>
      <trkpt lat="42.86986947990953922271728515625" lon="-0.434141345322132110595703125">
        <ele>1669.5999755859375</ele>
        <time>2021-08-11T06:59:42.000Z</time>
      </trkpt>
      <trkpt lat="42.86989898420870304107666015625" lon="-0.4341770522296428680419921875">
        <ele>1670</ele>
        <time>2021-08-11T06:59:45.000Z</time>
      </trkpt>
      <trkpt lat="42.86992580629885196685791015625" lon="-0.4342283494770526885986328125">
        <ele>1671</ele>
        <time>2021-08-11T06:59:50.000Z</time>
      </trkpt>
      <trkpt lat="42.86992982961237430572509765625" lon="-0.4342451132833957672119140625">
        <ele>1671.4000244140625</ele>
        <time>2021-08-11T06:59:51.000Z</time>
      </trkpt>
      <trkpt lat="42.86993376910686492919921875" lon="-0.43425709940493106842041015625">
        <ele>1671.800048828125</ele>
        <time>2021-08-11T06:59:52.000Z</time>
      </trkpt>
      <trkpt lat="42.869978360831737518310546875" lon="-0.4343114979565143585205078125">
        <ele>1672.199951171875</ele>
        <time>2021-08-11T06:59:57.000Z</time>
      </trkpt>
      <trkpt lat="42.86999017931520938873291015625" lon="-0.4343394935131072998046875">
        <ele>1672.800048828125</ele>
        <time>2021-08-11T06:59:58.000Z</time>
      </trkpt>
      <trkpt lat="42.8700043447315692901611328125" lon="-0.43436698615550994873046875">
        <ele>1673.199951171875</ele>
        <time>2021-08-11T07:00:00.000Z</time>
      </trkpt>
      <trkpt lat="42.87000350654125213623046875" lon="-0.43437712825834751129150390625">
        <ele>1673.4000244140625</ele>
        <time>2021-08-11T07:00:01.000Z</time>
      </trkpt>
      <trkpt lat="42.87000409327447414398193359375" lon="-0.434387437999248504638671875">
        <ele>1673.800048828125</ele>
        <time>2021-08-11T07:00:02.000Z</time>
      </trkpt>
      <trkpt lat="42.87001331336796283721923828125" lon="-0.43444569222629070281982421875">
        <ele>1675</ele>
        <time>2021-08-11T07:00:06.000Z</time>
      </trkpt>
      <trkpt lat="42.870015241205692291259765625" lon="-0.4344586841762065887451171875">
        <ele>1675.199951171875</ele>
        <time>2021-08-11T07:00:07.000Z</time>
      </trkpt>
      <trkpt lat="42.87004508078098297119140625" lon="-0.43450872413814067840576171875">
        <ele>1675.5999755859375</ele>
        <time>2021-08-11T07:00:11.000Z</time>
      </trkpt>
      <trkpt lat="42.8700546361505985260009765625" lon="-0.4345220513641834259033203125">
        <ele>1675.5999755859375</ele>
        <time>2021-08-11T07:00:12.000Z</time>
      </trkpt>
      <trkpt lat="42.87010618485510349273681640625" lon="-0.434582233428955078125">
        <ele>1675.800048828125</ele>
        <time>2021-08-11T07:00:17.000Z</time>
      </trkpt>
      <trkpt lat="42.87011574022471904754638671875" lon="-0.43460444547235965728759765625">
        <ele>1675.800048828125</ele>
        <time>2021-08-11T07:00:18.000Z</time>
      </trkpt>
      <trkpt lat="42.87014608271420001983642578125" lon="-0.4347195290029048919677734375">
        <ele>1676.800048828125</ele>
        <time>2021-08-11T07:00:23.000Z</time>
      </trkpt>
      <trkpt lat="42.87017785012722015380859375" lon="-0.43475783430039882659912109375">
        <ele>1675.5999755859375</ele>
        <time>2021-08-11T07:00:28.000Z</time>
      </trkpt>
      <trkpt lat="42.870223782956600189208984375" lon="-0.4348331876099109649658203125">
        <ele>1673.800048828125</ele>
        <time>2021-08-11T07:00:36.000Z</time>
      </trkpt>
      <trkpt lat="42.87022839300334453582763671875" lon="-0.43485154397785663604736328125">
        <ele>1673.800048828125</ele>
        <time>2021-08-11T07:00:37.000Z</time>
      </trkpt>
      <trkpt lat="42.87024314515292644500732421875" lon="-0.4349354468286037445068359375">
        <ele>1674</ele>
        <time>2021-08-11T07:00:42.000Z</time>
      </trkpt>
      <trkpt lat="42.8702437318861484527587890625" lon="-0.43495480902493000030517578125">
        <ele>1674</ele>
        <time>2021-08-11T07:00:43.000Z</time>
      </trkpt>
      <trkpt lat="42.87023526616394519805908203125" lon="-0.43499059975147247314453125">
        <ele>1674.800048828125</ele>
        <time>2021-08-11T07:00:45.000Z</time>
      </trkpt>
      <trkpt lat="42.870239876210689544677734375" lon="-0.43500795029103755950927734375">
        <ele>1674.5999755859375</ele>
        <time>2021-08-11T07:00:46.000Z</time>
      </trkpt>
      <trkpt lat="42.87026703357696533203125" lon="-0.43505840934813022613525390625">
        <ele>1673.199951171875</ele>
        <time>2021-08-11T07:00:51.000Z</time>
      </trkpt>
      <trkpt lat="42.8702601604163646697998046875" lon="-0.43507316149771213531494140625">
        <ele>1673.5999755859375</ele>
        <time>2021-08-11T07:00:52.000Z</time>
      </trkpt>
      <trkpt lat="42.870247922837734222412109375" lon="-0.43510870076715946197509765625">
        <ele>1674.199951171875</ele>
        <time>2021-08-11T07:00:54.000Z</time>
      </trkpt>
      <trkpt lat="42.87025605328381061553955078125" lon="-0.43513015843927860260009765625">
        <ele>1673.800048828125</ele>
        <time>2021-08-11T07:00:55.000Z</time>
      </trkpt>
      <trkpt lat="42.87027399055659770965576171875" lon="-0.4351684637367725372314453125">
        <ele>1673</ele>
        <time>2021-08-11T07:00:57.000Z</time>
      </trkpt>
      <trkpt lat="42.8702836297452449798583984375" lon="-0.43519168160855770111083984375">
        <ele>1672.5999755859375</ele>
        <time>2021-08-11T07:00:59.000Z</time>
      </trkpt>
      <trkpt lat="42.8702832944691181182861328125" lon="-0.43521900661289691925048828125">
        <ele>1672.800048828125</ele>
        <time>2021-08-11T07:01:01.000Z</time>
      </trkpt>
      <trkpt lat="42.8702866472303867340087890625" lon="-0.43524348177015781402587890625">
        <ele>1672.5999755859375</ele>
        <time>2021-08-11T07:01:03.000Z</time>
      </trkpt>
      <trkpt lat="42.870289497077465057373046875" lon="-0.43525882065296173095703125">
        <ele>1672.5999755859375</ele>
        <time>2021-08-11T07:01:04.000Z</time>
      </trkpt>
      <trkpt lat="42.8702923469245433807373046875" lon="-0.43527533300220966339111328125">
        <ele>1672.4000244140625</ele>
        <time>2021-08-11T07:01:05.000Z</time>
      </trkpt>
      <trkpt lat="42.87031388841569423675537109375" lon="-0.43532378040254116058349609375">
        <ele>1671.199951171875</ele>
        <time>2021-08-11T07:01:09.000Z</time>
      </trkpt>
      <trkpt lat="42.8703241981565952301025390625" lon="-0.4353900812566280364990234375">
        <ele>1670.4000244140625</ele>
        <time>2021-08-11T07:01:15.000Z</time>
      </trkpt>
      <trkpt lat="42.870312966406345367431640625" lon="-0.4354175738990306854248046875">
        <ele>1670.800048828125</ele>
        <time>2021-08-11T07:01:17.000Z</time>
      </trkpt>
      <trkpt lat="42.8702806122601032257080078125" lon="-0.4354440607130527496337890625">
        <ele>1672.4000244140625</ele>
        <time>2021-08-11T07:01:20.000Z</time>
      </trkpt>
      <trkpt lat="42.87024356424808502197265625" lon="-0.4355023987591266632080078125">
        <ele>1674</ele>
        <time>2021-08-11T07:01:24.000Z</time>
      </trkpt>
      <trkpt lat="42.87021783180534839630126953125" lon="-0.435517989099025726318359375">
        <ele>1675.199951171875</ele>
        <time>2021-08-11T07:01:26.000Z</time>
      </trkpt>
      <trkpt lat="42.870211042463779449462890625" lon="-0.435548163950443267822265625">
        <ele>1675.4000244140625</ele>
        <time>2021-08-11T07:01:28.000Z</time>
      </trkpt>
      <trkpt lat="42.87019235081970691680908203125" lon="-0.43560407124459743499755859375">
        <ele>1675.800048828125</ele>
        <time>2021-08-11T07:01:31.000Z</time>
      </trkpt>
      <trkpt lat="42.870170809328556060791015625" lon="-0.43568772263824939727783203125">
        <ele>1676</ele>
        <time>2021-08-11T07:01:37.000Z</time>
      </trkpt>
      <trkpt lat="42.87017927505075931549072265625" lon="-0.43570599518716335296630859375">
        <ele>1675.4000244140625</ele>
        <time>2021-08-11T07:01:38.000Z</time>
      </trkpt>
      <trkpt lat="42.87018966861069202423095703125" lon="-0.43582736514508724212646484375">
        <ele>1673.800048828125</ele>
        <time>2021-08-11T07:01:44.000Z</time>
      </trkpt>
      <trkpt lat="42.87018480710685253143310546875" lon="-0.43586072511970996856689453125">
        <ele>1673.5999755859375</ele>
        <time>2021-08-11T07:01:46.000Z</time>
      </trkpt>
      <trkpt lat="42.87015982903540134429931640625" lon="-0.43589978478848934173583984375">
        <ele>1674.4000244140625</ele>
        <time>2021-08-11T07:01:48.000Z</time>
      </trkpt>
      <trkpt lat="42.87017256952822208404541015625" lon="-0.43596130795776844024658203125">
        <ele>1673.199951171875</ele>
        <time>2021-08-11T07:01:51.000Z</time>
      </trkpt>
      <trkpt lat="42.87017256952822208404541015625" lon="-0.4360093362629413604736328125">
        <ele>1672.5999755859375</ele>
        <time>2021-08-11T07:01:53.000Z</time>
      </trkpt>
      <trkpt lat="42.8701830469071865081787109375" lon="-0.4360680095851421356201171875">
        <ele>1671.5999755859375</ele>
        <time>2021-08-11T07:01:56.000Z</time>
      </trkpt>
      <trkpt lat="42.870171479880809783935546875" lon="-0.4360817559063434600830078125">
        <ele>1672</ele>
        <time>2021-08-11T07:01:57.000Z</time>
      </trkpt>
      <trkpt lat="42.87015899084508419036865234375" lon="-0.4361079074442386627197265625">
        <ele>1672.199951171875</ele>
        <time>2021-08-11T07:01:59.000Z</time>
      </trkpt>
      <trkpt lat="42.8701718151569366455078125" lon="-0.43619331903755664825439453125">
        <ele>1670.5999755859375</ele>
        <time>2021-08-11T07:02:03.000Z</time>
      </trkpt>
      <trkpt lat="42.8701880760490894317626953125" lon="-0.43625132180750370025634765625">
        <ele>1669.4000244140625</ele>
        <time>2021-08-11T07:02:07.000Z</time>
      </trkpt>
      <trkpt lat="42.87015798501670360565185546875" lon="-0.43630085885524749755859375">
        <ele>1670.199951171875</ele>
        <time>2021-08-11T07:02:10.000Z</time>
      </trkpt>
      <trkpt lat="42.870182208716869354248046875" lon="-0.43637805618345737457275390625">
        <ele>1668.199951171875</ele>
        <time>2021-08-11T07:02:14.000Z</time>
      </trkpt>
      <trkpt lat="42.8701967932283878326416015625" lon="-0.43640823103487491607666015625">
        <ele>1667.5999755859375</ele>
        <time>2021-08-11T07:02:16.000Z</time>
      </trkpt>
      <trkpt lat="42.870184890925884246826171875" lon="-0.43643270619213581085205078125">
        <ele>1668.199951171875</ele>
        <time>2021-08-11T07:02:18.000Z</time>
      </trkpt>
      <trkpt lat="42.87018380127847194671630859375" lon="-0.4364478774368762969970703125">
        <ele>1668.199951171875</ele>
        <time>2021-08-11T07:02:19.000Z</time>
      </trkpt>
      <trkpt lat="42.87019260227680206298828125" lon="-0.4365370608866214752197265625">
        <ele>1667.800048828125</ele>
        <time>2021-08-11T07:02:23.000Z</time>
      </trkpt>
      <trkpt lat="42.87018028087913990020751953125" lon="-0.4365635477006435394287109375">
        <ele>1668.4000244140625</ele>
        <time>2021-08-11T07:02:25.000Z</time>
      </trkpt>
      <trkpt lat="42.87011272273957729339599609375" lon="-0.43667393736541271209716796875">
        <ele>1671.5999755859375</ele>
        <time>2021-08-11T07:02:33.000Z</time>
      </trkpt>
      <trkpt lat="42.870094366371631622314453125" lon="-0.436710901558399200439453125">
        <ele>1672.4000244140625</ele>
        <time>2021-08-11T07:02:38.000Z</time>
      </trkpt>
      <trkpt lat="42.8700965456664562225341796875" lon="-0.43673344887793064117431640625">
        <ele>1672.199951171875</ele>
        <time>2021-08-11T07:02:41.000Z</time>
      </trkpt>
      <trkpt lat="42.870081961154937744140625" lon="-0.43678943999111652374267578125">
        <ele>1672.800048828125</ele>
        <time>2021-08-11T07:02:48.000Z</time>
      </trkpt>
      <trkpt lat="42.8700673766434192657470703125" lon="-0.43683939613401889801025390625">
        <ele>1673.4000244140625</ele>
        <time>2021-08-11T07:02:51.000Z</time>
      </trkpt>
      <trkpt lat="42.87006226368248462677001953125" lon="-0.43688398785889148712158203125">
        <ele>1673.5999755859375</ele>
        <time>2021-08-11T07:02:53.000Z</time>
      </trkpt>
      <trkpt lat="42.8700472600758075714111328125" lon="-0.436915419995784759521484375">
        <ele>1674.199951171875</ele>
        <time>2021-08-11T07:02:56.000Z</time>
      </trkpt>
      <trkpt lat="42.870041392743587493896484375" lon="-0.4369269870221614837646484375">
        <ele>1674.4000244140625</ele>
        <time>2021-08-11T07:02:57.000Z</time>
      </trkpt>
      <trkpt lat="42.87004248239099979400634765625" lon="-0.4369400627911090850830078125">
        <ele>1674.199951171875</ele>
        <time>2021-08-11T07:02:58.000Z</time>
      </trkpt>
      <trkpt lat="42.8700392134487628936767578125" lon="-0.43696478940546512603759765625">
        <ele>1674.199951171875</ele>
        <time>2021-08-11T07:03:00.000Z</time>
      </trkpt>
      <trkpt lat="42.869991771876811981201171875" lon="-0.437041483819484710693359375">
        <ele>1675.5999755859375</ele>
        <time>2021-08-11T07:03:05.000Z</time>
      </trkpt>
      <trkpt lat="42.86999470554292201995849609375" lon="-0.43714013881981372833251953125">
        <ele>1675.800048828125</ele>
        <time>2021-08-11T07:03:12.000Z</time>
      </trkpt>
      <trkpt lat="42.87000593729317188262939453125" lon="-0.43717768974602222442626953125">
        <ele>1675.5999755859375</ele>
        <time>2021-08-11T07:03:14.000Z</time>
      </trkpt>
      <trkpt lat="42.870023287832736968994140625" lon="-0.43720434419810771942138671875">
        <ele>1675.199951171875</ele>
        <time>2021-08-11T07:03:16.000Z</time>
      </trkpt>
      <trkpt lat="42.8700402192771434783935546875" lon="-0.43723024427890777587890625">
        <ele>1674.800048828125</ele>
        <time>2021-08-11T07:03:18.000Z</time>
      </trkpt>
      <trkpt lat="42.8700833022594451904296875" lon="-0.437308363616466522216796875">
        <ele>1673.5999755859375</ele>
        <time>2021-08-11T07:03:23.000Z</time>
      </trkpt>
      <trkpt lat="42.87010434083640575408935546875" lon="-0.43740819208323955535888671875">
        <ele>1673</ele>
        <time>2021-08-11T07:03:29.000Z</time>
      </trkpt>
      <trkpt lat="42.87012043409049510955810546875" lon="-0.43743568472564220428466796875">
        <ele>1672.4000244140625</ele>
        <time>2021-08-11T07:03:31.000Z</time>
      </trkpt>
      <trkpt lat="42.8701226972043514251708984375" lon="-0.4374516941606998443603515625">
        <ele>1672.4000244140625</ele>
        <time>2021-08-11T07:03:32.000Z</time>
      </trkpt>
      <trkpt lat="42.87015731446444988250732421875" lon="-0.43750894255936145782470703125">
        <ele>1671.199951171875</ele>
        <time>2021-08-11T07:03:36.000Z</time>
      </trkpt>
      <trkpt lat="42.87015496753156185150146484375" lon="-0.4376163147389888763427734375">
        <ele>1671.4000244140625</ele>
        <time>2021-08-11T07:03:43.000Z</time>
      </trkpt>
      <trkpt lat="42.8701589070260524749755859375" lon="-0.4376317374408245086669921875">
        <ele>1671.199951171875</ele>
        <time>2021-08-11T07:03:44.000Z</time>
      </trkpt>
      <trkpt lat="42.87022721953690052032470703125" lon="-0.43772854842245578765869140625">
        <ele>1669</ele>
        <time>2021-08-11T07:03:52.000Z</time>
      </trkpt>
      <trkpt lat="42.870269715785980224609375" lon="-0.43783013708889484405517578125">
        <ele>1667.4000244140625</ele>
        <time>2021-08-11T07:03:59.000Z</time>
      </trkpt>
      <trkpt lat="42.87025295197963714599609375" lon="-0.437925271689891815185546875">
        <ele>1667.199951171875</ele>
        <time>2021-08-11T07:04:04.000Z</time>
      </trkpt>
      <trkpt lat="42.87026661448180675506591796875" lon="-0.4379551112651824951171875">
        <ele>1666.4000244140625</ele>
        <time>2021-08-11T07:04:06.000Z</time>
      </trkpt>
      <trkpt lat="42.87030181847512722015380859375" lon="-0.43808494694530963897705078125">
        <ele>1663.5999755859375</ele>
        <time>2021-08-11T07:04:15.000Z</time>
      </trkpt>
      <trkpt lat="42.87029184401035308837890625" lon="-0.4382131062448024749755859375">
        <ele>1663.5999755859375</ele>
        <time>2021-08-11T07:04:23.000Z</time>
      </trkpt>
      <trkpt lat="42.8702843002974987030029296875" lon="-0.43824604712426662445068359375">
        <ele>1663.800048828125</ele>
        <time>2021-08-11T07:04:25.000Z</time>
      </trkpt>
      <trkpt lat="42.87029578350484371185302734375" lon="-0.438302792608737945556640625">
        <ele>1663.4000244140625</ele>
        <time>2021-08-11T07:04:29.000Z</time>
      </trkpt>
      <trkpt lat="42.8702943585813045501708984375" lon="-0.438318550586700439453125">
        <ele>1663.4000244140625</ele>
        <time>2021-08-11T07:04:30.000Z</time>
      </trkpt>
      <trkpt lat="42.87028740160167217254638671875" lon="-0.438404716551303863525390625">
        <ele>1662.800048828125</ele>
        <time>2021-08-11T07:04:36.000Z</time>
      </trkpt>
      <trkpt lat="42.8702732361853122711181640625" lon="-0.43854226358234882354736328125">
        <ele>1662.5999755859375</ele>
        <time>2021-08-11T07:04:44.000Z</time>
      </trkpt>
      <trkpt lat="42.8702759183943271636962890625" lon="-0.438561625778675079345703125">
        <ele>1662.4000244140625</ele>
        <time>2021-08-11T07:04:45.000Z</time>
      </trkpt>
      <trkpt lat="42.87026678211987018585205078125" lon="-0.43864033184945583343505859375">
        <ele>1661.199951171875</ele>
        <time>2021-08-11T07:04:50.000Z</time>
      </trkpt>
      <trkpt lat="42.87028622813522815704345703125" lon="-0.4387227259576320648193359375">
        <ele>1659</ele>
        <time>2021-08-11T07:04:58.000Z</time>
      </trkpt>
      <trkpt lat="42.87030751816928386688232421875" lon="-0.43879573233425617218017578125">
        <ele>1657.4000244140625</ele>
        <time>2021-08-11T07:05:06.000Z</time>
      </trkpt>
      <trkpt lat="42.87036434747278690338134765625" lon="-0.43881266377866268157958984375">
        <ele>1656.4000244140625</ele>
        <time>2021-08-11T07:05:12.000Z</time>
      </trkpt>
      <trkpt lat="42.870361916720867156982421875" lon="-0.43884200043976306915283203125">
        <ele>1655.800048828125</ele>
        <time>2021-08-11T07:05:19.000Z</time>
      </trkpt>
      <trkpt lat="42.87034691311419010162353515625" lon="-0.43888843618333339691162109375">
        <ele>1654.800048828125</ele>
        <time>2021-08-11T07:05:25.000Z</time>
      </trkpt>
      <trkpt lat="42.87030014209449291229248046875" lon="-0.43893671594560146331787109375">
        <ele>1653.4000244140625</ele>
        <time>2021-08-11T07:05:32.000Z</time>
      </trkpt>
      <trkpt lat="42.87028052844107151031494140625" lon="-0.438990108668804168701171875">
        <ele>1651.4000244140625</ele>
        <time>2021-08-11T07:05:39.000Z</time>
      </trkpt>
      <trkpt lat="42.8702306561172008514404296875" lon="-0.439009554684162139892578125">
        <ele>1651.199951171875</ele>
        <time>2021-08-11T07:05:46.000Z</time>
      </trkpt>
      <trkpt lat="42.87021045573055744171142578125" lon="-0.43901064433157444000244140625">
        <ele>1651.4000244140625</ele>
        <time>2021-08-11T07:05:52.000Z</time>
      </trkpt>
      <trkpt lat="42.87019067443907260894775390625" lon="-0.4390667192637920379638671875">
        <ele>1649.4000244140625</ele>
        <time>2021-08-11T07:05:59.000Z</time>
      </trkpt>
      <trkpt lat="42.87015077657997608184814453125" lon="-0.439067222177982330322265625">
        <ele>1649.800048828125</ele>
        <time>2021-08-11T07:06:05.000Z</time>
      </trkpt>
      <trkpt lat="42.8701169975101947784423828125" lon="-0.4390901885926723480224609375">
        <ele>1649.4000244140625</ele>
        <time>2021-08-11T07:06:13.000Z</time>
      </trkpt>
      <trkpt lat="42.870080955326557159423828125" lon="-0.43912363238632678985595703125">
        <ele>1648.199951171875</ele>
        <time>2021-08-11T07:06:18.000Z</time>
      </trkpt>
      <trkpt lat="42.870037369430065155029296875" lon="-0.43914643116295337677001953125">
        <ele>1647.199951171875</ele>
        <time>2021-08-11T07:06:24.000Z</time>
      </trkpt>
      <trkpt lat="42.86999906413257122039794921875" lon="-0.4391807131469249725341796875">
        <ele>1645.4000244140625</ele>
        <time>2021-08-11T07:06:32.000Z</time>
      </trkpt>
      <trkpt lat="42.8699245490133762359619140625" lon="-0.4392360337078571319580078125">
        <ele>1642.5999755859375</ele>
        <time>2021-08-11T07:06:40.000Z</time>
      </trkpt>
      <trkpt lat="42.86987635307013988494873046875" lon="-0.43925355188548564910888671875">
        <ele>1641.800048828125</ele>
        <time>2021-08-11T07:06:47.000Z</time>
      </trkpt>
      <trkpt lat="42.869797311723232269287109375" lon="-0.439241565763950347900390625">
        <ele>1642</ele>
        <time>2021-08-11T07:06:54.000Z</time>
      </trkpt>
      <trkpt lat="42.86971659399569034576416015625" lon="-0.4392157495021820068359375">
        <ele>1642.5999755859375</ele>
        <time>2021-08-11T07:07:02.000Z</time>
      </trkpt>
      <trkpt lat="42.86967904306948184967041015625" lon="-0.439237542450428009033203125">
        <ele>1641</ele>
        <time>2021-08-11T07:07:07.000Z</time>
      </trkpt>
      <trkpt lat="42.86966680549085140228271484375" lon="-0.43927718885242938995361328125">
        <ele>1638.800048828125</ele>
        <time>2021-08-11T07:07:12.000Z</time>
      </trkpt>
      <trkpt lat="42.86968541331589221954345703125" lon="-0.43934592045843601226806640625">
        <ele>1635.5999755859375</ele>
        <time>2021-08-11T07:07:17.000Z</time>
      </trkpt>
      <trkpt lat="42.86969966255128383636474609375" lon="-0.439381040632724761962890625">
        <ele>1634</ele>
        <time>2021-08-11T07:07:21.000Z</time>
      </trkpt>
      <trkpt lat="42.86973805166780948638916015625" lon="-0.4394509457051753997802734375">
        <ele>1631</ele>
        <time>2021-08-11T07:07:27.000Z</time>
      </trkpt>
      <trkpt lat="42.86980175413191318511962890625" lon="-0.43950316496193408966064453125">
        <ele>1628.800048828125</ele>
        <time>2021-08-11T07:07:34.000Z</time>
      </trkpt>
      <trkpt lat="42.869829833507537841796875" lon="-0.4395481757819652557373046875">
        <ele>1626.4000244140625</ele>
        <time>2021-08-11T07:07:40.000Z</time>
      </trkpt>
      <trkpt lat="42.86986939609050750732421875" lon="-0.43961204588413238525390625">
        <ele>1623</ele>
        <time>2021-08-11T07:07:46.000Z</time>
      </trkpt>
      <trkpt lat="42.86989714019000530242919921875" lon="-0.439618416130542755126953125">
        <ele>1622.800048828125</ele>
        <time>2021-08-11T07:07:52.000Z</time>
      </trkpt>
      <trkpt lat="42.8698766045272350311279296875" lon="-0.43960894457995891571044921875">
        <ele>1623.199951171875</ele>
        <time>2021-08-11T07:07:58.000Z</time>
      </trkpt>
      <trkpt lat="42.86984500475227832794189453125" lon="-0.439615733921527862548828125">
        <ele>1622.800048828125</ele>
        <time>2021-08-11T07:08:02.000Z</time>
      </trkpt>
      <trkpt lat="42.86983050405979156494140625" lon="-0.439631156623363494873046875">
        <ele>1622</ele>
        <time>2021-08-11T07:08:04.000Z</time>
      </trkpt>
      <trkpt lat="42.8697941266000270843505859375" lon="-0.4396366886794567108154296875">
        <ele>1621.5999755859375</ele>
        <time>2021-08-11T07:08:10.000Z</time>
      </trkpt>
      <trkpt lat="42.86977761425077915191650390625" lon="-0.43964113108813762664794921875">
        <ele>1621.4000244140625</ele>
        <time>2021-08-11T07:08:16.000Z</time>
      </trkpt>
      <trkpt lat="42.8697485290467739105224609375" lon="-0.43965362012386322021484375">
        <ele>1620.5999755859375</ele>
        <time>2021-08-11T07:08:22.000Z</time>
      </trkpt>
      <trkpt lat="42.8697190247476100921630859375" lon="-0.43966962955892086029052734375">
        <ele>1619.5999755859375</ele>
        <time>2021-08-11T07:08:28.000Z</time>
      </trkpt>
      <trkpt lat="42.8696673922240734100341796875" lon="-0.43966024182736873626708984375">
        <ele>1619.800048828125</ele>
        <time>2021-08-11T07:08:33.000Z</time>
      </trkpt>
      <trkpt lat="42.86963394843041896820068359375" lon="-0.43969209305942058563232421875">
        <ele>1618</ele>
        <time>2021-08-11T07:08:39.000Z</time>
      </trkpt>
      <trkpt lat="42.86956085823476314544677734375" lon="-0.43971237726509571075439453125">
        <ele>1616.800048828125</ele>
        <time>2021-08-11T07:08:43.000Z</time>
      </trkpt>
      <trkpt lat="42.86950486712157726287841796875" lon="-0.4397496767342090606689453125">
        <ele>1616.5999755859375</ele>
        <time>2021-08-11T07:08:48.000Z</time>
      </trkpt>
      <trkpt lat="42.86949791014194488525390625" lon="-0.43978127650916576385498046875">
        <ele>1615.5999755859375</ele>
        <time>2021-08-11T07:08:54.000Z</time>
      </trkpt>
      <trkpt lat="42.8695027716457843780517578125" lon="-0.43981061317026615142822265625">
        <ele>1614.4000244140625</ele>
        <time>2021-08-11T07:08:58.000Z</time>
      </trkpt>
      <trkpt lat="42.8695198707282543182373046875" lon="-0.43986291624605655670166015625">
        <ele>1612.199951171875</ele>
        <time>2021-08-11T07:09:02.000Z</time>
      </trkpt>
      <trkpt lat="42.8695567511022090911865234375" lon="-0.439875237643718719482421875">
        <ele>1611</ele>
        <time>2021-08-11T07:09:07.000Z</time>
      </trkpt>
      <trkpt lat="42.869561277329921722412109375" lon="-0.43989744968712329864501953125">
        <ele>1610.199951171875</ele>
        <time>2021-08-11T07:09:12.000Z</time>
      </trkpt>
      <trkpt lat="42.8695634566247463226318359375" lon="-0.43989828787744045257568359375">
        <ele>1610.199951171875</ele>
        <time>2021-08-11T07:09:17.000Z</time>
      </trkpt>
      <trkpt lat="42.869561277329921722412109375" lon="-0.43989510275423526763916015625">
        <ele>1610.199951171875</ele>
        <time>2021-08-11T07:09:30.000Z</time>
      </trkpt>
      <trkpt lat="42.86961316131055355072021484375" lon="-0.439953692257404327392578125">
        <ele>1608</ele>
        <time>2021-08-11T07:09:50.000Z</time>
      </trkpt>
      <trkpt lat="42.869647778570652008056640625" lon="-0.43998864479362964630126953125">
        <ele>1606.5999755859375</ele>
        <time>2021-08-11T07:09:53.000Z</time>
      </trkpt>
      <trkpt lat="42.869665883481502532958984375" lon="-0.44002049602568149566650390625">
        <ele>1605.5999755859375</ele>
        <time>2021-08-11T07:09:55.000Z</time>
      </trkpt>
      <trkpt lat="42.86967284046113491058349609375" lon="-0.44003591872751712799072265625">
        <ele>1605.199951171875</ele>
        <time>2021-08-11T07:09:56.000Z</time>
      </trkpt>
      <trkpt lat="42.86968256346881389617919921875" lon="-0.44004279188811779022216796875">
        <ele>1605</ele>
        <time>2021-08-11T07:09:57.000Z</time>
      </trkpt>
      <trkpt lat="42.8696925379335880279541015625" lon="-0.440070368349552154541015625">
        <ele>1604.199951171875</ele>
        <time>2021-08-11T07:10:01.000Z</time>
      </trkpt>
      <trkpt lat="42.8697274066507816314697265625" lon="-0.44006424956023693084716796875">
        <ele>1604.4000244140625</ele>
        <time>2021-08-11T07:10:07.000Z</time>
      </trkpt>
      <trkpt lat="42.8697587549686431884765625" lon="-0.4400507546961307525634765625">
        <ele>1604.5999755859375</ele>
        <time>2021-08-11T07:10:11.000Z</time>
      </trkpt>
      <trkpt lat="42.86976906470954418182373046875" lon="-0.44004446826875209808349609375">
        <ele>1604.5999755859375</ele>
        <time>2021-08-11T07:10:12.000Z</time>
      </trkpt>
      <trkpt lat="42.86979706026613712310791015625" lon="-0.44004656374454498291015625">
        <ele>1604</ele>
        <time>2021-08-11T07:10:17.000Z</time>
      </trkpt>
      <trkpt lat="42.869816757738590240478515625" lon="-0.44006642885506153106689453125">
        <ele>1602.800048828125</ele>
        <time>2021-08-11T07:10:23.000Z</time>
      </trkpt>
      <trkpt lat="42.869869731366634368896484375" lon="-0.44007414020597934722900390625">
        <ele>1602</ele>
        <time>2021-08-11T07:10:28.000Z</time>
      </trkpt>
      <trkpt lat="42.86993368528783321380615234375" lon="-0.44009325094521045684814453125">
        <ele>1600.800048828125</ele>
        <time>2021-08-11T07:10:32.000Z</time>
      </trkpt>
      <trkpt lat="42.869967631995677947998046875" lon="-0.440094172954559326171875">
        <ele>1600.5999755859375</ele>
        <time>2021-08-11T07:10:34.000Z</time>
      </trkpt>
      <trkpt lat="42.87003460340201854705810546875" lon="-0.4400598071515560150146484375">
        <ele>1601.4000244140625</ele>
        <time>2021-08-11T07:10:40.000Z</time>
      </trkpt>
      <trkpt lat="42.87002689205110073089599609375" lon="-0.4400742240250110626220703125">
        <ele>1600.800048828125</ele>
        <time>2021-08-11T07:10:47.000Z</time>
      </trkpt>
      <trkpt lat="42.86999805830419063568115234375" lon="-0.44011336751282215118408203125">
        <ele>1599.4000244140625</ele>
        <time>2021-08-11T07:10:53.000Z</time>
      </trkpt>
      <trkpt lat="42.86997023038566112518310546875" lon="-0.44013465754687786102294921875">
        <ele>1598.800048828125</ele>
        <time>2021-08-11T07:10:56.000Z</time>
      </trkpt>
      <trkpt lat="42.8699505329132080078125" lon="-0.44014723040163516998291015625">
        <ele>1598.4000244140625</ele>
        <time>2021-08-11T07:10:59.000Z</time>
      </trkpt>
      <trkpt lat="42.869905941188335418701171875" lon="-0.44017438776791095733642578125">
        <ele>1597.800048828125</ele>
        <time>2021-08-11T07:11:04.000Z</time>
      </trkpt>
      <trkpt lat="42.86987367086112499237060546875" lon="-0.44022501446306705474853515625">
        <ele>1596</ele>
        <time>2021-08-11T07:11:09.000Z</time>
      </trkpt>
      <trkpt lat="42.86985070444643497467041015625" lon="-0.4402502439916133880615234375">
        <ele>1595</ele>
        <time>2021-08-11T07:11:13.000Z</time>
      </trkpt>
      <trkpt lat="42.86982245743274688720703125" lon="-0.44029332697391510009765625">
        <ele>1594</ele>
        <time>2021-08-11T07:11:18.000Z</time>
      </trkpt>
      <trkpt lat="42.86982438527047634124755859375" lon="-0.4403012059628963470458984375">
        <ele>1593.800048828125</ele>
        <time>2021-08-11T07:11:23.000Z</time>
      </trkpt>
      <trkpt lat="42.869812734425067901611328125" lon="-0.4403236694633960723876953125">
        <ele>1593.4000244140625</ele>
        <time>2021-08-11T07:11:29.000Z</time>
      </trkpt>
      <trkpt lat="42.86978465504944324493408203125" lon="-0.44038209132850170135498046875">
        <ele>1592.4000244140625</ele>
        <time>2021-08-11T07:11:36.000Z</time>
      </trkpt>
      <trkpt lat="42.86979295313358306884765625" lon="-0.44043070636689662933349609375">
        <ele>1590.5999755859375</ele>
        <time>2021-08-11T07:11:42.000Z</time>
      </trkpt>
      <trkpt lat="42.86978867836296558380126953125" lon="-0.44049172662198543548583984375">
        <ele>1588.800048828125</ele>
        <time>2021-08-11T07:11:47.000Z</time>
      </trkpt>
      <trkpt lat="42.869834192097187042236328125" lon="-0.44054453261196613311767578125">
        <ele>1585.5999755859375</ele>
        <time>2021-08-11T07:11:53.000Z</time>
      </trkpt>
      <trkpt lat="42.86987568251788616180419921875" lon="-0.4405273497104644775390625">
        <ele>1585</ele>
        <time>2021-08-11T07:11:58.000Z</time>
      </trkpt>
      <trkpt lat="42.86987870000302791595458984375" lon="-0.44050647877156734466552734375">
        <ele>1585.800048828125</ele>
        <time>2021-08-11T07:12:02.000Z</time>
      </trkpt>
      <trkpt lat="42.869909964501857757568359375" lon="-0.440502874553203582763671875">
        <ele>1585</ele>
        <time>2021-08-11T07:12:06.000Z</time>
      </trkpt>
      <trkpt lat="42.86996888928115367889404296875" lon="-0.440510250627994537353515625">
        <ele>1582.5999755859375</ele>
        <time>2021-08-11T07:12:11.000Z</time>
      </trkpt>
      <trkpt lat="42.87004147656261920928955078125" lon="-0.44052391313016414642333984375">
        <ele>1579.5999755859375</ele>
        <time>2021-08-11T07:12:17.000Z</time>
      </trkpt>
      <trkpt lat="42.87004600279033184051513671875" lon="-0.44053195975720882415771484375">
        <ele>1579.199951171875</ele>
        <time>2021-08-11T07:12:18.000Z</time>
      </trkpt>
      <trkpt lat="42.8700600005686283111572265625" lon="-0.440555512905120849609375">
        <ele>1578</ele>
        <time>2021-08-11T07:12:21.000Z</time>
      </trkpt>
      <trkpt lat="42.87008221261203289031982421875" lon="-0.44062726199626922607421875">
        <ele>1575.4000244140625</ele>
        <time>2021-08-11T07:12:27.000Z</time>
      </trkpt>
      <trkpt lat="42.87008506245911121368408203125" lon="-0.440654754638671875">
        <ele>1574.4000244140625</ele>
        <time>2021-08-11T07:12:29.000Z</time>
      </trkpt>
      <trkpt lat="42.87009813822805881500244140625" lon="-0.4406641423702239990234375">
        <ele>1573.5999755859375</ele>
        <time>2021-08-11T07:12:32.000Z</time>
      </trkpt>
      <trkpt lat="42.8701703064143657684326171875" lon="-0.44068551622331142425537109375">
        <ele>1573</ele>
        <time>2021-08-11T07:12:38.000Z</time>
      </trkpt>
      <trkpt lat="42.87018321454524993896484375" lon="-0.44068953953683376312255859375">
        <ele>1573</ele>
        <time>2021-08-11T07:12:39.000Z</time>
      </trkpt>
      <trkpt lat="42.870206348598003387451171875" lon="-0.4407229833304882049560546875">
        <ele>1572</ele>
        <time>2021-08-11T07:12:42.000Z</time>
      </trkpt>
      <trkpt lat="42.87021129392087459564208984375" lon="-0.4407333768904209136962890625">
        <ele>1571.5999755859375</ele>
        <time>2021-08-11T07:12:43.000Z</time>
      </trkpt>
      <trkpt lat="42.87023208104074001312255859375" lon="-0.440738238394260406494140625">
        <ele>1571.199951171875</ele>
        <time>2021-08-11T07:12:45.000Z</time>
      </trkpt>
      <trkpt lat="42.87025806494057178497314453125" lon="-0.4407575167715549468994140625">
        <ele>1570.199951171875</ele>
        <time>2021-08-11T07:12:48.000Z</time>
      </trkpt>
      <trkpt lat="42.87034674547612667083740234375" lon="-0.44077604077756404876708984375">
        <ele>1568.800048828125</ele>
        <time>2021-08-11T07:12:54.000Z</time>
      </trkpt>
      <trkpt lat="42.87043291144073009490966796875" lon="-0.44082147069275379180908203125">
        <ele>1567.5999755859375</ele>
        <time>2021-08-11T07:13:00.000Z</time>
      </trkpt>
      <trkpt lat="42.8705018945038318634033203125" lon="-0.440836809575557708740234375">
        <ele>1568</ele>
        <time>2021-08-11T07:13:04.000Z</time>
      </trkpt>
      <trkpt lat="42.8705015592277050018310546875" lon="-0.440846197307109832763671875">
        <ele>1567.5999755859375</ele>
        <time>2021-08-11T07:13:06.000Z</time>
      </trkpt>
      <trkpt lat="42.87049627862870693206787109375" lon="-0.44084720313549041748046875">
        <ele>1567.5999755859375</ele>
        <time>2021-08-11T07:13:07.000Z</time>
      </trkpt>
      <trkpt lat="42.87049845792353153228759765625" lon="-0.4408440180122852325439453125">
        <ele>1567.800048828125</ele>
        <time>2021-08-11T07:13:09.000Z</time>
      </trkpt>
      <trkpt lat="42.87049929611384868621826171875" lon="-0.44086036272346973419189453125">
        <ele>1567.199951171875</ele>
        <time>2021-08-11T07:13:11.000Z</time>
      </trkpt>
      <trkpt lat="42.87049435079097747802734375" lon="-0.44086396694183349609375">
        <ele>1567</ele>
        <time>2021-08-11T07:13:15.000Z</time>
      </trkpt>
      <trkpt lat="42.870445735752582550048828125" lon="-0.440887771546840667724609375">
        <ele>1565.4000244140625</ele>
        <time>2021-08-11T07:13:23.000Z</time>
      </trkpt>
      <trkpt lat="42.8704365156590938568115234375" lon="-0.44090344570577144622802734375">
        <ele>1564.5999755859375</ele>
        <time>2021-08-11T07:13:27.000Z</time>
      </trkpt>
      <trkpt lat="42.870380021631717681884765625" lon="-0.4409794695675373077392578125">
        <ele>1561.199951171875</ele>
        <time>2021-08-11T07:13:34.000Z</time>
      </trkpt>
      <trkpt lat="42.870373986661434173583984375" lon="-0.441015847027301788330078125">
        <ele>1560</ele>
        <time>2021-08-11T07:13:37.000Z</time>
      </trkpt>
      <trkpt lat="42.8703684546053409576416015625" lon="-0.441045351326465606689453125">
        <ele>1559.199951171875</ele>
        <time>2021-08-11T07:13:41.000Z</time>
      </trkpt>
      <trkpt lat="42.87035898305475711822509765625" lon="-0.441084913909435272216796875">
        <ele>1558</ele>
        <time>2021-08-11T07:13:47.000Z</time>
      </trkpt>
      <trkpt lat="42.87032076157629489898681640625" lon="-0.44114165939390659332275390625">
        <ele>1557.800048828125</ele>
        <time>2021-08-11T07:13:53.000Z</time>
      </trkpt>
      <trkpt lat="42.87026577629148960113525390625" lon="-0.44122363440692424774169921875">
        <ele>1558</ele>
        <time>2021-08-11T07:13:59.000Z</time>
      </trkpt>
      <trkpt lat="42.8702360205352306365966796875" lon="-0.44135070405900478363037109375">
        <ele>1556.5999755859375</ele>
        <time>2021-08-11T07:14:06.000Z</time>
      </trkpt>
      <trkpt lat="42.8702120482921600341796875" lon="-0.44143636710941791534423828125">
        <ele>1555.800048828125</ele>
        <time>2021-08-11T07:14:11.000Z</time>
      </trkpt>
      <trkpt lat="42.870205342769622802734375" lon="-0.44147475622594356536865234375">
        <ele>1555.199951171875</ele>
        <time>2021-08-11T07:14:14.000Z</time>
      </trkpt>
      <trkpt lat="42.87025337107479572296142578125" lon="-0.44154055416584014892578125">
        <ele>1553</ele>
        <time>2021-08-11T07:14:20.000Z</time>
      </trkpt>
      <trkpt lat="42.87026812322437763214111328125" lon="-0.44156360439956188201904296875">
        <ele>1552.4000244140625</ele>
        <time>2021-08-11T07:14:22.000Z</time>
      </trkpt>
      <trkpt lat="42.8702819533646106719970703125" lon="-0.44158841483294963836669921875">
        <ele>1551.800048828125</ele>
        <time>2021-08-11T07:14:24.000Z</time>
      </trkpt>
      <trkpt lat="42.87028891034424304962158203125" lon="-0.44160417281091213226318359375">
        <ele>1551.4000244140625</ele>
        <time>2021-08-11T07:14:25.000Z</time>
      </trkpt>
      <trkpt lat="42.8702886588871479034423828125" lon="-0.44164038263261318206787109375">
        <ele>1551</ele>
        <time>2021-08-11T07:14:27.000Z</time>
      </trkpt>
      <trkpt lat="42.8702898323535919189453125" lon="-0.44167332351207733154296875">
        <ele>1550.5999755859375</ele>
        <time>2021-08-11T07:14:29.000Z</time>
      </trkpt>
      <trkpt lat="42.8702853061258792877197265625" lon="-0.441691093146800994873046875">
        <ele>1550.4000244140625</ele>
        <time>2021-08-11T07:14:30.000Z</time>
      </trkpt>
      <trkpt lat="42.87028849124908447265625" lon="-0.44171615503728389739990234375">
        <ele>1550</ele>
        <time>2021-08-11T07:14:32.000Z</time>
      </trkpt>
      <trkpt lat="42.87029092200100421905517578125" lon="-0.44177063740789890289306640625">
        <ele>1549.4000244140625</ele>
        <time>2021-08-11T07:14:36.000Z</time>
      </trkpt>
      <trkpt lat="42.870323024690151214599609375" lon="-0.44180215336382389068603515625">
        <ele>1548.4000244140625</ele>
        <time>2021-08-11T07:14:40.000Z</time>
      </trkpt>
      <trkpt lat="42.87033702246844768524169921875" lon="-0.44182813726365566253662109375">
        <ele>1547.800048828125</ele>
        <time>2021-08-11T07:14:42.000Z</time>
      </trkpt>
      <trkpt lat="42.87033685483038425445556640625" lon="-0.44184557162225246429443359375">
        <ele>1547.5999755859375</ele>
        <time>2021-08-11T07:14:43.000Z</time>
      </trkpt>
      <trkpt lat="42.87034146487712860107421875" lon="-0.4418790154159069061279296875">
        <ele>1547.199951171875</ele>
        <time>2021-08-11T07:14:46.000Z</time>
      </trkpt>
      <trkpt lat="42.87034825421869754791259765625" lon="-0.44188882224261760711669921875">
        <ele>1547</ele>
        <time>2021-08-11T07:14:47.000Z</time>
      </trkpt>
      <trkpt lat="42.87035848014056682586669921875" lon="-0.44190935790538787841796875">
        <ele>1546.5999755859375</ele>
        <time>2021-08-11T07:14:49.000Z</time>
      </trkpt>
      <trkpt lat="42.87037432193756103515625" lon="-0.44192318804562091827392578125">
        <ele>1546.199951171875</ele>
        <time>2021-08-11T07:14:51.000Z</time>
      </trkpt>
      <trkpt lat="42.87040575407445430755615234375" lon="-0.441939197480678558349609375">
        <ele>1545.199951171875</ele>
        <time>2021-08-11T07:14:54.000Z</time>
      </trkpt>
      <trkpt lat="42.87041028030216693878173828125" lon="-0.4419510997831821441650390625">
        <ele>1545</ele>
        <time>2021-08-11T07:14:55.000Z</time>
      </trkpt>
      <trkpt lat="42.8704070113599300384521484375" lon="-0.44197750277817249298095703125">
        <ele>1544.800048828125</ele>
        <time>2021-08-11T07:14:57.000Z</time>
      </trkpt>
      <trkpt lat="42.87040642462670803070068359375" lon="-0.44198856689035892486572265625">
        <ele>1544.5999755859375</ele>
        <time>2021-08-11T07:14:58.000Z</time>
      </trkpt>
      <trkpt lat="42.870410196483135223388671875" lon="-0.44202678836882114410400390625">
        <ele>1544.199951171875</ele>
        <time>2021-08-11T07:15:01.000Z</time>
      </trkpt>
      <trkpt lat="42.8704346716403961181640625" lon="-0.44204212725162506103515625">
        <ele>1543.4000244140625</ele>
        <time>2021-08-11T07:15:03.000Z</time>
      </trkpt>
      <trkpt lat="42.8704415448009967803955078125" lon="-0.44206115417182445526123046875">
        <ele>1543</ele>
        <time>2021-08-11T07:15:05.000Z</time>
      </trkpt>
      <trkpt lat="42.8704428859055042266845703125" lon="-0.44209149666130542755126953125">
        <ele>1542.5999755859375</ele>
        <time>2021-08-11T07:15:07.000Z</time>
      </trkpt>
      <trkpt lat="42.87044531665742397308349609375" lon="-0.44210675172507762908935546875">
        <ele>1542.4000244140625</ele>
        <time>2021-08-11T07:15:08.000Z</time>
      </trkpt>
      <trkpt lat="42.87044246681034564971923828125" lon="-0.44214136898517608642578125">
        <ele>1542.199951171875</ele>
        <time>2021-08-11T07:15:11.000Z</time>
      </trkpt>
      <trkpt lat="42.87043861113488674163818359375" lon="-0.44215972535312175750732421875">
        <ele>1542</ele>
        <time>2021-08-11T07:15:12.000Z</time>
      </trkpt>
      <trkpt lat="42.870442382991313934326171875" lon="-0.4421884752810001373291015625">
        <ele>1541.800048828125</ele>
        <time>2021-08-11T07:15:14.000Z</time>
      </trkpt>
      <trkpt lat="42.87044917233288288116455078125" lon="-0.44222183525562286376953125">
        <ele>1541.4000244140625</ele>
        <time>2021-08-11T07:15:17.000Z</time>
      </trkpt>
      <trkpt lat="42.87050231359899044036865234375" lon="-0.442251004278659820556640625">
        <ele>1539.800048828125</ele>
        <time>2021-08-11T07:15:21.000Z</time>
      </trkpt>
      <trkpt lat="42.87052519619464874267578125" lon="-0.44227145612239837646484375">
        <ele>1539.199951171875</ele>
        <time>2021-08-11T07:15:23.000Z</time>
      </trkpt>
      <trkpt lat="42.870532236993312835693359375" lon="-0.4422920756042003631591796875">
        <ele>1538.800048828125</ele>
        <time>2021-08-11T07:15:25.000Z</time>
      </trkpt>
      <trkpt lat="42.8705602325499057769775390625" lon="-0.4423256032168865203857421875">
        <ele>1538</ele>
        <time>2021-08-11T07:15:30.000Z</time>
      </trkpt>
      <trkpt lat="42.87060205824673175811767578125" lon="-0.44232803396880626678466796875">
        <ele>1537.4000244140625</ele>
        <time>2021-08-11T07:15:33.000Z</time>
      </trkpt>
      <trkpt lat="42.8706138767302036285400390625" lon="-0.44232845306396484375">
        <ele>1537.199951171875</ele>
        <time>2021-08-11T07:15:34.000Z</time>
      </trkpt>
      <trkpt lat="42.8707023896276950836181640625" lon="-0.44234680943191051483154296875">
        <ele>1535.800048828125</ele>
        <time>2021-08-11T07:15:40.000Z</time>
      </trkpt>
      <trkpt lat="42.87070867605507373809814453125" lon="-0.4423524253070354461669921875">
        <ele>1535.5999755859375</ele>
        <time>2021-08-11T07:15:41.000Z</time>
      </trkpt>
      <trkpt lat="42.87076852284371852874755859375" lon="-0.4423628188669681549072265625">
        <ele>1534.4000244140625</ele>
        <time>2021-08-11T07:15:47.000Z</time>
      </trkpt>
      <trkpt lat="42.87076835520565509796142578125" lon="-0.44242970645427703857421875">
        <ele>1533.199951171875</ele>
        <time>2021-08-11T07:15:51.000Z</time>
      </trkpt>
      <trkpt lat="42.87075846455991268157958984375" lon="-0.44246189296245574951171875">
        <ele>1532.800048828125</ele>
        <time>2021-08-11T07:15:54.000Z</time>
      </trkpt>
      <trkpt lat="42.87074605934321880340576171875" lon="-0.44248343445360660552978515625">
        <ele>1532.800048828125</ele>
        <time>2021-08-11T07:15:56.000Z</time>
      </trkpt>
      <trkpt lat="42.87070884369313716888427734375" lon="-0.4425519146025180816650390625">
        <ele>1533.199951171875</ele>
        <time>2021-08-11T07:16:03.000Z</time>
      </trkpt>
      <trkpt lat="42.87066609598696231842041015625" lon="-0.44262173585593700408935546875">
        <ele>1533.800048828125</ele>
        <time>2021-08-11T07:16:09.000Z</time>
      </trkpt>
      <trkpt lat="42.87066659890115261077880859375" lon="-0.442635901272296905517578125">
        <ele>1533.5999755859375</ele>
        <time>2021-08-11T07:16:10.000Z</time>
      </trkpt>
      <trkpt lat="42.87066374905407428741455078125" lon="-0.44266280718147754669189453125">
        <ele>1533.199951171875</ele>
        <time>2021-08-11T07:16:12.000Z</time>
      </trkpt>
      <trkpt lat="42.87063784897327423095703125" lon="-0.44269784353673458099365234375">
        <ele>1533.199951171875</ele>
        <time>2021-08-11T07:16:15.000Z</time>
      </trkpt>
      <trkpt lat="42.87062804214656352996826171875" lon="-0.44271980412304401397705078125">
        <ele>1533</ele>
        <time>2021-08-11T07:16:17.000Z</time>
      </trkpt>
      <trkpt lat="42.8706239350140094757080078125" lon="-0.442725084722042083740234375">
        <ele>1533</ele>
        <time>2021-08-11T07:16:19.000Z</time>
      </trkpt>
      <trkpt lat="42.87061664275825023651123046875" lon="-0.44280328787863254547119140625">
        <ele>1531.4000244140625</ele>
        <time>2021-08-11T07:16:25.000Z</time>
      </trkpt>
      <trkpt lat="42.87063407711684703826904296875" lon="-0.44283547438681125640869140625">
        <ele>1530.199951171875</ele>
        <time>2021-08-11T07:16:28.000Z</time>
      </trkpt>
      <trkpt lat="42.8706333227455615997314453125" lon="-0.4428714327514171600341796875">
        <ele>1529.199951171875</ele>
        <time>2021-08-11T07:16:30.000Z</time>
      </trkpt>
      <trkpt lat="42.8706353344023227691650390625" lon="-0.44296623207628726959228515625">
        <ele>1526.4000244140625</ele>
        <time>2021-08-11T07:16:35.000Z</time>
      </trkpt>
      <trkpt lat="42.87060054950416088104248046875" lon="-0.443023480474948883056640625">
        <ele>1525.4000244140625</ele>
        <time>2021-08-11T07:16:40.000Z</time>
      </trkpt>
      <trkpt lat="42.870599962770938873291015625" lon="-0.44303714297711849212646484375">
        <ele>1525</ele>
        <time>2021-08-11T07:16:41.000Z</time>
      </trkpt>
      <trkpt lat="42.870596610009670257568359375" lon="-0.4430759511888027191162109375">
        <ele>1523.800048828125</ele>
        <time>2021-08-11T07:16:43.000Z</time>
      </trkpt>
      <trkpt lat="42.87059334106743335723876953125" lon="-0.44312330894172191619873046875">
        <ele>1522.199951171875</ele>
        <time>2021-08-11T07:16:46.000Z</time>
      </trkpt>
      <trkpt lat="42.87058697082102298736572265625" lon="-0.443209223449230194091796875">
        <ele>1519.199951171875</ele>
        <time>2021-08-11T07:16:51.000Z</time>
      </trkpt>
      <trkpt lat="42.87056601606309413909912109375" lon="-0.44321970082819461822509765625">
        <ele>1519.199951171875</ele>
        <time>2021-08-11T07:16:54.000Z</time>
      </trkpt>
      <trkpt lat="42.87055662833154201507568359375" lon="-0.4432301782071590423583984375">
        <ele>1519</ele>
        <time>2021-08-11T07:16:56.000Z</time>
      </trkpt>
      <trkpt lat="42.87048622034490108489990234375" lon="-0.44332045130431652069091796875">
        <ele>1517</ele>
        <time>2021-08-11T07:17:04.000Z</time>
      </trkpt>
      <trkpt lat="42.8704462386667728424072265625" lon="-0.44337828643620014190673828125">
        <ele>1515.5999755859375</ele>
        <time>2021-08-11T07:17:11.000Z</time>
      </trkpt>
      <trkpt lat="42.87043240852653980255126953125" lon="-0.44338046573102474212646484375">
        <ele>1515.800048828125</ele>
        <time>2021-08-11T07:17:12.000Z</time>
      </trkpt>
      <trkpt lat="42.87038831971585750579833984375" lon="-0.4434236325323581695556640625">
        <ele>1515</ele>
        <time>2021-08-11T07:17:15.000Z</time>
      </trkpt>
      <trkpt lat="42.87035311572253704071044921875" lon="-0.4434387199580669403076171875">
        <ele>1514.5999755859375</ele>
        <time>2021-08-11T07:17:20.000Z</time>
      </trkpt>
      <trkpt lat="42.87031590007245540618896484375" lon="-0.4434635303914546966552734375">
        <ele>1513.800048828125</ele>
        <time>2021-08-11T07:17:23.000Z</time>
      </trkpt>
      <trkpt lat="42.87030299194157123565673828125" lon="-0.4434665478765964508056640625">
        <ele>1513.5999755859375</ele>
        <time>2021-08-11T07:17:24.000Z</time>
      </trkpt>
      <trkpt lat="42.87029989063739776611328125" lon="-0.44345355592668056488037109375">
        <ele>1514.199951171875</ele>
        <time>2021-08-11T07:17:28.000Z</time>
      </trkpt>
      <trkpt lat="42.87026158533990383148193359375" lon="-0.44346445240080356597900390625">
        <ele>1513.800048828125</ele>
        <time>2021-08-11T07:17:32.000Z</time>
      </trkpt>
      <trkpt lat="42.87023996002972126007080078125" lon="-0.443465709686279296875">
        <ele>1513.5999755859375</ele>
        <time>2021-08-11T07:17:35.000Z</time>
      </trkpt>
      <trkpt lat="42.87012881599366664886474609375" lon="-0.44350736774504184722900390625">
        <ele>1512.199951171875</ele>
        <time>2021-08-11T07:17:43.000Z</time>
      </trkpt>
      <trkpt lat="42.87008129060268402099609375" lon="-0.44354542158544063568115234375">
        <ele>1510.800048828125</ele>
        <time>2021-08-11T07:17:48.000Z</time>
      </trkpt>
      <trkpt lat="42.87008187733590602874755859375" lon="-0.4435631074011325836181640625">
        <ele>1510.199951171875</ele>
        <time>2021-08-11T07:17:52.000Z</time>
      </trkpt>
      <trkpt lat="42.87007500417530536651611328125" lon="-0.44357911683619022369384765625">
        <ele>1509.5999755859375</ele>
        <time>2021-08-11T07:17:55.000Z</time>
      </trkpt>
      <trkpt lat="42.8700724057853221893310546875" lon="-0.443594790995121002197265625">
        <ele>1509</ele>
        <time>2021-08-11T07:17:57.000Z</time>
      </trkpt>
      <trkpt lat="42.870096378028392791748046875" lon="-0.443610884249210357666015625">
        <ele>1508.5999755859375</ele>
        <time>2021-08-11T07:18:02.000Z</time>
      </trkpt>
      <trkpt lat="42.8701273910701274871826171875" lon="-0.4435986466705799102783203125">
        <ele>1509</ele>
        <time>2021-08-11T07:18:07.000Z</time>
      </trkpt>
      <trkpt lat="42.87015547044575214385986328125" lon="-0.4436023347079753875732421875">
        <ele>1508.800048828125</ele>
        <time>2021-08-11T07:18:09.000Z</time>
      </trkpt>
      <trkpt lat="42.87017458118498325347900390625" lon="-0.44361096806824207305908203125">
        <ele>1508.5999755859375</ele>
        <time>2021-08-11T07:18:11.000Z</time>
      </trkpt>
      <trkpt lat="42.87021364085376262664794921875" lon="-0.44363292865455150604248046875">
        <ele>1508</ele>
        <time>2021-08-11T07:18:18.000Z</time>
      </trkpt>
      <trkpt lat="42.8702393732964992523193359375" lon="-0.44369059614837169647216796875">
        <ele>1506.199951171875</ele>
        <time>2021-08-11T07:18:25.000Z</time>
      </trkpt>
      <trkpt lat="42.8702165745198726654052734375" lon="-0.44374398887157440185546875">
        <ele>1504.800048828125</ele>
        <time>2021-08-11T07:18:30.000Z</time>
      </trkpt>
      <trkpt lat="42.87019318901002407073974609375" lon="-0.44374826364219188690185546875">
        <ele>1504.5999755859375</ele>
        <time>2021-08-11T07:18:34.000Z</time>
      </trkpt>
      <trkpt lat="42.87017374299466609954833984375" lon="-0.4437647759914398193359375">
        <ele>1504.199951171875</ele>
        <time>2021-08-11T07:18:40.000Z</time>
      </trkpt>
      <trkpt lat="42.870178520679473876953125" lon="-0.4437942802906036376953125">
        <ele>1503.199951171875</ele>
        <time>2021-08-11T07:18:42.000Z</time>
      </trkpt>
      <trkpt lat="42.870166115462779998779296875" lon="-0.44380190782248973846435546875">
        <ele>1503</ele>
        <time>2021-08-11T07:18:43.000Z</time>
      </trkpt>
      <trkpt lat="42.8701555542647838592529296875" lon="-0.4438185878098011016845703125">
        <ele>1502.5999755859375</ele>
        <time>2021-08-11T07:18:44.000Z</time>
      </trkpt>
      <trkpt lat="42.87015161477029323577880859375" lon="-0.44384432025253772735595703125">
        <ele>1502</ele>
        <time>2021-08-11T07:18:46.000Z</time>
      </trkpt>
      <trkpt lat="42.87015127949416637420654296875" lon="-0.4438412189483642578125">
        <ele>1502</ele>
        <time>2021-08-11T07:18:47.000Z</time>
      </trkpt>
      <trkpt lat="42.87013828754425048828125" lon="-0.44382001273334026336669921875">
        <ele>1502.5999755859375</ele>
        <time>2021-08-11T07:18:50.000Z</time>
      </trkpt>
      <trkpt lat="42.87012755870819091796875" lon="-0.4438306577503681182861328125">
        <ele>1502.199951171875</ele>
        <time>2021-08-11T07:18:51.000Z</time>
      </trkpt>
      <trkpt lat="42.8701237030327320098876953125" lon="-0.44384767301380634307861328125">
        <ele>1501.800048828125</ele>
        <time>2021-08-11T07:18:52.000Z</time>
      </trkpt>
      <trkpt lat="42.8701277263462543487548828125" lon="-0.44391422532498836517333984375">
        <ele>1500.800048828125</ele>
        <time>2021-08-11T07:18:56.000Z</time>
      </trkpt>
      <trkpt lat="42.8701119683682918548583984375" lon="-0.4439543746411800384521484375">
        <ele>1500.199951171875</ele>
        <time>2021-08-11T07:19:01.000Z</time>
      </trkpt>
      <trkpt lat="42.8700972162187099456787109375" lon="-0.44395831413567066192626953125">
        <ele>1500</ele>
        <time>2021-08-11T07:19:02.000Z</time>
      </trkpt>
      <trkpt lat="42.8700848110020160675048828125" lon="-0.44398094527423381805419921875">
        <ele>1499.800048828125</ele>
        <time>2021-08-11T07:19:06.000Z</time>
      </trkpt>
      <trkpt lat="42.87005715072154998779296875" lon="-0.44403358362615108489990234375">
        <ele>1499.199951171875</ele>
        <time>2021-08-11T07:19:11.000Z</time>
      </trkpt>
      <trkpt lat="42.86997777409851551055908203125" lon="-0.4440831206738948822021484375">
        <ele>1498.199951171875</ele>
        <time>2021-08-11T07:19:19.000Z</time>
      </trkpt>
      <trkpt lat="42.869963943958282470703125" lon="-0.44411187060177326202392578125">
        <ele>1498</ele>
        <time>2021-08-11T07:19:21.000Z</time>
      </trkpt>
      <trkpt lat="42.8699523769319057464599609375" lon="-0.44415579177439212799072265625">
        <ele>1497.4000244140625</ele>
        <time>2021-08-11T07:19:24.000Z</time>
      </trkpt>
      <trkpt lat="42.8699718229472637176513671875" lon="-0.44429074041545391082763671875">
        <ele>1496.5999755859375</ele>
        <time>2021-08-11T07:19:30.000Z</time>
      </trkpt>
      <trkpt lat="42.86992446519434452056884765625" lon="-0.44443239457905292510986328125">
        <ele>1495.4000244140625</ele>
        <time>2021-08-11T07:19:36.000Z</time>
      </trkpt>
      <trkpt lat="42.86993418820202350616455078125" lon="-0.444524846971035003662109375">
        <ele>1494.4000244140625</ele>
        <time>2021-08-11T07:19:43.000Z</time>
      </trkpt>
      <trkpt lat="42.8699456714093685150146484375" lon="-0.4445813409984111785888671875">
        <ele>1493.800048828125</ele>
        <time>2021-08-11T07:19:47.000Z</time>
      </trkpt>
      <trkpt lat="42.86994986236095428466796875" lon="-0.44460120610892772674560546875">
        <ele>1493.5999755859375</ele>
        <time>2021-08-11T07:19:49.000Z</time>
      </trkpt>
      <trkpt lat="42.86993787623941898345947265625" lon="-0.44474713504314422607421875">
        <ele>1491.800048828125</ele>
        <time>2021-08-11T07:19:55.000Z</time>
      </trkpt>
      <trkpt lat="42.86991775967180728912353515625" lon="-0.444831959903240203857421875">
        <ele>1490.5999755859375</ele>
        <time>2021-08-11T07:19:59.000Z</time>
      </trkpt>
      <trkpt lat="42.86991222761571407318115234375" lon="-0.4448522441089153289794921875">
        <ele>1490.199951171875</ele>
        <time>2021-08-11T07:20:00.000Z</time>
      </trkpt>
      <trkpt lat="42.869907282292842864990234375" lon="-0.44490940868854522705078125">
        <ele>1489.4000244140625</ele>
        <time>2021-08-11T07:20:04.000Z</time>
      </trkpt>
      <trkpt lat="42.86987769417464733123779296875" lon="-0.4449793137609958648681640625">
        <ele>1488</ele>
        <time>2021-08-11T07:20:09.000Z</time>
      </trkpt>
      <trkpt lat="42.86985171027481555938720703125" lon="-0.44509523548185825347900390625">
        <ele>1485.5999755859375</ele>
        <time>2021-08-11T07:20:15.000Z</time>
      </trkpt>
      <trkpt lat="42.8697947971522808074951171875" lon="-0.44517695903778076171875">
        <ele>1484.199951171875</ele>
        <time>2021-08-11T07:20:21.000Z</time>
      </trkpt>
      <trkpt lat="42.86975833587348461151123046875" lon="-0.4451932199299335479736328125">
        <ele>1484.199951171875</ele>
        <time>2021-08-11T07:20:25.000Z</time>
      </trkpt>
      <trkpt lat="42.86972128786146640777587890625" lon="-0.44524862430989742279052734375">
        <ele>1483.4000244140625</ele>
        <time>2021-08-11T07:20:30.000Z</time>
      </trkpt>
      <trkpt lat="42.869694717228412628173828125" lon="-0.44532422907650470733642578125">
        <ele>1482.199951171875</ele>
        <time>2021-08-11T07:20:34.000Z</time>
      </trkpt>
      <trkpt lat="42.8696824796497821807861328125" lon="-0.44535205699503421783447265625">
        <ele>1482</ele>
        <time>2021-08-11T07:20:36.000Z</time>
      </trkpt>
      <trkpt lat="42.86968055181205272674560546875" lon="-0.44543487019836902618408203125">
        <ele>1480.5999755859375</ele>
        <time>2021-08-11T07:20:42.000Z</time>
      </trkpt>
      <trkpt lat="42.8696539811789989471435546875" lon="-0.44548633508384227752685546875">
        <ele>1480</ele>
        <time>2021-08-11T07:20:45.000Z</time>
      </trkpt>
      <trkpt lat="42.86963428370654582977294921875" lon="-0.4455184377729892730712890625">
        <ele>1479.5999755859375</ele>
        <time>2021-08-11T07:20:47.000Z</time>
      </trkpt>
      <trkpt lat="42.8695872612297534942626953125" lon="-0.44556730426847934722900390625">
        <ele>1479.4000244140625</ele>
        <time>2021-08-11T07:20:50.000Z</time>
      </trkpt>
      <trkpt lat="42.86957971751689910888671875" lon="-0.44560736976563930511474609375">
        <ele>1478.800048828125</ele>
        <time>2021-08-11T07:20:52.000Z</time>
      </trkpt>
      <trkpt lat="42.8695108182728290557861328125" lon="-0.44568230397999286651611328125">
        <ele>1478</ele>
        <time>2021-08-11T07:20:59.000Z</time>
      </trkpt>
      <trkpt lat="42.8695004247128963470458984375" lon="-0.44568993151187896728515625">
        <ele>1477.800048828125</ele>
        <time>2021-08-11T07:21:00.000Z</time>
      </trkpt>
      <trkpt lat="42.86945323459804058074951171875" lon="-0.44572823680937290191650390625">
        <ele>1477.199951171875</ele>
        <time>2021-08-11T07:21:04.000Z</time>
      </trkpt>
      <trkpt lat="42.86945256404578685760498046875" lon="-0.4457380436360836029052734375">
        <ele>1477.199951171875</ele>
        <time>2021-08-11T07:21:05.000Z</time>
      </trkpt>
      <trkpt lat="42.86943881772458553314208984375" lon="-0.44578104279935359954833984375">
        <ele>1476.5999755859375</ele>
        <time>2021-08-11T07:21:08.000Z</time>
      </trkpt>
      <trkpt lat="42.86943328566849231719970703125" lon="-0.44581926427781581878662109375">
        <ele>1476</ele>
        <time>2021-08-11T07:21:11.000Z</time>
      </trkpt>
      <trkpt lat="42.869425155222415924072265625" lon="-0.44587776996195316314697265625">
        <ele>1475</ele>
        <time>2021-08-11T07:21:14.000Z</time>
      </trkpt>
      <trkpt lat="42.86942406557500362396240234375" lon="-0.4458926059305667877197265625">
        <ele>1474.5999755859375</ele>
        <time>2021-08-11T07:21:15.000Z</time>
      </trkpt>
      <trkpt lat="42.8694092296063899993896484375" lon="-0.44597080908715724945068359375">
        <ele>1473.4000244140625</ele>
        <time>2021-08-11T07:21:21.000Z</time>
      </trkpt>
      <trkpt lat="42.8693964891135692596435546875" lon="-0.44605764560401439666748046875">
        <ele>1472</ele>
        <time>2021-08-11T07:21:27.000Z</time>
      </trkpt>
      <trkpt lat="42.869404368102550506591796875" lon="-0.44609360396862030029296875">
        <ele>1471.5999755859375</ele>
        <time>2021-08-11T07:21:32.000Z</time>
      </trkpt>
      <trkpt lat="42.86940679885447025299072265625" lon="-0.4461480863392353057861328125">
        <ele>1470.800048828125</ele>
        <time>2021-08-11T07:21:38.000Z</time>
      </trkpt>
      <trkpt lat="42.86941073834896087646484375" lon="-0.44622947461903095245361328125">
        <ele>1469.5999755859375</ele>
        <time>2021-08-11T07:21:47.000Z</time>
      </trkpt>
      <trkpt lat="42.86943747662007808685302734375" lon="-0.44630088843405246734619140625">
        <ele>1468</ele>
        <time>2021-08-11T07:21:53.000Z</time>
      </trkpt>
      <trkpt lat="42.8694548271596431732177734375" lon="-0.4463643394410610198974609375">
        <ele>1466.5999755859375</ele>
        <time>2021-08-11T07:21:59.000Z</time>
      </trkpt>
      <trkpt lat="42.8694155998528003692626953125" lon="-0.446431227028369903564453125">
        <ele>1465</ele>
        <time>2021-08-11T07:22:04.000Z</time>
      </trkpt>
      <trkpt lat="42.86937511526048183441162109375" lon="-0.4464555345475673675537109375">
        <ele>1464.5999755859375</ele>
        <time>2021-08-11T07:22:07.000Z</time>
      </trkpt>
      <trkpt lat="42.8693626262247562408447265625" lon="-0.44645913876593112945556640625">
        <ele>1464.5999755859375</ele>
        <time>2021-08-11T07:22:09.000Z</time>
      </trkpt>
      <trkpt lat="42.86932985298335552215576171875" lon="-0.4464642517268657684326171875">
        <ele>1464.5999755859375</ele>
        <time>2021-08-11T07:22:14.000Z</time>
      </trkpt>
      <trkpt lat="42.869303114712238311767578125" lon="-0.44649191200733184814453125">
        <ele>1464</ele>
        <time>2021-08-11T07:22:20.000Z</time>
      </trkpt>
      <trkpt lat="42.869283668696880340576171875" lon="-0.446513034403324127197265625">
        <ele>1463.4000244140625</ele>
        <time>2021-08-11T07:22:25.000Z</time>
      </trkpt>
      <trkpt lat="42.86926531232893466949462890625" lon="-0.44658235274255275726318359375">
        <ele>1461.800048828125</ele>
        <time>2021-08-11T07:22:31.000Z</time>
      </trkpt>
      <trkpt lat="42.8692315332591533660888671875" lon="-0.44667438603937625885009765625">
        <ele>1459.199951171875</ele>
        <time>2021-08-11T07:22:37.000Z</time>
      </trkpt>
      <trkpt lat="42.86922725848853588104248046875" lon="-0.44670154340565204620361328125">
        <ele>1458.5999755859375</ele>
        <time>2021-08-11T07:22:43.000Z</time>
      </trkpt>
      <trkpt lat="42.86922943778336048126220703125" lon="-0.4467312991619110107421875">
        <ele>1457.5999755859375</ele>
        <time>2021-08-11T07:22:49.000Z</time>
      </trkpt>
      <trkpt lat="42.86923513747751712799072265625" lon="-0.44685308821499347686767578125">
        <ele>1453.5999755859375</ele>
        <time>2021-08-11T07:22:57.000Z</time>
      </trkpt>
      <trkpt lat="42.869243435561656951904296875" lon="-0.44687211513519287109375">
        <ele>1453</ele>
        <time>2021-08-11T07:23:02.000Z</time>
      </trkpt>
      <trkpt lat="42.86922306753695011138916015625" lon="-0.44691746123135089874267578125">
        <ele>1451.5999755859375</ele>
        <time>2021-08-11T07:23:09.000Z</time>
      </trkpt>
      <trkpt lat="42.86923027597367763519287109375" lon="-0.4470000229775905609130859375">
        <ele>1449.4000244140625</ele>
        <time>2021-08-11T07:23:15.000Z</time>
      </trkpt>
      <trkpt lat="42.8692335449159145355224609375" lon="-0.4470607079565525054931640625">
        <ele>1447.800048828125</ele>
        <time>2021-08-11T07:23:22.000Z</time>
      </trkpt>
      <trkpt lat="42.86922541446983814239501953125" lon="-0.4470610432326793670654296875">
        <ele>1447.800048828125</ele>
        <time>2021-08-11T07:23:25.000Z</time>
      </trkpt>
      <trkpt lat="42.86921024322509765625" lon="-0.4470932297408580780029296875">
        <ele>1447</ele>
        <time>2021-08-11T07:23:27.000Z</time>
      </trkpt>
      <trkpt lat="42.86918400786817073822021484375" lon="-0.44712985865771770477294921875">
        <ele>1446.199951171875</ele>
        <time>2021-08-11T07:23:33.000Z</time>
      </trkpt>
      <trkpt lat="42.8691265918314456939697265625" lon="-0.4471093229949474334716796875">
        <ele>1447</ele>
        <time>2021-08-11T07:23:40.000Z</time>
      </trkpt>
      <trkpt lat="42.86904604174196720123291015625" lon="-0.4471886157989501953125">
        <ele>1445.199951171875</ele>
        <time>2021-08-11T07:23:47.000Z</time>
      </trkpt>
      <trkpt lat="42.86899139173328876495361328125" lon="-0.44726363383233547210693359375">
        <ele>1444</ele>
        <time>2021-08-11T07:23:53.000Z</time>
      </trkpt>
      <trkpt lat="42.8689847700297832489013671875" lon="-0.44729313813149929046630859375">
        <ele>1443.4000244140625</ele>
        <time>2021-08-11T07:23:54.000Z</time>
      </trkpt>
      <trkpt lat="42.8689348138868808746337890625" lon="-0.4473750293254852294921875">
        <ele>1441.800048828125</ele>
        <time>2021-08-11T07:23:57.000Z</time>
      </trkpt>
      <trkpt lat="42.86885476671159267425537109375" lon="-0.4474984109401702880859375">
        <ele>1439.4000244140625</ele>
        <time>2021-08-11T07:24:03.000Z</time>
      </trkpt>
      <trkpt lat="42.868845127522945404052734375" lon="-0.44752062298357486724853515625">
        <ele>1439</ele>
        <time>2021-08-11T07:24:04.000Z</time>
      </trkpt>
      <trkpt lat="42.86881721578538417816162109375" lon="-0.447577871382236480712890625">
        <ele>1438</ele>
        <time>2021-08-11T07:24:07.000Z</time>
      </trkpt>
      <trkpt lat="42.8688047267496585845947265625" lon="-0.44759019277989864349365234375">
        <ele>1437.800048828125</ele>
        <time>2021-08-11T07:24:08.000Z</time>
      </trkpt>
      <trkpt lat="42.86876625381410121917724609375" lon="-0.447628833353519439697265625">
        <ele>1437.199951171875</ele>
        <time>2021-08-11T07:24:12.000Z</time>
      </trkpt>
      <trkpt lat="42.86875762045383453369140625" lon="-0.4476119019091129302978515625">
        <ele>1437.4000244140625</ele>
        <time>2021-08-11T07:24:19.000Z</time>
      </trkpt>
      <trkpt lat="42.8687517531216144561767578125" lon="-0.44770234264433383941650390625">
        <ele>1436</ele>
        <time>2021-08-11T07:24:27.000Z</time>
      </trkpt>
      <trkpt lat="42.86873205564916133880615234375" lon="-0.4477332718670368194580078125">
        <ele>1435.4000244140625</ele>
        <time>2021-08-11T07:24:33.000Z</time>
      </trkpt>
      <trkpt lat="42.8687261044979095458984375" lon="-0.44782270677387714385986328125">
        <ele>1434.4000244140625</ele>
        <time>2021-08-11T07:24:39.000Z</time>
      </trkpt>
      <trkpt lat="42.86873876117169857025146484375" lon="-0.44796184636652469635009765625">
        <ele>1433</ele>
        <time>2021-08-11T07:24:47.000Z</time>
      </trkpt>
      <trkpt lat="42.86871059797704219818115234375" lon="-0.44799151830375194549560546875">
        <ele>1432.5999755859375</ele>
        <time>2021-08-11T07:24:54.000Z</time>
      </trkpt>
      <trkpt lat="42.8686769865453243255615234375" lon="-0.448099561035633087158203125">
        <ele>1431</ele>
        <time>2021-08-11T07:25:03.000Z</time>
      </trkpt>
      <trkpt lat="42.86866374313831329345703125" lon="-0.44816829264163970947265625">
        <ele>1430</ele>
        <time>2021-08-11T07:25:12.000Z</time>
      </trkpt>
      <trkpt lat="42.86865234375" lon="-0.44822587631642818450927734375">
        <ele>1429.199951171875</ele>
        <time>2021-08-11T07:25:18.000Z</time>
      </trkpt>
      <trkpt lat="42.86872769705951213836669921875" lon="-0.44826108030974864959716796875">
        <ele>1428.800048828125</ele>
        <time>2021-08-11T07:25:25.000Z</time>
      </trkpt>
      <trkpt lat="42.86874680779874324798583984375" lon="-0.44825320132076740264892578125">
        <ele>1429</ele>
        <time>2021-08-11T07:25:30.000Z</time>
      </trkpt>
      <trkpt lat="42.86871763877570629119873046875" lon="-0.44819704256951808929443359375">
        <ele>1429.800048828125</ele>
        <time>2021-08-11T07:25:40.000Z</time>
      </trkpt>
      <trkpt lat="42.86874823272228240966796875" lon="-0.44820844195783138275146484375">
        <ele>1429.800048828125</ele>
        <time>2021-08-11T07:25:49.000Z</time>
      </trkpt>
      <trkpt lat="42.8687824308872222900390625" lon="-0.4482157342135906219482421875">
        <ele>1429.800048828125</ele>
        <time>2021-08-11T07:25:54.000Z</time>
      </trkpt>
      <trkpt lat="42.86884185858070850372314453125" lon="-0.44824607670307159423828125">
        <ele>1429.4000244140625</ele>
        <time>2021-08-11T07:26:00.000Z</time>
      </trkpt>
      <trkpt lat="42.8688603825867176055908203125" lon="-0.448252446949481964111328125">
        <ele>1429.199951171875</ele>
        <time>2021-08-11T07:26:06.000Z</time>
      </trkpt>
      <trkpt lat="42.86886314861476421356201171875" lon="-0.4482465796172618865966796875">
        <ele>1429.4000244140625</ele>
        <time>2021-08-11T07:26:15.000Z</time>
      </trkpt>
      <trkpt lat="42.86894093267619609832763671875" lon="-0.44820793904364109039306640625">
        <ele>1430</ele>
        <time>2021-08-11T07:26:28.000Z</time>
      </trkpt>
      <trkpt lat="42.86906045861542224884033203125" lon="-0.44814574532210826873779296875">
        <ele>1429.4000244140625</ele>
        <time>2021-08-11T07:26:37.000Z</time>
      </trkpt>
      <trkpt lat="42.86917336285114288330078125" lon="-0.4481180012226104736328125">
        <ele>1427</ele>
        <time>2021-08-11T07:26:46.000Z</time>
      </trkpt>
      <trkpt lat="42.86921233870089054107666015625" lon="-0.448083467781543731689453125">
        <ele>1426.5999755859375</ele>
        <time>2021-08-11T07:26:50.000Z</time>
      </trkpt>
      <trkpt lat="42.8692489676177501678466796875" lon="-0.4480541311204433441162109375">
        <ele>1426.199951171875</ele>
        <time>2021-08-11T07:26:53.000Z</time>
      </trkpt>
      <trkpt lat="42.869272939860820770263671875" lon="-0.4480430670082569122314453125">
        <ele>1425.800048828125</ele>
        <time>2021-08-11T07:26:55.000Z</time>
      </trkpt>
      <trkpt lat="42.86929967813193798065185546875" lon="-0.44804683886468410491943359375">
        <ele>1425.199951171875</ele>
        <time>2021-08-11T07:26:58.000Z</time>
      </trkpt>
      <trkpt lat="42.86931057460606098175048828125" lon="-0.4480477608740329742431640625">
        <ele>1424.800048828125</ele>
        <time>2021-08-11T07:26:59.000Z</time>
      </trkpt>
      <trkpt lat="42.869355417788028717041015625" lon="-0.44807701371610164642333984375">
        <ele>1423.4000244140625</ele>
        <time>2021-08-11T07:27:05.000Z</time>
      </trkpt>
      <trkpt lat="42.86935416050255298614501953125" lon="-0.44809411279857158660888671875">
        <ele>1423.199951171875</ele>
        <time>2021-08-11T07:27:06.000Z</time>
      </trkpt>
      <trkpt lat="42.86934946663677692413330078125" lon="-0.448249764740467071533203125">
        <ele>1421.800048828125</ele>
        <time>2021-08-11T07:27:15.000Z</time>
      </trkpt>
      <trkpt lat="42.8693264164030551910400390625" lon="-0.4483111202716827392578125">
        <ele>1421.5999755859375</ele>
        <time>2021-08-11T07:27:18.000Z</time>
      </trkpt>
      <trkpt lat="42.8693492151796817779541015625" lon="-0.44834087602794170379638671875">
        <ele>1421</ele>
        <time>2021-08-11T07:27:22.000Z</time>
      </trkpt>
      <trkpt lat="42.86935701034963130950927734375" lon="-0.44836032204329967498779296875">
        <ele>1420.800048828125</ele>
        <time>2021-08-11T07:27:26.000Z</time>
      </trkpt>
      <trkpt lat="42.86938316188752651214599609375" lon="-0.44840700924396514892578125">
        <ele>1420.199951171875</ele>
        <time>2021-08-11T07:27:33.000Z</time>
      </trkpt>
      <trkpt lat="42.86941149272024631500244140625" lon="-0.44841245748102664947509765625">
        <ele>1419.4000244140625</ele>
        <time>2021-08-11T07:27:37.000Z</time>
      </trkpt>
      <trkpt lat="42.869427166879177093505859375" lon="-0.44838798232376575469970703125">
        <ele>1419</ele>
        <time>2021-08-11T07:27:39.000Z</time>
      </trkpt>
      <trkpt lat="42.8694280050694942474365234375" lon="-0.44835646636784076690673828125">
        <ele>1419</ele>
        <time>2021-08-11T07:27:41.000Z</time>
      </trkpt>
      <trkpt lat="42.869432531297206878662109375" lon="-0.4482754133641719818115234375">
        <ele>1419.4000244140625</ele>
        <time>2021-08-11T07:27:45.000Z</time>
      </trkpt>
      <trkpt lat="42.86944770254194736480712890625" lon="-0.4481848888099193572998046875">
        <ele>1420</ele>
        <time>2021-08-11T07:27:52.000Z</time>
      </trkpt>
      <trkpt lat="42.86946362815797328948974609375" lon="-0.448178015649318695068359375">
        <ele>1419.5999755859375</ele>
        <time>2021-08-11T07:27:54.000Z</time>
      </trkpt>
      <trkpt lat="42.86947821266949176788330078125" lon="-0.4482046701014041900634765625">
        <ele>1419</ele>
        <time>2021-08-11T07:27:57.000Z</time>
      </trkpt>
      <trkpt lat="42.86949162371456623077392578125" lon="-0.44823459349572658538818359375">
        <ele>1418.4000244140625</ele>
        <time>2021-08-11T07:27:59.000Z</time>
      </trkpt>
      <trkpt lat="42.86949698813259601593017578125" lon="-0.44825336895883083343505859375">
        <ele>1418</ele>
        <time>2021-08-11T07:28:00.000Z</time>
      </trkpt>
      <trkpt lat="42.8695021010935306549072265625" lon="-0.4483045823872089385986328125">
        <ele>1417.199951171875</ele>
        <time>2021-08-11T07:28:03.000Z</time>
      </trkpt>
      <trkpt lat="42.869502604007720947265625" lon="-0.4483245313167572021484375">
        <ele>1417.199951171875</ele>
        <time>2021-08-11T07:28:04.000Z</time>
      </trkpt>
      <trkpt lat="42.86952364258468151092529296875" lon="-0.448370464146137237548828125">
        <ele>1416.4000244140625</ele>
        <time>2021-08-11T07:28:08.000Z</time>
      </trkpt>
      <trkpt lat="42.86953822709619998931884765625" lon="-0.44838496483862400054931640625">
        <ele>1416</ele>
        <time>2021-08-11T07:28:10.000Z</time>
      </trkpt>
      <trkpt lat="42.8695460222661495208740234375" lon="-0.4483964480459690093994140625">
        <ele>1415.800048828125</ele>
        <time>2021-08-11T07:28:11.000Z</time>
      </trkpt>
      <trkpt lat="42.8695533983409404754638671875" lon="-0.4484130442142486572265625">
        <ele>1415.4000244140625</ele>
        <time>2021-08-11T07:28:12.000Z</time>
      </trkpt>
      <trkpt lat="42.86957108415663242340087890625" lon="-0.448469705879688262939453125">
        <ele>1414.5999755859375</ele>
        <time>2021-08-11T07:28:15.000Z</time>
      </trkpt>
      <trkpt lat="42.8695718385279178619384765625" lon="-0.448494516313076019287109375">
        <ele>1414.4000244140625</ele>
        <time>2021-08-11T07:28:16.000Z</time>
      </trkpt>
      <trkpt lat="42.86958700977265834808349609375" lon="-0.44861010275781154632568359375">
        <ele>1413.800048828125</ele>
        <time>2021-08-11T07:28:22.000Z</time>
      </trkpt>
      <trkpt lat="42.86958868615329265594482421875" lon="-0.44862166978418827056884765625">
        <ele>1413.800048828125</ele>
        <time>2021-08-11T07:28:23.000Z</time>
      </trkpt>
      <trkpt lat="42.869596816599369049072265625" lon="-0.4486287944018840789794921875">
        <ele>1413.5999755859375</ele>
        <time>2021-08-11T07:28:24.000Z</time>
      </trkpt>
      <trkpt lat="42.86961860954761505126953125" lon="-0.44865955598652362823486328125">
        <ele>1413</ele>
        <time>2021-08-11T07:28:27.000Z</time>
      </trkpt>
      <trkpt lat="42.869658172130584716796875" lon="-0.4487139545381069183349609375">
        <ele>1411.800048828125</ele>
        <time>2021-08-11T07:28:32.000Z</time>
      </trkpt>
      <trkpt lat="42.86973536945879459381103515625" lon="-0.44883674941956996917724609375">
        <ele>1409.199951171875</ele>
        <time>2021-08-11T07:28:40.000Z</time>
      </trkpt>
      <trkpt lat="42.8697426617145538330078125" lon="-0.4488661698997020721435546875">
        <ele>1409</ele>
        <time>2021-08-11T07:28:42.000Z</time>
      </trkpt>
      <trkpt lat="42.86975045688450336456298828125" lon="-0.4488933272659778594970703125">
        <ele>1408.5999755859375</ele>
        <time>2021-08-11T07:28:44.000Z</time>
      </trkpt>
      <trkpt lat="42.86975406110286712646484375" lon="-0.4489070735871791839599609375">
        <ele>1408.4000244140625</ele>
        <time>2021-08-11T07:28:45.000Z</time>
      </trkpt>
      <trkpt lat="42.869761101901531219482421875" lon="-0.44900715351104736328125">
        <ele>1407</ele>
        <time>2021-08-11T07:28:53.000Z</time>
      </trkpt>
      <trkpt lat="42.86975540220737457275390625" lon="-0.44904939830303192138671875">
        <ele>1406.800048828125</ele>
        <time>2021-08-11T07:28:56.000Z</time>
      </trkpt>
      <trkpt lat="42.8697579167783260345458984375" lon="-0.449091307818889617919921875">
        <ele>1406.4000244140625</ele>
        <time>2021-08-11T07:28:58.000Z</time>
      </trkpt>
      <trkpt lat="42.869765125215053558349609375" lon="-0.4491796530783176422119140625">
        <ele>1405.199951171875</ele>
        <time>2021-08-11T07:29:04.000Z</time>
      </trkpt>
      <trkpt lat="42.86975942552089691162109375" lon="-0.4491933993995189666748046875">
        <ele>1405.4000244140625</ele>
        <time>2021-08-11T07:29:05.000Z</time>
      </trkpt>
      <trkpt lat="42.86973930895328521728515625" lon="-0.449242182075977325439453125">
        <ele>1406</ele>
        <time>2021-08-11T07:29:08.000Z</time>
      </trkpt>
      <trkpt lat="42.869726233184337615966796875" lon="-0.44927629642188549041748046875">
        <ele>1406.4000244140625</ele>
        <time>2021-08-11T07:29:10.000Z</time>
      </trkpt>
      <trkpt lat="42.8697257302701473236083984375" lon="-0.4493358917534351348876953125">
        <ele>1406</ele>
        <time>2021-08-11T07:29:14.000Z</time>
      </trkpt>
      <trkpt lat="42.86972858011722564697265625" lon="-0.449374616146087646484375">
        <ele>1405.5999755859375</ele>
        <time>2021-08-11T07:29:16.000Z</time>
      </trkpt>
      <trkpt lat="42.8696858324110507965087890625" lon="-0.44957133941352367401123046875">
        <ele>1405</ele>
        <time>2021-08-11T07:29:24.000Z</time>
      </trkpt>
      <trkpt lat="42.86967434920370578765869140625" lon="-0.44958315789699554443359375">
        <ele>1405.4000244140625</ele>
        <time>2021-08-11T07:29:25.000Z</time>
      </trkpt>
      <trkpt lat="42.869635038077831268310546875" lon="-0.44963948428630828857421875">
        <ele>1406.199951171875</ele>
        <time>2021-08-11T07:29:29.000Z</time>
      </trkpt>
      <trkpt lat="42.869636379182338714599609375" lon="-0.44974249787628650665283203125">
        <ele>1405.4000244140625</ele>
        <time>2021-08-11T07:29:34.000Z</time>
      </trkpt>
      <trkpt lat="42.86962958984076976776123046875" lon="-0.4497841559350490570068359375">
        <ele>1405.4000244140625</ele>
        <time>2021-08-11T07:29:36.000Z</time>
      </trkpt>
      <trkpt lat="42.86963336169719696044921875" lon="-0.44981374405324459075927734375">
        <ele>1405.199951171875</ele>
        <time>2021-08-11T07:29:38.000Z</time>
      </trkpt>
      <trkpt lat="42.86963176913559436798095703125" lon="-0.4498378001153469085693359375">
        <ele>1405.199951171875</ele>
        <time>2021-08-11T07:29:40.000Z</time>
      </trkpt>
      <trkpt lat="42.86963009275496006011962890625" lon="-0.44985129497945308685302734375">
        <ele>1405.199951171875</ele>
        <time>2021-08-11T07:29:41.000Z</time>
      </trkpt>
      <trkpt lat="42.86962774582207202911376953125" lon="-0.44993243180215358734130859375">
        <ele>1404.800048828125</ele>
        <time>2021-08-11T07:29:46.000Z</time>
      </trkpt>
      <trkpt lat="42.86963143385946750640869140625" lon="-0.4500118084251880645751953125">
        <ele>1404</ele>
        <time>2021-08-11T07:29:51.000Z</time>
      </trkpt>
      <trkpt lat="42.8696365468204021453857421875" lon="-0.45004977844655513763427734375">
        <ele>1403.5999755859375</ele>
        <time>2021-08-11T07:29:53.000Z</time>
      </trkpt>
      <trkpt lat="42.86964048631489276885986328125" lon="-0.4500932805240154266357421875">
        <ele>1403.199951171875</ele>
        <time>2021-08-11T07:29:57.000Z</time>
      </trkpt>
      <trkpt lat="42.86963336169719696044921875" lon="-0.45010593719780445098876953125">
        <ele>1403.5999755859375</ele>
        <time>2021-08-11T07:29:58.000Z</time>
      </trkpt>
      <trkpt lat="42.8696036897599697113037109375" lon="-0.45016947202384471893310546875">
        <ele>1404.5999755859375</ele>
        <time>2021-08-11T07:30:02.000Z</time>
      </trkpt>
      <trkpt lat="42.8696020133793354034423828125" lon="-0.45019009150564670562744140625">
        <ele>1404.5999755859375</ele>
        <time>2021-08-11T07:30:03.000Z</time>
      </trkpt>
      <trkpt lat="42.8695912845432758331298828125" lon="-0.4502102918922901153564453125">
        <ele>1405.199951171875</ele>
        <time>2021-08-11T07:30:04.000Z</time>
      </trkpt>
      <trkpt lat="42.86957301199436187744140625" lon="-0.4502584040164947509765625">
        <ele>1405.5999755859375</ele>
        <time>2021-08-11T07:30:07.000Z</time>
      </trkpt>
      <trkpt lat="42.8695768676698207855224609375" lon="-0.45026955194771289825439453125">
        <ele>1405.199951171875</ele>
        <time>2021-08-11T07:30:08.000Z</time>
      </trkpt>
      <trkpt lat="42.86957493983209133148193359375" lon="-0.450284890830516815185546875">
        <ele>1405</ele>
        <time>2021-08-11T07:30:09.000Z</time>
      </trkpt>
      <trkpt lat="42.86954359151422977447509765625" lon="-0.45038002543151378631591796875">
        <ele>1405.800048828125</ele>
        <time>2021-08-11T07:30:13.000Z</time>
      </trkpt>
      <trkpt lat="42.86953118629753589630126953125" lon="-0.4504013992846012115478515625">
        <ele>1406.199951171875</ele>
        <time>2021-08-11T07:30:14.000Z</time>
      </trkpt>
      <trkpt lat="42.86951559595763683319091796875" lon="-0.45047407038509845733642578125">
        <ele>1406</ele>
        <time>2021-08-11T07:30:18.000Z</time>
      </trkpt>
      <trkpt lat="42.8695192001760005950927734375" lon="-0.45049351640045642852783203125">
        <ele>1405.800048828125</ele>
        <time>2021-08-11T07:30:19.000Z</time>
      </trkpt>
      <trkpt lat="42.8695406578481197357177734375" lon="-0.45057163573801517486572265625">
        <ele>1404.199951171875</ele>
        <time>2021-08-11T07:30:23.000Z</time>
      </trkpt>
      <trkpt lat="42.86954644136130809783935546875" lon="-0.4506205022335052490234375">
        <ele>1403.4000244140625</ele>
        <time>2021-08-11T07:30:25.000Z</time>
      </trkpt>
      <trkpt lat="42.86955448798835277557373046875" lon="-0.4506411217153072357177734375">
        <ele>1402.800048828125</ele>
        <time>2021-08-11T07:30:26.000Z</time>
      </trkpt>
      <trkpt lat="42.86958038806915283203125" lon="-0.4507175646722316741943359375">
        <ele>1400.5999755859375</ele>
        <time>2021-08-11T07:30:31.000Z</time>
      </trkpt>
      <trkpt lat="42.869621627032756805419921875" lon="-0.450765676796436309814453125">
        <ele>1397.4000244140625</ele>
        <time>2021-08-11T07:30:35.000Z</time>
      </trkpt>
      <trkpt lat="42.86962439306080341339111328125" lon="-0.45083574950695037841796875">
        <ele>1396.4000244140625</ele>
        <time>2021-08-11T07:30:38.000Z</time>
      </trkpt>
      <trkpt lat="42.86965909413993358612060546875" lon="-0.45093608088791370391845703125">
        <ele>1394</ele>
        <time>2021-08-11T07:30:45.000Z</time>
      </trkpt>
      <trkpt lat="42.86970200948417186737060546875" lon="-0.45099609531462192535400390625">
        <ele>1389.4000244140625</ele>
        <time>2021-08-11T07:30:51.000Z</time>
      </trkpt>
      <trkpt lat="42.86970133893191814422607421875" lon="-0.45105124823749065399169921875">
        <ele>1388.199951171875</ele>
        <time>2021-08-11T07:30:55.000Z</time>
      </trkpt>
      <trkpt lat="42.86972816102206707000732421875" lon="-0.45108796097338199615478515625">
        <ele>1384.5999755859375</ele>
        <time>2021-08-11T07:30:58.000Z</time>
      </trkpt>
      <trkpt lat="42.86975431255996227264404296875" lon="-0.45112945139408111572265625">
        <ele>1381.4000244140625</ele>
        <time>2021-08-11T07:31:04.000Z</time>
      </trkpt>
      <trkpt lat="42.86976839415729045867919921875" lon="-0.45111863873898983001708984375">
        <ele>1380.199951171875</ele>
        <time>2021-08-11T07:31:10.000Z</time>
      </trkpt>
      <trkpt lat="42.86976554431021213531494140625" lon="-0.45113624073565006256103515625">
        <ele>1380.199951171875</ele>
        <time>2021-08-11T07:31:17.000Z</time>
      </trkpt>
      <trkpt lat="42.86975431255996227264404296875" lon="-0.4511316306889057159423828125">
        <ele>1381.4000244140625</ele>
        <time>2021-08-11T07:31:22.000Z</time>
      </trkpt>
      <trkpt lat="42.8697681427001953125" lon="-0.45112400315701961517333984375">
        <ele>1380.199951171875</ele>
        <time>2021-08-11T07:31:28.000Z</time>
      </trkpt>
      <trkpt lat="42.86983142606914043426513671875" lon="-0.45094764791429042816162109375">
        <ele>1378.199951171875</ele>
        <time>2021-08-11T07:32:17.000Z</time>
      </trkpt>
      <trkpt lat="42.869850285351276397705078125" lon="-0.45080029405653476715087890625">
        <ele>1380.4000244140625</ele>
        <time>2021-08-11T07:32:25.000Z</time>
      </trkpt>
      <trkpt lat="42.86986009217798709869384765625" lon="-0.45077464543282985687255859375">
        <ele>1380.199951171875</ele>
        <time>2021-08-11T07:32:27.000Z</time>
      </trkpt>
      <trkpt lat="42.86987786181271076202392578125" lon="-0.45073457993566989898681640625">
        <ele>1379.4000244140625</ele>
        <time>2021-08-11T07:32:32.000Z</time>
      </trkpt>
      <trkpt lat="42.8698863275349140167236328125" lon="-0.45070566236972808837890625">
        <ele>1379.199951171875</ele>
        <time>2021-08-11T07:32:35.000Z</time>
      </trkpt>
      <trkpt lat="42.869910635054111480712890625" lon="-0.450662076473236083984375">
        <ele>1378</ele>
        <time>2021-08-11T07:32:42.000Z</time>
      </trkpt>
      <trkpt lat="42.86993100307881832122802734375" lon="-0.4506096057593822479248046875">
        <ele>1377.4000244140625</ele>
        <time>2021-08-11T07:32:49.000Z</time>
      </trkpt>
      <trkpt lat="42.8699751757085323333740234375" lon="-0.45058102346956729888916015625">
        <ele>1374.5999755859375</ele>
        <time>2021-08-11T07:32:56.000Z</time>
      </trkpt>
      <trkpt lat="42.87004197947680950164794921875" lon="-0.4505338333547115325927734375">
        <ele>1370.5999755859375</ele>
        <time>2021-08-11T07:33:05.000Z</time>
      </trkpt>
      <trkpt lat="42.87009277381002902984619140625" lon="-0.450517237186431884765625">
        <ele>1367.5999755859375</ele>
        <time>2021-08-11T07:33:12.000Z</time>
      </trkpt>
      <trkpt lat="42.8701047599315643310546875" lon="-0.4504667781293392181396484375">
        <ele>1368.199951171875</ele>
        <time>2021-08-11T07:33:20.000Z</time>
      </trkpt>
      <trkpt lat="42.87014071829617023468017578125" lon="-0.450416319072246551513671875">
        <ele>1367</ele>
        <time>2021-08-11T07:33:28.000Z</time>
      </trkpt>
      <trkpt lat="42.870164774358272552490234375" lon="-0.4503648541867733001708984375">
        <ele>1366.800048828125</ele>
        <time>2021-08-11T07:33:35.000Z</time>
      </trkpt>
      <trkpt lat="42.8701833821833133697509765625" lon="-0.4503470845520496368408203125">
        <ele>1366</ele>
        <time>2021-08-11T07:33:42.000Z</time>
      </trkpt>
      <trkpt lat="42.87018279545009136199951171875" lon="-0.4503296501934528350830078125">
        <ele>1366.5999755859375</ele>
        <time>2021-08-11T07:33:46.000Z</time>
      </trkpt>
      <trkpt lat="42.870184890925884246826171875" lon="-0.45033660717308521270751953125">
        <ele>1366.199951171875</ele>
        <time>2021-08-11T07:33:52.000Z</time>
      </trkpt>
      <trkpt lat="42.87034993059933185577392578125" lon="-0.45019595883786678314208984375">
        <ele>1356.800048828125</ele>
        <time>2021-08-11T07:34:56.000Z</time>
      </trkpt>
      <trkpt lat="42.87043794058263301849365234375" lon="-0.450071655213832855224609375">
        <ele>1352.4000244140625</ele>
        <time>2021-08-11T07:35:16.000Z</time>
      </trkpt>
      <trkpt lat="42.87049996666610240936279296875" lon="-0.44994123280048370361328125">
        <ele>1350.199951171875</ele>
        <time>2021-08-11T07:35:27.000Z</time>
      </trkpt>
      <trkpt lat="42.87052125670015811920166015625" lon="-0.44991147704422473907470703125">
        <ele>1349.199951171875</ele>
        <time>2021-08-11T07:35:34.000Z</time>
      </trkpt>
      <trkpt lat="42.8705501742660999298095703125" lon="-0.44985649175941944122314453125">
        <ele>1348.199951171875</ele>
        <time>2021-08-11T07:35:40.000Z</time>
      </trkpt>
      <trkpt lat="42.87056165747344493865966796875" lon="-0.44977585785090923309326171875">
        <ele>1349.5999755859375</ele>
        <time>2021-08-11T07:35:46.000Z</time>
      </trkpt>
      <trkpt lat="42.870602309703826904296875" lon="-0.4496656358242034912109375">
        <ele>1348.199951171875</ele>
        <time>2021-08-11T07:35:54.000Z</time>
      </trkpt>
      <trkpt lat="42.87068369798362255096435546875" lon="-0.449551977217197418212890625">
        <ele>1341.4000244140625</ele>
        <time>2021-08-11T07:36:04.000Z</time>
      </trkpt>
      <trkpt lat="42.87074572406709194183349609375" lon="-0.44953110627830028533935546875">
        <ele>1338.5999755859375</ele>
        <time>2021-08-11T07:36:12.000Z</time>
      </trkpt>
      <trkpt lat="42.8707741387188434600830078125" lon="-0.44951031915843486785888671875">
        <ele>1337.199951171875</ele>
        <time>2021-08-11T07:36:15.000Z</time>
      </trkpt>
      <trkpt lat="42.870813868939876556396484375" lon="-0.44951199553906917572021484375">
        <ele>1335.5999755859375</ele>
        <time>2021-08-11T07:36:19.000Z</time>
      </trkpt>
      <trkpt lat="42.87082904018461704254150390625" lon="-0.44950830750167369842529296875">
        <ele>1335</ele>
        <time>2021-08-11T07:36:20.000Z</time>
      </trkpt>
      <trkpt lat="42.8709025494754314422607421875" lon="-0.4494510591030120849609375">
        <ele>1331.5999755859375</ele>
        <time>2021-08-11T07:36:27.000Z</time>
      </trkpt>
      <trkpt lat="42.8709535114467144012451171875" lon="-0.44942951761186122894287109375">
        <ele>1329.4000244140625</ele>
        <time>2021-08-11T07:36:35.000Z</time>
      </trkpt>
      <trkpt lat="42.8710601292550563812255859375" lon="-0.44940789230167865753173828125">
        <ele>1326.199951171875</ele>
        <time>2021-08-11T07:36:43.000Z</time>
      </trkpt>
      <trkpt lat="42.87114151753485202789306640625" lon="-0.4494073055684566497802734375">
        <ele>1323.199951171875</ele>
        <time>2021-08-11T07:36:50.000Z</time>
      </trkpt>
      <trkpt lat="42.87122927606105804443359375" lon="-0.449393726885318756103515625">
        <ele>1320.5999755859375</ele>
        <time>2021-08-11T07:36:58.000Z</time>
      </trkpt>
      <trkpt lat="42.8713092394173145294189453125" lon="-0.44937654398381710052490234375">
        <ele>1319.199951171875</ele>
        <time>2021-08-11T07:37:06.000Z</time>
      </trkpt>
      <trkpt lat="42.871355675160884857177734375" lon="-0.44933178462088108062744140625">
        <ele>1319.199951171875</ele>
        <time>2021-08-11T07:37:13.000Z</time>
      </trkpt>
      <trkpt lat="42.87137956358492374420166015625" lon="-0.44925282709300518035888671875">
        <ele>1321</ele>
        <time>2021-08-11T07:37:18.000Z</time>
      </trkpt>
      <trkpt lat="42.87144519388675689697265625" lon="-0.44915392063558101654052734375">
        <ele>1322</ele>
        <time>2021-08-11T07:37:29.000Z</time>
      </trkpt>
      <trkpt lat="42.87153278477489948272705078125" lon="-0.4490488953888416290283203125">
        <ele>1323.5999755859375</ele>
        <time>2021-08-11T07:37:39.000Z</time>
      </trkpt>
      <trkpt lat="42.8716148436069488525390625" lon="-0.44902534224092960357666015625">
        <ele>1322</ele>
        <time>2021-08-11T07:37:46.000Z</time>
      </trkpt>
      <trkpt lat="42.8716626204550266265869140625" lon="-0.4489494860172271728515625">
        <ele>1323.4000244140625</ele>
        <time>2021-08-11T07:37:53.000Z</time>
      </trkpt>
      <trkpt lat="42.87167745642364025115966796875" lon="-0.448936410248279571533203125">
        <ele>1323.4000244140625</ele>
        <time>2021-08-11T07:37:55.000Z</time>
      </trkpt>
      <trkpt lat="42.87177644670009613037109375" lon="-0.44886591844260692596435546875">
        <ele>1323</ele>
        <time>2021-08-11T07:38:05.000Z</time>
      </trkpt>
      <trkpt lat="42.87183352746069431304931640625" lon="-0.44876013882458209991455078125">
        <ele>1322.800048828125</ele>
        <time>2021-08-11T07:38:13.000Z</time>
      </trkpt>
      <trkpt lat="42.87190879695117473602294921875" lon="-0.44870599173009395599365234375">
        <ele>1321</ele>
        <time>2021-08-11T07:38:20.000Z</time>
      </trkpt>
      <trkpt lat="42.87193226628005504608154296875" lon="-0.44868537224829196929931640625">
        <ele>1320.5999755859375</ele>
        <time>2021-08-11T07:38:22.000Z</time>
      </trkpt>
      <trkpt lat="42.8719730861485004425048828125" lon="-0.44864849187433719635009765625">
        <ele>1319.800048828125</ele>
        <time>2021-08-11T07:38:27.000Z</time>
      </trkpt>
      <trkpt lat="42.871984653174877166748046875" lon="-0.4486217536032199859619140625">
        <ele>1319.800048828125</ele>
        <time>2021-08-11T07:38:30.000Z</time>
      </trkpt>
      <trkpt lat="42.87205782718956470489501953125" lon="-0.44863122515380382537841796875">
        <ele>1317.5999755859375</ele>
        <time>2021-08-11T07:38:37.000Z</time>
      </trkpt>
      <trkpt lat="42.8721259720623493194580078125" lon="-0.4486477375030517578125">
        <ele>1316.5999755859375</ele>
        <time>2021-08-11T07:38:44.000Z</time>
      </trkpt>
      <trkpt lat="42.87224440835416316986083984375" lon="-0.4486381821334362030029296875">
        <ele>1314.800048828125</ele>
        <time>2021-08-11T07:38:53.000Z</time>
      </trkpt>
      <trkpt lat="42.872380279004573822021484375" lon="-0.44862016104161739349365234375">
        <ele>1312.199951171875</ele>
        <time>2021-08-11T07:39:05.000Z</time>
      </trkpt>
      <trkpt lat="42.8724052570760250091552734375" lon="-0.448636002838611602783203125">
        <ele>1311.4000244140625</ele>
        <time>2021-08-11T07:39:08.000Z</time>
      </trkpt>
      <trkpt lat="42.87244155071675777435302734375" lon="-0.448640696704387664794921875">
        <ele>1310.4000244140625</ele>
        <time>2021-08-11T07:39:11.000Z</time>
      </trkpt>
      <trkpt lat="42.8725474141538143157958984375" lon="-0.448606498539447784423828125">
        <ele>1308.199951171875</ele>
        <time>2021-08-11T07:39:20.000Z</time>
      </trkpt>
      <trkpt lat="42.8726439736783504486083984375" lon="-0.448525361716747283935546875">
        <ele>1307</ele>
        <time>2021-08-11T07:39:28.000Z</time>
      </trkpt>
      <trkpt lat="42.8726597316563129425048828125" lon="-0.44851890765130519866943359375">
        <ele>1306.800048828125</ele>
        <time>2021-08-11T07:39:29.000Z</time>
      </trkpt>
      <trkpt lat="42.872753106057643890380859375" lon="-0.44845528900623321533203125">
        <ele>1305.199951171875</ele>
        <time>2021-08-11T07:39:37.000Z</time>
      </trkpt>
      <trkpt lat="42.87278269417583942413330078125" lon="-0.4484443925321102142333984375">
        <ele>1304.5999755859375</ele>
        <time>2021-08-11T07:39:40.000Z</time>
      </trkpt>
      <trkpt lat="42.87280297838151454925537109375" lon="-0.4483961127698421478271484375">
        <ele>1304.800048828125</ele>
        <time>2021-08-11T07:39:43.000Z</time>
      </trkpt>
      <trkpt lat="42.87283147685229778289794921875" lon="-0.4482797719538211822509765625">
        <ele>1305.5999755859375</ele>
        <time>2021-08-11T07:39:51.000Z</time>
      </trkpt>
      <trkpt lat="42.87286684848368167877197265625" lon="-0.44815278612077236175537109375">
        <ele>1306.199951171875</ele>
        <time>2021-08-11T07:39:59.000Z</time>
      </trkpt>
      <trkpt lat="42.8729427047073841094970703125" lon="-0.448002330958843231201171875">
        <ele>1306</ele>
        <time>2021-08-11T07:40:10.000Z</time>
      </trkpt>
      <trkpt lat="42.873021662235260009765625" lon="-0.44790409505367279052734375">
        <ele>1305</ele>
        <time>2021-08-11T07:40:19.000Z</time>
      </trkpt>
      <trkpt lat="42.8730986081063747406005859375" lon="-0.44779504649341106414794921875">
        <ele>1304</ele>
        <time>2021-08-11T07:40:26.000Z</time>
      </trkpt>
      <trkpt lat="42.8731116838753223419189453125" lon="-0.4477748461067676544189453125">
        <ele>1304</ele>
        <time>2021-08-11T07:40:28.000Z</time>
      </trkpt>
      <trkpt lat="42.8732015378773212432861328125" lon="-0.44767099432647228240966796875">
        <ele>1304</ele>
        <time>2021-08-11T07:40:38.000Z</time>
      </trkpt>
      <trkpt lat="42.8732483088970184326171875" lon="-0.44756135903298854827880859375">
        <ele>1305.199951171875</ele>
        <time>2021-08-11T07:40:45.000Z</time>
      </trkpt>
      <trkpt lat="42.8733151964843273162841796875" lon="-0.4474318586289882659912109375">
        <ele>1305.5999755859375</ele>
        <time>2021-08-11T07:40:55.000Z</time>
      </trkpt>
      <trkpt lat="42.87333506159484386444091796875" lon="-0.44730504043400287628173828125">
        <ele>1306.5999755859375</ele>
        <time>2021-08-11T07:41:04.000Z</time>
      </trkpt>
      <trkpt lat="42.87338870577514171600341796875" lon="-0.4471559263765811920166015625">
        <ele>1306.800048828125</ele>
        <time>2021-08-11T07:41:14.000Z</time>
      </trkpt>
      <trkpt lat="42.8734141029417514801025390625" lon="-0.4469996877014636993408203125">
        <ele>1307.800048828125</ele>
        <time>2021-08-11T07:41:24.000Z</time>
      </trkpt>
      <trkpt lat="42.87339122034609317779541015625" lon="-0.446816794574260711669921875">
        <ele>1309.800048828125</ele>
        <time>2021-08-11T07:41:35.000Z</time>
      </trkpt>
      <trkpt lat="42.87339624948799610137939453125" lon="-0.44673674739897251129150390625">
        <ele>1310.5999755859375</ele>
        <time>2021-08-11T07:41:40.000Z</time>
      </trkpt>
    </trkseg>
  </trk>
</gpx>
